<?xml version="1.0" encoding="UTF-8" standalone="no" ?>
<gpx xmlns="http://www.topografix.com/GPX/1/1" xmlns:xsi="http://www.w3.org/2001/XMLSchema-instance" xsi:schemaLocation="http://www.topografix.com/GPX/1/1 http://www.topografix.com/GPX/1/1/gpx.xsd" version="1.1" creator="VisuGPX - https://www.visugpx.com">
  <metadata>
    <name>SE 912</name>
  </metadata>
  <trk>
    <name><![CDATA[Froid...😰😢🥶🥶]]></name>
    <trkseg>
      <trkpt lat="49.28655" lon="-0.1192">
        <ele>4.6</ele>
        <time>2023-10-15T06:24:37Z</time>
      </trkpt>
      <trkpt lat="49.2866" lon="-0.11928">
        <ele>4.6</ele>
        <time>2023-10-15T06:24:39Z</time>
      </trkpt>
      <trkpt lat="49.28653" lon="-0.11924">
        <ele>4.5</ele>
        <time>2023-10-15T06:24:40Z</time>
      </trkpt>
      <trkpt lat="49.28649" lon="-0.11924">
        <ele>4.5</ele>
        <time>2023-10-15T06:24:41Z</time>
      </trkpt>
      <trkpt lat="49.28646" lon="-0.11921">
        <ele>4.5</ele>
        <time>2023-10-15T06:24:42Z</time>
      </trkpt>
      <trkpt lat="49.28648" lon="-0.11924">
        <ele>4.5</ele>
        <time>2023-10-15T06:24:44Z</time>
      </trkpt>
      <trkpt lat="49.28649" lon="-0.11926">
        <ele>4.5</ele>
        <time>2023-10-15T06:24:45Z</time>
      </trkpt>
      <trkpt lat="49.2865" lon="-0.11927">
        <ele>4.5</ele>
        <time>2023-10-15T06:24:46Z</time>
      </trkpt>
      <trkpt lat="49.2865" lon="-0.11927">
        <ele>4.5</ele>
        <time>2023-10-15T06:24:47Z</time>
      </trkpt>
      <trkpt lat="49.2865" lon="-0.11927">
        <ele>4.5</ele>
        <time>2023-10-15T06:24:48Z</time>
      </trkpt>
      <trkpt lat="49.28651" lon="-0.11926">
        <ele>4.5</ele>
        <time>2023-10-15T06:24:49Z</time>
      </trkpt>
      <trkpt lat="49.28651" lon="-0.11925">
        <ele>4.5</ele>
        <time>2023-10-15T06:24:50Z</time>
      </trkpt>
      <trkpt lat="49.28651" lon="-0.11925">
        <ele>4.5</ele>
        <time>2023-10-15T06:24:51Z</time>
      </trkpt>
      <trkpt lat="49.28651" lon="-0.11924">
        <ele>4.5</ele>
        <time>2023-10-15T06:24:52Z</time>
      </trkpt>
      <trkpt lat="49.28651" lon="-0.11924">
        <ele>4.5</ele>
        <time>2023-10-15T06:24:53Z</time>
      </trkpt>
      <trkpt lat="49.28651" lon="-0.11924">
        <ele>4.5</ele>
        <time>2023-10-15T06:24:54Z</time>
      </trkpt>
      <trkpt lat="49.28651" lon="-0.11924">
        <ele>4.5</ele>
        <time>2023-10-15T06:24:55Z</time>
      </trkpt>
      <trkpt lat="49.28653" lon="-0.11925">
        <ele>4.5</ele>
        <time>2023-10-15T06:25:06Z</time>
      </trkpt>
      <trkpt lat="49.28653" lon="-0.11925">
        <ele>4.5</ele>
        <time>2023-10-15T06:25:07Z</time>
      </trkpt>
      <trkpt lat="49.28653" lon="-0.11925">
        <ele>4.5</ele>
        <time>2023-10-15T06:25:08Z</time>
      </trkpt>
      <trkpt lat="49.28653" lon="-0.11925">
        <ele>4.5</ele>
        <time>2023-10-15T06:25:09Z</time>
      </trkpt>
      <trkpt lat="49.28653" lon="-0.11926">
        <ele>4.5</ele>
        <time>2023-10-15T06:25:10Z</time>
      </trkpt>
      <trkpt lat="49.28653" lon="-0.11926">
        <ele>4.5</ele>
        <time>2023-10-15T06:25:11Z</time>
      </trkpt>
      <trkpt lat="49.28652" lon="-0.11926">
        <ele>4.5</ele>
        <time>2023-10-15T06:25:12Z</time>
      </trkpt>
      <trkpt lat="49.28652" lon="-0.11926">
        <ele>4.5</ele>
        <time>2023-10-15T06:25:13Z</time>
      </trkpt>
      <trkpt lat="49.28651" lon="-0.11927">
        <ele>4.5</ele>
        <time>2023-10-15T06:25:14Z</time>
      </trkpt>
      <trkpt lat="49.28651" lon="-0.11927">
        <ele>4.5</ele>
        <time>2023-10-15T06:25:15Z</time>
      </trkpt>
      <trkpt lat="49.28651" lon="-0.11927">
        <ele>4.5</ele>
        <time>2023-10-15T06:25:16Z</time>
      </trkpt>
      <trkpt lat="49.28651" lon="-0.11927">
        <ele>4.5</ele>
        <time>2023-10-15T06:25:17Z</time>
      </trkpt>
      <trkpt lat="49.28651" lon="-0.11927">
        <ele>4.5</ele>
        <time>2023-10-15T06:25:18Z</time>
      </trkpt>
      <trkpt lat="49.28651" lon="-0.11927">
        <ele>4.5</ele>
        <time>2023-10-15T06:25:19Z</time>
      </trkpt>
      <trkpt lat="49.28651" lon="-0.11927">
        <ele>4.5</ele>
        <time>2023-10-15T06:25:20Z</time>
      </trkpt>
      <trkpt lat="49.28651" lon="-0.11927">
        <ele>4.5</ele>
        <time>2023-10-15T06:25:21Z</time>
      </trkpt>
      <trkpt lat="49.28651" lon="-0.11927">
        <ele>4.5</ele>
        <time>2023-10-15T06:25:22Z</time>
      </trkpt>
      <trkpt lat="49.28651" lon="-0.11927">
        <ele>4.5</ele>
        <time>2023-10-15T06:25:23Z</time>
      </trkpt>
      <trkpt lat="49.28651" lon="-0.11927">
        <ele>4.5</ele>
        <time>2023-10-15T06:25:24Z</time>
      </trkpt>
      <trkpt lat="49.28651" lon="-0.11922">
        <ele>4.5</ele>
        <time>2023-10-15T06:26:56Z</time>
      </trkpt>
      <trkpt lat="49.28651" lon="-0.11922">
        <ele>4.5</ele>
        <time>2023-10-15T06:26:57Z</time>
      </trkpt>
      <trkpt lat="49.2865" lon="-0.11922">
        <ele>4.5</ele>
        <time>2023-10-15T06:26:58Z</time>
      </trkpt>
      <trkpt lat="49.2865" lon="-0.11922">
        <ele>4.5</ele>
        <time>2023-10-15T06:26:59Z</time>
      </trkpt>
      <trkpt lat="49.2865" lon="-0.11922">
        <ele>4.5</ele>
        <time>2023-10-15T06:27:00Z</time>
      </trkpt>
      <trkpt lat="49.2865" lon="-0.11922">
        <ele>4.5</ele>
        <time>2023-10-15T06:27:01Z</time>
      </trkpt>
      <trkpt lat="49.2865" lon="-0.11922">
        <ele>4.5</ele>
        <time>2023-10-15T06:27:02Z</time>
      </trkpt>
      <trkpt lat="49.2865" lon="-0.11923">
        <ele>4.5</ele>
        <time>2023-10-15T06:27:03Z</time>
      </trkpt>
      <trkpt lat="49.2865" lon="-0.11923">
        <ele>4.5</ele>
        <time>2023-10-15T06:27:04Z</time>
      </trkpt>
      <trkpt lat="49.28651" lon="-0.11924">
        <ele>4.5</ele>
        <time>2023-10-15T06:27:05Z</time>
      </trkpt>
      <trkpt lat="49.2865" lon="-0.11924">
        <ele>4.5</ele>
        <time>2023-10-15T06:27:06Z</time>
      </trkpt>
      <trkpt lat="49.28651" lon="-0.11924">
        <ele>4.5</ele>
        <time>2023-10-15T06:27:07Z</time>
      </trkpt>
      <trkpt lat="49.28651" lon="-0.11924">
        <ele>4.5</ele>
        <time>2023-10-15T06:27:08Z</time>
      </trkpt>
      <trkpt lat="49.28651" lon="-0.11924">
        <ele>4.5</ele>
        <time>2023-10-15T06:27:09Z</time>
      </trkpt>
      <trkpt lat="49.28651" lon="-0.11924">
        <ele>4.5</ele>
        <time>2023-10-15T06:27:10Z</time>
      </trkpt>
      <trkpt lat="49.28651" lon="-0.11924">
        <ele>4.5</ele>
        <time>2023-10-15T06:27:11Z</time>
      </trkpt>
      <trkpt lat="49.28651" lon="-0.11924">
        <ele>4.5</ele>
        <time>2023-10-15T06:27:12Z</time>
      </trkpt>
      <trkpt lat="49.28651" lon="-0.11924">
        <ele>4.5</ele>
        <time>2023-10-15T06:27:13Z</time>
      </trkpt>
      <trkpt lat="49.28651" lon="-0.11924">
        <ele>4.5</ele>
        <time>2023-10-15T06:27:14Z</time>
      </trkpt>
      <trkpt lat="49.28651" lon="-0.11924">
        <ele>4.5</ele>
        <time>2023-10-15T06:27:15Z</time>
      </trkpt>
      <trkpt lat="49.28651" lon="-0.11924">
        <ele>4.5</ele>
        <time>2023-10-15T06:27:16Z</time>
      </trkpt>
      <trkpt lat="49.28651" lon="-0.11924">
        <ele>4.5</ele>
        <time>2023-10-15T06:27:17Z</time>
      </trkpt>
      <trkpt lat="49.28651" lon="-0.11924">
        <ele>4.5</ele>
        <time>2023-10-15T06:27:18Z</time>
      </trkpt>
      <trkpt lat="49.28651" lon="-0.11924">
        <ele>4.5</ele>
        <time>2023-10-15T06:27:19Z</time>
      </trkpt>
      <trkpt lat="49.2865" lon="-0.11923">
        <ele>4.5</ele>
        <time>2023-10-15T06:27:20Z</time>
      </trkpt>
      <trkpt lat="49.2865" lon="-0.11922">
        <ele>4.5</ele>
        <time>2023-10-15T06:27:21Z</time>
      </trkpt>
      <trkpt lat="49.2865" lon="-0.11922">
        <ele>4.5</ele>
        <time>2023-10-15T06:27:22Z</time>
      </trkpt>
      <trkpt lat="49.2865" lon="-0.11921">
        <ele>4.5</ele>
        <time>2023-10-15T06:27:23Z</time>
      </trkpt>
      <trkpt lat="49.2865" lon="-0.11921">
        <ele>4.5</ele>
        <time>2023-10-15T06:27:24Z</time>
      </trkpt>
      <trkpt lat="49.2865" lon="-0.11921">
        <ele>4.5</ele>
        <time>2023-10-15T06:27:25Z</time>
      </trkpt>
      <trkpt lat="49.2865" lon="-0.11921">
        <ele>4.5</ele>
        <time>2023-10-15T06:27:26Z</time>
      </trkpt>
      <trkpt lat="49.2865" lon="-0.11921">
        <ele>4.5</ele>
        <time>2023-10-15T06:27:27Z</time>
      </trkpt>
      <trkpt lat="49.2865" lon="-0.11921">
        <ele>4.5</ele>
        <time>2023-10-15T06:27:28Z</time>
      </trkpt>
      <trkpt lat="49.2865" lon="-0.11921">
        <ele>4.5</ele>
        <time>2023-10-15T06:27:29Z</time>
      </trkpt>
      <trkpt lat="49.2865" lon="-0.11921">
        <ele>4.5</ele>
        <time>2023-10-15T06:27:30Z</time>
      </trkpt>
      <trkpt lat="49.2865" lon="-0.11921">
        <ele>4.5</ele>
        <time>2023-10-15T06:27:31Z</time>
      </trkpt>
      <trkpt lat="49.2865" lon="-0.11921">
        <ele>4.5</ele>
        <time>2023-10-15T06:27:32Z</time>
      </trkpt>
      <trkpt lat="49.2865" lon="-0.11921">
        <ele>4.5</ele>
        <time>2023-10-15T06:27:33Z</time>
      </trkpt>
      <trkpt lat="49.28651" lon="-0.11922">
        <ele>4.5</ele>
        <time>2023-10-15T06:27:34Z</time>
      </trkpt>
      <trkpt lat="49.28651" lon="-0.11922">
        <ele>4.5</ele>
        <time>2023-10-15T06:27:35Z</time>
      </trkpt>
      <trkpt lat="49.28651" lon="-0.11922">
        <ele>4.5</ele>
        <time>2023-10-15T06:27:36Z</time>
      </trkpt>
      <trkpt lat="49.28651" lon="-0.11922">
        <ele>4.5</ele>
        <time>2023-10-15T06:27:37Z</time>
      </trkpt>
      <trkpt lat="49.28651" lon="-0.11922">
        <ele>4.5</ele>
        <time>2023-10-15T06:27:38Z</time>
      </trkpt>
      <trkpt lat="49.28651" lon="-0.11922">
        <ele>4.5</ele>
        <time>2023-10-15T06:27:39Z</time>
      </trkpt>
      <trkpt lat="49.28651" lon="-0.11922">
        <ele>4.5</ele>
        <time>2023-10-15T06:27:40Z</time>
      </trkpt>
      <trkpt lat="49.28651" lon="-0.11922">
        <ele>4.5</ele>
        <time>2023-10-15T06:27:41Z</time>
      </trkpt>
      <trkpt lat="49.28652" lon="-0.11923">
        <ele>4.5</ele>
        <time>2023-10-15T06:27:42Z</time>
      </trkpt>
      <trkpt lat="49.28652" lon="-0.11922">
        <ele>4.6</ele>
        <time>2023-10-15T06:27:43Z</time>
      </trkpt>
      <trkpt lat="49.28651" lon="-0.11922">
        <ele>4.6</ele>
        <time>2023-10-15T06:27:44Z</time>
      </trkpt>
      <trkpt lat="49.28651" lon="-0.11921">
        <ele>4.6</ele>
        <time>2023-10-15T06:27:45Z</time>
      </trkpt>
      <trkpt lat="49.28651" lon="-0.11921">
        <ele>4.6</ele>
        <time>2023-10-15T06:27:46Z</time>
      </trkpt>
      <trkpt lat="49.28651" lon="-0.11921">
        <ele>4.6</ele>
        <time>2023-10-15T06:27:47Z</time>
      </trkpt>
      <trkpt lat="49.28651" lon="-0.11921">
        <ele>4.6</ele>
        <time>2023-10-15T06:27:48Z</time>
      </trkpt>
      <trkpt lat="49.28651" lon="-0.11921">
        <ele>4.6</ele>
        <time>2023-10-15T06:27:49Z</time>
      </trkpt>
      <trkpt lat="49.28651" lon="-0.11921">
        <ele>4.6</ele>
        <time>2023-10-15T06:27:50Z</time>
      </trkpt>
      <trkpt lat="49.28651" lon="-0.11921">
        <ele>4.6</ele>
        <time>2023-10-15T06:27:51Z</time>
      </trkpt>
      <trkpt lat="49.28651" lon="-0.11921">
        <ele>4.6</ele>
        <time>2023-10-15T06:27:52Z</time>
      </trkpt>
      <trkpt lat="49.28651" lon="-0.11921">
        <ele>4.6</ele>
        <time>2023-10-15T06:27:53Z</time>
      </trkpt>
      <trkpt lat="49.28651" lon="-0.11921">
        <ele>4.6</ele>
        <time>2023-10-15T06:27:54Z</time>
      </trkpt>
      <trkpt lat="49.28651" lon="-0.11921">
        <ele>4.6</ele>
        <time>2023-10-15T06:27:55Z</time>
      </trkpt>
      <trkpt lat="49.28651" lon="-0.11921">
        <ele>4.6</ele>
        <time>2023-10-15T06:27:56Z</time>
      </trkpt>
      <trkpt lat="49.28651" lon="-0.11922">
        <ele>4.6</ele>
        <time>2023-10-15T06:27:57Z</time>
      </trkpt>
      <trkpt lat="49.28651" lon="-0.11922">
        <ele>4.6</ele>
        <time>2023-10-15T06:27:58Z</time>
      </trkpt>
      <trkpt lat="49.28651" lon="-0.11923">
        <ele>4.6</ele>
        <time>2023-10-15T06:27:59Z</time>
      </trkpt>
      <trkpt lat="49.28651" lon="-0.11923">
        <ele>4.6</ele>
        <time>2023-10-15T06:28:00Z</time>
      </trkpt>
      <trkpt lat="49.28651" lon="-0.11923">
        <ele>4.6</ele>
        <time>2023-10-15T06:28:01Z</time>
      </trkpt>
      <trkpt lat="49.28651" lon="-0.11923">
        <ele>4.6</ele>
        <time>2023-10-15T06:28:02Z</time>
      </trkpt>
      <trkpt lat="49.28652" lon="-0.11923">
        <ele>4.6</ele>
        <time>2023-10-15T06:28:03Z</time>
      </trkpt>
      <trkpt lat="49.28652" lon="-0.11923">
        <ele>4.6</ele>
        <time>2023-10-15T06:28:04Z</time>
      </trkpt>
      <trkpt lat="49.28652" lon="-0.11923">
        <ele>4.6</ele>
        <time>2023-10-15T06:28:05Z</time>
      </trkpt>
      <trkpt lat="49.28652" lon="-0.11923">
        <ele>4.6</ele>
        <time>2023-10-15T06:28:06Z</time>
      </trkpt>
      <trkpt lat="49.28651" lon="-0.11923">
        <ele>4.6</ele>
        <time>2023-10-15T06:28:07Z</time>
      </trkpt>
      <trkpt lat="49.28651" lon="-0.11923">
        <ele>4.6</ele>
        <time>2023-10-15T06:28:08Z</time>
      </trkpt>
      <trkpt lat="49.28651" lon="-0.11923">
        <ele>4.6</ele>
        <time>2023-10-15T06:28:09Z</time>
      </trkpt>
      <trkpt lat="49.28651" lon="-0.11923">
        <ele>4.6</ele>
        <time>2023-10-15T06:28:10Z</time>
      </trkpt>
      <trkpt lat="49.28651" lon="-0.11923">
        <ele>4.6</ele>
        <time>2023-10-15T06:28:11Z</time>
      </trkpt>
      <trkpt lat="49.28651" lon="-0.11923">
        <ele>4.6</ele>
        <time>2023-10-15T06:28:12Z</time>
      </trkpt>
      <trkpt lat="49.28651" lon="-0.11923">
        <ele>4.6</ele>
        <time>2023-10-15T06:28:13Z</time>
      </trkpt>
      <trkpt lat="49.28651" lon="-0.11923">
        <ele>4.6</ele>
        <time>2023-10-15T06:28:14Z</time>
      </trkpt>
      <trkpt lat="49.28651" lon="-0.11923">
        <ele>4.6</ele>
        <time>2023-10-15T06:28:15Z</time>
      </trkpt>
      <trkpt lat="49.28651" lon="-0.11923">
        <ele>4.6</ele>
        <time>2023-10-15T06:28:16Z</time>
      </trkpt>
      <trkpt lat="49.28651" lon="-0.11923">
        <ele>4.6</ele>
        <time>2023-10-15T06:28:17Z</time>
      </trkpt>
      <trkpt lat="49.28651" lon="-0.11923">
        <ele>4.6</ele>
        <time>2023-10-15T06:28:18Z</time>
      </trkpt>
      <trkpt lat="49.28651" lon="-0.11923">
        <ele>4.6</ele>
        <time>2023-10-15T06:28:19Z</time>
      </trkpt>
      <trkpt lat="49.28651" lon="-0.11923">
        <ele>4.6</ele>
        <time>2023-10-15T06:28:20Z</time>
      </trkpt>
      <trkpt lat="49.28651" lon="-0.11923">
        <ele>4.6</ele>
        <time>2023-10-15T06:28:21Z</time>
      </trkpt>
      <trkpt lat="49.28651" lon="-0.11923">
        <ele>4.6</ele>
        <time>2023-10-15T06:28:22Z</time>
      </trkpt>
      <trkpt lat="49.2865" lon="-0.11923">
        <ele>4.6</ele>
        <time>2023-10-15T06:28:23Z</time>
      </trkpt>
      <trkpt lat="49.2865" lon="-0.11924">
        <ele>4.6</ele>
        <time>2023-10-15T06:28:24Z</time>
      </trkpt>
      <trkpt lat="49.2865" lon="-0.11924">
        <ele>4.6</ele>
        <time>2023-10-15T06:28:25Z</time>
      </trkpt>
      <trkpt lat="49.2865" lon="-0.11925">
        <ele>4.6</ele>
        <time>2023-10-15T06:28:26Z</time>
      </trkpt>
      <trkpt lat="49.28649" lon="-0.11925">
        <ele>4.6</ele>
        <time>2023-10-15T06:28:27Z</time>
      </trkpt>
      <trkpt lat="49.28649" lon="-0.11926">
        <ele>4.6</ele>
        <time>2023-10-15T06:28:28Z</time>
      </trkpt>
      <trkpt lat="49.28648" lon="-0.11926">
        <ele>4.6</ele>
        <time>2023-10-15T06:28:29Z</time>
      </trkpt>
      <trkpt lat="49.28648" lon="-0.11926">
        <ele>4.6</ele>
        <time>2023-10-15T06:28:30Z</time>
      </trkpt>
      <trkpt lat="49.28648" lon="-0.11926">
        <ele>4.6</ele>
        <time>2023-10-15T06:28:31Z</time>
      </trkpt>
      <trkpt lat="49.28648" lon="-0.11926">
        <ele>4.6</ele>
        <time>2023-10-15T06:28:32Z</time>
      </trkpt>
      <trkpt lat="49.28648" lon="-0.11926">
        <ele>4.6</ele>
        <time>2023-10-15T06:28:33Z</time>
      </trkpt>
      <trkpt lat="49.28648" lon="-0.11926">
        <ele>4.6</ele>
        <time>2023-10-15T06:28:34Z</time>
      </trkpt>
      <trkpt lat="49.28648" lon="-0.11926">
        <ele>4.6</ele>
        <time>2023-10-15T06:28:35Z</time>
      </trkpt>
      <trkpt lat="49.28648" lon="-0.11926">
        <ele>4.6</ele>
        <time>2023-10-15T06:28:36Z</time>
      </trkpt>
      <trkpt lat="49.28648" lon="-0.11926">
        <ele>4.6</ele>
        <time>2023-10-15T06:28:37Z</time>
      </trkpt>
      <trkpt lat="49.28648" lon="-0.11926">
        <ele>4.6</ele>
        <time>2023-10-15T06:28:38Z</time>
      </trkpt>
      <trkpt lat="49.28647" lon="-0.11918">
        <ele>4.6</ele>
        <time>2023-10-15T06:33:00Z</time>
      </trkpt>
      <trkpt lat="49.28647" lon="-0.11917">
        <ele>4.6</ele>
        <time>2023-10-15T06:33:01Z</time>
      </trkpt>
      <trkpt lat="49.28647" lon="-0.11915">
        <ele>4.6</ele>
        <time>2023-10-15T06:33:02Z</time>
      </trkpt>
      <trkpt lat="49.28647" lon="-0.11915">
        <ele>4.6</ele>
        <time>2023-10-15T06:33:03Z</time>
      </trkpt>
      <trkpt lat="49.28647" lon="-0.11915">
        <ele>4.6</ele>
        <time>2023-10-15T06:33:04Z</time>
      </trkpt>
      <trkpt lat="49.28647" lon="-0.11915">
        <ele>4.6</ele>
        <time>2023-10-15T06:33:05Z</time>
      </trkpt>
      <trkpt lat="49.28647" lon="-0.11915">
        <ele>4.6</ele>
        <time>2023-10-15T06:33:06Z</time>
      </trkpt>
      <trkpt lat="49.28647" lon="-0.11915">
        <ele>4.6</ele>
        <time>2023-10-15T06:33:07Z</time>
      </trkpt>
      <trkpt lat="49.28647" lon="-0.11915">
        <ele>4.6</ele>
        <time>2023-10-15T06:33:08Z</time>
      </trkpt>
      <trkpt lat="49.28647" lon="-0.11915">
        <ele>4.6</ele>
        <time>2023-10-15T06:33:09Z</time>
      </trkpt>
      <trkpt lat="49.28647" lon="-0.11915">
        <ele>4.6</ele>
        <time>2023-10-15T06:33:10Z</time>
      </trkpt>
      <trkpt lat="49.28647" lon="-0.11915">
        <ele>4.6</ele>
        <time>2023-10-15T06:33:11Z</time>
      </trkpt>
      <trkpt lat="49.28647" lon="-0.11915">
        <ele>4.6</ele>
        <time>2023-10-15T06:33:12Z</time>
      </trkpt>
      <trkpt lat="49.28647" lon="-0.11915">
        <ele>4.6</ele>
        <time>2023-10-15T06:33:13Z</time>
      </trkpt>
      <trkpt lat="49.28647" lon="-0.11915">
        <ele>4.6</ele>
        <time>2023-10-15T06:33:14Z</time>
      </trkpt>
      <trkpt lat="49.28645" lon="-0.11913">
        <ele>4.6</ele>
        <time>2023-10-15T06:33:20Z</time>
      </trkpt>
      <trkpt lat="49.28644" lon="-0.11912">
        <ele>4.6</ele>
        <time>2023-10-15T06:33:21Z</time>
      </trkpt>
      <trkpt lat="49.28643" lon="-0.1191">
        <ele>4.6</ele>
        <time>2023-10-15T06:33:22Z</time>
      </trkpt>
      <trkpt lat="49.28643" lon="-0.11907">
        <ele>4.6</ele>
        <time>2023-10-15T06:33:23Z</time>
      </trkpt>
      <trkpt lat="49.28643" lon="-0.11905">
        <ele>4.6</ele>
        <time>2023-10-15T06:33:24Z</time>
      </trkpt>
      <trkpt lat="49.28643" lon="-0.11904">
        <ele>4.6</ele>
        <time>2023-10-15T06:33:25Z</time>
      </trkpt>
      <trkpt lat="49.28644" lon="-0.119">
        <ele>4.6</ele>
        <time>2023-10-15T06:33:26Z</time>
      </trkpt>
      <trkpt lat="49.28644" lon="-0.11898">
        <ele>4.6</ele>
        <time>2023-10-15T06:33:27Z</time>
      </trkpt>
      <trkpt lat="49.28644" lon="-0.11894">
        <ele>4.6</ele>
        <time>2023-10-15T06:33:28Z</time>
      </trkpt>
      <trkpt lat="49.28644" lon="-0.11892">
        <ele>4.6</ele>
        <time>2023-10-15T06:33:29Z</time>
      </trkpt>
      <trkpt lat="49.28643" lon="-0.11886">
        <ele>4.6</ele>
        <time>2023-10-15T06:33:30Z</time>
      </trkpt>
      <trkpt lat="49.28642" lon="-0.11884">
        <ele>4.6</ele>
        <time>2023-10-15T06:33:31Z</time>
      </trkpt>
      <trkpt lat="49.2864" lon="-0.1188">
        <ele>4.6</ele>
        <time>2023-10-15T06:33:32Z</time>
      </trkpt>
      <trkpt lat="49.28638" lon="-0.11876">
        <ele>4.6</ele>
        <time>2023-10-15T06:33:33Z</time>
      </trkpt>
      <trkpt lat="49.28636" lon="-0.11872">
        <ele>4.6</ele>
        <time>2023-10-15T06:33:34Z</time>
      </trkpt>
      <trkpt lat="49.28634" lon="-0.11869">
        <ele>4.6</ele>
        <time>2023-10-15T06:33:35Z</time>
      </trkpt>
      <trkpt lat="49.28632" lon="-0.11866">
        <ele>4.6</ele>
        <time>2023-10-15T06:33:36Z</time>
      </trkpt>
      <trkpt lat="49.28629" lon="-0.11862">
        <ele>4.5</ele>
        <time>2023-10-15T06:33:37Z</time>
      </trkpt>
      <trkpt lat="49.28627" lon="-0.11859">
        <ele>4.5</ele>
        <time>2023-10-15T06:33:38Z</time>
      </trkpt>
      <trkpt lat="49.28625" lon="-0.11854">
        <ele>4.6</ele>
        <time>2023-10-15T06:33:39Z</time>
      </trkpt>
      <trkpt lat="49.28625" lon="-0.11852">
        <ele>4.6</ele>
        <time>2023-10-15T06:33:40Z</time>
      </trkpt>
      <trkpt lat="49.28624" lon="-0.11847">
        <ele>4.6</ele>
        <time>2023-10-15T06:33:41Z</time>
      </trkpt>
      <trkpt lat="49.28624" lon="-0.11843">
        <ele>4.6</ele>
        <time>2023-10-15T06:33:42Z</time>
      </trkpt>
      <trkpt lat="49.28625" lon="-0.11839">
        <ele>4.6</ele>
        <time>2023-10-15T06:33:43Z</time>
      </trkpt>
      <trkpt lat="49.28626" lon="-0.11834">
        <ele>4.6</ele>
        <time>2023-10-15T06:33:44Z</time>
      </trkpt>
      <trkpt lat="49.28627" lon="-0.1183">
        <ele>4.6</ele>
        <time>2023-10-15T06:33:45Z</time>
      </trkpt>
      <trkpt lat="49.28628" lon="-0.11825">
        <ele>4.6</ele>
        <time>2023-10-15T06:33:46Z</time>
      </trkpt>
      <trkpt lat="49.28629" lon="-0.11823">
        <ele>4.6</ele>
        <time>2023-10-15T06:33:47Z</time>
      </trkpt>
      <trkpt lat="49.28631" lon="-0.11818">
        <ele>4.6</ele>
        <time>2023-10-15T06:33:48Z</time>
      </trkpt>
      <trkpt lat="49.28631" lon="-0.11817">
        <ele>4.6</ele>
        <time>2023-10-15T06:33:49Z</time>
      </trkpt>
      <trkpt lat="49.28632" lon="-0.11812">
        <ele>4.7</ele>
        <time>2023-10-15T06:33:50Z</time>
      </trkpt>
      <trkpt lat="49.28633" lon="-0.1181">
        <ele>4.7</ele>
        <time>2023-10-15T06:33:51Z</time>
      </trkpt>
      <trkpt lat="49.28634" lon="-0.11804">
        <ele>4.7</ele>
        <time>2023-10-15T06:33:52Z</time>
      </trkpt>
      <trkpt lat="49.28634" lon="-0.11803">
        <ele>4.7</ele>
        <time>2023-10-15T06:33:53Z</time>
      </trkpt>
      <trkpt lat="49.28635" lon="-0.11797">
        <ele>4.7</ele>
        <time>2023-10-15T06:33:54Z</time>
      </trkpt>
      <trkpt lat="49.28636" lon="-0.11795">
        <ele>4.7</ele>
        <time>2023-10-15T06:33:55Z</time>
      </trkpt>
      <trkpt lat="49.28636" lon="-0.11789">
        <ele>4.7</ele>
        <time>2023-10-15T06:33:56Z</time>
      </trkpt>
      <trkpt lat="49.28636" lon="-0.11788">
        <ele>4.7</ele>
        <time>2023-10-15T06:33:57Z</time>
      </trkpt>
      <trkpt lat="49.28637" lon="-0.11782">
        <ele>4.8</ele>
        <time>2023-10-15T06:33:58Z</time>
      </trkpt>
      <trkpt lat="49.28637" lon="-0.1178">
        <ele>4.8</ele>
        <time>2023-10-15T06:33:59Z</time>
      </trkpt>
      <trkpt lat="49.28638" lon="-0.11776">
        <ele>4.8</ele>
        <time>2023-10-15T06:34:00Z</time>
      </trkpt>
      <trkpt lat="49.2864" lon="-0.11772">
        <ele>4.8</ele>
        <time>2023-10-15T06:34:01Z</time>
      </trkpt>
      <trkpt lat="49.28641" lon="-0.11767">
        <ele>4.8</ele>
        <time>2023-10-15T06:34:02Z</time>
      </trkpt>
      <trkpt lat="49.28642" lon="-0.11762">
        <ele>4.9</ele>
        <time>2023-10-15T06:34:03Z</time>
      </trkpt>
      <trkpt lat="49.28643" lon="-0.11757">
        <ele>4.9</ele>
        <time>2023-10-15T06:34:04Z</time>
      </trkpt>
      <trkpt lat="49.28644" lon="-0.11752">
        <ele>4.9</ele>
        <time>2023-10-15T06:34:05Z</time>
      </trkpt>
      <trkpt lat="49.28646" lon="-0.11747">
        <ele>4.9</ele>
        <time>2023-10-15T06:34:06Z</time>
      </trkpt>
      <trkpt lat="49.28647" lon="-0.11742">
        <ele>4.9</ele>
        <time>2023-10-15T06:34:07Z</time>
      </trkpt>
      <trkpt lat="49.28648" lon="-0.11737">
        <ele>4.9</ele>
        <time>2023-10-15T06:34:08Z</time>
      </trkpt>
      <trkpt lat="49.2865" lon="-0.11732">
        <ele>4.9</ele>
        <time>2023-10-15T06:34:09Z</time>
      </trkpt>
      <trkpt lat="49.28651" lon="-0.11726">
        <ele>5</ele>
        <time>2023-10-15T06:34:10Z</time>
      </trkpt>
      <trkpt lat="49.28653" lon="-0.1172">
        <ele>5</ele>
        <time>2023-10-15T06:34:11Z</time>
      </trkpt>
      <trkpt lat="49.28654" lon="-0.11715">
        <ele>5</ele>
        <time>2023-10-15T06:34:12Z</time>
      </trkpt>
      <trkpt lat="49.28655" lon="-0.1171">
        <ele>5</ele>
        <time>2023-10-15T06:34:13Z</time>
      </trkpt>
      <trkpt lat="49.28656" lon="-0.11704">
        <ele>5</ele>
        <time>2023-10-15T06:34:14Z</time>
      </trkpt>
      <trkpt lat="49.28657" lon="-0.11699">
        <ele>5</ele>
        <time>2023-10-15T06:34:15Z</time>
      </trkpt>
      <trkpt lat="49.28656" lon="-0.11694">
        <ele>5.1</ele>
        <time>2023-10-15T06:34:16Z</time>
      </trkpt>
      <trkpt lat="49.28655" lon="-0.11689">
        <ele>5.1</ele>
        <time>2023-10-15T06:34:17Z</time>
      </trkpt>
      <trkpt lat="49.28653" lon="-0.11684">
        <ele>5.2</ele>
        <time>2023-10-15T06:34:18Z</time>
      </trkpt>
      <trkpt lat="49.2865" lon="-0.1168">
        <ele>5.2</ele>
        <time>2023-10-15T06:34:19Z</time>
      </trkpt>
      <trkpt lat="49.28646" lon="-0.11678">
        <ele>5.2</ele>
        <time>2023-10-15T06:34:20Z</time>
      </trkpt>
      <trkpt lat="49.28642" lon="-0.11679">
        <ele>5.2</ele>
        <time>2023-10-15T06:34:21Z</time>
      </trkpt>
      <trkpt lat="49.28638" lon="-0.1168">
        <ele>5.2</ele>
        <time>2023-10-15T06:34:22Z</time>
      </trkpt>
      <trkpt lat="49.28634" lon="-0.11682">
        <ele>5.2</ele>
        <time>2023-10-15T06:34:23Z</time>
      </trkpt>
      <trkpt lat="49.2863" lon="-0.11684">
        <ele>5.2</ele>
        <time>2023-10-15T06:34:24Z</time>
      </trkpt>
      <trkpt lat="49.28627" lon="-0.11685">
        <ele>5.3</ele>
        <time>2023-10-15T06:34:25Z</time>
      </trkpt>
      <trkpt lat="49.28624" lon="-0.11686">
        <ele>5.3</ele>
        <time>2023-10-15T06:34:26Z</time>
      </trkpt>
      <trkpt lat="49.2862" lon="-0.11688">
        <ele>5.3</ele>
        <time>2023-10-15T06:34:27Z</time>
      </trkpt>
      <trkpt lat="49.28617" lon="-0.1169">
        <ele>5.3</ele>
        <time>2023-10-15T06:34:28Z</time>
      </trkpt>
      <trkpt lat="49.28613" lon="-0.11692">
        <ele>5.3</ele>
        <time>2023-10-15T06:34:29Z</time>
      </trkpt>
      <trkpt lat="49.28609" lon="-0.11694">
        <ele>5.3</ele>
        <time>2023-10-15T06:34:30Z</time>
      </trkpt>
      <trkpt lat="49.28604" lon="-0.11696">
        <ele>5.4</ele>
        <time>2023-10-15T06:34:31Z</time>
      </trkpt>
      <trkpt lat="49.286" lon="-0.11697">
        <ele>5.4</ele>
        <time>2023-10-15T06:34:32Z</time>
      </trkpt>
      <trkpt lat="49.28596" lon="-0.11699">
        <ele>5.4</ele>
        <time>2023-10-15T06:34:33Z</time>
      </trkpt>
      <trkpt lat="49.28592" lon="-0.117">
        <ele>5.4</ele>
        <time>2023-10-15T06:34:34Z</time>
      </trkpt>
      <trkpt lat="49.28587" lon="-0.11702">
        <ele>5.4</ele>
        <time>2023-10-15T06:34:35Z</time>
      </trkpt>
      <trkpt lat="49.28582" lon="-0.11703">
        <ele>5.4</ele>
        <time>2023-10-15T06:34:36Z</time>
      </trkpt>
      <trkpt lat="49.28578" lon="-0.11704">
        <ele>5.4</ele>
        <time>2023-10-15T06:34:37Z</time>
      </trkpt>
      <trkpt lat="49.28573" lon="-0.11705">
        <ele>5.4</ele>
        <time>2023-10-15T06:34:38Z</time>
      </trkpt>
      <trkpt lat="49.28569" lon="-0.11704">
        <ele>5.3</ele>
        <time>2023-10-15T06:34:39Z</time>
      </trkpt>
      <trkpt lat="49.28564" lon="-0.11704">
        <ele>5.3</ele>
        <time>2023-10-15T06:34:40Z</time>
      </trkpt>
      <trkpt lat="49.2856" lon="-0.11704">
        <ele>5.3</ele>
        <time>2023-10-15T06:34:41Z</time>
      </trkpt>
      <trkpt lat="49.28555" lon="-0.11705">
        <ele>5.3</ele>
        <time>2023-10-15T06:34:42Z</time>
      </trkpt>
      <trkpt lat="49.28551" lon="-0.11706">
        <ele>5.3</ele>
        <time>2023-10-15T06:34:43Z</time>
      </trkpt>
      <trkpt lat="49.28547" lon="-0.11706">
        <ele>5.3</ele>
        <time>2023-10-15T06:34:44Z</time>
      </trkpt>
      <trkpt lat="49.28542" lon="-0.11706">
        <ele>5.3</ele>
        <time>2023-10-15T06:34:45Z</time>
      </trkpt>
      <trkpt lat="49.28538" lon="-0.11706">
        <ele>5.3</ele>
        <time>2023-10-15T06:34:46Z</time>
      </trkpt>
      <trkpt lat="49.28533" lon="-0.11706">
        <ele>5.3</ele>
        <time>2023-10-15T06:34:47Z</time>
      </trkpt>
      <trkpt lat="49.28529" lon="-0.11706">
        <ele>5.3</ele>
        <time>2023-10-15T06:34:48Z</time>
      </trkpt>
      <trkpt lat="49.28524" lon="-0.11706">
        <ele>5.3</ele>
        <time>2023-10-15T06:34:49Z</time>
      </trkpt>
      <trkpt lat="49.28519" lon="-0.11705">
        <ele>5.2</ele>
        <time>2023-10-15T06:34:50Z</time>
      </trkpt>
      <trkpt lat="49.28514" lon="-0.11704">
        <ele>5.2</ele>
        <time>2023-10-15T06:34:51Z</time>
      </trkpt>
      <trkpt lat="49.2851" lon="-0.11703">
        <ele>5.2</ele>
        <time>2023-10-15T06:34:52Z</time>
      </trkpt>
      <trkpt lat="49.28505" lon="-0.11701">
        <ele>5.2</ele>
        <time>2023-10-15T06:34:53Z</time>
      </trkpt>
      <trkpt lat="49.285" lon="-0.117">
        <ele>5.2</ele>
        <time>2023-10-15T06:34:54Z</time>
      </trkpt>
      <trkpt lat="49.28496" lon="-0.11699">
        <ele>5.2</ele>
        <time>2023-10-15T06:34:55Z</time>
      </trkpt>
      <trkpt lat="49.28491" lon="-0.11697">
        <ele>5.2</ele>
        <time>2023-10-15T06:34:56Z</time>
      </trkpt>
      <trkpt lat="49.28487" lon="-0.11696">
        <ele>5.2</ele>
        <time>2023-10-15T06:34:57Z</time>
      </trkpt>
      <trkpt lat="49.28481" lon="-0.11695">
        <ele>5.2</ele>
        <time>2023-10-15T06:34:58Z</time>
      </trkpt>
      <trkpt lat="49.28476" lon="-0.11694">
        <ele>5.2</ele>
        <time>2023-10-15T06:34:59Z</time>
      </trkpt>
      <trkpt lat="49.28471" lon="-0.11693">
        <ele>5.2</ele>
        <time>2023-10-15T06:35:00Z</time>
      </trkpt>
      <trkpt lat="49.28466" lon="-0.11691">
        <ele>5.2</ele>
        <time>2023-10-15T06:35:01Z</time>
      </trkpt>
      <trkpt lat="49.28461" lon="-0.1169">
        <ele>5.2</ele>
        <time>2023-10-15T06:35:02Z</time>
      </trkpt>
      <trkpt lat="49.28455" lon="-0.11689">
        <ele>5.1</ele>
        <time>2023-10-15T06:35:03Z</time>
      </trkpt>
      <trkpt lat="49.2845" lon="-0.11688">
        <ele>5.1</ele>
        <time>2023-10-15T06:35:04Z</time>
      </trkpt>
      <trkpt lat="49.28445" lon="-0.11686">
        <ele>5.1</ele>
        <time>2023-10-15T06:35:05Z</time>
      </trkpt>
      <trkpt lat="49.2844" lon="-0.11686">
        <ele>5.1</ele>
        <time>2023-10-15T06:35:06Z</time>
      </trkpt>
      <trkpt lat="49.28435" lon="-0.11684">
        <ele>5.1</ele>
        <time>2023-10-15T06:35:07Z</time>
      </trkpt>
      <trkpt lat="49.28429" lon="-0.11683">
        <ele>5.1</ele>
        <time>2023-10-15T06:35:08Z</time>
      </trkpt>
      <trkpt lat="49.28424" lon="-0.11681">
        <ele>5.1</ele>
        <time>2023-10-15T06:35:09Z</time>
      </trkpt>
      <trkpt lat="49.28419" lon="-0.1168">
        <ele>5.1</ele>
        <time>2023-10-15T06:35:10Z</time>
      </trkpt>
      <trkpt lat="49.28413" lon="-0.11679">
        <ele>5.1</ele>
        <time>2023-10-15T06:35:11Z</time>
      </trkpt>
      <trkpt lat="49.28408" lon="-0.11677">
        <ele>5</ele>
        <time>2023-10-15T06:35:12Z</time>
      </trkpt>
      <trkpt lat="49.28404" lon="-0.11676">
        <ele>5</ele>
        <time>2023-10-15T06:35:13Z</time>
      </trkpt>
      <trkpt lat="49.28399" lon="-0.11674">
        <ele>5</ele>
        <time>2023-10-15T06:35:14Z</time>
      </trkpt>
      <trkpt lat="49.28393" lon="-0.11673">
        <ele>5</ele>
        <time>2023-10-15T06:35:15Z</time>
      </trkpt>
      <trkpt lat="49.28388" lon="-0.11673">
        <ele>5</ele>
        <time>2023-10-15T06:35:16Z</time>
      </trkpt>
      <trkpt lat="49.28383" lon="-0.11673">
        <ele>5</ele>
        <time>2023-10-15T06:35:17Z</time>
      </trkpt>
      <trkpt lat="49.28379" lon="-0.11672">
        <ele>5</ele>
        <time>2023-10-15T06:35:18Z</time>
      </trkpt>
      <trkpt lat="49.28374" lon="-0.1167">
        <ele>5</ele>
        <time>2023-10-15T06:35:19Z</time>
      </trkpt>
      <trkpt lat="49.28369" lon="-0.11669">
        <ele>5</ele>
        <time>2023-10-15T06:35:20Z</time>
      </trkpt>
      <trkpt lat="49.28364" lon="-0.11668">
        <ele>5</ele>
        <time>2023-10-15T06:35:21Z</time>
      </trkpt>
      <trkpt lat="49.2836" lon="-0.11667">
        <ele>4.9</ele>
        <time>2023-10-15T06:35:22Z</time>
      </trkpt>
      <trkpt lat="49.28355" lon="-0.11666">
        <ele>4.9</ele>
        <time>2023-10-15T06:35:23Z</time>
      </trkpt>
      <trkpt lat="49.2835" lon="-0.11665">
        <ele>4.9</ele>
        <time>2023-10-15T06:35:24Z</time>
      </trkpt>
      <trkpt lat="49.28345" lon="-0.11663">
        <ele>4.9</ele>
        <time>2023-10-15T06:35:25Z</time>
      </trkpt>
      <trkpt lat="49.28341" lon="-0.11662">
        <ele>4.9</ele>
        <time>2023-10-15T06:35:26Z</time>
      </trkpt>
      <trkpt lat="49.28336" lon="-0.11661">
        <ele>4.9</ele>
        <time>2023-10-15T06:35:27Z</time>
      </trkpt>
      <trkpt lat="49.28331" lon="-0.1166">
        <ele>4.9</ele>
        <time>2023-10-15T06:35:28Z</time>
      </trkpt>
      <trkpt lat="49.28326" lon="-0.11659">
        <ele>4.9</ele>
        <time>2023-10-15T06:35:29Z</time>
      </trkpt>
      <trkpt lat="49.28321" lon="-0.11657">
        <ele>4.8</ele>
        <time>2023-10-15T06:35:30Z</time>
      </trkpt>
      <trkpt lat="49.28317" lon="-0.11657">
        <ele>4.8</ele>
        <time>2023-10-15T06:35:31Z</time>
      </trkpt>
      <trkpt lat="49.28312" lon="-0.11657">
        <ele>4.8</ele>
        <time>2023-10-15T06:35:32Z</time>
      </trkpt>
      <trkpt lat="49.28307" lon="-0.11657">
        <ele>4.9</ele>
        <time>2023-10-15T06:35:33Z</time>
      </trkpt>
      <trkpt lat="49.28302" lon="-0.11659">
        <ele>4.9</ele>
        <time>2023-10-15T06:35:34Z</time>
      </trkpt>
      <trkpt lat="49.28298" lon="-0.11662">
        <ele>4.9</ele>
        <time>2023-10-15T06:35:35Z</time>
      </trkpt>
      <trkpt lat="49.28293" lon="-0.11665">
        <ele>4.9</ele>
        <time>2023-10-15T06:35:36Z</time>
      </trkpt>
      <trkpt lat="49.2829" lon="-0.11668">
        <ele>4.9</ele>
        <time>2023-10-15T06:35:37Z</time>
      </trkpt>
      <trkpt lat="49.28286" lon="-0.1167">
        <ele>5</ele>
        <time>2023-10-15T06:35:38Z</time>
      </trkpt>
      <trkpt lat="49.28281" lon="-0.1167">
        <ele>5.2</ele>
        <time>2023-10-15T06:35:39Z</time>
      </trkpt>
      <trkpt lat="49.28276" lon="-0.11669">
        <ele>5.4</ele>
        <time>2023-10-15T06:35:40Z</time>
      </trkpt>
      <trkpt lat="49.28271" lon="-0.11668">
        <ele>5.6</ele>
        <time>2023-10-15T06:35:41Z</time>
      </trkpt>
      <trkpt lat="49.28266" lon="-0.11665">
        <ele>5.8</ele>
        <time>2023-10-15T06:35:42Z</time>
      </trkpt>
      <trkpt lat="49.28261" lon="-0.11661">
        <ele>6</ele>
        <time>2023-10-15T06:35:43Z</time>
      </trkpt>
      <trkpt lat="49.28256" lon="-0.11658">
        <ele>6</ele>
        <time>2023-10-15T06:35:44Z</time>
      </trkpt>
      <trkpt lat="49.28252" lon="-0.11654">
        <ele>5.9</ele>
        <time>2023-10-15T06:35:45Z</time>
      </trkpt>
      <trkpt lat="49.28247" lon="-0.11651">
        <ele>5.8</ele>
        <time>2023-10-15T06:35:46Z</time>
      </trkpt>
      <trkpt lat="49.28242" lon="-0.11649">
        <ele>5.9</ele>
        <time>2023-10-15T06:35:47Z</time>
      </trkpt>
      <trkpt lat="49.28236" lon="-0.11647">
        <ele>5.9</ele>
        <time>2023-10-15T06:35:48Z</time>
      </trkpt>
      <trkpt lat="49.28231" lon="-0.11645">
        <ele>5.9</ele>
        <time>2023-10-15T06:35:49Z</time>
      </trkpt>
      <trkpt lat="49.28225" lon="-0.11645">
        <ele>5.9</ele>
        <time>2023-10-15T06:35:50Z</time>
      </trkpt>
      <trkpt lat="49.2822" lon="-0.11645">
        <ele>6</ele>
        <time>2023-10-15T06:35:51Z</time>
      </trkpt>
      <trkpt lat="49.28214" lon="-0.11644">
        <ele>6</ele>
        <time>2023-10-15T06:35:52Z</time>
      </trkpt>
      <trkpt lat="49.28208" lon="-0.11644">
        <ele>6</ele>
        <time>2023-10-15T06:35:53Z</time>
      </trkpt>
      <trkpt lat="49.28203" lon="-0.11644">
        <ele>6</ele>
        <time>2023-10-15T06:35:54Z</time>
      </trkpt>
      <trkpt lat="49.28197" lon="-0.11644">
        <ele>6</ele>
        <time>2023-10-15T06:35:55Z</time>
      </trkpt>
      <trkpt lat="49.28192" lon="-0.11644">
        <ele>6</ele>
        <time>2023-10-15T06:35:56Z</time>
      </trkpt>
      <trkpt lat="49.28186" lon="-0.11644">
        <ele>6</ele>
        <time>2023-10-15T06:35:57Z</time>
      </trkpt>
      <trkpt lat="49.2818" lon="-0.11643">
        <ele>6</ele>
        <time>2023-10-15T06:35:58Z</time>
      </trkpt>
      <trkpt lat="49.28175" lon="-0.11643">
        <ele>5.9</ele>
        <time>2023-10-15T06:35:59Z</time>
      </trkpt>
      <trkpt lat="49.28169" lon="-0.11643">
        <ele>5.9</ele>
        <time>2023-10-15T06:36:00Z</time>
      </trkpt>
      <trkpt lat="49.28164" lon="-0.11643">
        <ele>5.8</ele>
        <time>2023-10-15T06:36:01Z</time>
      </trkpt>
      <trkpt lat="49.28158" lon="-0.11643">
        <ele>5.8</ele>
        <time>2023-10-15T06:36:02Z</time>
      </trkpt>
      <trkpt lat="49.28152" lon="-0.11643">
        <ele>5.7</ele>
        <time>2023-10-15T06:36:03Z</time>
      </trkpt>
      <trkpt lat="49.28146" lon="-0.11642">
        <ele>5.7</ele>
        <time>2023-10-15T06:36:04Z</time>
      </trkpt>
      <trkpt lat="49.2814" lon="-0.11642">
        <ele>5.6</ele>
        <time>2023-10-15T06:36:05Z</time>
      </trkpt>
      <trkpt lat="49.28134" lon="-0.11642">
        <ele>5.5</ele>
        <time>2023-10-15T06:36:06Z</time>
      </trkpt>
      <trkpt lat="49.28128" lon="-0.11642">
        <ele>5.4</ele>
        <time>2023-10-15T06:36:07Z</time>
      </trkpt>
      <trkpt lat="49.28121" lon="-0.11641">
        <ele>5.4</ele>
        <time>2023-10-15T06:36:08Z</time>
      </trkpt>
      <trkpt lat="49.28115" lon="-0.11641">
        <ele>5.3</ele>
        <time>2023-10-15T06:36:09Z</time>
      </trkpt>
      <trkpt lat="49.28109" lon="-0.11641">
        <ele>5.2</ele>
        <time>2023-10-15T06:36:10Z</time>
      </trkpt>
      <trkpt lat="49.28103" lon="-0.11641">
        <ele>5.1</ele>
        <time>2023-10-15T06:36:11Z</time>
      </trkpt>
      <trkpt lat="49.28097" lon="-0.11641">
        <ele>5.1</ele>
        <time>2023-10-15T06:36:12Z</time>
      </trkpt>
      <trkpt lat="49.28092" lon="-0.11641">
        <ele>5</ele>
        <time>2023-10-15T06:36:13Z</time>
      </trkpt>
      <trkpt lat="49.28086" lon="-0.11641">
        <ele>4.9</ele>
        <time>2023-10-15T06:36:14Z</time>
      </trkpt>
      <trkpt lat="49.2808" lon="-0.1164">
        <ele>4.9</ele>
        <time>2023-10-15T06:36:15Z</time>
      </trkpt>
      <trkpt lat="49.28074" lon="-0.1164">
        <ele>4.8</ele>
        <time>2023-10-15T06:36:16Z</time>
      </trkpt>
      <trkpt lat="49.28068" lon="-0.11639">
        <ele>4.7</ele>
        <time>2023-10-15T06:36:17Z</time>
      </trkpt>
      <trkpt lat="49.28062" lon="-0.1164">
        <ele>4.7</ele>
        <time>2023-10-15T06:36:18Z</time>
      </trkpt>
      <trkpt lat="49.28056" lon="-0.1164">
        <ele>4.6</ele>
        <time>2023-10-15T06:36:19Z</time>
      </trkpt>
      <trkpt lat="49.2805" lon="-0.1164">
        <ele>4.6</ele>
        <time>2023-10-15T06:36:20Z</time>
      </trkpt>
      <trkpt lat="49.28044" lon="-0.1164">
        <ele>4.5</ele>
        <time>2023-10-15T06:36:21Z</time>
      </trkpt>
      <trkpt lat="49.28038" lon="-0.1164">
        <ele>4.5</ele>
        <time>2023-10-15T06:36:22Z</time>
      </trkpt>
      <trkpt lat="49.28032" lon="-0.11641">
        <ele>4.5</ele>
        <time>2023-10-15T06:36:23Z</time>
      </trkpt>
      <trkpt lat="49.28026" lon="-0.11641">
        <ele>4.5</ele>
        <time>2023-10-15T06:36:24Z</time>
      </trkpt>
      <trkpt lat="49.28019" lon="-0.11641">
        <ele>4.5</ele>
        <time>2023-10-15T06:36:25Z</time>
      </trkpt>
      <trkpt lat="49.28014" lon="-0.11641">
        <ele>4.4</ele>
        <time>2023-10-15T06:36:26Z</time>
      </trkpt>
      <trkpt lat="49.28008" lon="-0.11642">
        <ele>4.4</ele>
        <time>2023-10-15T06:36:27Z</time>
      </trkpt>
      <trkpt lat="49.28002" lon="-0.11642">
        <ele>4.4</ele>
        <time>2023-10-15T06:36:28Z</time>
      </trkpt>
      <trkpt lat="49.27996" lon="-0.11643">
        <ele>4.4</ele>
        <time>2023-10-15T06:36:29Z</time>
      </trkpt>
      <trkpt lat="49.27989" lon="-0.11644">
        <ele>4.5</ele>
        <time>2023-10-15T06:36:30Z</time>
      </trkpt>
      <trkpt lat="49.27983" lon="-0.11644">
        <ele>4.5</ele>
        <time>2023-10-15T06:36:31Z</time>
      </trkpt>
      <trkpt lat="49.27977" lon="-0.11644">
        <ele>4.5</ele>
        <time>2023-10-15T06:36:32Z</time>
      </trkpt>
      <trkpt lat="49.27971" lon="-0.11644">
        <ele>4.5</ele>
        <time>2023-10-15T06:36:33Z</time>
      </trkpt>
      <trkpt lat="49.27965" lon="-0.11644">
        <ele>4.6</ele>
        <time>2023-10-15T06:36:34Z</time>
      </trkpt>
      <trkpt lat="49.27959" lon="-0.11644">
        <ele>4.6</ele>
        <time>2023-10-15T06:36:35Z</time>
      </trkpt>
      <trkpt lat="49.27953" lon="-0.11644">
        <ele>4.6</ele>
        <time>2023-10-15T06:36:36Z</time>
      </trkpt>
      <trkpt lat="49.27948" lon="-0.11644">
        <ele>4.6</ele>
        <time>2023-10-15T06:36:37Z</time>
      </trkpt>
      <trkpt lat="49.27942" lon="-0.11645">
        <ele>4.6</ele>
        <time>2023-10-15T06:36:38Z</time>
      </trkpt>
      <trkpt lat="49.27936" lon="-0.11645">
        <ele>4.6</ele>
        <time>2023-10-15T06:36:39Z</time>
      </trkpt>
      <trkpt lat="49.27931" lon="-0.11645">
        <ele>4.6</ele>
        <time>2023-10-15T06:36:40Z</time>
      </trkpt>
      <trkpt lat="49.27925" lon="-0.11645">
        <ele>4.6</ele>
        <time>2023-10-15T06:36:41Z</time>
      </trkpt>
      <trkpt lat="49.27919" lon="-0.11645">
        <ele>4.6</ele>
        <time>2023-10-15T06:36:42Z</time>
      </trkpt>
      <trkpt lat="49.27913" lon="-0.11645">
        <ele>4.6</ele>
        <time>2023-10-15T06:36:43Z</time>
      </trkpt>
      <trkpt lat="49.27907" lon="-0.11645">
        <ele>4.6</ele>
        <time>2023-10-15T06:36:44Z</time>
      </trkpt>
      <trkpt lat="49.27901" lon="-0.11646">
        <ele>4.6</ele>
        <time>2023-10-15T06:36:45Z</time>
      </trkpt>
      <trkpt lat="49.27895" lon="-0.11646">
        <ele>4.6</ele>
        <time>2023-10-15T06:36:46Z</time>
      </trkpt>
      <trkpt lat="49.2789" lon="-0.11646">
        <ele>4.6</ele>
        <time>2023-10-15T06:36:47Z</time>
      </trkpt>
      <trkpt lat="49.27884" lon="-0.11646">
        <ele>4.6</ele>
        <time>2023-10-15T06:36:48Z</time>
      </trkpt>
      <trkpt lat="49.27878" lon="-0.11647">
        <ele>4.6</ele>
        <time>2023-10-15T06:36:49Z</time>
      </trkpt>
      <trkpt lat="49.27872" lon="-0.11647">
        <ele>4.6</ele>
        <time>2023-10-15T06:36:50Z</time>
      </trkpt>
      <trkpt lat="49.27866" lon="-0.11648">
        <ele>4.6</ele>
        <time>2023-10-15T06:36:51Z</time>
      </trkpt>
      <trkpt lat="49.2786" lon="-0.11649">
        <ele>4.6</ele>
        <time>2023-10-15T06:36:52Z</time>
      </trkpt>
      <trkpt lat="49.27854" lon="-0.1165">
        <ele>4.5</ele>
        <time>2023-10-15T06:36:53Z</time>
      </trkpt>
      <trkpt lat="49.27848" lon="-0.11653">
        <ele>4.5</ele>
        <time>2023-10-15T06:36:54Z</time>
      </trkpt>
      <trkpt lat="49.27843" lon="-0.11655">
        <ele>4.4</ele>
        <time>2023-10-15T06:36:55Z</time>
      </trkpt>
      <trkpt lat="49.27837" lon="-0.11658">
        <ele>4.4</ele>
        <time>2023-10-15T06:36:56Z</time>
      </trkpt>
      <trkpt lat="49.27831" lon="-0.11661">
        <ele>4.3</ele>
        <time>2023-10-15T06:36:57Z</time>
      </trkpt>
      <trkpt lat="49.27826" lon="-0.11664">
        <ele>4.3</ele>
        <time>2023-10-15T06:36:58Z</time>
      </trkpt>
      <trkpt lat="49.2782" lon="-0.11667">
        <ele>4.2</ele>
        <time>2023-10-15T06:36:59Z</time>
      </trkpt>
      <trkpt lat="49.27814" lon="-0.1167">
        <ele>4.2</ele>
        <time>2023-10-15T06:37:00Z</time>
      </trkpt>
      <trkpt lat="49.27808" lon="-0.11673">
        <ele>4.1</ele>
        <time>2023-10-15T06:37:01Z</time>
      </trkpt>
      <trkpt lat="49.27802" lon="-0.11676">
        <ele>4</ele>
        <time>2023-10-15T06:37:02Z</time>
      </trkpt>
      <trkpt lat="49.27796" lon="-0.1168">
        <ele>4</ele>
        <time>2023-10-15T06:37:03Z</time>
      </trkpt>
      <trkpt lat="49.2779" lon="-0.11683">
        <ele>3.9</ele>
        <time>2023-10-15T06:37:04Z</time>
      </trkpt>
      <trkpt lat="49.27785" lon="-0.11686">
        <ele>3.8</ele>
        <time>2023-10-15T06:37:05Z</time>
      </trkpt>
      <trkpt lat="49.27779" lon="-0.1169">
        <ele>3.8</ele>
        <time>2023-10-15T06:37:06Z</time>
      </trkpt>
      <trkpt lat="49.27774" lon="-0.11693">
        <ele>3.8</ele>
        <time>2023-10-15T06:37:07Z</time>
      </trkpt>
      <trkpt lat="49.27768" lon="-0.11697">
        <ele>3.8</ele>
        <time>2023-10-15T06:37:08Z</time>
      </trkpt>
      <trkpt lat="49.27762" lon="-0.117">
        <ele>3.7</ele>
        <time>2023-10-15T06:37:09Z</time>
      </trkpt>
      <trkpt lat="49.27757" lon="-0.11703">
        <ele>3.7</ele>
        <time>2023-10-15T06:37:10Z</time>
      </trkpt>
      <trkpt lat="49.27751" lon="-0.11706">
        <ele>3.7</ele>
        <time>2023-10-15T06:37:11Z</time>
      </trkpt>
      <trkpt lat="49.27745" lon="-0.11709">
        <ele>3.7</ele>
        <time>2023-10-15T06:37:12Z</time>
      </trkpt>
      <trkpt lat="49.27739" lon="-0.11711">
        <ele>3.7</ele>
        <time>2023-10-15T06:37:13Z</time>
      </trkpt>
      <trkpt lat="49.27734" lon="-0.11712">
        <ele>3.7</ele>
        <time>2023-10-15T06:37:14Z</time>
      </trkpt>
      <trkpt lat="49.27727" lon="-0.11714">
        <ele>3.7</ele>
        <time>2023-10-15T06:37:15Z</time>
      </trkpt>
      <trkpt lat="49.27721" lon="-0.11715">
        <ele>3.7</ele>
        <time>2023-10-15T06:37:16Z</time>
      </trkpt>
      <trkpt lat="49.27714" lon="-0.11716">
        <ele>3.7</ele>
        <time>2023-10-15T06:37:17Z</time>
      </trkpt>
      <trkpt lat="49.27708" lon="-0.11715">
        <ele>3.7</ele>
        <time>2023-10-15T06:37:18Z</time>
      </trkpt>
      <trkpt lat="49.27702" lon="-0.11715">
        <ele>3.7</ele>
        <time>2023-10-15T06:37:19Z</time>
      </trkpt>
      <trkpt lat="49.27696" lon="-0.11714">
        <ele>3.7</ele>
        <time>2023-10-15T06:37:20Z</time>
      </trkpt>
      <trkpt lat="49.2769" lon="-0.11713">
        <ele>3.7</ele>
        <time>2023-10-15T06:37:21Z</time>
      </trkpt>
      <trkpt lat="49.27684" lon="-0.11712">
        <ele>3.7</ele>
        <time>2023-10-15T06:37:22Z</time>
      </trkpt>
      <trkpt lat="49.27678" lon="-0.1171">
        <ele>3.8</ele>
        <time>2023-10-15T06:37:23Z</time>
      </trkpt>
      <trkpt lat="49.27671" lon="-0.11707">
        <ele>3.8</ele>
        <time>2023-10-15T06:37:24Z</time>
      </trkpt>
      <trkpt lat="49.27665" lon="-0.11705">
        <ele>3.8</ele>
        <time>2023-10-15T06:37:25Z</time>
      </trkpt>
      <trkpt lat="49.27658" lon="-0.11702">
        <ele>3.9</ele>
        <time>2023-10-15T06:37:26Z</time>
      </trkpt>
      <trkpt lat="49.27652" lon="-0.11699">
        <ele>3.9</ele>
        <time>2023-10-15T06:37:27Z</time>
      </trkpt>
      <trkpt lat="49.27646" lon="-0.11695">
        <ele>3.9</ele>
        <time>2023-10-15T06:37:28Z</time>
      </trkpt>
      <trkpt lat="49.2764" lon="-0.11692">
        <ele>4</ele>
        <time>2023-10-15T06:37:29Z</time>
      </trkpt>
      <trkpt lat="49.27634" lon="-0.11689">
        <ele>4</ele>
        <time>2023-10-15T06:37:30Z</time>
      </trkpt>
      <trkpt lat="49.27629" lon="-0.11685">
        <ele>4</ele>
        <time>2023-10-15T06:37:31Z</time>
      </trkpt>
      <trkpt lat="49.27623" lon="-0.11682">
        <ele>4</ele>
        <time>2023-10-15T06:37:32Z</time>
      </trkpt>
      <trkpt lat="49.27617" lon="-0.11678">
        <ele>4</ele>
        <time>2023-10-15T06:37:33Z</time>
      </trkpt>
      <trkpt lat="49.27611" lon="-0.11675">
        <ele>4</ele>
        <time>2023-10-15T06:37:34Z</time>
      </trkpt>
      <trkpt lat="49.27605" lon="-0.11672">
        <ele>4</ele>
        <time>2023-10-15T06:37:35Z</time>
      </trkpt>
      <trkpt lat="49.27599" lon="-0.11669">
        <ele>4</ele>
        <time>2023-10-15T06:37:36Z</time>
      </trkpt>
      <trkpt lat="49.27592" lon="-0.11667">
        <ele>4</ele>
        <time>2023-10-15T06:37:37Z</time>
      </trkpt>
      <trkpt lat="49.27586" lon="-0.11665">
        <ele>4</ele>
        <time>2023-10-15T06:37:38Z</time>
      </trkpt>
      <trkpt lat="49.2758" lon="-0.11663">
        <ele>4</ele>
        <time>2023-10-15T06:37:39Z</time>
      </trkpt>
      <trkpt lat="49.27573" lon="-0.11662">
        <ele>4</ele>
        <time>2023-10-15T06:37:40Z</time>
      </trkpt>
      <trkpt lat="49.27567" lon="-0.11662">
        <ele>4</ele>
        <time>2023-10-15T06:37:41Z</time>
      </trkpt>
      <trkpt lat="49.27561" lon="-0.11662">
        <ele>4</ele>
        <time>2023-10-15T06:37:42Z</time>
      </trkpt>
      <trkpt lat="49.27555" lon="-0.11662">
        <ele>4</ele>
        <time>2023-10-15T06:37:43Z</time>
      </trkpt>
      <trkpt lat="49.27549" lon="-0.11662">
        <ele>4</ele>
        <time>2023-10-15T06:37:44Z</time>
      </trkpt>
      <trkpt lat="49.27543" lon="-0.11663">
        <ele>4</ele>
        <time>2023-10-15T06:37:45Z</time>
      </trkpt>
      <trkpt lat="49.27537" lon="-0.11664">
        <ele>3.9</ele>
        <time>2023-10-15T06:37:46Z</time>
      </trkpt>
      <trkpt lat="49.27531" lon="-0.11665">
        <ele>3.9</ele>
        <time>2023-10-15T06:37:47Z</time>
      </trkpt>
      <trkpt lat="49.27524" lon="-0.11666">
        <ele>3.9</ele>
        <time>2023-10-15T06:37:48Z</time>
      </trkpt>
      <trkpt lat="49.27518" lon="-0.11666">
        <ele>3.9</ele>
        <time>2023-10-15T06:37:49Z</time>
      </trkpt>
      <trkpt lat="49.27511" lon="-0.11666">
        <ele>3.9</ele>
        <time>2023-10-15T06:37:50Z</time>
      </trkpt>
      <trkpt lat="49.27505" lon="-0.11666">
        <ele>4</ele>
        <time>2023-10-15T06:37:51Z</time>
      </trkpt>
      <trkpt lat="49.27499" lon="-0.11666">
        <ele>4</ele>
        <time>2023-10-15T06:37:52Z</time>
      </trkpt>
      <trkpt lat="49.27493" lon="-0.11666">
        <ele>4</ele>
        <time>2023-10-15T06:37:53Z</time>
      </trkpt>
      <trkpt lat="49.27487" lon="-0.11666">
        <ele>4</ele>
        <time>2023-10-15T06:37:54Z</time>
      </trkpt>
      <trkpt lat="49.27481" lon="-0.11666">
        <ele>4.1</ele>
        <time>2023-10-15T06:37:55Z</time>
      </trkpt>
      <trkpt lat="49.27474" lon="-0.11667">
        <ele>4.1</ele>
        <time>2023-10-15T06:37:56Z</time>
      </trkpt>
      <trkpt lat="49.27468" lon="-0.11667">
        <ele>4.2</ele>
        <time>2023-10-15T06:37:57Z</time>
      </trkpt>
      <trkpt lat="49.27463" lon="-0.11668">
        <ele>4.2</ele>
        <time>2023-10-15T06:37:58Z</time>
      </trkpt>
      <trkpt lat="49.27457" lon="-0.11668">
        <ele>4.3</ele>
        <time>2023-10-15T06:37:59Z</time>
      </trkpt>
      <trkpt lat="49.27452" lon="-0.11669">
        <ele>4.4</ele>
        <time>2023-10-15T06:38:00Z</time>
      </trkpt>
      <trkpt lat="49.27447" lon="-0.11669">
        <ele>4.4</ele>
        <time>2023-10-15T06:38:01Z</time>
      </trkpt>
      <trkpt lat="49.27443" lon="-0.11669">
        <ele>4.5</ele>
        <time>2023-10-15T06:38:02Z</time>
      </trkpt>
      <trkpt lat="49.27438" lon="-0.11669">
        <ele>4.6</ele>
        <time>2023-10-15T06:38:03Z</time>
      </trkpt>
      <trkpt lat="49.27434" lon="-0.1167">
        <ele>4.7</ele>
        <time>2023-10-15T06:38:04Z</time>
      </trkpt>
      <trkpt lat="49.27431" lon="-0.11669">
        <ele>4.8</ele>
        <time>2023-10-15T06:38:05Z</time>
      </trkpt>
      <trkpt lat="49.27428" lon="-0.11669">
        <ele>4.9</ele>
        <time>2023-10-15T06:38:06Z</time>
      </trkpt>
      <trkpt lat="49.27427" lon="-0.11669">
        <ele>4.9</ele>
        <time>2023-10-15T06:38:07Z</time>
      </trkpt>
      <trkpt lat="49.27425" lon="-0.1167">
        <ele>4.9</ele>
        <time>2023-10-15T06:38:08Z</time>
      </trkpt>
      <trkpt lat="49.27424" lon="-0.1167">
        <ele>4.9</ele>
        <time>2023-10-15T06:38:09Z</time>
      </trkpt>
      <trkpt lat="49.27424" lon="-0.1167">
        <ele>4.9</ele>
        <time>2023-10-15T06:38:10Z</time>
      </trkpt>
      <trkpt lat="49.27424" lon="-0.11669">
        <ele>4.9</ele>
        <time>2023-10-15T06:38:11Z</time>
      </trkpt>
      <trkpt lat="49.27423" lon="-0.11668">
        <ele>4.9</ele>
        <time>2023-10-15T06:38:12Z</time>
      </trkpt>
      <trkpt lat="49.27423" lon="-0.11667">
        <ele>4.9</ele>
        <time>2023-10-15T06:38:13Z</time>
      </trkpt>
      <trkpt lat="49.27423" lon="-0.11667">
        <ele>4.9</ele>
        <time>2023-10-15T06:38:14Z</time>
      </trkpt>
      <trkpt lat="49.27422" lon="-0.11666">
        <ele>4.9</ele>
        <time>2023-10-15T06:38:15Z</time>
      </trkpt>
      <trkpt lat="49.27422" lon="-0.11665">
        <ele>4.9</ele>
        <time>2023-10-15T06:38:16Z</time>
      </trkpt>
      <trkpt lat="49.27421" lon="-0.11664">
        <ele>4.9</ele>
        <time>2023-10-15T06:38:17Z</time>
      </trkpt>
      <trkpt lat="49.27421" lon="-0.11663">
        <ele>4.9</ele>
        <time>2023-10-15T06:38:18Z</time>
      </trkpt>
      <trkpt lat="49.2742" lon="-0.11663">
        <ele>4.9</ele>
        <time>2023-10-15T06:38:19Z</time>
      </trkpt>
      <trkpt lat="49.2742" lon="-0.11662">
        <ele>4.9</ele>
        <time>2023-10-15T06:38:20Z</time>
      </trkpt>
      <trkpt lat="49.27419" lon="-0.11661">
        <ele>4.9</ele>
        <time>2023-10-15T06:38:24Z</time>
      </trkpt>
      <trkpt lat="49.27419" lon="-0.1166">
        <ele>5</ele>
        <time>2023-10-15T06:38:25Z</time>
      </trkpt>
      <trkpt lat="49.27419" lon="-0.11659">
        <ele>5</ele>
        <time>2023-10-15T06:38:26Z</time>
      </trkpt>
      <trkpt lat="49.27418" lon="-0.11655">
        <ele>5</ele>
        <time>2023-10-15T06:38:27Z</time>
      </trkpt>
      <trkpt lat="49.27418" lon="-0.1165">
        <ele>5</ele>
        <time>2023-10-15T06:38:28Z</time>
      </trkpt>
      <trkpt lat="49.27417" lon="-0.11645">
        <ele>5</ele>
        <time>2023-10-15T06:38:29Z</time>
      </trkpt>
      <trkpt lat="49.27417" lon="-0.1164">
        <ele>5</ele>
        <time>2023-10-15T06:38:30Z</time>
      </trkpt>
      <trkpt lat="49.27417" lon="-0.11632">
        <ele>4.9</ele>
        <time>2023-10-15T06:38:31Z</time>
      </trkpt>
      <trkpt lat="49.27417" lon="-0.11625">
        <ele>4.9</ele>
        <time>2023-10-15T06:38:32Z</time>
      </trkpt>
      <trkpt lat="49.27417" lon="-0.11616">
        <ele>4.9</ele>
        <time>2023-10-15T06:38:33Z</time>
      </trkpt>
      <trkpt lat="49.27418" lon="-0.11607">
        <ele>4.9</ele>
        <time>2023-10-15T06:38:34Z</time>
      </trkpt>
      <trkpt lat="49.27417" lon="-0.11597">
        <ele>5</ele>
        <time>2023-10-15T06:38:35Z</time>
      </trkpt>
      <trkpt lat="49.27418" lon="-0.11587">
        <ele>5</ele>
        <time>2023-10-15T06:38:36Z</time>
      </trkpt>
      <trkpt lat="49.27418" lon="-0.11577">
        <ele>5</ele>
        <time>2023-10-15T06:38:37Z</time>
      </trkpt>
      <trkpt lat="49.27419" lon="-0.11567">
        <ele>5</ele>
        <time>2023-10-15T06:38:38Z</time>
      </trkpt>
      <trkpt lat="49.27418" lon="-0.11556">
        <ele>5</ele>
        <time>2023-10-15T06:38:39Z</time>
      </trkpt>
      <trkpt lat="49.27418" lon="-0.11546">
        <ele>5</ele>
        <time>2023-10-15T06:38:40Z</time>
      </trkpt>
      <trkpt lat="49.27418" lon="-0.11535">
        <ele>4.9</ele>
        <time>2023-10-15T06:38:41Z</time>
      </trkpt>
      <trkpt lat="49.27419" lon="-0.11524">
        <ele>4.9</ele>
        <time>2023-10-15T06:38:42Z</time>
      </trkpt>
      <trkpt lat="49.27419" lon="-0.11514">
        <ele>4.9</ele>
        <time>2023-10-15T06:38:43Z</time>
      </trkpt>
      <trkpt lat="49.27419" lon="-0.11504">
        <ele>4.9</ele>
        <time>2023-10-15T06:38:44Z</time>
      </trkpt>
      <trkpt lat="49.27419" lon="-0.11494">
        <ele>4.9</ele>
        <time>2023-10-15T06:38:45Z</time>
      </trkpt>
      <trkpt lat="49.27419" lon="-0.11485">
        <ele>4.9</ele>
        <time>2023-10-15T06:38:46Z</time>
      </trkpt>
      <trkpt lat="49.2742" lon="-0.11476">
        <ele>4.9</ele>
        <time>2023-10-15T06:38:47Z</time>
      </trkpt>
      <trkpt lat="49.2742" lon="-0.11467">
        <ele>5</ele>
        <time>2023-10-15T06:38:48Z</time>
      </trkpt>
      <trkpt lat="49.2742" lon="-0.11458">
        <ele>5</ele>
        <time>2023-10-15T06:38:49Z</time>
      </trkpt>
      <trkpt lat="49.2742" lon="-0.11449">
        <ele>5</ele>
        <time>2023-10-15T06:38:50Z</time>
      </trkpt>
      <trkpt lat="49.27421" lon="-0.1144">
        <ele>5</ele>
        <time>2023-10-15T06:38:51Z</time>
      </trkpt>
      <trkpt lat="49.27421" lon="-0.11431">
        <ele>5.1</ele>
        <time>2023-10-15T06:38:52Z</time>
      </trkpt>
      <trkpt lat="49.27421" lon="-0.11422">
        <ele>5.1</ele>
        <time>2023-10-15T06:38:53Z</time>
      </trkpt>
      <trkpt lat="49.27422" lon="-0.11414">
        <ele>5.1</ele>
        <time>2023-10-15T06:38:54Z</time>
      </trkpt>
      <trkpt lat="49.27422" lon="-0.11405">
        <ele>5.1</ele>
        <time>2023-10-15T06:38:55Z</time>
      </trkpt>
      <trkpt lat="49.27422" lon="-0.11396">
        <ele>5.2</ele>
        <time>2023-10-15T06:38:56Z</time>
      </trkpt>
      <trkpt lat="49.27422" lon="-0.11387">
        <ele>5.2</ele>
        <time>2023-10-15T06:38:57Z</time>
      </trkpt>
      <trkpt lat="49.27422" lon="-0.11378">
        <ele>5.2</ele>
        <time>2023-10-15T06:38:58Z</time>
      </trkpt>
      <trkpt lat="49.27422" lon="-0.11369">
        <ele>5.2</ele>
        <time>2023-10-15T06:38:59Z</time>
      </trkpt>
      <trkpt lat="49.27422" lon="-0.1136">
        <ele>5.3</ele>
        <time>2023-10-15T06:39:00Z</time>
      </trkpt>
      <trkpt lat="49.27422" lon="-0.11351">
        <ele>5.3</ele>
        <time>2023-10-15T06:39:01Z</time>
      </trkpt>
      <trkpt lat="49.27422" lon="-0.11342">
        <ele>5.4</ele>
        <time>2023-10-15T06:39:02Z</time>
      </trkpt>
      <trkpt lat="49.27422" lon="-0.11333">
        <ele>5.5</ele>
        <time>2023-10-15T06:39:03Z</time>
      </trkpt>
      <trkpt lat="49.27422" lon="-0.11324">
        <ele>5.5</ele>
        <time>2023-10-15T06:39:04Z</time>
      </trkpt>
      <trkpt lat="49.27422" lon="-0.11316">
        <ele>5.6</ele>
        <time>2023-10-15T06:39:05Z</time>
      </trkpt>
      <trkpt lat="49.27423" lon="-0.11306">
        <ele>5.6</ele>
        <time>2023-10-15T06:39:06Z</time>
      </trkpt>
      <trkpt lat="49.27423" lon="-0.11297">
        <ele>5.7</ele>
        <time>2023-10-15T06:39:07Z</time>
      </trkpt>
      <trkpt lat="49.27423" lon="-0.11287">
        <ele>5.8</ele>
        <time>2023-10-15T06:39:08Z</time>
      </trkpt>
      <trkpt lat="49.27424" lon="-0.11278">
        <ele>5.8</ele>
        <time>2023-10-15T06:39:09Z</time>
      </trkpt>
      <trkpt lat="49.27424" lon="-0.11268">
        <ele>5.8</ele>
        <time>2023-10-15T06:39:10Z</time>
      </trkpt>
      <trkpt lat="49.27424" lon="-0.11259">
        <ele>5.9</ele>
        <time>2023-10-15T06:39:11Z</time>
      </trkpt>
      <trkpt lat="49.27425" lon="-0.1125">
        <ele>5.9</ele>
        <time>2023-10-15T06:39:12Z</time>
      </trkpt>
      <trkpt lat="49.27425" lon="-0.1124">
        <ele>5.9</ele>
        <time>2023-10-15T06:39:13Z</time>
      </trkpt>
      <trkpt lat="49.27425" lon="-0.11231">
        <ele>6</ele>
        <time>2023-10-15T06:39:14Z</time>
      </trkpt>
      <trkpt lat="49.27426" lon="-0.11222">
        <ele>6</ele>
        <time>2023-10-15T06:39:15Z</time>
      </trkpt>
      <trkpt lat="49.27426" lon="-0.11213">
        <ele>6</ele>
        <time>2023-10-15T06:39:16Z</time>
      </trkpt>
      <trkpt lat="49.27426" lon="-0.11204">
        <ele>6.1</ele>
        <time>2023-10-15T06:39:17Z</time>
      </trkpt>
      <trkpt lat="49.27426" lon="-0.11195">
        <ele>6.1</ele>
        <time>2023-10-15T06:39:18Z</time>
      </trkpt>
      <trkpt lat="49.27426" lon="-0.11186">
        <ele>6.1</ele>
        <time>2023-10-15T06:39:19Z</time>
      </trkpt>
      <trkpt lat="49.27426" lon="-0.11177">
        <ele>6.2</ele>
        <time>2023-10-15T06:39:20Z</time>
      </trkpt>
      <trkpt lat="49.27426" lon="-0.11168">
        <ele>6.2</ele>
        <time>2023-10-15T06:39:21Z</time>
      </trkpt>
      <trkpt lat="49.27427" lon="-0.11159">
        <ele>6.2</ele>
        <time>2023-10-15T06:39:22Z</time>
      </trkpt>
      <trkpt lat="49.27427" lon="-0.11149">
        <ele>6.3</ele>
        <time>2023-10-15T06:39:23Z</time>
      </trkpt>
      <trkpt lat="49.27427" lon="-0.1114">
        <ele>6.3</ele>
        <time>2023-10-15T06:39:24Z</time>
      </trkpt>
      <trkpt lat="49.27427" lon="-0.11131">
        <ele>6.4</ele>
        <time>2023-10-15T06:39:25Z</time>
      </trkpt>
      <trkpt lat="49.27427" lon="-0.11122">
        <ele>6.4</ele>
        <time>2023-10-15T06:39:26Z</time>
      </trkpt>
      <trkpt lat="49.27427" lon="-0.11112">
        <ele>6.4</ele>
        <time>2023-10-15T06:39:27Z</time>
      </trkpt>
      <trkpt lat="49.27427" lon="-0.11103">
        <ele>6.4</ele>
        <time>2023-10-15T06:39:28Z</time>
      </trkpt>
      <trkpt lat="49.27427" lon="-0.11093">
        <ele>6.4</ele>
        <time>2023-10-15T06:39:29Z</time>
      </trkpt>
      <trkpt lat="49.27427" lon="-0.11083">
        <ele>6.4</ele>
        <time>2023-10-15T06:39:30Z</time>
      </trkpt>
      <trkpt lat="49.27427" lon="-0.11073">
        <ele>6.4</ele>
        <time>2023-10-15T06:39:31Z</time>
      </trkpt>
      <trkpt lat="49.27428" lon="-0.11063">
        <ele>6.4</ele>
        <time>2023-10-15T06:39:32Z</time>
      </trkpt>
      <trkpt lat="49.27428" lon="-0.11054">
        <ele>6.3</ele>
        <time>2023-10-15T06:39:33Z</time>
      </trkpt>
      <trkpt lat="49.27428" lon="-0.11044">
        <ele>6.3</ele>
        <time>2023-10-15T06:39:34Z</time>
      </trkpt>
      <trkpt lat="49.27428" lon="-0.11035">
        <ele>6.3</ele>
        <time>2023-10-15T06:39:35Z</time>
      </trkpt>
      <trkpt lat="49.27429" lon="-0.11025">
        <ele>6.3</ele>
        <time>2023-10-15T06:39:36Z</time>
      </trkpt>
      <trkpt lat="49.27429" lon="-0.11015">
        <ele>6.3</ele>
        <time>2023-10-15T06:39:37Z</time>
      </trkpt>
      <trkpt lat="49.27429" lon="-0.11005">
        <ele>6.3</ele>
        <time>2023-10-15T06:39:38Z</time>
      </trkpt>
      <trkpt lat="49.27429" lon="-0.10995">
        <ele>6.3</ele>
        <time>2023-10-15T06:39:39Z</time>
      </trkpt>
      <trkpt lat="49.27429" lon="-0.10984">
        <ele>6.3</ele>
        <time>2023-10-15T06:39:40Z</time>
      </trkpt>
      <trkpt lat="49.27429" lon="-0.10974">
        <ele>6.3</ele>
        <time>2023-10-15T06:39:41Z</time>
      </trkpt>
      <trkpt lat="49.27429" lon="-0.10964">
        <ele>6.3</ele>
        <time>2023-10-15T06:39:42Z</time>
      </trkpt>
      <trkpt lat="49.27429" lon="-0.10953">
        <ele>6.2</ele>
        <time>2023-10-15T06:39:43Z</time>
      </trkpt>
      <trkpt lat="49.27429" lon="-0.10943">
        <ele>6.2</ele>
        <time>2023-10-15T06:39:44Z</time>
      </trkpt>
      <trkpt lat="49.27429" lon="-0.10932">
        <ele>6.2</ele>
        <time>2023-10-15T06:39:45Z</time>
      </trkpt>
      <trkpt lat="49.27429" lon="-0.10922">
        <ele>6.2</ele>
        <time>2023-10-15T06:39:46Z</time>
      </trkpt>
      <trkpt lat="49.27429" lon="-0.10911">
        <ele>6.2</ele>
        <time>2023-10-15T06:39:47Z</time>
      </trkpt>
      <trkpt lat="49.27429" lon="-0.109">
        <ele>6.1</ele>
        <time>2023-10-15T06:39:48Z</time>
      </trkpt>
      <trkpt lat="49.27429" lon="-0.1089">
        <ele>6.1</ele>
        <time>2023-10-15T06:39:49Z</time>
      </trkpt>
      <trkpt lat="49.27428" lon="-0.10879">
        <ele>6</ele>
        <time>2023-10-15T06:39:50Z</time>
      </trkpt>
      <trkpt lat="49.27428" lon="-0.10869">
        <ele>6</ele>
        <time>2023-10-15T06:39:51Z</time>
      </trkpt>
      <trkpt lat="49.27427" lon="-0.10859">
        <ele>5.9</ele>
        <time>2023-10-15T06:39:52Z</time>
      </trkpt>
      <trkpt lat="49.27426" lon="-0.10849">
        <ele>5.9</ele>
        <time>2023-10-15T06:39:53Z</time>
      </trkpt>
      <trkpt lat="49.27425" lon="-0.10839">
        <ele>5.9</ele>
        <time>2023-10-15T06:39:54Z</time>
      </trkpt>
      <trkpt lat="49.27425" lon="-0.10829">
        <ele>5.9</ele>
        <time>2023-10-15T06:39:55Z</time>
      </trkpt>
      <trkpt lat="49.27423" lon="-0.1082">
        <ele>5.8</ele>
        <time>2023-10-15T06:39:56Z</time>
      </trkpt>
      <trkpt lat="49.27422" lon="-0.1081">
        <ele>5.8</ele>
        <time>2023-10-15T06:39:57Z</time>
      </trkpt>
      <trkpt lat="49.27421" lon="-0.108">
        <ele>5.8</ele>
        <time>2023-10-15T06:39:58Z</time>
      </trkpt>
      <trkpt lat="49.27419" lon="-0.10791">
        <ele>5.8</ele>
        <time>2023-10-15T06:39:59Z</time>
      </trkpt>
      <trkpt lat="49.27417" lon="-0.10781">
        <ele>5.7</ele>
        <time>2023-10-15T06:40:00Z</time>
      </trkpt>
      <trkpt lat="49.27416" lon="-0.10772">
        <ele>5.7</ele>
        <time>2023-10-15T06:40:01Z</time>
      </trkpt>
      <trkpt lat="49.27414" lon="-0.10762">
        <ele>5.6</ele>
        <time>2023-10-15T06:40:02Z</time>
      </trkpt>
      <trkpt lat="49.27412" lon="-0.10752">
        <ele>5.6</ele>
        <time>2023-10-15T06:40:03Z</time>
      </trkpt>
      <trkpt lat="49.2741" lon="-0.10742">
        <ele>5.5</ele>
        <time>2023-10-15T06:40:04Z</time>
      </trkpt>
      <trkpt lat="49.27407" lon="-0.10731">
        <ele>5.5</ele>
        <time>2023-10-15T06:40:05Z</time>
      </trkpt>
      <trkpt lat="49.27405" lon="-0.1072">
        <ele>5.5</ele>
        <time>2023-10-15T06:40:06Z</time>
      </trkpt>
      <trkpt lat="49.27402" lon="-0.10709">
        <ele>5.4</ele>
        <time>2023-10-15T06:40:07Z</time>
      </trkpt>
      <trkpt lat="49.27399" lon="-0.10699">
        <ele>5.4</ele>
        <time>2023-10-15T06:40:08Z</time>
      </trkpt>
      <trkpt lat="49.27397" lon="-0.10689">
        <ele>5.4</ele>
        <time>2023-10-15T06:40:09Z</time>
      </trkpt>
      <trkpt lat="49.27394" lon="-0.10679">
        <ele>5.4</ele>
        <time>2023-10-15T06:40:10Z</time>
      </trkpt>
      <trkpt lat="49.27391" lon="-0.10669">
        <ele>5.4</ele>
        <time>2023-10-15T06:40:11Z</time>
      </trkpt>
      <trkpt lat="49.27387" lon="-0.10659">
        <ele>5.3</ele>
        <time>2023-10-15T06:40:12Z</time>
      </trkpt>
      <trkpt lat="49.27384" lon="-0.10649">
        <ele>5.3</ele>
        <time>2023-10-15T06:40:13Z</time>
      </trkpt>
      <trkpt lat="49.27382" lon="-0.1064">
        <ele>5.3</ele>
        <time>2023-10-15T06:40:14Z</time>
      </trkpt>
      <trkpt lat="49.27378" lon="-0.10631">
        <ele>5.3</ele>
        <time>2023-10-15T06:40:15Z</time>
      </trkpt>
      <trkpt lat="49.27375" lon="-0.10623">
        <ele>5.2</ele>
        <time>2023-10-15T06:40:16Z</time>
      </trkpt>
      <trkpt lat="49.27371" lon="-0.10615">
        <ele>5.2</ele>
        <time>2023-10-15T06:40:17Z</time>
      </trkpt>
      <trkpt lat="49.27368" lon="-0.10606">
        <ele>5.2</ele>
        <time>2023-10-15T06:40:18Z</time>
      </trkpt>
      <trkpt lat="49.27364" lon="-0.10598">
        <ele>5.2</ele>
        <time>2023-10-15T06:40:19Z</time>
      </trkpt>
      <trkpt lat="49.2736" lon="-0.10589">
        <ele>5.1</ele>
        <time>2023-10-15T06:40:20Z</time>
      </trkpt>
      <trkpt lat="49.27356" lon="-0.1058">
        <ele>5.1</ele>
        <time>2023-10-15T06:40:21Z</time>
      </trkpt>
      <trkpt lat="49.27352" lon="-0.10571">
        <ele>5</ele>
        <time>2023-10-15T06:40:22Z</time>
      </trkpt>
      <trkpt lat="49.27347" lon="-0.10562">
        <ele>5</ele>
        <time>2023-10-15T06:40:23Z</time>
      </trkpt>
      <trkpt lat="49.27343" lon="-0.10554">
        <ele>5</ele>
        <time>2023-10-15T06:40:24Z</time>
      </trkpt>
      <trkpt lat="49.27338" lon="-0.10545">
        <ele>5</ele>
        <time>2023-10-15T06:40:25Z</time>
      </trkpt>
      <trkpt lat="49.27334" lon="-0.10537">
        <ele>5</ele>
        <time>2023-10-15T06:40:26Z</time>
      </trkpt>
      <trkpt lat="49.2733" lon="-0.10529">
        <ele>5</ele>
        <time>2023-10-15T06:40:27Z</time>
      </trkpt>
      <trkpt lat="49.27325" lon="-0.10521">
        <ele>4.9</ele>
        <time>2023-10-15T06:40:28Z</time>
      </trkpt>
      <trkpt lat="49.2732" lon="-0.10513">
        <ele>4.9</ele>
        <time>2023-10-15T06:40:29Z</time>
      </trkpt>
      <trkpt lat="49.27315" lon="-0.10506">
        <ele>4.9</ele>
        <time>2023-10-15T06:40:30Z</time>
      </trkpt>
      <trkpt lat="49.2731" lon="-0.10499">
        <ele>4.9</ele>
        <time>2023-10-15T06:40:31Z</time>
      </trkpt>
      <trkpt lat="49.27305" lon="-0.10492">
        <ele>4.9</ele>
        <time>2023-10-15T06:40:32Z</time>
      </trkpt>
      <trkpt lat="49.273" lon="-0.10485">
        <ele>4.8</ele>
        <time>2023-10-15T06:40:33Z</time>
      </trkpt>
      <trkpt lat="49.27295" lon="-0.10479">
        <ele>4.8</ele>
        <time>2023-10-15T06:40:34Z</time>
      </trkpt>
      <trkpt lat="49.27289" lon="-0.10472">
        <ele>4.7</ele>
        <time>2023-10-15T06:40:35Z</time>
      </trkpt>
      <trkpt lat="49.27283" lon="-0.10465">
        <ele>4.7</ele>
        <time>2023-10-15T06:40:36Z</time>
      </trkpt>
      <trkpt lat="49.27277" lon="-0.10459">
        <ele>4.7</ele>
        <time>2023-10-15T06:40:37Z</time>
      </trkpt>
      <trkpt lat="49.27271" lon="-0.10452">
        <ele>4.7</ele>
        <time>2023-10-15T06:40:38Z</time>
      </trkpt>
      <trkpt lat="49.27264" lon="-0.10446">
        <ele>4.6</ele>
        <time>2023-10-15T06:40:39Z</time>
      </trkpt>
      <trkpt lat="49.27258" lon="-0.10439">
        <ele>4.6</ele>
        <time>2023-10-15T06:40:40Z</time>
      </trkpt>
      <trkpt lat="49.27252" lon="-0.10433">
        <ele>4.6</ele>
        <time>2023-10-15T06:40:41Z</time>
      </trkpt>
      <trkpt lat="49.27246" lon="-0.10427">
        <ele>4.6</ele>
        <time>2023-10-15T06:40:42Z</time>
      </trkpt>
      <trkpt lat="49.27239" lon="-0.10422">
        <ele>4.6</ele>
        <time>2023-10-15T06:40:43Z</time>
      </trkpt>
      <trkpt lat="49.27233" lon="-0.10416">
        <ele>4.6</ele>
        <time>2023-10-15T06:40:44Z</time>
      </trkpt>
      <trkpt lat="49.27227" lon="-0.10411">
        <ele>4.6</ele>
        <time>2023-10-15T06:40:45Z</time>
      </trkpt>
      <trkpt lat="49.2722" lon="-0.10406">
        <ele>4.6</ele>
        <time>2023-10-15T06:40:46Z</time>
      </trkpt>
      <trkpt lat="49.27214" lon="-0.10401">
        <ele>4.6</ele>
        <time>2023-10-15T06:40:47Z</time>
      </trkpt>
      <trkpt lat="49.27207" lon="-0.10397">
        <ele>4.7</ele>
        <time>2023-10-15T06:40:48Z</time>
      </trkpt>
      <trkpt lat="49.27201" lon="-0.10392">
        <ele>4.7</ele>
        <time>2023-10-15T06:40:49Z</time>
      </trkpt>
      <trkpt lat="49.27194" lon="-0.10388">
        <ele>4.7</ele>
        <time>2023-10-15T06:40:50Z</time>
      </trkpt>
      <trkpt lat="49.27187" lon="-0.10384">
        <ele>4.7</ele>
        <time>2023-10-15T06:40:51Z</time>
      </trkpt>
      <trkpt lat="49.2718" lon="-0.10379">
        <ele>4.7</ele>
        <time>2023-10-15T06:40:52Z</time>
      </trkpt>
      <trkpt lat="49.27173" lon="-0.10375">
        <ele>4.7</ele>
        <time>2023-10-15T06:40:53Z</time>
      </trkpt>
      <trkpt lat="49.27166" lon="-0.10372">
        <ele>4.7</ele>
        <time>2023-10-15T06:40:54Z</time>
      </trkpt>
      <trkpt lat="49.27159" lon="-0.10368">
        <ele>4.8</ele>
        <time>2023-10-15T06:40:55Z</time>
      </trkpt>
      <trkpt lat="49.27152" lon="-0.10365">
        <ele>4.8</ele>
        <time>2023-10-15T06:40:56Z</time>
      </trkpt>
      <trkpt lat="49.27145" lon="-0.10362">
        <ele>4.8</ele>
        <time>2023-10-15T06:40:57Z</time>
      </trkpt>
      <trkpt lat="49.27138" lon="-0.10358">
        <ele>4.8</ele>
        <time>2023-10-15T06:40:58Z</time>
      </trkpt>
      <trkpt lat="49.2713" lon="-0.10355">
        <ele>4.9</ele>
        <time>2023-10-15T06:40:59Z</time>
      </trkpt>
      <trkpt lat="49.27123" lon="-0.10353">
        <ele>4.9</ele>
        <time>2023-10-15T06:41:00Z</time>
      </trkpt>
      <trkpt lat="49.27116" lon="-0.10349">
        <ele>4.9</ele>
        <time>2023-10-15T06:41:01Z</time>
      </trkpt>
      <trkpt lat="49.27108" lon="-0.10347">
        <ele>5</ele>
        <time>2023-10-15T06:41:02Z</time>
      </trkpt>
      <trkpt lat="49.27101" lon="-0.10345">
        <ele>5</ele>
        <time>2023-10-15T06:41:03Z</time>
      </trkpt>
      <trkpt lat="49.27093" lon="-0.10344">
        <ele>5.2</ele>
        <time>2023-10-15T06:41:04Z</time>
      </trkpt>
      <trkpt lat="49.27086" lon="-0.10342">
        <ele>5.3</ele>
        <time>2023-10-15T06:41:05Z</time>
      </trkpt>
      <trkpt lat="49.27079" lon="-0.1034">
        <ele>5.4</ele>
        <time>2023-10-15T06:41:06Z</time>
      </trkpt>
      <trkpt lat="49.27072" lon="-0.10339">
        <ele>5.5</ele>
        <time>2023-10-15T06:41:07Z</time>
      </trkpt>
      <trkpt lat="49.27064" lon="-0.10337">
        <ele>5.7</ele>
        <time>2023-10-15T06:41:08Z</time>
      </trkpt>
      <trkpt lat="49.27057" lon="-0.10336">
        <ele>5.8</ele>
        <time>2023-10-15T06:41:09Z</time>
      </trkpt>
      <trkpt lat="49.27049" lon="-0.10335">
        <ele>5.9</ele>
        <time>2023-10-15T06:41:10Z</time>
      </trkpt>
      <trkpt lat="49.27042" lon="-0.10335">
        <ele>6.1</ele>
        <time>2023-10-15T06:41:11Z</time>
      </trkpt>
      <trkpt lat="49.27034" lon="-0.10334">
        <ele>6.2</ele>
        <time>2023-10-15T06:41:12Z</time>
      </trkpt>
      <trkpt lat="49.27026" lon="-0.10334">
        <ele>6.3</ele>
        <time>2023-10-15T06:41:13Z</time>
      </trkpt>
      <trkpt lat="49.27019" lon="-0.10334">
        <ele>6.4</ele>
        <time>2023-10-15T06:41:14Z</time>
      </trkpt>
      <trkpt lat="49.27011" lon="-0.10334">
        <ele>6.5</ele>
        <time>2023-10-15T06:41:15Z</time>
      </trkpt>
      <trkpt lat="49.27003" lon="-0.10335">
        <ele>6.6</ele>
        <time>2023-10-15T06:41:16Z</time>
      </trkpt>
      <trkpt lat="49.26995" lon="-0.10335">
        <ele>6.7</ele>
        <time>2023-10-15T06:41:17Z</time>
      </trkpt>
      <trkpt lat="49.26988" lon="-0.10336">
        <ele>6.7</ele>
        <time>2023-10-15T06:41:18Z</time>
      </trkpt>
      <trkpt lat="49.2698" lon="-0.10337">
        <ele>6.8</ele>
        <time>2023-10-15T06:41:19Z</time>
      </trkpt>
      <trkpt lat="49.26973" lon="-0.10338">
        <ele>6.8</ele>
        <time>2023-10-15T06:41:20Z</time>
      </trkpt>
      <trkpt lat="49.26965" lon="-0.10339">
        <ele>6.9</ele>
        <time>2023-10-15T06:41:21Z</time>
      </trkpt>
      <trkpt lat="49.26958" lon="-0.10341">
        <ele>6.9</ele>
        <time>2023-10-15T06:41:22Z</time>
      </trkpt>
      <trkpt lat="49.2695" lon="-0.10343">
        <ele>6.9</ele>
        <time>2023-10-15T06:41:23Z</time>
      </trkpt>
      <trkpt lat="49.26943" lon="-0.10344">
        <ele>6.9</ele>
        <time>2023-10-15T06:41:24Z</time>
      </trkpt>
      <trkpt lat="49.26935" lon="-0.10346">
        <ele>6.9</ele>
        <time>2023-10-15T06:41:25Z</time>
      </trkpt>
      <trkpt lat="49.26928" lon="-0.10347">
        <ele>6.9</ele>
        <time>2023-10-15T06:41:26Z</time>
      </trkpt>
      <trkpt lat="49.26921" lon="-0.10349">
        <ele>7</ele>
        <time>2023-10-15T06:41:27Z</time>
      </trkpt>
      <trkpt lat="49.26914" lon="-0.1035">
        <ele>7</ele>
        <time>2023-10-15T06:41:28Z</time>
      </trkpt>
      <trkpt lat="49.26907" lon="-0.10352">
        <ele>7</ele>
        <time>2023-10-15T06:41:29Z</time>
      </trkpt>
      <trkpt lat="49.269" lon="-0.10354">
        <ele>6.9</ele>
        <time>2023-10-15T06:41:30Z</time>
      </trkpt>
      <trkpt lat="49.26893" lon="-0.10357">
        <ele>6.9</ele>
        <time>2023-10-15T06:41:31Z</time>
      </trkpt>
      <trkpt lat="49.26885" lon="-0.10359">
        <ele>6.9</ele>
        <time>2023-10-15T06:41:32Z</time>
      </trkpt>
      <trkpt lat="49.26878" lon="-0.10361">
        <ele>6.8</ele>
        <time>2023-10-15T06:41:33Z</time>
      </trkpt>
      <trkpt lat="49.2687" lon="-0.10364">
        <ele>6.8</ele>
        <time>2023-10-15T06:41:34Z</time>
      </trkpt>
      <trkpt lat="49.26863" lon="-0.10366">
        <ele>6.7</ele>
        <time>2023-10-15T06:41:35Z</time>
      </trkpt>
      <trkpt lat="49.26855" lon="-0.10369">
        <ele>6.7</ele>
        <time>2023-10-15T06:41:36Z</time>
      </trkpt>
      <trkpt lat="49.26848" lon="-0.10372">
        <ele>6.7</ele>
        <time>2023-10-15T06:41:37Z</time>
      </trkpt>
      <trkpt lat="49.2684" lon="-0.10375">
        <ele>6.6</ele>
        <time>2023-10-15T06:41:38Z</time>
      </trkpt>
      <trkpt lat="49.26832" lon="-0.10378">
        <ele>6.6</ele>
        <time>2023-10-15T06:41:39Z</time>
      </trkpt>
      <trkpt lat="49.26825" lon="-0.1038">
        <ele>6.6</ele>
        <time>2023-10-15T06:41:40Z</time>
      </trkpt>
      <trkpt lat="49.26818" lon="-0.10383">
        <ele>6.5</ele>
        <time>2023-10-15T06:41:41Z</time>
      </trkpt>
      <trkpt lat="49.2681" lon="-0.10386">
        <ele>6.5</ele>
        <time>2023-10-15T06:41:42Z</time>
      </trkpt>
      <trkpt lat="49.26803" lon="-0.10388">
        <ele>6.5</ele>
        <time>2023-10-15T06:41:43Z</time>
      </trkpt>
      <trkpt lat="49.26796" lon="-0.10391">
        <ele>6.6</ele>
        <time>2023-10-15T06:41:44Z</time>
      </trkpt>
      <trkpt lat="49.26789" lon="-0.10393">
        <ele>6.6</ele>
        <time>2023-10-15T06:41:45Z</time>
      </trkpt>
      <trkpt lat="49.26781" lon="-0.10396">
        <ele>6.6</ele>
        <time>2023-10-15T06:41:46Z</time>
      </trkpt>
      <trkpt lat="49.26774" lon="-0.10398">
        <ele>6.5</ele>
        <time>2023-10-15T06:41:47Z</time>
      </trkpt>
      <trkpt lat="49.26767" lon="-0.10401">
        <ele>6.5</ele>
        <time>2023-10-15T06:41:48Z</time>
      </trkpt>
      <trkpt lat="49.26759" lon="-0.10403">
        <ele>6.4</ele>
        <time>2023-10-15T06:41:49Z</time>
      </trkpt>
      <trkpt lat="49.26752" lon="-0.10406">
        <ele>6.4</ele>
        <time>2023-10-15T06:41:50Z</time>
      </trkpt>
      <trkpt lat="49.26744" lon="-0.10408">
        <ele>6.3</ele>
        <time>2023-10-15T06:41:51Z</time>
      </trkpt>
      <trkpt lat="49.26737" lon="-0.10411">
        <ele>6.3</ele>
        <time>2023-10-15T06:41:52Z</time>
      </trkpt>
      <trkpt lat="49.26729" lon="-0.10413">
        <ele>6.2</ele>
        <time>2023-10-15T06:41:53Z</time>
      </trkpt>
      <trkpt lat="49.26722" lon="-0.10416">
        <ele>6.1</ele>
        <time>2023-10-15T06:41:54Z</time>
      </trkpt>
      <trkpt lat="49.26715" lon="-0.10418">
        <ele>6.1</ele>
        <time>2023-10-15T06:41:55Z</time>
      </trkpt>
      <trkpt lat="49.26707" lon="-0.10421">
        <ele>6</ele>
        <time>2023-10-15T06:41:56Z</time>
      </trkpt>
      <trkpt lat="49.267" lon="-0.10424">
        <ele>6</ele>
        <time>2023-10-15T06:41:57Z</time>
      </trkpt>
      <trkpt lat="49.26692" lon="-0.10427">
        <ele>5.9</ele>
        <time>2023-10-15T06:41:58Z</time>
      </trkpt>
      <trkpt lat="49.26685" lon="-0.10429">
        <ele>5.9</ele>
        <time>2023-10-15T06:41:59Z</time>
      </trkpt>
      <trkpt lat="49.26677" lon="-0.10432">
        <ele>5.9</ele>
        <time>2023-10-15T06:42:00Z</time>
      </trkpt>
      <trkpt lat="49.26669" lon="-0.10434">
        <ele>5.9</ele>
        <time>2023-10-15T06:42:01Z</time>
      </trkpt>
      <trkpt lat="49.26662" lon="-0.10436">
        <ele>5.9</ele>
        <time>2023-10-15T06:42:02Z</time>
      </trkpt>
      <trkpt lat="49.26654" lon="-0.10439">
        <ele>5.8</ele>
        <time>2023-10-15T06:42:03Z</time>
      </trkpt>
      <trkpt lat="49.26646" lon="-0.10442">
        <ele>5.8</ele>
        <time>2023-10-15T06:42:04Z</time>
      </trkpt>
      <trkpt lat="49.26638" lon="-0.10444">
        <ele>5.7</ele>
        <time>2023-10-15T06:42:05Z</time>
      </trkpt>
      <trkpt lat="49.26631" lon="-0.10446">
        <ele>5.7</ele>
        <time>2023-10-15T06:42:06Z</time>
      </trkpt>
      <trkpt lat="49.26623" lon="-0.10449">
        <ele>5.6</ele>
        <time>2023-10-15T06:42:07Z</time>
      </trkpt>
      <trkpt lat="49.26616" lon="-0.1045">
        <ele>5.6</ele>
        <time>2023-10-15T06:42:08Z</time>
      </trkpt>
      <trkpt lat="49.26608" lon="-0.10451">
        <ele>5.6</ele>
        <time>2023-10-15T06:42:09Z</time>
      </trkpt>
      <trkpt lat="49.26601" lon="-0.10453">
        <ele>5.6</ele>
        <time>2023-10-15T06:42:10Z</time>
      </trkpt>
      <trkpt lat="49.26593" lon="-0.10455">
        <ele>5.5</ele>
        <time>2023-10-15T06:42:11Z</time>
      </trkpt>
      <trkpt lat="49.26585" lon="-0.10456">
        <ele>5.5</ele>
        <time>2023-10-15T06:42:12Z</time>
      </trkpt>
      <trkpt lat="49.26577" lon="-0.10457">
        <ele>5.4</ele>
        <time>2023-10-15T06:42:13Z</time>
      </trkpt>
      <trkpt lat="49.2657" lon="-0.10458">
        <ele>5.4</ele>
        <time>2023-10-15T06:42:14Z</time>
      </trkpt>
      <trkpt lat="49.26562" lon="-0.10459">
        <ele>5.3</ele>
        <time>2023-10-15T06:42:15Z</time>
      </trkpt>
      <trkpt lat="49.26554" lon="-0.1046">
        <ele>5.3</ele>
        <time>2023-10-15T06:42:16Z</time>
      </trkpt>
      <trkpt lat="49.26546" lon="-0.10461">
        <ele>5.4</ele>
        <time>2023-10-15T06:42:17Z</time>
      </trkpt>
      <trkpt lat="49.26539" lon="-0.10462">
        <ele>5.4</ele>
        <time>2023-10-15T06:42:18Z</time>
      </trkpt>
      <trkpt lat="49.26531" lon="-0.10463">
        <ele>5.4</ele>
        <time>2023-10-15T06:42:19Z</time>
      </trkpt>
      <trkpt lat="49.26523" lon="-0.10464">
        <ele>5.4</ele>
        <time>2023-10-15T06:42:20Z</time>
      </trkpt>
      <trkpt lat="49.26515" lon="-0.10465">
        <ele>5.4</ele>
        <time>2023-10-15T06:42:21Z</time>
      </trkpt>
      <trkpt lat="49.26508" lon="-0.10465">
        <ele>5.4</ele>
        <time>2023-10-15T06:42:22Z</time>
      </trkpt>
      <trkpt lat="49.265" lon="-0.10465">
        <ele>5.5</ele>
        <time>2023-10-15T06:42:23Z</time>
      </trkpt>
      <trkpt lat="49.26492" lon="-0.10466">
        <ele>5.5</ele>
        <time>2023-10-15T06:42:24Z</time>
      </trkpt>
      <trkpt lat="49.26485" lon="-0.10466">
        <ele>5.5</ele>
        <time>2023-10-15T06:42:25Z</time>
      </trkpt>
      <trkpt lat="49.26477" lon="-0.10467">
        <ele>5.6</ele>
        <time>2023-10-15T06:42:26Z</time>
      </trkpt>
      <trkpt lat="49.2647" lon="-0.10467">
        <ele>5.6</ele>
        <time>2023-10-15T06:42:27Z</time>
      </trkpt>
      <trkpt lat="49.26462" lon="-0.10467">
        <ele>5.7</ele>
        <time>2023-10-15T06:42:28Z</time>
      </trkpt>
      <trkpt lat="49.26455" lon="-0.10467">
        <ele>5.7</ele>
        <time>2023-10-15T06:42:29Z</time>
      </trkpt>
      <trkpt lat="49.26447" lon="-0.10466">
        <ele>5.8</ele>
        <time>2023-10-15T06:42:30Z</time>
      </trkpt>
      <trkpt lat="49.2644" lon="-0.10465">
        <ele>5.8</ele>
        <time>2023-10-15T06:42:31Z</time>
      </trkpt>
      <trkpt lat="49.26432" lon="-0.10464">
        <ele>5.8</ele>
        <time>2023-10-15T06:42:32Z</time>
      </trkpt>
      <trkpt lat="49.26424" lon="-0.10463">
        <ele>5.9</ele>
        <time>2023-10-15T06:42:33Z</time>
      </trkpt>
      <trkpt lat="49.26417" lon="-0.10462">
        <ele>5.9</ele>
        <time>2023-10-15T06:42:34Z</time>
      </trkpt>
      <trkpt lat="49.26409" lon="-0.10461">
        <ele>5.9</ele>
        <time>2023-10-15T06:42:35Z</time>
      </trkpt>
      <trkpt lat="49.26402" lon="-0.10461">
        <ele>5.9</ele>
        <time>2023-10-15T06:42:36Z</time>
      </trkpt>
      <trkpt lat="49.26394" lon="-0.1046">
        <ele>6</ele>
        <time>2023-10-15T06:42:37Z</time>
      </trkpt>
      <trkpt lat="49.26387" lon="-0.10459">
        <ele>6</ele>
        <time>2023-10-15T06:42:38Z</time>
      </trkpt>
      <trkpt lat="49.26379" lon="-0.10459">
        <ele>6</ele>
        <time>2023-10-15T06:42:39Z</time>
      </trkpt>
      <trkpt lat="49.26372" lon="-0.10458">
        <ele>6</ele>
        <time>2023-10-15T06:42:40Z</time>
      </trkpt>
      <trkpt lat="49.26364" lon="-0.10457">
        <ele>6</ele>
        <time>2023-10-15T06:42:41Z</time>
      </trkpt>
      <trkpt lat="49.26357" lon="-0.10456">
        <ele>6.1</ele>
        <time>2023-10-15T06:42:42Z</time>
      </trkpt>
      <trkpt lat="49.26349" lon="-0.10455">
        <ele>6.1</ele>
        <time>2023-10-15T06:42:43Z</time>
      </trkpt>
      <trkpt lat="49.26341" lon="-0.10454">
        <ele>6.1</ele>
        <time>2023-10-15T06:42:44Z</time>
      </trkpt>
      <trkpt lat="49.26334" lon="-0.10454">
        <ele>6.1</ele>
        <time>2023-10-15T06:42:45Z</time>
      </trkpt>
      <trkpt lat="49.26326" lon="-0.10453">
        <ele>6.1</ele>
        <time>2023-10-15T06:42:46Z</time>
      </trkpt>
      <trkpt lat="49.26319" lon="-0.10452">
        <ele>6.2</ele>
        <time>2023-10-15T06:42:47Z</time>
      </trkpt>
      <trkpt lat="49.26311" lon="-0.10451">
        <ele>6.2</ele>
        <time>2023-10-15T06:42:48Z</time>
      </trkpt>
      <trkpt lat="49.26304" lon="-0.1045">
        <ele>6.2</ele>
        <time>2023-10-15T06:42:49Z</time>
      </trkpt>
      <trkpt lat="49.26297" lon="-0.1045">
        <ele>6.2</ele>
        <time>2023-10-15T06:42:50Z</time>
      </trkpt>
      <trkpt lat="49.2629" lon="-0.10449">
        <ele>6.3</ele>
        <time>2023-10-15T06:42:51Z</time>
      </trkpt>
      <trkpt lat="49.26282" lon="-0.10448">
        <ele>6.3</ele>
        <time>2023-10-15T06:42:52Z</time>
      </trkpt>
      <trkpt lat="49.26275" lon="-0.10447">
        <ele>6.3</ele>
        <time>2023-10-15T06:42:53Z</time>
      </trkpt>
      <trkpt lat="49.26267" lon="-0.10446">
        <ele>6.3</ele>
        <time>2023-10-15T06:42:54Z</time>
      </trkpt>
      <trkpt lat="49.2626" lon="-0.10445">
        <ele>6.4</ele>
        <time>2023-10-15T06:42:55Z</time>
      </trkpt>
      <trkpt lat="49.26252" lon="-0.10444">
        <ele>6.4</ele>
        <time>2023-10-15T06:42:56Z</time>
      </trkpt>
      <trkpt lat="49.26245" lon="-0.10444">
        <ele>6.4</ele>
        <time>2023-10-15T06:42:57Z</time>
      </trkpt>
      <trkpt lat="49.26237" lon="-0.10443">
        <ele>6.4</ele>
        <time>2023-10-15T06:42:58Z</time>
      </trkpt>
      <trkpt lat="49.2623" lon="-0.10442">
        <ele>6.4</ele>
        <time>2023-10-15T06:42:59Z</time>
      </trkpt>
      <trkpt lat="49.26222" lon="-0.10442">
        <ele>6.4</ele>
        <time>2023-10-15T06:43:00Z</time>
      </trkpt>
      <trkpt lat="49.26215" lon="-0.10441">
        <ele>6.4</ele>
        <time>2023-10-15T06:43:01Z</time>
      </trkpt>
      <trkpt lat="49.26208" lon="-0.10441">
        <ele>6.4</ele>
        <time>2023-10-15T06:43:02Z</time>
      </trkpt>
      <trkpt lat="49.262" lon="-0.1044">
        <ele>6.4</ele>
        <time>2023-10-15T06:43:03Z</time>
      </trkpt>
      <trkpt lat="49.26192" lon="-0.10439">
        <ele>6.4</ele>
        <time>2023-10-15T06:43:04Z</time>
      </trkpt>
      <trkpt lat="49.26185" lon="-0.10439">
        <ele>6.4</ele>
        <time>2023-10-15T06:43:05Z</time>
      </trkpt>
      <trkpt lat="49.26177" lon="-0.10438">
        <ele>6.5</ele>
        <time>2023-10-15T06:43:06Z</time>
      </trkpt>
      <trkpt lat="49.2617" lon="-0.10437">
        <ele>6.5</ele>
        <time>2023-10-15T06:43:07Z</time>
      </trkpt>
      <trkpt lat="49.26162" lon="-0.10437">
        <ele>6.5</ele>
        <time>2023-10-15T06:43:08Z</time>
      </trkpt>
      <trkpt lat="49.26155" lon="-0.10436">
        <ele>6.5</ele>
        <time>2023-10-15T06:43:09Z</time>
      </trkpt>
      <trkpt lat="49.26147" lon="-0.10435">
        <ele>6.5</ele>
        <time>2023-10-15T06:43:10Z</time>
      </trkpt>
      <trkpt lat="49.2614" lon="-0.10434">
        <ele>6.5</ele>
        <time>2023-10-15T06:43:11Z</time>
      </trkpt>
      <trkpt lat="49.26132" lon="-0.10433">
        <ele>6.5</ele>
        <time>2023-10-15T06:43:12Z</time>
      </trkpt>
      <trkpt lat="49.26125" lon="-0.10432">
        <ele>6.4</ele>
        <time>2023-10-15T06:43:13Z</time>
      </trkpt>
      <trkpt lat="49.26117" lon="-0.10431">
        <ele>6.4</ele>
        <time>2023-10-15T06:43:14Z</time>
      </trkpt>
      <trkpt lat="49.2611" lon="-0.10431">
        <ele>6.4</ele>
        <time>2023-10-15T06:43:15Z</time>
      </trkpt>
      <trkpt lat="49.26102" lon="-0.1043">
        <ele>6.3</ele>
        <time>2023-10-15T06:43:16Z</time>
      </trkpt>
      <trkpt lat="49.26094" lon="-0.10429">
        <ele>6.3</ele>
        <time>2023-10-15T06:43:17Z</time>
      </trkpt>
      <trkpt lat="49.26087" lon="-0.10428">
        <ele>6.2</ele>
        <time>2023-10-15T06:43:18Z</time>
      </trkpt>
      <trkpt lat="49.26079" lon="-0.10428">
        <ele>6.2</ele>
        <time>2023-10-15T06:43:19Z</time>
      </trkpt>
      <trkpt lat="49.26072" lon="-0.10428">
        <ele>6.1</ele>
        <time>2023-10-15T06:43:20Z</time>
      </trkpt>
      <trkpt lat="49.26064" lon="-0.10428">
        <ele>6.1</ele>
        <time>2023-10-15T06:43:21Z</time>
      </trkpt>
      <trkpt lat="49.26056" lon="-0.10427">
        <ele>6.1</ele>
        <time>2023-10-15T06:43:22Z</time>
      </trkpt>
      <trkpt lat="49.26048" lon="-0.10427">
        <ele>6</ele>
        <time>2023-10-15T06:43:23Z</time>
      </trkpt>
      <trkpt lat="49.26041" lon="-0.10427">
        <ele>6</ele>
        <time>2023-10-15T06:43:24Z</time>
      </trkpt>
      <trkpt lat="49.26033" lon="-0.10426">
        <ele>6</ele>
        <time>2023-10-15T06:43:25Z</time>
      </trkpt>
      <trkpt lat="49.26026" lon="-0.10426">
        <ele>5.9</ele>
        <time>2023-10-15T06:43:26Z</time>
      </trkpt>
      <trkpt lat="49.26018" lon="-0.10426">
        <ele>5.9</ele>
        <time>2023-10-15T06:43:27Z</time>
      </trkpt>
      <trkpt lat="49.2601" lon="-0.10426">
        <ele>5.9</ele>
        <time>2023-10-15T06:43:28Z</time>
      </trkpt>
      <trkpt lat="49.26003" lon="-0.10425">
        <ele>5.8</ele>
        <time>2023-10-15T06:43:29Z</time>
      </trkpt>
      <trkpt lat="49.25996" lon="-0.10425">
        <ele>5.7</ele>
        <time>2023-10-15T06:43:30Z</time>
      </trkpt>
      <trkpt lat="49.25988" lon="-0.10424">
        <ele>5.7</ele>
        <time>2023-10-15T06:43:31Z</time>
      </trkpt>
      <trkpt lat="49.25981" lon="-0.10423">
        <ele>5.6</ele>
        <time>2023-10-15T06:43:32Z</time>
      </trkpt>
      <trkpt lat="49.25973" lon="-0.10423">
        <ele>5.6</ele>
        <time>2023-10-15T06:43:33Z</time>
      </trkpt>
      <trkpt lat="49.25965" lon="-0.10422">
        <ele>5.6</ele>
        <time>2023-10-15T06:43:34Z</time>
      </trkpt>
      <trkpt lat="49.25958" lon="-0.10422">
        <ele>5.5</ele>
        <time>2023-10-15T06:43:35Z</time>
      </trkpt>
      <trkpt lat="49.2595" lon="-0.10422">
        <ele>5.5</ele>
        <time>2023-10-15T06:43:36Z</time>
      </trkpt>
      <trkpt lat="49.25942" lon="-0.10421">
        <ele>5.5</ele>
        <time>2023-10-15T06:43:37Z</time>
      </trkpt>
      <trkpt lat="49.25934" lon="-0.1042">
        <ele>5.5</ele>
        <time>2023-10-15T06:43:38Z</time>
      </trkpt>
      <trkpt lat="49.25927" lon="-0.10419">
        <ele>5.4</ele>
        <time>2023-10-15T06:43:39Z</time>
      </trkpt>
      <trkpt lat="49.25919" lon="-0.10417">
        <ele>5.4</ele>
        <time>2023-10-15T06:43:40Z</time>
      </trkpt>
      <trkpt lat="49.25911" lon="-0.10416">
        <ele>5.3</ele>
        <time>2023-10-15T06:43:41Z</time>
      </trkpt>
      <trkpt lat="49.25904" lon="-0.10415">
        <ele>5.3</ele>
        <time>2023-10-15T06:43:42Z</time>
      </trkpt>
      <trkpt lat="49.25896" lon="-0.10413">
        <ele>5.3</ele>
        <time>2023-10-15T06:43:43Z</time>
      </trkpt>
      <trkpt lat="49.25889" lon="-0.10412">
        <ele>5.3</ele>
        <time>2023-10-15T06:43:44Z</time>
      </trkpt>
      <trkpt lat="49.25882" lon="-0.1041">
        <ele>5.2</ele>
        <time>2023-10-15T06:43:45Z</time>
      </trkpt>
      <trkpt lat="49.25875" lon="-0.10409">
        <ele>5.2</ele>
        <time>2023-10-15T06:43:46Z</time>
      </trkpt>
      <trkpt lat="49.25867" lon="-0.10408">
        <ele>5.2</ele>
        <time>2023-10-15T06:43:47Z</time>
      </trkpt>
      <trkpt lat="49.2586" lon="-0.10407">
        <ele>5.2</ele>
        <time>2023-10-15T06:43:48Z</time>
      </trkpt>
      <trkpt lat="49.25853" lon="-0.10406">
        <ele>5.2</ele>
        <time>2023-10-15T06:43:49Z</time>
      </trkpt>
      <trkpt lat="49.25847" lon="-0.10405">
        <ele>5.2</ele>
        <time>2023-10-15T06:43:50Z</time>
      </trkpt>
      <trkpt lat="49.2584" lon="-0.10404">
        <ele>5.2</ele>
        <time>2023-10-15T06:43:51Z</time>
      </trkpt>
      <trkpt lat="49.25833" lon="-0.10403">
        <ele>5.2</ele>
        <time>2023-10-15T06:43:52Z</time>
      </trkpt>
      <trkpt lat="49.25827" lon="-0.10403">
        <ele>5.2</ele>
        <time>2023-10-15T06:43:53Z</time>
      </trkpt>
      <trkpt lat="49.25821" lon="-0.10402">
        <ele>5.3</ele>
        <time>2023-10-15T06:43:54Z</time>
      </trkpt>
      <trkpt lat="49.25816" lon="-0.10403">
        <ele>5.3</ele>
        <time>2023-10-15T06:43:55Z</time>
      </trkpt>
      <trkpt lat="49.25812" lon="-0.10403">
        <ele>5.3</ele>
        <time>2023-10-15T06:43:56Z</time>
      </trkpt>
      <trkpt lat="49.25808" lon="-0.10404">
        <ele>5.4</ele>
        <time>2023-10-15T06:43:57Z</time>
      </trkpt>
      <trkpt lat="49.25805" lon="-0.10406">
        <ele>5.4</ele>
        <time>2023-10-15T06:43:58Z</time>
      </trkpt>
      <trkpt lat="49.25801" lon="-0.10408">
        <ele>5.4</ele>
        <time>2023-10-15T06:43:59Z</time>
      </trkpt>
      <trkpt lat="49.25798" lon="-0.10411">
        <ele>5.3</ele>
        <time>2023-10-15T06:44:00Z</time>
      </trkpt>
      <trkpt lat="49.25794" lon="-0.10416">
        <ele>5.3</ele>
        <time>2023-10-15T06:44:01Z</time>
      </trkpt>
      <trkpt lat="49.25789" lon="-0.1042">
        <ele>5.3</ele>
        <time>2023-10-15T06:44:02Z</time>
      </trkpt>
      <trkpt lat="49.25784" lon="-0.10423">
        <ele>5.2</ele>
        <time>2023-10-15T06:44:03Z</time>
      </trkpt>
      <trkpt lat="49.25779" lon="-0.10424">
        <ele>5.1</ele>
        <time>2023-10-15T06:44:04Z</time>
      </trkpt>
      <trkpt lat="49.25773" lon="-0.10423">
        <ele>4.9</ele>
        <time>2023-10-15T06:44:05Z</time>
      </trkpt>
      <trkpt lat="49.25767" lon="-0.10421">
        <ele>4.8</ele>
        <time>2023-10-15T06:44:06Z</time>
      </trkpt>
      <trkpt lat="49.25761" lon="-0.10417">
        <ele>4.7</ele>
        <time>2023-10-15T06:44:07Z</time>
      </trkpt>
      <trkpt lat="49.25756" lon="-0.10411">
        <ele>4.7</ele>
        <time>2023-10-15T06:44:08Z</time>
      </trkpt>
      <trkpt lat="49.2575" lon="-0.10406">
        <ele>4.7</ele>
        <time>2023-10-15T06:44:09Z</time>
      </trkpt>
      <trkpt lat="49.25744" lon="-0.10401">
        <ele>4.7</ele>
        <time>2023-10-15T06:44:10Z</time>
      </trkpt>
      <trkpt lat="49.25737" lon="-0.10398">
        <ele>4.6</ele>
        <time>2023-10-15T06:44:11Z</time>
      </trkpt>
      <trkpt lat="49.2573" lon="-0.10397">
        <ele>4.6</ele>
        <time>2023-10-15T06:44:12Z</time>
      </trkpt>
      <trkpt lat="49.25723" lon="-0.10396">
        <ele>4.6</ele>
        <time>2023-10-15T06:44:13Z</time>
      </trkpt>
      <trkpt lat="49.25715" lon="-0.10395">
        <ele>4.5</ele>
        <time>2023-10-15T06:44:14Z</time>
      </trkpt>
      <trkpt lat="49.25707" lon="-0.10394">
        <ele>4.5</ele>
        <time>2023-10-15T06:44:15Z</time>
      </trkpt>
      <trkpt lat="49.25699" lon="-0.10393">
        <ele>4.5</ele>
        <time>2023-10-15T06:44:16Z</time>
      </trkpt>
      <trkpt lat="49.25691" lon="-0.10392">
        <ele>4.5</ele>
        <time>2023-10-15T06:44:17Z</time>
      </trkpt>
      <trkpt lat="49.25683" lon="-0.10391">
        <ele>4.5</ele>
        <time>2023-10-15T06:44:18Z</time>
      </trkpt>
      <trkpt lat="49.25675" lon="-0.1039">
        <ele>4.5</ele>
        <time>2023-10-15T06:44:19Z</time>
      </trkpt>
      <trkpt lat="49.25666" lon="-0.10389">
        <ele>4.5</ele>
        <time>2023-10-15T06:44:20Z</time>
      </trkpt>
      <trkpt lat="49.25658" lon="-0.10388">
        <ele>4.5</ele>
        <time>2023-10-15T06:44:21Z</time>
      </trkpt>
      <trkpt lat="49.2565" lon="-0.10388">
        <ele>4.5</ele>
        <time>2023-10-15T06:44:22Z</time>
      </trkpt>
      <trkpt lat="49.25642" lon="-0.10387">
        <ele>4.5</ele>
        <time>2023-10-15T06:44:23Z</time>
      </trkpt>
      <trkpt lat="49.25633" lon="-0.10385">
        <ele>4.5</ele>
        <time>2023-10-15T06:44:24Z</time>
      </trkpt>
      <trkpt lat="49.25625" lon="-0.10384">
        <ele>4.5</ele>
        <time>2023-10-15T06:44:25Z</time>
      </trkpt>
      <trkpt lat="49.25617" lon="-0.10383">
        <ele>4.5</ele>
        <time>2023-10-15T06:44:26Z</time>
      </trkpt>
      <trkpt lat="49.25609" lon="-0.10381">
        <ele>4.4</ele>
        <time>2023-10-15T06:44:27Z</time>
      </trkpt>
      <trkpt lat="49.25601" lon="-0.1038">
        <ele>4.4</ele>
        <time>2023-10-15T06:44:28Z</time>
      </trkpt>
      <trkpt lat="49.25593" lon="-0.10379">
        <ele>4.4</ele>
        <time>2023-10-15T06:44:29Z</time>
      </trkpt>
      <trkpt lat="49.25586" lon="-0.10378">
        <ele>4.3</ele>
        <time>2023-10-15T06:44:30Z</time>
      </trkpt>
      <trkpt lat="49.25578" lon="-0.10377">
        <ele>4.3</ele>
        <time>2023-10-15T06:44:31Z</time>
      </trkpt>
      <trkpt lat="49.25571" lon="-0.10376">
        <ele>4.3</ele>
        <time>2023-10-15T06:44:32Z</time>
      </trkpt>
      <trkpt lat="49.25564" lon="-0.10374">
        <ele>4.3</ele>
        <time>2023-10-15T06:44:33Z</time>
      </trkpt>
      <trkpt lat="49.25557" lon="-0.10373">
        <ele>4.3</ele>
        <time>2023-10-15T06:44:34Z</time>
      </trkpt>
      <trkpt lat="49.2555" lon="-0.10371">
        <ele>4.3</ele>
        <time>2023-10-15T06:44:35Z</time>
      </trkpt>
      <trkpt lat="49.25543" lon="-0.1037">
        <ele>4.3</ele>
        <time>2023-10-15T06:44:36Z</time>
      </trkpt>
      <trkpt lat="49.25535" lon="-0.10368">
        <ele>4.3</ele>
        <time>2023-10-15T06:44:37Z</time>
      </trkpt>
      <trkpt lat="49.25528" lon="-0.10367">
        <ele>4.3</ele>
        <time>2023-10-15T06:44:38Z</time>
      </trkpt>
      <trkpt lat="49.2552" lon="-0.10366">
        <ele>4.3</ele>
        <time>2023-10-15T06:44:39Z</time>
      </trkpt>
      <trkpt lat="49.25513" lon="-0.10364">
        <ele>4.3</ele>
        <time>2023-10-15T06:44:40Z</time>
      </trkpt>
      <trkpt lat="49.25505" lon="-0.10363">
        <ele>4.3</ele>
        <time>2023-10-15T06:44:41Z</time>
      </trkpt>
      <trkpt lat="49.25498" lon="-0.10362">
        <ele>4.3</ele>
        <time>2023-10-15T06:44:42Z</time>
      </trkpt>
      <trkpt lat="49.25491" lon="-0.10361">
        <ele>4.3</ele>
        <time>2023-10-15T06:44:43Z</time>
      </trkpt>
      <trkpt lat="49.25484" lon="-0.1036">
        <ele>4.3</ele>
        <time>2023-10-15T06:44:44Z</time>
      </trkpt>
      <trkpt lat="49.25476" lon="-0.10359">
        <ele>4.3</ele>
        <time>2023-10-15T06:44:45Z</time>
      </trkpt>
      <trkpt lat="49.25469" lon="-0.10358">
        <ele>4.4</ele>
        <time>2023-10-15T06:44:46Z</time>
      </trkpt>
      <trkpt lat="49.25461" lon="-0.10357">
        <ele>4.4</ele>
        <time>2023-10-15T06:44:47Z</time>
      </trkpt>
      <trkpt lat="49.25454" lon="-0.10356">
        <ele>4.4</ele>
        <time>2023-10-15T06:44:48Z</time>
      </trkpt>
      <trkpt lat="49.25447" lon="-0.10356">
        <ele>4.4</ele>
        <time>2023-10-15T06:44:49Z</time>
      </trkpt>
      <trkpt lat="49.2544" lon="-0.10355">
        <ele>4.4</ele>
        <time>2023-10-15T06:44:50Z</time>
      </trkpt>
      <trkpt lat="49.25433" lon="-0.10354">
        <ele>4.3</ele>
        <time>2023-10-15T06:44:51Z</time>
      </trkpt>
      <trkpt lat="49.25425" lon="-0.10353">
        <ele>4.3</ele>
        <time>2023-10-15T06:44:52Z</time>
      </trkpt>
      <trkpt lat="49.25418" lon="-0.10352">
        <ele>4.3</ele>
        <time>2023-10-15T06:44:53Z</time>
      </trkpt>
      <trkpt lat="49.2541" lon="-0.10351">
        <ele>4.3</ele>
        <time>2023-10-15T06:44:54Z</time>
      </trkpt>
      <trkpt lat="49.25403" lon="-0.1035">
        <ele>4.3</ele>
        <time>2023-10-15T06:44:55Z</time>
      </trkpt>
      <trkpt lat="49.25396" lon="-0.10349">
        <ele>4.3</ele>
        <time>2023-10-15T06:44:56Z</time>
      </trkpt>
      <trkpt lat="49.25388" lon="-0.10349">
        <ele>4.3</ele>
        <time>2023-10-15T06:44:57Z</time>
      </trkpt>
      <trkpt lat="49.25381" lon="-0.10348">
        <ele>4.4</ele>
        <time>2023-10-15T06:44:58Z</time>
      </trkpt>
      <trkpt lat="49.25373" lon="-0.10346">
        <ele>4.4</ele>
        <time>2023-10-15T06:44:59Z</time>
      </trkpt>
      <trkpt lat="49.25366" lon="-0.10345">
        <ele>4.4</ele>
        <time>2023-10-15T06:45:00Z</time>
      </trkpt>
      <trkpt lat="49.25359" lon="-0.10344">
        <ele>4.4</ele>
        <time>2023-10-15T06:45:01Z</time>
      </trkpt>
      <trkpt lat="49.25351" lon="-0.10343">
        <ele>4.4</ele>
        <time>2023-10-15T06:45:02Z</time>
      </trkpt>
      <trkpt lat="49.25344" lon="-0.10342">
        <ele>4.5</ele>
        <time>2023-10-15T06:45:03Z</time>
      </trkpt>
      <trkpt lat="49.25336" lon="-0.10341">
        <ele>4.5</ele>
        <time>2023-10-15T06:45:04Z</time>
      </trkpt>
      <trkpt lat="49.25328" lon="-0.1034">
        <ele>4.5</ele>
        <time>2023-10-15T06:45:05Z</time>
      </trkpt>
      <trkpt lat="49.25321" lon="-0.10339">
        <ele>4.5</ele>
        <time>2023-10-15T06:45:06Z</time>
      </trkpt>
      <trkpt lat="49.25313" lon="-0.10338">
        <ele>4.5</ele>
        <time>2023-10-15T06:45:07Z</time>
      </trkpt>
      <trkpt lat="49.25305" lon="-0.10337">
        <ele>4.4</ele>
        <time>2023-10-15T06:45:08Z</time>
      </trkpt>
      <trkpt lat="49.25297" lon="-0.10336">
        <ele>4.4</ele>
        <time>2023-10-15T06:45:09Z</time>
      </trkpt>
      <trkpt lat="49.25289" lon="-0.10335">
        <ele>4.4</ele>
        <time>2023-10-15T06:45:10Z</time>
      </trkpt>
      <trkpt lat="49.25281" lon="-0.10335">
        <ele>4.4</ele>
        <time>2023-10-15T06:45:11Z</time>
      </trkpt>
      <trkpt lat="49.25273" lon="-0.10334">
        <ele>4.4</ele>
        <time>2023-10-15T06:45:12Z</time>
      </trkpt>
      <trkpt lat="49.25265" lon="-0.10333">
        <ele>4.3</ele>
        <time>2023-10-15T06:45:13Z</time>
      </trkpt>
      <trkpt lat="49.25257" lon="-0.10332">
        <ele>4.3</ele>
        <time>2023-10-15T06:45:14Z</time>
      </trkpt>
      <trkpt lat="49.25249" lon="-0.10331">
        <ele>4.3</ele>
        <time>2023-10-15T06:45:15Z</time>
      </trkpt>
      <trkpt lat="49.25241" lon="-0.1033">
        <ele>4.2</ele>
        <time>2023-10-15T06:45:16Z</time>
      </trkpt>
      <trkpt lat="49.25233" lon="-0.10329">
        <ele>4.2</ele>
        <time>2023-10-15T06:45:17Z</time>
      </trkpt>
      <trkpt lat="49.25225" lon="-0.10328">
        <ele>4.2</ele>
        <time>2023-10-15T06:45:18Z</time>
      </trkpt>
      <trkpt lat="49.25218" lon="-0.10327">
        <ele>4.2</ele>
        <time>2023-10-15T06:45:19Z</time>
      </trkpt>
      <trkpt lat="49.2521" lon="-0.10326">
        <ele>4.2</ele>
        <time>2023-10-15T06:45:20Z</time>
      </trkpt>
      <trkpt lat="49.25203" lon="-0.10326">
        <ele>4.2</ele>
        <time>2023-10-15T06:45:21Z</time>
      </trkpt>
      <trkpt lat="49.25195" lon="-0.10325">
        <ele>4.2</ele>
        <time>2023-10-15T06:45:22Z</time>
      </trkpt>
      <trkpt lat="49.25187" lon="-0.10324">
        <ele>4.2</ele>
        <time>2023-10-15T06:45:23Z</time>
      </trkpt>
      <trkpt lat="49.2518" lon="-0.10324">
        <ele>4.2</ele>
        <time>2023-10-15T06:45:24Z</time>
      </trkpt>
      <trkpt lat="49.25173" lon="-0.10323">
        <ele>4.2</ele>
        <time>2023-10-15T06:45:25Z</time>
      </trkpt>
      <trkpt lat="49.25165" lon="-0.10321">
        <ele>4.2</ele>
        <time>2023-10-15T06:45:26Z</time>
      </trkpt>
      <trkpt lat="49.25158" lon="-0.1032">
        <ele>4.2</ele>
        <time>2023-10-15T06:45:27Z</time>
      </trkpt>
      <trkpt lat="49.2515" lon="-0.1032">
        <ele>4.2</ele>
        <time>2023-10-15T06:45:28Z</time>
      </trkpt>
      <trkpt lat="49.25142" lon="-0.10319">
        <ele>4.2</ele>
        <time>2023-10-15T06:45:29Z</time>
      </trkpt>
      <trkpt lat="49.25135" lon="-0.10319">
        <ele>4.2</ele>
        <time>2023-10-15T06:45:30Z</time>
      </trkpt>
      <trkpt lat="49.25128" lon="-0.10318">
        <ele>4.2</ele>
        <time>2023-10-15T06:45:31Z</time>
      </trkpt>
      <trkpt lat="49.2512" lon="-0.10317">
        <ele>4.2</ele>
        <time>2023-10-15T06:45:32Z</time>
      </trkpt>
      <trkpt lat="49.25112" lon="-0.10317">
        <ele>4.2</ele>
        <time>2023-10-15T06:45:33Z</time>
      </trkpt>
      <trkpt lat="49.25104" lon="-0.10316">
        <ele>4.2</ele>
        <time>2023-10-15T06:45:34Z</time>
      </trkpt>
      <trkpt lat="49.25096" lon="-0.10316">
        <ele>4.2</ele>
        <time>2023-10-15T06:45:35Z</time>
      </trkpt>
      <trkpt lat="49.25089" lon="-0.10315">
        <ele>4.2</ele>
        <time>2023-10-15T06:45:36Z</time>
      </trkpt>
      <trkpt lat="49.25081" lon="-0.10315">
        <ele>4.2</ele>
        <time>2023-10-15T06:45:37Z</time>
      </trkpt>
      <trkpt lat="49.25074" lon="-0.10315">
        <ele>4.2</ele>
        <time>2023-10-15T06:45:38Z</time>
      </trkpt>
      <trkpt lat="49.25066" lon="-0.10316">
        <ele>4.2</ele>
        <time>2023-10-15T06:45:39Z</time>
      </trkpt>
      <trkpt lat="49.25059" lon="-0.10316">
        <ele>4.2</ele>
        <time>2023-10-15T06:45:40Z</time>
      </trkpt>
      <trkpt lat="49.25051" lon="-0.10316">
        <ele>4.2</ele>
        <time>2023-10-15T06:45:41Z</time>
      </trkpt>
      <trkpt lat="49.25044" lon="-0.10316">
        <ele>4.2</ele>
        <time>2023-10-15T06:45:42Z</time>
      </trkpt>
      <trkpt lat="49.25036" lon="-0.10316">
        <ele>4.2</ele>
        <time>2023-10-15T06:45:43Z</time>
      </trkpt>
      <trkpt lat="49.25028" lon="-0.10317">
        <ele>4.1</ele>
        <time>2023-10-15T06:45:44Z</time>
      </trkpt>
      <trkpt lat="49.2502" lon="-0.10317">
        <ele>4.1</ele>
        <time>2023-10-15T06:45:45Z</time>
      </trkpt>
      <trkpt lat="49.25013" lon="-0.10316">
        <ele>4.1</ele>
        <time>2023-10-15T06:45:46Z</time>
      </trkpt>
      <trkpt lat="49.25006" lon="-0.10317">
        <ele>4.1</ele>
        <time>2023-10-15T06:45:47Z</time>
      </trkpt>
      <trkpt lat="49.24999" lon="-0.10317">
        <ele>4.1</ele>
        <time>2023-10-15T06:45:48Z</time>
      </trkpt>
      <trkpt lat="49.24992" lon="-0.10317">
        <ele>4.1</ele>
        <time>2023-10-15T06:45:49Z</time>
      </trkpt>
      <trkpt lat="49.24985" lon="-0.10317">
        <ele>4.1</ele>
        <time>2023-10-15T06:45:50Z</time>
      </trkpt>
      <trkpt lat="49.24977" lon="-0.10317">
        <ele>4.1</ele>
        <time>2023-10-15T06:45:51Z</time>
      </trkpt>
      <trkpt lat="49.24969" lon="-0.10317">
        <ele>4.1</ele>
        <time>2023-10-15T06:45:52Z</time>
      </trkpt>
      <trkpt lat="49.24962" lon="-0.10317">
        <ele>4.2</ele>
        <time>2023-10-15T06:45:53Z</time>
      </trkpt>
      <trkpt lat="49.24954" lon="-0.10317">
        <ele>4.2</ele>
        <time>2023-10-15T06:45:54Z</time>
      </trkpt>
      <trkpt lat="49.24947" lon="-0.10317">
        <ele>4.2</ele>
        <time>2023-10-15T06:45:55Z</time>
      </trkpt>
      <trkpt lat="49.24939" lon="-0.10318">
        <ele>4.3</ele>
        <time>2023-10-15T06:45:56Z</time>
      </trkpt>
      <trkpt lat="49.24932" lon="-0.10318">
        <ele>4.3</ele>
        <time>2023-10-15T06:45:57Z</time>
      </trkpt>
      <trkpt lat="49.24925" lon="-0.10318">
        <ele>4.3</ele>
        <time>2023-10-15T06:45:58Z</time>
      </trkpt>
      <trkpt lat="49.24917" lon="-0.10318">
        <ele>4.4</ele>
        <time>2023-10-15T06:45:59Z</time>
      </trkpt>
      <trkpt lat="49.2491" lon="-0.10318">
        <ele>4.4</ele>
        <time>2023-10-15T06:46:00Z</time>
      </trkpt>
      <trkpt lat="49.24903" lon="-0.10318">
        <ele>4.4</ele>
        <time>2023-10-15T06:46:01Z</time>
      </trkpt>
      <trkpt lat="49.24896" lon="-0.10318">
        <ele>4.4</ele>
        <time>2023-10-15T06:46:02Z</time>
      </trkpt>
      <trkpt lat="49.24888" lon="-0.10318">
        <ele>4.4</ele>
        <time>2023-10-15T06:46:03Z</time>
      </trkpt>
      <trkpt lat="49.24881" lon="-0.10318">
        <ele>4.4</ele>
        <time>2023-10-15T06:46:04Z</time>
      </trkpt>
      <trkpt lat="49.24873" lon="-0.10318">
        <ele>4.4</ele>
        <time>2023-10-15T06:46:05Z</time>
      </trkpt>
      <trkpt lat="49.24866" lon="-0.10318">
        <ele>4.4</ele>
        <time>2023-10-15T06:46:06Z</time>
      </trkpt>
      <trkpt lat="49.24859" lon="-0.10318">
        <ele>4.4</ele>
        <time>2023-10-15T06:46:07Z</time>
      </trkpt>
      <trkpt lat="49.24851" lon="-0.10319">
        <ele>4.4</ele>
        <time>2023-10-15T06:46:08Z</time>
      </trkpt>
      <trkpt lat="49.24844" lon="-0.10319">
        <ele>4.4</ele>
        <time>2023-10-15T06:46:09Z</time>
      </trkpt>
      <trkpt lat="49.24836" lon="-0.10319">
        <ele>4.4</ele>
        <time>2023-10-15T06:46:10Z</time>
      </trkpt>
      <trkpt lat="49.24829" lon="-0.10319">
        <ele>4.4</ele>
        <time>2023-10-15T06:46:11Z</time>
      </trkpt>
      <trkpt lat="49.24821" lon="-0.10319">
        <ele>4.4</ele>
        <time>2023-10-15T06:46:12Z</time>
      </trkpt>
      <trkpt lat="49.24814" lon="-0.10319">
        <ele>4.4</ele>
        <time>2023-10-15T06:46:13Z</time>
      </trkpt>
      <trkpt lat="49.24806" lon="-0.10319">
        <ele>4.3</ele>
        <time>2023-10-15T06:46:14Z</time>
      </trkpt>
      <trkpt lat="49.24799" lon="-0.10319">
        <ele>4.3</ele>
        <time>2023-10-15T06:46:15Z</time>
      </trkpt>
      <trkpt lat="49.24791" lon="-0.1032">
        <ele>4.3</ele>
        <time>2023-10-15T06:46:16Z</time>
      </trkpt>
      <trkpt lat="49.24784" lon="-0.1032">
        <ele>4.3</ele>
        <time>2023-10-15T06:46:17Z</time>
      </trkpt>
      <trkpt lat="49.24777" lon="-0.10319">
        <ele>4.3</ele>
        <time>2023-10-15T06:46:18Z</time>
      </trkpt>
      <trkpt lat="49.2477" lon="-0.10319">
        <ele>4.2</ele>
        <time>2023-10-15T06:46:19Z</time>
      </trkpt>
      <trkpt lat="49.24762" lon="-0.10319">
        <ele>4.2</ele>
        <time>2023-10-15T06:46:20Z</time>
      </trkpt>
      <trkpt lat="49.24755" lon="-0.10319">
        <ele>4.2</ele>
        <time>2023-10-15T06:46:21Z</time>
      </trkpt>
      <trkpt lat="49.24748" lon="-0.1032">
        <ele>4.2</ele>
        <time>2023-10-15T06:46:22Z</time>
      </trkpt>
      <trkpt lat="49.2474" lon="-0.1032">
        <ele>4.2</ele>
        <time>2023-10-15T06:46:23Z</time>
      </trkpt>
      <trkpt lat="49.24732" lon="-0.1032">
        <ele>4.2</ele>
        <time>2023-10-15T06:46:24Z</time>
      </trkpt>
      <trkpt lat="49.24725" lon="-0.1032">
        <ele>4.2</ele>
        <time>2023-10-15T06:46:25Z</time>
      </trkpt>
      <trkpt lat="49.24718" lon="-0.1032">
        <ele>4.2</ele>
        <time>2023-10-15T06:46:26Z</time>
      </trkpt>
      <trkpt lat="49.2471" lon="-0.1032">
        <ele>4.2</ele>
        <time>2023-10-15T06:46:27Z</time>
      </trkpt>
      <trkpt lat="49.24702" lon="-0.1032">
        <ele>4.2</ele>
        <time>2023-10-15T06:46:28Z</time>
      </trkpt>
      <trkpt lat="49.24694" lon="-0.1032">
        <ele>4.2</ele>
        <time>2023-10-15T06:46:29Z</time>
      </trkpt>
      <trkpt lat="49.24686" lon="-0.1032">
        <ele>4.2</ele>
        <time>2023-10-15T06:46:30Z</time>
      </trkpt>
      <trkpt lat="49.24679" lon="-0.1032">
        <ele>4.2</ele>
        <time>2023-10-15T06:46:31Z</time>
      </trkpt>
      <trkpt lat="49.24672" lon="-0.1032">
        <ele>4.2</ele>
        <time>2023-10-15T06:46:32Z</time>
      </trkpt>
      <trkpt lat="49.24664" lon="-0.10319">
        <ele>4.2</ele>
        <time>2023-10-15T06:46:33Z</time>
      </trkpt>
      <trkpt lat="49.24657" lon="-0.10319">
        <ele>4.2</ele>
        <time>2023-10-15T06:46:34Z</time>
      </trkpt>
      <trkpt lat="49.2465" lon="-0.10318">
        <ele>4.2</ele>
        <time>2023-10-15T06:46:35Z</time>
      </trkpt>
      <trkpt lat="49.24643" lon="-0.10317">
        <ele>4.2</ele>
        <time>2023-10-15T06:46:36Z</time>
      </trkpt>
      <trkpt lat="49.24635" lon="-0.10316">
        <ele>4.2</ele>
        <time>2023-10-15T06:46:37Z</time>
      </trkpt>
      <trkpt lat="49.24628" lon="-0.10315">
        <ele>4.2</ele>
        <time>2023-10-15T06:46:38Z</time>
      </trkpt>
      <trkpt lat="49.2462" lon="-0.10314">
        <ele>4.2</ele>
        <time>2023-10-15T06:46:39Z</time>
      </trkpt>
      <trkpt lat="49.24613" lon="-0.10312">
        <ele>4.2</ele>
        <time>2023-10-15T06:46:40Z</time>
      </trkpt>
      <trkpt lat="49.24605" lon="-0.10311">
        <ele>4.2</ele>
        <time>2023-10-15T06:46:41Z</time>
      </trkpt>
      <trkpt lat="49.24598" lon="-0.1031">
        <ele>4.2</ele>
        <time>2023-10-15T06:46:42Z</time>
      </trkpt>
      <trkpt lat="49.24591" lon="-0.10308">
        <ele>4.3</ele>
        <time>2023-10-15T06:46:43Z</time>
      </trkpt>
      <trkpt lat="49.24584" lon="-0.10306">
        <ele>4.4</ele>
        <time>2023-10-15T06:46:44Z</time>
      </trkpt>
      <trkpt lat="49.24576" lon="-0.10305">
        <ele>4.4</ele>
        <time>2023-10-15T06:46:45Z</time>
      </trkpt>
      <trkpt lat="49.24569" lon="-0.10303">
        <ele>4.5</ele>
        <time>2023-10-15T06:46:46Z</time>
      </trkpt>
      <trkpt lat="49.24562" lon="-0.103">
        <ele>4.5</ele>
        <time>2023-10-15T06:46:47Z</time>
      </trkpt>
      <trkpt lat="49.24555" lon="-0.10298">
        <ele>4.5</ele>
        <time>2023-10-15T06:46:48Z</time>
      </trkpt>
      <trkpt lat="49.24548" lon="-0.10296">
        <ele>4.6</ele>
        <time>2023-10-15T06:46:49Z</time>
      </trkpt>
      <trkpt lat="49.2454" lon="-0.10293">
        <ele>4.6</ele>
        <time>2023-10-15T06:46:50Z</time>
      </trkpt>
      <trkpt lat="49.24533" lon="-0.1029">
        <ele>4.7</ele>
        <time>2023-10-15T06:46:51Z</time>
      </trkpt>
      <trkpt lat="49.24526" lon="-0.10287">
        <ele>4.7</ele>
        <time>2023-10-15T06:46:52Z</time>
      </trkpt>
      <trkpt lat="49.24519" lon="-0.10284">
        <ele>4.7</ele>
        <time>2023-10-15T06:46:53Z</time>
      </trkpt>
      <trkpt lat="49.24512" lon="-0.10282">
        <ele>4.7</ele>
        <time>2023-10-15T06:46:54Z</time>
      </trkpt>
      <trkpt lat="49.24505" lon="-0.10279">
        <ele>4.8</ele>
        <time>2023-10-15T06:46:55Z</time>
      </trkpt>
      <trkpt lat="49.24498" lon="-0.10276">
        <ele>4.8</ele>
        <time>2023-10-15T06:46:56Z</time>
      </trkpt>
      <trkpt lat="49.24491" lon="-0.10273">
        <ele>4.9</ele>
        <time>2023-10-15T06:46:57Z</time>
      </trkpt>
      <trkpt lat="49.24484" lon="-0.10269">
        <ele>5</ele>
        <time>2023-10-15T06:46:58Z</time>
      </trkpt>
      <trkpt lat="49.24477" lon="-0.10266">
        <ele>5.1</ele>
        <time>2023-10-15T06:46:59Z</time>
      </trkpt>
      <trkpt lat="49.2447" lon="-0.10262">
        <ele>5.2</ele>
        <time>2023-10-15T06:47:00Z</time>
      </trkpt>
      <trkpt lat="49.24463" lon="-0.10258">
        <ele>5.4</ele>
        <time>2023-10-15T06:47:01Z</time>
      </trkpt>
      <trkpt lat="49.24456" lon="-0.10254">
        <ele>5.5</ele>
        <time>2023-10-15T06:47:02Z</time>
      </trkpt>
      <trkpt lat="49.24449" lon="-0.1025">
        <ele>5.6</ele>
        <time>2023-10-15T06:47:03Z</time>
      </trkpt>
      <trkpt lat="49.24442" lon="-0.10246">
        <ele>5.8</ele>
        <time>2023-10-15T06:47:04Z</time>
      </trkpt>
      <trkpt lat="49.24435" lon="-0.10242">
        <ele>5.9</ele>
        <time>2023-10-15T06:47:05Z</time>
      </trkpt>
      <trkpt lat="49.24429" lon="-0.10238">
        <ele>6</ele>
        <time>2023-10-15T06:47:06Z</time>
      </trkpt>
      <trkpt lat="49.24422" lon="-0.10234">
        <ele>6.1</ele>
        <time>2023-10-15T06:47:07Z</time>
      </trkpt>
      <trkpt lat="49.24415" lon="-0.1023">
        <ele>6.2</ele>
        <time>2023-10-15T06:47:08Z</time>
      </trkpt>
      <trkpt lat="49.24409" lon="-0.10225">
        <ele>6.3</ele>
        <time>2023-10-15T06:47:09Z</time>
      </trkpt>
      <trkpt lat="49.24403" lon="-0.10221">
        <ele>6.4</ele>
        <time>2023-10-15T06:47:10Z</time>
      </trkpt>
      <trkpt lat="49.24397" lon="-0.10217">
        <ele>6.5</ele>
        <time>2023-10-15T06:47:11Z</time>
      </trkpt>
      <trkpt lat="49.2439" lon="-0.10212">
        <ele>6.5</ele>
        <time>2023-10-15T06:47:12Z</time>
      </trkpt>
      <trkpt lat="49.24384" lon="-0.10207">
        <ele>6.6</ele>
        <time>2023-10-15T06:47:13Z</time>
      </trkpt>
      <trkpt lat="49.24378" lon="-0.10202">
        <ele>6.6</ele>
        <time>2023-10-15T06:47:14Z</time>
      </trkpt>
      <trkpt lat="49.24371" lon="-0.10197">
        <ele>6.7</ele>
        <time>2023-10-15T06:47:15Z</time>
      </trkpt>
      <trkpt lat="49.24365" lon="-0.10192">
        <ele>6.7</ele>
        <time>2023-10-15T06:47:16Z</time>
      </trkpt>
      <trkpt lat="49.24359" lon="-0.10187">
        <ele>6.7</ele>
        <time>2023-10-15T06:47:17Z</time>
      </trkpt>
      <trkpt lat="49.24353" lon="-0.10182">
        <ele>6.8</ele>
        <time>2023-10-15T06:47:18Z</time>
      </trkpt>
      <trkpt lat="49.24346" lon="-0.10176">
        <ele>6.8</ele>
        <time>2023-10-15T06:47:19Z</time>
      </trkpt>
      <trkpt lat="49.2434" lon="-0.1017">
        <ele>6.8</ele>
        <time>2023-10-15T06:47:20Z</time>
      </trkpt>
      <trkpt lat="49.24334" lon="-0.10164">
        <ele>6.8</ele>
        <time>2023-10-15T06:47:21Z</time>
      </trkpt>
      <trkpt lat="49.24328" lon="-0.10159">
        <ele>6.8</ele>
        <time>2023-10-15T06:47:22Z</time>
      </trkpt>
      <trkpt lat="49.24322" lon="-0.10153">
        <ele>6.8</ele>
        <time>2023-10-15T06:47:23Z</time>
      </trkpt>
      <trkpt lat="49.24316" lon="-0.10146">
        <ele>6.7</ele>
        <time>2023-10-15T06:47:24Z</time>
      </trkpt>
      <trkpt lat="49.2431" lon="-0.1014">
        <ele>6.7</ele>
        <time>2023-10-15T06:47:25Z</time>
      </trkpt>
      <trkpt lat="49.24303" lon="-0.10133">
        <ele>6.7</ele>
        <time>2023-10-15T06:47:26Z</time>
      </trkpt>
      <trkpt lat="49.24297" lon="-0.10127">
        <ele>6.6</ele>
        <time>2023-10-15T06:47:27Z</time>
      </trkpt>
      <trkpt lat="49.24291" lon="-0.1012">
        <ele>6.6</ele>
        <time>2023-10-15T06:47:28Z</time>
      </trkpt>
      <trkpt lat="49.24285" lon="-0.10114">
        <ele>6.5</ele>
        <time>2023-10-15T06:47:29Z</time>
      </trkpt>
      <trkpt lat="49.24279" lon="-0.10107">
        <ele>6.4</ele>
        <time>2023-10-15T06:47:30Z</time>
      </trkpt>
      <trkpt lat="49.24273" lon="-0.10101">
        <ele>6.4</ele>
        <time>2023-10-15T06:47:31Z</time>
      </trkpt>
      <trkpt lat="49.24267" lon="-0.10094">
        <ele>6.3</ele>
        <time>2023-10-15T06:47:32Z</time>
      </trkpt>
      <trkpt lat="49.24261" lon="-0.10087">
        <ele>6.2</ele>
        <time>2023-10-15T06:47:33Z</time>
      </trkpt>
      <trkpt lat="49.24255" lon="-0.10081">
        <ele>6.1</ele>
        <time>2023-10-15T06:47:34Z</time>
      </trkpt>
      <trkpt lat="49.24248" lon="-0.10073">
        <ele>6</ele>
        <time>2023-10-15T06:47:35Z</time>
      </trkpt>
      <trkpt lat="49.24242" lon="-0.10066">
        <ele>5.9</ele>
        <time>2023-10-15T06:47:36Z</time>
      </trkpt>
      <trkpt lat="49.24236" lon="-0.10058">
        <ele>5.9</ele>
        <time>2023-10-15T06:47:37Z</time>
      </trkpt>
      <trkpt lat="49.24229" lon="-0.10051">
        <ele>5.7</ele>
        <time>2023-10-15T06:47:38Z</time>
      </trkpt>
      <trkpt lat="49.24223" lon="-0.10044">
        <ele>5.6</ele>
        <time>2023-10-15T06:47:39Z</time>
      </trkpt>
      <trkpt lat="49.24217" lon="-0.10037">
        <ele>5.5</ele>
        <time>2023-10-15T06:47:40Z</time>
      </trkpt>
      <trkpt lat="49.24211" lon="-0.10029">
        <ele>5.4</ele>
        <time>2023-10-15T06:47:41Z</time>
      </trkpt>
      <trkpt lat="49.24204" lon="-0.10022">
        <ele>5.3</ele>
        <time>2023-10-15T06:47:42Z</time>
      </trkpt>
      <trkpt lat="49.24198" lon="-0.10014">
        <ele>5.2</ele>
        <time>2023-10-15T06:47:43Z</time>
      </trkpt>
      <trkpt lat="49.24192" lon="-0.10007">
        <ele>5.2</ele>
        <time>2023-10-15T06:47:44Z</time>
      </trkpt>
      <trkpt lat="49.24186" lon="-0.1">
        <ele>5.1</ele>
        <time>2023-10-15T06:47:45Z</time>
      </trkpt>
      <trkpt lat="49.2418" lon="-0.09993">
        <ele>5</ele>
        <time>2023-10-15T06:47:46Z</time>
      </trkpt>
      <trkpt lat="49.24174" lon="-0.09986">
        <ele>5</ele>
        <time>2023-10-15T06:47:47Z</time>
      </trkpt>
      <trkpt lat="49.24168" lon="-0.09978">
        <ele>4.9</ele>
        <time>2023-10-15T06:47:48Z</time>
      </trkpt>
      <trkpt lat="49.24162" lon="-0.09971">
        <ele>4.8</ele>
        <time>2023-10-15T06:47:49Z</time>
      </trkpt>
      <trkpt lat="49.24156" lon="-0.09964">
        <ele>4.7</ele>
        <time>2023-10-15T06:47:50Z</time>
      </trkpt>
      <trkpt lat="49.2415" lon="-0.09956">
        <ele>4.7</ele>
        <time>2023-10-15T06:47:51Z</time>
      </trkpt>
      <trkpt lat="49.24144" lon="-0.09949">
        <ele>4.6</ele>
        <time>2023-10-15T06:47:52Z</time>
      </trkpt>
      <trkpt lat="49.24137" lon="-0.09941">
        <ele>4.6</ele>
        <time>2023-10-15T06:47:53Z</time>
      </trkpt>
      <trkpt lat="49.24132" lon="-0.09934">
        <ele>4.6</ele>
        <time>2023-10-15T06:47:54Z</time>
      </trkpt>
      <trkpt lat="49.24126" lon="-0.09926">
        <ele>4.6</ele>
        <time>2023-10-15T06:47:55Z</time>
      </trkpt>
      <trkpt lat="49.2412" lon="-0.09919">
        <ele>4.6</ele>
        <time>2023-10-15T06:47:56Z</time>
      </trkpt>
      <trkpt lat="49.24114" lon="-0.09912">
        <ele>4.6</ele>
        <time>2023-10-15T06:47:57Z</time>
      </trkpt>
      <trkpt lat="49.24108" lon="-0.09905">
        <ele>4.6</ele>
        <time>2023-10-15T06:47:58Z</time>
      </trkpt>
      <trkpt lat="49.24102" lon="-0.09898">
        <ele>4.6</ele>
        <time>2023-10-15T06:47:59Z</time>
      </trkpt>
      <trkpt lat="49.24095" lon="-0.0989">
        <ele>4.6</ele>
        <time>2023-10-15T06:48:00Z</time>
      </trkpt>
      <trkpt lat="49.24089" lon="-0.09883">
        <ele>4.6</ele>
        <time>2023-10-15T06:48:01Z</time>
      </trkpt>
      <trkpt lat="49.24083" lon="-0.09876">
        <ele>4.6</ele>
        <time>2023-10-15T06:48:02Z</time>
      </trkpt>
      <trkpt lat="49.24077" lon="-0.09869">
        <ele>4.6</ele>
        <time>2023-10-15T06:48:03Z</time>
      </trkpt>
      <trkpt lat="49.24071" lon="-0.09862">
        <ele>4.6</ele>
        <time>2023-10-15T06:48:04Z</time>
      </trkpt>
      <trkpt lat="49.24065" lon="-0.09854">
        <ele>4.6</ele>
        <time>2023-10-15T06:48:05Z</time>
      </trkpt>
      <trkpt lat="49.24059" lon="-0.09847">
        <ele>4.7</ele>
        <time>2023-10-15T06:48:06Z</time>
      </trkpt>
      <trkpt lat="49.24053" lon="-0.0984">
        <ele>4.7</ele>
        <time>2023-10-15T06:48:07Z</time>
      </trkpt>
      <trkpt lat="49.24047" lon="-0.09832">
        <ele>4.7</ele>
        <time>2023-10-15T06:48:08Z</time>
      </trkpt>
      <trkpt lat="49.24041" lon="-0.09825">
        <ele>4.7</ele>
        <time>2023-10-15T06:48:09Z</time>
      </trkpt>
      <trkpt lat="49.24035" lon="-0.09817">
        <ele>4.7</ele>
        <time>2023-10-15T06:48:10Z</time>
      </trkpt>
      <trkpt lat="49.24029" lon="-0.0981">
        <ele>4.7</ele>
        <time>2023-10-15T06:48:11Z</time>
      </trkpt>
      <trkpt lat="49.24023" lon="-0.09802">
        <ele>4.7</ele>
        <time>2023-10-15T06:48:12Z</time>
      </trkpt>
      <trkpt lat="49.24016" lon="-0.09795">
        <ele>4.7</ele>
        <time>2023-10-15T06:48:13Z</time>
      </trkpt>
      <trkpt lat="49.2401" lon="-0.09788">
        <ele>4.7</ele>
        <time>2023-10-15T06:48:14Z</time>
      </trkpt>
      <trkpt lat="49.24004" lon="-0.0978">
        <ele>4.7</ele>
        <time>2023-10-15T06:48:15Z</time>
      </trkpt>
      <trkpt lat="49.23997" lon="-0.09773">
        <ele>4.7</ele>
        <time>2023-10-15T06:48:16Z</time>
      </trkpt>
      <trkpt lat="49.23991" lon="-0.09766">
        <ele>4.7</ele>
        <time>2023-10-15T06:48:17Z</time>
      </trkpt>
      <trkpt lat="49.23985" lon="-0.09758">
        <ele>4.7</ele>
        <time>2023-10-15T06:48:18Z</time>
      </trkpt>
      <trkpt lat="49.23979" lon="-0.09751">
        <ele>4.7</ele>
        <time>2023-10-15T06:48:19Z</time>
      </trkpt>
      <trkpt lat="49.23973" lon="-0.09743">
        <ele>4.7</ele>
        <time>2023-10-15T06:48:20Z</time>
      </trkpt>
      <trkpt lat="49.23966" lon="-0.09735">
        <ele>4.8</ele>
        <time>2023-10-15T06:48:21Z</time>
      </trkpt>
      <trkpt lat="49.2396" lon="-0.09727">
        <ele>4.8</ele>
        <time>2023-10-15T06:48:22Z</time>
      </trkpt>
      <trkpt lat="49.23954" lon="-0.0972">
        <ele>4.8</ele>
        <time>2023-10-15T06:48:23Z</time>
      </trkpt>
      <trkpt lat="49.23949" lon="-0.09712">
        <ele>4.8</ele>
        <time>2023-10-15T06:48:24Z</time>
      </trkpt>
      <trkpt lat="49.23943" lon="-0.09705">
        <ele>4.8</ele>
        <time>2023-10-15T06:48:25Z</time>
      </trkpt>
      <trkpt lat="49.23936" lon="-0.09697">
        <ele>4.8</ele>
        <time>2023-10-15T06:48:26Z</time>
      </trkpt>
      <trkpt lat="49.2393" lon="-0.0969">
        <ele>4.8</ele>
        <time>2023-10-15T06:48:27Z</time>
      </trkpt>
      <trkpt lat="49.23924" lon="-0.09683">
        <ele>4.8</ele>
        <time>2023-10-15T06:48:28Z</time>
      </trkpt>
      <trkpt lat="49.23918" lon="-0.09676">
        <ele>4.8</ele>
        <time>2023-10-15T06:48:29Z</time>
      </trkpt>
      <trkpt lat="49.23912" lon="-0.09668">
        <ele>4.7</ele>
        <time>2023-10-15T06:48:30Z</time>
      </trkpt>
      <trkpt lat="49.23905" lon="-0.09661">
        <ele>4.7</ele>
        <time>2023-10-15T06:48:31Z</time>
      </trkpt>
      <trkpt lat="49.23899" lon="-0.09653">
        <ele>4.7</ele>
        <time>2023-10-15T06:48:32Z</time>
      </trkpt>
      <trkpt lat="49.23893" lon="-0.09645">
        <ele>4.6</ele>
        <time>2023-10-15T06:48:33Z</time>
      </trkpt>
      <trkpt lat="49.23887" lon="-0.09638">
        <ele>4.6</ele>
        <time>2023-10-15T06:48:34Z</time>
      </trkpt>
      <trkpt lat="49.23881" lon="-0.0963">
        <ele>4.6</ele>
        <time>2023-10-15T06:48:35Z</time>
      </trkpt>
      <trkpt lat="49.23874" lon="-0.09623">
        <ele>4.6</ele>
        <time>2023-10-15T06:48:36Z</time>
      </trkpt>
      <trkpt lat="49.23868" lon="-0.09616">
        <ele>4.6</ele>
        <time>2023-10-15T06:48:37Z</time>
      </trkpt>
      <trkpt lat="49.23862" lon="-0.09608">
        <ele>4.6</ele>
        <time>2023-10-15T06:48:38Z</time>
      </trkpt>
      <trkpt lat="49.23856" lon="-0.09601">
        <ele>4.6</ele>
        <time>2023-10-15T06:48:39Z</time>
      </trkpt>
      <trkpt lat="49.23849" lon="-0.09594">
        <ele>4.6</ele>
        <time>2023-10-15T06:48:40Z</time>
      </trkpt>
      <trkpt lat="49.23843" lon="-0.09586">
        <ele>4.6</ele>
        <time>2023-10-15T06:48:41Z</time>
      </trkpt>
      <trkpt lat="49.23837" lon="-0.09579">
        <ele>4.5</ele>
        <time>2023-10-15T06:48:42Z</time>
      </trkpt>
      <trkpt lat="49.23831" lon="-0.09571">
        <ele>4.5</ele>
        <time>2023-10-15T06:48:43Z</time>
      </trkpt>
      <trkpt lat="49.23824" lon="-0.09564">
        <ele>4.5</ele>
        <time>2023-10-15T06:48:44Z</time>
      </trkpt>
      <trkpt lat="49.23819" lon="-0.09556">
        <ele>4.5</ele>
        <time>2023-10-15T06:48:45Z</time>
      </trkpt>
      <trkpt lat="49.23812" lon="-0.09548">
        <ele>4.5</ele>
        <time>2023-10-15T06:48:46Z</time>
      </trkpt>
      <trkpt lat="49.23806" lon="-0.0954">
        <ele>4.5</ele>
        <time>2023-10-15T06:48:47Z</time>
      </trkpt>
      <trkpt lat="49.238" lon="-0.09533">
        <ele>4.5</ele>
        <time>2023-10-15T06:48:48Z</time>
      </trkpt>
      <trkpt lat="49.23794" lon="-0.09526">
        <ele>4.5</ele>
        <time>2023-10-15T06:48:49Z</time>
      </trkpt>
      <trkpt lat="49.23788" lon="-0.09518">
        <ele>4.5</ele>
        <time>2023-10-15T06:48:50Z</time>
      </trkpt>
      <trkpt lat="49.23781" lon="-0.09511">
        <ele>4.4</ele>
        <time>2023-10-15T06:48:51Z</time>
      </trkpt>
      <trkpt lat="49.23775" lon="-0.09503">
        <ele>4.4</ele>
        <time>2023-10-15T06:48:52Z</time>
      </trkpt>
      <trkpt lat="49.23769" lon="-0.09496">
        <ele>4.3</ele>
        <time>2023-10-15T06:48:53Z</time>
      </trkpt>
      <trkpt lat="49.23763" lon="-0.09488">
        <ele>4.3</ele>
        <time>2023-10-15T06:48:54Z</time>
      </trkpt>
      <trkpt lat="49.23756" lon="-0.0948">
        <ele>4.3</ele>
        <time>2023-10-15T06:48:55Z</time>
      </trkpt>
      <trkpt lat="49.2375" lon="-0.09473">
        <ele>4.3</ele>
        <time>2023-10-15T06:48:56Z</time>
      </trkpt>
      <trkpt lat="49.23744" lon="-0.09465">
        <ele>4.3</ele>
        <time>2023-10-15T06:48:57Z</time>
      </trkpt>
      <trkpt lat="49.23738" lon="-0.09458">
        <ele>4.3</ele>
        <time>2023-10-15T06:48:58Z</time>
      </trkpt>
      <trkpt lat="49.23732" lon="-0.0945">
        <ele>4.3</ele>
        <time>2023-10-15T06:48:59Z</time>
      </trkpt>
      <trkpt lat="49.23726" lon="-0.09443">
        <ele>4.3</ele>
        <time>2023-10-15T06:49:00Z</time>
      </trkpt>
      <trkpt lat="49.23719" lon="-0.09436">
        <ele>4.2</ele>
        <time>2023-10-15T06:49:01Z</time>
      </trkpt>
      <trkpt lat="49.23713" lon="-0.09428">
        <ele>4.2</ele>
        <time>2023-10-15T06:49:02Z</time>
      </trkpt>
      <trkpt lat="49.23707" lon="-0.09421">
        <ele>4.2</ele>
        <time>2023-10-15T06:49:03Z</time>
      </trkpt>
      <trkpt lat="49.23701" lon="-0.09413">
        <ele>4.2</ele>
        <time>2023-10-15T06:49:04Z</time>
      </trkpt>
      <trkpt lat="49.23695" lon="-0.09406">
        <ele>4.2</ele>
        <time>2023-10-15T06:49:05Z</time>
      </trkpt>
      <trkpt lat="49.23689" lon="-0.09399">
        <ele>4.2</ele>
        <time>2023-10-15T06:49:06Z</time>
      </trkpt>
      <trkpt lat="49.23683" lon="-0.09391">
        <ele>4.2</ele>
        <time>2023-10-15T06:49:07Z</time>
      </trkpt>
      <trkpt lat="49.23677" lon="-0.09384">
        <ele>4.2</ele>
        <time>2023-10-15T06:49:08Z</time>
      </trkpt>
      <trkpt lat="49.23671" lon="-0.09377">
        <ele>4.2</ele>
        <time>2023-10-15T06:49:09Z</time>
      </trkpt>
      <trkpt lat="49.23664" lon="-0.09369">
        <ele>4.1</ele>
        <time>2023-10-15T06:49:10Z</time>
      </trkpt>
      <trkpt lat="49.23658" lon="-0.09362">
        <ele>4.1</ele>
        <time>2023-10-15T06:49:11Z</time>
      </trkpt>
      <trkpt lat="49.23652" lon="-0.09354">
        <ele>4.1</ele>
        <time>2023-10-15T06:49:12Z</time>
      </trkpt>
      <trkpt lat="49.23646" lon="-0.09347">
        <ele>4.1</ele>
        <time>2023-10-15T06:49:13Z</time>
      </trkpt>
      <trkpt lat="49.2364" lon="-0.0934">
        <ele>4.1</ele>
        <time>2023-10-15T06:49:14Z</time>
      </trkpt>
      <trkpt lat="49.23634" lon="-0.09332">
        <ele>4.1</ele>
        <time>2023-10-15T06:49:15Z</time>
      </trkpt>
      <trkpt lat="49.23628" lon="-0.09325">
        <ele>4.1</ele>
        <time>2023-10-15T06:49:16Z</time>
      </trkpt>
      <trkpt lat="49.23622" lon="-0.09318">
        <ele>4.1</ele>
        <time>2023-10-15T06:49:17Z</time>
      </trkpt>
      <trkpt lat="49.23616" lon="-0.0931">
        <ele>4.1</ele>
        <time>2023-10-15T06:49:18Z</time>
      </trkpt>
      <trkpt lat="49.2361" lon="-0.09303">
        <ele>4</ele>
        <time>2023-10-15T06:49:19Z</time>
      </trkpt>
      <trkpt lat="49.23604" lon="-0.09296">
        <ele>4</ele>
        <time>2023-10-15T06:49:20Z</time>
      </trkpt>
      <trkpt lat="49.23598" lon="-0.09288">
        <ele>4</ele>
        <time>2023-10-15T06:49:21Z</time>
      </trkpt>
      <trkpt lat="49.23592" lon="-0.09281">
        <ele>4</ele>
        <time>2023-10-15T06:49:22Z</time>
      </trkpt>
      <trkpt lat="49.23586" lon="-0.09273">
        <ele>4.1</ele>
        <time>2023-10-15T06:49:23Z</time>
      </trkpt>
      <trkpt lat="49.2358" lon="-0.09266">
        <ele>4.1</ele>
        <time>2023-10-15T06:49:24Z</time>
      </trkpt>
      <trkpt lat="49.23573" lon="-0.09259">
        <ele>4.1</ele>
        <time>2023-10-15T06:49:25Z</time>
      </trkpt>
      <trkpt lat="49.23567" lon="-0.09252">
        <ele>4.1</ele>
        <time>2023-10-15T06:49:26Z</time>
      </trkpt>
      <trkpt lat="49.23562" lon="-0.09245">
        <ele>4.2</ele>
        <time>2023-10-15T06:49:27Z</time>
      </trkpt>
      <trkpt lat="49.23556" lon="-0.09238">
        <ele>4.2</ele>
        <time>2023-10-15T06:49:28Z</time>
      </trkpt>
      <trkpt lat="49.2355" lon="-0.09231">
        <ele>4.2</ele>
        <time>2023-10-15T06:49:29Z</time>
      </trkpt>
      <trkpt lat="49.23544" lon="-0.09223">
        <ele>4.2</ele>
        <time>2023-10-15T06:49:30Z</time>
      </trkpt>
      <trkpt lat="49.23538" lon="-0.09216">
        <ele>4.2</ele>
        <time>2023-10-15T06:49:31Z</time>
      </trkpt>
      <trkpt lat="49.23532" lon="-0.09209">
        <ele>4.2</ele>
        <time>2023-10-15T06:49:32Z</time>
      </trkpt>
      <trkpt lat="49.23526" lon="-0.09202">
        <ele>4.2</ele>
        <time>2023-10-15T06:49:33Z</time>
      </trkpt>
      <trkpt lat="49.2352" lon="-0.09195">
        <ele>4.2</ele>
        <time>2023-10-15T06:49:34Z</time>
      </trkpt>
      <trkpt lat="49.23514" lon="-0.09187">
        <ele>4.2</ele>
        <time>2023-10-15T06:49:35Z</time>
      </trkpt>
      <trkpt lat="49.23508" lon="-0.0918">
        <ele>4.2</ele>
        <time>2023-10-15T06:49:36Z</time>
      </trkpt>
      <trkpt lat="49.23502" lon="-0.09173">
        <ele>4.2</ele>
        <time>2023-10-15T06:49:37Z</time>
      </trkpt>
      <trkpt lat="49.23496" lon="-0.09166">
        <ele>4.2</ele>
        <time>2023-10-15T06:49:38Z</time>
      </trkpt>
      <trkpt lat="49.2349" lon="-0.09159">
        <ele>4.2</ele>
        <time>2023-10-15T06:49:39Z</time>
      </trkpt>
      <trkpt lat="49.23485" lon="-0.09152">
        <ele>4.3</ele>
        <time>2023-10-15T06:49:40Z</time>
      </trkpt>
      <trkpt lat="49.23479" lon="-0.09145">
        <ele>4.3</ele>
        <time>2023-10-15T06:49:41Z</time>
      </trkpt>
      <trkpt lat="49.23473" lon="-0.09138">
        <ele>4.3</ele>
        <time>2023-10-15T06:49:42Z</time>
      </trkpt>
      <trkpt lat="49.23467" lon="-0.0913">
        <ele>4.3</ele>
        <time>2023-10-15T06:49:43Z</time>
      </trkpt>
      <trkpt lat="49.23461" lon="-0.09124">
        <ele>4.3</ele>
        <time>2023-10-15T06:49:44Z</time>
      </trkpt>
      <trkpt lat="49.23455" lon="-0.09116">
        <ele>4.3</ele>
        <time>2023-10-15T06:49:45Z</time>
      </trkpt>
      <trkpt lat="49.23449" lon="-0.09109">
        <ele>4.3</ele>
        <time>2023-10-15T06:49:46Z</time>
      </trkpt>
      <trkpt lat="49.23443" lon="-0.09102">
        <ele>4.3</ele>
        <time>2023-10-15T06:49:47Z</time>
      </trkpt>
      <trkpt lat="49.23437" lon="-0.09095">
        <ele>4.3</ele>
        <time>2023-10-15T06:49:48Z</time>
      </trkpt>
      <trkpt lat="49.23431" lon="-0.09088">
        <ele>4.2</ele>
        <time>2023-10-15T06:49:49Z</time>
      </trkpt>
      <trkpt lat="49.23425" lon="-0.0908">
        <ele>4.2</ele>
        <time>2023-10-15T06:49:50Z</time>
      </trkpt>
      <trkpt lat="49.2342" lon="-0.09073">
        <ele>4.2</ele>
        <time>2023-10-15T06:49:51Z</time>
      </trkpt>
      <trkpt lat="49.23414" lon="-0.09066">
        <ele>4.2</ele>
        <time>2023-10-15T06:49:52Z</time>
      </trkpt>
      <trkpt lat="49.23408" lon="-0.09059">
        <ele>4.2</ele>
        <time>2023-10-15T06:49:53Z</time>
      </trkpt>
      <trkpt lat="49.23402" lon="-0.09052">
        <ele>4.2</ele>
        <time>2023-10-15T06:49:54Z</time>
      </trkpt>
      <trkpt lat="49.23396" lon="-0.09045">
        <ele>4.2</ele>
        <time>2023-10-15T06:49:55Z</time>
      </trkpt>
      <trkpt lat="49.2339" lon="-0.09038">
        <ele>4.1</ele>
        <time>2023-10-15T06:49:56Z</time>
      </trkpt>
      <trkpt lat="49.23384" lon="-0.09032">
        <ele>4.1</ele>
        <time>2023-10-15T06:49:57Z</time>
      </trkpt>
      <trkpt lat="49.23378" lon="-0.09024">
        <ele>4.1</ele>
        <time>2023-10-15T06:49:58Z</time>
      </trkpt>
      <trkpt lat="49.23372" lon="-0.09017">
        <ele>4.1</ele>
        <time>2023-10-15T06:49:59Z</time>
      </trkpt>
      <trkpt lat="49.23366" lon="-0.0901">
        <ele>4.1</ele>
        <time>2023-10-15T06:50:00Z</time>
      </trkpt>
      <trkpt lat="49.2336" lon="-0.09003">
        <ele>4.1</ele>
        <time>2023-10-15T06:50:01Z</time>
      </trkpt>
      <trkpt lat="49.23354" lon="-0.08995">
        <ele>4.1</ele>
        <time>2023-10-15T06:50:02Z</time>
      </trkpt>
      <trkpt lat="49.23348" lon="-0.08988">
        <ele>4.1</ele>
        <time>2023-10-15T06:50:03Z</time>
      </trkpt>
      <trkpt lat="49.23342" lon="-0.08982">
        <ele>4.1</ele>
        <time>2023-10-15T06:50:04Z</time>
      </trkpt>
      <trkpt lat="49.23337" lon="-0.08975">
        <ele>4.1</ele>
        <time>2023-10-15T06:50:05Z</time>
      </trkpt>
      <trkpt lat="49.2333" lon="-0.08967">
        <ele>4.1</ele>
        <time>2023-10-15T06:50:06Z</time>
      </trkpt>
      <trkpt lat="49.23325" lon="-0.0896">
        <ele>4.1</ele>
        <time>2023-10-15T06:50:07Z</time>
      </trkpt>
      <trkpt lat="49.23319" lon="-0.08953">
        <ele>4.1</ele>
        <time>2023-10-15T06:50:08Z</time>
      </trkpt>
      <trkpt lat="49.23313" lon="-0.08946">
        <ele>4.1</ele>
        <time>2023-10-15T06:50:09Z</time>
      </trkpt>
      <trkpt lat="49.23307" lon="-0.0894">
        <ele>4.1</ele>
        <time>2023-10-15T06:50:10Z</time>
      </trkpt>
      <trkpt lat="49.23301" lon="-0.08933">
        <ele>4.2</ele>
        <time>2023-10-15T06:50:11Z</time>
      </trkpt>
      <trkpt lat="49.23295" lon="-0.08925">
        <ele>4.2</ele>
        <time>2023-10-15T06:50:12Z</time>
      </trkpt>
      <trkpt lat="49.23289" lon="-0.08918">
        <ele>4.2</ele>
        <time>2023-10-15T06:50:13Z</time>
      </trkpt>
      <trkpt lat="49.23283" lon="-0.08911">
        <ele>4.2</ele>
        <time>2023-10-15T06:50:14Z</time>
      </trkpt>
      <trkpt lat="49.23277" lon="-0.08904">
        <ele>4.2</ele>
        <time>2023-10-15T06:50:15Z</time>
      </trkpt>
      <trkpt lat="49.2327" lon="-0.08897">
        <ele>4.3</ele>
        <time>2023-10-15T06:50:16Z</time>
      </trkpt>
      <trkpt lat="49.23265" lon="-0.0889">
        <ele>4.4</ele>
        <time>2023-10-15T06:50:17Z</time>
      </trkpt>
      <trkpt lat="49.23258" lon="-0.08883">
        <ele>4.4</ele>
        <time>2023-10-15T06:50:18Z</time>
      </trkpt>
      <trkpt lat="49.23252" lon="-0.08876">
        <ele>4.5</ele>
        <time>2023-10-15T06:50:19Z</time>
      </trkpt>
      <trkpt lat="49.23246" lon="-0.08869">
        <ele>4.5</ele>
        <time>2023-10-15T06:50:20Z</time>
      </trkpt>
      <trkpt lat="49.23239" lon="-0.08862">
        <ele>4.5</ele>
        <time>2023-10-15T06:50:21Z</time>
      </trkpt>
      <trkpt lat="49.23233" lon="-0.08856">
        <ele>4.6</ele>
        <time>2023-10-15T06:50:22Z</time>
      </trkpt>
      <trkpt lat="49.23227" lon="-0.08849">
        <ele>4.6</ele>
        <time>2023-10-15T06:50:23Z</time>
      </trkpt>
      <trkpt lat="49.2322" lon="-0.08842">
        <ele>4.6</ele>
        <time>2023-10-15T06:50:24Z</time>
      </trkpt>
      <trkpt lat="49.23214" lon="-0.08836">
        <ele>4.6</ele>
        <time>2023-10-15T06:50:25Z</time>
      </trkpt>
      <trkpt lat="49.23208" lon="-0.08829">
        <ele>4.6</ele>
        <time>2023-10-15T06:50:26Z</time>
      </trkpt>
      <trkpt lat="49.23201" lon="-0.08823">
        <ele>4.7</ele>
        <time>2023-10-15T06:50:27Z</time>
      </trkpt>
      <trkpt lat="49.23195" lon="-0.08816">
        <ele>4.7</ele>
        <time>2023-10-15T06:50:28Z</time>
      </trkpt>
      <trkpt lat="49.23189" lon="-0.0881">
        <ele>4.7</ele>
        <time>2023-10-15T06:50:29Z</time>
      </trkpt>
      <trkpt lat="49.23182" lon="-0.08803">
        <ele>4.7</ele>
        <time>2023-10-15T06:50:30Z</time>
      </trkpt>
      <trkpt lat="49.23176" lon="-0.08796">
        <ele>4.7</ele>
        <time>2023-10-15T06:50:31Z</time>
      </trkpt>
      <trkpt lat="49.2317" lon="-0.0879">
        <ele>4.8</ele>
        <time>2023-10-15T06:50:32Z</time>
      </trkpt>
      <trkpt lat="49.23163" lon="-0.08783">
        <ele>4.8</ele>
        <time>2023-10-15T06:50:33Z</time>
      </trkpt>
      <trkpt lat="49.23157" lon="-0.08776">
        <ele>4.8</ele>
        <time>2023-10-15T06:50:34Z</time>
      </trkpt>
      <trkpt lat="49.23151" lon="-0.08769">
        <ele>4.8</ele>
        <time>2023-10-15T06:50:35Z</time>
      </trkpt>
      <trkpt lat="49.23145" lon="-0.08761">
        <ele>4.9</ele>
        <time>2023-10-15T06:50:36Z</time>
      </trkpt>
      <trkpt lat="49.23139" lon="-0.08755">
        <ele>4.9</ele>
        <time>2023-10-15T06:50:37Z</time>
      </trkpt>
      <trkpt lat="49.23133" lon="-0.08748">
        <ele>4.8</ele>
        <time>2023-10-15T06:50:38Z</time>
      </trkpt>
      <trkpt lat="49.23126" lon="-0.08741">
        <ele>4.8</ele>
        <time>2023-10-15T06:50:39Z</time>
      </trkpt>
      <trkpt lat="49.2312" lon="-0.08735">
        <ele>4.9</ele>
        <time>2023-10-15T06:50:40Z</time>
      </trkpt>
      <trkpt lat="49.23114" lon="-0.08728">
        <ele>4.9</ele>
        <time>2023-10-15T06:50:41Z</time>
      </trkpt>
      <trkpt lat="49.23108" lon="-0.08721">
        <ele>4.9</ele>
        <time>2023-10-15T06:50:42Z</time>
      </trkpt>
      <trkpt lat="49.23102" lon="-0.08714">
        <ele>4.9</ele>
        <time>2023-10-15T06:50:43Z</time>
      </trkpt>
      <trkpt lat="49.23096" lon="-0.08708">
        <ele>5</ele>
        <time>2023-10-15T06:50:44Z</time>
      </trkpt>
      <trkpt lat="49.2309" lon="-0.08701">
        <ele>5</ele>
        <time>2023-10-15T06:50:45Z</time>
      </trkpt>
      <trkpt lat="49.23084" lon="-0.08694">
        <ele>5.1</ele>
        <time>2023-10-15T06:50:46Z</time>
      </trkpt>
      <trkpt lat="49.23079" lon="-0.08687">
        <ele>5.1</ele>
        <time>2023-10-15T06:50:47Z</time>
      </trkpt>
      <trkpt lat="49.23073" lon="-0.0868">
        <ele>5.1</ele>
        <time>2023-10-15T06:50:48Z</time>
      </trkpt>
      <trkpt lat="49.23067" lon="-0.08672">
        <ele>5.2</ele>
        <time>2023-10-15T06:50:49Z</time>
      </trkpt>
      <trkpt lat="49.23061" lon="-0.08665">
        <ele>5.2</ele>
        <time>2023-10-15T06:50:50Z</time>
      </trkpt>
      <trkpt lat="49.23055" lon="-0.08658">
        <ele>5.3</ele>
        <time>2023-10-15T06:50:51Z</time>
      </trkpt>
      <trkpt lat="49.23049" lon="-0.08651">
        <ele>5.3</ele>
        <time>2023-10-15T06:50:52Z</time>
      </trkpt>
      <trkpt lat="49.23044" lon="-0.08644">
        <ele>5.4</ele>
        <time>2023-10-15T06:50:53Z</time>
      </trkpt>
      <trkpt lat="49.23038" lon="-0.08638">
        <ele>5.5</ele>
        <time>2023-10-15T06:50:54Z</time>
      </trkpt>
      <trkpt lat="49.23032" lon="-0.08631">
        <ele>5.7</ele>
        <time>2023-10-15T06:50:55Z</time>
      </trkpt>
      <trkpt lat="49.23027" lon="-0.08624">
        <ele>5.9</ele>
        <time>2023-10-15T06:50:56Z</time>
      </trkpt>
      <trkpt lat="49.23021" lon="-0.08618">
        <ele>6.1</ele>
        <time>2023-10-15T06:50:57Z</time>
      </trkpt>
      <trkpt lat="49.23015" lon="-0.08611">
        <ele>6.2</ele>
        <time>2023-10-15T06:50:58Z</time>
      </trkpt>
      <trkpt lat="49.2301" lon="-0.08605">
        <ele>6.4</ele>
        <time>2023-10-15T06:50:59Z</time>
      </trkpt>
      <trkpt lat="49.23004" lon="-0.08598">
        <ele>6.6</ele>
        <time>2023-10-15T06:51:00Z</time>
      </trkpt>
      <trkpt lat="49.22998" lon="-0.08592">
        <ele>6.8</ele>
        <time>2023-10-15T06:51:01Z</time>
      </trkpt>
      <trkpt lat="49.22993" lon="-0.08586">
        <ele>7</ele>
        <time>2023-10-15T06:51:02Z</time>
      </trkpt>
      <trkpt lat="49.22987" lon="-0.0858">
        <ele>7.2</ele>
        <time>2023-10-15T06:51:03Z</time>
      </trkpt>
      <trkpt lat="49.22982" lon="-0.08574">
        <ele>7.4</ele>
        <time>2023-10-15T06:51:04Z</time>
      </trkpt>
      <trkpt lat="49.22976" lon="-0.08567">
        <ele>7.6</ele>
        <time>2023-10-15T06:51:05Z</time>
      </trkpt>
      <trkpt lat="49.22971" lon="-0.08561">
        <ele>7.8</ele>
        <time>2023-10-15T06:51:06Z</time>
      </trkpt>
      <trkpt lat="49.22965" lon="-0.08555">
        <ele>8</ele>
        <time>2023-10-15T06:51:07Z</time>
      </trkpt>
      <trkpt lat="49.22959" lon="-0.08549">
        <ele>8.2</ele>
        <time>2023-10-15T06:51:08Z</time>
      </trkpt>
      <trkpt lat="49.22954" lon="-0.08543">
        <ele>8.3</ele>
        <time>2023-10-15T06:51:09Z</time>
      </trkpt>
      <trkpt lat="49.22948" lon="-0.08537">
        <ele>8.5</ele>
        <time>2023-10-15T06:51:10Z</time>
      </trkpt>
      <trkpt lat="49.22943" lon="-0.08531">
        <ele>8.7</ele>
        <time>2023-10-15T06:51:11Z</time>
      </trkpt>
      <trkpt lat="49.22937" lon="-0.08525">
        <ele>8.9</ele>
        <time>2023-10-15T06:51:12Z</time>
      </trkpt>
      <trkpt lat="49.22932" lon="-0.08518">
        <ele>9.1</ele>
        <time>2023-10-15T06:51:13Z</time>
      </trkpt>
      <trkpt lat="49.22926" lon="-0.08512">
        <ele>9.2</ele>
        <time>2023-10-15T06:51:14Z</time>
      </trkpt>
      <trkpt lat="49.22921" lon="-0.08507">
        <ele>9.4</ele>
        <time>2023-10-15T06:51:15Z</time>
      </trkpt>
      <trkpt lat="49.22916" lon="-0.08501">
        <ele>9.6</ele>
        <time>2023-10-15T06:51:16Z</time>
      </trkpt>
      <trkpt lat="49.2291" lon="-0.08495">
        <ele>9.7</ele>
        <time>2023-10-15T06:51:17Z</time>
      </trkpt>
      <trkpt lat="49.22905" lon="-0.08489">
        <ele>9.9</ele>
        <time>2023-10-15T06:51:18Z</time>
      </trkpt>
      <trkpt lat="49.22899" lon="-0.08483">
        <ele>10</ele>
        <time>2023-10-15T06:51:19Z</time>
      </trkpt>
      <trkpt lat="49.22894" lon="-0.08477">
        <ele>10.2</ele>
        <time>2023-10-15T06:51:20Z</time>
      </trkpt>
      <trkpt lat="49.22889" lon="-0.08471">
        <ele>10.3</ele>
        <time>2023-10-15T06:51:21Z</time>
      </trkpt>
      <trkpt lat="49.22883" lon="-0.08465">
        <ele>10.5</ele>
        <time>2023-10-15T06:51:22Z</time>
      </trkpt>
      <trkpt lat="49.22878" lon="-0.08459">
        <ele>10.6</ele>
        <time>2023-10-15T06:51:23Z</time>
      </trkpt>
      <trkpt lat="49.22872" lon="-0.08453">
        <ele>10.8</ele>
        <time>2023-10-15T06:51:24Z</time>
      </trkpt>
      <trkpt lat="49.22867" lon="-0.08447">
        <ele>10.9</ele>
        <time>2023-10-15T06:51:25Z</time>
      </trkpt>
      <trkpt lat="49.22861" lon="-0.0844">
        <ele>11.1</ele>
        <time>2023-10-15T06:51:26Z</time>
      </trkpt>
      <trkpt lat="49.22856" lon="-0.08434">
        <ele>11.2</ele>
        <time>2023-10-15T06:51:27Z</time>
      </trkpt>
      <trkpt lat="49.2285" lon="-0.08428">
        <ele>11.3</ele>
        <time>2023-10-15T06:51:28Z</time>
      </trkpt>
      <trkpt lat="49.22845" lon="-0.08422">
        <ele>11.4</ele>
        <time>2023-10-15T06:51:29Z</time>
      </trkpt>
      <trkpt lat="49.2284" lon="-0.08416">
        <ele>11.5</ele>
        <time>2023-10-15T06:51:30Z</time>
      </trkpt>
      <trkpt lat="49.22834" lon="-0.0841">
        <ele>11.7</ele>
        <time>2023-10-15T06:51:31Z</time>
      </trkpt>
      <trkpt lat="49.22829" lon="-0.08404">
        <ele>11.8</ele>
        <time>2023-10-15T06:51:32Z</time>
      </trkpt>
      <trkpt lat="49.22823" lon="-0.08398">
        <ele>11.9</ele>
        <time>2023-10-15T06:51:33Z</time>
      </trkpt>
      <trkpt lat="49.22818" lon="-0.08391">
        <ele>12</ele>
        <time>2023-10-15T06:51:34Z</time>
      </trkpt>
      <trkpt lat="49.22812" lon="-0.08385">
        <ele>12.1</ele>
        <time>2023-10-15T06:51:35Z</time>
      </trkpt>
      <trkpt lat="49.22807" lon="-0.08379">
        <ele>12.1</ele>
        <time>2023-10-15T06:51:36Z</time>
      </trkpt>
      <trkpt lat="49.22801" lon="-0.08373">
        <ele>12.2</ele>
        <time>2023-10-15T06:51:37Z</time>
      </trkpt>
      <trkpt lat="49.22796" lon="-0.08367">
        <ele>12.2</ele>
        <time>2023-10-15T06:51:38Z</time>
      </trkpt>
      <trkpt lat="49.2279" lon="-0.08361">
        <ele>12.3</ele>
        <time>2023-10-15T06:51:39Z</time>
      </trkpt>
      <trkpt lat="49.22785" lon="-0.08354">
        <ele>12.3</ele>
        <time>2023-10-15T06:51:40Z</time>
      </trkpt>
      <trkpt lat="49.2278" lon="-0.08348">
        <ele>12.4</ele>
        <time>2023-10-15T06:51:41Z</time>
      </trkpt>
      <trkpt lat="49.22774" lon="-0.08342">
        <ele>12.4</ele>
        <time>2023-10-15T06:51:42Z</time>
      </trkpt>
      <trkpt lat="49.22768" lon="-0.08336">
        <ele>12.4</ele>
        <time>2023-10-15T06:51:43Z</time>
      </trkpt>
      <trkpt lat="49.22763" lon="-0.0833">
        <ele>12.4</ele>
        <time>2023-10-15T06:51:44Z</time>
      </trkpt>
      <trkpt lat="49.22757" lon="-0.08323">
        <ele>12.4</ele>
        <time>2023-10-15T06:51:45Z</time>
      </trkpt>
      <trkpt lat="49.22751" lon="-0.08317">
        <ele>12.4</ele>
        <time>2023-10-15T06:51:46Z</time>
      </trkpt>
      <trkpt lat="49.22745" lon="-0.08309">
        <ele>12.3</ele>
        <time>2023-10-15T06:51:47Z</time>
      </trkpt>
      <trkpt lat="49.22739" lon="-0.08303">
        <ele>12.3</ele>
        <time>2023-10-15T06:51:48Z</time>
      </trkpt>
      <trkpt lat="49.22733" lon="-0.08296">
        <ele>12.2</ele>
        <time>2023-10-15T06:51:49Z</time>
      </trkpt>
      <trkpt lat="49.22727" lon="-0.08289">
        <ele>12.2</ele>
        <time>2023-10-15T06:51:50Z</time>
      </trkpt>
      <trkpt lat="49.22721" lon="-0.08281">
        <ele>12.1</ele>
        <time>2023-10-15T06:51:51Z</time>
      </trkpt>
      <trkpt lat="49.22715" lon="-0.08274">
        <ele>12.1</ele>
        <time>2023-10-15T06:51:52Z</time>
      </trkpt>
      <trkpt lat="49.22709" lon="-0.08267">
        <ele>12</ele>
        <time>2023-10-15T06:51:53Z</time>
      </trkpt>
      <trkpt lat="49.22704" lon="-0.08259">
        <ele>12</ele>
        <time>2023-10-15T06:51:54Z</time>
      </trkpt>
      <trkpt lat="49.22698" lon="-0.08251">
        <ele>12</ele>
        <time>2023-10-15T06:51:55Z</time>
      </trkpt>
      <trkpt lat="49.22692" lon="-0.08243">
        <ele>11.9</ele>
        <time>2023-10-15T06:51:56Z</time>
      </trkpt>
      <trkpt lat="49.22686" lon="-0.08236">
        <ele>11.9</ele>
        <time>2023-10-15T06:51:57Z</time>
      </trkpt>
      <trkpt lat="49.2268" lon="-0.08228">
        <ele>11.9</ele>
        <time>2023-10-15T06:51:58Z</time>
      </trkpt>
      <trkpt lat="49.22675" lon="-0.0822">
        <ele>11.9</ele>
        <time>2023-10-15T06:51:59Z</time>
      </trkpt>
      <trkpt lat="49.2267" lon="-0.08212">
        <ele>12</ele>
        <time>2023-10-15T06:52:00Z</time>
      </trkpt>
      <trkpt lat="49.22664" lon="-0.08204">
        <ele>12</ele>
        <time>2023-10-15T06:52:01Z</time>
      </trkpt>
      <trkpt lat="49.22659" lon="-0.08196">
        <ele>12</ele>
        <time>2023-10-15T06:52:02Z</time>
      </trkpt>
      <trkpt lat="49.22653" lon="-0.08188">
        <ele>12</ele>
        <time>2023-10-15T06:52:03Z</time>
      </trkpt>
      <trkpt lat="49.22647" lon="-0.0818">
        <ele>12</ele>
        <time>2023-10-15T06:52:04Z</time>
      </trkpt>
      <trkpt lat="49.22641" lon="-0.08173">
        <ele>12</ele>
        <time>2023-10-15T06:52:05Z</time>
      </trkpt>
      <trkpt lat="49.22636" lon="-0.08165">
        <ele>12</ele>
        <time>2023-10-15T06:52:06Z</time>
      </trkpt>
      <trkpt lat="49.2263" lon="-0.08158">
        <ele>12</ele>
        <time>2023-10-15T06:52:07Z</time>
      </trkpt>
      <trkpt lat="49.22624" lon="-0.0815">
        <ele>12</ele>
        <time>2023-10-15T06:52:08Z</time>
      </trkpt>
      <trkpt lat="49.22618" lon="-0.08143">
        <ele>12</ele>
        <time>2023-10-15T06:52:09Z</time>
      </trkpt>
      <trkpt lat="49.22612" lon="-0.08136">
        <ele>12.1</ele>
        <time>2023-10-15T06:52:10Z</time>
      </trkpt>
      <trkpt lat="49.22606" lon="-0.08129">
        <ele>12.1</ele>
        <time>2023-10-15T06:52:11Z</time>
      </trkpt>
      <trkpt lat="49.226" lon="-0.08121">
        <ele>12.1</ele>
        <time>2023-10-15T06:52:12Z</time>
      </trkpt>
      <trkpt lat="49.22594" lon="-0.08114">
        <ele>12.2</ele>
        <time>2023-10-15T06:52:13Z</time>
      </trkpt>
      <trkpt lat="49.22588" lon="-0.08107">
        <ele>12.2</ele>
        <time>2023-10-15T06:52:14Z</time>
      </trkpt>
      <trkpt lat="49.22582" lon="-0.081">
        <ele>12.2</ele>
        <time>2023-10-15T06:52:15Z</time>
      </trkpt>
      <trkpt lat="49.22576" lon="-0.08092">
        <ele>12.3</ele>
        <time>2023-10-15T06:52:16Z</time>
      </trkpt>
      <trkpt lat="49.2257" lon="-0.08086">
        <ele>12.3</ele>
        <time>2023-10-15T06:52:17Z</time>
      </trkpt>
      <trkpt lat="49.22563" lon="-0.08079">
        <ele>12.3</ele>
        <time>2023-10-15T06:52:18Z</time>
      </trkpt>
      <trkpt lat="49.22557" lon="-0.08072">
        <ele>12.3</ele>
        <time>2023-10-15T06:52:19Z</time>
      </trkpt>
      <trkpt lat="49.22551" lon="-0.08065">
        <ele>12.3</ele>
        <time>2023-10-15T06:52:20Z</time>
      </trkpt>
      <trkpt lat="49.22545" lon="-0.08058">
        <ele>12.3</ele>
        <time>2023-10-15T06:52:21Z</time>
      </trkpt>
      <trkpt lat="49.22538" lon="-0.08051">
        <ele>12.3</ele>
        <time>2023-10-15T06:52:22Z</time>
      </trkpt>
      <trkpt lat="49.22532" lon="-0.08044">
        <ele>12.4</ele>
        <time>2023-10-15T06:52:23Z</time>
      </trkpt>
      <trkpt lat="49.22526" lon="-0.08036">
        <ele>12.4</ele>
        <time>2023-10-15T06:52:24Z</time>
      </trkpt>
      <trkpt lat="49.22521" lon="-0.08029">
        <ele>12.4</ele>
        <time>2023-10-15T06:52:25Z</time>
      </trkpt>
      <trkpt lat="49.22515" lon="-0.08022">
        <ele>12.4</ele>
        <time>2023-10-15T06:52:26Z</time>
      </trkpt>
      <trkpt lat="49.22508" lon="-0.08015">
        <ele>12.4</ele>
        <time>2023-10-15T06:52:27Z</time>
      </trkpt>
      <trkpt lat="49.22502" lon="-0.08008">
        <ele>12.4</ele>
        <time>2023-10-15T06:52:28Z</time>
      </trkpt>
      <trkpt lat="49.22495" lon="-0.08002">
        <ele>12.4</ele>
        <time>2023-10-15T06:52:29Z</time>
      </trkpt>
      <trkpt lat="49.22487" lon="-0.07995">
        <ele>12.4</ele>
        <time>2023-10-15T06:52:30Z</time>
      </trkpt>
      <trkpt lat="49.22481" lon="-0.07988">
        <ele>12.5</ele>
        <time>2023-10-15T06:52:31Z</time>
      </trkpt>
      <trkpt lat="49.22474" lon="-0.07981">
        <ele>12.5</ele>
        <time>2023-10-15T06:52:32Z</time>
      </trkpt>
      <trkpt lat="49.22468" lon="-0.07974">
        <ele>12.5</ele>
        <time>2023-10-15T06:52:33Z</time>
      </trkpt>
      <trkpt lat="49.22461" lon="-0.07968">
        <ele>12.6</ele>
        <time>2023-10-15T06:52:34Z</time>
      </trkpt>
      <trkpt lat="49.22454" lon="-0.07962">
        <ele>12.6</ele>
        <time>2023-10-15T06:52:35Z</time>
      </trkpt>
      <trkpt lat="49.22448" lon="-0.07956">
        <ele>12.6</ele>
        <time>2023-10-15T06:52:36Z</time>
      </trkpt>
      <trkpt lat="49.22441" lon="-0.0795">
        <ele>12.6</ele>
        <time>2023-10-15T06:52:37Z</time>
      </trkpt>
      <trkpt lat="49.22434" lon="-0.07945">
        <ele>12.7</ele>
        <time>2023-10-15T06:52:38Z</time>
      </trkpt>
      <trkpt lat="49.22427" lon="-0.07939">
        <ele>12.7</ele>
        <time>2023-10-15T06:52:39Z</time>
      </trkpt>
      <trkpt lat="49.2242" lon="-0.07934">
        <ele>12.7</ele>
        <time>2023-10-15T06:52:40Z</time>
      </trkpt>
      <trkpt lat="49.22413" lon="-0.07929">
        <ele>12.7</ele>
        <time>2023-10-15T06:52:41Z</time>
      </trkpt>
      <trkpt lat="49.22406" lon="-0.07923">
        <ele>12.7</ele>
        <time>2023-10-15T06:52:42Z</time>
      </trkpt>
      <trkpt lat="49.22399" lon="-0.07918">
        <ele>12.7</ele>
        <time>2023-10-15T06:52:43Z</time>
      </trkpt>
      <trkpt lat="49.22392" lon="-0.07913">
        <ele>12.7</ele>
        <time>2023-10-15T06:52:44Z</time>
      </trkpt>
      <trkpt lat="49.22385" lon="-0.07908">
        <ele>12.7</ele>
        <time>2023-10-15T06:52:45Z</time>
      </trkpt>
      <trkpt lat="49.22378" lon="-0.07903">
        <ele>12.7</ele>
        <time>2023-10-15T06:52:46Z</time>
      </trkpt>
      <trkpt lat="49.2237" lon="-0.07898">
        <ele>12.8</ele>
        <time>2023-10-15T06:52:47Z</time>
      </trkpt>
      <trkpt lat="49.22363" lon="-0.07893">
        <ele>12.8</ele>
        <time>2023-10-15T06:52:48Z</time>
      </trkpt>
      <trkpt lat="49.22356" lon="-0.07888">
        <ele>12.8</ele>
        <time>2023-10-15T06:52:49Z</time>
      </trkpt>
      <trkpt lat="49.22349" lon="-0.07884">
        <ele>12.8</ele>
        <time>2023-10-15T06:52:50Z</time>
      </trkpt>
      <trkpt lat="49.22342" lon="-0.0788">
        <ele>12.9</ele>
        <time>2023-10-15T06:52:51Z</time>
      </trkpt>
      <trkpt lat="49.22335" lon="-0.07876">
        <ele>12.9</ele>
        <time>2023-10-15T06:52:52Z</time>
      </trkpt>
      <trkpt lat="49.22327" lon="-0.07871">
        <ele>12.9</ele>
        <time>2023-10-15T06:52:53Z</time>
      </trkpt>
      <trkpt lat="49.22319" lon="-0.07867">
        <ele>13</ele>
        <time>2023-10-15T06:52:54Z</time>
      </trkpt>
      <trkpt lat="49.22312" lon="-0.07863">
        <ele>13</ele>
        <time>2023-10-15T06:52:55Z</time>
      </trkpt>
      <trkpt lat="49.22305" lon="-0.07859">
        <ele>13.1</ele>
        <time>2023-10-15T06:52:56Z</time>
      </trkpt>
      <trkpt lat="49.22298" lon="-0.07855">
        <ele>13.2</ele>
        <time>2023-10-15T06:52:57Z</time>
      </trkpt>
      <trkpt lat="49.22291" lon="-0.07851">
        <ele>13.3</ele>
        <time>2023-10-15T06:52:58Z</time>
      </trkpt>
      <trkpt lat="49.22285" lon="-0.07848">
        <ele>13.4</ele>
        <time>2023-10-15T06:52:59Z</time>
      </trkpt>
      <trkpt lat="49.22278" lon="-0.07845">
        <ele>13.5</ele>
        <time>2023-10-15T06:53:00Z</time>
      </trkpt>
      <trkpt lat="49.22272" lon="-0.07842">
        <ele>13.6</ele>
        <time>2023-10-15T06:53:01Z</time>
      </trkpt>
      <trkpt lat="49.22266" lon="-0.07841">
        <ele>13.6</ele>
        <time>2023-10-15T06:53:02Z</time>
      </trkpt>
      <trkpt lat="49.2226" lon="-0.07841">
        <ele>13.6</ele>
        <time>2023-10-15T06:53:03Z</time>
      </trkpt>
      <trkpt lat="49.22254" lon="-0.07842">
        <ele>13.6</ele>
        <time>2023-10-15T06:53:04Z</time>
      </trkpt>
      <trkpt lat="49.22249" lon="-0.07844">
        <ele>13.6</ele>
        <time>2023-10-15T06:53:05Z</time>
      </trkpt>
      <trkpt lat="49.22243" lon="-0.07843">
        <ele>13.6</ele>
        <time>2023-10-15T06:53:06Z</time>
      </trkpt>
      <trkpt lat="49.22238" lon="-0.0784">
        <ele>13.5</ele>
        <time>2023-10-15T06:53:07Z</time>
      </trkpt>
      <trkpt lat="49.22234" lon="-0.07834">
        <ele>13.4</ele>
        <time>2023-10-15T06:53:08Z</time>
      </trkpt>
      <trkpt lat="49.22232" lon="-0.07826">
        <ele>13.3</ele>
        <time>2023-10-15T06:53:09Z</time>
      </trkpt>
      <trkpt lat="49.22231" lon="-0.07818">
        <ele>13.3</ele>
        <time>2023-10-15T06:53:10Z</time>
      </trkpt>
      <trkpt lat="49.22233" lon="-0.0781">
        <ele>13.3</ele>
        <time>2023-10-15T06:53:11Z</time>
      </trkpt>
      <trkpt lat="49.22236" lon="-0.07803">
        <ele>13.3</ele>
        <time>2023-10-15T06:53:12Z</time>
      </trkpt>
      <trkpt lat="49.22239" lon="-0.07796">
        <ele>13.3</ele>
        <time>2023-10-15T06:53:13Z</time>
      </trkpt>
      <trkpt lat="49.22242" lon="-0.07788">
        <ele>13.3</ele>
        <time>2023-10-15T06:53:14Z</time>
      </trkpt>
      <trkpt lat="49.22244" lon="-0.0778">
        <ele>13.4</ele>
        <time>2023-10-15T06:53:15Z</time>
      </trkpt>
      <trkpt lat="49.22246" lon="-0.07771">
        <ele>13.4</ele>
        <time>2023-10-15T06:53:16Z</time>
      </trkpt>
      <trkpt lat="49.22248" lon="-0.07762">
        <ele>13.4</ele>
        <time>2023-10-15T06:53:17Z</time>
      </trkpt>
      <trkpt lat="49.2225" lon="-0.07753">
        <ele>13.4</ele>
        <time>2023-10-15T06:53:18Z</time>
      </trkpt>
      <trkpt lat="49.22252" lon="-0.07744">
        <ele>13.4</ele>
        <time>2023-10-15T06:53:19Z</time>
      </trkpt>
      <trkpt lat="49.22254" lon="-0.07735">
        <ele>13.4</ele>
        <time>2023-10-15T06:53:20Z</time>
      </trkpt>
      <trkpt lat="49.22255" lon="-0.07726">
        <ele>13.4</ele>
        <time>2023-10-15T06:53:21Z</time>
      </trkpt>
      <trkpt lat="49.22254" lon="-0.07717">
        <ele>13.4</ele>
        <time>2023-10-15T06:53:22Z</time>
      </trkpt>
      <trkpt lat="49.22252" lon="-0.07709">
        <ele>13.4</ele>
        <time>2023-10-15T06:53:23Z</time>
      </trkpt>
      <trkpt lat="49.22248" lon="-0.07703">
        <ele>13.5</ele>
        <time>2023-10-15T06:53:24Z</time>
      </trkpt>
      <trkpt lat="49.22243" lon="-0.07696">
        <ele>13.5</ele>
        <time>2023-10-15T06:53:25Z</time>
      </trkpt>
      <trkpt lat="49.22239" lon="-0.07689">
        <ele>13.5</ele>
        <time>2023-10-15T06:53:26Z</time>
      </trkpt>
      <trkpt lat="49.22236" lon="-0.07682">
        <ele>13.5</ele>
        <time>2023-10-15T06:53:27Z</time>
      </trkpt>
      <trkpt lat="49.22232" lon="-0.07673">
        <ele>13.6</ele>
        <time>2023-10-15T06:53:28Z</time>
      </trkpt>
      <trkpt lat="49.22228" lon="-0.07665">
        <ele>13.6</ele>
        <time>2023-10-15T06:53:29Z</time>
      </trkpt>
      <trkpt lat="49.22224" lon="-0.07658">
        <ele>13.6</ele>
        <time>2023-10-15T06:53:30Z</time>
      </trkpt>
      <trkpt lat="49.22218" lon="-0.07653">
        <ele>13.6</ele>
        <time>2023-10-15T06:53:31Z</time>
      </trkpt>
      <trkpt lat="49.22212" lon="-0.07647">
        <ele>13.6</ele>
        <time>2023-10-15T06:53:32Z</time>
      </trkpt>
      <trkpt lat="49.22206" lon="-0.07642">
        <ele>13.7</ele>
        <time>2023-10-15T06:53:33Z</time>
      </trkpt>
      <trkpt lat="49.22201" lon="-0.07636">
        <ele>13.7</ele>
        <time>2023-10-15T06:53:34Z</time>
      </trkpt>
      <trkpt lat="49.22196" lon="-0.07631">
        <ele>13.7</ele>
        <time>2023-10-15T06:53:35Z</time>
      </trkpt>
      <trkpt lat="49.2219" lon="-0.07626">
        <ele>13.7</ele>
        <time>2023-10-15T06:53:36Z</time>
      </trkpt>
      <trkpt lat="49.22183" lon="-0.07621">
        <ele>13.8</ele>
        <time>2023-10-15T06:53:37Z</time>
      </trkpt>
      <trkpt lat="49.22178" lon="-0.07615">
        <ele>13.9</ele>
        <time>2023-10-15T06:53:38Z</time>
      </trkpt>
      <trkpt lat="49.22173" lon="-0.07608">
        <ele>13.9</ele>
        <time>2023-10-15T06:53:39Z</time>
      </trkpt>
      <trkpt lat="49.2217" lon="-0.07599">
        <ele>14</ele>
        <time>2023-10-15T06:53:40Z</time>
      </trkpt>
      <trkpt lat="49.22168" lon="-0.0759">
        <ele>14</ele>
        <time>2023-10-15T06:53:41Z</time>
      </trkpt>
      <trkpt lat="49.22167" lon="-0.07579">
        <ele>14.1</ele>
        <time>2023-10-15T06:53:42Z</time>
      </trkpt>
      <trkpt lat="49.22166" lon="-0.0757">
        <ele>14.1</ele>
        <time>2023-10-15T06:53:43Z</time>
      </trkpt>
      <trkpt lat="49.22165" lon="-0.0756">
        <ele>14.2</ele>
        <time>2023-10-15T06:53:44Z</time>
      </trkpt>
      <trkpt lat="49.22165" lon="-0.0755">
        <ele>14.2</ele>
        <time>2023-10-15T06:53:45Z</time>
      </trkpt>
      <trkpt lat="49.22163" lon="-0.07541">
        <ele>14.2</ele>
        <time>2023-10-15T06:53:46Z</time>
      </trkpt>
      <trkpt lat="49.22162" lon="-0.07531">
        <ele>14.2</ele>
        <time>2023-10-15T06:53:47Z</time>
      </trkpt>
      <trkpt lat="49.22159" lon="-0.07521">
        <ele>14.2</ele>
        <time>2023-10-15T06:53:48Z</time>
      </trkpt>
      <trkpt lat="49.22156" lon="-0.07511">
        <ele>14.2</ele>
        <time>2023-10-15T06:53:49Z</time>
      </trkpt>
      <trkpt lat="49.22152" lon="-0.07502">
        <ele>14.3</ele>
        <time>2023-10-15T06:53:50Z</time>
      </trkpt>
      <trkpt lat="49.22148" lon="-0.07494">
        <ele>14.3</ele>
        <time>2023-10-15T06:53:51Z</time>
      </trkpt>
      <trkpt lat="49.22144" lon="-0.07487">
        <ele>14.4</ele>
        <time>2023-10-15T06:53:52Z</time>
      </trkpt>
      <trkpt lat="49.22139" lon="-0.0748">
        <ele>14.5</ele>
        <time>2023-10-15T06:53:53Z</time>
      </trkpt>
      <trkpt lat="49.22134" lon="-0.07474">
        <ele>14.5</ele>
        <time>2023-10-15T06:53:54Z</time>
      </trkpt>
      <trkpt lat="49.22128" lon="-0.07468">
        <ele>14.6</ele>
        <time>2023-10-15T06:53:55Z</time>
      </trkpt>
      <trkpt lat="49.22123" lon="-0.07462">
        <ele>14.7</ele>
        <time>2023-10-15T06:53:56Z</time>
      </trkpt>
      <trkpt lat="49.22118" lon="-0.07456">
        <ele>14.8</ele>
        <time>2023-10-15T06:53:57Z</time>
      </trkpt>
      <trkpt lat="49.22112" lon="-0.0745">
        <ele>14.9</ele>
        <time>2023-10-15T06:53:58Z</time>
      </trkpt>
      <trkpt lat="49.22107" lon="-0.07445">
        <ele>15</ele>
        <time>2023-10-15T06:53:59Z</time>
      </trkpt>
      <trkpt lat="49.22102" lon="-0.07439">
        <ele>15.2</ele>
        <time>2023-10-15T06:54:00Z</time>
      </trkpt>
      <trkpt lat="49.22097" lon="-0.07432">
        <ele>15.3</ele>
        <time>2023-10-15T06:54:01Z</time>
      </trkpt>
      <trkpt lat="49.22092" lon="-0.07427">
        <ele>15.5</ele>
        <time>2023-10-15T06:54:02Z</time>
      </trkpt>
      <trkpt lat="49.22087" lon="-0.07422">
        <ele>15.6</ele>
        <time>2023-10-15T06:54:03Z</time>
      </trkpt>
      <trkpt lat="49.22082" lon="-0.07416">
        <ele>15.8</ele>
        <time>2023-10-15T06:54:04Z</time>
      </trkpt>
      <trkpt lat="49.22077" lon="-0.0741">
        <ele>16</ele>
        <time>2023-10-15T06:54:05Z</time>
      </trkpt>
      <trkpt lat="49.22073" lon="-0.07403">
        <ele>16.2</ele>
        <time>2023-10-15T06:54:06Z</time>
      </trkpt>
      <trkpt lat="49.2207" lon="-0.07396">
        <ele>16.3</ele>
        <time>2023-10-15T06:54:07Z</time>
      </trkpt>
      <trkpt lat="49.22067" lon="-0.07388">
        <ele>16.5</ele>
        <time>2023-10-15T06:54:08Z</time>
      </trkpt>
      <trkpt lat="49.22065" lon="-0.0738">
        <ele>16.7</ele>
        <time>2023-10-15T06:54:09Z</time>
      </trkpt>
      <trkpt lat="49.22062" lon="-0.07373">
        <ele>16.8</ele>
        <time>2023-10-15T06:54:10Z</time>
      </trkpt>
      <trkpt lat="49.2206" lon="-0.07365">
        <ele>16.9</ele>
        <time>2023-10-15T06:54:11Z</time>
      </trkpt>
      <trkpt lat="49.22058" lon="-0.07357">
        <ele>17.1</ele>
        <time>2023-10-15T06:54:12Z</time>
      </trkpt>
      <trkpt lat="49.22055" lon="-0.07348">
        <ele>17.2</ele>
        <time>2023-10-15T06:54:13Z</time>
      </trkpt>
      <trkpt lat="49.22053" lon="-0.07341">
        <ele>17.3</ele>
        <time>2023-10-15T06:54:14Z</time>
      </trkpt>
      <trkpt lat="49.22051" lon="-0.07332">
        <ele>17.5</ele>
        <time>2023-10-15T06:54:15Z</time>
      </trkpt>
      <trkpt lat="49.22049" lon="-0.07324">
        <ele>17.6</ele>
        <time>2023-10-15T06:54:16Z</time>
      </trkpt>
      <trkpt lat="49.22047" lon="-0.07316">
        <ele>17.7</ele>
        <time>2023-10-15T06:54:17Z</time>
      </trkpt>
      <trkpt lat="49.22045" lon="-0.07308">
        <ele>17.9</ele>
        <time>2023-10-15T06:54:18Z</time>
      </trkpt>
      <trkpt lat="49.22042" lon="-0.07299">
        <ele>18</ele>
        <time>2023-10-15T06:54:19Z</time>
      </trkpt>
      <trkpt lat="49.2204" lon="-0.07291">
        <ele>18.2</ele>
        <time>2023-10-15T06:54:20Z</time>
      </trkpt>
      <trkpt lat="49.22037" lon="-0.07283">
        <ele>18.3</ele>
        <time>2023-10-15T06:54:21Z</time>
      </trkpt>
      <trkpt lat="49.22035" lon="-0.07274">
        <ele>18.4</ele>
        <time>2023-10-15T06:54:22Z</time>
      </trkpt>
      <trkpt lat="49.22032" lon="-0.07266">
        <ele>18.6</ele>
        <time>2023-10-15T06:54:23Z</time>
      </trkpt>
      <trkpt lat="49.2203" lon="-0.07257">
        <ele>18.7</ele>
        <time>2023-10-15T06:54:24Z</time>
      </trkpt>
      <trkpt lat="49.22027" lon="-0.07249">
        <ele>18.8</ele>
        <time>2023-10-15T06:54:25Z</time>
      </trkpt>
      <trkpt lat="49.22025" lon="-0.0724">
        <ele>18.9</ele>
        <time>2023-10-15T06:54:26Z</time>
      </trkpt>
      <trkpt lat="49.22021" lon="-0.07233">
        <ele>19.1</ele>
        <time>2023-10-15T06:54:27Z</time>
      </trkpt>
      <trkpt lat="49.22018" lon="-0.07225">
        <ele>19.2</ele>
        <time>2023-10-15T06:54:28Z</time>
      </trkpt>
      <trkpt lat="49.22014" lon="-0.07217">
        <ele>19.3</ele>
        <time>2023-10-15T06:54:29Z</time>
      </trkpt>
      <trkpt lat="49.22011" lon="-0.0721">
        <ele>19.4</ele>
        <time>2023-10-15T06:54:30Z</time>
      </trkpt>
      <trkpt lat="49.22008" lon="-0.07202">
        <ele>19.6</ele>
        <time>2023-10-15T06:54:31Z</time>
      </trkpt>
      <trkpt lat="49.22005" lon="-0.07194">
        <ele>19.7</ele>
        <time>2023-10-15T06:54:32Z</time>
      </trkpt>
      <trkpt lat="49.22001" lon="-0.07187">
        <ele>19.8</ele>
        <time>2023-10-15T06:54:33Z</time>
      </trkpt>
      <trkpt lat="49.21998" lon="-0.07179">
        <ele>20</ele>
        <time>2023-10-15T06:54:34Z</time>
      </trkpt>
      <trkpt lat="49.21995" lon="-0.07171">
        <ele>20.2</ele>
        <time>2023-10-15T06:54:35Z</time>
      </trkpt>
      <trkpt lat="49.21992" lon="-0.07163">
        <ele>20.3</ele>
        <time>2023-10-15T06:54:36Z</time>
      </trkpt>
      <trkpt lat="49.21988" lon="-0.07156">
        <ele>20.5</ele>
        <time>2023-10-15T06:54:37Z</time>
      </trkpt>
      <trkpt lat="49.21985" lon="-0.07149">
        <ele>20.6</ele>
        <time>2023-10-15T06:54:38Z</time>
      </trkpt>
      <trkpt lat="49.21982" lon="-0.07142">
        <ele>20.8</ele>
        <time>2023-10-15T06:54:39Z</time>
      </trkpt>
      <trkpt lat="49.21978" lon="-0.07135">
        <ele>21</ele>
        <time>2023-10-15T06:54:40Z</time>
      </trkpt>
      <trkpt lat="49.21974" lon="-0.07128">
        <ele>21.2</ele>
        <time>2023-10-15T06:54:41Z</time>
      </trkpt>
      <trkpt lat="49.21971" lon="-0.07121">
        <ele>21.3</ele>
        <time>2023-10-15T06:54:42Z</time>
      </trkpt>
      <trkpt lat="49.21968" lon="-0.07114">
        <ele>21.5</ele>
        <time>2023-10-15T06:54:43Z</time>
      </trkpt>
      <trkpt lat="49.21965" lon="-0.07106">
        <ele>21.7</ele>
        <time>2023-10-15T06:54:44Z</time>
      </trkpt>
      <trkpt lat="49.21962" lon="-0.07099">
        <ele>21.8</ele>
        <time>2023-10-15T06:54:45Z</time>
      </trkpt>
      <trkpt lat="49.21959" lon="-0.07091">
        <ele>21.9</ele>
        <time>2023-10-15T06:54:46Z</time>
      </trkpt>
      <trkpt lat="49.21956" lon="-0.07083">
        <ele>22</ele>
        <time>2023-10-15T06:54:47Z</time>
      </trkpt>
      <trkpt lat="49.21952" lon="-0.07076">
        <ele>22.2</ele>
        <time>2023-10-15T06:54:48Z</time>
      </trkpt>
      <trkpt lat="49.21949" lon="-0.07068">
        <ele>22.3</ele>
        <time>2023-10-15T06:54:49Z</time>
      </trkpt>
      <trkpt lat="49.21946" lon="-0.0706">
        <ele>22.4</ele>
        <time>2023-10-15T06:54:50Z</time>
      </trkpt>
      <trkpt lat="49.21943" lon="-0.07052">
        <ele>22.5</ele>
        <time>2023-10-15T06:54:51Z</time>
      </trkpt>
      <trkpt lat="49.2194" lon="-0.07044">
        <ele>22.7</ele>
        <time>2023-10-15T06:54:52Z</time>
      </trkpt>
      <trkpt lat="49.21937" lon="-0.07036">
        <ele>22.8</ele>
        <time>2023-10-15T06:54:53Z</time>
      </trkpt>
      <trkpt lat="49.21934" lon="-0.07028">
        <ele>22.9</ele>
        <time>2023-10-15T06:54:54Z</time>
      </trkpt>
      <trkpt lat="49.21932" lon="-0.0702">
        <ele>23</ele>
        <time>2023-10-15T06:54:55Z</time>
      </trkpt>
      <trkpt lat="49.21929" lon="-0.07012">
        <ele>23.1</ele>
        <time>2023-10-15T06:54:56Z</time>
      </trkpt>
      <trkpt lat="49.21926" lon="-0.07004">
        <ele>23.3</ele>
        <time>2023-10-15T06:54:57Z</time>
      </trkpt>
      <trkpt lat="49.21924" lon="-0.06996">
        <ele>23.4</ele>
        <time>2023-10-15T06:54:58Z</time>
      </trkpt>
      <trkpt lat="49.21923" lon="-0.06988">
        <ele>23.5</ele>
        <time>2023-10-15T06:54:59Z</time>
      </trkpt>
      <trkpt lat="49.21921" lon="-0.0698">
        <ele>23.5</ele>
        <time>2023-10-15T06:55:00Z</time>
      </trkpt>
      <trkpt lat="49.2192" lon="-0.06973">
        <ele>23.6</ele>
        <time>2023-10-15T06:55:01Z</time>
      </trkpt>
      <trkpt lat="49.21917" lon="-0.06966">
        <ele>23.7</ele>
        <time>2023-10-15T06:55:02Z</time>
      </trkpt>
      <trkpt lat="49.21915" lon="-0.06958">
        <ele>23.8</ele>
        <time>2023-10-15T06:55:03Z</time>
      </trkpt>
      <trkpt lat="49.21913" lon="-0.06951">
        <ele>23.9</ele>
        <time>2023-10-15T06:55:04Z</time>
      </trkpt>
      <trkpt lat="49.21911" lon="-0.06943">
        <ele>24</ele>
        <time>2023-10-15T06:55:05Z</time>
      </trkpt>
      <trkpt lat="49.21909" lon="-0.06935">
        <ele>24</ele>
        <time>2023-10-15T06:55:06Z</time>
      </trkpt>
      <trkpt lat="49.21908" lon="-0.06927">
        <ele>24.1</ele>
        <time>2023-10-15T06:55:07Z</time>
      </trkpt>
      <trkpt lat="49.21907" lon="-0.06919">
        <ele>24.1</ele>
        <time>2023-10-15T06:55:08Z</time>
      </trkpt>
      <trkpt lat="49.21907" lon="-0.06912">
        <ele>24.2</ele>
        <time>2023-10-15T06:55:09Z</time>
      </trkpt>
      <trkpt lat="49.21906" lon="-0.06904">
        <ele>24.2</ele>
        <time>2023-10-15T06:55:10Z</time>
      </trkpt>
      <trkpt lat="49.21905" lon="-0.06896">
        <ele>24.3</ele>
        <time>2023-10-15T06:55:11Z</time>
      </trkpt>
      <trkpt lat="49.21903" lon="-0.06889">
        <ele>24.5</ele>
        <time>2023-10-15T06:55:12Z</time>
      </trkpt>
      <trkpt lat="49.21899" lon="-0.06884">
        <ele>24.7</ele>
        <time>2023-10-15T06:55:13Z</time>
      </trkpt>
      <trkpt lat="49.21895" lon="-0.06879">
        <ele>24.9</ele>
        <time>2023-10-15T06:55:14Z</time>
      </trkpt>
      <trkpt lat="49.2189" lon="-0.06875">
        <ele>25.1</ele>
        <time>2023-10-15T06:55:15Z</time>
      </trkpt>
      <trkpt lat="49.21886" lon="-0.0687">
        <ele>25.3</ele>
        <time>2023-10-15T06:55:16Z</time>
      </trkpt>
      <trkpt lat="49.21882" lon="-0.06865">
        <ele>25.5</ele>
        <time>2023-10-15T06:55:17Z</time>
      </trkpt>
      <trkpt lat="49.21878" lon="-0.06859">
        <ele>25.7</ele>
        <time>2023-10-15T06:55:18Z</time>
      </trkpt>
      <trkpt lat="49.21875" lon="-0.06853">
        <ele>25.9</ele>
        <time>2023-10-15T06:55:19Z</time>
      </trkpt>
      <trkpt lat="49.21872" lon="-0.06848">
        <ele>26.1</ele>
        <time>2023-10-15T06:55:20Z</time>
      </trkpt>
      <trkpt lat="49.21869" lon="-0.06842">
        <ele>26.3</ele>
        <time>2023-10-15T06:55:21Z</time>
      </trkpt>
      <trkpt lat="49.21865" lon="-0.06837">
        <ele>26.4</ele>
        <time>2023-10-15T06:55:22Z</time>
      </trkpt>
      <trkpt lat="49.21862" lon="-0.06831">
        <ele>26.6</ele>
        <time>2023-10-15T06:55:23Z</time>
      </trkpt>
      <trkpt lat="49.21858" lon="-0.06825">
        <ele>26.8</ele>
        <time>2023-10-15T06:55:24Z</time>
      </trkpt>
      <trkpt lat="49.21855" lon="-0.06819">
        <ele>27</ele>
        <time>2023-10-15T06:55:25Z</time>
      </trkpt>
      <trkpt lat="49.21851" lon="-0.06813">
        <ele>27.2</ele>
        <time>2023-10-15T06:55:26Z</time>
      </trkpt>
      <trkpt lat="49.21848" lon="-0.06808">
        <ele>27.3</ele>
        <time>2023-10-15T06:55:27Z</time>
      </trkpt>
      <trkpt lat="49.21844" lon="-0.06803">
        <ele>27.5</ele>
        <time>2023-10-15T06:55:28Z</time>
      </trkpt>
      <trkpt lat="49.21839" lon="-0.06798">
        <ele>27.6</ele>
        <time>2023-10-15T06:55:29Z</time>
      </trkpt>
      <trkpt lat="49.21835" lon="-0.06794">
        <ele>27.7</ele>
        <time>2023-10-15T06:55:30Z</time>
      </trkpt>
      <trkpt lat="49.2183" lon="-0.0679">
        <ele>27.9</ele>
        <time>2023-10-15T06:55:31Z</time>
      </trkpt>
      <trkpt lat="49.21826" lon="-0.06787">
        <ele>28</ele>
        <time>2023-10-15T06:55:32Z</time>
      </trkpt>
      <trkpt lat="49.2182" lon="-0.06784">
        <ele>28.1</ele>
        <time>2023-10-15T06:55:33Z</time>
      </trkpt>
      <trkpt lat="49.21815" lon="-0.06782">
        <ele>28.2</ele>
        <time>2023-10-15T06:55:34Z</time>
      </trkpt>
      <trkpt lat="49.21809" lon="-0.06781">
        <ele>28.4</ele>
        <time>2023-10-15T06:55:35Z</time>
      </trkpt>
      <trkpt lat="49.21804" lon="-0.0678">
        <ele>28.5</ele>
        <time>2023-10-15T06:55:36Z</time>
      </trkpt>
      <trkpt lat="49.21798" lon="-0.06779">
        <ele>28.6</ele>
        <time>2023-10-15T06:55:37Z</time>
      </trkpt>
      <trkpt lat="49.21792" lon="-0.06778">
        <ele>28.7</ele>
        <time>2023-10-15T06:55:38Z</time>
      </trkpt>
      <trkpt lat="49.21785" lon="-0.06777">
        <ele>28.8</ele>
        <time>2023-10-15T06:55:39Z</time>
      </trkpt>
      <trkpt lat="49.21779" lon="-0.06777">
        <ele>28.9</ele>
        <time>2023-10-15T06:55:40Z</time>
      </trkpt>
      <trkpt lat="49.21773" lon="-0.06777">
        <ele>29</ele>
        <time>2023-10-15T06:55:41Z</time>
      </trkpt>
      <trkpt lat="49.21766" lon="-0.06777">
        <ele>29</ele>
        <time>2023-10-15T06:55:42Z</time>
      </trkpt>
      <trkpt lat="49.21759" lon="-0.06777">
        <ele>29.1</ele>
        <time>2023-10-15T06:55:43Z</time>
      </trkpt>
      <trkpt lat="49.21752" lon="-0.06777">
        <ele>29.1</ele>
        <time>2023-10-15T06:55:44Z</time>
      </trkpt>
      <trkpt lat="49.21746" lon="-0.06777">
        <ele>29.1</ele>
        <time>2023-10-15T06:55:45Z</time>
      </trkpt>
      <trkpt lat="49.21739" lon="-0.06776">
        <ele>29.1</ele>
        <time>2023-10-15T06:55:46Z</time>
      </trkpt>
      <trkpt lat="49.21732" lon="-0.06775">
        <ele>29.1</ele>
        <time>2023-10-15T06:55:47Z</time>
      </trkpt>
      <trkpt lat="49.21726" lon="-0.06775">
        <ele>29.1</ele>
        <time>2023-10-15T06:55:48Z</time>
      </trkpt>
      <trkpt lat="49.21719" lon="-0.06775">
        <ele>29</ele>
        <time>2023-10-15T06:55:49Z</time>
      </trkpt>
      <trkpt lat="49.21713" lon="-0.06774">
        <ele>29</ele>
        <time>2023-10-15T06:55:50Z</time>
      </trkpt>
      <trkpt lat="49.21707" lon="-0.06773">
        <ele>28.7</ele>
        <time>2023-10-15T06:55:51Z</time>
      </trkpt>
      <trkpt lat="49.217" lon="-0.06772">
        <ele>28.5</ele>
        <time>2023-10-15T06:55:52Z</time>
      </trkpt>
      <trkpt lat="49.21694" lon="-0.06772">
        <ele>28.1</ele>
        <time>2023-10-15T06:55:53Z</time>
      </trkpt>
      <trkpt lat="49.21687" lon="-0.06774">
        <ele>27.7</ele>
        <time>2023-10-15T06:55:54Z</time>
      </trkpt>
      <trkpt lat="49.21681" lon="-0.06779">
        <ele>27.2</ele>
        <time>2023-10-15T06:55:55Z</time>
      </trkpt>
      <trkpt lat="49.21676" lon="-0.06787">
        <ele>26.7</ele>
        <time>2023-10-15T06:55:56Z</time>
      </trkpt>
      <trkpt lat="49.21672" lon="-0.06797">
        <ele>26</ele>
        <time>2023-10-15T06:55:57Z</time>
      </trkpt>
      <trkpt lat="49.21668" lon="-0.06809">
        <ele>25.1</ele>
        <time>2023-10-15T06:55:58Z</time>
      </trkpt>
      <trkpt lat="49.21663" lon="-0.06821">
        <ele>24.2</ele>
        <time>2023-10-15T06:55:59Z</time>
      </trkpt>
      <trkpt lat="49.21658" lon="-0.06833">
        <ele>23.3</ele>
        <time>2023-10-15T06:56:00Z</time>
      </trkpt>
      <trkpt lat="49.21652" lon="-0.06844">
        <ele>22.5</ele>
        <time>2023-10-15T06:56:01Z</time>
      </trkpt>
      <trkpt lat="49.21646" lon="-0.06853">
        <ele>21.8</ele>
        <time>2023-10-15T06:56:02Z</time>
      </trkpt>
      <trkpt lat="49.21638" lon="-0.06862">
        <ele>21</ele>
        <time>2023-10-15T06:56:03Z</time>
      </trkpt>
      <trkpt lat="49.21629" lon="-0.06869">
        <ele>20.2</ele>
        <time>2023-10-15T06:56:04Z</time>
      </trkpt>
      <trkpt lat="49.21619" lon="-0.06874">
        <ele>19.5</ele>
        <time>2023-10-15T06:56:05Z</time>
      </trkpt>
      <trkpt lat="49.21609" lon="-0.06877">
        <ele>18.8</ele>
        <time>2023-10-15T06:56:06Z</time>
      </trkpt>
      <trkpt lat="49.21598" lon="-0.06879">
        <ele>18.2</ele>
        <time>2023-10-15T06:56:07Z</time>
      </trkpt>
      <trkpt lat="49.21587" lon="-0.06881">
        <ele>17.6</ele>
        <time>2023-10-15T06:56:08Z</time>
      </trkpt>
      <trkpt lat="49.21577" lon="-0.06882">
        <ele>17</ele>
        <time>2023-10-15T06:56:09Z</time>
      </trkpt>
      <trkpt lat="49.21566" lon="-0.06883">
        <ele>16.5</ele>
        <time>2023-10-15T06:56:10Z</time>
      </trkpt>
      <trkpt lat="49.21556" lon="-0.06883">
        <ele>16</ele>
        <time>2023-10-15T06:56:11Z</time>
      </trkpt>
      <trkpt lat="49.21546" lon="-0.06884">
        <ele>15.5</ele>
        <time>2023-10-15T06:56:12Z</time>
      </trkpt>
      <trkpt lat="49.21535" lon="-0.06885">
        <ele>15.1</ele>
        <time>2023-10-15T06:56:13Z</time>
      </trkpt>
      <trkpt lat="49.21525" lon="-0.06886">
        <ele>14.8</ele>
        <time>2023-10-15T06:56:14Z</time>
      </trkpt>
      <trkpt lat="49.21515" lon="-0.06887">
        <ele>14.6</ele>
        <time>2023-10-15T06:56:15Z</time>
      </trkpt>
      <trkpt lat="49.21505" lon="-0.06888">
        <ele>14.4</ele>
        <time>2023-10-15T06:56:16Z</time>
      </trkpt>
      <trkpt lat="49.21496" lon="-0.0689">
        <ele>14.3</ele>
        <time>2023-10-15T06:56:17Z</time>
      </trkpt>
      <trkpt lat="49.21486" lon="-0.06891">
        <ele>14.2</ele>
        <time>2023-10-15T06:56:18Z</time>
      </trkpt>
      <trkpt lat="49.21477" lon="-0.06892">
        <ele>14.2</ele>
        <time>2023-10-15T06:56:19Z</time>
      </trkpt>
      <trkpt lat="49.21469" lon="-0.06893">
        <ele>14.2</ele>
        <time>2023-10-15T06:56:20Z</time>
      </trkpt>
      <trkpt lat="49.2146" lon="-0.06894">
        <ele>14.2</ele>
        <time>2023-10-15T06:56:21Z</time>
      </trkpt>
      <trkpt lat="49.21453" lon="-0.06895">
        <ele>14.2</ele>
        <time>2023-10-15T06:56:22Z</time>
      </trkpt>
      <trkpt lat="49.21445" lon="-0.06896">
        <ele>14.3</ele>
        <time>2023-10-15T06:56:23Z</time>
      </trkpt>
      <trkpt lat="49.21437" lon="-0.06897">
        <ele>14.4</ele>
        <time>2023-10-15T06:56:24Z</time>
      </trkpt>
      <trkpt lat="49.21429" lon="-0.06898">
        <ele>14.5</ele>
        <time>2023-10-15T06:56:25Z</time>
      </trkpt>
      <trkpt lat="49.21422" lon="-0.06899">
        <ele>14.6</ele>
        <time>2023-10-15T06:56:26Z</time>
      </trkpt>
      <trkpt lat="49.21415" lon="-0.06901">
        <ele>14.7</ele>
        <time>2023-10-15T06:56:27Z</time>
      </trkpt>
      <trkpt lat="49.21407" lon="-0.06903">
        <ele>14.7</ele>
        <time>2023-10-15T06:56:28Z</time>
      </trkpt>
      <trkpt lat="49.21399" lon="-0.06904">
        <ele>14.8</ele>
        <time>2023-10-15T06:56:29Z</time>
      </trkpt>
      <trkpt lat="49.21392" lon="-0.06904">
        <ele>14.8</ele>
        <time>2023-10-15T06:56:30Z</time>
      </trkpt>
      <trkpt lat="49.21385" lon="-0.06905">
        <ele>14.8</ele>
        <time>2023-10-15T06:56:31Z</time>
      </trkpt>
      <trkpt lat="49.21378" lon="-0.06904">
        <ele>14.8</ele>
        <time>2023-10-15T06:56:32Z</time>
      </trkpt>
      <trkpt lat="49.2137" lon="-0.06903">
        <ele>14.7</ele>
        <time>2023-10-15T06:56:33Z</time>
      </trkpt>
      <trkpt lat="49.21363" lon="-0.06902">
        <ele>14.5</ele>
        <time>2023-10-15T06:56:34Z</time>
      </trkpt>
      <trkpt lat="49.21355" lon="-0.06901">
        <ele>14.3</ele>
        <time>2023-10-15T06:56:35Z</time>
      </trkpt>
      <trkpt lat="49.21347" lon="-0.069">
        <ele>14.1</ele>
        <time>2023-10-15T06:56:36Z</time>
      </trkpt>
      <trkpt lat="49.21339" lon="-0.06898">
        <ele>13.8</ele>
        <time>2023-10-15T06:56:37Z</time>
      </trkpt>
      <trkpt lat="49.21331" lon="-0.06897">
        <ele>13.5</ele>
        <time>2023-10-15T06:56:38Z</time>
      </trkpt>
      <trkpt lat="49.21323" lon="-0.06896">
        <ele>13.2</ele>
        <time>2023-10-15T06:56:39Z</time>
      </trkpt>
      <trkpt lat="49.21315" lon="-0.06894">
        <ele>12.9</ele>
        <time>2023-10-15T06:56:40Z</time>
      </trkpt>
      <trkpt lat="49.21306" lon="-0.06893">
        <ele>12.5</ele>
        <time>2023-10-15T06:56:41Z</time>
      </trkpt>
      <trkpt lat="49.21297" lon="-0.06892">
        <ele>12.1</ele>
        <time>2023-10-15T06:56:42Z</time>
      </trkpt>
      <trkpt lat="49.21288" lon="-0.06891">
        <ele>11.8</ele>
        <time>2023-10-15T06:56:43Z</time>
      </trkpt>
      <trkpt lat="49.21279" lon="-0.0689">
        <ele>11.4</ele>
        <time>2023-10-15T06:56:44Z</time>
      </trkpt>
      <trkpt lat="49.2127" lon="-0.06889">
        <ele>11.1</ele>
        <time>2023-10-15T06:56:45Z</time>
      </trkpt>
      <trkpt lat="49.21261" lon="-0.06887">
        <ele>10.8</ele>
        <time>2023-10-15T06:56:46Z</time>
      </trkpt>
      <trkpt lat="49.21252" lon="-0.06886">
        <ele>10.5</ele>
        <time>2023-10-15T06:56:47Z</time>
      </trkpt>
      <trkpt lat="49.21243" lon="-0.06885">
        <ele>10.3</ele>
        <time>2023-10-15T06:56:48Z</time>
      </trkpt>
      <trkpt lat="49.21234" lon="-0.06884">
        <ele>10.1</ele>
        <time>2023-10-15T06:56:49Z</time>
      </trkpt>
      <trkpt lat="49.21225" lon="-0.06883">
        <ele>9.9</ele>
        <time>2023-10-15T06:56:50Z</time>
      </trkpt>
      <trkpt lat="49.21216" lon="-0.06882">
        <ele>9.8</ele>
        <time>2023-10-15T06:56:51Z</time>
      </trkpt>
      <trkpt lat="49.21206" lon="-0.0688">
        <ele>9.6</ele>
        <time>2023-10-15T06:56:52Z</time>
      </trkpt>
      <trkpt lat="49.21197" lon="-0.06879">
        <ele>9.5</ele>
        <time>2023-10-15T06:56:53Z</time>
      </trkpt>
      <trkpt lat="49.21188" lon="-0.06878">
        <ele>9.3</ele>
        <time>2023-10-15T06:56:54Z</time>
      </trkpt>
      <trkpt lat="49.2118" lon="-0.06877">
        <ele>9.2</ele>
        <time>2023-10-15T06:56:55Z</time>
      </trkpt>
      <trkpt lat="49.21171" lon="-0.06876">
        <ele>9.1</ele>
        <time>2023-10-15T06:56:56Z</time>
      </trkpt>
      <trkpt lat="49.21163" lon="-0.06875">
        <ele>9</ele>
        <time>2023-10-15T06:56:57Z</time>
      </trkpt>
      <trkpt lat="49.21154" lon="-0.06875">
        <ele>8.9</ele>
        <time>2023-10-15T06:56:58Z</time>
      </trkpt>
      <trkpt lat="49.21146" lon="-0.06874">
        <ele>8.8</ele>
        <time>2023-10-15T06:56:59Z</time>
      </trkpt>
      <trkpt lat="49.21138" lon="-0.06872">
        <ele>8.8</ele>
        <time>2023-10-15T06:57:00Z</time>
      </trkpt>
      <trkpt lat="49.2113" lon="-0.06871">
        <ele>8.8</ele>
        <time>2023-10-15T06:57:01Z</time>
      </trkpt>
      <trkpt lat="49.21122" lon="-0.06869">
        <ele>8.9</ele>
        <time>2023-10-15T06:57:02Z</time>
      </trkpt>
      <trkpt lat="49.21113" lon="-0.06868">
        <ele>9</ele>
        <time>2023-10-15T06:57:03Z</time>
      </trkpt>
      <trkpt lat="49.21105" lon="-0.06866">
        <ele>8.9</ele>
        <time>2023-10-15T06:57:04Z</time>
      </trkpt>
      <trkpt lat="49.21097" lon="-0.06864">
        <ele>8.9</ele>
        <time>2023-10-15T06:57:05Z</time>
      </trkpt>
      <trkpt lat="49.21089" lon="-0.06863">
        <ele>8.9</ele>
        <time>2023-10-15T06:57:06Z</time>
      </trkpt>
      <trkpt lat="49.21081" lon="-0.06861">
        <ele>8.8</ele>
        <time>2023-10-15T06:57:07Z</time>
      </trkpt>
      <trkpt lat="49.21073" lon="-0.06859">
        <ele>8.8</ele>
        <time>2023-10-15T06:57:08Z</time>
      </trkpt>
      <trkpt lat="49.21065" lon="-0.06859">
        <ele>8.8</ele>
        <time>2023-10-15T06:57:09Z</time>
      </trkpt>
      <trkpt lat="49.21056" lon="-0.06859">
        <ele>8.7</ele>
        <time>2023-10-15T06:57:10Z</time>
      </trkpt>
      <trkpt lat="49.21048" lon="-0.0686">
        <ele>8.7</ele>
        <time>2023-10-15T06:57:11Z</time>
      </trkpt>
      <trkpt lat="49.21041" lon="-0.0686">
        <ele>8.7</ele>
        <time>2023-10-15T06:57:12Z</time>
      </trkpt>
      <trkpt lat="49.21033" lon="-0.06861">
        <ele>8.6</ele>
        <time>2023-10-15T06:57:13Z</time>
      </trkpt>
      <trkpt lat="49.21025" lon="-0.06862">
        <ele>8.6</ele>
        <time>2023-10-15T06:57:14Z</time>
      </trkpt>
      <trkpt lat="49.21018" lon="-0.06863">
        <ele>8.5</ele>
        <time>2023-10-15T06:57:15Z</time>
      </trkpt>
      <trkpt lat="49.2101" lon="-0.06865">
        <ele>8.5</ele>
        <time>2023-10-15T06:57:16Z</time>
      </trkpt>
      <trkpt lat="49.21002" lon="-0.06866">
        <ele>8.5</ele>
        <time>2023-10-15T06:57:17Z</time>
      </trkpt>
      <trkpt lat="49.20994" lon="-0.06866">
        <ele>8.4</ele>
        <time>2023-10-15T06:57:18Z</time>
      </trkpt>
      <trkpt lat="49.20987" lon="-0.06867">
        <ele>8.4</ele>
        <time>2023-10-15T06:57:19Z</time>
      </trkpt>
      <trkpt lat="49.20979" lon="-0.06867">
        <ele>8.4</ele>
        <time>2023-10-15T06:57:20Z</time>
      </trkpt>
      <trkpt lat="49.20971" lon="-0.06868">
        <ele>8.4</ele>
        <time>2023-10-15T06:57:21Z</time>
      </trkpt>
      <trkpt lat="49.20963" lon="-0.06868">
        <ele>8.3</ele>
        <time>2023-10-15T06:57:22Z</time>
      </trkpt>
      <trkpt lat="49.20955" lon="-0.06868">
        <ele>8.3</ele>
        <time>2023-10-15T06:57:23Z</time>
      </trkpt>
      <trkpt lat="49.20947" lon="-0.06869">
        <ele>8.3</ele>
        <time>2023-10-15T06:57:24Z</time>
      </trkpt>
      <trkpt lat="49.20939" lon="-0.06869">
        <ele>8.3</ele>
        <time>2023-10-15T06:57:25Z</time>
      </trkpt>
      <trkpt lat="49.20931" lon="-0.06869">
        <ele>8.3</ele>
        <time>2023-10-15T06:57:26Z</time>
      </trkpt>
      <trkpt lat="49.20923" lon="-0.06868">
        <ele>8.3</ele>
        <time>2023-10-15T06:57:27Z</time>
      </trkpt>
      <trkpt lat="49.20915" lon="-0.06866">
        <ele>8.3</ele>
        <time>2023-10-15T06:57:28Z</time>
      </trkpt>
      <trkpt lat="49.20908" lon="-0.06864">
        <ele>8.3</ele>
        <time>2023-10-15T06:57:29Z</time>
      </trkpt>
      <trkpt lat="49.209" lon="-0.06861">
        <ele>8.3</ele>
        <time>2023-10-15T06:57:30Z</time>
      </trkpt>
      <trkpt lat="49.20893" lon="-0.06857">
        <ele>8.3</ele>
        <time>2023-10-15T06:57:31Z</time>
      </trkpt>
      <trkpt lat="49.20885" lon="-0.06853">
        <ele>8.3</ele>
        <time>2023-10-15T06:57:32Z</time>
      </trkpt>
      <trkpt lat="49.20878" lon="-0.06849">
        <ele>8.3</ele>
        <time>2023-10-15T06:57:33Z</time>
      </trkpt>
      <trkpt lat="49.2087" lon="-0.06846">
        <ele>8.4</ele>
        <time>2023-10-15T06:57:34Z</time>
      </trkpt>
      <trkpt lat="49.20863" lon="-0.06845">
        <ele>8.4</ele>
        <time>2023-10-15T06:57:35Z</time>
      </trkpt>
      <trkpt lat="49.20855" lon="-0.06844">
        <ele>8.4</ele>
        <time>2023-10-15T06:57:36Z</time>
      </trkpt>
      <trkpt lat="49.20848" lon="-0.06842">
        <ele>8.4</ele>
        <time>2023-10-15T06:57:37Z</time>
      </trkpt>
      <trkpt lat="49.2084" lon="-0.06842">
        <ele>8.4</ele>
        <time>2023-10-15T06:57:38Z</time>
      </trkpt>
      <trkpt lat="49.20832" lon="-0.06841">
        <ele>8.4</ele>
        <time>2023-10-15T06:57:39Z</time>
      </trkpt>
      <trkpt lat="49.20824" lon="-0.06839">
        <ele>8.4</ele>
        <time>2023-10-15T06:57:40Z</time>
      </trkpt>
      <trkpt lat="49.20816" lon="-0.06836">
        <ele>8.5</ele>
        <time>2023-10-15T06:57:41Z</time>
      </trkpt>
      <trkpt lat="49.20809" lon="-0.06833">
        <ele>8.5</ele>
        <time>2023-10-15T06:57:42Z</time>
      </trkpt>
      <trkpt lat="49.20802" lon="-0.0683">
        <ele>8.5</ele>
        <time>2023-10-15T06:57:43Z</time>
      </trkpt>
      <trkpt lat="49.20795" lon="-0.06826">
        <ele>8.5</ele>
        <time>2023-10-15T06:57:44Z</time>
      </trkpt>
      <trkpt lat="49.20788" lon="-0.06821">
        <ele>8.5</ele>
        <time>2023-10-15T06:57:45Z</time>
      </trkpt>
      <trkpt lat="49.20781" lon="-0.06816">
        <ele>8.5</ele>
        <time>2023-10-15T06:57:46Z</time>
      </trkpt>
      <trkpt lat="49.20775" lon="-0.0681">
        <ele>8.6</ele>
        <time>2023-10-15T06:57:47Z</time>
      </trkpt>
      <trkpt lat="49.20769" lon="-0.06803">
        <ele>8.6</ele>
        <time>2023-10-15T06:57:48Z</time>
      </trkpt>
      <trkpt lat="49.20763" lon="-0.06797">
        <ele>8.7</ele>
        <time>2023-10-15T06:57:49Z</time>
      </trkpt>
      <trkpt lat="49.20757" lon="-0.0679">
        <ele>8.7</ele>
        <time>2023-10-15T06:57:50Z</time>
      </trkpt>
      <trkpt lat="49.20751" lon="-0.06784">
        <ele>8.8</ele>
        <time>2023-10-15T06:57:51Z</time>
      </trkpt>
      <trkpt lat="49.20745" lon="-0.06778">
        <ele>8.8</ele>
        <time>2023-10-15T06:57:52Z</time>
      </trkpt>
      <trkpt lat="49.20739" lon="-0.06772">
        <ele>8.8</ele>
        <time>2023-10-15T06:57:53Z</time>
      </trkpt>
      <trkpt lat="49.20733" lon="-0.06765">
        <ele>8.9</ele>
        <time>2023-10-15T06:57:54Z</time>
      </trkpt>
      <trkpt lat="49.20727" lon="-0.06759">
        <ele>8.9</ele>
        <time>2023-10-15T06:57:55Z</time>
      </trkpt>
      <trkpt lat="49.20721" lon="-0.06752">
        <ele>8.9</ele>
        <time>2023-10-15T06:57:56Z</time>
      </trkpt>
      <trkpt lat="49.20715" lon="-0.06746">
        <ele>8.9</ele>
        <time>2023-10-15T06:57:57Z</time>
      </trkpt>
      <trkpt lat="49.20708" lon="-0.06739">
        <ele>8.9</ele>
        <time>2023-10-15T06:57:58Z</time>
      </trkpt>
      <trkpt lat="49.20702" lon="-0.06733">
        <ele>8.9</ele>
        <time>2023-10-15T06:57:59Z</time>
      </trkpt>
      <trkpt lat="49.20696" lon="-0.06726">
        <ele>9</ele>
        <time>2023-10-15T06:58:00Z</time>
      </trkpt>
      <trkpt lat="49.20689" lon="-0.06719">
        <ele>9</ele>
        <time>2023-10-15T06:58:01Z</time>
      </trkpt>
      <trkpt lat="49.20683" lon="-0.06712">
        <ele>9</ele>
        <time>2023-10-15T06:58:02Z</time>
      </trkpt>
      <trkpt lat="49.20678" lon="-0.06705">
        <ele>9</ele>
        <time>2023-10-15T06:58:03Z</time>
      </trkpt>
      <trkpt lat="49.20671" lon="-0.06699">
        <ele>9.1</ele>
        <time>2023-10-15T06:58:04Z</time>
      </trkpt>
      <trkpt lat="49.20665" lon="-0.06692">
        <ele>9.1</ele>
        <time>2023-10-15T06:58:05Z</time>
      </trkpt>
      <trkpt lat="49.20659" lon="-0.06684">
        <ele>9.1</ele>
        <time>2023-10-15T06:58:06Z</time>
      </trkpt>
      <trkpt lat="49.20653" lon="-0.06677">
        <ele>9.2</ele>
        <time>2023-10-15T06:58:07Z</time>
      </trkpt>
      <trkpt lat="49.20647" lon="-0.0667">
        <ele>9.2</ele>
        <time>2023-10-15T06:58:08Z</time>
      </trkpt>
      <trkpt lat="49.20641" lon="-0.06662">
        <ele>9.2</ele>
        <time>2023-10-15T06:58:09Z</time>
      </trkpt>
      <trkpt lat="49.20635" lon="-0.06654">
        <ele>9.2</ele>
        <time>2023-10-15T06:58:10Z</time>
      </trkpt>
      <trkpt lat="49.20629" lon="-0.06646">
        <ele>9.2</ele>
        <time>2023-10-15T06:58:11Z</time>
      </trkpt>
      <trkpt lat="49.20624" lon="-0.06637">
        <ele>9.3</ele>
        <time>2023-10-15T06:58:12Z</time>
      </trkpt>
      <trkpt lat="49.20618" lon="-0.06629">
        <ele>9.3</ele>
        <time>2023-10-15T06:58:13Z</time>
      </trkpt>
      <trkpt lat="49.20612" lon="-0.06621">
        <ele>9.3</ele>
        <time>2023-10-15T06:58:14Z</time>
      </trkpt>
      <trkpt lat="49.20607" lon="-0.06612">
        <ele>9.3</ele>
        <time>2023-10-15T06:58:15Z</time>
      </trkpt>
      <trkpt lat="49.20601" lon="-0.06604">
        <ele>9.3</ele>
        <time>2023-10-15T06:58:16Z</time>
      </trkpt>
      <trkpt lat="49.20596" lon="-0.06595">
        <ele>9.3</ele>
        <time>2023-10-15T06:58:17Z</time>
      </trkpt>
      <trkpt lat="49.2059" lon="-0.06586">
        <ele>9.3</ele>
        <time>2023-10-15T06:58:18Z</time>
      </trkpt>
      <trkpt lat="49.20585" lon="-0.06578">
        <ele>9.3</ele>
        <time>2023-10-15T06:58:19Z</time>
      </trkpt>
      <trkpt lat="49.2058" lon="-0.0657">
        <ele>9.2</ele>
        <time>2023-10-15T06:58:20Z</time>
      </trkpt>
      <trkpt lat="49.20574" lon="-0.06561">
        <ele>9.2</ele>
        <time>2023-10-15T06:58:21Z</time>
      </trkpt>
      <trkpt lat="49.20569" lon="-0.06554">
        <ele>9.2</ele>
        <time>2023-10-15T06:58:22Z</time>
      </trkpt>
      <trkpt lat="49.20563" lon="-0.06547">
        <ele>9.2</ele>
        <time>2023-10-15T06:58:23Z</time>
      </trkpt>
      <trkpt lat="49.20556" lon="-0.0654">
        <ele>9.2</ele>
        <time>2023-10-15T06:58:24Z</time>
      </trkpt>
      <trkpt lat="49.20549" lon="-0.06534">
        <ele>9.1</ele>
        <time>2023-10-15T06:58:25Z</time>
      </trkpt>
      <trkpt lat="49.20542" lon="-0.06529">
        <ele>9.1</ele>
        <time>2023-10-15T06:58:26Z</time>
      </trkpt>
      <trkpt lat="49.20535" lon="-0.06523">
        <ele>9.1</ele>
        <time>2023-10-15T06:58:27Z</time>
      </trkpt>
      <trkpt lat="49.20528" lon="-0.06518">
        <ele>9.1</ele>
        <time>2023-10-15T06:58:28Z</time>
      </trkpt>
      <trkpt lat="49.2052" lon="-0.06512">
        <ele>9.1</ele>
        <time>2023-10-15T06:58:29Z</time>
      </trkpt>
      <trkpt lat="49.20514" lon="-0.06506">
        <ele>9.1</ele>
        <time>2023-10-15T06:58:30Z</time>
      </trkpt>
      <trkpt lat="49.20507" lon="-0.065">
        <ele>9.1</ele>
        <time>2023-10-15T06:58:31Z</time>
      </trkpt>
      <trkpt lat="49.205" lon="-0.06492">
        <ele>9</ele>
        <time>2023-10-15T06:58:32Z</time>
      </trkpt>
      <trkpt lat="49.20495" lon="-0.06484">
        <ele>9</ele>
        <time>2023-10-15T06:58:33Z</time>
      </trkpt>
      <trkpt lat="49.20489" lon="-0.06475">
        <ele>9</ele>
        <time>2023-10-15T06:58:34Z</time>
      </trkpt>
      <trkpt lat="49.20483" lon="-0.06467">
        <ele>9</ele>
        <time>2023-10-15T06:58:35Z</time>
      </trkpt>
      <trkpt lat="49.20478" lon="-0.06459">
        <ele>9</ele>
        <time>2023-10-15T06:58:36Z</time>
      </trkpt>
      <trkpt lat="49.20472" lon="-0.06451">
        <ele>9</ele>
        <time>2023-10-15T06:58:37Z</time>
      </trkpt>
      <trkpt lat="49.20465" lon="-0.06445">
        <ele>9</ele>
        <time>2023-10-15T06:58:38Z</time>
      </trkpt>
      <trkpt lat="49.20458" lon="-0.06439">
        <ele>9</ele>
        <time>2023-10-15T06:58:39Z</time>
      </trkpt>
      <trkpt lat="49.20452" lon="-0.06434">
        <ele>8.9</ele>
        <time>2023-10-15T06:58:40Z</time>
      </trkpt>
      <trkpt lat="49.20444" lon="-0.06429">
        <ele>8.9</ele>
        <time>2023-10-15T06:58:41Z</time>
      </trkpt>
      <trkpt lat="49.20437" lon="-0.06425">
        <ele>8.9</ele>
        <time>2023-10-15T06:58:42Z</time>
      </trkpt>
      <trkpt lat="49.20429" lon="-0.06422">
        <ele>8.9</ele>
        <time>2023-10-15T06:58:43Z</time>
      </trkpt>
      <trkpt lat="49.20422" lon="-0.06419">
        <ele>8.9</ele>
        <time>2023-10-15T06:58:44Z</time>
      </trkpt>
      <trkpt lat="49.20414" lon="-0.06415">
        <ele>8.9</ele>
        <time>2023-10-15T06:58:45Z</time>
      </trkpt>
      <trkpt lat="49.20407" lon="-0.06411">
        <ele>8.9</ele>
        <time>2023-10-15T06:58:46Z</time>
      </trkpt>
      <trkpt lat="49.204" lon="-0.06407">
        <ele>8.9</ele>
        <time>2023-10-15T06:58:47Z</time>
      </trkpt>
      <trkpt lat="49.20392" lon="-0.06403">
        <ele>8.9</ele>
        <time>2023-10-15T06:58:48Z</time>
      </trkpt>
      <trkpt lat="49.20385" lon="-0.06399">
        <ele>8.9</ele>
        <time>2023-10-15T06:58:49Z</time>
      </trkpt>
      <trkpt lat="49.20377" lon="-0.06395">
        <ele>8.8</ele>
        <time>2023-10-15T06:58:50Z</time>
      </trkpt>
      <trkpt lat="49.2037" lon="-0.06391">
        <ele>8.8</ele>
        <time>2023-10-15T06:58:51Z</time>
      </trkpt>
      <trkpt lat="49.20363" lon="-0.06386">
        <ele>8.7</ele>
        <time>2023-10-15T06:58:52Z</time>
      </trkpt>
      <trkpt lat="49.20355" lon="-0.06382">
        <ele>8.7</ele>
        <time>2023-10-15T06:58:53Z</time>
      </trkpt>
      <trkpt lat="49.20348" lon="-0.06379">
        <ele>8.6</ele>
        <time>2023-10-15T06:58:54Z</time>
      </trkpt>
      <trkpt lat="49.2034" lon="-0.06375">
        <ele>8.6</ele>
        <time>2023-10-15T06:58:55Z</time>
      </trkpt>
      <trkpt lat="49.20332" lon="-0.06371">
        <ele>8.6</ele>
        <time>2023-10-15T06:58:56Z</time>
      </trkpt>
      <trkpt lat="49.20324" lon="-0.06368">
        <ele>8.6</ele>
        <time>2023-10-15T06:58:57Z</time>
      </trkpt>
      <trkpt lat="49.20317" lon="-0.06364">
        <ele>8.5</ele>
        <time>2023-10-15T06:58:58Z</time>
      </trkpt>
      <trkpt lat="49.20309" lon="-0.06361">
        <ele>8.5</ele>
        <time>2023-10-15T06:58:59Z</time>
      </trkpt>
      <trkpt lat="49.20302" lon="-0.06357">
        <ele>8.4</ele>
        <time>2023-10-15T06:59:00Z</time>
      </trkpt>
      <trkpt lat="49.20294" lon="-0.06354">
        <ele>8.4</ele>
        <time>2023-10-15T06:59:01Z</time>
      </trkpt>
      <trkpt lat="49.20287" lon="-0.0635">
        <ele>8.4</ele>
        <time>2023-10-15T06:59:02Z</time>
      </trkpt>
      <trkpt lat="49.20279" lon="-0.06347">
        <ele>8.4</ele>
        <time>2023-10-15T06:59:03Z</time>
      </trkpt>
      <trkpt lat="49.20272" lon="-0.06344">
        <ele>8.4</ele>
        <time>2023-10-15T06:59:04Z</time>
      </trkpt>
      <trkpt lat="49.20265" lon="-0.06341">
        <ele>8.3</ele>
        <time>2023-10-15T06:59:05Z</time>
      </trkpt>
      <trkpt lat="49.20258" lon="-0.06337">
        <ele>8.3</ele>
        <time>2023-10-15T06:59:06Z</time>
      </trkpt>
      <trkpt lat="49.20251" lon="-0.06333">
        <ele>8.3</ele>
        <time>2023-10-15T06:59:07Z</time>
      </trkpt>
      <trkpt lat="49.20243" lon="-0.06329">
        <ele>8.2</ele>
        <time>2023-10-15T06:59:08Z</time>
      </trkpt>
      <trkpt lat="49.20236" lon="-0.06325">
        <ele>8.2</ele>
        <time>2023-10-15T06:59:09Z</time>
      </trkpt>
      <trkpt lat="49.20228" lon="-0.06321">
        <ele>8.1</ele>
        <time>2023-10-15T06:59:10Z</time>
      </trkpt>
      <trkpt lat="49.20221" lon="-0.06317">
        <ele>8.1</ele>
        <time>2023-10-15T06:59:11Z</time>
      </trkpt>
      <trkpt lat="49.20214" lon="-0.06314">
        <ele>8.1</ele>
        <time>2023-10-15T06:59:12Z</time>
      </trkpt>
      <trkpt lat="49.20206" lon="-0.06313">
        <ele>8</ele>
        <time>2023-10-15T06:59:13Z</time>
      </trkpt>
      <trkpt lat="49.20199" lon="-0.06313">
        <ele>8</ele>
        <time>2023-10-15T06:59:14Z</time>
      </trkpt>
      <trkpt lat="49.20191" lon="-0.06316">
        <ele>8</ele>
        <time>2023-10-15T06:59:15Z</time>
      </trkpt>
      <trkpt lat="49.20184" lon="-0.06321">
        <ele>7.9</ele>
        <time>2023-10-15T06:59:16Z</time>
      </trkpt>
      <trkpt lat="49.20177" lon="-0.06327">
        <ele>7.9</ele>
        <time>2023-10-15T06:59:17Z</time>
      </trkpt>
      <trkpt lat="49.20171" lon="-0.06335">
        <ele>7.9</ele>
        <time>2023-10-15T06:59:18Z</time>
      </trkpt>
      <trkpt lat="49.20165" lon="-0.06342">
        <ele>7.8</ele>
        <time>2023-10-15T06:59:19Z</time>
      </trkpt>
      <trkpt lat="49.20159" lon="-0.0635">
        <ele>7.8</ele>
        <time>2023-10-15T06:59:20Z</time>
      </trkpt>
      <trkpt lat="49.20153" lon="-0.06358">
        <ele>7.8</ele>
        <time>2023-10-15T06:59:21Z</time>
      </trkpt>
      <trkpt lat="49.20148" lon="-0.06366">
        <ele>7.7</ele>
        <time>2023-10-15T06:59:22Z</time>
      </trkpt>
      <trkpt lat="49.20142" lon="-0.06375">
        <ele>7.7</ele>
        <time>2023-10-15T06:59:23Z</time>
      </trkpt>
      <trkpt lat="49.20137" lon="-0.06383">
        <ele>7.7</ele>
        <time>2023-10-15T06:59:24Z</time>
      </trkpt>
      <trkpt lat="49.20132" lon="-0.06392">
        <ele>7.7</ele>
        <time>2023-10-15T06:59:25Z</time>
      </trkpt>
      <trkpt lat="49.20127" lon="-0.06401">
        <ele>7.7</ele>
        <time>2023-10-15T06:59:26Z</time>
      </trkpt>
      <trkpt lat="49.20123" lon="-0.06411">
        <ele>7.7</ele>
        <time>2023-10-15T06:59:27Z</time>
      </trkpt>
      <trkpt lat="49.20119" lon="-0.06421">
        <ele>7.7</ele>
        <time>2023-10-15T06:59:28Z</time>
      </trkpt>
      <trkpt lat="49.20115" lon="-0.06432">
        <ele>7.6</ele>
        <time>2023-10-15T06:59:29Z</time>
      </trkpt>
      <trkpt lat="49.2011" lon="-0.06442">
        <ele>7.6</ele>
        <time>2023-10-15T06:59:30Z</time>
      </trkpt>
      <trkpt lat="49.20105" lon="-0.06451">
        <ele>7.6</ele>
        <time>2023-10-15T06:59:31Z</time>
      </trkpt>
      <trkpt lat="49.20099" lon="-0.06459">
        <ele>7.5</ele>
        <time>2023-10-15T06:59:32Z</time>
      </trkpt>
      <trkpt lat="49.20093" lon="-0.06467">
        <ele>7.5</ele>
        <time>2023-10-15T06:59:33Z</time>
      </trkpt>
      <trkpt lat="49.20086" lon="-0.06473">
        <ele>7.5</ele>
        <time>2023-10-15T06:59:34Z</time>
      </trkpt>
      <trkpt lat="49.2008" lon="-0.06479">
        <ele>7.5</ele>
        <time>2023-10-15T06:59:35Z</time>
      </trkpt>
      <trkpt lat="49.20073" lon="-0.06484">
        <ele>7.4</ele>
        <time>2023-10-15T06:59:36Z</time>
      </trkpt>
      <trkpt lat="49.20066" lon="-0.0649">
        <ele>7.4</ele>
        <time>2023-10-15T06:59:37Z</time>
      </trkpt>
      <trkpt lat="49.20059" lon="-0.06497">
        <ele>7.4</ele>
        <time>2023-10-15T06:59:38Z</time>
      </trkpt>
      <trkpt lat="49.20053" lon="-0.06504">
        <ele>7.4</ele>
        <time>2023-10-15T06:59:39Z</time>
      </trkpt>
      <trkpt lat="49.20047" lon="-0.06511">
        <ele>7.4</ele>
        <time>2023-10-15T06:59:40Z</time>
      </trkpt>
      <trkpt lat="49.20041" lon="-0.06518">
        <ele>7.4</ele>
        <time>2023-10-15T06:59:41Z</time>
      </trkpt>
      <trkpt lat="49.20035" lon="-0.06526">
        <ele>7.4</ele>
        <time>2023-10-15T06:59:42Z</time>
      </trkpt>
      <trkpt lat="49.20029" lon="-0.06532">
        <ele>7.4</ele>
        <time>2023-10-15T06:59:43Z</time>
      </trkpt>
      <trkpt lat="49.20022" lon="-0.06538">
        <ele>7.4</ele>
        <time>2023-10-15T06:59:44Z</time>
      </trkpt>
      <trkpt lat="49.20015" lon="-0.06544">
        <ele>7.3</ele>
        <time>2023-10-15T06:59:45Z</time>
      </trkpt>
      <trkpt lat="49.20008" lon="-0.06548">
        <ele>7.3</ele>
        <time>2023-10-15T06:59:46Z</time>
      </trkpt>
      <trkpt lat="49.2" lon="-0.06552">
        <ele>7.3</ele>
        <time>2023-10-15T06:59:47Z</time>
      </trkpt>
      <trkpt lat="49.19992" lon="-0.06555">
        <ele>7.3</ele>
        <time>2023-10-15T06:59:48Z</time>
      </trkpt>
      <trkpt lat="49.19984" lon="-0.06557">
        <ele>7.3</ele>
        <time>2023-10-15T06:59:49Z</time>
      </trkpt>
      <trkpt lat="49.19976" lon="-0.06558">
        <ele>7.3</ele>
        <time>2023-10-15T06:59:50Z</time>
      </trkpt>
      <trkpt lat="49.19969" lon="-0.06558">
        <ele>7.3</ele>
        <time>2023-10-15T06:59:51Z</time>
      </trkpt>
      <trkpt lat="49.19961" lon="-0.06558">
        <ele>7.3</ele>
        <time>2023-10-15T06:59:52Z</time>
      </trkpt>
      <trkpt lat="49.19953" lon="-0.06558">
        <ele>7.2</ele>
        <time>2023-10-15T06:59:53Z</time>
      </trkpt>
      <trkpt lat="49.19945" lon="-0.06559">
        <ele>7.2</ele>
        <time>2023-10-15T06:59:54Z</time>
      </trkpt>
      <trkpt lat="49.19937" lon="-0.06559">
        <ele>7.2</ele>
        <time>2023-10-15T06:59:55Z</time>
      </trkpt>
      <trkpt lat="49.19929" lon="-0.0656">
        <ele>7.2</ele>
        <time>2023-10-15T06:59:56Z</time>
      </trkpt>
      <trkpt lat="49.19921" lon="-0.06561">
        <ele>7.2</ele>
        <time>2023-10-15T06:59:57Z</time>
      </trkpt>
      <trkpt lat="49.19913" lon="-0.06562">
        <ele>7.2</ele>
        <time>2023-10-15T06:59:58Z</time>
      </trkpt>
      <trkpt lat="49.19906" lon="-0.06562">
        <ele>7.2</ele>
        <time>2023-10-15T06:59:59Z</time>
      </trkpt>
      <trkpt lat="49.19898" lon="-0.06561">
        <ele>7.2</ele>
        <time>2023-10-15T07:00:00Z</time>
      </trkpt>
      <trkpt lat="49.1989" lon="-0.06561">
        <ele>7.2</ele>
        <time>2023-10-15T07:00:01Z</time>
      </trkpt>
      <trkpt lat="49.19883" lon="-0.0656">
        <ele>7.2</ele>
        <time>2023-10-15T07:00:02Z</time>
      </trkpt>
      <trkpt lat="49.19875" lon="-0.06559">
        <ele>7.2</ele>
        <time>2023-10-15T07:00:03Z</time>
      </trkpt>
      <trkpt lat="49.19867" lon="-0.06556">
        <ele>7.2</ele>
        <time>2023-10-15T07:00:04Z</time>
      </trkpt>
      <trkpt lat="49.1986" lon="-0.06554">
        <ele>7.2</ele>
        <time>2023-10-15T07:00:05Z</time>
      </trkpt>
      <trkpt lat="49.19852" lon="-0.06551">
        <ele>7.3</ele>
        <time>2023-10-15T07:00:06Z</time>
      </trkpt>
      <trkpt lat="49.19845" lon="-0.06547">
        <ele>7.3</ele>
        <time>2023-10-15T07:00:07Z</time>
      </trkpt>
      <trkpt lat="49.19838" lon="-0.06543">
        <ele>7.4</ele>
        <time>2023-10-15T07:00:08Z</time>
      </trkpt>
      <trkpt lat="49.19831" lon="-0.06539">
        <ele>7.4</ele>
        <time>2023-10-15T07:00:09Z</time>
      </trkpt>
      <trkpt lat="49.19824" lon="-0.06534">
        <ele>7.5</ele>
        <time>2023-10-15T07:00:10Z</time>
      </trkpt>
      <trkpt lat="49.19816" lon="-0.0653">
        <ele>7.6</ele>
        <time>2023-10-15T07:00:11Z</time>
      </trkpt>
      <trkpt lat="49.19809" lon="-0.06525">
        <ele>7.6</ele>
        <time>2023-10-15T07:00:12Z</time>
      </trkpt>
      <trkpt lat="49.19801" lon="-0.06521">
        <ele>7.6</ele>
        <time>2023-10-15T07:00:13Z</time>
      </trkpt>
      <trkpt lat="49.19794" lon="-0.06516">
        <ele>7.6</ele>
        <time>2023-10-15T07:00:14Z</time>
      </trkpt>
      <trkpt lat="49.19786" lon="-0.06512">
        <ele>7.7</ele>
        <time>2023-10-15T07:00:15Z</time>
      </trkpt>
      <trkpt lat="49.19779" lon="-0.06507">
        <ele>7.7</ele>
        <time>2023-10-15T07:00:16Z</time>
      </trkpt>
      <trkpt lat="49.19772" lon="-0.06502">
        <ele>7.7</ele>
        <time>2023-10-15T07:00:17Z</time>
      </trkpt>
      <trkpt lat="49.19765" lon="-0.06498">
        <ele>7.8</ele>
        <time>2023-10-15T07:00:18Z</time>
      </trkpt>
      <trkpt lat="49.19758" lon="-0.06492">
        <ele>7.8</ele>
        <time>2023-10-15T07:00:19Z</time>
      </trkpt>
      <trkpt lat="49.19752" lon="-0.06487">
        <ele>7.9</ele>
        <time>2023-10-15T07:00:20Z</time>
      </trkpt>
      <trkpt lat="49.19745" lon="-0.06481">
        <ele>8</ele>
        <time>2023-10-15T07:00:21Z</time>
      </trkpt>
      <trkpt lat="49.19739" lon="-0.06474">
        <ele>8.1</ele>
        <time>2023-10-15T07:00:22Z</time>
      </trkpt>
      <trkpt lat="49.19734" lon="-0.06466">
        <ele>8.2</ele>
        <time>2023-10-15T07:00:23Z</time>
      </trkpt>
      <trkpt lat="49.19729" lon="-0.06456">
        <ele>8.3</ele>
        <time>2023-10-15T07:00:24Z</time>
      </trkpt>
      <trkpt lat="49.19724" lon="-0.06446">
        <ele>8.4</ele>
        <time>2023-10-15T07:00:25Z</time>
      </trkpt>
      <trkpt lat="49.1972" lon="-0.06437">
        <ele>8.4</ele>
        <time>2023-10-15T07:00:26Z</time>
      </trkpt>
      <trkpt lat="49.19716" lon="-0.06427">
        <ele>8.5</ele>
        <time>2023-10-15T07:00:27Z</time>
      </trkpt>
      <trkpt lat="49.19712" lon="-0.06418">
        <ele>8.5</ele>
        <time>2023-10-15T07:00:28Z</time>
      </trkpt>
      <trkpt lat="49.19708" lon="-0.06408">
        <ele>8.6</ele>
        <time>2023-10-15T07:00:29Z</time>
      </trkpt>
      <trkpt lat="49.19704" lon="-0.06399">
        <ele>8.7</ele>
        <time>2023-10-15T07:00:30Z</time>
      </trkpt>
      <trkpt lat="49.19699" lon="-0.0639">
        <ele>8.8</ele>
        <time>2023-10-15T07:00:31Z</time>
      </trkpt>
      <trkpt lat="49.19695" lon="-0.06381">
        <ele>8.9</ele>
        <time>2023-10-15T07:00:32Z</time>
      </trkpt>
      <trkpt lat="49.1969" lon="-0.06373">
        <ele>9</ele>
        <time>2023-10-15T07:00:33Z</time>
      </trkpt>
      <trkpt lat="49.19684" lon="-0.06365">
        <ele>9.1</ele>
        <time>2023-10-15T07:00:34Z</time>
      </trkpt>
      <trkpt lat="49.19679" lon="-0.06358">
        <ele>9.1</ele>
        <time>2023-10-15T07:00:35Z</time>
      </trkpt>
      <trkpt lat="49.19673" lon="-0.06351">
        <ele>9.2</ele>
        <time>2023-10-15T07:00:36Z</time>
      </trkpt>
      <trkpt lat="49.19666" lon="-0.06345">
        <ele>9.3</ele>
        <time>2023-10-15T07:00:37Z</time>
      </trkpt>
      <trkpt lat="49.1966" lon="-0.06339">
        <ele>9.4</ele>
        <time>2023-10-15T07:00:38Z</time>
      </trkpt>
      <trkpt lat="49.19653" lon="-0.06334">
        <ele>9.5</ele>
        <time>2023-10-15T07:00:39Z</time>
      </trkpt>
      <trkpt lat="49.19647" lon="-0.06329">
        <ele>9.6</ele>
        <time>2023-10-15T07:00:40Z</time>
      </trkpt>
      <trkpt lat="49.1964" lon="-0.06325">
        <ele>9.7</ele>
        <time>2023-10-15T07:00:41Z</time>
      </trkpt>
      <trkpt lat="49.19633" lon="-0.0632">
        <ele>9.7</ele>
        <time>2023-10-15T07:00:42Z</time>
      </trkpt>
      <trkpt lat="49.19626" lon="-0.06315">
        <ele>9.8</ele>
        <time>2023-10-15T07:00:43Z</time>
      </trkpt>
      <trkpt lat="49.1962" lon="-0.0631">
        <ele>9.9</ele>
        <time>2023-10-15T07:00:44Z</time>
      </trkpt>
      <trkpt lat="49.19614" lon="-0.06305">
        <ele>9.9</ele>
        <time>2023-10-15T07:00:45Z</time>
      </trkpt>
      <trkpt lat="49.19607" lon="-0.063">
        <ele>10</ele>
        <time>2023-10-15T07:00:46Z</time>
      </trkpt>
      <trkpt lat="49.19601" lon="-0.06295">
        <ele>10.1</ele>
        <time>2023-10-15T07:00:47Z</time>
      </trkpt>
      <trkpt lat="49.19594" lon="-0.0629">
        <ele>10.2</ele>
        <time>2023-10-15T07:00:48Z</time>
      </trkpt>
      <trkpt lat="49.19588" lon="-0.06284">
        <ele>10.3</ele>
        <time>2023-10-15T07:00:49Z</time>
      </trkpt>
      <trkpt lat="49.19581" lon="-0.06279">
        <ele>10.3</ele>
        <time>2023-10-15T07:00:50Z</time>
      </trkpt>
      <trkpt lat="49.19575" lon="-0.06273">
        <ele>10.4</ele>
        <time>2023-10-15T07:00:51Z</time>
      </trkpt>
      <trkpt lat="49.19569" lon="-0.06268">
        <ele>10.5</ele>
        <time>2023-10-15T07:00:52Z</time>
      </trkpt>
      <trkpt lat="49.19563" lon="-0.06262">
        <ele>10.6</ele>
        <time>2023-10-15T07:00:53Z</time>
      </trkpt>
      <trkpt lat="49.19557" lon="-0.06255">
        <ele>10.7</ele>
        <time>2023-10-15T07:00:54Z</time>
      </trkpt>
      <trkpt lat="49.19551" lon="-0.06248">
        <ele>10.8</ele>
        <time>2023-10-15T07:00:55Z</time>
      </trkpt>
      <trkpt lat="49.19545" lon="-0.0624">
        <ele>10.9</ele>
        <time>2023-10-15T07:00:56Z</time>
      </trkpt>
      <trkpt lat="49.1954" lon="-0.06232">
        <ele>11</ele>
        <time>2023-10-15T07:00:57Z</time>
      </trkpt>
      <trkpt lat="49.19536" lon="-0.06223">
        <ele>11.1</ele>
        <time>2023-10-15T07:00:58Z</time>
      </trkpt>
      <trkpt lat="49.19532" lon="-0.06214">
        <ele>11.2</ele>
        <time>2023-10-15T07:00:59Z</time>
      </trkpt>
      <trkpt lat="49.19528" lon="-0.06204">
        <ele>11.3</ele>
        <time>2023-10-15T07:01:00Z</time>
      </trkpt>
      <trkpt lat="49.19525" lon="-0.06194">
        <ele>11.4</ele>
        <time>2023-10-15T07:01:01Z</time>
      </trkpt>
      <trkpt lat="49.19522" lon="-0.06183">
        <ele>11.5</ele>
        <time>2023-10-15T07:01:02Z</time>
      </trkpt>
      <trkpt lat="49.19519" lon="-0.06173">
        <ele>11.6</ele>
        <time>2023-10-15T07:01:03Z</time>
      </trkpt>
      <trkpt lat="49.19517" lon="-0.06162">
        <ele>11.8</ele>
        <time>2023-10-15T07:01:04Z</time>
      </trkpt>
      <trkpt lat="49.19515" lon="-0.06151">
        <ele>11.9</ele>
        <time>2023-10-15T07:01:05Z</time>
      </trkpt>
      <trkpt lat="49.19513" lon="-0.06139">
        <ele>12</ele>
        <time>2023-10-15T07:01:06Z</time>
      </trkpt>
      <trkpt lat="49.19512" lon="-0.06128">
        <ele>12.1</ele>
        <time>2023-10-15T07:01:07Z</time>
      </trkpt>
      <trkpt lat="49.1951" lon="-0.06117">
        <ele>12.1</ele>
        <time>2023-10-15T07:01:08Z</time>
      </trkpt>
      <trkpt lat="49.19509" lon="-0.06105">
        <ele>12.2</ele>
        <time>2023-10-15T07:01:09Z</time>
      </trkpt>
      <trkpt lat="49.19508" lon="-0.06094">
        <ele>12.3</ele>
        <time>2023-10-15T07:01:10Z</time>
      </trkpt>
      <trkpt lat="49.19506" lon="-0.06082">
        <ele>12.3</ele>
        <time>2023-10-15T07:01:11Z</time>
      </trkpt>
      <trkpt lat="49.19505" lon="-0.06072">
        <ele>12.4</ele>
        <time>2023-10-15T07:01:12Z</time>
      </trkpt>
      <trkpt lat="49.19503" lon="-0.0606">
        <ele>12.5</ele>
        <time>2023-10-15T07:01:13Z</time>
      </trkpt>
      <trkpt lat="49.19501" lon="-0.06049">
        <ele>12.5</ele>
        <time>2023-10-15T07:01:14Z</time>
      </trkpt>
      <trkpt lat="49.195" lon="-0.06038">
        <ele>12.6</ele>
        <time>2023-10-15T07:01:15Z</time>
      </trkpt>
      <trkpt lat="49.19498" lon="-0.06028">
        <ele>12.7</ele>
        <time>2023-10-15T07:01:16Z</time>
      </trkpt>
      <trkpt lat="49.19497" lon="-0.06017">
        <ele>12.7</ele>
        <time>2023-10-15T07:01:17Z</time>
      </trkpt>
      <trkpt lat="49.19495" lon="-0.06008">
        <ele>12.7</ele>
        <time>2023-10-15T07:01:18Z</time>
      </trkpt>
      <trkpt lat="49.19494" lon="-0.05998">
        <ele>12.8</ele>
        <time>2023-10-15T07:01:19Z</time>
      </trkpt>
      <trkpt lat="49.19492" lon="-0.05988">
        <ele>12.8</ele>
        <time>2023-10-15T07:01:20Z</time>
      </trkpt>
      <trkpt lat="49.19491" lon="-0.05979">
        <ele>12.8</ele>
        <time>2023-10-15T07:01:21Z</time>
      </trkpt>
      <trkpt lat="49.1949" lon="-0.0597">
        <ele>12.9</ele>
        <time>2023-10-15T07:01:22Z</time>
      </trkpt>
      <trkpt lat="49.19489" lon="-0.0596">
        <ele>12.9</ele>
        <time>2023-10-15T07:01:23Z</time>
      </trkpt>
      <trkpt lat="49.19487" lon="-0.05951">
        <ele>13</ele>
        <time>2023-10-15T07:01:24Z</time>
      </trkpt>
      <trkpt lat="49.19487" lon="-0.05942">
        <ele>13</ele>
        <time>2023-10-15T07:01:25Z</time>
      </trkpt>
      <trkpt lat="49.19486" lon="-0.05932">
        <ele>13</ele>
        <time>2023-10-15T07:01:26Z</time>
      </trkpt>
      <trkpt lat="49.19486" lon="-0.05922">
        <ele>13.1</ele>
        <time>2023-10-15T07:01:27Z</time>
      </trkpt>
      <trkpt lat="49.19486" lon="-0.05912">
        <ele>13.1</ele>
        <time>2023-10-15T07:01:28Z</time>
      </trkpt>
      <trkpt lat="49.19486" lon="-0.05902">
        <ele>13.1</ele>
        <time>2023-10-15T07:01:29Z</time>
      </trkpt>
      <trkpt lat="49.19487" lon="-0.05893">
        <ele>13.2</ele>
        <time>2023-10-15T07:01:30Z</time>
      </trkpt>
      <trkpt lat="49.19488" lon="-0.05884">
        <ele>13.2</ele>
        <time>2023-10-15T07:01:31Z</time>
      </trkpt>
      <trkpt lat="49.19489" lon="-0.05875">
        <ele>13.2</ele>
        <time>2023-10-15T07:01:32Z</time>
      </trkpt>
      <trkpt lat="49.1949" lon="-0.05866">
        <ele>13.2</ele>
        <time>2023-10-15T07:01:33Z</time>
      </trkpt>
      <trkpt lat="49.19491" lon="-0.05858">
        <ele>13.3</ele>
        <time>2023-10-15T07:01:34Z</time>
      </trkpt>
      <trkpt lat="49.19492" lon="-0.0585">
        <ele>13.3</ele>
        <time>2023-10-15T07:01:35Z</time>
      </trkpt>
      <trkpt lat="49.19493" lon="-0.05842">
        <ele>13.3</ele>
        <time>2023-10-15T07:01:36Z</time>
      </trkpt>
      <trkpt lat="49.19494" lon="-0.05834">
        <ele>13.3</ele>
        <time>2023-10-15T07:01:37Z</time>
      </trkpt>
      <trkpt lat="49.19495" lon="-0.05827">
        <ele>13.3</ele>
        <time>2023-10-15T07:01:38Z</time>
      </trkpt>
      <trkpt lat="49.19496" lon="-0.0582">
        <ele>13.3</ele>
        <time>2023-10-15T07:01:39Z</time>
      </trkpt>
      <trkpt lat="49.19497" lon="-0.05814">
        <ele>13.3</ele>
        <time>2023-10-15T07:01:40Z</time>
      </trkpt>
      <trkpt lat="49.19498" lon="-0.05808">
        <ele>13.3</ele>
        <time>2023-10-15T07:01:41Z</time>
      </trkpt>
      <trkpt lat="49.19499" lon="-0.05801">
        <ele>13.3</ele>
        <time>2023-10-15T07:01:42Z</time>
      </trkpt>
      <trkpt lat="49.195" lon="-0.05795">
        <ele>13.3</ele>
        <time>2023-10-15T07:01:43Z</time>
      </trkpt>
      <trkpt lat="49.195" lon="-0.05789">
        <ele>13.3</ele>
        <time>2023-10-15T07:01:44Z</time>
      </trkpt>
      <trkpt lat="49.19501" lon="-0.05783">
        <ele>13.4</ele>
        <time>2023-10-15T07:01:45Z</time>
      </trkpt>
      <trkpt lat="49.19502" lon="-0.05778">
        <ele>13.4</ele>
        <time>2023-10-15T07:01:46Z</time>
      </trkpt>
      <trkpt lat="49.19502" lon="-0.05772">
        <ele>13.4</ele>
        <time>2023-10-15T07:01:47Z</time>
      </trkpt>
      <trkpt lat="49.19503" lon="-0.05767">
        <ele>13.4</ele>
        <time>2023-10-15T07:01:48Z</time>
      </trkpt>
      <trkpt lat="49.19504" lon="-0.05762">
        <ele>13.4</ele>
        <time>2023-10-15T07:01:49Z</time>
      </trkpt>
      <trkpt lat="49.19504" lon="-0.05756">
        <ele>13.5</ele>
        <time>2023-10-15T07:01:50Z</time>
      </trkpt>
      <trkpt lat="49.19505" lon="-0.05751">
        <ele>13.5</ele>
        <time>2023-10-15T07:01:51Z</time>
      </trkpt>
      <trkpt lat="49.19505" lon="-0.05745">
        <ele>13.5</ele>
        <time>2023-10-15T07:01:52Z</time>
      </trkpt>
      <trkpt lat="49.19506" lon="-0.05738">
        <ele>13.5</ele>
        <time>2023-10-15T07:01:53Z</time>
      </trkpt>
      <trkpt lat="49.19507" lon="-0.05732">
        <ele>13.6</ele>
        <time>2023-10-15T07:01:54Z</time>
      </trkpt>
      <trkpt lat="49.19507" lon="-0.05726">
        <ele>13.6</ele>
        <time>2023-10-15T07:01:55Z</time>
      </trkpt>
      <trkpt lat="49.19508" lon="-0.05721">
        <ele>13.6</ele>
        <time>2023-10-15T07:01:56Z</time>
      </trkpt>
      <trkpt lat="49.19509" lon="-0.05715">
        <ele>13.6</ele>
        <time>2023-10-15T07:01:57Z</time>
      </trkpt>
      <trkpt lat="49.1951" lon="-0.05709">
        <ele>13.7</ele>
        <time>2023-10-15T07:01:58Z</time>
      </trkpt>
      <trkpt lat="49.1951" lon="-0.05704">
        <ele>13.7</ele>
        <time>2023-10-15T07:01:59Z</time>
      </trkpt>
      <trkpt lat="49.19511" lon="-0.05699">
        <ele>13.7</ele>
        <time>2023-10-15T07:02:00Z</time>
      </trkpt>
      <trkpt lat="49.19511" lon="-0.05694">
        <ele>13.8</ele>
        <time>2023-10-15T07:02:01Z</time>
      </trkpt>
      <trkpt lat="49.19512" lon="-0.05688">
        <ele>13.8</ele>
        <time>2023-10-15T07:02:02Z</time>
      </trkpt>
      <trkpt lat="49.19513" lon="-0.05683">
        <ele>13.8</ele>
        <time>2023-10-15T07:02:03Z</time>
      </trkpt>
      <trkpt lat="49.19513" lon="-0.05678">
        <ele>13.9</ele>
        <time>2023-10-15T07:02:04Z</time>
      </trkpt>
      <trkpt lat="49.19514" lon="-0.05674">
        <ele>13.9</ele>
        <time>2023-10-15T07:02:05Z</time>
      </trkpt>
      <trkpt lat="49.19514" lon="-0.05669">
        <ele>13.9</ele>
        <time>2023-10-15T07:02:06Z</time>
      </trkpt>
      <trkpt lat="49.19514" lon="-0.05664">
        <ele>14</ele>
        <time>2023-10-15T07:02:07Z</time>
      </trkpt>
      <trkpt lat="49.19515" lon="-0.0566">
        <ele>14</ele>
        <time>2023-10-15T07:02:08Z</time>
      </trkpt>
      <trkpt lat="49.19515" lon="-0.05655">
        <ele>14</ele>
        <time>2023-10-15T07:02:09Z</time>
      </trkpt>
      <trkpt lat="49.19516" lon="-0.05651">
        <ele>14.1</ele>
        <time>2023-10-15T07:02:10Z</time>
      </trkpt>
      <trkpt lat="49.19516" lon="-0.05647">
        <ele>14.1</ele>
        <time>2023-10-15T07:02:11Z</time>
      </trkpt>
      <trkpt lat="49.19517" lon="-0.05643">
        <ele>14.2</ele>
        <time>2023-10-15T07:02:12Z</time>
      </trkpt>
      <trkpt lat="49.19518" lon="-0.05637">
        <ele>14.2</ele>
        <time>2023-10-15T07:02:13Z</time>
      </trkpt>
      <trkpt lat="49.19518" lon="-0.05635">
        <ele>14.2</ele>
        <time>2023-10-15T07:02:14Z</time>
      </trkpt>
      <trkpt lat="49.19518" lon="-0.05629">
        <ele>14.3</ele>
        <time>2023-10-15T07:02:15Z</time>
      </trkpt>
      <trkpt lat="49.19519" lon="-0.05627">
        <ele>14.3</ele>
        <time>2023-10-15T07:02:16Z</time>
      </trkpt>
      <trkpt lat="49.19519" lon="-0.05622">
        <ele>14.4</ele>
        <time>2023-10-15T07:02:17Z</time>
      </trkpt>
      <trkpt lat="49.19519" lon="-0.05618">
        <ele>14.4</ele>
        <time>2023-10-15T07:02:18Z</time>
      </trkpt>
      <trkpt lat="49.19519" lon="-0.05613">
        <ele>14.5</ele>
        <time>2023-10-15T07:02:19Z</time>
      </trkpt>
      <trkpt lat="49.19519" lon="-0.05608">
        <ele>14.6</ele>
        <time>2023-10-15T07:02:20Z</time>
      </trkpt>
      <trkpt lat="49.19519" lon="-0.05602">
        <ele>14.6</ele>
        <time>2023-10-15T07:02:21Z</time>
      </trkpt>
      <trkpt lat="49.19519" lon="-0.05597">
        <ele>14.7</ele>
        <time>2023-10-15T07:02:22Z</time>
      </trkpt>
      <trkpt lat="49.19518" lon="-0.05592">
        <ele>14.8</ele>
        <time>2023-10-15T07:02:23Z</time>
      </trkpt>
      <trkpt lat="49.19518" lon="-0.05587">
        <ele>14.8</ele>
        <time>2023-10-15T07:02:24Z</time>
      </trkpt>
      <trkpt lat="49.19518" lon="-0.05582">
        <ele>14.9</ele>
        <time>2023-10-15T07:02:25Z</time>
      </trkpt>
      <trkpt lat="49.19517" lon="-0.05577">
        <ele>15</ele>
        <time>2023-10-15T07:02:26Z</time>
      </trkpt>
      <trkpt lat="49.19517" lon="-0.05572">
        <ele>15</ele>
        <time>2023-10-15T07:02:27Z</time>
      </trkpt>
      <trkpt lat="49.19517" lon="-0.05567">
        <ele>15.1</ele>
        <time>2023-10-15T07:02:28Z</time>
      </trkpt>
      <trkpt lat="49.19516" lon="-0.05562">
        <ele>15.2</ele>
        <time>2023-10-15T07:02:29Z</time>
      </trkpt>
      <trkpt lat="49.19515" lon="-0.05557">
        <ele>15.2</ele>
        <time>2023-10-15T07:02:30Z</time>
      </trkpt>
      <trkpt lat="49.19515" lon="-0.0555">
        <ele>15.3</ele>
        <time>2023-10-15T07:02:31Z</time>
      </trkpt>
      <trkpt lat="49.19514" lon="-0.05545">
        <ele>15.4</ele>
        <time>2023-10-15T07:02:32Z</time>
      </trkpt>
      <trkpt lat="49.19513" lon="-0.05539">
        <ele>15.4</ele>
        <time>2023-10-15T07:02:33Z</time>
      </trkpt>
      <trkpt lat="49.19512" lon="-0.05533">
        <ele>15.5</ele>
        <time>2023-10-15T07:02:34Z</time>
      </trkpt>
      <trkpt lat="49.19511" lon="-0.05528">
        <ele>15.6</ele>
        <time>2023-10-15T07:02:35Z</time>
      </trkpt>
      <trkpt lat="49.1951" lon="-0.05522">
        <ele>15.6</ele>
        <time>2023-10-15T07:02:36Z</time>
      </trkpt>
      <trkpt lat="49.19509" lon="-0.05516">
        <ele>15.7</ele>
        <time>2023-10-15T07:02:37Z</time>
      </trkpt>
      <trkpt lat="49.19508" lon="-0.0551">
        <ele>15.8</ele>
        <time>2023-10-15T07:02:38Z</time>
      </trkpt>
      <trkpt lat="49.19507" lon="-0.05505">
        <ele>15.8</ele>
        <time>2023-10-15T07:02:39Z</time>
      </trkpt>
      <trkpt lat="49.19506" lon="-0.055">
        <ele>15.9</ele>
        <time>2023-10-15T07:02:40Z</time>
      </trkpt>
      <trkpt lat="49.19505" lon="-0.05495">
        <ele>16</ele>
        <time>2023-10-15T07:02:41Z</time>
      </trkpt>
      <trkpt lat="49.19504" lon="-0.05489">
        <ele>16.1</ele>
        <time>2023-10-15T07:02:42Z</time>
      </trkpt>
      <trkpt lat="49.19503" lon="-0.05484">
        <ele>16.1</ele>
        <time>2023-10-15T07:02:43Z</time>
      </trkpt>
      <trkpt lat="49.19502" lon="-0.05478">
        <ele>16.2</ele>
        <time>2023-10-15T07:02:44Z</time>
      </trkpt>
      <trkpt lat="49.19501" lon="-0.05473">
        <ele>16.3</ele>
        <time>2023-10-15T07:02:45Z</time>
      </trkpt>
      <trkpt lat="49.195" lon="-0.05468">
        <ele>16.4</ele>
        <time>2023-10-15T07:02:46Z</time>
      </trkpt>
      <trkpt lat="49.19499" lon="-0.05463">
        <ele>16.4</ele>
        <time>2023-10-15T07:02:47Z</time>
      </trkpt>
      <trkpt lat="49.19498" lon="-0.05458">
        <ele>16.5</ele>
        <time>2023-10-15T07:02:48Z</time>
      </trkpt>
      <trkpt lat="49.19497" lon="-0.05453">
        <ele>16.6</ele>
        <time>2023-10-15T07:02:49Z</time>
      </trkpt>
      <trkpt lat="49.19496" lon="-0.05448">
        <ele>16.6</ele>
        <time>2023-10-15T07:02:50Z</time>
      </trkpt>
      <trkpt lat="49.19496" lon="-0.05443">
        <ele>16.7</ele>
        <time>2023-10-15T07:02:51Z</time>
      </trkpt>
      <trkpt lat="49.19495" lon="-0.05439">
        <ele>16.8</ele>
        <time>2023-10-15T07:02:52Z</time>
      </trkpt>
      <trkpt lat="49.19494" lon="-0.05434">
        <ele>16.9</ele>
        <time>2023-10-15T07:02:53Z</time>
      </trkpt>
      <trkpt lat="49.19494" lon="-0.05432">
        <ele>16.9</ele>
        <time>2023-10-15T07:02:54Z</time>
      </trkpt>
      <trkpt lat="49.19493" lon="-0.05429">
        <ele>16.9</ele>
        <time>2023-10-15T07:02:55Z</time>
      </trkpt>
      <trkpt lat="49.19492" lon="-0.05427">
        <ele>17</ele>
        <time>2023-10-15T07:02:56Z</time>
      </trkpt>
      <trkpt lat="49.19492" lon="-0.05426">
        <ele>17</ele>
        <time>2023-10-15T07:02:57Z</time>
      </trkpt>
      <trkpt lat="49.19492" lon="-0.05426">
        <ele>17</ele>
        <time>2023-10-15T07:02:58Z</time>
      </trkpt>
      <trkpt lat="49.19493" lon="-0.05427">
        <ele>17</ele>
        <time>2023-10-15T07:02:59Z</time>
      </trkpt>
      <trkpt lat="49.19493" lon="-0.05428">
        <ele>17</ele>
        <time>2023-10-15T07:03:00Z</time>
      </trkpt>
      <trkpt lat="49.19493" lon="-0.05428">
        <ele>17</ele>
        <time>2023-10-15T07:03:01Z</time>
      </trkpt>
      <trkpt lat="49.19494" lon="-0.05429">
        <ele>17.1</ele>
        <time>2023-10-15T07:03:02Z</time>
      </trkpt>
      <trkpt lat="49.19494" lon="-0.0543">
        <ele>17.1</ele>
        <time>2023-10-15T07:03:03Z</time>
      </trkpt>
      <trkpt lat="49.19494" lon="-0.0543">
        <ele>17.1</ele>
        <time>2023-10-15T07:03:04Z</time>
      </trkpt>
      <trkpt lat="49.19495" lon="-0.05431">
        <ele>17.1</ele>
        <time>2023-10-15T07:03:05Z</time>
      </trkpt>
      <trkpt lat="49.19495" lon="-0.05431">
        <ele>17.1</ele>
        <time>2023-10-15T07:03:06Z</time>
      </trkpt>
      <trkpt lat="49.19496" lon="-0.05432">
        <ele>17.1</ele>
        <time>2023-10-15T07:03:07Z</time>
      </trkpt>
      <trkpt lat="49.19496" lon="-0.05433">
        <ele>17.1</ele>
        <time>2023-10-15T07:03:08Z</time>
      </trkpt>
      <trkpt lat="49.19496" lon="-0.05433">
        <ele>17.2</ele>
        <time>2023-10-15T07:03:09Z</time>
      </trkpt>
      <trkpt lat="49.19497" lon="-0.05434">
        <ele>17.2</ele>
        <time>2023-10-15T07:03:38Z</time>
      </trkpt>
      <trkpt lat="49.19497" lon="-0.05434">
        <ele>17.2</ele>
        <time>2023-10-15T07:03:39Z</time>
      </trkpt>
      <trkpt lat="49.19497" lon="-0.05435">
        <ele>17.2</ele>
        <time>2023-10-15T07:03:40Z</time>
      </trkpt>
      <trkpt lat="49.19498" lon="-0.0544">
        <ele>17.1</ele>
        <time>2023-10-15T07:03:41Z</time>
      </trkpt>
      <trkpt lat="49.195" lon="-0.05446">
        <ele>17</ele>
        <time>2023-10-15T07:03:42Z</time>
      </trkpt>
      <trkpt lat="49.19501" lon="-0.05453">
        <ele>16.9</ele>
        <time>2023-10-15T07:03:43Z</time>
      </trkpt>
      <trkpt lat="49.19502" lon="-0.0546">
        <ele>16.8</ele>
        <time>2023-10-15T07:03:44Z</time>
      </trkpt>
      <trkpt lat="49.19503" lon="-0.05468">
        <ele>16.6</ele>
        <time>2023-10-15T07:03:45Z</time>
      </trkpt>
      <trkpt lat="49.19505" lon="-0.05477">
        <ele>16.5</ele>
        <time>2023-10-15T07:03:46Z</time>
      </trkpt>
      <trkpt lat="49.19507" lon="-0.05486">
        <ele>16.4</ele>
        <time>2023-10-15T07:03:47Z</time>
      </trkpt>
      <trkpt lat="49.19508" lon="-0.05495">
        <ele>16.3</ele>
        <time>2023-10-15T07:03:48Z</time>
      </trkpt>
      <trkpt lat="49.1951" lon="-0.05504">
        <ele>16.1</ele>
        <time>2023-10-15T07:03:49Z</time>
      </trkpt>
      <trkpt lat="49.19512" lon="-0.05514">
        <ele>16</ele>
        <time>2023-10-15T07:03:50Z</time>
      </trkpt>
      <trkpt lat="49.19514" lon="-0.05523">
        <ele>15.9</ele>
        <time>2023-10-15T07:03:51Z</time>
      </trkpt>
      <trkpt lat="49.19515" lon="-0.05533">
        <ele>15.7</ele>
        <time>2023-10-15T07:03:52Z</time>
      </trkpt>
      <trkpt lat="49.19517" lon="-0.05544">
        <ele>15.6</ele>
        <time>2023-10-15T07:03:53Z</time>
      </trkpt>
      <trkpt lat="49.19518" lon="-0.05554">
        <ele>15.5</ele>
        <time>2023-10-15T07:03:54Z</time>
      </trkpt>
      <trkpt lat="49.19519" lon="-0.05565">
        <ele>15.4</ele>
        <time>2023-10-15T07:03:55Z</time>
      </trkpt>
      <trkpt lat="49.1952" lon="-0.05575">
        <ele>15.3</ele>
        <time>2023-10-15T07:03:56Z</time>
      </trkpt>
      <trkpt lat="49.19521" lon="-0.05585">
        <ele>15.1</ele>
        <time>2023-10-15T07:03:57Z</time>
      </trkpt>
      <trkpt lat="49.19521" lon="-0.05596">
        <ele>15</ele>
        <time>2023-10-15T07:03:58Z</time>
      </trkpt>
      <trkpt lat="49.19521" lon="-0.05607">
        <ele>14.9</ele>
        <time>2023-10-15T07:03:59Z</time>
      </trkpt>
      <trkpt lat="49.19521" lon="-0.05617">
        <ele>14.7</ele>
        <time>2023-10-15T07:04:00Z</time>
      </trkpt>
      <trkpt lat="49.1952" lon="-0.05628">
        <ele>14.6</ele>
        <time>2023-10-15T07:04:01Z</time>
      </trkpt>
      <trkpt lat="49.19519" lon="-0.05639">
        <ele>14.4</ele>
        <time>2023-10-15T07:04:02Z</time>
      </trkpt>
      <trkpt lat="49.19518" lon="-0.05651">
        <ele>14.3</ele>
        <time>2023-10-15T07:04:03Z</time>
      </trkpt>
      <trkpt lat="49.19516" lon="-0.05663">
        <ele>14.2</ele>
        <time>2023-10-15T07:04:04Z</time>
      </trkpt>
      <trkpt lat="49.19515" lon="-0.05674">
        <ele>14.1</ele>
        <time>2023-10-15T07:04:05Z</time>
      </trkpt>
      <trkpt lat="49.19514" lon="-0.05686">
        <ele>14</ele>
        <time>2023-10-15T07:04:06Z</time>
      </trkpt>
      <trkpt lat="49.19513" lon="-0.05697">
        <ele>13.9</ele>
        <time>2023-10-15T07:04:07Z</time>
      </trkpt>
      <trkpt lat="49.19511" lon="-0.05708">
        <ele>13.8</ele>
        <time>2023-10-15T07:04:08Z</time>
      </trkpt>
      <trkpt lat="49.1951" lon="-0.05719">
        <ele>13.7</ele>
        <time>2023-10-15T07:04:09Z</time>
      </trkpt>
      <trkpt lat="49.19508" lon="-0.0573">
        <ele>13.7</ele>
        <time>2023-10-15T07:04:10Z</time>
      </trkpt>
      <trkpt lat="49.19507" lon="-0.05741">
        <ele>13.6</ele>
        <time>2023-10-15T07:04:11Z</time>
      </trkpt>
      <trkpt lat="49.19506" lon="-0.05752">
        <ele>13.6</ele>
        <time>2023-10-15T07:04:12Z</time>
      </trkpt>
      <trkpt lat="49.19504" lon="-0.05763">
        <ele>13.5</ele>
        <time>2023-10-15T07:04:13Z</time>
      </trkpt>
      <trkpt lat="49.19503" lon="-0.05774">
        <ele>13.5</ele>
        <time>2023-10-15T07:04:14Z</time>
      </trkpt>
      <trkpt lat="49.19502" lon="-0.05785">
        <ele>13.4</ele>
        <time>2023-10-15T07:04:15Z</time>
      </trkpt>
      <trkpt lat="49.19501" lon="-0.05795">
        <ele>13.4</ele>
        <time>2023-10-15T07:04:16Z</time>
      </trkpt>
      <trkpt lat="49.195" lon="-0.05806">
        <ele>13.4</ele>
        <time>2023-10-15T07:04:17Z</time>
      </trkpt>
      <trkpt lat="49.19498" lon="-0.05817">
        <ele>13.3</ele>
        <time>2023-10-15T07:04:18Z</time>
      </trkpt>
      <trkpt lat="49.19497" lon="-0.05828">
        <ele>13.3</ele>
        <time>2023-10-15T07:04:19Z</time>
      </trkpt>
      <trkpt lat="49.19496" lon="-0.05838">
        <ele>13.3</ele>
        <time>2023-10-15T07:04:20Z</time>
      </trkpt>
      <trkpt lat="49.19495" lon="-0.05849">
        <ele>13.3</ele>
        <time>2023-10-15T07:04:21Z</time>
      </trkpt>
      <trkpt lat="49.19493" lon="-0.0586">
        <ele>13.3</ele>
        <time>2023-10-15T07:04:22Z</time>
      </trkpt>
      <trkpt lat="49.19492" lon="-0.05871">
        <ele>13.3</ele>
        <time>2023-10-15T07:04:23Z</time>
      </trkpt>
      <trkpt lat="49.1949" lon="-0.05882">
        <ele>13.2</ele>
        <time>2023-10-15T07:04:24Z</time>
      </trkpt>
      <trkpt lat="49.19489" lon="-0.05892">
        <ele>13.2</ele>
        <time>2023-10-15T07:04:25Z</time>
      </trkpt>
      <trkpt lat="49.19489" lon="-0.05902">
        <ele>13.2</ele>
        <time>2023-10-15T07:04:26Z</time>
      </trkpt>
      <trkpt lat="49.19489" lon="-0.05912">
        <ele>13.2</ele>
        <time>2023-10-15T07:04:27Z</time>
      </trkpt>
      <trkpt lat="49.19488" lon="-0.0592">
        <ele>13.2</ele>
        <time>2023-10-15T07:04:28Z</time>
      </trkpt>
      <trkpt lat="49.19488" lon="-0.05926">
        <ele>13.1</ele>
        <time>2023-10-15T07:04:29Z</time>
      </trkpt>
      <trkpt lat="49.19488" lon="-0.05932">
        <ele>13.2</ele>
        <time>2023-10-15T07:04:30Z</time>
      </trkpt>
      <trkpt lat="49.19489" lon="-0.05936">
        <ele>13.2</ele>
        <time>2023-10-15T07:04:31Z</time>
      </trkpt>
      <trkpt lat="49.19489" lon="-0.05939">
        <ele>13.2</ele>
        <time>2023-10-15T07:04:32Z</time>
      </trkpt>
      <trkpt lat="49.19489" lon="-0.05941">
        <ele>13.2</ele>
        <time>2023-10-15T07:04:33Z</time>
      </trkpt>
      <trkpt lat="49.19488" lon="-0.0594">
        <ele>13.2</ele>
        <time>2023-10-15T07:04:34Z</time>
      </trkpt>
      <trkpt lat="49.19487" lon="-0.05939">
        <ele>13.2</ele>
        <time>2023-10-15T07:04:35Z</time>
      </trkpt>
      <trkpt lat="49.19487" lon="-0.05938">
        <ele>13.2</ele>
        <time>2023-10-15T07:04:36Z</time>
      </trkpt>
      <trkpt lat="49.19486" lon="-0.05937">
        <ele>13.2</ele>
        <time>2023-10-15T07:04:37Z</time>
      </trkpt>
      <trkpt lat="49.19486" lon="-0.05936">
        <ele>13.2</ele>
        <time>2023-10-15T07:04:38Z</time>
      </trkpt>
      <trkpt lat="49.19486" lon="-0.05936">
        <ele>13.2</ele>
        <time>2023-10-15T07:04:39Z</time>
      </trkpt>
      <trkpt lat="49.19486" lon="-0.05936">
        <ele>13.2</ele>
        <time>2023-10-15T07:04:40Z</time>
      </trkpt>
      <trkpt lat="49.19486" lon="-0.05936">
        <ele>13.2</ele>
        <time>2023-10-15T07:04:41Z</time>
      </trkpt>
      <trkpt lat="49.19486" lon="-0.05936">
        <ele>13.2</ele>
        <time>2023-10-15T07:04:42Z</time>
      </trkpt>
      <trkpt lat="49.19486" lon="-0.05935">
        <ele>13.2</ele>
        <time>2023-10-15T07:04:43Z</time>
      </trkpt>
      <trkpt lat="49.19486" lon="-0.05935">
        <ele>13.2</ele>
        <time>2023-10-15T07:04:44Z</time>
      </trkpt>
      <trkpt lat="49.19486" lon="-0.05936">
        <ele>13.2</ele>
        <time>2023-10-15T07:04:45Z</time>
      </trkpt>
      <trkpt lat="49.19486" lon="-0.05936">
        <ele>13.2</ele>
        <time>2023-10-15T07:04:46Z</time>
      </trkpt>
      <trkpt lat="49.19487" lon="-0.05933">
        <ele>13.2</ele>
        <time>2023-10-15T07:14:53Z</time>
      </trkpt>
      <trkpt lat="49.19488" lon="-0.0593">
        <ele>13.2</ele>
        <time>2023-10-15T07:14:54Z</time>
      </trkpt>
      <trkpt lat="49.19488" lon="-0.05928">
        <ele>13.2</ele>
        <time>2023-10-15T07:14:55Z</time>
      </trkpt>
      <trkpt lat="49.19487" lon="-0.05922">
        <ele>13.2</ele>
        <time>2023-10-15T07:14:56Z</time>
      </trkpt>
      <trkpt lat="49.19487" lon="-0.05921">
        <ele>13.2</ele>
        <time>2023-10-15T07:14:57Z</time>
      </trkpt>
      <trkpt lat="49.19488" lon="-0.05915">
        <ele>13.2</ele>
        <time>2023-10-15T07:14:58Z</time>
      </trkpt>
      <trkpt lat="49.19488" lon="-0.05914">
        <ele>13.2</ele>
        <time>2023-10-15T07:14:59Z</time>
      </trkpt>
      <trkpt lat="49.19488" lon="-0.05908">
        <ele>13.3</ele>
        <time>2023-10-15T07:15:00Z</time>
      </trkpt>
      <trkpt lat="49.19488" lon="-0.05906">
        <ele>13.3</ele>
        <time>2023-10-15T07:15:01Z</time>
      </trkpt>
      <trkpt lat="49.19488" lon="-0.05901">
        <ele>13.3</ele>
        <time>2023-10-15T07:15:02Z</time>
      </trkpt>
      <trkpt lat="49.19488" lon="-0.05896">
        <ele>13.3</ele>
        <time>2023-10-15T07:15:03Z</time>
      </trkpt>
      <trkpt lat="49.19488" lon="-0.0589">
        <ele>13.3</ele>
        <time>2023-10-15T07:15:04Z</time>
      </trkpt>
      <trkpt lat="49.19488" lon="-0.05884">
        <ele>13.3</ele>
        <time>2023-10-15T07:15:05Z</time>
      </trkpt>
      <trkpt lat="49.19489" lon="-0.05879">
        <ele>13.3</ele>
        <time>2023-10-15T07:15:06Z</time>
      </trkpt>
      <trkpt lat="49.1949" lon="-0.05872">
        <ele>13.3</ele>
        <time>2023-10-15T07:15:07Z</time>
      </trkpt>
      <trkpt lat="49.1949" lon="-0.05866">
        <ele>13.3</ele>
        <time>2023-10-15T07:15:08Z</time>
      </trkpt>
      <trkpt lat="49.19491" lon="-0.05859">
        <ele>13.3</ele>
        <time>2023-10-15T07:15:09Z</time>
      </trkpt>
      <trkpt lat="49.19492" lon="-0.05852">
        <ele>13.3</ele>
        <time>2023-10-15T07:15:10Z</time>
      </trkpt>
      <trkpt lat="49.19493" lon="-0.05844">
        <ele>13.3</ele>
        <time>2023-10-15T07:15:11Z</time>
      </trkpt>
      <trkpt lat="49.19494" lon="-0.05837">
        <ele>13.3</ele>
        <time>2023-10-15T07:15:12Z</time>
      </trkpt>
      <trkpt lat="49.19496" lon="-0.05829">
        <ele>13.4</ele>
        <time>2023-10-15T07:15:13Z</time>
      </trkpt>
      <trkpt lat="49.19497" lon="-0.05821">
        <ele>13.4</ele>
        <time>2023-10-15T07:15:14Z</time>
      </trkpt>
      <trkpt lat="49.19497" lon="-0.05813">
        <ele>13.4</ele>
        <time>2023-10-15T07:15:15Z</time>
      </trkpt>
      <trkpt lat="49.19498" lon="-0.05804">
        <ele>13.4</ele>
        <time>2023-10-15T07:15:16Z</time>
      </trkpt>
      <trkpt lat="49.19499" lon="-0.05795">
        <ele>13.5</ele>
        <time>2023-10-15T07:15:17Z</time>
      </trkpt>
      <trkpt lat="49.195" lon="-0.05787">
        <ele>13.5</ele>
        <time>2023-10-15T07:15:18Z</time>
      </trkpt>
      <trkpt lat="49.19501" lon="-0.05778">
        <ele>13.5</ele>
        <time>2023-10-15T07:15:19Z</time>
      </trkpt>
      <trkpt lat="49.19502" lon="-0.0577">
        <ele>13.6</ele>
        <time>2023-10-15T07:15:20Z</time>
      </trkpt>
      <trkpt lat="49.19503" lon="-0.05761">
        <ele>13.6</ele>
        <time>2023-10-15T07:15:21Z</time>
      </trkpt>
      <trkpt lat="49.19504" lon="-0.05752">
        <ele>13.7</ele>
        <time>2023-10-15T07:15:22Z</time>
      </trkpt>
      <trkpt lat="49.19505" lon="-0.05743">
        <ele>13.7</ele>
        <time>2023-10-15T07:15:23Z</time>
      </trkpt>
      <trkpt lat="49.19506" lon="-0.05734">
        <ele>13.8</ele>
        <time>2023-10-15T07:15:24Z</time>
      </trkpt>
      <trkpt lat="49.19507" lon="-0.05725">
        <ele>13.8</ele>
        <time>2023-10-15T07:15:25Z</time>
      </trkpt>
      <trkpt lat="49.19508" lon="-0.05716">
        <ele>13.9</ele>
        <time>2023-10-15T07:15:26Z</time>
      </trkpt>
      <trkpt lat="49.19509" lon="-0.05706">
        <ele>14</ele>
        <time>2023-10-15T07:15:27Z</time>
      </trkpt>
      <trkpt lat="49.1951" lon="-0.05697">
        <ele>14</ele>
        <time>2023-10-15T07:15:28Z</time>
      </trkpt>
      <trkpt lat="49.19511" lon="-0.05687">
        <ele>14.1</ele>
        <time>2023-10-15T07:15:29Z</time>
      </trkpt>
      <trkpt lat="49.19512" lon="-0.05678">
        <ele>14.2</ele>
        <time>2023-10-15T07:15:30Z</time>
      </trkpt>
      <trkpt lat="49.19513" lon="-0.05669">
        <ele>14.3</ele>
        <time>2023-10-15T07:15:31Z</time>
      </trkpt>
      <trkpt lat="49.19514" lon="-0.0566">
        <ele>14.4</ele>
        <time>2023-10-15T07:15:32Z</time>
      </trkpt>
      <trkpt lat="49.19515" lon="-0.0565">
        <ele>14.5</ele>
        <time>2023-10-15T07:15:33Z</time>
      </trkpt>
      <trkpt lat="49.19517" lon="-0.05641">
        <ele>14.6</ele>
        <time>2023-10-15T07:15:34Z</time>
      </trkpt>
      <trkpt lat="49.19518" lon="-0.05632">
        <ele>14.7</ele>
        <time>2023-10-15T07:15:35Z</time>
      </trkpt>
      <trkpt lat="49.19519" lon="-0.05623">
        <ele>14.8</ele>
        <time>2023-10-15T07:15:36Z</time>
      </trkpt>
      <trkpt lat="49.19519" lon="-0.05615">
        <ele>14.9</ele>
        <time>2023-10-15T07:15:37Z</time>
      </trkpt>
      <trkpt lat="49.19519" lon="-0.05606">
        <ele>15</ele>
        <time>2023-10-15T07:15:38Z</time>
      </trkpt>
      <trkpt lat="49.19519" lon="-0.05597">
        <ele>15.1</ele>
        <time>2023-10-15T07:15:39Z</time>
      </trkpt>
      <trkpt lat="49.19519" lon="-0.05589">
        <ele>15.2</ele>
        <time>2023-10-15T07:15:40Z</time>
      </trkpt>
      <trkpt lat="49.19519" lon="-0.0558">
        <ele>15.3</ele>
        <time>2023-10-15T07:15:41Z</time>
      </trkpt>
      <trkpt lat="49.19518" lon="-0.05571">
        <ele>15.4</ele>
        <time>2023-10-15T07:15:42Z</time>
      </trkpt>
      <trkpt lat="49.19517" lon="-0.05562">
        <ele>15.5</ele>
        <time>2023-10-15T07:15:43Z</time>
      </trkpt>
      <trkpt lat="49.19516" lon="-0.05553">
        <ele>15.6</ele>
        <time>2023-10-15T07:15:44Z</time>
      </trkpt>
      <trkpt lat="49.19515" lon="-0.05545">
        <ele>15.7</ele>
        <time>2023-10-15T07:15:45Z</time>
      </trkpt>
      <trkpt lat="49.19514" lon="-0.05537">
        <ele>15.8</ele>
        <time>2023-10-15T07:15:46Z</time>
      </trkpt>
      <trkpt lat="49.19512" lon="-0.05529">
        <ele>15.9</ele>
        <time>2023-10-15T07:15:47Z</time>
      </trkpt>
      <trkpt lat="49.19511" lon="-0.05521">
        <ele>16</ele>
        <time>2023-10-15T07:15:48Z</time>
      </trkpt>
      <trkpt lat="49.19509" lon="-0.05514">
        <ele>16.1</ele>
        <time>2023-10-15T07:15:49Z</time>
      </trkpt>
      <trkpt lat="49.19508" lon="-0.05507">
        <ele>16.2</ele>
        <time>2023-10-15T07:15:50Z</time>
      </trkpt>
      <trkpt lat="49.19506" lon="-0.05501">
        <ele>16.3</ele>
        <time>2023-10-15T07:15:51Z</time>
      </trkpt>
      <trkpt lat="49.19505" lon="-0.05493">
        <ele>16.4</ele>
        <time>2023-10-15T07:15:52Z</time>
      </trkpt>
      <trkpt lat="49.19504" lon="-0.05486">
        <ele>16.5</ele>
        <time>2023-10-15T07:15:53Z</time>
      </trkpt>
      <trkpt lat="49.19502" lon="-0.05478">
        <ele>16.6</ele>
        <time>2023-10-15T07:15:54Z</time>
      </trkpt>
      <trkpt lat="49.195" lon="-0.05471">
        <ele>16.7</ele>
        <time>2023-10-15T07:15:55Z</time>
      </trkpt>
      <trkpt lat="49.19499" lon="-0.05464">
        <ele>16.8</ele>
        <time>2023-10-15T07:15:56Z</time>
      </trkpt>
      <trkpt lat="49.19498" lon="-0.05456">
        <ele>16.9</ele>
        <time>2023-10-15T07:15:57Z</time>
      </trkpt>
      <trkpt lat="49.19497" lon="-0.05449">
        <ele>17</ele>
        <time>2023-10-15T07:15:58Z</time>
      </trkpt>
      <trkpt lat="49.19496" lon="-0.05441">
        <ele>17.1</ele>
        <time>2023-10-15T07:15:59Z</time>
      </trkpt>
      <trkpt lat="49.19495" lon="-0.05434">
        <ele>17.3</ele>
        <time>2023-10-15T07:16:00Z</time>
      </trkpt>
      <trkpt lat="49.19494" lon="-0.05426">
        <ele>17.4</ele>
        <time>2023-10-15T07:16:01Z</time>
      </trkpt>
      <trkpt lat="49.19494" lon="-0.05418">
        <ele>17.5</ele>
        <time>2023-10-15T07:16:02Z</time>
      </trkpt>
      <trkpt lat="49.19493" lon="-0.0541">
        <ele>17.6</ele>
        <time>2023-10-15T07:16:03Z</time>
      </trkpt>
      <trkpt lat="49.19494" lon="-0.05402">
        <ele>17.7</ele>
        <time>2023-10-15T07:16:04Z</time>
      </trkpt>
      <trkpt lat="49.19494" lon="-0.05394">
        <ele>17.7</ele>
        <time>2023-10-15T07:16:05Z</time>
      </trkpt>
      <trkpt lat="49.19495" lon="-0.05386">
        <ele>17.8</ele>
        <time>2023-10-15T07:16:06Z</time>
      </trkpt>
      <trkpt lat="49.19495" lon="-0.05377">
        <ele>17.9</ele>
        <time>2023-10-15T07:16:07Z</time>
      </trkpt>
      <trkpt lat="49.19496" lon="-0.05368">
        <ele>18</ele>
        <time>2023-10-15T07:16:08Z</time>
      </trkpt>
      <trkpt lat="49.19496" lon="-0.05359">
        <ele>18.1</ele>
        <time>2023-10-15T07:16:09Z</time>
      </trkpt>
      <trkpt lat="49.19497" lon="-0.0535">
        <ele>18.2</ele>
        <time>2023-10-15T07:16:10Z</time>
      </trkpt>
      <trkpt lat="49.19497" lon="-0.05342">
        <ele>18.3</ele>
        <time>2023-10-15T07:16:11Z</time>
      </trkpt>
      <trkpt lat="49.19498" lon="-0.05333">
        <ele>18.4</ele>
        <time>2023-10-15T07:16:12Z</time>
      </trkpt>
      <trkpt lat="49.19498" lon="-0.05325">
        <ele>18.5</ele>
        <time>2023-10-15T07:16:13Z</time>
      </trkpt>
      <trkpt lat="49.19499" lon="-0.05317">
        <ele>18.6</ele>
        <time>2023-10-15T07:16:14Z</time>
      </trkpt>
      <trkpt lat="49.19499" lon="-0.05309">
        <ele>18.7</ele>
        <time>2023-10-15T07:16:15Z</time>
      </trkpt>
      <trkpt lat="49.195" lon="-0.053">
        <ele>18.7</ele>
        <time>2023-10-15T07:16:16Z</time>
      </trkpt>
      <trkpt lat="49.19501" lon="-0.05292">
        <ele>18.8</ele>
        <time>2023-10-15T07:16:17Z</time>
      </trkpt>
      <trkpt lat="49.19501" lon="-0.05285">
        <ele>18.9</ele>
        <time>2023-10-15T07:16:18Z</time>
      </trkpt>
      <trkpt lat="49.19502" lon="-0.05276">
        <ele>19</ele>
        <time>2023-10-15T07:16:19Z</time>
      </trkpt>
      <trkpt lat="49.19502" lon="-0.05268">
        <ele>19</ele>
        <time>2023-10-15T07:16:20Z</time>
      </trkpt>
      <trkpt lat="49.19503" lon="-0.05259">
        <ele>19.1</ele>
        <time>2023-10-15T07:16:21Z</time>
      </trkpt>
      <trkpt lat="49.19503" lon="-0.05251">
        <ele>19.2</ele>
        <time>2023-10-15T07:16:22Z</time>
      </trkpt>
      <trkpt lat="49.19504" lon="-0.05242">
        <ele>19.3</ele>
        <time>2023-10-15T07:16:23Z</time>
      </trkpt>
      <trkpt lat="49.19504" lon="-0.05233">
        <ele>19.4</ele>
        <time>2023-10-15T07:16:24Z</time>
      </trkpt>
      <trkpt lat="49.19505" lon="-0.05224">
        <ele>19.4</ele>
        <time>2023-10-15T07:16:25Z</time>
      </trkpt>
      <trkpt lat="49.19506" lon="-0.05215">
        <ele>19.4</ele>
        <time>2023-10-15T07:16:26Z</time>
      </trkpt>
      <trkpt lat="49.19506" lon="-0.05205">
        <ele>19.5</ele>
        <time>2023-10-15T07:16:27Z</time>
      </trkpt>
      <trkpt lat="49.19507" lon="-0.05196">
        <ele>19.6</ele>
        <time>2023-10-15T07:16:28Z</time>
      </trkpt>
      <trkpt lat="49.19507" lon="-0.05186">
        <ele>19.8</ele>
        <time>2023-10-15T07:16:29Z</time>
      </trkpt>
      <trkpt lat="49.19508" lon="-0.05176">
        <ele>19.9</ele>
        <time>2023-10-15T07:16:30Z</time>
      </trkpt>
      <trkpt lat="49.19509" lon="-0.05167">
        <ele>20</ele>
        <time>2023-10-15T07:16:31Z</time>
      </trkpt>
      <trkpt lat="49.1951" lon="-0.05157">
        <ele>20.1</ele>
        <time>2023-10-15T07:16:32Z</time>
      </trkpt>
      <trkpt lat="49.1951" lon="-0.05148">
        <ele>20.3</ele>
        <time>2023-10-15T07:16:33Z</time>
      </trkpt>
      <trkpt lat="49.19511" lon="-0.05138">
        <ele>20.4</ele>
        <time>2023-10-15T07:16:34Z</time>
      </trkpt>
      <trkpt lat="49.19511" lon="-0.05129">
        <ele>20.6</ele>
        <time>2023-10-15T07:16:35Z</time>
      </trkpt>
      <trkpt lat="49.19512" lon="-0.0512">
        <ele>20.7</ele>
        <time>2023-10-15T07:16:36Z</time>
      </trkpt>
      <trkpt lat="49.19512" lon="-0.05111">
        <ele>20.9</ele>
        <time>2023-10-15T07:16:37Z</time>
      </trkpt>
      <trkpt lat="49.19513" lon="-0.05102">
        <ele>21</ele>
        <time>2023-10-15T07:16:38Z</time>
      </trkpt>
      <trkpt lat="49.19514" lon="-0.05092">
        <ele>21.1</ele>
        <time>2023-10-15T07:16:39Z</time>
      </trkpt>
      <trkpt lat="49.19514" lon="-0.05083">
        <ele>21.3</ele>
        <time>2023-10-15T07:16:40Z</time>
      </trkpt>
      <trkpt lat="49.19514" lon="-0.05074">
        <ele>21.4</ele>
        <time>2023-10-15T07:16:41Z</time>
      </trkpt>
      <trkpt lat="49.19514" lon="-0.05064">
        <ele>21.6</ele>
        <time>2023-10-15T07:16:42Z</time>
      </trkpt>
      <trkpt lat="49.19514" lon="-0.05055">
        <ele>21.8</ele>
        <time>2023-10-15T07:16:43Z</time>
      </trkpt>
      <trkpt lat="49.19514" lon="-0.05046">
        <ele>21.9</ele>
        <time>2023-10-15T07:16:44Z</time>
      </trkpt>
      <trkpt lat="49.19514" lon="-0.05037">
        <ele>22.1</ele>
        <time>2023-10-15T07:16:45Z</time>
      </trkpt>
      <trkpt lat="49.19513" lon="-0.05028">
        <ele>22.3</ele>
        <time>2023-10-15T07:16:46Z</time>
      </trkpt>
      <trkpt lat="49.19512" lon="-0.05019">
        <ele>22.5</ele>
        <time>2023-10-15T07:16:47Z</time>
      </trkpt>
      <trkpt lat="49.1951" lon="-0.0501">
        <ele>22.7</ele>
        <time>2023-10-15T07:16:48Z</time>
      </trkpt>
      <trkpt lat="49.19508" lon="-0.05001">
        <ele>22.9</ele>
        <time>2023-10-15T07:16:49Z</time>
      </trkpt>
      <trkpt lat="49.19505" lon="-0.04993">
        <ele>23.1</ele>
        <time>2023-10-15T07:16:50Z</time>
      </trkpt>
      <trkpt lat="49.19502" lon="-0.04985">
        <ele>23.3</ele>
        <time>2023-10-15T07:16:51Z</time>
      </trkpt>
      <trkpt lat="49.19499" lon="-0.04977">
        <ele>23.4</ele>
        <time>2023-10-15T07:16:52Z</time>
      </trkpt>
      <trkpt lat="49.19496" lon="-0.04969">
        <ele>23.6</ele>
        <time>2023-10-15T07:16:53Z</time>
      </trkpt>
      <trkpt lat="49.19492" lon="-0.04961">
        <ele>23.8</ele>
        <time>2023-10-15T07:16:54Z</time>
      </trkpt>
      <trkpt lat="49.19489" lon="-0.04954">
        <ele>24</ele>
        <time>2023-10-15T07:16:55Z</time>
      </trkpt>
      <trkpt lat="49.19485" lon="-0.04946">
        <ele>24.2</ele>
        <time>2023-10-15T07:16:56Z</time>
      </trkpt>
      <trkpt lat="49.19482" lon="-0.04939">
        <ele>24.5</ele>
        <time>2023-10-15T07:16:57Z</time>
      </trkpt>
      <trkpt lat="49.19479" lon="-0.04931">
        <ele>24.7</ele>
        <time>2023-10-15T07:16:58Z</time>
      </trkpt>
      <trkpt lat="49.19475" lon="-0.04924">
        <ele>24.9</ele>
        <time>2023-10-15T07:16:59Z</time>
      </trkpt>
      <trkpt lat="49.19471" lon="-0.04917">
        <ele>25.1</ele>
        <time>2023-10-15T07:17:00Z</time>
      </trkpt>
      <trkpt lat="49.19468" lon="-0.04909">
        <ele>25.3</ele>
        <time>2023-10-15T07:17:01Z</time>
      </trkpt>
      <trkpt lat="49.19464" lon="-0.04901">
        <ele>25.5</ele>
        <time>2023-10-15T07:17:02Z</time>
      </trkpt>
      <trkpt lat="49.19461" lon="-0.04894">
        <ele>25.7</ele>
        <time>2023-10-15T07:17:03Z</time>
      </trkpt>
      <trkpt lat="49.19458" lon="-0.04886">
        <ele>25.9</ele>
        <time>2023-10-15T07:17:04Z</time>
      </trkpt>
      <trkpt lat="49.19455" lon="-0.04879">
        <ele>26.2</ele>
        <time>2023-10-15T07:17:05Z</time>
      </trkpt>
      <trkpt lat="49.19452" lon="-0.04871">
        <ele>26.4</ele>
        <time>2023-10-15T07:17:06Z</time>
      </trkpt>
      <trkpt lat="49.19448" lon="-0.04864">
        <ele>26.6</ele>
        <time>2023-10-15T07:17:07Z</time>
      </trkpt>
      <trkpt lat="49.19444" lon="-0.04857">
        <ele>26.7</ele>
        <time>2023-10-15T07:17:08Z</time>
      </trkpt>
      <trkpt lat="49.19441" lon="-0.04849">
        <ele>26.9</ele>
        <time>2023-10-15T07:17:09Z</time>
      </trkpt>
      <trkpt lat="49.19437" lon="-0.04842">
        <ele>27</ele>
        <time>2023-10-15T07:17:10Z</time>
      </trkpt>
      <trkpt lat="49.19434" lon="-0.04835">
        <ele>27.1</ele>
        <time>2023-10-15T07:17:11Z</time>
      </trkpt>
      <trkpt lat="49.1943" lon="-0.04827">
        <ele>27.2</ele>
        <time>2023-10-15T07:17:12Z</time>
      </trkpt>
      <trkpt lat="49.19427" lon="-0.0482">
        <ele>27.3</ele>
        <time>2023-10-15T07:17:13Z</time>
      </trkpt>
      <trkpt lat="49.19424" lon="-0.04813">
        <ele>27.5</ele>
        <time>2023-10-15T07:17:14Z</time>
      </trkpt>
      <trkpt lat="49.19421" lon="-0.04806">
        <ele>27.6</ele>
        <time>2023-10-15T07:17:15Z</time>
      </trkpt>
      <trkpt lat="49.19418" lon="-0.04799">
        <ele>27.7</ele>
        <time>2023-10-15T07:17:16Z</time>
      </trkpt>
      <trkpt lat="49.19415" lon="-0.04793">
        <ele>27.7</ele>
        <time>2023-10-15T07:17:17Z</time>
      </trkpt>
      <trkpt lat="49.19412" lon="-0.04787">
        <ele>27.8</ele>
        <time>2023-10-15T07:17:18Z</time>
      </trkpt>
      <trkpt lat="49.19409" lon="-0.04781">
        <ele>27.9</ele>
        <time>2023-10-15T07:17:19Z</time>
      </trkpt>
      <trkpt lat="49.19406" lon="-0.04775">
        <ele>27.9</ele>
        <time>2023-10-15T07:17:20Z</time>
      </trkpt>
      <trkpt lat="49.19403" lon="-0.04769">
        <ele>28</ele>
        <time>2023-10-15T07:17:21Z</time>
      </trkpt>
      <trkpt lat="49.194" lon="-0.04763">
        <ele>28</ele>
        <time>2023-10-15T07:17:22Z</time>
      </trkpt>
      <trkpt lat="49.19397" lon="-0.04757">
        <ele>28</ele>
        <time>2023-10-15T07:17:23Z</time>
      </trkpt>
      <trkpt lat="49.19394" lon="-0.04751">
        <ele>28</ele>
        <time>2023-10-15T07:17:24Z</time>
      </trkpt>
      <trkpt lat="49.1939" lon="-0.04745">
        <ele>27.8</ele>
        <time>2023-10-15T07:17:25Z</time>
      </trkpt>
      <trkpt lat="49.19386" lon="-0.04739">
        <ele>27.6</ele>
        <time>2023-10-15T07:17:26Z</time>
      </trkpt>
      <trkpt lat="49.19382" lon="-0.04734">
        <ele>27.4</ele>
        <time>2023-10-15T07:17:27Z</time>
      </trkpt>
      <trkpt lat="49.19376" lon="-0.04729">
        <ele>27.1</ele>
        <time>2023-10-15T07:17:28Z</time>
      </trkpt>
      <trkpt lat="49.1937" lon="-0.04725">
        <ele>26.7</ele>
        <time>2023-10-15T07:17:29Z</time>
      </trkpt>
      <trkpt lat="49.19364" lon="-0.04723">
        <ele>26.3</ele>
        <time>2023-10-15T07:17:30Z</time>
      </trkpt>
      <trkpt lat="49.19357" lon="-0.04722">
        <ele>25.9</ele>
        <time>2023-10-15T07:17:31Z</time>
      </trkpt>
      <trkpt lat="49.19349" lon="-0.04721">
        <ele>25.4</ele>
        <time>2023-10-15T07:17:32Z</time>
      </trkpt>
      <trkpt lat="49.19342" lon="-0.04721">
        <ele>25</ele>
        <time>2023-10-15T07:17:33Z</time>
      </trkpt>
      <trkpt lat="49.19333" lon="-0.0472">
        <ele>24.4</ele>
        <time>2023-10-15T07:17:34Z</time>
      </trkpt>
      <trkpt lat="49.19325" lon="-0.04718">
        <ele>23.9</ele>
        <time>2023-10-15T07:17:35Z</time>
      </trkpt>
      <trkpt lat="49.19316" lon="-0.04716">
        <ele>23.3</ele>
        <time>2023-10-15T07:17:36Z</time>
      </trkpt>
      <trkpt lat="49.19307" lon="-0.04713">
        <ele>22.7</ele>
        <time>2023-10-15T07:17:37Z</time>
      </trkpt>
      <trkpt lat="49.19298" lon="-0.0471">
        <ele>22</ele>
        <time>2023-10-15T07:17:38Z</time>
      </trkpt>
      <trkpt lat="49.19289" lon="-0.04707">
        <ele>21.4</ele>
        <time>2023-10-15T07:17:39Z</time>
      </trkpt>
      <trkpt lat="49.19279" lon="-0.04704">
        <ele>20.7</ele>
        <time>2023-10-15T07:17:40Z</time>
      </trkpt>
      <trkpt lat="49.1927" lon="-0.04699">
        <ele>20.1</ele>
        <time>2023-10-15T07:17:41Z</time>
      </trkpt>
      <trkpt lat="49.19261" lon="-0.04695">
        <ele>19.4</ele>
        <time>2023-10-15T07:17:42Z</time>
      </trkpt>
      <trkpt lat="49.19252" lon="-0.04691">
        <ele>18.6</ele>
        <time>2023-10-15T07:17:43Z</time>
      </trkpt>
      <trkpt lat="49.19243" lon="-0.04685">
        <ele>17.9</ele>
        <time>2023-10-15T07:17:44Z</time>
      </trkpt>
      <trkpt lat="49.19233" lon="-0.0468">
        <ele>17.2</ele>
        <time>2023-10-15T07:17:45Z</time>
      </trkpt>
      <trkpt lat="49.19223" lon="-0.04674">
        <ele>16.6</ele>
        <time>2023-10-15T07:17:46Z</time>
      </trkpt>
      <trkpt lat="49.19214" lon="-0.04667">
        <ele>16</ele>
        <time>2023-10-15T07:17:47Z</time>
      </trkpt>
      <trkpt lat="49.19204" lon="-0.04662">
        <ele>15.5</ele>
        <time>2023-10-15T07:17:48Z</time>
      </trkpt>
      <trkpt lat="49.19195" lon="-0.04656">
        <ele>15</ele>
        <time>2023-10-15T07:17:49Z</time>
      </trkpt>
      <trkpt lat="49.19185" lon="-0.04651">
        <ele>14.5</ele>
        <time>2023-10-15T07:17:50Z</time>
      </trkpt>
      <trkpt lat="49.19176" lon="-0.04645">
        <ele>14</ele>
        <time>2023-10-15T07:17:51Z</time>
      </trkpt>
      <trkpt lat="49.19166" lon="-0.04641">
        <ele>13.6</ele>
        <time>2023-10-15T07:17:52Z</time>
      </trkpt>
      <trkpt lat="49.19156" lon="-0.04637">
        <ele>13.2</ele>
        <time>2023-10-15T07:17:53Z</time>
      </trkpt>
      <trkpt lat="49.19147" lon="-0.04634">
        <ele>12.9</ele>
        <time>2023-10-15T07:17:54Z</time>
      </trkpt>
      <trkpt lat="49.19137" lon="-0.04632">
        <ele>12.7</ele>
        <time>2023-10-15T07:17:55Z</time>
      </trkpt>
      <trkpt lat="49.19127" lon="-0.04631">
        <ele>12.5</ele>
        <time>2023-10-15T07:17:56Z</time>
      </trkpt>
      <trkpt lat="49.19117" lon="-0.0463">
        <ele>12.4</ele>
        <time>2023-10-15T07:17:57Z</time>
      </trkpt>
      <trkpt lat="49.19108" lon="-0.04629">
        <ele>12.2</ele>
        <time>2023-10-15T07:17:58Z</time>
      </trkpt>
      <trkpt lat="49.19099" lon="-0.04629">
        <ele>12.1</ele>
        <time>2023-10-15T07:17:59Z</time>
      </trkpt>
      <trkpt lat="49.1909" lon="-0.04629">
        <ele>12.1</ele>
        <time>2023-10-15T07:18:00Z</time>
      </trkpt>
      <trkpt lat="49.19081" lon="-0.04628">
        <ele>12</ele>
        <time>2023-10-15T07:18:01Z</time>
      </trkpt>
      <trkpt lat="49.19074" lon="-0.04627">
        <ele>12</ele>
        <time>2023-10-15T07:18:02Z</time>
      </trkpt>
      <trkpt lat="49.19066" lon="-0.04626">
        <ele>12</ele>
        <time>2023-10-15T07:18:03Z</time>
      </trkpt>
      <trkpt lat="49.19059" lon="-0.04625">
        <ele>12</ele>
        <time>2023-10-15T07:18:04Z</time>
      </trkpt>
      <trkpt lat="49.19052" lon="-0.04625">
        <ele>11.9</ele>
        <time>2023-10-15T07:18:05Z</time>
      </trkpt>
      <trkpt lat="49.19045" lon="-0.04624">
        <ele>11.9</ele>
        <time>2023-10-15T07:18:06Z</time>
      </trkpt>
      <trkpt lat="49.19037" lon="-0.04623">
        <ele>11.9</ele>
        <time>2023-10-15T07:18:07Z</time>
      </trkpt>
      <trkpt lat="49.1903" lon="-0.04623">
        <ele>11.8</ele>
        <time>2023-10-15T07:18:08Z</time>
      </trkpt>
      <trkpt lat="49.19024" lon="-0.04622">
        <ele>11.7</ele>
        <time>2023-10-15T07:18:09Z</time>
      </trkpt>
      <trkpt lat="49.19017" lon="-0.04622">
        <ele>11.6</ele>
        <time>2023-10-15T07:18:10Z</time>
      </trkpt>
      <trkpt lat="49.19011" lon="-0.04621">
        <ele>11.5</ele>
        <time>2023-10-15T07:18:11Z</time>
      </trkpt>
      <trkpt lat="49.19004" lon="-0.0462">
        <ele>11.5</ele>
        <time>2023-10-15T07:18:12Z</time>
      </trkpt>
      <trkpt lat="49.18998" lon="-0.0462">
        <ele>11.4</ele>
        <time>2023-10-15T07:18:13Z</time>
      </trkpt>
      <trkpt lat="49.1899" lon="-0.0462">
        <ele>11.3</ele>
        <time>2023-10-15T07:18:14Z</time>
      </trkpt>
      <trkpt lat="49.18983" lon="-0.04619">
        <ele>11.3</ele>
        <time>2023-10-15T07:18:15Z</time>
      </trkpt>
      <trkpt lat="49.18976" lon="-0.04619">
        <ele>11.2</ele>
        <time>2023-10-15T07:18:16Z</time>
      </trkpt>
      <trkpt lat="49.18968" lon="-0.04619">
        <ele>11.1</ele>
        <time>2023-10-15T07:18:17Z</time>
      </trkpt>
      <trkpt lat="49.18961" lon="-0.04619">
        <ele>11</ele>
        <time>2023-10-15T07:18:18Z</time>
      </trkpt>
      <trkpt lat="49.18953" lon="-0.04619">
        <ele>11</ele>
        <time>2023-10-15T07:18:19Z</time>
      </trkpt>
      <trkpt lat="49.18946" lon="-0.04618">
        <ele>10.9</ele>
        <time>2023-10-15T07:18:20Z</time>
      </trkpt>
      <trkpt lat="49.18938" lon="-0.04616">
        <ele>10.9</ele>
        <time>2023-10-15T07:18:21Z</time>
      </trkpt>
      <trkpt lat="49.1893" lon="-0.04615">
        <ele>10.8</ele>
        <time>2023-10-15T07:18:22Z</time>
      </trkpt>
      <trkpt lat="49.18922" lon="-0.04612">
        <ele>10.8</ele>
        <time>2023-10-15T07:18:23Z</time>
      </trkpt>
      <trkpt lat="49.18914" lon="-0.0461">
        <ele>10.8</ele>
        <time>2023-10-15T07:18:24Z</time>
      </trkpt>
      <trkpt lat="49.18907" lon="-0.04607">
        <ele>10.8</ele>
        <time>2023-10-15T07:18:25Z</time>
      </trkpt>
      <trkpt lat="49.18899" lon="-0.04604">
        <ele>10.7</ele>
        <time>2023-10-15T07:18:26Z</time>
      </trkpt>
      <trkpt lat="49.18893" lon="-0.04602">
        <ele>10.7</ele>
        <time>2023-10-15T07:18:27Z</time>
      </trkpt>
      <trkpt lat="49.18886" lon="-0.046">
        <ele>10.7</ele>
        <time>2023-10-15T07:18:28Z</time>
      </trkpt>
      <trkpt lat="49.18879" lon="-0.04599">
        <ele>10.7</ele>
        <time>2023-10-15T07:18:29Z</time>
      </trkpt>
      <trkpt lat="49.18872" lon="-0.04597">
        <ele>10.7</ele>
        <time>2023-10-15T07:18:30Z</time>
      </trkpt>
      <trkpt lat="49.18866" lon="-0.04595">
        <ele>10.6</ele>
        <time>2023-10-15T07:18:31Z</time>
      </trkpt>
      <trkpt lat="49.18859" lon="-0.04594">
        <ele>10.6</ele>
        <time>2023-10-15T07:18:32Z</time>
      </trkpt>
      <trkpt lat="49.18853" lon="-0.04593">
        <ele>10.6</ele>
        <time>2023-10-15T07:18:33Z</time>
      </trkpt>
      <trkpt lat="49.18847" lon="-0.04593">
        <ele>10.5</ele>
        <time>2023-10-15T07:18:34Z</time>
      </trkpt>
      <trkpt lat="49.18841" lon="-0.04592">
        <ele>10.5</ele>
        <time>2023-10-15T07:18:35Z</time>
      </trkpt>
      <trkpt lat="49.18835" lon="-0.04593">
        <ele>10.5</ele>
        <time>2023-10-15T07:18:36Z</time>
      </trkpt>
      <trkpt lat="49.18828" lon="-0.04593">
        <ele>10.4</ele>
        <time>2023-10-15T07:18:37Z</time>
      </trkpt>
      <trkpt lat="49.18821" lon="-0.04592">
        <ele>10.4</ele>
        <time>2023-10-15T07:18:38Z</time>
      </trkpt>
      <trkpt lat="49.18813" lon="-0.04592">
        <ele>10.4</ele>
        <time>2023-10-15T07:18:39Z</time>
      </trkpt>
      <trkpt lat="49.18806" lon="-0.04591">
        <ele>10.4</ele>
        <time>2023-10-15T07:18:40Z</time>
      </trkpt>
      <trkpt lat="49.18799" lon="-0.04591">
        <ele>10.4</ele>
        <time>2023-10-15T07:18:41Z</time>
      </trkpt>
      <trkpt lat="49.18793" lon="-0.0459">
        <ele>10.4</ele>
        <time>2023-10-15T07:18:42Z</time>
      </trkpt>
      <trkpt lat="49.18787" lon="-0.0459">
        <ele>10.3</ele>
        <time>2023-10-15T07:18:43Z</time>
      </trkpt>
      <trkpt lat="49.18781" lon="-0.0459">
        <ele>10.3</ele>
        <time>2023-10-15T07:18:44Z</time>
      </trkpt>
      <trkpt lat="49.18776" lon="-0.04589">
        <ele>10.3</ele>
        <time>2023-10-15T07:18:45Z</time>
      </trkpt>
      <trkpt lat="49.18771" lon="-0.04589">
        <ele>10.3</ele>
        <time>2023-10-15T07:18:46Z</time>
      </trkpt>
      <trkpt lat="49.18767" lon="-0.04588">
        <ele>10.3</ele>
        <time>2023-10-15T07:18:47Z</time>
      </trkpt>
      <trkpt lat="49.18762" lon="-0.04587">
        <ele>10.3</ele>
        <time>2023-10-15T07:18:48Z</time>
      </trkpt>
      <trkpt lat="49.18757" lon="-0.04586">
        <ele>10.3</ele>
        <time>2023-10-15T07:18:49Z</time>
      </trkpt>
      <trkpt lat="49.18752" lon="-0.04585">
        <ele>10.3</ele>
        <time>2023-10-15T07:18:50Z</time>
      </trkpt>
      <trkpt lat="49.18748" lon="-0.04582">
        <ele>10.3</ele>
        <time>2023-10-15T07:18:51Z</time>
      </trkpt>
      <trkpt lat="49.18743" lon="-0.04579">
        <ele>10.4</ele>
        <time>2023-10-15T07:18:52Z</time>
      </trkpt>
      <trkpt lat="49.18738" lon="-0.04576">
        <ele>10.4</ele>
        <time>2023-10-15T07:18:53Z</time>
      </trkpt>
      <trkpt lat="49.18733" lon="-0.04572">
        <ele>10.4</ele>
        <time>2023-10-15T07:18:54Z</time>
      </trkpt>
      <trkpt lat="49.18728" lon="-0.04568">
        <ele>10.4</ele>
        <time>2023-10-15T07:18:55Z</time>
      </trkpt>
      <trkpt lat="49.18723" lon="-0.04564">
        <ele>10.5</ele>
        <time>2023-10-15T07:18:56Z</time>
      </trkpt>
      <trkpt lat="49.18718" lon="-0.0456">
        <ele>10.5</ele>
        <time>2023-10-15T07:18:57Z</time>
      </trkpt>
      <trkpt lat="49.18712" lon="-0.04556">
        <ele>10.5</ele>
        <time>2023-10-15T07:18:58Z</time>
      </trkpt>
      <trkpt lat="49.18707" lon="-0.04551">
        <ele>10.6</ele>
        <time>2023-10-15T07:18:59Z</time>
      </trkpt>
      <trkpt lat="49.18701" lon="-0.04547">
        <ele>10.6</ele>
        <time>2023-10-15T07:19:00Z</time>
      </trkpt>
      <trkpt lat="49.18695" lon="-0.04543">
        <ele>10.6</ele>
        <time>2023-10-15T07:19:01Z</time>
      </trkpt>
      <trkpt lat="49.18689" lon="-0.04539">
        <ele>10.6</ele>
        <time>2023-10-15T07:19:02Z</time>
      </trkpt>
      <trkpt lat="49.18683" lon="-0.04534">
        <ele>10.6</ele>
        <time>2023-10-15T07:19:03Z</time>
      </trkpt>
      <trkpt lat="49.18677" lon="-0.04529">
        <ele>10.6</ele>
        <time>2023-10-15T07:19:04Z</time>
      </trkpt>
      <trkpt lat="49.18671" lon="-0.04524">
        <ele>10.6</ele>
        <time>2023-10-15T07:19:05Z</time>
      </trkpt>
      <trkpt lat="49.18665" lon="-0.04519">
        <ele>10.6</ele>
        <time>2023-10-15T07:19:06Z</time>
      </trkpt>
      <trkpt lat="49.18659" lon="-0.04515">
        <ele>10.7</ele>
        <time>2023-10-15T07:19:07Z</time>
      </trkpt>
      <trkpt lat="49.18653" lon="-0.0451">
        <ele>10.7</ele>
        <time>2023-10-15T07:19:08Z</time>
      </trkpt>
      <trkpt lat="49.18646" lon="-0.04506">
        <ele>10.7</ele>
        <time>2023-10-15T07:19:09Z</time>
      </trkpt>
      <trkpt lat="49.1864" lon="-0.04503">
        <ele>10.7</ele>
        <time>2023-10-15T07:19:10Z</time>
      </trkpt>
      <trkpt lat="49.18633" lon="-0.045">
        <ele>10.7</ele>
        <time>2023-10-15T07:19:11Z</time>
      </trkpt>
      <trkpt lat="49.18626" lon="-0.04497">
        <ele>10.7</ele>
        <time>2023-10-15T07:19:12Z</time>
      </trkpt>
      <trkpt lat="49.18619" lon="-0.04495">
        <ele>10.7</ele>
        <time>2023-10-15T07:19:13Z</time>
      </trkpt>
      <trkpt lat="49.18612" lon="-0.04493">
        <ele>10.7</ele>
        <time>2023-10-15T07:19:14Z</time>
      </trkpt>
      <trkpt lat="49.18604" lon="-0.04492">
        <ele>10.7</ele>
        <time>2023-10-15T07:19:15Z</time>
      </trkpt>
      <trkpt lat="49.18596" lon="-0.04491">
        <ele>10.6</ele>
        <time>2023-10-15T07:19:16Z</time>
      </trkpt>
      <trkpt lat="49.18588" lon="-0.04489">
        <ele>10.6</ele>
        <time>2023-10-15T07:19:17Z</time>
      </trkpt>
      <trkpt lat="49.1858" lon="-0.04488">
        <ele>10.6</ele>
        <time>2023-10-15T07:19:18Z</time>
      </trkpt>
      <trkpt lat="49.18573" lon="-0.04487">
        <ele>10.6</ele>
        <time>2023-10-15T07:19:19Z</time>
      </trkpt>
      <trkpt lat="49.18565" lon="-0.04486">
        <ele>10.5</ele>
        <time>2023-10-15T07:19:20Z</time>
      </trkpt>
      <trkpt lat="49.18557" lon="-0.04485">
        <ele>10.5</ele>
        <time>2023-10-15T07:19:21Z</time>
      </trkpt>
      <trkpt lat="49.18548" lon="-0.04483">
        <ele>10.4</ele>
        <time>2023-10-15T07:19:22Z</time>
      </trkpt>
      <trkpt lat="49.1854" lon="-0.04481">
        <ele>10.4</ele>
        <time>2023-10-15T07:19:23Z</time>
      </trkpt>
      <trkpt lat="49.18531" lon="-0.0448">
        <ele>10.4</ele>
        <time>2023-10-15T07:19:24Z</time>
      </trkpt>
      <trkpt lat="49.18523" lon="-0.04478">
        <ele>10.4</ele>
        <time>2023-10-15T07:19:25Z</time>
      </trkpt>
      <trkpt lat="49.18515" lon="-0.04477">
        <ele>10.4</ele>
        <time>2023-10-15T07:19:26Z</time>
      </trkpt>
      <trkpt lat="49.18506" lon="-0.04474">
        <ele>10.5</ele>
        <time>2023-10-15T07:19:27Z</time>
      </trkpt>
      <trkpt lat="49.18497" lon="-0.04471">
        <ele>10.5</ele>
        <time>2023-10-15T07:19:28Z</time>
      </trkpt>
      <trkpt lat="49.18489" lon="-0.04468">
        <ele>10.4</ele>
        <time>2023-10-15T07:19:29Z</time>
      </trkpt>
      <trkpt lat="49.1848" lon="-0.04465">
        <ele>10.4</ele>
        <time>2023-10-15T07:19:30Z</time>
      </trkpt>
      <trkpt lat="49.18472" lon="-0.04463">
        <ele>10.4</ele>
        <time>2023-10-15T07:19:31Z</time>
      </trkpt>
      <trkpt lat="49.18463" lon="-0.0446">
        <ele>10.4</ele>
        <time>2023-10-15T07:19:32Z</time>
      </trkpt>
      <trkpt lat="49.18454" lon="-0.04458">
        <ele>10.5</ele>
        <time>2023-10-15T07:19:33Z</time>
      </trkpt>
      <trkpt lat="49.18445" lon="-0.04455">
        <ele>10.5</ele>
        <time>2023-10-15T07:19:34Z</time>
      </trkpt>
      <trkpt lat="49.18437" lon="-0.04452">
        <ele>10.6</ele>
        <time>2023-10-15T07:19:35Z</time>
      </trkpt>
      <trkpt lat="49.18429" lon="-0.0445">
        <ele>10.7</ele>
        <time>2023-10-15T07:19:36Z</time>
      </trkpt>
      <trkpt lat="49.18422" lon="-0.04447">
        <ele>10.7</ele>
        <time>2023-10-15T07:19:37Z</time>
      </trkpt>
      <trkpt lat="49.18415" lon="-0.04445">
        <ele>10.7</ele>
        <time>2023-10-15T07:19:38Z</time>
      </trkpt>
      <trkpt lat="49.18407" lon="-0.04443">
        <ele>10.7</ele>
        <time>2023-10-15T07:19:39Z</time>
      </trkpt>
      <trkpt lat="49.184" lon="-0.04441">
        <ele>10.7</ele>
        <time>2023-10-15T07:19:40Z</time>
      </trkpt>
      <trkpt lat="49.18394" lon="-0.04438">
        <ele>10.7</ele>
        <time>2023-10-15T07:19:41Z</time>
      </trkpt>
      <trkpt lat="49.18386" lon="-0.04436">
        <ele>10.7</ele>
        <time>2023-10-15T07:19:42Z</time>
      </trkpt>
      <trkpt lat="49.18379" lon="-0.04434">
        <ele>10.7</ele>
        <time>2023-10-15T07:19:43Z</time>
      </trkpt>
      <trkpt lat="49.18371" lon="-0.04431">
        <ele>10.7</ele>
        <time>2023-10-15T07:19:44Z</time>
      </trkpt>
      <trkpt lat="49.18363" lon="-0.04428">
        <ele>10.8</ele>
        <time>2023-10-15T07:19:45Z</time>
      </trkpt>
      <trkpt lat="49.18355" lon="-0.04425">
        <ele>10.8</ele>
        <time>2023-10-15T07:19:46Z</time>
      </trkpt>
      <trkpt lat="49.18348" lon="-0.04423">
        <ele>10.9</ele>
        <time>2023-10-15T07:19:47Z</time>
      </trkpt>
      <trkpt lat="49.1834" lon="-0.0442">
        <ele>10.9</ele>
        <time>2023-10-15T07:19:48Z</time>
      </trkpt>
      <trkpt lat="49.18333" lon="-0.04417">
        <ele>11</ele>
        <time>2023-10-15T07:19:49Z</time>
      </trkpt>
      <trkpt lat="49.18325" lon="-0.04415">
        <ele>11.1</ele>
        <time>2023-10-15T07:19:50Z</time>
      </trkpt>
      <trkpt lat="49.18318" lon="-0.04412">
        <ele>11.1</ele>
        <time>2023-10-15T07:19:51Z</time>
      </trkpt>
      <trkpt lat="49.1831" lon="-0.04409">
        <ele>11.2</ele>
        <time>2023-10-15T07:19:52Z</time>
      </trkpt>
      <trkpt lat="49.18303" lon="-0.04407">
        <ele>11.2</ele>
        <time>2023-10-15T07:19:53Z</time>
      </trkpt>
      <trkpt lat="49.18296" lon="-0.04404">
        <ele>11.2</ele>
        <time>2023-10-15T07:19:54Z</time>
      </trkpt>
      <trkpt lat="49.18289" lon="-0.04403">
        <ele>11.2</ele>
        <time>2023-10-15T07:19:55Z</time>
      </trkpt>
      <trkpt lat="49.18281" lon="-0.044">
        <ele>11.2</ele>
        <time>2023-10-15T07:19:56Z</time>
      </trkpt>
      <trkpt lat="49.18274" lon="-0.04397">
        <ele>11.2</ele>
        <time>2023-10-15T07:19:57Z</time>
      </trkpt>
      <trkpt lat="49.18266" lon="-0.04395">
        <ele>11.2</ele>
        <time>2023-10-15T07:19:58Z</time>
      </trkpt>
      <trkpt lat="49.18258" lon="-0.04392">
        <ele>11.2</ele>
        <time>2023-10-15T07:19:59Z</time>
      </trkpt>
      <trkpt lat="49.18251" lon="-0.04389">
        <ele>11.2</ele>
        <time>2023-10-15T07:20:00Z</time>
      </trkpt>
      <trkpt lat="49.18243" lon="-0.04387">
        <ele>11.2</ele>
        <time>2023-10-15T07:20:01Z</time>
      </trkpt>
      <trkpt lat="49.18235" lon="-0.04384">
        <ele>11.3</ele>
        <time>2023-10-15T07:20:02Z</time>
      </trkpt>
      <trkpt lat="49.18228" lon="-0.04381">
        <ele>11.3</ele>
        <time>2023-10-15T07:20:03Z</time>
      </trkpt>
      <trkpt lat="49.18221" lon="-0.04379">
        <ele>11.3</ele>
        <time>2023-10-15T07:20:04Z</time>
      </trkpt>
      <trkpt lat="49.18214" lon="-0.04377">
        <ele>11.3</ele>
        <time>2023-10-15T07:20:05Z</time>
      </trkpt>
      <trkpt lat="49.18206" lon="-0.04374">
        <ele>11.3</ele>
        <time>2023-10-15T07:20:06Z</time>
      </trkpt>
      <trkpt lat="49.18199" lon="-0.04371">
        <ele>11.4</ele>
        <time>2023-10-15T07:20:07Z</time>
      </trkpt>
      <trkpt lat="49.18191" lon="-0.04369">
        <ele>11.4</ele>
        <time>2023-10-15T07:20:08Z</time>
      </trkpt>
      <trkpt lat="49.18184" lon="-0.04366">
        <ele>11.4</ele>
        <time>2023-10-15T07:20:09Z</time>
      </trkpt>
      <trkpt lat="49.18176" lon="-0.04364">
        <ele>11.5</ele>
        <time>2023-10-15T07:20:10Z</time>
      </trkpt>
      <trkpt lat="49.18168" lon="-0.04362">
        <ele>11.5</ele>
        <time>2023-10-15T07:20:11Z</time>
      </trkpt>
      <trkpt lat="49.18161" lon="-0.04359">
        <ele>11.6</ele>
        <time>2023-10-15T07:20:12Z</time>
      </trkpt>
      <trkpt lat="49.18154" lon="-0.04357">
        <ele>11.6</ele>
        <time>2023-10-15T07:20:13Z</time>
      </trkpt>
      <trkpt lat="49.18146" lon="-0.04354">
        <ele>11.7</ele>
        <time>2023-10-15T07:20:14Z</time>
      </trkpt>
      <trkpt lat="49.18139" lon="-0.04351">
        <ele>11.8</ele>
        <time>2023-10-15T07:20:15Z</time>
      </trkpt>
      <trkpt lat="49.18132" lon="-0.04349">
        <ele>11.9</ele>
        <time>2023-10-15T07:20:16Z</time>
      </trkpt>
      <trkpt lat="49.18125" lon="-0.04346">
        <ele>12</ele>
        <time>2023-10-15T07:20:17Z</time>
      </trkpt>
      <trkpt lat="49.18118" lon="-0.04344">
        <ele>12.2</ele>
        <time>2023-10-15T07:20:18Z</time>
      </trkpt>
      <trkpt lat="49.18111" lon="-0.04341">
        <ele>12.3</ele>
        <time>2023-10-15T07:20:19Z</time>
      </trkpt>
      <trkpt lat="49.18104" lon="-0.04339">
        <ele>12.5</ele>
        <time>2023-10-15T07:20:20Z</time>
      </trkpt>
      <trkpt lat="49.18096" lon="-0.04336">
        <ele>12.7</ele>
        <time>2023-10-15T07:20:21Z</time>
      </trkpt>
      <trkpt lat="49.18089" lon="-0.04334">
        <ele>12.8</ele>
        <time>2023-10-15T07:20:22Z</time>
      </trkpt>
      <trkpt lat="49.18082" lon="-0.04331">
        <ele>13</ele>
        <time>2023-10-15T07:20:23Z</time>
      </trkpt>
      <trkpt lat="49.18075" lon="-0.04329">
        <ele>13.2</ele>
        <time>2023-10-15T07:20:24Z</time>
      </trkpt>
      <trkpt lat="49.18068" lon="-0.04326">
        <ele>13.3</ele>
        <time>2023-10-15T07:20:25Z</time>
      </trkpt>
      <trkpt lat="49.18061" lon="-0.04324">
        <ele>13.5</ele>
        <time>2023-10-15T07:20:26Z</time>
      </trkpt>
      <trkpt lat="49.18054" lon="-0.04322">
        <ele>13.7</ele>
        <time>2023-10-15T07:20:27Z</time>
      </trkpt>
      <trkpt lat="49.18047" lon="-0.04319">
        <ele>13.9</ele>
        <time>2023-10-15T07:20:28Z</time>
      </trkpt>
      <trkpt lat="49.1804" lon="-0.04317">
        <ele>14.2</ele>
        <time>2023-10-15T07:20:29Z</time>
      </trkpt>
      <trkpt lat="49.18033" lon="-0.04314">
        <ele>14.5</ele>
        <time>2023-10-15T07:20:30Z</time>
      </trkpt>
      <trkpt lat="49.18026" lon="-0.04312">
        <ele>14.8</ele>
        <time>2023-10-15T07:20:31Z</time>
      </trkpt>
      <trkpt lat="49.18019" lon="-0.04309">
        <ele>15</ele>
        <time>2023-10-15T07:20:32Z</time>
      </trkpt>
      <trkpt lat="49.18012" lon="-0.04307">
        <ele>15.3</ele>
        <time>2023-10-15T07:20:33Z</time>
      </trkpt>
      <trkpt lat="49.18006" lon="-0.04305">
        <ele>15.6</ele>
        <time>2023-10-15T07:20:34Z</time>
      </trkpt>
      <trkpt lat="49.17999" lon="-0.04303">
        <ele>15.9</ele>
        <time>2023-10-15T07:20:35Z</time>
      </trkpt>
      <trkpt lat="49.17992" lon="-0.04301">
        <ele>16.2</ele>
        <time>2023-10-15T07:20:36Z</time>
      </trkpt>
      <trkpt lat="49.17985" lon="-0.04299">
        <ele>16.4</ele>
        <time>2023-10-15T07:20:37Z</time>
      </trkpt>
      <trkpt lat="49.17978" lon="-0.04297">
        <ele>16.7</ele>
        <time>2023-10-15T07:20:38Z</time>
      </trkpt>
      <trkpt lat="49.17971" lon="-0.04295">
        <ele>17</ele>
        <time>2023-10-15T07:20:39Z</time>
      </trkpt>
      <trkpt lat="49.17965" lon="-0.04294">
        <ele>17.2</ele>
        <time>2023-10-15T07:20:40Z</time>
      </trkpt>
      <trkpt lat="49.17958" lon="-0.04292">
        <ele>17.5</ele>
        <time>2023-10-15T07:20:41Z</time>
      </trkpt>
      <trkpt lat="49.1795" lon="-0.0429">
        <ele>17.8</ele>
        <time>2023-10-15T07:20:42Z</time>
      </trkpt>
      <trkpt lat="49.17943" lon="-0.04288">
        <ele>18.1</ele>
        <time>2023-10-15T07:20:43Z</time>
      </trkpt>
      <trkpt lat="49.17936" lon="-0.04286">
        <ele>18.4</ele>
        <time>2023-10-15T07:20:44Z</time>
      </trkpt>
      <trkpt lat="49.17929" lon="-0.04284">
        <ele>18.5</ele>
        <time>2023-10-15T07:20:45Z</time>
      </trkpt>
      <trkpt lat="49.17921" lon="-0.04282">
        <ele>18.7</ele>
        <time>2023-10-15T07:20:46Z</time>
      </trkpt>
      <trkpt lat="49.17914" lon="-0.04279">
        <ele>18.9</ele>
        <time>2023-10-15T07:20:47Z</time>
      </trkpt>
      <trkpt lat="49.17907" lon="-0.04276">
        <ele>19.1</ele>
        <time>2023-10-15T07:20:48Z</time>
      </trkpt>
      <trkpt lat="49.179" lon="-0.04273">
        <ele>19.3</ele>
        <time>2023-10-15T07:20:49Z</time>
      </trkpt>
      <trkpt lat="49.17893" lon="-0.0427">
        <ele>19.4</ele>
        <time>2023-10-15T07:20:50Z</time>
      </trkpt>
      <trkpt lat="49.17886" lon="-0.04267">
        <ele>19.6</ele>
        <time>2023-10-15T07:20:51Z</time>
      </trkpt>
      <trkpt lat="49.17879" lon="-0.04264">
        <ele>19.7</ele>
        <time>2023-10-15T07:20:52Z</time>
      </trkpt>
      <trkpt lat="49.17872" lon="-0.04261">
        <ele>19.9</ele>
        <time>2023-10-15T07:20:53Z</time>
      </trkpt>
      <trkpt lat="49.17865" lon="-0.04257">
        <ele>20</ele>
        <time>2023-10-15T07:20:54Z</time>
      </trkpt>
      <trkpt lat="49.17858" lon="-0.04254">
        <ele>20</ele>
        <time>2023-10-15T07:20:55Z</time>
      </trkpt>
      <trkpt lat="49.17852" lon="-0.0425">
        <ele>20.1</ele>
        <time>2023-10-15T07:20:56Z</time>
      </trkpt>
      <trkpt lat="49.17845" lon="-0.04246">
        <ele>20.1</ele>
        <time>2023-10-15T07:20:57Z</time>
      </trkpt>
      <trkpt lat="49.17839" lon="-0.04241">
        <ele>20.1</ele>
        <time>2023-10-15T07:20:58Z</time>
      </trkpt>
      <trkpt lat="49.17832" lon="-0.04237">
        <ele>20.1</ele>
        <time>2023-10-15T07:20:59Z</time>
      </trkpt>
      <trkpt lat="49.17826" lon="-0.04232">
        <ele>20.1</ele>
        <time>2023-10-15T07:21:00Z</time>
      </trkpt>
      <trkpt lat="49.1782" lon="-0.04226">
        <ele>20.1</ele>
        <time>2023-10-15T07:21:01Z</time>
      </trkpt>
      <trkpt lat="49.17813" lon="-0.0422">
        <ele>20</ele>
        <time>2023-10-15T07:21:02Z</time>
      </trkpt>
      <trkpt lat="49.17807" lon="-0.04214">
        <ele>20</ele>
        <time>2023-10-15T07:21:03Z</time>
      </trkpt>
      <trkpt lat="49.17801" lon="-0.04208">
        <ele>19.9</ele>
        <time>2023-10-15T07:21:04Z</time>
      </trkpt>
      <trkpt lat="49.17795" lon="-0.04202">
        <ele>19.8</ele>
        <time>2023-10-15T07:21:05Z</time>
      </trkpt>
      <trkpt lat="49.1779" lon="-0.04195">
        <ele>19.6</ele>
        <time>2023-10-15T07:21:06Z</time>
      </trkpt>
      <trkpt lat="49.17784" lon="-0.04188">
        <ele>19.4</ele>
        <time>2023-10-15T07:21:07Z</time>
      </trkpt>
      <trkpt lat="49.17779" lon="-0.0418">
        <ele>19.3</ele>
        <time>2023-10-15T07:21:08Z</time>
      </trkpt>
      <trkpt lat="49.17774" lon="-0.04171">
        <ele>19.1</ele>
        <time>2023-10-15T07:21:09Z</time>
      </trkpt>
      <trkpt lat="49.17769" lon="-0.04162">
        <ele>19</ele>
        <time>2023-10-15T07:21:10Z</time>
      </trkpt>
      <trkpt lat="49.17765" lon="-0.04152">
        <ele>18.9</ele>
        <time>2023-10-15T07:21:11Z</time>
      </trkpt>
      <trkpt lat="49.1776" lon="-0.04142">
        <ele>18.7</ele>
        <time>2023-10-15T07:21:12Z</time>
      </trkpt>
      <trkpt lat="49.17756" lon="-0.04131">
        <ele>18.6</ele>
        <time>2023-10-15T07:21:13Z</time>
      </trkpt>
      <trkpt lat="49.17751" lon="-0.04121">
        <ele>18.4</ele>
        <time>2023-10-15T07:21:14Z</time>
      </trkpt>
      <trkpt lat="49.17747" lon="-0.04111">
        <ele>18.3</ele>
        <time>2023-10-15T07:21:15Z</time>
      </trkpt>
      <trkpt lat="49.17743" lon="-0.041">
        <ele>18.1</ele>
        <time>2023-10-15T07:21:16Z</time>
      </trkpt>
      <trkpt lat="49.17739" lon="-0.0409">
        <ele>18</ele>
        <time>2023-10-15T07:21:17Z</time>
      </trkpt>
      <trkpt lat="49.17734" lon="-0.0408">
        <ele>17.8</ele>
        <time>2023-10-15T07:21:18Z</time>
      </trkpt>
      <trkpt lat="49.1773" lon="-0.0407">
        <ele>17.7</ele>
        <time>2023-10-15T07:21:19Z</time>
      </trkpt>
      <trkpt lat="49.17725" lon="-0.04061">
        <ele>17.6</ele>
        <time>2023-10-15T07:21:20Z</time>
      </trkpt>
      <trkpt lat="49.17719" lon="-0.04052">
        <ele>17.5</ele>
        <time>2023-10-15T07:21:21Z</time>
      </trkpt>
      <trkpt lat="49.17712" lon="-0.04044">
        <ele>17.4</ele>
        <time>2023-10-15T07:21:22Z</time>
      </trkpt>
      <trkpt lat="49.17705" lon="-0.04037">
        <ele>17.3</ele>
        <time>2023-10-15T07:21:23Z</time>
      </trkpt>
      <trkpt lat="49.17698" lon="-0.04031">
        <ele>17.2</ele>
        <time>2023-10-15T07:21:24Z</time>
      </trkpt>
      <trkpt lat="49.1769" lon="-0.04027">
        <ele>17.1</ele>
        <time>2023-10-15T07:21:25Z</time>
      </trkpt>
      <trkpt lat="49.17683" lon="-0.04023">
        <ele>17</ele>
        <time>2023-10-15T07:21:26Z</time>
      </trkpt>
      <trkpt lat="49.17675" lon="-0.0402">
        <ele>16.8</ele>
        <time>2023-10-15T07:21:27Z</time>
      </trkpt>
      <trkpt lat="49.17667" lon="-0.04018">
        <ele>16.7</ele>
        <time>2023-10-15T07:21:28Z</time>
      </trkpt>
      <trkpt lat="49.17659" lon="-0.04016">
        <ele>16.5</ele>
        <time>2023-10-15T07:21:29Z</time>
      </trkpt>
      <trkpt lat="49.17651" lon="-0.04014">
        <ele>16.4</ele>
        <time>2023-10-15T07:21:30Z</time>
      </trkpt>
      <trkpt lat="49.17643" lon="-0.04011">
        <ele>16.3</ele>
        <time>2023-10-15T07:21:31Z</time>
      </trkpt>
      <trkpt lat="49.17634" lon="-0.04009">
        <ele>16.2</ele>
        <time>2023-10-15T07:21:32Z</time>
      </trkpt>
      <trkpt lat="49.17626" lon="-0.04007">
        <ele>16.2</ele>
        <time>2023-10-15T07:21:33Z</time>
      </trkpt>
      <trkpt lat="49.17619" lon="-0.04005">
        <ele>16.2</ele>
        <time>2023-10-15T07:21:34Z</time>
      </trkpt>
      <trkpt lat="49.1761" lon="-0.04002">
        <ele>16.2</ele>
        <time>2023-10-15T07:21:35Z</time>
      </trkpt>
      <trkpt lat="49.17602" lon="-0.04">
        <ele>16.2</ele>
        <time>2023-10-15T07:21:36Z</time>
      </trkpt>
      <trkpt lat="49.17593" lon="-0.03997">
        <ele>16.2</ele>
        <time>2023-10-15T07:21:37Z</time>
      </trkpt>
      <trkpt lat="49.17584" lon="-0.03995">
        <ele>16.3</ele>
        <time>2023-10-15T07:21:38Z</time>
      </trkpt>
      <trkpt lat="49.17576" lon="-0.03993">
        <ele>16.4</ele>
        <time>2023-10-15T07:21:39Z</time>
      </trkpt>
      <trkpt lat="49.17568" lon="-0.0399">
        <ele>16.5</ele>
        <time>2023-10-15T07:21:40Z</time>
      </trkpt>
      <trkpt lat="49.1756" lon="-0.03987">
        <ele>16.6</ele>
        <time>2023-10-15T07:21:41Z</time>
      </trkpt>
      <trkpt lat="49.17552" lon="-0.03985">
        <ele>16.8</ele>
        <time>2023-10-15T07:21:42Z</time>
      </trkpt>
      <trkpt lat="49.17545" lon="-0.03983">
        <ele>16.9</ele>
        <time>2023-10-15T07:21:43Z</time>
      </trkpt>
      <trkpt lat="49.17538" lon="-0.03981">
        <ele>17</ele>
        <time>2023-10-15T07:21:44Z</time>
      </trkpt>
      <trkpt lat="49.1753" lon="-0.03978">
        <ele>17.2</ele>
        <time>2023-10-15T07:21:45Z</time>
      </trkpt>
      <trkpt lat="49.17523" lon="-0.03977">
        <ele>17.3</ele>
        <time>2023-10-15T07:21:46Z</time>
      </trkpt>
      <trkpt lat="49.17515" lon="-0.03975">
        <ele>17.4</ele>
        <time>2023-10-15T07:21:47Z</time>
      </trkpt>
      <trkpt lat="49.17508" lon="-0.03972">
        <ele>17.5</ele>
        <time>2023-10-15T07:21:48Z</time>
      </trkpt>
      <trkpt lat="49.175" lon="-0.0397">
        <ele>17.7</ele>
        <time>2023-10-15T07:21:49Z</time>
      </trkpt>
      <trkpt lat="49.17492" lon="-0.03968">
        <ele>17.8</ele>
        <time>2023-10-15T07:21:50Z</time>
      </trkpt>
      <trkpt lat="49.17485" lon="-0.03965">
        <ele>18</ele>
        <time>2023-10-15T07:21:51Z</time>
      </trkpt>
      <trkpt lat="49.17477" lon="-0.03962">
        <ele>18.1</ele>
        <time>2023-10-15T07:21:52Z</time>
      </trkpt>
      <trkpt lat="49.1747" lon="-0.0396">
        <ele>18.3</ele>
        <time>2023-10-15T07:21:53Z</time>
      </trkpt>
      <trkpt lat="49.17462" lon="-0.03957">
        <ele>18.4</ele>
        <time>2023-10-15T07:21:54Z</time>
      </trkpt>
      <trkpt lat="49.17455" lon="-0.03955">
        <ele>18.6</ele>
        <time>2023-10-15T07:21:55Z</time>
      </trkpt>
      <trkpt lat="49.17448" lon="-0.03953">
        <ele>18.7</ele>
        <time>2023-10-15T07:21:56Z</time>
      </trkpt>
      <trkpt lat="49.17441" lon="-0.03951">
        <ele>18.9</ele>
        <time>2023-10-15T07:21:57Z</time>
      </trkpt>
      <trkpt lat="49.17434" lon="-0.03949">
        <ele>19.1</ele>
        <time>2023-10-15T07:21:58Z</time>
      </trkpt>
      <trkpt lat="49.17427" lon="-0.03947">
        <ele>19.3</ele>
        <time>2023-10-15T07:21:59Z</time>
      </trkpt>
      <trkpt lat="49.1742" lon="-0.03945">
        <ele>19.5</ele>
        <time>2023-10-15T07:22:00Z</time>
      </trkpt>
      <trkpt lat="49.17413" lon="-0.03943">
        <ele>19.6</ele>
        <time>2023-10-15T07:22:01Z</time>
      </trkpt>
      <trkpt lat="49.17406" lon="-0.03941">
        <ele>19.8</ele>
        <time>2023-10-15T07:22:02Z</time>
      </trkpt>
      <trkpt lat="49.17399" lon="-0.03939">
        <ele>20</ele>
        <time>2023-10-15T07:22:03Z</time>
      </trkpt>
      <trkpt lat="49.17392" lon="-0.03937">
        <ele>20.3</ele>
        <time>2023-10-15T07:22:04Z</time>
      </trkpt>
      <trkpt lat="49.17386" lon="-0.03935">
        <ele>20.5</ele>
        <time>2023-10-15T07:22:05Z</time>
      </trkpt>
      <trkpt lat="49.17379" lon="-0.03933">
        <ele>20.7</ele>
        <time>2023-10-15T07:22:06Z</time>
      </trkpt>
      <trkpt lat="49.17372" lon="-0.03931">
        <ele>20.9</ele>
        <time>2023-10-15T07:22:07Z</time>
      </trkpt>
      <trkpt lat="49.17366" lon="-0.0393">
        <ele>21.2</ele>
        <time>2023-10-15T07:22:08Z</time>
      </trkpt>
      <trkpt lat="49.17359" lon="-0.03928">
        <ele>21.4</ele>
        <time>2023-10-15T07:22:09Z</time>
      </trkpt>
      <trkpt lat="49.17352" lon="-0.03925">
        <ele>21.7</ele>
        <time>2023-10-15T07:22:10Z</time>
      </trkpt>
      <trkpt lat="49.17346" lon="-0.03923">
        <ele>21.9</ele>
        <time>2023-10-15T07:22:11Z</time>
      </trkpt>
      <trkpt lat="49.1734" lon="-0.0392">
        <ele>22.2</ele>
        <time>2023-10-15T07:22:12Z</time>
      </trkpt>
      <trkpt lat="49.17334" lon="-0.03917">
        <ele>22.4</ele>
        <time>2023-10-15T07:22:13Z</time>
      </trkpt>
      <trkpt lat="49.17329" lon="-0.03913">
        <ele>22.6</ele>
        <time>2023-10-15T07:22:14Z</time>
      </trkpt>
      <trkpt lat="49.17324" lon="-0.03909">
        <ele>22.8</ele>
        <time>2023-10-15T07:22:15Z</time>
      </trkpt>
      <trkpt lat="49.17319" lon="-0.03906">
        <ele>23.1</ele>
        <time>2023-10-15T07:22:16Z</time>
      </trkpt>
      <trkpt lat="49.17313" lon="-0.03905">
        <ele>23.4</ele>
        <time>2023-10-15T07:22:17Z</time>
      </trkpt>
      <trkpt lat="49.17307" lon="-0.03907">
        <ele>23.4</ele>
        <time>2023-10-15T07:22:18Z</time>
      </trkpt>
      <trkpt lat="49.17302" lon="-0.03911">
        <ele>23.5</ele>
        <time>2023-10-15T07:22:19Z</time>
      </trkpt>
      <trkpt lat="49.17298" lon="-0.03919">
        <ele>23.5</ele>
        <time>2023-10-15T07:22:20Z</time>
      </trkpt>
      <trkpt lat="49.17295" lon="-0.03928">
        <ele>23.5</ele>
        <time>2023-10-15T07:22:21Z</time>
      </trkpt>
      <trkpt lat="49.17291" lon="-0.03936">
        <ele>23.6</ele>
        <time>2023-10-15T07:22:22Z</time>
      </trkpt>
      <trkpt lat="49.17288" lon="-0.03945">
        <ele>23.7</ele>
        <time>2023-10-15T07:22:23Z</time>
      </trkpt>
      <trkpt lat="49.17284" lon="-0.03954">
        <ele>23.8</ele>
        <time>2023-10-15T07:22:24Z</time>
      </trkpt>
      <trkpt lat="49.17281" lon="-0.03964">
        <ele>23.9</ele>
        <time>2023-10-15T07:22:25Z</time>
      </trkpt>
      <trkpt lat="49.17277" lon="-0.03973">
        <ele>24</ele>
        <time>2023-10-15T07:22:26Z</time>
      </trkpt>
      <trkpt lat="49.17274" lon="-0.03982">
        <ele>24.1</ele>
        <time>2023-10-15T07:22:27Z</time>
      </trkpt>
      <trkpt lat="49.1727" lon="-0.03992">
        <ele>24.2</ele>
        <time>2023-10-15T07:22:28Z</time>
      </trkpt>
      <trkpt lat="49.17266" lon="-0.04002">
        <ele>24.3</ele>
        <time>2023-10-15T07:22:29Z</time>
      </trkpt>
      <trkpt lat="49.17263" lon="-0.04012">
        <ele>24.4</ele>
        <time>2023-10-15T07:22:30Z</time>
      </trkpt>
      <trkpt lat="49.17259" lon="-0.04022">
        <ele>24.5</ele>
        <time>2023-10-15T07:22:31Z</time>
      </trkpt>
      <trkpt lat="49.17256" lon="-0.04032">
        <ele>24.6</ele>
        <time>2023-10-15T07:22:32Z</time>
      </trkpt>
      <trkpt lat="49.17252" lon="-0.04042">
        <ele>24.7</ele>
        <time>2023-10-15T07:22:33Z</time>
      </trkpt>
      <trkpt lat="49.17249" lon="-0.04053">
        <ele>24.8</ele>
        <time>2023-10-15T07:22:34Z</time>
      </trkpt>
      <trkpt lat="49.17245" lon="-0.04063">
        <ele>24.9</ele>
        <time>2023-10-15T07:22:35Z</time>
      </trkpt>
      <trkpt lat="49.17242" lon="-0.04073">
        <ele>24.9</ele>
        <time>2023-10-15T07:22:36Z</time>
      </trkpt>
      <trkpt lat="49.1724" lon="-0.04084">
        <ele>25</ele>
        <time>2023-10-15T07:22:37Z</time>
      </trkpt>
      <trkpt lat="49.17237" lon="-0.04095">
        <ele>24.9</ele>
        <time>2023-10-15T07:22:38Z</time>
      </trkpt>
      <trkpt lat="49.17234" lon="-0.04106">
        <ele>24.9</ele>
        <time>2023-10-15T07:22:39Z</time>
      </trkpt>
      <trkpt lat="49.17231" lon="-0.04117">
        <ele>24.9</ele>
        <time>2023-10-15T07:22:40Z</time>
      </trkpt>
      <trkpt lat="49.17229" lon="-0.04129">
        <ele>24.9</ele>
        <time>2023-10-15T07:22:41Z</time>
      </trkpt>
      <trkpt lat="49.17226" lon="-0.04141">
        <ele>24.9</ele>
        <time>2023-10-15T07:22:42Z</time>
      </trkpt>
      <trkpt lat="49.17224" lon="-0.04153">
        <ele>24.9</ele>
        <time>2023-10-15T07:22:43Z</time>
      </trkpt>
      <trkpt lat="49.17221" lon="-0.04165">
        <ele>24.9</ele>
        <time>2023-10-15T07:22:44Z</time>
      </trkpt>
      <trkpt lat="49.17219" lon="-0.04177">
        <ele>24.9</ele>
        <time>2023-10-15T07:22:45Z</time>
      </trkpt>
      <trkpt lat="49.17216" lon="-0.04189">
        <ele>25</ele>
        <time>2023-10-15T07:22:46Z</time>
      </trkpt>
      <trkpt lat="49.17214" lon="-0.04201">
        <ele>25</ele>
        <time>2023-10-15T07:22:47Z</time>
      </trkpt>
      <trkpt lat="49.17212" lon="-0.04212">
        <ele>25</ele>
        <time>2023-10-15T07:22:48Z</time>
      </trkpt>
      <trkpt lat="49.1721" lon="-0.04223">
        <ele>25</ele>
        <time>2023-10-15T07:22:49Z</time>
      </trkpt>
      <trkpt lat="49.17208" lon="-0.04235">
        <ele>25</ele>
        <time>2023-10-15T07:22:50Z</time>
      </trkpt>
      <trkpt lat="49.17206" lon="-0.04246">
        <ele>25.1</ele>
        <time>2023-10-15T07:22:51Z</time>
      </trkpt>
      <trkpt lat="49.17203" lon="-0.04257">
        <ele>25.1</ele>
        <time>2023-10-15T07:22:52Z</time>
      </trkpt>
      <trkpt lat="49.17201" lon="-0.04268">
        <ele>25.1</ele>
        <time>2023-10-15T07:22:53Z</time>
      </trkpt>
      <trkpt lat="49.17198" lon="-0.0428">
        <ele>25.1</ele>
        <time>2023-10-15T07:22:54Z</time>
      </trkpt>
      <trkpt lat="49.17196" lon="-0.04291">
        <ele>25.2</ele>
        <time>2023-10-15T07:22:55Z</time>
      </trkpt>
      <trkpt lat="49.17193" lon="-0.04302">
        <ele>25.2</ele>
        <time>2023-10-15T07:22:56Z</time>
      </trkpt>
      <trkpt lat="49.17191" lon="-0.04314">
        <ele>25.2</ele>
        <time>2023-10-15T07:22:57Z</time>
      </trkpt>
      <trkpt lat="49.17189" lon="-0.04325">
        <ele>25.2</ele>
        <time>2023-10-15T07:22:58Z</time>
      </trkpt>
      <trkpt lat="49.17186" lon="-0.04336">
        <ele>25.3</ele>
        <time>2023-10-15T07:22:59Z</time>
      </trkpt>
      <trkpt lat="49.17183" lon="-0.04347">
        <ele>25.3</ele>
        <time>2023-10-15T07:23:00Z</time>
      </trkpt>
      <trkpt lat="49.17179" lon="-0.04357">
        <ele>25.4</ele>
        <time>2023-10-15T07:23:01Z</time>
      </trkpt>
      <trkpt lat="49.17175" lon="-0.04368">
        <ele>25.4</ele>
        <time>2023-10-15T07:23:02Z</time>
      </trkpt>
      <trkpt lat="49.17171" lon="-0.04378">
        <ele>25.4</ele>
        <time>2023-10-15T07:23:03Z</time>
      </trkpt>
      <trkpt lat="49.17165" lon="-0.04386">
        <ele>25.4</ele>
        <time>2023-10-15T07:23:04Z</time>
      </trkpt>
      <trkpt lat="49.17159" lon="-0.04395">
        <ele>25.5</ele>
        <time>2023-10-15T07:23:05Z</time>
      </trkpt>
      <trkpt lat="49.17154" lon="-0.04404">
        <ele>25.5</ele>
        <time>2023-10-15T07:23:06Z</time>
      </trkpt>
      <trkpt lat="49.17148" lon="-0.04412">
        <ele>25.6</ele>
        <time>2023-10-15T07:23:07Z</time>
      </trkpt>
      <trkpt lat="49.17142" lon="-0.04421">
        <ele>25.7</ele>
        <time>2023-10-15T07:23:08Z</time>
      </trkpt>
      <trkpt lat="49.17137" lon="-0.0443">
        <ele>25.8</ele>
        <time>2023-10-15T07:23:09Z</time>
      </trkpt>
      <trkpt lat="49.17131" lon="-0.04438">
        <ele>25.8</ele>
        <time>2023-10-15T07:23:10Z</time>
      </trkpt>
      <trkpt lat="49.17126" lon="-0.04447">
        <ele>25.9</ele>
        <time>2023-10-15T07:23:11Z</time>
      </trkpt>
      <trkpt lat="49.1712" lon="-0.04456">
        <ele>26</ele>
        <time>2023-10-15T07:23:12Z</time>
      </trkpt>
      <trkpt lat="49.17115" lon="-0.04465">
        <ele>26</ele>
        <time>2023-10-15T07:23:13Z</time>
      </trkpt>
      <trkpt lat="49.17109" lon="-0.04474">
        <ele>26.1</ele>
        <time>2023-10-15T07:23:14Z</time>
      </trkpt>
      <trkpt lat="49.17104" lon="-0.04484">
        <ele>26.2</ele>
        <time>2023-10-15T07:23:15Z</time>
      </trkpt>
      <trkpt lat="49.171" lon="-0.04494">
        <ele>26.3</ele>
        <time>2023-10-15T07:23:16Z</time>
      </trkpt>
      <trkpt lat="49.17096" lon="-0.04504">
        <ele>26.3</ele>
        <time>2023-10-15T07:23:17Z</time>
      </trkpt>
      <trkpt lat="49.17092" lon="-0.04514">
        <ele>26.4</ele>
        <time>2023-10-15T07:23:18Z</time>
      </trkpt>
      <trkpt lat="49.17088" lon="-0.04525">
        <ele>26.5</ele>
        <time>2023-10-15T07:23:19Z</time>
      </trkpt>
      <trkpt lat="49.17084" lon="-0.04535">
        <ele>26.6</ele>
        <time>2023-10-15T07:23:20Z</time>
      </trkpt>
      <trkpt lat="49.17081" lon="-0.04547">
        <ele>26.7</ele>
        <time>2023-10-15T07:23:21Z</time>
      </trkpt>
      <trkpt lat="49.17079" lon="-0.04558">
        <ele>26.8</ele>
        <time>2023-10-15T07:23:22Z</time>
      </trkpt>
      <trkpt lat="49.17076" lon="-0.0457">
        <ele>26.9</ele>
        <time>2023-10-15T07:23:23Z</time>
      </trkpt>
      <trkpt lat="49.17073" lon="-0.04581">
        <ele>27.1</ele>
        <time>2023-10-15T07:23:24Z</time>
      </trkpt>
      <trkpt lat="49.17071" lon="-0.04593">
        <ele>27.2</ele>
        <time>2023-10-15T07:23:25Z</time>
      </trkpt>
      <trkpt lat="49.17068" lon="-0.04604">
        <ele>27.3</ele>
        <time>2023-10-15T07:23:26Z</time>
      </trkpt>
      <trkpt lat="49.17066" lon="-0.04615">
        <ele>27.5</ele>
        <time>2023-10-15T07:23:27Z</time>
      </trkpt>
      <trkpt lat="49.17063" lon="-0.04627">
        <ele>27.6</ele>
        <time>2023-10-15T07:23:28Z</time>
      </trkpt>
      <trkpt lat="49.17061" lon="-0.04638">
        <ele>27.8</ele>
        <time>2023-10-15T07:23:29Z</time>
      </trkpt>
      <trkpt lat="49.17059" lon="-0.04649">
        <ele>28</ele>
        <time>2023-10-15T07:23:30Z</time>
      </trkpt>
      <trkpt lat="49.17056" lon="-0.0466">
        <ele>28.1</ele>
        <time>2023-10-15T07:23:31Z</time>
      </trkpt>
      <trkpt lat="49.17054" lon="-0.04671">
        <ele>28.3</ele>
        <time>2023-10-15T07:23:32Z</time>
      </trkpt>
      <trkpt lat="49.17052" lon="-0.04682">
        <ele>28.5</ele>
        <time>2023-10-15T07:23:33Z</time>
      </trkpt>
      <trkpt lat="49.1705" lon="-0.04693">
        <ele>28.7</ele>
        <time>2023-10-15T07:23:34Z</time>
      </trkpt>
      <trkpt lat="49.17047" lon="-0.04705">
        <ele>28.9</ele>
        <time>2023-10-15T07:23:35Z</time>
      </trkpt>
      <trkpt lat="49.17045" lon="-0.04716">
        <ele>29.1</ele>
        <time>2023-10-15T07:23:36Z</time>
      </trkpt>
      <trkpt lat="49.17042" lon="-0.04727">
        <ele>29.3</ele>
        <time>2023-10-15T07:23:37Z</time>
      </trkpt>
      <trkpt lat="49.17039" lon="-0.04738">
        <ele>29.5</ele>
        <time>2023-10-15T07:23:38Z</time>
      </trkpt>
      <trkpt lat="49.17036" lon="-0.04749">
        <ele>29.7</ele>
        <time>2023-10-15T07:23:39Z</time>
      </trkpt>
      <trkpt lat="49.17033" lon="-0.0476">
        <ele>29.9</ele>
        <time>2023-10-15T07:23:40Z</time>
      </trkpt>
      <trkpt lat="49.1703" lon="-0.04771">
        <ele>30.1</ele>
        <time>2023-10-15T07:23:41Z</time>
      </trkpt>
      <trkpt lat="49.17027" lon="-0.04782">
        <ele>30.4</ele>
        <time>2023-10-15T07:23:42Z</time>
      </trkpt>
      <trkpt lat="49.17024" lon="-0.04792">
        <ele>30.6</ele>
        <time>2023-10-15T07:23:43Z</time>
      </trkpt>
      <trkpt lat="49.1702" lon="-0.04803">
        <ele>30.9</ele>
        <time>2023-10-15T07:23:44Z</time>
      </trkpt>
      <trkpt lat="49.17017" lon="-0.04814">
        <ele>31.1</ele>
        <time>2023-10-15T07:23:45Z</time>
      </trkpt>
      <trkpt lat="49.17013" lon="-0.04824">
        <ele>31.3</ele>
        <time>2023-10-15T07:23:46Z</time>
      </trkpt>
      <trkpt lat="49.1701" lon="-0.04835">
        <ele>31.5</ele>
        <time>2023-10-15T07:23:47Z</time>
      </trkpt>
      <trkpt lat="49.17007" lon="-0.04845">
        <ele>31.7</ele>
        <time>2023-10-15T07:23:48Z</time>
      </trkpt>
      <trkpt lat="49.17004" lon="-0.04855">
        <ele>31.9</ele>
        <time>2023-10-15T07:23:49Z</time>
      </trkpt>
      <trkpt lat="49.17001" lon="-0.04866">
        <ele>32.1</ele>
        <time>2023-10-15T07:23:50Z</time>
      </trkpt>
      <trkpt lat="49.16998" lon="-0.04876">
        <ele>32.3</ele>
        <time>2023-10-15T07:23:51Z</time>
      </trkpt>
      <trkpt lat="49.16995" lon="-0.04887">
        <ele>32.4</ele>
        <time>2023-10-15T07:23:52Z</time>
      </trkpt>
      <trkpt lat="49.16993" lon="-0.04898">
        <ele>32.5</ele>
        <time>2023-10-15T07:23:53Z</time>
      </trkpt>
      <trkpt lat="49.16989" lon="-0.04909">
        <ele>32.6</ele>
        <time>2023-10-15T07:23:54Z</time>
      </trkpt>
      <trkpt lat="49.16986" lon="-0.0492">
        <ele>32.7</ele>
        <time>2023-10-15T07:23:55Z</time>
      </trkpt>
      <trkpt lat="49.16983" lon="-0.0493">
        <ele>32.8</ele>
        <time>2023-10-15T07:23:56Z</time>
      </trkpt>
      <trkpt lat="49.1698" lon="-0.0494">
        <ele>32.9</ele>
        <time>2023-10-15T07:23:57Z</time>
      </trkpt>
      <trkpt lat="49.16978" lon="-0.04949">
        <ele>32.9</ele>
        <time>2023-10-15T07:23:58Z</time>
      </trkpt>
      <trkpt lat="49.16975" lon="-0.04958">
        <ele>33</ele>
        <time>2023-10-15T07:23:59Z</time>
      </trkpt>
      <trkpt lat="49.16973" lon="-0.04967">
        <ele>33</ele>
        <time>2023-10-15T07:24:00Z</time>
      </trkpt>
      <trkpt lat="49.16971" lon="-0.04975">
        <ele>33</ele>
        <time>2023-10-15T07:24:01Z</time>
      </trkpt>
      <trkpt lat="49.16969" lon="-0.04983">
        <ele>33</ele>
        <time>2023-10-15T07:24:02Z</time>
      </trkpt>
      <trkpt lat="49.16967" lon="-0.04992">
        <ele>33.1</ele>
        <time>2023-10-15T07:24:03Z</time>
      </trkpt>
      <trkpt lat="49.16966" lon="-0.05">
        <ele>33.1</ele>
        <time>2023-10-15T07:24:04Z</time>
      </trkpt>
      <trkpt lat="49.16965" lon="-0.05007">
        <ele>33.1</ele>
        <time>2023-10-15T07:24:05Z</time>
      </trkpt>
      <trkpt lat="49.16964" lon="-0.05015">
        <ele>33.1</ele>
        <time>2023-10-15T07:24:06Z</time>
      </trkpt>
      <trkpt lat="49.16962" lon="-0.05022">
        <ele>33.1</ele>
        <time>2023-10-15T07:24:07Z</time>
      </trkpt>
      <trkpt lat="49.1696" lon="-0.0503">
        <ele>33.1</ele>
        <time>2023-10-15T07:24:08Z</time>
      </trkpt>
      <trkpt lat="49.16956" lon="-0.05037">
        <ele>33.2</ele>
        <time>2023-10-15T07:24:09Z</time>
      </trkpt>
      <trkpt lat="49.16952" lon="-0.05044">
        <ele>33.2</ele>
        <time>2023-10-15T07:24:10Z</time>
      </trkpt>
      <trkpt lat="49.16947" lon="-0.0505">
        <ele>33.1</ele>
        <time>2023-10-15T07:24:11Z</time>
      </trkpt>
      <trkpt lat="49.1694" lon="-0.05055">
        <ele>33.1</ele>
        <time>2023-10-15T07:24:12Z</time>
      </trkpt>
      <trkpt lat="49.16933" lon="-0.05059">
        <ele>33</ele>
        <time>2023-10-15T07:24:13Z</time>
      </trkpt>
      <trkpt lat="49.16926" lon="-0.05061">
        <ele>33</ele>
        <time>2023-10-15T07:24:14Z</time>
      </trkpt>
      <trkpt lat="49.16919" lon="-0.05063">
        <ele>33</ele>
        <time>2023-10-15T07:24:15Z</time>
      </trkpt>
      <trkpt lat="49.16912" lon="-0.05065">
        <ele>33</ele>
        <time>2023-10-15T07:24:16Z</time>
      </trkpt>
      <trkpt lat="49.16905" lon="-0.05066">
        <ele>33.1</ele>
        <time>2023-10-15T07:24:17Z</time>
      </trkpt>
      <trkpt lat="49.16898" lon="-0.05066">
        <ele>33.2</ele>
        <time>2023-10-15T07:24:18Z</time>
      </trkpt>
      <trkpt lat="49.1689" lon="-0.05066">
        <ele>33.2</ele>
        <time>2023-10-15T07:24:19Z</time>
      </trkpt>
      <trkpt lat="49.16883" lon="-0.05066">
        <ele>33.3</ele>
        <time>2023-10-15T07:24:20Z</time>
      </trkpt>
      <trkpt lat="49.16876" lon="-0.05067">
        <ele>33.4</ele>
        <time>2023-10-15T07:24:21Z</time>
      </trkpt>
      <trkpt lat="49.16869" lon="-0.05069">
        <ele>33.5</ele>
        <time>2023-10-15T07:24:22Z</time>
      </trkpt>
      <trkpt lat="49.16863" lon="-0.05072">
        <ele>33.6</ele>
        <time>2023-10-15T07:24:23Z</time>
      </trkpt>
      <trkpt lat="49.16856" lon="-0.05076">
        <ele>33.7</ele>
        <time>2023-10-15T07:24:24Z</time>
      </trkpt>
      <trkpt lat="49.1685" lon="-0.05079">
        <ele>33.7</ele>
        <time>2023-10-15T07:24:25Z</time>
      </trkpt>
      <trkpt lat="49.16844" lon="-0.05082">
        <ele>33.8</ele>
        <time>2023-10-15T07:24:26Z</time>
      </trkpt>
      <trkpt lat="49.16839" lon="-0.05085">
        <ele>33.8</ele>
        <time>2023-10-15T07:24:27Z</time>
      </trkpt>
      <trkpt lat="49.16835" lon="-0.05088">
        <ele>33.9</ele>
        <time>2023-10-15T07:24:28Z</time>
      </trkpt>
      <trkpt lat="49.1683" lon="-0.05092">
        <ele>33.9</ele>
        <time>2023-10-15T07:24:29Z</time>
      </trkpt>
      <trkpt lat="49.16824" lon="-0.05096">
        <ele>33.9</ele>
        <time>2023-10-15T07:24:30Z</time>
      </trkpt>
      <trkpt lat="49.16819" lon="-0.05102">
        <ele>33.9</ele>
        <time>2023-10-15T07:24:31Z</time>
      </trkpt>
      <trkpt lat="49.16813" lon="-0.05108">
        <ele>33.9</ele>
        <time>2023-10-15T07:24:32Z</time>
      </trkpt>
      <trkpt lat="49.16808" lon="-0.05116">
        <ele>33.9</ele>
        <time>2023-10-15T07:24:33Z</time>
      </trkpt>
      <trkpt lat="49.16802" lon="-0.05124">
        <ele>33.9</ele>
        <time>2023-10-15T07:24:34Z</time>
      </trkpt>
      <trkpt lat="49.16797" lon="-0.05131">
        <ele>33.8</ele>
        <time>2023-10-15T07:24:35Z</time>
      </trkpt>
      <trkpt lat="49.16791" lon="-0.05138">
        <ele>33.8</ele>
        <time>2023-10-15T07:24:36Z</time>
      </trkpt>
      <trkpt lat="49.16784" lon="-0.05145">
        <ele>33.7</ele>
        <time>2023-10-15T07:24:37Z</time>
      </trkpt>
      <trkpt lat="49.16776" lon="-0.05149">
        <ele>33.6</ele>
        <time>2023-10-15T07:24:38Z</time>
      </trkpt>
      <trkpt lat="49.16768" lon="-0.05152">
        <ele>33.5</ele>
        <time>2023-10-15T07:24:39Z</time>
      </trkpt>
      <trkpt lat="49.1676" lon="-0.05153">
        <ele>33.3</ele>
        <time>2023-10-15T07:24:40Z</time>
      </trkpt>
      <trkpt lat="49.16752" lon="-0.05153">
        <ele>33.1</ele>
        <time>2023-10-15T07:24:41Z</time>
      </trkpt>
      <trkpt lat="49.16744" lon="-0.05152">
        <ele>32.9</ele>
        <time>2023-10-15T07:24:42Z</time>
      </trkpt>
      <trkpt lat="49.16736" lon="-0.05152">
        <ele>32.7</ele>
        <time>2023-10-15T07:24:43Z</time>
      </trkpt>
      <trkpt lat="49.16729" lon="-0.05151">
        <ele>32.5</ele>
        <time>2023-10-15T07:24:44Z</time>
      </trkpt>
      <trkpt lat="49.16721" lon="-0.05151">
        <ele>32.3</ele>
        <time>2023-10-15T07:24:45Z</time>
      </trkpt>
      <trkpt lat="49.16713" lon="-0.05151">
        <ele>32.1</ele>
        <time>2023-10-15T07:24:46Z</time>
      </trkpt>
      <trkpt lat="49.16706" lon="-0.05151">
        <ele>32</ele>
        <time>2023-10-15T07:24:47Z</time>
      </trkpt>
      <trkpt lat="49.16699" lon="-0.05152">
        <ele>31.9</ele>
        <time>2023-10-15T07:24:48Z</time>
      </trkpt>
      <trkpt lat="49.16692" lon="-0.05156">
        <ele>31.8</ele>
        <time>2023-10-15T07:24:49Z</time>
      </trkpt>
      <trkpt lat="49.16687" lon="-0.05161">
        <ele>31.7</ele>
        <time>2023-10-15T07:24:50Z</time>
      </trkpt>
      <trkpt lat="49.16683" lon="-0.05167">
        <ele>31.7</ele>
        <time>2023-10-15T07:24:51Z</time>
      </trkpt>
      <trkpt lat="49.1668" lon="-0.05175">
        <ele>31.6</ele>
        <time>2023-10-15T07:24:52Z</time>
      </trkpt>
      <trkpt lat="49.16679" lon="-0.05184">
        <ele>31.5</ele>
        <time>2023-10-15T07:24:53Z</time>
      </trkpt>
      <trkpt lat="49.16677" lon="-0.05193">
        <ele>31.5</ele>
        <time>2023-10-15T07:24:54Z</time>
      </trkpt>
      <trkpt lat="49.16675" lon="-0.05204">
        <ele>31.4</ele>
        <time>2023-10-15T07:24:55Z</time>
      </trkpt>
      <trkpt lat="49.16673" lon="-0.05214">
        <ele>31.3</ele>
        <time>2023-10-15T07:24:56Z</time>
      </trkpt>
      <trkpt lat="49.1667" lon="-0.05225">
        <ele>31.2</ele>
        <time>2023-10-15T07:24:57Z</time>
      </trkpt>
      <trkpt lat="49.16667" lon="-0.05235">
        <ele>31.2</ele>
        <time>2023-10-15T07:24:58Z</time>
      </trkpt>
      <trkpt lat="49.16664" lon="-0.05244">
        <ele>31.2</ele>
        <time>2023-10-15T07:24:59Z</time>
      </trkpt>
      <trkpt lat="49.1666" lon="-0.05253">
        <ele>31.2</ele>
        <time>2023-10-15T07:25:00Z</time>
      </trkpt>
      <trkpt lat="49.16654" lon="-0.0526">
        <ele>31.1</ele>
        <time>2023-10-15T07:25:01Z</time>
      </trkpt>
      <trkpt lat="49.16648" lon="-0.05267">
        <ele>31.1</ele>
        <time>2023-10-15T07:25:02Z</time>
      </trkpt>
      <trkpt lat="49.16641" lon="-0.05271">
        <ele>31</ele>
        <time>2023-10-15T07:25:03Z</time>
      </trkpt>
      <trkpt lat="49.16635" lon="-0.05276">
        <ele>30.8</ele>
        <time>2023-10-15T07:25:04Z</time>
      </trkpt>
      <trkpt lat="49.16628" lon="-0.0528">
        <ele>30.6</ele>
        <time>2023-10-15T07:25:05Z</time>
      </trkpt>
      <trkpt lat="49.16621" lon="-0.05285">
        <ele>30.5</ele>
        <time>2023-10-15T07:25:06Z</time>
      </trkpt>
      <trkpt lat="49.16615" lon="-0.05289">
        <ele>30.3</ele>
        <time>2023-10-15T07:25:07Z</time>
      </trkpt>
      <trkpt lat="49.16608" lon="-0.05294">
        <ele>30.2</ele>
        <time>2023-10-15T07:25:08Z</time>
      </trkpt>
      <trkpt lat="49.16602" lon="-0.05301">
        <ele>30</ele>
        <time>2023-10-15T07:25:09Z</time>
      </trkpt>
      <trkpt lat="49.16596" lon="-0.05307">
        <ele>29.9</ele>
        <time>2023-10-15T07:25:10Z</time>
      </trkpt>
      <trkpt lat="49.16591" lon="-0.05314">
        <ele>29.9</ele>
        <time>2023-10-15T07:25:11Z</time>
      </trkpt>
      <trkpt lat="49.16586" lon="-0.05321">
        <ele>29.8</ele>
        <time>2023-10-15T07:25:12Z</time>
      </trkpt>
      <trkpt lat="49.16582" lon="-0.0533">
        <ele>29.7</ele>
        <time>2023-10-15T07:25:13Z</time>
      </trkpt>
      <trkpt lat="49.1658" lon="-0.05339">
        <ele>29.7</ele>
        <time>2023-10-15T07:25:14Z</time>
      </trkpt>
      <trkpt lat="49.16579" lon="-0.05349">
        <ele>29.6</ele>
        <time>2023-10-15T07:25:15Z</time>
      </trkpt>
      <trkpt lat="49.16578" lon="-0.05359">
        <ele>29.5</ele>
        <time>2023-10-15T07:25:16Z</time>
      </trkpt>
      <trkpt lat="49.16577" lon="-0.05369">
        <ele>29.4</ele>
        <time>2023-10-15T07:25:17Z</time>
      </trkpt>
      <trkpt lat="49.16577" lon="-0.05378">
        <ele>29.3</ele>
        <time>2023-10-15T07:25:18Z</time>
      </trkpt>
      <trkpt lat="49.16577" lon="-0.05388">
        <ele>29.1</ele>
        <time>2023-10-15T07:25:19Z</time>
      </trkpt>
      <trkpt lat="49.16577" lon="-0.05397">
        <ele>29</ele>
        <time>2023-10-15T07:25:20Z</time>
      </trkpt>
      <trkpt lat="49.16577" lon="-0.05407">
        <ele>28.9</ele>
        <time>2023-10-15T07:25:21Z</time>
      </trkpt>
      <trkpt lat="49.16577" lon="-0.05416">
        <ele>28.8</ele>
        <time>2023-10-15T07:25:22Z</time>
      </trkpt>
      <trkpt lat="49.16578" lon="-0.05426">
        <ele>28.6</ele>
        <time>2023-10-15T07:25:23Z</time>
      </trkpt>
      <trkpt lat="49.16579" lon="-0.05436">
        <ele>28.4</ele>
        <time>2023-10-15T07:25:24Z</time>
      </trkpt>
      <trkpt lat="49.1658" lon="-0.05447">
        <ele>28.1</ele>
        <time>2023-10-15T07:25:25Z</time>
      </trkpt>
      <trkpt lat="49.16582" lon="-0.05458">
        <ele>27.8</ele>
        <time>2023-10-15T07:25:26Z</time>
      </trkpt>
      <trkpt lat="49.16584" lon="-0.05468">
        <ele>27.5</ele>
        <time>2023-10-15T07:25:27Z</time>
      </trkpt>
      <trkpt lat="49.16586" lon="-0.0548">
        <ele>27.3</ele>
        <time>2023-10-15T07:25:28Z</time>
      </trkpt>
      <trkpt lat="49.16588" lon="-0.05491">
        <ele>27.2</ele>
        <time>2023-10-15T07:25:29Z</time>
      </trkpt>
      <trkpt lat="49.16589" lon="-0.05502">
        <ele>27.1</ele>
        <time>2023-10-15T07:25:30Z</time>
      </trkpt>
      <trkpt lat="49.16589" lon="-0.05513">
        <ele>26.8</ele>
        <time>2023-10-15T07:25:31Z</time>
      </trkpt>
      <trkpt lat="49.16589" lon="-0.05523">
        <ele>26.6</ele>
        <time>2023-10-15T07:25:32Z</time>
      </trkpt>
      <trkpt lat="49.16588" lon="-0.05534">
        <ele>26.3</ele>
        <time>2023-10-15T07:25:33Z</time>
      </trkpt>
      <trkpt lat="49.16587" lon="-0.05545">
        <ele>26.1</ele>
        <time>2023-10-15T07:25:34Z</time>
      </trkpt>
      <trkpt lat="49.16586" lon="-0.05557">
        <ele>25.8</ele>
        <time>2023-10-15T07:25:35Z</time>
      </trkpt>
      <trkpt lat="49.16585" lon="-0.05569">
        <ele>25.6</ele>
        <time>2023-10-15T07:25:36Z</time>
      </trkpt>
      <trkpt lat="49.16583" lon="-0.05581">
        <ele>25.4</ele>
        <time>2023-10-15T07:25:37Z</time>
      </trkpt>
      <trkpt lat="49.16582" lon="-0.05594">
        <ele>25.2</ele>
        <time>2023-10-15T07:25:38Z</time>
      </trkpt>
      <trkpt lat="49.16581" lon="-0.05606">
        <ele>25</ele>
        <time>2023-10-15T07:25:39Z</time>
      </trkpt>
      <trkpt lat="49.1658" lon="-0.0562">
        <ele>24.9</ele>
        <time>2023-10-15T07:25:40Z</time>
      </trkpt>
      <trkpt lat="49.16578" lon="-0.05632">
        <ele>24.7</ele>
        <time>2023-10-15T07:25:41Z</time>
      </trkpt>
      <trkpt lat="49.16577" lon="-0.05645">
        <ele>24.5</ele>
        <time>2023-10-15T07:25:42Z</time>
      </trkpt>
      <trkpt lat="49.16575" lon="-0.05657">
        <ele>24.3</ele>
        <time>2023-10-15T07:25:43Z</time>
      </trkpt>
      <trkpt lat="49.16574" lon="-0.05669">
        <ele>24.1</ele>
        <time>2023-10-15T07:25:44Z</time>
      </trkpt>
      <trkpt lat="49.16572" lon="-0.05679">
        <ele>23.9</ele>
        <time>2023-10-15T07:25:45Z</time>
      </trkpt>
      <trkpt lat="49.16571" lon="-0.05687">
        <ele>23.8</ele>
        <time>2023-10-15T07:25:46Z</time>
      </trkpt>
      <trkpt lat="49.16571" lon="-0.05694">
        <ele>23.7</ele>
        <time>2023-10-15T07:25:47Z</time>
      </trkpt>
      <trkpt lat="49.1657" lon="-0.05701">
        <ele>23.6</ele>
        <time>2023-10-15T07:25:48Z</time>
      </trkpt>
      <trkpt lat="49.1657" lon="-0.05706">
        <ele>23.6</ele>
        <time>2023-10-15T07:25:49Z</time>
      </trkpt>
      <trkpt lat="49.1657" lon="-0.05711">
        <ele>23.5</ele>
        <time>2023-10-15T07:25:50Z</time>
      </trkpt>
      <trkpt lat="49.1657" lon="-0.05715">
        <ele>23.5</ele>
        <time>2023-10-15T07:25:51Z</time>
      </trkpt>
      <trkpt lat="49.16569" lon="-0.05717">
        <ele>23.5</ele>
        <time>2023-10-15T07:25:52Z</time>
      </trkpt>
      <trkpt lat="49.16567" lon="-0.05721">
        <ele>23.4</ele>
        <time>2023-10-15T07:25:53Z</time>
      </trkpt>
      <trkpt lat="49.16567" lon="-0.05723">
        <ele>23.4</ele>
        <time>2023-10-15T07:25:54Z</time>
      </trkpt>
      <trkpt lat="49.16564" lon="-0.05726">
        <ele>23.3</ele>
        <time>2023-10-15T07:25:55Z</time>
      </trkpt>
      <trkpt lat="49.1656" lon="-0.05729">
        <ele>23.2</ele>
        <time>2023-10-15T07:25:56Z</time>
      </trkpt>
      <trkpt lat="49.16556" lon="-0.05731">
        <ele>23.1</ele>
        <time>2023-10-15T07:25:57Z</time>
      </trkpt>
      <trkpt lat="49.16551" lon="-0.05733">
        <ele>23</ele>
        <time>2023-10-15T07:25:58Z</time>
      </trkpt>
      <trkpt lat="49.16546" lon="-0.05736">
        <ele>22.9</ele>
        <time>2023-10-15T07:25:59Z</time>
      </trkpt>
      <trkpt lat="49.16541" lon="-0.05739">
        <ele>22.7</ele>
        <time>2023-10-15T07:26:00Z</time>
      </trkpt>
      <trkpt lat="49.16535" lon="-0.05742">
        <ele>22.5</ele>
        <time>2023-10-15T07:26:01Z</time>
      </trkpt>
      <trkpt lat="49.16529" lon="-0.05744">
        <ele>22.4</ele>
        <time>2023-10-15T07:26:02Z</time>
      </trkpt>
      <trkpt lat="49.16523" lon="-0.05747">
        <ele>22.3</ele>
        <time>2023-10-15T07:26:03Z</time>
      </trkpt>
      <trkpt lat="49.16517" lon="-0.0575">
        <ele>22.1</ele>
        <time>2023-10-15T07:26:04Z</time>
      </trkpt>
      <trkpt lat="49.16511" lon="-0.05752">
        <ele>22</ele>
        <time>2023-10-15T07:26:05Z</time>
      </trkpt>
      <trkpt lat="49.16505" lon="-0.05755">
        <ele>21.9</ele>
        <time>2023-10-15T07:26:06Z</time>
      </trkpt>
      <trkpt lat="49.16498" lon="-0.05758">
        <ele>21.7</ele>
        <time>2023-10-15T07:26:07Z</time>
      </trkpt>
      <trkpt lat="49.16492" lon="-0.0576">
        <ele>21.6</ele>
        <time>2023-10-15T07:26:08Z</time>
      </trkpt>
      <trkpt lat="49.16485" lon="-0.05763">
        <ele>21.5</ele>
        <time>2023-10-15T07:26:09Z</time>
      </trkpt>
      <trkpt lat="49.16479" lon="-0.05766">
        <ele>21.4</ele>
        <time>2023-10-15T07:26:10Z</time>
      </trkpt>
      <trkpt lat="49.16472" lon="-0.05768">
        <ele>21.3</ele>
        <time>2023-10-15T07:26:11Z</time>
      </trkpt>
      <trkpt lat="49.16466" lon="-0.05771">
        <ele>21.2</ele>
        <time>2023-10-15T07:26:12Z</time>
      </trkpt>
      <trkpt lat="49.16459" lon="-0.05774">
        <ele>21.1</ele>
        <time>2023-10-15T07:26:13Z</time>
      </trkpt>
      <trkpt lat="49.16452" lon="-0.05777">
        <ele>21.1</ele>
        <time>2023-10-15T07:26:14Z</time>
      </trkpt>
      <trkpt lat="49.16445" lon="-0.05779">
        <ele>21</ele>
        <time>2023-10-15T07:26:15Z</time>
      </trkpt>
      <trkpt lat="49.16438" lon="-0.05782">
        <ele>21</ele>
        <time>2023-10-15T07:26:16Z</time>
      </trkpt>
      <trkpt lat="49.16431" lon="-0.05785">
        <ele>20.9</ele>
        <time>2023-10-15T07:26:17Z</time>
      </trkpt>
      <trkpt lat="49.16424" lon="-0.05789">
        <ele>20.9</ele>
        <time>2023-10-15T07:26:18Z</time>
      </trkpt>
      <trkpt lat="49.16417" lon="-0.05792">
        <ele>20.8</ele>
        <time>2023-10-15T07:26:19Z</time>
      </trkpt>
      <trkpt lat="49.1641" lon="-0.05795">
        <ele>20.7</ele>
        <time>2023-10-15T07:26:20Z</time>
      </trkpt>
      <trkpt lat="49.16402" lon="-0.05798">
        <ele>20.7</ele>
        <time>2023-10-15T07:26:21Z</time>
      </trkpt>
      <trkpt lat="49.16394" lon="-0.05802">
        <ele>20.6</ele>
        <time>2023-10-15T07:26:22Z</time>
      </trkpt>
      <trkpt lat="49.16386" lon="-0.05805">
        <ele>20.5</ele>
        <time>2023-10-15T07:26:23Z</time>
      </trkpt>
      <trkpt lat="49.16378" lon="-0.05809">
        <ele>20.3</ele>
        <time>2023-10-15T07:26:24Z</time>
      </trkpt>
      <trkpt lat="49.1637" lon="-0.05812">
        <ele>20.2</ele>
        <time>2023-10-15T07:26:25Z</time>
      </trkpt>
      <trkpt lat="49.16361" lon="-0.05816">
        <ele>20</ele>
        <time>2023-10-15T07:26:26Z</time>
      </trkpt>
      <trkpt lat="49.16353" lon="-0.05819">
        <ele>19.8</ele>
        <time>2023-10-15T07:26:27Z</time>
      </trkpt>
      <trkpt lat="49.16345" lon="-0.05822">
        <ele>19.6</ele>
        <time>2023-10-15T07:26:28Z</time>
      </trkpt>
      <trkpt lat="49.16336" lon="-0.05826">
        <ele>19.5</ele>
        <time>2023-10-15T07:26:29Z</time>
      </trkpt>
      <trkpt lat="49.16328" lon="-0.0583">
        <ele>19.3</ele>
        <time>2023-10-15T07:26:30Z</time>
      </trkpt>
      <trkpt lat="49.1632" lon="-0.05834">
        <ele>19.1</ele>
        <time>2023-10-15T07:26:31Z</time>
      </trkpt>
      <trkpt lat="49.16311" lon="-0.05837">
        <ele>18.9</ele>
        <time>2023-10-15T07:26:32Z</time>
      </trkpt>
      <trkpt lat="49.16302" lon="-0.05841">
        <ele>18.7</ele>
        <time>2023-10-15T07:26:33Z</time>
      </trkpt>
      <trkpt lat="49.16294" lon="-0.05844">
        <ele>18.5</ele>
        <time>2023-10-15T07:26:34Z</time>
      </trkpt>
      <trkpt lat="49.16285" lon="-0.05847">
        <ele>18.3</ele>
        <time>2023-10-15T07:26:35Z</time>
      </trkpt>
      <trkpt lat="49.16277" lon="-0.05851">
        <ele>18.1</ele>
        <time>2023-10-15T07:26:36Z</time>
      </trkpt>
      <trkpt lat="49.16268" lon="-0.05854">
        <ele>17.9</ele>
        <time>2023-10-15T07:26:37Z</time>
      </trkpt>
      <trkpt lat="49.1626" lon="-0.05858">
        <ele>17.7</ele>
        <time>2023-10-15T07:26:38Z</time>
      </trkpt>
      <trkpt lat="49.16252" lon="-0.05861">
        <ele>17.4</ele>
        <time>2023-10-15T07:26:39Z</time>
      </trkpt>
      <trkpt lat="49.16243" lon="-0.05865">
        <ele>17.2</ele>
        <time>2023-10-15T07:26:40Z</time>
      </trkpt>
      <trkpt lat="49.16235" lon="-0.05869">
        <ele>17</ele>
        <time>2023-10-15T07:26:41Z</time>
      </trkpt>
      <trkpt lat="49.16226" lon="-0.05871">
        <ele>16.7</ele>
        <time>2023-10-15T07:26:42Z</time>
      </trkpt>
      <trkpt lat="49.16218" lon="-0.05874">
        <ele>16.5</ele>
        <time>2023-10-15T07:26:43Z</time>
      </trkpt>
      <trkpt lat="49.1621" lon="-0.05878">
        <ele>16.2</ele>
        <time>2023-10-15T07:26:44Z</time>
      </trkpt>
      <trkpt lat="49.16202" lon="-0.05882">
        <ele>15.9</ele>
        <time>2023-10-15T07:26:45Z</time>
      </trkpt>
      <trkpt lat="49.16194" lon="-0.05886">
        <ele>15.7</ele>
        <time>2023-10-15T07:26:46Z</time>
      </trkpt>
      <trkpt lat="49.16186" lon="-0.05889">
        <ele>15.4</ele>
        <time>2023-10-15T07:26:47Z</time>
      </trkpt>
      <trkpt lat="49.16177" lon="-0.05892">
        <ele>15.1</ele>
        <time>2023-10-15T07:26:48Z</time>
      </trkpt>
      <trkpt lat="49.16169" lon="-0.05896">
        <ele>14.9</ele>
        <time>2023-10-15T07:26:49Z</time>
      </trkpt>
      <trkpt lat="49.16161" lon="-0.05899">
        <ele>14.6</ele>
        <time>2023-10-15T07:26:50Z</time>
      </trkpt>
      <trkpt lat="49.16153" lon="-0.05902">
        <ele>14.3</ele>
        <time>2023-10-15T07:26:51Z</time>
      </trkpt>
      <trkpt lat="49.16145" lon="-0.05906">
        <ele>14</ele>
        <time>2023-10-15T07:26:52Z</time>
      </trkpt>
      <trkpt lat="49.16137" lon="-0.05909">
        <ele>13.7</ele>
        <time>2023-10-15T07:26:53Z</time>
      </trkpt>
      <trkpt lat="49.16129" lon="-0.05913">
        <ele>13.4</ele>
        <time>2023-10-15T07:26:54Z</time>
      </trkpt>
      <trkpt lat="49.16121" lon="-0.05916">
        <ele>13.1</ele>
        <time>2023-10-15T07:26:55Z</time>
      </trkpt>
      <trkpt lat="49.16112" lon="-0.0592">
        <ele>12.7</ele>
        <time>2023-10-15T07:26:56Z</time>
      </trkpt>
      <trkpt lat="49.16103" lon="-0.05923">
        <ele>12.4</ele>
        <time>2023-10-15T07:26:57Z</time>
      </trkpt>
      <trkpt lat="49.16094" lon="-0.05927">
        <ele>12</ele>
        <time>2023-10-15T07:26:58Z</time>
      </trkpt>
      <trkpt lat="49.16085" lon="-0.05931">
        <ele>11.6</ele>
        <time>2023-10-15T07:26:59Z</time>
      </trkpt>
      <trkpt lat="49.16076" lon="-0.05935">
        <ele>11.3</ele>
        <time>2023-10-15T07:27:00Z</time>
      </trkpt>
      <trkpt lat="49.16066" lon="-0.05938">
        <ele>10.9</ele>
        <time>2023-10-15T07:27:01Z</time>
      </trkpt>
      <trkpt lat="49.16056" lon="-0.05942">
        <ele>10.6</ele>
        <time>2023-10-15T07:27:02Z</time>
      </trkpt>
      <trkpt lat="49.16046" lon="-0.05946">
        <ele>10.2</ele>
        <time>2023-10-15T07:27:03Z</time>
      </trkpt>
      <trkpt lat="49.16036" lon="-0.0595">
        <ele>9.8</ele>
        <time>2023-10-15T07:27:04Z</time>
      </trkpt>
      <trkpt lat="49.16026" lon="-0.05954">
        <ele>9.5</ele>
        <time>2023-10-15T07:27:05Z</time>
      </trkpt>
      <trkpt lat="49.16016" lon="-0.05958">
        <ele>9.2</ele>
        <time>2023-10-15T07:27:06Z</time>
      </trkpt>
      <trkpt lat="49.16006" lon="-0.05962">
        <ele>8.9</ele>
        <time>2023-10-15T07:27:07Z</time>
      </trkpt>
      <trkpt lat="49.15997" lon="-0.05966">
        <ele>8.6</ele>
        <time>2023-10-15T07:27:08Z</time>
      </trkpt>
      <trkpt lat="49.15987" lon="-0.0597">
        <ele>8.3</ele>
        <time>2023-10-15T07:27:09Z</time>
      </trkpt>
      <trkpt lat="49.15977" lon="-0.05975">
        <ele>8</ele>
        <time>2023-10-15T07:27:10Z</time>
      </trkpt>
      <trkpt lat="49.15967" lon="-0.05979">
        <ele>7.8</ele>
        <time>2023-10-15T07:27:11Z</time>
      </trkpt>
      <trkpt lat="49.15957" lon="-0.05983">
        <ele>7.6</ele>
        <time>2023-10-15T07:27:12Z</time>
      </trkpt>
      <trkpt lat="49.15948" lon="-0.05988">
        <ele>7.5</ele>
        <time>2023-10-15T07:27:13Z</time>
      </trkpt>
      <trkpt lat="49.15939" lon="-0.05992">
        <ele>7.4</ele>
        <time>2023-10-15T07:27:14Z</time>
      </trkpt>
      <trkpt lat="49.1593" lon="-0.05996">
        <ele>7.3</ele>
        <time>2023-10-15T07:27:15Z</time>
      </trkpt>
      <trkpt lat="49.15921" lon="-0.06001">
        <ele>7.2</ele>
        <time>2023-10-15T07:27:16Z</time>
      </trkpt>
      <trkpt lat="49.15911" lon="-0.06004">
        <ele>7.1</ele>
        <time>2023-10-15T07:27:17Z</time>
      </trkpt>
      <trkpt lat="49.15903" lon="-0.06008">
        <ele>7</ele>
        <time>2023-10-15T07:27:18Z</time>
      </trkpt>
      <trkpt lat="49.15894" lon="-0.06011">
        <ele>6.9</ele>
        <time>2023-10-15T07:27:19Z</time>
      </trkpt>
      <trkpt lat="49.15886" lon="-0.06015">
        <ele>6.9</ele>
        <time>2023-10-15T07:27:20Z</time>
      </trkpt>
      <trkpt lat="49.15877" lon="-0.06018">
        <ele>6.9</ele>
        <time>2023-10-15T07:27:21Z</time>
      </trkpt>
      <trkpt lat="49.15869" lon="-0.06022">
        <ele>6.9</ele>
        <time>2023-10-15T07:27:22Z</time>
      </trkpt>
      <trkpt lat="49.15861" lon="-0.06025">
        <ele>6.9</ele>
        <time>2023-10-15T07:27:23Z</time>
      </trkpt>
      <trkpt lat="49.15854" lon="-0.06029">
        <ele>6.9</ele>
        <time>2023-10-15T07:27:24Z</time>
      </trkpt>
      <trkpt lat="49.15846" lon="-0.06032">
        <ele>7</ele>
        <time>2023-10-15T07:27:25Z</time>
      </trkpt>
      <trkpt lat="49.15838" lon="-0.06035">
        <ele>6.9</ele>
        <time>2023-10-15T07:27:26Z</time>
      </trkpt>
      <trkpt lat="49.1583" lon="-0.06038">
        <ele>6.9</ele>
        <time>2023-10-15T07:27:27Z</time>
      </trkpt>
      <trkpt lat="49.15822" lon="-0.06041">
        <ele>6.9</ele>
        <time>2023-10-15T07:27:28Z</time>
      </trkpt>
      <trkpt lat="49.15814" lon="-0.06044">
        <ele>6.9</ele>
        <time>2023-10-15T07:27:29Z</time>
      </trkpt>
      <trkpt lat="49.15807" lon="-0.06048">
        <ele>6.7</ele>
        <time>2023-10-15T07:27:30Z</time>
      </trkpt>
      <trkpt lat="49.15799" lon="-0.06051">
        <ele>6.6</ele>
        <time>2023-10-15T07:27:31Z</time>
      </trkpt>
      <trkpt lat="49.15791" lon="-0.06054">
        <ele>6.4</ele>
        <time>2023-10-15T07:27:32Z</time>
      </trkpt>
      <trkpt lat="49.15782" lon="-0.06057">
        <ele>6.3</ele>
        <time>2023-10-15T07:27:33Z</time>
      </trkpt>
      <trkpt lat="49.15774" lon="-0.06061">
        <ele>6.2</ele>
        <time>2023-10-15T07:27:34Z</time>
      </trkpt>
      <trkpt lat="49.15765" lon="-0.06065">
        <ele>6.1</ele>
        <time>2023-10-15T07:27:35Z</time>
      </trkpt>
      <trkpt lat="49.15757" lon="-0.06068">
        <ele>6</ele>
        <time>2023-10-15T07:27:36Z</time>
      </trkpt>
      <trkpt lat="49.15748" lon="-0.06071">
        <ele>6</ele>
        <time>2023-10-15T07:27:37Z</time>
      </trkpt>
      <trkpt lat="49.1574" lon="-0.06075">
        <ele>5.9</ele>
        <time>2023-10-15T07:27:38Z</time>
      </trkpt>
      <trkpt lat="49.15732" lon="-0.06078">
        <ele>5.8</ele>
        <time>2023-10-15T07:27:39Z</time>
      </trkpt>
      <trkpt lat="49.15723" lon="-0.06082">
        <ele>5.8</ele>
        <time>2023-10-15T07:27:40Z</time>
      </trkpt>
      <trkpt lat="49.15715" lon="-0.06086">
        <ele>5.7</ele>
        <time>2023-10-15T07:27:41Z</time>
      </trkpt>
      <trkpt lat="49.15706" lon="-0.0609">
        <ele>5.7</ele>
        <time>2023-10-15T07:27:42Z</time>
      </trkpt>
      <trkpt lat="49.15698" lon="-0.06094">
        <ele>5.7</ele>
        <time>2023-10-15T07:27:43Z</time>
      </trkpt>
      <trkpt lat="49.15689" lon="-0.06097">
        <ele>5.7</ele>
        <time>2023-10-15T07:27:44Z</time>
      </trkpt>
      <trkpt lat="49.1568" lon="-0.06101">
        <ele>5.7</ele>
        <time>2023-10-15T07:27:45Z</time>
      </trkpt>
      <trkpt lat="49.15672" lon="-0.06104">
        <ele>5.7</ele>
        <time>2023-10-15T07:27:46Z</time>
      </trkpt>
      <trkpt lat="49.15664" lon="-0.06108">
        <ele>5.7</ele>
        <time>2023-10-15T07:27:47Z</time>
      </trkpt>
      <trkpt lat="49.15657" lon="-0.06111">
        <ele>5.7</ele>
        <time>2023-10-15T07:27:48Z</time>
      </trkpt>
      <trkpt lat="49.15649" lon="-0.06114">
        <ele>5.7</ele>
        <time>2023-10-15T07:27:49Z</time>
      </trkpt>
      <trkpt lat="49.15642" lon="-0.06117">
        <ele>5.7</ele>
        <time>2023-10-15T07:27:50Z</time>
      </trkpt>
      <trkpt lat="49.15634" lon="-0.06121">
        <ele>5.7</ele>
        <time>2023-10-15T07:27:51Z</time>
      </trkpt>
      <trkpt lat="49.15627" lon="-0.06124">
        <ele>5.7</ele>
        <time>2023-10-15T07:27:52Z</time>
      </trkpt>
      <trkpt lat="49.15619" lon="-0.06127">
        <ele>5.7</ele>
        <time>2023-10-15T07:27:53Z</time>
      </trkpt>
      <trkpt lat="49.15611" lon="-0.06131">
        <ele>5.7</ele>
        <time>2023-10-15T07:27:54Z</time>
      </trkpt>
      <trkpt lat="49.15603" lon="-0.06134">
        <ele>5.7</ele>
        <time>2023-10-15T07:27:55Z</time>
      </trkpt>
      <trkpt lat="49.15596" lon="-0.06137">
        <ele>5.7</ele>
        <time>2023-10-15T07:27:56Z</time>
      </trkpt>
      <trkpt lat="49.15588" lon="-0.0614">
        <ele>5.7</ele>
        <time>2023-10-15T07:27:57Z</time>
      </trkpt>
      <trkpt lat="49.1558" lon="-0.06143">
        <ele>5.7</ele>
        <time>2023-10-15T07:27:58Z</time>
      </trkpt>
      <trkpt lat="49.15572" lon="-0.06146">
        <ele>5.7</ele>
        <time>2023-10-15T07:27:59Z</time>
      </trkpt>
      <trkpt lat="49.15564" lon="-0.0615">
        <ele>5.7</ele>
        <time>2023-10-15T07:28:00Z</time>
      </trkpt>
      <trkpt lat="49.15556" lon="-0.06153">
        <ele>5.7</ele>
        <time>2023-10-15T07:28:01Z</time>
      </trkpt>
      <trkpt lat="49.15548" lon="-0.06156">
        <ele>5.7</ele>
        <time>2023-10-15T07:28:02Z</time>
      </trkpt>
      <trkpt lat="49.15541" lon="-0.0616">
        <ele>5.7</ele>
        <time>2023-10-15T07:28:03Z</time>
      </trkpt>
      <trkpt lat="49.15533" lon="-0.06163">
        <ele>5.6</ele>
        <time>2023-10-15T07:28:04Z</time>
      </trkpt>
      <trkpt lat="49.15525" lon="-0.06166">
        <ele>5.6</ele>
        <time>2023-10-15T07:28:05Z</time>
      </trkpt>
      <trkpt lat="49.15517" lon="-0.06169">
        <ele>5.6</ele>
        <time>2023-10-15T07:28:06Z</time>
      </trkpt>
      <trkpt lat="49.15509" lon="-0.06172">
        <ele>5.7</ele>
        <time>2023-10-15T07:28:07Z</time>
      </trkpt>
      <trkpt lat="49.15501" lon="-0.06176">
        <ele>5.7</ele>
        <time>2023-10-15T07:28:08Z</time>
      </trkpt>
      <trkpt lat="49.15494" lon="-0.06179">
        <ele>5.7</ele>
        <time>2023-10-15T07:28:09Z</time>
      </trkpt>
      <trkpt lat="49.15486" lon="-0.06182">
        <ele>5.7</ele>
        <time>2023-10-15T07:28:10Z</time>
      </trkpt>
      <trkpt lat="49.15478" lon="-0.06185">
        <ele>5.7</ele>
        <time>2023-10-15T07:28:11Z</time>
      </trkpt>
      <trkpt lat="49.15471" lon="-0.06188">
        <ele>5.7</ele>
        <time>2023-10-15T07:28:12Z</time>
      </trkpt>
      <trkpt lat="49.15463" lon="-0.06192">
        <ele>5.8</ele>
        <time>2023-10-15T07:28:13Z</time>
      </trkpt>
      <trkpt lat="49.15455" lon="-0.06195">
        <ele>5.8</ele>
        <time>2023-10-15T07:28:14Z</time>
      </trkpt>
      <trkpt lat="49.15447" lon="-0.06199">
        <ele>5.8</ele>
        <time>2023-10-15T07:28:15Z</time>
      </trkpt>
      <trkpt lat="49.1544" lon="-0.06202">
        <ele>5.7</ele>
        <time>2023-10-15T07:28:16Z</time>
      </trkpt>
      <trkpt lat="49.15432" lon="-0.06205">
        <ele>5.7</ele>
        <time>2023-10-15T07:28:17Z</time>
      </trkpt>
      <trkpt lat="49.15424" lon="-0.06209">
        <ele>5.8</ele>
        <time>2023-10-15T07:28:18Z</time>
      </trkpt>
      <trkpt lat="49.15416" lon="-0.06212">
        <ele>5.8</ele>
        <time>2023-10-15T07:28:19Z</time>
      </trkpt>
      <trkpt lat="49.15409" lon="-0.06215">
        <ele>5.8</ele>
        <time>2023-10-15T07:28:20Z</time>
      </trkpt>
      <trkpt lat="49.15401" lon="-0.06218">
        <ele>5.8</ele>
        <time>2023-10-15T07:28:21Z</time>
      </trkpt>
      <trkpt lat="49.15393" lon="-0.06221">
        <ele>5.8</ele>
        <time>2023-10-15T07:28:22Z</time>
      </trkpt>
      <trkpt lat="49.15386" lon="-0.06224">
        <ele>5.8</ele>
        <time>2023-10-15T07:28:23Z</time>
      </trkpt>
      <trkpt lat="49.15379" lon="-0.06227">
        <ele>5.8</ele>
        <time>2023-10-15T07:28:24Z</time>
      </trkpt>
      <trkpt lat="49.15371" lon="-0.0623">
        <ele>5.8</ele>
        <time>2023-10-15T07:28:25Z</time>
      </trkpt>
      <trkpt lat="49.15364" lon="-0.06233">
        <ele>5.9</ele>
        <time>2023-10-15T07:28:26Z</time>
      </trkpt>
      <trkpt lat="49.15356" lon="-0.06236">
        <ele>5.9</ele>
        <time>2023-10-15T07:28:27Z</time>
      </trkpt>
      <trkpt lat="49.15349" lon="-0.06239">
        <ele>5.9</ele>
        <time>2023-10-15T07:28:28Z</time>
      </trkpt>
      <trkpt lat="49.15341" lon="-0.06243">
        <ele>5.9</ele>
        <time>2023-10-15T07:28:29Z</time>
      </trkpt>
      <trkpt lat="49.15334" lon="-0.06246">
        <ele>6</ele>
        <time>2023-10-15T07:28:30Z</time>
      </trkpt>
      <trkpt lat="49.15326" lon="-0.06249">
        <ele>6</ele>
        <time>2023-10-15T07:28:31Z</time>
      </trkpt>
      <trkpt lat="49.15318" lon="-0.06252">
        <ele>6</ele>
        <time>2023-10-15T07:28:32Z</time>
      </trkpt>
      <trkpt lat="49.15311" lon="-0.06255">
        <ele>6</ele>
        <time>2023-10-15T07:28:33Z</time>
      </trkpt>
      <trkpt lat="49.15303" lon="-0.06258">
        <ele>6</ele>
        <time>2023-10-15T07:28:34Z</time>
      </trkpt>
      <trkpt lat="49.15296" lon="-0.06261">
        <ele>6</ele>
        <time>2023-10-15T07:28:35Z</time>
      </trkpt>
      <trkpt lat="49.15288" lon="-0.06264">
        <ele>6</ele>
        <time>2023-10-15T07:28:36Z</time>
      </trkpt>
      <trkpt lat="49.15281" lon="-0.06268">
        <ele>6</ele>
        <time>2023-10-15T07:28:37Z</time>
      </trkpt>
      <trkpt lat="49.15274" lon="-0.06271">
        <ele>6</ele>
        <time>2023-10-15T07:28:38Z</time>
      </trkpt>
      <trkpt lat="49.15266" lon="-0.06274">
        <ele>6</ele>
        <time>2023-10-15T07:28:39Z</time>
      </trkpt>
      <trkpt lat="49.15258" lon="-0.06277">
        <ele>6</ele>
        <time>2023-10-15T07:28:40Z</time>
      </trkpt>
      <trkpt lat="49.15251" lon="-0.06281">
        <ele>6</ele>
        <time>2023-10-15T07:28:41Z</time>
      </trkpt>
      <trkpt lat="49.15236" lon="-0.06287">
        <ele>6</ele>
        <time>2023-10-15T07:28:43Z</time>
      </trkpt>
      <trkpt lat="49.15229" lon="-0.06291">
        <ele>6.1</ele>
        <time>2023-10-15T07:28:44Z</time>
      </trkpt>
      <trkpt lat="49.15221" lon="-0.06294">
        <ele>6.1</ele>
        <time>2023-10-15T07:28:45Z</time>
      </trkpt>
      <trkpt lat="49.15213" lon="-0.06298">
        <ele>6.1</ele>
        <time>2023-10-15T07:28:46Z</time>
      </trkpt>
      <trkpt lat="49.15205" lon="-0.06301">
        <ele>6.1</ele>
        <time>2023-10-15T07:28:47Z</time>
      </trkpt>
      <trkpt lat="49.15197" lon="-0.06304">
        <ele>6.1</ele>
        <time>2023-10-15T07:28:48Z</time>
      </trkpt>
      <trkpt lat="49.15189" lon="-0.06307">
        <ele>6.2</ele>
        <time>2023-10-15T07:28:49Z</time>
      </trkpt>
      <trkpt lat="49.15181" lon="-0.0631">
        <ele>6.2</ele>
        <time>2023-10-15T07:28:50Z</time>
      </trkpt>
      <trkpt lat="49.15173" lon="-0.06314">
        <ele>6.3</ele>
        <time>2023-10-15T07:28:51Z</time>
      </trkpt>
      <trkpt lat="49.15166" lon="-0.06317">
        <ele>6.3</ele>
        <time>2023-10-15T07:28:52Z</time>
      </trkpt>
      <trkpt lat="49.15159" lon="-0.0632">
        <ele>6.3</ele>
        <time>2023-10-15T07:28:53Z</time>
      </trkpt>
      <trkpt lat="49.15152" lon="-0.06323">
        <ele>6.4</ele>
        <time>2023-10-15T07:28:54Z</time>
      </trkpt>
      <trkpt lat="49.15145" lon="-0.06326">
        <ele>6.4</ele>
        <time>2023-10-15T07:28:55Z</time>
      </trkpt>
      <trkpt lat="49.1513" lon="-0.06332">
        <ele>6.5</ele>
        <time>2023-10-15T07:28:57Z</time>
      </trkpt>
      <trkpt lat="49.15123" lon="-0.06335">
        <ele>6.6</ele>
        <time>2023-10-15T07:28:58Z</time>
      </trkpt>
      <trkpt lat="49.15116" lon="-0.06338">
        <ele>6.6</ele>
        <time>2023-10-15T07:28:59Z</time>
      </trkpt>
      <trkpt lat="49.15109" lon="-0.06341">
        <ele>6.7</ele>
        <time>2023-10-15T07:29:00Z</time>
      </trkpt>
      <trkpt lat="49.15102" lon="-0.06343">
        <ele>6.7</ele>
        <time>2023-10-15T07:29:01Z</time>
      </trkpt>
      <trkpt lat="49.15095" lon="-0.06346">
        <ele>6.8</ele>
        <time>2023-10-15T07:29:02Z</time>
      </trkpt>
      <trkpt lat="49.15088" lon="-0.06349">
        <ele>6.8</ele>
        <time>2023-10-15T07:29:03Z</time>
      </trkpt>
      <trkpt lat="49.1508" lon="-0.06352">
        <ele>6.8</ele>
        <time>2023-10-15T07:29:04Z</time>
      </trkpt>
      <trkpt lat="49.15073" lon="-0.06355">
        <ele>6.9</ele>
        <time>2023-10-15T07:29:05Z</time>
      </trkpt>
      <trkpt lat="49.15066" lon="-0.06358">
        <ele>6.9</ele>
        <time>2023-10-15T07:29:06Z</time>
      </trkpt>
      <trkpt lat="49.15059" lon="-0.0636">
        <ele>7</ele>
        <time>2023-10-15T07:29:07Z</time>
      </trkpt>
      <trkpt lat="49.15051" lon="-0.06363">
        <ele>7.1</ele>
        <time>2023-10-15T07:29:08Z</time>
      </trkpt>
      <trkpt lat="49.15044" lon="-0.06366">
        <ele>7.1</ele>
        <time>2023-10-15T07:29:09Z</time>
      </trkpt>
      <trkpt lat="49.15037" lon="-0.0637">
        <ele>7.2</ele>
        <time>2023-10-15T07:29:10Z</time>
      </trkpt>
      <trkpt lat="49.15029" lon="-0.06373">
        <ele>7.3</ele>
        <time>2023-10-15T07:29:11Z</time>
      </trkpt>
      <trkpt lat="49.15022" lon="-0.06376">
        <ele>7.4</ele>
        <time>2023-10-15T07:29:12Z</time>
      </trkpt>
      <trkpt lat="49.15014" lon="-0.0638">
        <ele>7.5</ele>
        <time>2023-10-15T07:29:13Z</time>
      </trkpt>
      <trkpt lat="49.15007" lon="-0.06383">
        <ele>7.6</ele>
        <time>2023-10-15T07:29:14Z</time>
      </trkpt>
      <trkpt lat="49.14999" lon="-0.06387">
        <ele>7.7</ele>
        <time>2023-10-15T07:29:15Z</time>
      </trkpt>
      <trkpt lat="49.14992" lon="-0.06392">
        <ele>7.9</ele>
        <time>2023-10-15T07:29:16Z</time>
      </trkpt>
      <trkpt lat="49.14985" lon="-0.06397">
        <ele>8</ele>
        <time>2023-10-15T07:29:17Z</time>
      </trkpt>
      <trkpt lat="49.14979" lon="-0.06403">
        <ele>8.2</ele>
        <time>2023-10-15T07:29:18Z</time>
      </trkpt>
      <trkpt lat="49.14972" lon="-0.06408">
        <ele>8.4</ele>
        <time>2023-10-15T07:29:19Z</time>
      </trkpt>
      <trkpt lat="49.14966" lon="-0.06413">
        <ele>8.5</ele>
        <time>2023-10-15T07:29:20Z</time>
      </trkpt>
      <trkpt lat="49.14959" lon="-0.06419">
        <ele>8.6</ele>
        <time>2023-10-15T07:29:21Z</time>
      </trkpt>
      <trkpt lat="49.14953" lon="-0.06425">
        <ele>8.6</ele>
        <time>2023-10-15T07:29:22Z</time>
      </trkpt>
      <trkpt lat="49.14947" lon="-0.06431">
        <ele>8.7</ele>
        <time>2023-10-15T07:29:23Z</time>
      </trkpt>
      <trkpt lat="49.14942" lon="-0.06437">
        <ele>8.7</ele>
        <time>2023-10-15T07:29:24Z</time>
      </trkpt>
      <trkpt lat="49.14936" lon="-0.06442">
        <ele>8.7</ele>
        <time>2023-10-15T07:29:25Z</time>
      </trkpt>
      <trkpt lat="49.14931" lon="-0.06449">
        <ele>8.7</ele>
        <time>2023-10-15T07:29:26Z</time>
      </trkpt>
      <trkpt lat="49.14926" lon="-0.06456">
        <ele>8.7</ele>
        <time>2023-10-15T07:29:27Z</time>
      </trkpt>
      <trkpt lat="49.14921" lon="-0.06463">
        <ele>8.7</ele>
        <time>2023-10-15T07:29:28Z</time>
      </trkpt>
      <trkpt lat="49.14916" lon="-0.0647">
        <ele>8.7</ele>
        <time>2023-10-15T07:29:29Z</time>
      </trkpt>
      <trkpt lat="49.14911" lon="-0.06477">
        <ele>8.7</ele>
        <time>2023-10-15T07:29:30Z</time>
      </trkpt>
      <trkpt lat="49.14907" lon="-0.06485">
        <ele>8.6</ele>
        <time>2023-10-15T07:29:31Z</time>
      </trkpt>
      <trkpt lat="49.14902" lon="-0.06492">
        <ele>8.6</ele>
        <time>2023-10-15T07:29:32Z</time>
      </trkpt>
      <trkpt lat="49.14898" lon="-0.065">
        <ele>8.6</ele>
        <time>2023-10-15T07:29:33Z</time>
      </trkpt>
      <trkpt lat="49.14893" lon="-0.06507">
        <ele>8.5</ele>
        <time>2023-10-15T07:29:34Z</time>
      </trkpt>
      <trkpt lat="49.14888" lon="-0.06513">
        <ele>8.5</ele>
        <time>2023-10-15T07:29:35Z</time>
      </trkpt>
      <trkpt lat="49.14883" lon="-0.0652">
        <ele>8.4</ele>
        <time>2023-10-15T07:29:36Z</time>
      </trkpt>
      <trkpt lat="49.14877" lon="-0.06526">
        <ele>8.4</ele>
        <time>2023-10-15T07:29:37Z</time>
      </trkpt>
      <trkpt lat="49.14871" lon="-0.06532">
        <ele>8.3</ele>
        <time>2023-10-15T07:29:38Z</time>
      </trkpt>
      <trkpt lat="49.14865" lon="-0.06537">
        <ele>8.3</ele>
        <time>2023-10-15T07:29:39Z</time>
      </trkpt>
      <trkpt lat="49.14857" lon="-0.06542">
        <ele>8.2</ele>
        <time>2023-10-15T07:29:40Z</time>
      </trkpt>
      <trkpt lat="49.14849" lon="-0.06545">
        <ele>8.2</ele>
        <time>2023-10-15T07:29:41Z</time>
      </trkpt>
      <trkpt lat="49.1484" lon="-0.06548">
        <ele>8.1</ele>
        <time>2023-10-15T07:29:42Z</time>
      </trkpt>
      <trkpt lat="49.14832" lon="-0.06551">
        <ele>8.1</ele>
        <time>2023-10-15T07:29:43Z</time>
      </trkpt>
      <trkpt lat="49.14823" lon="-0.06553">
        <ele>8.1</ele>
        <time>2023-10-15T07:29:44Z</time>
      </trkpt>
      <trkpt lat="49.14815" lon="-0.06554">
        <ele>8.1</ele>
        <time>2023-10-15T07:29:45Z</time>
      </trkpt>
      <trkpt lat="49.14807" lon="-0.06556">
        <ele>8.2</ele>
        <time>2023-10-15T07:29:46Z</time>
      </trkpt>
      <trkpt lat="49.14799" lon="-0.06556">
        <ele>8.3</ele>
        <time>2023-10-15T07:29:47Z</time>
      </trkpt>
      <trkpt lat="49.14791" lon="-0.06557">
        <ele>8.4</ele>
        <time>2023-10-15T07:29:48Z</time>
      </trkpt>
      <trkpt lat="49.14783" lon="-0.06559">
        <ele>8.5</ele>
        <time>2023-10-15T07:29:49Z</time>
      </trkpt>
      <trkpt lat="49.14775" lon="-0.0656">
        <ele>8.7</ele>
        <time>2023-10-15T07:29:50Z</time>
      </trkpt>
      <trkpt lat="49.14767" lon="-0.06562">
        <ele>8.8</ele>
        <time>2023-10-15T07:29:51Z</time>
      </trkpt>
      <trkpt lat="49.14759" lon="-0.06563">
        <ele>9</ele>
        <time>2023-10-15T07:29:52Z</time>
      </trkpt>
      <trkpt lat="49.14752" lon="-0.06566">
        <ele>9.1</ele>
        <time>2023-10-15T07:29:53Z</time>
      </trkpt>
      <trkpt lat="49.14744" lon="-0.06568">
        <ele>9.3</ele>
        <time>2023-10-15T07:29:54Z</time>
      </trkpt>
      <trkpt lat="49.14737" lon="-0.06573">
        <ele>9.5</ele>
        <time>2023-10-15T07:29:55Z</time>
      </trkpt>
      <trkpt lat="49.1473" lon="-0.06579">
        <ele>9.6</ele>
        <time>2023-10-15T07:29:56Z</time>
      </trkpt>
      <trkpt lat="49.14724" lon="-0.06586">
        <ele>9.8</ele>
        <time>2023-10-15T07:29:57Z</time>
      </trkpt>
      <trkpt lat="49.14719" lon="-0.06594">
        <ele>10</ele>
        <time>2023-10-15T07:29:58Z</time>
      </trkpt>
      <trkpt lat="49.14715" lon="-0.06604">
        <ele>10.1</ele>
        <time>2023-10-15T07:29:59Z</time>
      </trkpt>
      <trkpt lat="49.14711" lon="-0.06613">
        <ele>10.3</ele>
        <time>2023-10-15T07:30:00Z</time>
      </trkpt>
      <trkpt lat="49.14708" lon="-0.06624">
        <ele>10.5</ele>
        <time>2023-10-15T07:30:01Z</time>
      </trkpt>
      <trkpt lat="49.14705" lon="-0.06635">
        <ele>10.7</ele>
        <time>2023-10-15T07:30:02Z</time>
      </trkpt>
      <trkpt lat="49.14702" lon="-0.06646">
        <ele>10.9</ele>
        <time>2023-10-15T07:30:03Z</time>
      </trkpt>
      <trkpt lat="49.14699" lon="-0.06656">
        <ele>11.1</ele>
        <time>2023-10-15T07:30:04Z</time>
      </trkpt>
      <trkpt lat="49.14696" lon="-0.06667">
        <ele>11.3</ele>
        <time>2023-10-15T07:30:05Z</time>
      </trkpt>
      <trkpt lat="49.14693" lon="-0.06677">
        <ele>11.5</ele>
        <time>2023-10-15T07:30:06Z</time>
      </trkpt>
      <trkpt lat="49.1469" lon="-0.06687">
        <ele>11.7</ele>
        <time>2023-10-15T07:30:07Z</time>
      </trkpt>
      <trkpt lat="49.14687" lon="-0.06698">
        <ele>11.8</ele>
        <time>2023-10-15T07:30:08Z</time>
      </trkpt>
      <trkpt lat="49.14684" lon="-0.06708">
        <ele>12</ele>
        <time>2023-10-15T07:30:09Z</time>
      </trkpt>
      <trkpt lat="49.14681" lon="-0.06719">
        <ele>12.1</ele>
        <time>2023-10-15T07:30:10Z</time>
      </trkpt>
      <trkpt lat="49.14678" lon="-0.06729">
        <ele>12.2</ele>
        <time>2023-10-15T07:30:11Z</time>
      </trkpt>
      <trkpt lat="49.14674" lon="-0.06739">
        <ele>12.4</ele>
        <time>2023-10-15T07:30:12Z</time>
      </trkpt>
      <trkpt lat="49.1467" lon="-0.06749">
        <ele>12.4</ele>
        <time>2023-10-15T07:30:13Z</time>
      </trkpt>
      <trkpt lat="49.14665" lon="-0.06759">
        <ele>12.5</ele>
        <time>2023-10-15T07:30:14Z</time>
      </trkpt>
      <trkpt lat="49.14661" lon="-0.06769">
        <ele>12.5</ele>
        <time>2023-10-15T07:30:15Z</time>
      </trkpt>
      <trkpt lat="49.14656" lon="-0.06779">
        <ele>12.6</ele>
        <time>2023-10-15T07:30:16Z</time>
      </trkpt>
      <trkpt lat="49.14651" lon="-0.06788">
        <ele>12.6</ele>
        <time>2023-10-15T07:30:17Z</time>
      </trkpt>
      <trkpt lat="49.14646" lon="-0.06798">
        <ele>12.6</ele>
        <time>2023-10-15T07:30:18Z</time>
      </trkpt>
      <trkpt lat="49.1464" lon="-0.06808">
        <ele>12.7</ele>
        <time>2023-10-15T07:30:19Z</time>
      </trkpt>
      <trkpt lat="49.14635" lon="-0.06818">
        <ele>12.7</ele>
        <time>2023-10-15T07:30:20Z</time>
      </trkpt>
      <trkpt lat="49.1463" lon="-0.06828">
        <ele>12.8</ele>
        <time>2023-10-15T07:30:21Z</time>
      </trkpt>
      <trkpt lat="49.14624" lon="-0.06837">
        <ele>12.8</ele>
        <time>2023-10-15T07:30:22Z</time>
      </trkpt>
      <trkpt lat="49.14619" lon="-0.06846">
        <ele>12.8</ele>
        <time>2023-10-15T07:30:23Z</time>
      </trkpt>
      <trkpt lat="49.14613" lon="-0.06856">
        <ele>12.9</ele>
        <time>2023-10-15T07:30:24Z</time>
      </trkpt>
      <trkpt lat="49.14607" lon="-0.06865">
        <ele>12.9</ele>
        <time>2023-10-15T07:30:25Z</time>
      </trkpt>
      <trkpt lat="49.14601" lon="-0.06874">
        <ele>13</ele>
        <time>2023-10-15T07:30:26Z</time>
      </trkpt>
      <trkpt lat="49.14595" lon="-0.06883">
        <ele>13</ele>
        <time>2023-10-15T07:30:27Z</time>
      </trkpt>
      <trkpt lat="49.14589" lon="-0.06892">
        <ele>13.1</ele>
        <time>2023-10-15T07:30:28Z</time>
      </trkpt>
      <trkpt lat="49.14584" lon="-0.06902">
        <ele>13.1</ele>
        <time>2023-10-15T07:30:29Z</time>
      </trkpt>
      <trkpt lat="49.14578" lon="-0.06911">
        <ele>13.1</ele>
        <time>2023-10-15T07:30:30Z</time>
      </trkpt>
      <trkpt lat="49.14573" lon="-0.0692">
        <ele>13.1</ele>
        <time>2023-10-15T07:30:31Z</time>
      </trkpt>
      <trkpt lat="49.14567" lon="-0.06929">
        <ele>13.2</ele>
        <time>2023-10-15T07:30:32Z</time>
      </trkpt>
      <trkpt lat="49.14562" lon="-0.06938">
        <ele>13.2</ele>
        <time>2023-10-15T07:30:33Z</time>
      </trkpt>
      <trkpt lat="49.14556" lon="-0.06947">
        <ele>13.2</ele>
        <time>2023-10-15T07:30:34Z</time>
      </trkpt>
      <trkpt lat="49.1455" lon="-0.06956">
        <ele>13.3</ele>
        <time>2023-10-15T07:30:35Z</time>
      </trkpt>
      <trkpt lat="49.14545" lon="-0.06965">
        <ele>13.3</ele>
        <time>2023-10-15T07:30:36Z</time>
      </trkpt>
      <trkpt lat="49.1454" lon="-0.06974">
        <ele>13.3</ele>
        <time>2023-10-15T07:30:37Z</time>
      </trkpt>
      <trkpt lat="49.14534" lon="-0.06983">
        <ele>13.2</ele>
        <time>2023-10-15T07:30:38Z</time>
      </trkpt>
      <trkpt lat="49.14528" lon="-0.06992">
        <ele>13.2</ele>
        <time>2023-10-15T07:30:39Z</time>
      </trkpt>
      <trkpt lat="49.14523" lon="-0.07001">
        <ele>13.1</ele>
        <time>2023-10-15T07:30:40Z</time>
      </trkpt>
      <trkpt lat="49.14517" lon="-0.07009">
        <ele>13.1</ele>
        <time>2023-10-15T07:30:41Z</time>
      </trkpt>
      <trkpt lat="49.14511" lon="-0.07018">
        <ele>13</ele>
        <time>2023-10-15T07:30:42Z</time>
      </trkpt>
      <trkpt lat="49.14505" lon="-0.07027">
        <ele>13</ele>
        <time>2023-10-15T07:30:43Z</time>
      </trkpt>
      <trkpt lat="49.14499" lon="-0.07037">
        <ele>12.9</ele>
        <time>2023-10-15T07:30:44Z</time>
      </trkpt>
      <trkpt lat="49.14493" lon="-0.07046">
        <ele>12.8</ele>
        <time>2023-10-15T07:30:45Z</time>
      </trkpt>
      <trkpt lat="49.14487" lon="-0.07054">
        <ele>12.7</ele>
        <time>2023-10-15T07:30:46Z</time>
      </trkpt>
      <trkpt lat="49.14481" lon="-0.07062">
        <ele>12.5</ele>
        <time>2023-10-15T07:30:47Z</time>
      </trkpt>
      <trkpt lat="49.14474" lon="-0.0707">
        <ele>12.4</ele>
        <time>2023-10-15T07:30:48Z</time>
      </trkpt>
      <trkpt lat="49.14468" lon="-0.07078">
        <ele>12.3</ele>
        <time>2023-10-15T07:30:49Z</time>
      </trkpt>
      <trkpt lat="49.14462" lon="-0.07086">
        <ele>12.1</ele>
        <time>2023-10-15T07:30:50Z</time>
      </trkpt>
      <trkpt lat="49.14455" lon="-0.07093">
        <ele>12</ele>
        <time>2023-10-15T07:30:51Z</time>
      </trkpt>
      <trkpt lat="49.14449" lon="-0.07101">
        <ele>11.8</ele>
        <time>2023-10-15T07:30:52Z</time>
      </trkpt>
      <trkpt lat="49.14443" lon="-0.07108">
        <ele>11.6</ele>
        <time>2023-10-15T07:30:53Z</time>
      </trkpt>
      <trkpt lat="49.14437" lon="-0.07115">
        <ele>11.5</ele>
        <time>2023-10-15T07:30:54Z</time>
      </trkpt>
      <trkpt lat="49.1443" lon="-0.07123">
        <ele>11.2</ele>
        <time>2023-10-15T07:30:55Z</time>
      </trkpt>
      <trkpt lat="49.14424" lon="-0.0713">
        <ele>11</ele>
        <time>2023-10-15T07:30:56Z</time>
      </trkpt>
      <trkpt lat="49.14417" lon="-0.07138">
        <ele>10.7</ele>
        <time>2023-10-15T07:30:57Z</time>
      </trkpt>
      <trkpt lat="49.1441" lon="-0.07146">
        <ele>10.4</ele>
        <time>2023-10-15T07:30:58Z</time>
      </trkpt>
      <trkpt lat="49.14403" lon="-0.07154">
        <ele>10.1</ele>
        <time>2023-10-15T07:30:59Z</time>
      </trkpt>
      <trkpt lat="49.14395" lon="-0.07162">
        <ele>9.8</ele>
        <time>2023-10-15T07:31:00Z</time>
      </trkpt>
      <trkpt lat="49.14388" lon="-0.0717">
        <ele>9.5</ele>
        <time>2023-10-15T07:31:01Z</time>
      </trkpt>
      <trkpt lat="49.14381" lon="-0.07179">
        <ele>9.1</ele>
        <time>2023-10-15T07:31:02Z</time>
      </trkpt>
      <trkpt lat="49.14373" lon="-0.07187">
        <ele>8.8</ele>
        <time>2023-10-15T07:31:03Z</time>
      </trkpt>
      <trkpt lat="49.14365" lon="-0.07196">
        <ele>8.6</ele>
        <time>2023-10-15T07:31:04Z</time>
      </trkpt>
      <trkpt lat="49.14358" lon="-0.07205">
        <ele>8.4</ele>
        <time>2023-10-15T07:31:05Z</time>
      </trkpt>
      <trkpt lat="49.1435" lon="-0.07214">
        <ele>8.2</ele>
        <time>2023-10-15T07:31:06Z</time>
      </trkpt>
      <trkpt lat="49.14343" lon="-0.07222">
        <ele>8.1</ele>
        <time>2023-10-15T07:31:07Z</time>
      </trkpt>
      <trkpt lat="49.14336" lon="-0.07232">
        <ele>8</ele>
        <time>2023-10-15T07:31:08Z</time>
      </trkpt>
      <trkpt lat="49.14329" lon="-0.07241">
        <ele>7.9</ele>
        <time>2023-10-15T07:31:09Z</time>
      </trkpt>
      <trkpt lat="49.14322" lon="-0.0725">
        <ele>7.8</ele>
        <time>2023-10-15T07:31:10Z</time>
      </trkpt>
      <trkpt lat="49.14316" lon="-0.07259">
        <ele>7.7</ele>
        <time>2023-10-15T07:31:11Z</time>
      </trkpt>
      <trkpt lat="49.1431" lon="-0.07267">
        <ele>7.5</ele>
        <time>2023-10-15T07:31:12Z</time>
      </trkpt>
      <trkpt lat="49.14303" lon="-0.07278">
        <ele>7.4</ele>
        <time>2023-10-15T07:31:13Z</time>
      </trkpt>
      <trkpt lat="49.14298" lon="-0.07288">
        <ele>7.3</ele>
        <time>2023-10-15T07:31:14Z</time>
      </trkpt>
      <trkpt lat="49.14292" lon="-0.07297">
        <ele>7.2</ele>
        <time>2023-10-15T07:31:15Z</time>
      </trkpt>
      <trkpt lat="49.14287" lon="-0.07307">
        <ele>7.2</ele>
        <time>2023-10-15T07:31:16Z</time>
      </trkpt>
      <trkpt lat="49.14281" lon="-0.07316">
        <ele>7.1</ele>
        <time>2023-10-15T07:31:17Z</time>
      </trkpt>
      <trkpt lat="49.14276" lon="-0.07324">
        <ele>7.1</ele>
        <time>2023-10-15T07:31:18Z</time>
      </trkpt>
      <trkpt lat="49.14271" lon="-0.07333">
        <ele>7.1</ele>
        <time>2023-10-15T07:31:19Z</time>
      </trkpt>
      <trkpt lat="49.14265" lon="-0.07342">
        <ele>7.1</ele>
        <time>2023-10-15T07:31:20Z</time>
      </trkpt>
      <trkpt lat="49.1426" lon="-0.0735">
        <ele>7.2</ele>
        <time>2023-10-15T07:31:21Z</time>
      </trkpt>
      <trkpt lat="49.14254" lon="-0.07357">
        <ele>7.2</ele>
        <time>2023-10-15T07:31:22Z</time>
      </trkpt>
      <trkpt lat="49.14248" lon="-0.07363">
        <ele>7.2</ele>
        <time>2023-10-15T07:31:23Z</time>
      </trkpt>
      <trkpt lat="49.14242" lon="-0.0737">
        <ele>7.3</ele>
        <time>2023-10-15T07:31:24Z</time>
      </trkpt>
      <trkpt lat="49.14236" lon="-0.07377">
        <ele>7.3</ele>
        <time>2023-10-15T07:31:25Z</time>
      </trkpt>
      <trkpt lat="49.1423" lon="-0.07385">
        <ele>7.4</ele>
        <time>2023-10-15T07:31:26Z</time>
      </trkpt>
      <trkpt lat="49.14224" lon="-0.07392">
        <ele>7.4</ele>
        <time>2023-10-15T07:31:27Z</time>
      </trkpt>
      <trkpt lat="49.14218" lon="-0.07399">
        <ele>7.5</ele>
        <time>2023-10-15T07:31:28Z</time>
      </trkpt>
      <trkpt lat="49.14212" lon="-0.07407">
        <ele>7.5</ele>
        <time>2023-10-15T07:31:29Z</time>
      </trkpt>
      <trkpt lat="49.14206" lon="-0.07415">
        <ele>7.5</ele>
        <time>2023-10-15T07:31:30Z</time>
      </trkpt>
      <trkpt lat="49.142" lon="-0.07422">
        <ele>7.6</ele>
        <time>2023-10-15T07:31:31Z</time>
      </trkpt>
      <trkpt lat="49.14194" lon="-0.07429">
        <ele>7.6</ele>
        <time>2023-10-15T07:31:32Z</time>
      </trkpt>
      <trkpt lat="49.14188" lon="-0.07436">
        <ele>7.6</ele>
        <time>2023-10-15T07:31:33Z</time>
      </trkpt>
      <trkpt lat="49.14181" lon="-0.07442">
        <ele>7.6</ele>
        <time>2023-10-15T07:31:34Z</time>
      </trkpt>
      <trkpt lat="49.14175" lon="-0.07448">
        <ele>7.6</ele>
        <time>2023-10-15T07:31:35Z</time>
      </trkpt>
      <trkpt lat="49.14168" lon="-0.07454">
        <ele>7.6</ele>
        <time>2023-10-15T07:31:36Z</time>
      </trkpt>
      <trkpt lat="49.14161" lon="-0.07459">
        <ele>7.6</ele>
        <time>2023-10-15T07:31:37Z</time>
      </trkpt>
      <trkpt lat="49.14154" lon="-0.07465">
        <ele>7.6</ele>
        <time>2023-10-15T07:31:38Z</time>
      </trkpt>
      <trkpt lat="49.14146" lon="-0.0747">
        <ele>7.6</ele>
        <time>2023-10-15T07:31:39Z</time>
      </trkpt>
      <trkpt lat="49.14139" lon="-0.07474">
        <ele>7.5</ele>
        <time>2023-10-15T07:31:40Z</time>
      </trkpt>
      <trkpt lat="49.14132" lon="-0.07479">
        <ele>7.5</ele>
        <time>2023-10-15T07:31:41Z</time>
      </trkpt>
      <trkpt lat="49.14125" lon="-0.07484">
        <ele>7.5</ele>
        <time>2023-10-15T07:31:42Z</time>
      </trkpt>
      <trkpt lat="49.14117" lon="-0.07488">
        <ele>7.5</ele>
        <time>2023-10-15T07:31:43Z</time>
      </trkpt>
      <trkpt lat="49.1411" lon="-0.07492">
        <ele>7.4</ele>
        <time>2023-10-15T07:31:44Z</time>
      </trkpt>
      <trkpt lat="49.14102" lon="-0.07497">
        <ele>7.4</ele>
        <time>2023-10-15T07:31:45Z</time>
      </trkpt>
      <trkpt lat="49.14095" lon="-0.07501">
        <ele>7.3</ele>
        <time>2023-10-15T07:31:46Z</time>
      </trkpt>
      <trkpt lat="49.14087" lon="-0.07505">
        <ele>7.2</ele>
        <time>2023-10-15T07:31:47Z</time>
      </trkpt>
      <trkpt lat="49.14079" lon="-0.0751">
        <ele>7.1</ele>
        <time>2023-10-15T07:31:48Z</time>
      </trkpt>
      <trkpt lat="49.14072" lon="-0.07515">
        <ele>7</ele>
        <time>2023-10-15T07:31:49Z</time>
      </trkpt>
      <trkpt lat="49.14064" lon="-0.07521">
        <ele>6.9</ele>
        <time>2023-10-15T07:31:50Z</time>
      </trkpt>
      <trkpt lat="49.14057" lon="-0.07527">
        <ele>6.8</ele>
        <time>2023-10-15T07:31:51Z</time>
      </trkpt>
      <trkpt lat="49.1405" lon="-0.07534">
        <ele>6.8</ele>
        <time>2023-10-15T07:31:52Z</time>
      </trkpt>
      <trkpt lat="49.14044" lon="-0.07542">
        <ele>6.8</ele>
        <time>2023-10-15T07:31:53Z</time>
      </trkpt>
      <trkpt lat="49.14038" lon="-0.07551">
        <ele>6.8</ele>
        <time>2023-10-15T07:31:54Z</time>
      </trkpt>
      <trkpt lat="49.14032" lon="-0.0756">
        <ele>6.8</ele>
        <time>2023-10-15T07:31:55Z</time>
      </trkpt>
      <trkpt lat="49.14027" lon="-0.0757">
        <ele>6.9</ele>
        <time>2023-10-15T07:31:56Z</time>
      </trkpt>
      <trkpt lat="49.14022" lon="-0.07579">
        <ele>6.9</ele>
        <time>2023-10-15T07:31:57Z</time>
      </trkpt>
      <trkpt lat="49.14016" lon="-0.07588">
        <ele>6.9</ele>
        <time>2023-10-15T07:31:58Z</time>
      </trkpt>
      <trkpt lat="49.14011" lon="-0.07596">
        <ele>7</ele>
        <time>2023-10-15T07:31:59Z</time>
      </trkpt>
      <trkpt lat="49.14006" lon="-0.07605">
        <ele>7.1</ele>
        <time>2023-10-15T07:32:00Z</time>
      </trkpt>
      <trkpt lat="49.14001" lon="-0.07613">
        <ele>7.2</ele>
        <time>2023-10-15T07:32:01Z</time>
      </trkpt>
      <trkpt lat="49.13995" lon="-0.0762">
        <ele>7.2</ele>
        <time>2023-10-15T07:32:02Z</time>
      </trkpt>
      <trkpt lat="49.1399" lon="-0.07628">
        <ele>7.3</ele>
        <time>2023-10-15T07:32:03Z</time>
      </trkpt>
      <trkpt lat="49.13984" lon="-0.07634">
        <ele>7.3</ele>
        <time>2023-10-15T07:32:04Z</time>
      </trkpt>
      <trkpt lat="49.13979" lon="-0.0764">
        <ele>7.4</ele>
        <time>2023-10-15T07:32:05Z</time>
      </trkpt>
      <trkpt lat="49.13973" lon="-0.07646">
        <ele>7.4</ele>
        <time>2023-10-15T07:32:06Z</time>
      </trkpt>
      <trkpt lat="49.13967" lon="-0.07652">
        <ele>7.5</ele>
        <time>2023-10-15T07:32:07Z</time>
      </trkpt>
      <trkpt lat="49.1396" lon="-0.07656">
        <ele>7.5</ele>
        <time>2023-10-15T07:32:08Z</time>
      </trkpt>
      <trkpt lat="49.13953" lon="-0.0766">
        <ele>7.6</ele>
        <time>2023-10-15T07:32:09Z</time>
      </trkpt>
      <trkpt lat="49.13946" lon="-0.07662">
        <ele>7.6</ele>
        <time>2023-10-15T07:32:10Z</time>
      </trkpt>
      <trkpt lat="49.1394" lon="-0.07664">
        <ele>7.7</ele>
        <time>2023-10-15T07:32:11Z</time>
      </trkpt>
      <trkpt lat="49.13933" lon="-0.07664">
        <ele>7.8</ele>
        <time>2023-10-15T07:32:12Z</time>
      </trkpt>
      <trkpt lat="49.13927" lon="-0.07664">
        <ele>7.9</ele>
        <time>2023-10-15T07:32:13Z</time>
      </trkpt>
      <trkpt lat="49.13921" lon="-0.07664">
        <ele>7.9</ele>
        <time>2023-10-15T07:32:14Z</time>
      </trkpt>
      <trkpt lat="49.13915" lon="-0.07663">
        <ele>8</ele>
        <time>2023-10-15T07:32:15Z</time>
      </trkpt>
      <trkpt lat="49.1391" lon="-0.07662">
        <ele>8.1</ele>
        <time>2023-10-15T07:32:16Z</time>
      </trkpt>
      <trkpt lat="49.13904" lon="-0.07661">
        <ele>8.2</ele>
        <time>2023-10-15T07:32:17Z</time>
      </trkpt>
      <trkpt lat="49.13899" lon="-0.07661">
        <ele>8.3</ele>
        <time>2023-10-15T07:32:18Z</time>
      </trkpt>
      <trkpt lat="49.13892" lon="-0.0766">
        <ele>8.4</ele>
        <time>2023-10-15T07:32:19Z</time>
      </trkpt>
      <trkpt lat="49.13885" lon="-0.07657">
        <ele>8.4</ele>
        <time>2023-10-15T07:32:20Z</time>
      </trkpt>
      <trkpt lat="49.13878" lon="-0.07655">
        <ele>8.5</ele>
        <time>2023-10-15T07:32:21Z</time>
      </trkpt>
      <trkpt lat="49.13871" lon="-0.07652">
        <ele>8.5</ele>
        <time>2023-10-15T07:32:22Z</time>
      </trkpt>
      <trkpt lat="49.13865" lon="-0.07648">
        <ele>8.5</ele>
        <time>2023-10-15T07:32:23Z</time>
      </trkpt>
      <trkpt lat="49.13858" lon="-0.07645">
        <ele>8.5</ele>
        <time>2023-10-15T07:32:24Z</time>
      </trkpt>
      <trkpt lat="49.1385" lon="-0.0764">
        <ele>8.6</ele>
        <time>2023-10-15T07:32:25Z</time>
      </trkpt>
      <trkpt lat="49.13843" lon="-0.07636">
        <ele>8.7</ele>
        <time>2023-10-15T07:32:26Z</time>
      </trkpt>
      <trkpt lat="49.13835" lon="-0.07632">
        <ele>8.8</ele>
        <time>2023-10-15T07:32:27Z</time>
      </trkpt>
      <trkpt lat="49.13828" lon="-0.07628">
        <ele>8.9</ele>
        <time>2023-10-15T07:32:28Z</time>
      </trkpt>
      <trkpt lat="49.13821" lon="-0.07625">
        <ele>9</ele>
        <time>2023-10-15T07:32:29Z</time>
      </trkpt>
      <trkpt lat="49.13813" lon="-0.07621">
        <ele>9.1</ele>
        <time>2023-10-15T07:32:30Z</time>
      </trkpt>
      <trkpt lat="49.13807" lon="-0.07618">
        <ele>9.2</ele>
        <time>2023-10-15T07:32:31Z</time>
      </trkpt>
      <trkpt lat="49.138" lon="-0.07614">
        <ele>9.3</ele>
        <time>2023-10-15T07:32:32Z</time>
      </trkpt>
      <trkpt lat="49.13793" lon="-0.0761">
        <ele>9.5</ele>
        <time>2023-10-15T07:32:33Z</time>
      </trkpt>
      <trkpt lat="49.13786" lon="-0.07606">
        <ele>9.6</ele>
        <time>2023-10-15T07:32:34Z</time>
      </trkpt>
      <trkpt lat="49.1378" lon="-0.07602">
        <ele>9.6</ele>
        <time>2023-10-15T07:32:35Z</time>
      </trkpt>
      <trkpt lat="49.13773" lon="-0.07598">
        <ele>9.7</ele>
        <time>2023-10-15T07:32:36Z</time>
      </trkpt>
      <trkpt lat="49.13767" lon="-0.07595">
        <ele>9.7</ele>
        <time>2023-10-15T07:32:37Z</time>
      </trkpt>
      <trkpt lat="49.13761" lon="-0.07591">
        <ele>9.7</ele>
        <time>2023-10-15T07:32:38Z</time>
      </trkpt>
      <trkpt lat="49.13755" lon="-0.07588">
        <ele>9.8</ele>
        <time>2023-10-15T07:32:39Z</time>
      </trkpt>
      <trkpt lat="49.13749" lon="-0.07584">
        <ele>9.8</ele>
        <time>2023-10-15T07:32:40Z</time>
      </trkpt>
      <trkpt lat="49.13742" lon="-0.07582">
        <ele>9.8</ele>
        <time>2023-10-15T07:32:41Z</time>
      </trkpt>
      <trkpt lat="49.13736" lon="-0.07578">
        <ele>9.9</ele>
        <time>2023-10-15T07:32:42Z</time>
      </trkpt>
      <trkpt lat="49.13729" lon="-0.07575">
        <ele>9.9</ele>
        <time>2023-10-15T07:32:43Z</time>
      </trkpt>
      <trkpt lat="49.13722" lon="-0.07572">
        <ele>10</ele>
        <time>2023-10-15T07:32:44Z</time>
      </trkpt>
      <trkpt lat="49.13715" lon="-0.07569">
        <ele>10.1</ele>
        <time>2023-10-15T07:32:45Z</time>
      </trkpt>
      <trkpt lat="49.13709" lon="-0.07566">
        <ele>10.2</ele>
        <time>2023-10-15T07:32:46Z</time>
      </trkpt>
      <trkpt lat="49.13702" lon="-0.07563">
        <ele>10.3</ele>
        <time>2023-10-15T07:32:47Z</time>
      </trkpt>
      <trkpt lat="49.13696" lon="-0.07561">
        <ele>10.4</ele>
        <time>2023-10-15T07:32:48Z</time>
      </trkpt>
      <trkpt lat="49.1369" lon="-0.0756">
        <ele>10.5</ele>
        <time>2023-10-15T07:32:49Z</time>
      </trkpt>
      <trkpt lat="49.13685" lon="-0.07559">
        <ele>10.5</ele>
        <time>2023-10-15T07:32:50Z</time>
      </trkpt>
      <trkpt lat="49.13679" lon="-0.07559">
        <ele>10.5</ele>
        <time>2023-10-15T07:32:51Z</time>
      </trkpt>
      <trkpt lat="49.13672" lon="-0.0756">
        <ele>10.5</ele>
        <time>2023-10-15T07:32:52Z</time>
      </trkpt>
      <trkpt lat="49.13666" lon="-0.07561">
        <ele>10.5</ele>
        <time>2023-10-15T07:32:53Z</time>
      </trkpt>
      <trkpt lat="49.13659" lon="-0.07562">
        <ele>10.4</ele>
        <time>2023-10-15T07:32:54Z</time>
      </trkpt>
      <trkpt lat="49.13652" lon="-0.07564">
        <ele>10.4</ele>
        <time>2023-10-15T07:32:55Z</time>
      </trkpt>
      <trkpt lat="49.13645" lon="-0.07566">
        <ele>10.3</ele>
        <time>2023-10-15T07:32:56Z</time>
      </trkpt>
      <trkpt lat="49.13638" lon="-0.07569">
        <ele>10.2</ele>
        <time>2023-10-15T07:32:57Z</time>
      </trkpt>
      <trkpt lat="49.13631" lon="-0.07571">
        <ele>10</ele>
        <time>2023-10-15T07:32:58Z</time>
      </trkpt>
      <trkpt lat="49.13623" lon="-0.07573">
        <ele>9.9</ele>
        <time>2023-10-15T07:32:59Z</time>
      </trkpt>
      <trkpt lat="49.13616" lon="-0.07575">
        <ele>9.9</ele>
        <time>2023-10-15T07:33:00Z</time>
      </trkpt>
      <trkpt lat="49.13608" lon="-0.07577">
        <ele>9.8</ele>
        <time>2023-10-15T07:33:01Z</time>
      </trkpt>
      <trkpt lat="49.136" lon="-0.07578">
        <ele>9.8</ele>
        <time>2023-10-15T07:33:02Z</time>
      </trkpt>
      <trkpt lat="49.13593" lon="-0.07579">
        <ele>9.7</ele>
        <time>2023-10-15T07:33:03Z</time>
      </trkpt>
      <trkpt lat="49.13585" lon="-0.0758">
        <ele>9.7</ele>
        <time>2023-10-15T07:33:04Z</time>
      </trkpt>
      <trkpt lat="49.13578" lon="-0.0758">
        <ele>9.7</ele>
        <time>2023-10-15T07:33:05Z</time>
      </trkpt>
      <trkpt lat="49.1357" lon="-0.07578">
        <ele>9.6</ele>
        <time>2023-10-15T07:33:06Z</time>
      </trkpt>
      <trkpt lat="49.13563" lon="-0.07576">
        <ele>9.6</ele>
        <time>2023-10-15T07:33:07Z</time>
      </trkpt>
      <trkpt lat="49.13555" lon="-0.07574">
        <ele>9.6</ele>
        <time>2023-10-15T07:33:08Z</time>
      </trkpt>
      <trkpt lat="49.13547" lon="-0.07571">
        <ele>9.6</ele>
        <time>2023-10-15T07:33:09Z</time>
      </trkpt>
      <trkpt lat="49.13539" lon="-0.07569">
        <ele>9.6</ele>
        <time>2023-10-15T07:33:10Z</time>
      </trkpt>
      <trkpt lat="49.13531" lon="-0.07568">
        <ele>9.6</ele>
        <time>2023-10-15T07:33:11Z</time>
      </trkpt>
      <trkpt lat="49.13522" lon="-0.07566">
        <ele>9.6</ele>
        <time>2023-10-15T07:33:12Z</time>
      </trkpt>
      <trkpt lat="49.13514" lon="-0.07564">
        <ele>9.6</ele>
        <time>2023-10-15T07:33:13Z</time>
      </trkpt>
      <trkpt lat="49.13506" lon="-0.07563">
        <ele>9.7</ele>
        <time>2023-10-15T07:33:14Z</time>
      </trkpt>
      <trkpt lat="49.13498" lon="-0.07562">
        <ele>9.7</ele>
        <time>2023-10-15T07:33:15Z</time>
      </trkpt>
      <trkpt lat="49.1349" lon="-0.07561">
        <ele>9.8</ele>
        <time>2023-10-15T07:33:16Z</time>
      </trkpt>
      <trkpt lat="49.13482" lon="-0.07561">
        <ele>9.9</ele>
        <time>2023-10-15T07:33:17Z</time>
      </trkpt>
      <trkpt lat="49.13475" lon="-0.0756">
        <ele>9.9</ele>
        <time>2023-10-15T07:33:18Z</time>
      </trkpt>
      <trkpt lat="49.13468" lon="-0.07559">
        <ele>10</ele>
        <time>2023-10-15T07:33:19Z</time>
      </trkpt>
      <trkpt lat="49.1346" lon="-0.07558">
        <ele>10</ele>
        <time>2023-10-15T07:33:20Z</time>
      </trkpt>
      <trkpt lat="49.13454" lon="-0.07557">
        <ele>10</ele>
        <time>2023-10-15T07:33:21Z</time>
      </trkpt>
      <trkpt lat="49.13447" lon="-0.07556">
        <ele>10</ele>
        <time>2023-10-15T07:33:22Z</time>
      </trkpt>
      <trkpt lat="49.13441" lon="-0.07555">
        <ele>10</ele>
        <time>2023-10-15T07:33:23Z</time>
      </trkpt>
      <trkpt lat="49.13435" lon="-0.07555">
        <ele>10</ele>
        <time>2023-10-15T07:33:24Z</time>
      </trkpt>
      <trkpt lat="49.13431" lon="-0.07555">
        <ele>10</ele>
        <time>2023-10-15T07:33:25Z</time>
      </trkpt>
      <trkpt lat="49.13427" lon="-0.07555">
        <ele>10</ele>
        <time>2023-10-15T07:33:26Z</time>
      </trkpt>
      <trkpt lat="49.13423" lon="-0.07554">
        <ele>10</ele>
        <time>2023-10-15T07:33:27Z</time>
      </trkpt>
      <trkpt lat="49.1342" lon="-0.07554">
        <ele>10</ele>
        <time>2023-10-15T07:33:28Z</time>
      </trkpt>
      <trkpt lat="49.13416" lon="-0.07554">
        <ele>10</ele>
        <time>2023-10-15T07:33:29Z</time>
      </trkpt>
      <trkpt lat="49.13413" lon="-0.07553">
        <ele>10.1</ele>
        <time>2023-10-15T07:33:30Z</time>
      </trkpt>
      <trkpt lat="49.13409" lon="-0.07551">
        <ele>10.1</ele>
        <time>2023-10-15T07:33:31Z</time>
      </trkpt>
      <trkpt lat="49.13406" lon="-0.07549">
        <ele>10.1</ele>
        <time>2023-10-15T07:33:32Z</time>
      </trkpt>
      <trkpt lat="49.13404" lon="-0.07546">
        <ele>10.2</ele>
        <time>2023-10-15T07:33:33Z</time>
      </trkpt>
      <trkpt lat="49.13403" lon="-0.0754">
        <ele>10.2</ele>
        <time>2023-10-15T07:33:34Z</time>
      </trkpt>
      <trkpt lat="49.13404" lon="-0.07533">
        <ele>10.3</ele>
        <time>2023-10-15T07:33:35Z</time>
      </trkpt>
      <trkpt lat="49.13405" lon="-0.07524">
        <ele>10.4</ele>
        <time>2023-10-15T07:33:36Z</time>
      </trkpt>
      <trkpt lat="49.13407" lon="-0.07515">
        <ele>10.5</ele>
        <time>2023-10-15T07:33:37Z</time>
      </trkpt>
      <trkpt lat="49.13408" lon="-0.07506">
        <ele>10.6</ele>
        <time>2023-10-15T07:33:38Z</time>
      </trkpt>
      <trkpt lat="49.13409" lon="-0.07495">
        <ele>10.7</ele>
        <time>2023-10-15T07:33:39Z</time>
      </trkpt>
      <trkpt lat="49.1341" lon="-0.07486">
        <ele>10.8</ele>
        <time>2023-10-15T07:33:40Z</time>
      </trkpt>
      <trkpt lat="49.1341" lon="-0.07476">
        <ele>10.9</ele>
        <time>2023-10-15T07:33:41Z</time>
      </trkpt>
      <trkpt lat="49.13411" lon="-0.07466">
        <ele>10.9</ele>
        <time>2023-10-15T07:33:42Z</time>
      </trkpt>
      <trkpt lat="49.13411" lon="-0.07454">
        <ele>11</ele>
        <time>2023-10-15T07:33:43Z</time>
      </trkpt>
      <trkpt lat="49.13412" lon="-0.07443">
        <ele>11</ele>
        <time>2023-10-15T07:33:44Z</time>
      </trkpt>
      <trkpt lat="49.13413" lon="-0.07432">
        <ele>11.1</ele>
        <time>2023-10-15T07:33:45Z</time>
      </trkpt>
      <trkpt lat="49.13414" lon="-0.0742">
        <ele>11.1</ele>
        <time>2023-10-15T07:33:46Z</time>
      </trkpt>
      <trkpt lat="49.13414" lon="-0.07409">
        <ele>11.1</ele>
        <time>2023-10-15T07:33:47Z</time>
      </trkpt>
      <trkpt lat="49.13415" lon="-0.07397">
        <ele>11.1</ele>
        <time>2023-10-15T07:33:48Z</time>
      </trkpt>
      <trkpt lat="49.13415" lon="-0.07386">
        <ele>11.1</ele>
        <time>2023-10-15T07:33:49Z</time>
      </trkpt>
      <trkpt lat="49.13415" lon="-0.07376">
        <ele>11.1</ele>
        <time>2023-10-15T07:33:50Z</time>
      </trkpt>
      <trkpt lat="49.13416" lon="-0.07365">
        <ele>11.1</ele>
        <time>2023-10-15T07:33:51Z</time>
      </trkpt>
      <trkpt lat="49.13416" lon="-0.07354">
        <ele>11.1</ele>
        <time>2023-10-15T07:33:52Z</time>
      </trkpt>
      <trkpt lat="49.13416" lon="-0.07342">
        <ele>11.1</ele>
        <time>2023-10-15T07:33:53Z</time>
      </trkpt>
      <trkpt lat="49.13416" lon="-0.07331">
        <ele>11.1</ele>
        <time>2023-10-15T07:33:54Z</time>
      </trkpt>
      <trkpt lat="49.13417" lon="-0.0732">
        <ele>11.2</ele>
        <time>2023-10-15T07:33:55Z</time>
      </trkpt>
      <trkpt lat="49.13418" lon="-0.07309">
        <ele>11.2</ele>
        <time>2023-10-15T07:33:56Z</time>
      </trkpt>
      <trkpt lat="49.13418" lon="-0.07298">
        <ele>11.2</ele>
        <time>2023-10-15T07:33:57Z</time>
      </trkpt>
      <trkpt lat="49.13419" lon="-0.07287">
        <ele>11.2</ele>
        <time>2023-10-15T07:33:58Z</time>
      </trkpt>
      <trkpt lat="49.13419" lon="-0.07275">
        <ele>11.1</ele>
        <time>2023-10-15T07:33:59Z</time>
      </trkpt>
      <trkpt lat="49.13419" lon="-0.07264">
        <ele>11.1</ele>
        <time>2023-10-15T07:34:00Z</time>
      </trkpt>
      <trkpt lat="49.1342" lon="-0.07252">
        <ele>11.2</ele>
        <time>2023-10-15T07:34:01Z</time>
      </trkpt>
      <trkpt lat="49.1342" lon="-0.0724">
        <ele>11.2</ele>
        <time>2023-10-15T07:34:02Z</time>
      </trkpt>
      <trkpt lat="49.13421" lon="-0.07228">
        <ele>11.2</ele>
        <time>2023-10-15T07:34:03Z</time>
      </trkpt>
      <trkpt lat="49.13421" lon="-0.07217">
        <ele>11.2</ele>
        <time>2023-10-15T07:34:04Z</time>
      </trkpt>
      <trkpt lat="49.13422" lon="-0.07205">
        <ele>11.2</ele>
        <time>2023-10-15T07:34:05Z</time>
      </trkpt>
      <trkpt lat="49.13422" lon="-0.07193">
        <ele>11.2</ele>
        <time>2023-10-15T07:34:06Z</time>
      </trkpt>
      <trkpt lat="49.13423" lon="-0.07181">
        <ele>11.2</ele>
        <time>2023-10-15T07:34:07Z</time>
      </trkpt>
      <trkpt lat="49.13424" lon="-0.07169">
        <ele>11.2</ele>
        <time>2023-10-15T07:34:08Z</time>
      </trkpt>
      <trkpt lat="49.13424" lon="-0.07158">
        <ele>11.2</ele>
        <time>2023-10-15T07:34:09Z</time>
      </trkpt>
      <trkpt lat="49.13425" lon="-0.07146">
        <ele>11.3</ele>
        <time>2023-10-15T07:34:10Z</time>
      </trkpt>
      <trkpt lat="49.13426" lon="-0.07134">
        <ele>11.3</ele>
        <time>2023-10-15T07:34:11Z</time>
      </trkpt>
      <trkpt lat="49.13426" lon="-0.07123">
        <ele>11.3</ele>
        <time>2023-10-15T07:34:12Z</time>
      </trkpt>
      <trkpt lat="49.13427" lon="-0.07111">
        <ele>11.3</ele>
        <time>2023-10-15T07:34:13Z</time>
      </trkpt>
      <trkpt lat="49.13427" lon="-0.07099">
        <ele>11.3</ele>
        <time>2023-10-15T07:34:14Z</time>
      </trkpt>
      <trkpt lat="49.13428" lon="-0.07087">
        <ele>11.3</ele>
        <time>2023-10-15T07:34:15Z</time>
      </trkpt>
      <trkpt lat="49.13428" lon="-0.07076">
        <ele>11.3</ele>
        <time>2023-10-15T07:34:16Z</time>
      </trkpt>
      <trkpt lat="49.13428" lon="-0.07064">
        <ele>11.3</ele>
        <time>2023-10-15T07:34:17Z</time>
      </trkpt>
      <trkpt lat="49.13429" lon="-0.07052">
        <ele>11.3</ele>
        <time>2023-10-15T07:34:18Z</time>
      </trkpt>
      <trkpt lat="49.1343" lon="-0.0704">
        <ele>11.4</ele>
        <time>2023-10-15T07:34:19Z</time>
      </trkpt>
      <trkpt lat="49.1343" lon="-0.07028">
        <ele>11.4</ele>
        <time>2023-10-15T07:34:20Z</time>
      </trkpt>
      <trkpt lat="49.13431" lon="-0.07017">
        <ele>11.4</ele>
        <time>2023-10-15T07:34:21Z</time>
      </trkpt>
      <trkpt lat="49.13431" lon="-0.07005">
        <ele>11.5</ele>
        <time>2023-10-15T07:34:22Z</time>
      </trkpt>
      <trkpt lat="49.13432" lon="-0.06994">
        <ele>11.5</ele>
        <time>2023-10-15T07:34:23Z</time>
      </trkpt>
      <trkpt lat="49.13432" lon="-0.06982">
        <ele>11.4</ele>
        <time>2023-10-15T07:34:24Z</time>
      </trkpt>
      <trkpt lat="49.13433" lon="-0.0697">
        <ele>11.4</ele>
        <time>2023-10-15T07:34:25Z</time>
      </trkpt>
      <trkpt lat="49.13434" lon="-0.06959">
        <ele>11.4</ele>
        <time>2023-10-15T07:34:26Z</time>
      </trkpt>
      <trkpt lat="49.13434" lon="-0.06947">
        <ele>11.4</ele>
        <time>2023-10-15T07:34:27Z</time>
      </trkpt>
      <trkpt lat="49.13435" lon="-0.06936">
        <ele>11.4</ele>
        <time>2023-10-15T07:34:28Z</time>
      </trkpt>
      <trkpt lat="49.13435" lon="-0.06924">
        <ele>11.3</ele>
        <time>2023-10-15T07:34:29Z</time>
      </trkpt>
      <trkpt lat="49.13435" lon="-0.06913">
        <ele>11.3</ele>
        <time>2023-10-15T07:34:30Z</time>
      </trkpt>
      <trkpt lat="49.13436" lon="-0.06902">
        <ele>11.3</ele>
        <time>2023-10-15T07:34:31Z</time>
      </trkpt>
      <trkpt lat="49.13436" lon="-0.06891">
        <ele>11.3</ele>
        <time>2023-10-15T07:34:32Z</time>
      </trkpt>
      <trkpt lat="49.13437" lon="-0.06879">
        <ele>11.2</ele>
        <time>2023-10-15T07:34:33Z</time>
      </trkpt>
      <trkpt lat="49.13437" lon="-0.06868">
        <ele>11.2</ele>
        <time>2023-10-15T07:34:34Z</time>
      </trkpt>
      <trkpt lat="49.13438" lon="-0.06857">
        <ele>11.2</ele>
        <time>2023-10-15T07:34:35Z</time>
      </trkpt>
      <trkpt lat="49.13438" lon="-0.06846">
        <ele>11.2</ele>
        <time>2023-10-15T07:34:36Z</time>
      </trkpt>
      <trkpt lat="49.13439" lon="-0.06836">
        <ele>11.2</ele>
        <time>2023-10-15T07:34:37Z</time>
      </trkpt>
      <trkpt lat="49.13439" lon="-0.06826">
        <ele>11.2</ele>
        <time>2023-10-15T07:34:38Z</time>
      </trkpt>
      <trkpt lat="49.13439" lon="-0.06816">
        <ele>11.2</ele>
        <time>2023-10-15T07:34:39Z</time>
      </trkpt>
      <trkpt lat="49.13438" lon="-0.06806">
        <ele>11.2</ele>
        <time>2023-10-15T07:34:40Z</time>
      </trkpt>
      <trkpt lat="49.13436" lon="-0.06796">
        <ele>11.1</ele>
        <time>2023-10-15T07:34:41Z</time>
      </trkpt>
      <trkpt lat="49.13432" lon="-0.06787">
        <ele>11</ele>
        <time>2023-10-15T07:34:42Z</time>
      </trkpt>
      <trkpt lat="49.13427" lon="-0.06779">
        <ele>11</ele>
        <time>2023-10-15T07:34:43Z</time>
      </trkpt>
      <trkpt lat="49.13421" lon="-0.06772">
        <ele>10.9</ele>
        <time>2023-10-15T07:34:44Z</time>
      </trkpt>
      <trkpt lat="49.13413" lon="-0.06766">
        <ele>10.9</ele>
        <time>2023-10-15T07:34:45Z</time>
      </trkpt>
      <trkpt lat="49.13405" lon="-0.06762">
        <ele>11</ele>
        <time>2023-10-15T07:34:46Z</time>
      </trkpt>
      <trkpt lat="49.13397" lon="-0.06761">
        <ele>11</ele>
        <time>2023-10-15T07:34:47Z</time>
      </trkpt>
      <trkpt lat="49.13389" lon="-0.0676">
        <ele>10.9</ele>
        <time>2023-10-15T07:34:48Z</time>
      </trkpt>
      <trkpt lat="49.13381" lon="-0.0676">
        <ele>10.9</ele>
        <time>2023-10-15T07:34:49Z</time>
      </trkpt>
      <trkpt lat="49.13372" lon="-0.0676">
        <ele>10.9</ele>
        <time>2023-10-15T07:34:50Z</time>
      </trkpt>
      <trkpt lat="49.13364" lon="-0.0676">
        <ele>10.9</ele>
        <time>2023-10-15T07:34:51Z</time>
      </trkpt>
      <trkpt lat="49.13355" lon="-0.0676">
        <ele>11</ele>
        <time>2023-10-15T07:34:52Z</time>
      </trkpt>
      <trkpt lat="49.13345" lon="-0.06759">
        <ele>11</ele>
        <time>2023-10-15T07:34:53Z</time>
      </trkpt>
      <trkpt lat="49.13337" lon="-0.06759">
        <ele>11</ele>
        <time>2023-10-15T07:34:54Z</time>
      </trkpt>
      <trkpt lat="49.13328" lon="-0.06758">
        <ele>10.9</ele>
        <time>2023-10-15T07:34:55Z</time>
      </trkpt>
      <trkpt lat="49.13319" lon="-0.06757">
        <ele>10.9</ele>
        <time>2023-10-15T07:34:56Z</time>
      </trkpt>
      <trkpt lat="49.1331" lon="-0.06757">
        <ele>10.9</ele>
        <time>2023-10-15T07:34:57Z</time>
      </trkpt>
      <trkpt lat="49.13301" lon="-0.06757">
        <ele>10.9</ele>
        <time>2023-10-15T07:34:58Z</time>
      </trkpt>
      <trkpt lat="49.13293" lon="-0.06757">
        <ele>10.9</ele>
        <time>2023-10-15T07:34:59Z</time>
      </trkpt>
      <trkpt lat="49.13284" lon="-0.06757">
        <ele>10.9</ele>
        <time>2023-10-15T07:35:00Z</time>
      </trkpt>
      <trkpt lat="49.13276" lon="-0.06757">
        <ele>10.9</ele>
        <time>2023-10-15T07:35:01Z</time>
      </trkpt>
      <trkpt lat="49.13268" lon="-0.06757">
        <ele>10.9</ele>
        <time>2023-10-15T07:35:02Z</time>
      </trkpt>
      <trkpt lat="49.1326" lon="-0.06757">
        <ele>10.9</ele>
        <time>2023-10-15T07:35:03Z</time>
      </trkpt>
      <trkpt lat="49.13251" lon="-0.06757">
        <ele>10.9</ele>
        <time>2023-10-15T07:35:04Z</time>
      </trkpt>
      <trkpt lat="49.13243" lon="-0.06758">
        <ele>10.9</ele>
        <time>2023-10-15T07:35:05Z</time>
      </trkpt>
      <trkpt lat="49.13236" lon="-0.06758">
        <ele>11</ele>
        <time>2023-10-15T07:35:06Z</time>
      </trkpt>
      <trkpt lat="49.13228" lon="-0.06758">
        <ele>11</ele>
        <time>2023-10-15T07:35:07Z</time>
      </trkpt>
      <trkpt lat="49.13221" lon="-0.06759">
        <ele>11</ele>
        <time>2023-10-15T07:35:08Z</time>
      </trkpt>
      <trkpt lat="49.13213" lon="-0.0676">
        <ele>11</ele>
        <time>2023-10-15T07:35:09Z</time>
      </trkpt>
      <trkpt lat="49.13206" lon="-0.06761">
        <ele>11</ele>
        <time>2023-10-15T07:35:10Z</time>
      </trkpt>
      <trkpt lat="49.13198" lon="-0.06762">
        <ele>11</ele>
        <time>2023-10-15T07:35:11Z</time>
      </trkpt>
      <trkpt lat="49.13191" lon="-0.06763">
        <ele>11.1</ele>
        <time>2023-10-15T07:35:12Z</time>
      </trkpt>
      <trkpt lat="49.13183" lon="-0.06765">
        <ele>11.1</ele>
        <time>2023-10-15T07:35:13Z</time>
      </trkpt>
      <trkpt lat="49.13175" lon="-0.06766">
        <ele>11.1</ele>
        <time>2023-10-15T07:35:14Z</time>
      </trkpt>
      <trkpt lat="49.13168" lon="-0.06767">
        <ele>11.2</ele>
        <time>2023-10-15T07:35:15Z</time>
      </trkpt>
      <trkpt lat="49.1316" lon="-0.06768">
        <ele>11.2</ele>
        <time>2023-10-15T07:35:16Z</time>
      </trkpt>
      <trkpt lat="49.13153" lon="-0.0677">
        <ele>11.2</ele>
        <time>2023-10-15T07:35:17Z</time>
      </trkpt>
      <trkpt lat="49.13145" lon="-0.06771">
        <ele>11.2</ele>
        <time>2023-10-15T07:35:18Z</time>
      </trkpt>
      <trkpt lat="49.13138" lon="-0.06773">
        <ele>11.3</ele>
        <time>2023-10-15T07:35:19Z</time>
      </trkpt>
      <trkpt lat="49.1313" lon="-0.06774">
        <ele>11.3</ele>
        <time>2023-10-15T07:35:20Z</time>
      </trkpt>
      <trkpt lat="49.13123" lon="-0.06776">
        <ele>11.3</ele>
        <time>2023-10-15T07:35:21Z</time>
      </trkpt>
      <trkpt lat="49.13116" lon="-0.06778">
        <ele>11.3</ele>
        <time>2023-10-15T07:35:22Z</time>
      </trkpt>
      <trkpt lat="49.13109" lon="-0.06779">
        <ele>11.3</ele>
        <time>2023-10-15T07:35:23Z</time>
      </trkpt>
      <trkpt lat="49.13101" lon="-0.06781">
        <ele>11.3</ele>
        <time>2023-10-15T07:35:24Z</time>
      </trkpt>
      <trkpt lat="49.13094" lon="-0.06782">
        <ele>11.4</ele>
        <time>2023-10-15T07:35:25Z</time>
      </trkpt>
      <trkpt lat="49.13087" lon="-0.06784">
        <ele>11.4</ele>
        <time>2023-10-15T07:35:26Z</time>
      </trkpt>
      <trkpt lat="49.13079" lon="-0.06786">
        <ele>11.4</ele>
        <time>2023-10-15T07:35:27Z</time>
      </trkpt>
      <trkpt lat="49.13072" lon="-0.06787">
        <ele>11.5</ele>
        <time>2023-10-15T07:35:28Z</time>
      </trkpt>
      <trkpt lat="49.13064" lon="-0.06789">
        <ele>11.5</ele>
        <time>2023-10-15T07:35:29Z</time>
      </trkpt>
      <trkpt lat="49.13057" lon="-0.06791">
        <ele>11.6</ele>
        <time>2023-10-15T07:35:30Z</time>
      </trkpt>
      <trkpt lat="49.13049" lon="-0.06792">
        <ele>11.6</ele>
        <time>2023-10-15T07:35:31Z</time>
      </trkpt>
      <trkpt lat="49.13041" lon="-0.06794">
        <ele>11.6</ele>
        <time>2023-10-15T07:35:32Z</time>
      </trkpt>
      <trkpt lat="49.13034" lon="-0.06795">
        <ele>11.6</ele>
        <time>2023-10-15T07:35:33Z</time>
      </trkpt>
      <trkpt lat="49.13026" lon="-0.06797">
        <ele>11.6</ele>
        <time>2023-10-15T07:35:34Z</time>
      </trkpt>
      <trkpt lat="49.13019" lon="-0.06798">
        <ele>11.6</ele>
        <time>2023-10-15T07:35:35Z</time>
      </trkpt>
      <trkpt lat="49.13011" lon="-0.06798">
        <ele>11.7</ele>
        <time>2023-10-15T07:35:36Z</time>
      </trkpt>
      <trkpt lat="49.13004" lon="-0.06799">
        <ele>11.7</ele>
        <time>2023-10-15T07:35:37Z</time>
      </trkpt>
      <trkpt lat="49.12996" lon="-0.06799">
        <ele>11.8</ele>
        <time>2023-10-15T07:35:38Z</time>
      </trkpt>
      <trkpt lat="49.12988" lon="-0.06798">
        <ele>11.8</ele>
        <time>2023-10-15T07:35:39Z</time>
      </trkpt>
      <trkpt lat="49.12981" lon="-0.06795">
        <ele>11.9</ele>
        <time>2023-10-15T07:35:40Z</time>
      </trkpt>
      <trkpt lat="49.12973" lon="-0.06792">
        <ele>11.9</ele>
        <time>2023-10-15T07:35:41Z</time>
      </trkpt>
      <trkpt lat="49.12966" lon="-0.06788">
        <ele>12</ele>
        <time>2023-10-15T07:35:42Z</time>
      </trkpt>
      <trkpt lat="49.12959" lon="-0.06784">
        <ele>12</ele>
        <time>2023-10-15T07:35:43Z</time>
      </trkpt>
      <trkpt lat="49.12952" lon="-0.06779">
        <ele>12</ele>
        <time>2023-10-15T07:35:44Z</time>
      </trkpt>
      <trkpt lat="49.12945" lon="-0.06774">
        <ele>12</ele>
        <time>2023-10-15T07:35:45Z</time>
      </trkpt>
      <trkpt lat="49.12937" lon="-0.06769">
        <ele>12</ele>
        <time>2023-10-15T07:35:46Z</time>
      </trkpt>
      <trkpt lat="49.1293" lon="-0.06764">
        <ele>12</ele>
        <time>2023-10-15T07:35:47Z</time>
      </trkpt>
      <trkpt lat="49.12923" lon="-0.06759">
        <ele>12</ele>
        <time>2023-10-15T07:35:48Z</time>
      </trkpt>
      <trkpt lat="49.12916" lon="-0.06754">
        <ele>12.1</ele>
        <time>2023-10-15T07:35:49Z</time>
      </trkpt>
      <trkpt lat="49.1291" lon="-0.06749">
        <ele>12.1</ele>
        <time>2023-10-15T07:35:50Z</time>
      </trkpt>
      <trkpt lat="49.12903" lon="-0.06745">
        <ele>12.1</ele>
        <time>2023-10-15T07:35:51Z</time>
      </trkpt>
      <trkpt lat="49.12896" lon="-0.0674">
        <ele>12.2</ele>
        <time>2023-10-15T07:35:52Z</time>
      </trkpt>
      <trkpt lat="49.12888" lon="-0.06736">
        <ele>12.2</ele>
        <time>2023-10-15T07:35:53Z</time>
      </trkpt>
      <trkpt lat="49.12881" lon="-0.06732">
        <ele>12.2</ele>
        <time>2023-10-15T07:35:54Z</time>
      </trkpt>
      <trkpt lat="49.12874" lon="-0.06728">
        <ele>12.2</ele>
        <time>2023-10-15T07:35:55Z</time>
      </trkpt>
      <trkpt lat="49.12867" lon="-0.06724">
        <ele>12.3</ele>
        <time>2023-10-15T07:35:56Z</time>
      </trkpt>
      <trkpt lat="49.12859" lon="-0.06719">
        <ele>12.3</ele>
        <time>2023-10-15T07:35:57Z</time>
      </trkpt>
      <trkpt lat="49.12852" lon="-0.06715">
        <ele>12.3</ele>
        <time>2023-10-15T07:35:58Z</time>
      </trkpt>
      <trkpt lat="49.12845" lon="-0.06711">
        <ele>12.3</ele>
        <time>2023-10-15T07:35:59Z</time>
      </trkpt>
      <trkpt lat="49.12837" lon="-0.06708">
        <ele>12.3</ele>
        <time>2023-10-15T07:36:00Z</time>
      </trkpt>
      <trkpt lat="49.1283" lon="-0.06706">
        <ele>12.3</ele>
        <time>2023-10-15T07:36:01Z</time>
      </trkpt>
      <trkpt lat="49.12823" lon="-0.06703">
        <ele>12.4</ele>
        <time>2023-10-15T07:36:02Z</time>
      </trkpt>
      <trkpt lat="49.12816" lon="-0.06701">
        <ele>12.4</ele>
        <time>2023-10-15T07:36:03Z</time>
      </trkpt>
      <trkpt lat="49.12808" lon="-0.06698">
        <ele>12.4</ele>
        <time>2023-10-15T07:36:04Z</time>
      </trkpt>
      <trkpt lat="49.12801" lon="-0.06696">
        <ele>12.4</ele>
        <time>2023-10-15T07:36:05Z</time>
      </trkpt>
      <trkpt lat="49.12794" lon="-0.06694">
        <ele>12.4</ele>
        <time>2023-10-15T07:36:06Z</time>
      </trkpt>
      <trkpt lat="49.12786" lon="-0.06692">
        <ele>12.5</ele>
        <time>2023-10-15T07:36:07Z</time>
      </trkpt>
      <trkpt lat="49.12778" lon="-0.06691">
        <ele>12.5</ele>
        <time>2023-10-15T07:36:08Z</time>
      </trkpt>
      <trkpt lat="49.12771" lon="-0.0669">
        <ele>12.5</ele>
        <time>2023-10-15T07:36:09Z</time>
      </trkpt>
      <trkpt lat="49.12763" lon="-0.06689">
        <ele>12.6</ele>
        <time>2023-10-15T07:36:10Z</time>
      </trkpt>
      <trkpt lat="49.12755" lon="-0.06688">
        <ele>12.6</ele>
        <time>2023-10-15T07:36:11Z</time>
      </trkpt>
      <trkpt lat="49.12747" lon="-0.06689">
        <ele>12.6</ele>
        <time>2023-10-15T07:36:12Z</time>
      </trkpt>
      <trkpt lat="49.12738" lon="-0.06689">
        <ele>12.6</ele>
        <time>2023-10-15T07:36:13Z</time>
      </trkpt>
      <trkpt lat="49.1273" lon="-0.0669">
        <ele>12.6</ele>
        <time>2023-10-15T07:36:14Z</time>
      </trkpt>
      <trkpt lat="49.12722" lon="-0.0669">
        <ele>12.6</ele>
        <time>2023-10-15T07:36:15Z</time>
      </trkpt>
      <trkpt lat="49.12714" lon="-0.0669">
        <ele>12.6</ele>
        <time>2023-10-15T07:36:16Z</time>
      </trkpt>
      <trkpt lat="49.12706" lon="-0.0669">
        <ele>12.6</ele>
        <time>2023-10-15T07:36:17Z</time>
      </trkpt>
      <trkpt lat="49.12697" lon="-0.0669">
        <ele>12.5</ele>
        <time>2023-10-15T07:36:18Z</time>
      </trkpt>
      <trkpt lat="49.12689" lon="-0.06689">
        <ele>12.5</ele>
        <time>2023-10-15T07:36:19Z</time>
      </trkpt>
      <trkpt lat="49.12681" lon="-0.06689">
        <ele>12.5</ele>
        <time>2023-10-15T07:36:20Z</time>
      </trkpt>
      <trkpt lat="49.12672" lon="-0.0669">
        <ele>12.4</ele>
        <time>2023-10-15T07:36:21Z</time>
      </trkpt>
      <trkpt lat="49.12664" lon="-0.0669">
        <ele>12.4</ele>
        <time>2023-10-15T07:36:22Z</time>
      </trkpt>
      <trkpt lat="49.12656" lon="-0.0669">
        <ele>12.4</ele>
        <time>2023-10-15T07:36:23Z</time>
      </trkpt>
      <trkpt lat="49.12647" lon="-0.0669">
        <ele>12.3</ele>
        <time>2023-10-15T07:36:24Z</time>
      </trkpt>
      <trkpt lat="49.12639" lon="-0.0669">
        <ele>12.3</ele>
        <time>2023-10-15T07:36:25Z</time>
      </trkpt>
      <trkpt lat="49.12631" lon="-0.0669">
        <ele>12.3</ele>
        <time>2023-10-15T07:36:26Z</time>
      </trkpt>
      <trkpt lat="49.12623" lon="-0.0669">
        <ele>12.3</ele>
        <time>2023-10-15T07:36:27Z</time>
      </trkpt>
      <trkpt lat="49.12615" lon="-0.0669">
        <ele>12.2</ele>
        <time>2023-10-15T07:36:28Z</time>
      </trkpt>
      <trkpt lat="49.12607" lon="-0.0669">
        <ele>12.2</ele>
        <time>2023-10-15T07:36:29Z</time>
      </trkpt>
      <trkpt lat="49.12599" lon="-0.06689">
        <ele>12.2</ele>
        <time>2023-10-15T07:36:30Z</time>
      </trkpt>
      <trkpt lat="49.12591" lon="-0.0669">
        <ele>12.2</ele>
        <time>2023-10-15T07:36:31Z</time>
      </trkpt>
      <trkpt lat="49.12583" lon="-0.0669">
        <ele>12.2</ele>
        <time>2023-10-15T07:36:32Z</time>
      </trkpt>
      <trkpt lat="49.12575" lon="-0.06689">
        <ele>12.2</ele>
        <time>2023-10-15T07:36:33Z</time>
      </trkpt>
      <trkpt lat="49.12566" lon="-0.0669">
        <ele>12.2</ele>
        <time>2023-10-15T07:36:34Z</time>
      </trkpt>
      <trkpt lat="49.12558" lon="-0.0669">
        <ele>12.2</ele>
        <time>2023-10-15T07:36:35Z</time>
      </trkpt>
      <trkpt lat="49.1255" lon="-0.0669">
        <ele>12.2</ele>
        <time>2023-10-15T07:36:36Z</time>
      </trkpt>
      <trkpt lat="49.12542" lon="-0.0669">
        <ele>12.1</ele>
        <time>2023-10-15T07:36:37Z</time>
      </trkpt>
      <trkpt lat="49.12534" lon="-0.06691">
        <ele>12.1</ele>
        <time>2023-10-15T07:36:38Z</time>
      </trkpt>
      <trkpt lat="49.12525" lon="-0.06691">
        <ele>12.1</ele>
        <time>2023-10-15T07:36:39Z</time>
      </trkpt>
      <trkpt lat="49.12517" lon="-0.06691">
        <ele>12.1</ele>
        <time>2023-10-15T07:36:40Z</time>
      </trkpt>
      <trkpt lat="49.12508" lon="-0.06691">
        <ele>12.1</ele>
        <time>2023-10-15T07:36:41Z</time>
      </trkpt>
      <trkpt lat="49.125" lon="-0.06692">
        <ele>12.1</ele>
        <time>2023-10-15T07:36:42Z</time>
      </trkpt>
      <trkpt lat="49.12492" lon="-0.06692">
        <ele>12.1</ele>
        <time>2023-10-15T07:36:43Z</time>
      </trkpt>
      <trkpt lat="49.12484" lon="-0.06693">
        <ele>12.1</ele>
        <time>2023-10-15T07:36:44Z</time>
      </trkpt>
      <trkpt lat="49.12475" lon="-0.06693">
        <ele>12.1</ele>
        <time>2023-10-15T07:36:45Z</time>
      </trkpt>
      <trkpt lat="49.12467" lon="-0.06692">
        <ele>12.1</ele>
        <time>2023-10-15T07:36:46Z</time>
      </trkpt>
      <trkpt lat="49.12459" lon="-0.06692">
        <ele>12.1</ele>
        <time>2023-10-15T07:36:47Z</time>
      </trkpt>
      <trkpt lat="49.12451" lon="-0.06692">
        <ele>12.1</ele>
        <time>2023-10-15T07:36:48Z</time>
      </trkpt>
      <trkpt lat="49.12442" lon="-0.06692">
        <ele>12.1</ele>
        <time>2023-10-15T07:36:49Z</time>
      </trkpt>
      <trkpt lat="49.12433" lon="-0.06692">
        <ele>12.1</ele>
        <time>2023-10-15T07:36:50Z</time>
      </trkpt>
      <trkpt lat="49.12425" lon="-0.06693">
        <ele>12.1</ele>
        <time>2023-10-15T07:36:51Z</time>
      </trkpt>
      <trkpt lat="49.12416" lon="-0.06693">
        <ele>12.1</ele>
        <time>2023-10-15T07:36:52Z</time>
      </trkpt>
      <trkpt lat="49.12408" lon="-0.06693">
        <ele>12.2</ele>
        <time>2023-10-15T07:36:53Z</time>
      </trkpt>
      <trkpt lat="49.12399" lon="-0.06693">
        <ele>12.2</ele>
        <time>2023-10-15T07:36:54Z</time>
      </trkpt>
      <trkpt lat="49.12391" lon="-0.06693">
        <ele>12.3</ele>
        <time>2023-10-15T07:36:55Z</time>
      </trkpt>
      <trkpt lat="49.12382" lon="-0.06692">
        <ele>12.3</ele>
        <time>2023-10-15T07:36:56Z</time>
      </trkpt>
      <trkpt lat="49.12374" lon="-0.06692">
        <ele>12.3</ele>
        <time>2023-10-15T07:36:57Z</time>
      </trkpt>
      <trkpt lat="49.12366" lon="-0.06692">
        <ele>12.4</ele>
        <time>2023-10-15T07:36:58Z</time>
      </trkpt>
      <trkpt lat="49.12358" lon="-0.06693">
        <ele>12.4</ele>
        <time>2023-10-15T07:36:59Z</time>
      </trkpt>
      <trkpt lat="49.1235" lon="-0.06693">
        <ele>12.4</ele>
        <time>2023-10-15T07:37:00Z</time>
      </trkpt>
      <trkpt lat="49.12341" lon="-0.06693">
        <ele>12.5</ele>
        <time>2023-10-15T07:37:01Z</time>
      </trkpt>
      <trkpt lat="49.12333" lon="-0.06693">
        <ele>12.5</ele>
        <time>2023-10-15T07:37:02Z</time>
      </trkpt>
      <trkpt lat="49.12325" lon="-0.06693">
        <ele>12.6</ele>
        <time>2023-10-15T07:37:03Z</time>
      </trkpt>
      <trkpt lat="49.12316" lon="-0.06693">
        <ele>12.7</ele>
        <time>2023-10-15T07:37:04Z</time>
      </trkpt>
      <trkpt lat="49.12308" lon="-0.06693">
        <ele>12.7</ele>
        <time>2023-10-15T07:37:05Z</time>
      </trkpt>
      <trkpt lat="49.123" lon="-0.06693">
        <ele>12.7</ele>
        <time>2023-10-15T07:37:06Z</time>
      </trkpt>
      <trkpt lat="49.12293" lon="-0.06693">
        <ele>12.7</ele>
        <time>2023-10-15T07:37:07Z</time>
      </trkpt>
      <trkpt lat="49.12285" lon="-0.06693">
        <ele>12.8</ele>
        <time>2023-10-15T07:37:08Z</time>
      </trkpt>
      <trkpt lat="49.12277" lon="-0.06693">
        <ele>12.9</ele>
        <time>2023-10-15T07:37:09Z</time>
      </trkpt>
      <trkpt lat="49.12269" lon="-0.06694">
        <ele>12.9</ele>
        <time>2023-10-15T07:37:10Z</time>
      </trkpt>
      <trkpt lat="49.12262" lon="-0.06694">
        <ele>12.9</ele>
        <time>2023-10-15T07:37:11Z</time>
      </trkpt>
      <trkpt lat="49.12254" lon="-0.06694">
        <ele>12.9</ele>
        <time>2023-10-15T07:37:12Z</time>
      </trkpt>
      <trkpt lat="49.12247" lon="-0.06695">
        <ele>12.9</ele>
        <time>2023-10-15T07:37:13Z</time>
      </trkpt>
      <trkpt lat="49.1224" lon="-0.06695">
        <ele>12.9</ele>
        <time>2023-10-15T07:37:14Z</time>
      </trkpt>
      <trkpt lat="49.12232" lon="-0.06695">
        <ele>12.9</ele>
        <time>2023-10-15T07:37:15Z</time>
      </trkpt>
      <trkpt lat="49.12224" lon="-0.06695">
        <ele>12.9</ele>
        <time>2023-10-15T07:37:16Z</time>
      </trkpt>
      <trkpt lat="49.12216" lon="-0.06695">
        <ele>12.9</ele>
        <time>2023-10-15T07:37:17Z</time>
      </trkpt>
      <trkpt lat="49.12208" lon="-0.06695">
        <ele>12.9</ele>
        <time>2023-10-15T07:37:18Z</time>
      </trkpt>
      <trkpt lat="49.122" lon="-0.06695">
        <ele>12.8</ele>
        <time>2023-10-15T07:37:19Z</time>
      </trkpt>
      <trkpt lat="49.12191" lon="-0.06695">
        <ele>12.8</ele>
        <time>2023-10-15T07:37:20Z</time>
      </trkpt>
      <trkpt lat="49.12184" lon="-0.06695">
        <ele>12.8</ele>
        <time>2023-10-15T07:37:21Z</time>
      </trkpt>
      <trkpt lat="49.12176" lon="-0.06695">
        <ele>12.8</ele>
        <time>2023-10-15T07:37:22Z</time>
      </trkpt>
      <trkpt lat="49.12168" lon="-0.06696">
        <ele>12.8</ele>
        <time>2023-10-15T07:37:23Z</time>
      </trkpt>
      <trkpt lat="49.1216" lon="-0.06696">
        <ele>12.8</ele>
        <time>2023-10-15T07:37:24Z</time>
      </trkpt>
      <trkpt lat="49.12152" lon="-0.06697">
        <ele>12.7</ele>
        <time>2023-10-15T07:37:25Z</time>
      </trkpt>
      <trkpt lat="49.12145" lon="-0.06698">
        <ele>12.7</ele>
        <time>2023-10-15T07:37:26Z</time>
      </trkpt>
      <trkpt lat="49.12137" lon="-0.06699">
        <ele>12.7</ele>
        <time>2023-10-15T07:37:27Z</time>
      </trkpt>
      <trkpt lat="49.12129" lon="-0.06702">
        <ele>12.7</ele>
        <time>2023-10-15T07:37:28Z</time>
      </trkpt>
      <trkpt lat="49.12121" lon="-0.06704">
        <ele>12.7</ele>
        <time>2023-10-15T07:37:29Z</time>
      </trkpt>
      <trkpt lat="49.12114" lon="-0.06706">
        <ele>12.7</ele>
        <time>2023-10-15T07:37:30Z</time>
      </trkpt>
      <trkpt lat="49.12107" lon="-0.06709">
        <ele>12.7</ele>
        <time>2023-10-15T07:37:31Z</time>
      </trkpt>
      <trkpt lat="49.121" lon="-0.06711">
        <ele>12.8</ele>
        <time>2023-10-15T07:37:32Z</time>
      </trkpt>
      <trkpt lat="49.12094" lon="-0.06714">
        <ele>12.8</ele>
        <time>2023-10-15T07:37:33Z</time>
      </trkpt>
      <trkpt lat="49.12088" lon="-0.06716">
        <ele>12.8</ele>
        <time>2023-10-15T07:37:34Z</time>
      </trkpt>
      <trkpt lat="49.12081" lon="-0.06719">
        <ele>12.9</ele>
        <time>2023-10-15T07:37:35Z</time>
      </trkpt>
      <trkpt lat="49.12074" lon="-0.06722">
        <ele>12.9</ele>
        <time>2023-10-15T07:37:36Z</time>
      </trkpt>
      <trkpt lat="49.12067" lon="-0.06725">
        <ele>13</ele>
        <time>2023-10-15T07:37:37Z</time>
      </trkpt>
      <trkpt lat="49.12061" lon="-0.06728">
        <ele>13.1</ele>
        <time>2023-10-15T07:37:38Z</time>
      </trkpt>
      <trkpt lat="49.12054" lon="-0.0673">
        <ele>13.2</ele>
        <time>2023-10-15T07:37:39Z</time>
      </trkpt>
      <trkpt lat="49.12048" lon="-0.06732">
        <ele>13.3</ele>
        <time>2023-10-15T07:37:40Z</time>
      </trkpt>
      <trkpt lat="49.12042" lon="-0.06734">
        <ele>13.3</ele>
        <time>2023-10-15T07:37:41Z</time>
      </trkpt>
      <trkpt lat="49.12036" lon="-0.06737">
        <ele>13.4</ele>
        <time>2023-10-15T07:37:42Z</time>
      </trkpt>
      <trkpt lat="49.1203" lon="-0.06739">
        <ele>13.5</ele>
        <time>2023-10-15T07:37:43Z</time>
      </trkpt>
      <trkpt lat="49.12025" lon="-0.06741">
        <ele>13.6</ele>
        <time>2023-10-15T07:37:44Z</time>
      </trkpt>
      <trkpt lat="49.1202" lon="-0.06743">
        <ele>13.7</ele>
        <time>2023-10-15T07:37:45Z</time>
      </trkpt>
      <trkpt lat="49.12015" lon="-0.06745">
        <ele>13.8</ele>
        <time>2023-10-15T07:37:46Z</time>
      </trkpt>
      <trkpt lat="49.12011" lon="-0.06747">
        <ele>13.9</ele>
        <time>2023-10-15T07:37:47Z</time>
      </trkpt>
      <trkpt lat="49.12008" lon="-0.06747">
        <ele>13.9</ele>
        <time>2023-10-15T07:37:48Z</time>
      </trkpt>
      <trkpt lat="49.12005" lon="-0.06748">
        <ele>14</ele>
        <time>2023-10-15T07:37:49Z</time>
      </trkpt>
      <trkpt lat="49.12001" lon="-0.0675">
        <ele>14.1</ele>
        <time>2023-10-15T07:37:50Z</time>
      </trkpt>
      <trkpt lat="49.12" lon="-0.0675">
        <ele>14.1</ele>
        <time>2023-10-15T07:37:51Z</time>
      </trkpt>
      <trkpt lat="49.11996" lon="-0.06751">
        <ele>14.2</ele>
        <time>2023-10-15T07:37:52Z</time>
      </trkpt>
      <trkpt lat="49.11994" lon="-0.06751">
        <ele>14.3</ele>
        <time>2023-10-15T07:37:53Z</time>
      </trkpt>
      <trkpt lat="49.11992" lon="-0.06751">
        <ele>14.3</ele>
        <time>2023-10-15T07:37:54Z</time>
      </trkpt>
      <trkpt lat="49.11989" lon="-0.0675">
        <ele>14.4</ele>
        <time>2023-10-15T07:37:55Z</time>
      </trkpt>
      <trkpt lat="49.11986" lon="-0.06746">
        <ele>14.5</ele>
        <time>2023-10-15T07:37:56Z</time>
      </trkpt>
      <trkpt lat="49.11984" lon="-0.06741">
        <ele>14.4</ele>
        <time>2023-10-15T07:37:57Z</time>
      </trkpt>
      <trkpt lat="49.11982" lon="-0.06735">
        <ele>14.4</ele>
        <time>2023-10-15T07:37:58Z</time>
      </trkpt>
      <trkpt lat="49.11981" lon="-0.06729">
        <ele>14.3</ele>
        <time>2023-10-15T07:37:59Z</time>
      </trkpt>
      <trkpt lat="49.11981" lon="-0.06722">
        <ele>14.3</ele>
        <time>2023-10-15T07:38:00Z</time>
      </trkpt>
      <trkpt lat="49.11981" lon="-0.06714">
        <ele>14.3</ele>
        <time>2023-10-15T07:38:01Z</time>
      </trkpt>
      <trkpt lat="49.1198" lon="-0.06706">
        <ele>14.2</ele>
        <time>2023-10-15T07:38:02Z</time>
      </trkpt>
      <trkpt lat="49.11979" lon="-0.06697">
        <ele>14.2</ele>
        <time>2023-10-15T07:38:03Z</time>
      </trkpt>
      <trkpt lat="49.11978" lon="-0.06687">
        <ele>14.1</ele>
        <time>2023-10-15T07:38:04Z</time>
      </trkpt>
      <trkpt lat="49.11977" lon="-0.06676">
        <ele>14.1</ele>
        <time>2023-10-15T07:38:05Z</time>
      </trkpt>
      <trkpt lat="49.11976" lon="-0.06666">
        <ele>14</ele>
        <time>2023-10-15T07:38:06Z</time>
      </trkpt>
      <trkpt lat="49.11976" lon="-0.06655">
        <ele>14</ele>
        <time>2023-10-15T07:38:07Z</time>
      </trkpt>
      <trkpt lat="49.11976" lon="-0.06644">
        <ele>13.9</ele>
        <time>2023-10-15T07:38:08Z</time>
      </trkpt>
      <trkpt lat="49.11975" lon="-0.06632">
        <ele>13.9</ele>
        <time>2023-10-15T07:38:09Z</time>
      </trkpt>
      <trkpt lat="49.11975" lon="-0.06621">
        <ele>13.8</ele>
        <time>2023-10-15T07:38:10Z</time>
      </trkpt>
      <trkpt lat="49.11975" lon="-0.06608">
        <ele>13.7</ele>
        <time>2023-10-15T07:38:11Z</time>
      </trkpt>
      <trkpt lat="49.11975" lon="-0.06596">
        <ele>13.7</ele>
        <time>2023-10-15T07:38:12Z</time>
      </trkpt>
      <trkpt lat="49.11975" lon="-0.06583">
        <ele>13.6</ele>
        <time>2023-10-15T07:38:13Z</time>
      </trkpt>
      <trkpt lat="49.11976" lon="-0.0657">
        <ele>13.5</ele>
        <time>2023-10-15T07:38:14Z</time>
      </trkpt>
      <trkpt lat="49.11977" lon="-0.06558">
        <ele>13.4</ele>
        <time>2023-10-15T07:38:15Z</time>
      </trkpt>
      <trkpt lat="49.11977" lon="-0.06546">
        <ele>13.3</ele>
        <time>2023-10-15T07:38:16Z</time>
      </trkpt>
      <trkpt lat="49.11978" lon="-0.06534">
        <ele>13.2</ele>
        <time>2023-10-15T07:38:17Z</time>
      </trkpt>
      <trkpt lat="49.11979" lon="-0.06522">
        <ele>13.1</ele>
        <time>2023-10-15T07:38:18Z</time>
      </trkpt>
      <trkpt lat="49.1198" lon="-0.06509">
        <ele>13</ele>
        <time>2023-10-15T07:38:19Z</time>
      </trkpt>
      <trkpt lat="49.11981" lon="-0.06496">
        <ele>12.9</ele>
        <time>2023-10-15T07:38:20Z</time>
      </trkpt>
      <trkpt lat="49.11982" lon="-0.06482">
        <ele>12.8</ele>
        <time>2023-10-15T07:38:21Z</time>
      </trkpt>
      <trkpt lat="49.11984" lon="-0.06469">
        <ele>12.7</ele>
        <time>2023-10-15T07:38:22Z</time>
      </trkpt>
      <trkpt lat="49.11986" lon="-0.06455">
        <ele>12.7</ele>
        <time>2023-10-15T07:38:23Z</time>
      </trkpt>
      <trkpt lat="49.11988" lon="-0.06442">
        <ele>12.6</ele>
        <time>2023-10-15T07:38:24Z</time>
      </trkpt>
      <trkpt lat="49.1199" lon="-0.06428">
        <ele>12.5</ele>
        <time>2023-10-15T07:38:25Z</time>
      </trkpt>
      <trkpt lat="49.11993" lon="-0.06415">
        <ele>12.4</ele>
        <time>2023-10-15T07:38:26Z</time>
      </trkpt>
      <trkpt lat="49.11995" lon="-0.06402">
        <ele>12.3</ele>
        <time>2023-10-15T07:38:27Z</time>
      </trkpt>
      <trkpt lat="49.11998" lon="-0.06389">
        <ele>12.2</ele>
        <time>2023-10-15T07:38:28Z</time>
      </trkpt>
      <trkpt lat="49.12001" lon="-0.06376">
        <ele>12.1</ele>
        <time>2023-10-15T07:38:29Z</time>
      </trkpt>
      <trkpt lat="49.12004" lon="-0.06363">
        <ele>12</ele>
        <time>2023-10-15T07:38:30Z</time>
      </trkpt>
      <trkpt lat="49.12008" lon="-0.06349">
        <ele>11.9</ele>
        <time>2023-10-15T07:38:31Z</time>
      </trkpt>
      <trkpt lat="49.12011" lon="-0.06336">
        <ele>11.8</ele>
        <time>2023-10-15T07:38:32Z</time>
      </trkpt>
      <trkpt lat="49.12014" lon="-0.06323">
        <ele>11.6</ele>
        <time>2023-10-15T07:38:33Z</time>
      </trkpt>
      <trkpt lat="49.12016" lon="-0.06309">
        <ele>11.5</ele>
        <time>2023-10-15T07:38:34Z</time>
      </trkpt>
      <trkpt lat="49.1202" lon="-0.06296">
        <ele>11.3</ele>
        <time>2023-10-15T07:38:35Z</time>
      </trkpt>
      <trkpt lat="49.12023" lon="-0.06282">
        <ele>11.3</ele>
        <time>2023-10-15T07:38:36Z</time>
      </trkpt>
      <trkpt lat="49.12026" lon="-0.06269">
        <ele>11.2</ele>
        <time>2023-10-15T07:38:37Z</time>
      </trkpt>
      <trkpt lat="49.1203" lon="-0.06255">
        <ele>11.1</ele>
        <time>2023-10-15T07:38:38Z</time>
      </trkpt>
      <trkpt lat="49.12033" lon="-0.06242">
        <ele>11</ele>
        <time>2023-10-15T07:38:39Z</time>
      </trkpt>
      <trkpt lat="49.12036" lon="-0.06228">
        <ele>11</ele>
        <time>2023-10-15T07:38:40Z</time>
      </trkpt>
      <trkpt lat="49.12039" lon="-0.06215">
        <ele>10.9</ele>
        <time>2023-10-15T07:38:41Z</time>
      </trkpt>
      <trkpt lat="49.12042" lon="-0.06202">
        <ele>10.8</ele>
        <time>2023-10-15T07:38:42Z</time>
      </trkpt>
      <trkpt lat="49.12045" lon="-0.06189">
        <ele>10.7</ele>
        <time>2023-10-15T07:38:43Z</time>
      </trkpt>
      <trkpt lat="49.12048" lon="-0.06175">
        <ele>10.7</ele>
        <time>2023-10-15T07:38:44Z</time>
      </trkpt>
      <trkpt lat="49.12051" lon="-0.06162">
        <ele>10.6</ele>
        <time>2023-10-15T07:38:45Z</time>
      </trkpt>
      <trkpt lat="49.12054" lon="-0.06149">
        <ele>10.6</ele>
        <time>2023-10-15T07:38:46Z</time>
      </trkpt>
      <trkpt lat="49.12057" lon="-0.06135">
        <ele>10.5</ele>
        <time>2023-10-15T07:38:47Z</time>
      </trkpt>
      <trkpt lat="49.1206" lon="-0.06122">
        <ele>10.5</ele>
        <time>2023-10-15T07:38:48Z</time>
      </trkpt>
      <trkpt lat="49.12063" lon="-0.0611">
        <ele>10.4</ele>
        <time>2023-10-15T07:38:49Z</time>
      </trkpt>
      <trkpt lat="49.12066" lon="-0.06098">
        <ele>10.4</ele>
        <time>2023-10-15T07:38:50Z</time>
      </trkpt>
      <trkpt lat="49.12069" lon="-0.06085">
        <ele>10.3</ele>
        <time>2023-10-15T07:38:51Z</time>
      </trkpt>
      <trkpt lat="49.12072" lon="-0.06072">
        <ele>10.3</ele>
        <time>2023-10-15T07:38:52Z</time>
      </trkpt>
      <trkpt lat="49.12074" lon="-0.0606">
        <ele>10.3</ele>
        <time>2023-10-15T07:38:53Z</time>
      </trkpt>
      <trkpt lat="49.12077" lon="-0.06048">
        <ele>10.3</ele>
        <time>2023-10-15T07:38:54Z</time>
      </trkpt>
      <trkpt lat="49.1208" lon="-0.06036">
        <ele>10.3</ele>
        <time>2023-10-15T07:38:55Z</time>
      </trkpt>
      <trkpt lat="49.12083" lon="-0.06024">
        <ele>10.3</ele>
        <time>2023-10-15T07:38:56Z</time>
      </trkpt>
      <trkpt lat="49.12085" lon="-0.06012">
        <ele>10.2</ele>
        <time>2023-10-15T07:38:57Z</time>
      </trkpt>
      <trkpt lat="49.12088" lon="-0.06">
        <ele>10.2</ele>
        <time>2023-10-15T07:38:58Z</time>
      </trkpt>
      <trkpt lat="49.1209" lon="-0.05988">
        <ele>10.1</ele>
        <time>2023-10-15T07:38:59Z</time>
      </trkpt>
      <trkpt lat="49.12093" lon="-0.05976">
        <ele>10.1</ele>
        <time>2023-10-15T07:39:00Z</time>
      </trkpt>
      <trkpt lat="49.12095" lon="-0.05964">
        <ele>10</ele>
        <time>2023-10-15T07:39:01Z</time>
      </trkpt>
      <trkpt lat="49.12098" lon="-0.05952">
        <ele>10</ele>
        <time>2023-10-15T07:39:02Z</time>
      </trkpt>
      <trkpt lat="49.121" lon="-0.0594">
        <ele>10</ele>
        <time>2023-10-15T07:39:03Z</time>
      </trkpt>
      <trkpt lat="49.12103" lon="-0.05928">
        <ele>9.9</ele>
        <time>2023-10-15T07:39:04Z</time>
      </trkpt>
      <trkpt lat="49.12105" lon="-0.05916">
        <ele>9.9</ele>
        <time>2023-10-15T07:39:05Z</time>
      </trkpt>
      <trkpt lat="49.12108" lon="-0.05904">
        <ele>9.9</ele>
        <time>2023-10-15T07:39:06Z</time>
      </trkpt>
      <trkpt lat="49.12111" lon="-0.05892">
        <ele>9.8</ele>
        <time>2023-10-15T07:39:07Z</time>
      </trkpt>
      <trkpt lat="49.12114" lon="-0.0588">
        <ele>9.8</ele>
        <time>2023-10-15T07:39:08Z</time>
      </trkpt>
      <trkpt lat="49.12116" lon="-0.05869">
        <ele>9.7</ele>
        <time>2023-10-15T07:39:09Z</time>
      </trkpt>
      <trkpt lat="49.12119" lon="-0.05857">
        <ele>9.7</ele>
        <time>2023-10-15T07:39:10Z</time>
      </trkpt>
      <trkpt lat="49.12122" lon="-0.05844">
        <ele>9.6</ele>
        <time>2023-10-15T07:39:11Z</time>
      </trkpt>
      <trkpt lat="49.12124" lon="-0.05832">
        <ele>9.6</ele>
        <time>2023-10-15T07:39:12Z</time>
      </trkpt>
      <trkpt lat="49.12127" lon="-0.05819">
        <ele>9.6</ele>
        <time>2023-10-15T07:39:13Z</time>
      </trkpt>
      <trkpt lat="49.1213" lon="-0.05807">
        <ele>9.6</ele>
        <time>2023-10-15T07:39:14Z</time>
      </trkpt>
      <trkpt lat="49.12133" lon="-0.05795">
        <ele>9.6</ele>
        <time>2023-10-15T07:39:15Z</time>
      </trkpt>
      <trkpt lat="49.12136" lon="-0.05782">
        <ele>9.6</ele>
        <time>2023-10-15T07:39:16Z</time>
      </trkpt>
      <trkpt lat="49.12139" lon="-0.05769">
        <ele>9.5</ele>
        <time>2023-10-15T07:39:17Z</time>
      </trkpt>
      <trkpt lat="49.12141" lon="-0.05757">
        <ele>9.4</ele>
        <time>2023-10-15T07:39:18Z</time>
      </trkpt>
      <trkpt lat="49.12144" lon="-0.05744">
        <ele>9.3</ele>
        <time>2023-10-15T07:39:19Z</time>
      </trkpt>
      <trkpt lat="49.12147" lon="-0.05731">
        <ele>9.3</ele>
        <time>2023-10-15T07:39:20Z</time>
      </trkpt>
      <trkpt lat="49.1215" lon="-0.05718">
        <ele>9.2</ele>
        <time>2023-10-15T07:39:21Z</time>
      </trkpt>
      <trkpt lat="49.12153" lon="-0.05704">
        <ele>9.2</ele>
        <time>2023-10-15T07:39:22Z</time>
      </trkpt>
      <trkpt lat="49.12156" lon="-0.0569">
        <ele>9.1</ele>
        <time>2023-10-15T07:39:23Z</time>
      </trkpt>
      <trkpt lat="49.12158" lon="-0.05677">
        <ele>9</ele>
        <time>2023-10-15T07:39:24Z</time>
      </trkpt>
      <trkpt lat="49.12162" lon="-0.05663">
        <ele>9</ele>
        <time>2023-10-15T07:39:25Z</time>
      </trkpt>
      <trkpt lat="49.12165" lon="-0.0565">
        <ele>8.9</ele>
        <time>2023-10-15T07:39:26Z</time>
      </trkpt>
      <trkpt lat="49.12168" lon="-0.05637">
        <ele>8.9</ele>
        <time>2023-10-15T07:39:27Z</time>
      </trkpt>
      <trkpt lat="49.12171" lon="-0.05623">
        <ele>8.8</ele>
        <time>2023-10-15T07:39:28Z</time>
      </trkpt>
      <trkpt lat="49.12174" lon="-0.0561">
        <ele>8.7</ele>
        <time>2023-10-15T07:39:29Z</time>
      </trkpt>
      <trkpt lat="49.12177" lon="-0.05598">
        <ele>8.7</ele>
        <time>2023-10-15T07:39:30Z</time>
      </trkpt>
      <trkpt lat="49.1218" lon="-0.05585">
        <ele>8.6</ele>
        <time>2023-10-15T07:39:31Z</time>
      </trkpt>
      <trkpt lat="49.12182" lon="-0.05572">
        <ele>8.6</ele>
        <time>2023-10-15T07:39:32Z</time>
      </trkpt>
      <trkpt lat="49.12185" lon="-0.05559">
        <ele>8.5</ele>
        <time>2023-10-15T07:39:33Z</time>
      </trkpt>
      <trkpt lat="49.12188" lon="-0.05546">
        <ele>8.5</ele>
        <time>2023-10-15T07:39:34Z</time>
      </trkpt>
      <trkpt lat="49.12191" lon="-0.05533">
        <ele>8.4</ele>
        <time>2023-10-15T07:39:35Z</time>
      </trkpt>
      <trkpt lat="49.12194" lon="-0.0552">
        <ele>8.4</ele>
        <time>2023-10-15T07:39:36Z</time>
      </trkpt>
      <trkpt lat="49.12196" lon="-0.05507">
        <ele>8.3</ele>
        <time>2023-10-15T07:39:37Z</time>
      </trkpt>
      <trkpt lat="49.12199" lon="-0.05494">
        <ele>8.3</ele>
        <time>2023-10-15T07:39:38Z</time>
      </trkpt>
      <trkpt lat="49.12202" lon="-0.05481">
        <ele>8.3</ele>
        <time>2023-10-15T07:39:39Z</time>
      </trkpt>
      <trkpt lat="49.12205" lon="-0.05468">
        <ele>8.3</ele>
        <time>2023-10-15T07:39:40Z</time>
      </trkpt>
      <trkpt lat="49.12207" lon="-0.05456">
        <ele>8.2</ele>
        <time>2023-10-15T07:39:41Z</time>
      </trkpt>
      <trkpt lat="49.1221" lon="-0.05443">
        <ele>8.2</ele>
        <time>2023-10-15T07:39:42Z</time>
      </trkpt>
      <trkpt lat="49.12213" lon="-0.05431">
        <ele>8.2</ele>
        <time>2023-10-15T07:39:43Z</time>
      </trkpt>
      <trkpt lat="49.12217" lon="-0.05418">
        <ele>8.2</ele>
        <time>2023-10-15T07:39:44Z</time>
      </trkpt>
      <trkpt lat="49.12221" lon="-0.05406">
        <ele>8.2</ele>
        <time>2023-10-15T07:39:45Z</time>
      </trkpt>
      <trkpt lat="49.12224" lon="-0.05394">
        <ele>8.2</ele>
        <time>2023-10-15T07:39:46Z</time>
      </trkpt>
      <trkpt lat="49.12228" lon="-0.05382">
        <ele>8.2</ele>
        <time>2023-10-15T07:39:47Z</time>
      </trkpt>
      <trkpt lat="49.12231" lon="-0.0537">
        <ele>8.1</ele>
        <time>2023-10-15T07:39:48Z</time>
      </trkpt>
      <trkpt lat="49.12235" lon="-0.05359">
        <ele>8.1</ele>
        <time>2023-10-15T07:39:49Z</time>
      </trkpt>
      <trkpt lat="49.12239" lon="-0.05349">
        <ele>8.1</ele>
        <time>2023-10-15T07:39:50Z</time>
      </trkpt>
      <trkpt lat="49.12244" lon="-0.05338">
        <ele>8.1</ele>
        <time>2023-10-15T07:39:51Z</time>
      </trkpt>
      <trkpt lat="49.12248" lon="-0.05327">
        <ele>8.1</ele>
        <time>2023-10-15T07:39:52Z</time>
      </trkpt>
      <trkpt lat="49.12252" lon="-0.05316">
        <ele>8.1</ele>
        <time>2023-10-15T07:39:53Z</time>
      </trkpt>
      <trkpt lat="49.12257" lon="-0.05306">
        <ele>8.1</ele>
        <time>2023-10-15T07:39:54Z</time>
      </trkpt>
      <trkpt lat="49.12261" lon="-0.05296">
        <ele>8.1</ele>
        <time>2023-10-15T07:39:55Z</time>
      </trkpt>
      <trkpt lat="49.12265" lon="-0.05287">
        <ele>8.1</ele>
        <time>2023-10-15T07:39:56Z</time>
      </trkpt>
      <trkpt lat="49.12269" lon="-0.05278">
        <ele>8.1</ele>
        <time>2023-10-15T07:39:57Z</time>
      </trkpt>
      <trkpt lat="49.12273" lon="-0.05269">
        <ele>8.2</ele>
        <time>2023-10-15T07:39:58Z</time>
      </trkpt>
      <trkpt lat="49.12277" lon="-0.0526">
        <ele>8.2</ele>
        <time>2023-10-15T07:39:59Z</time>
      </trkpt>
      <trkpt lat="49.12281" lon="-0.05251">
        <ele>8.3</ele>
        <time>2023-10-15T07:40:00Z</time>
      </trkpt>
      <trkpt lat="49.12285" lon="-0.05243">
        <ele>8.3</ele>
        <time>2023-10-15T07:40:01Z</time>
      </trkpt>
      <trkpt lat="49.12288" lon="-0.05236">
        <ele>8.4</ele>
        <time>2023-10-15T07:40:02Z</time>
      </trkpt>
      <trkpt lat="49.12292" lon="-0.0523">
        <ele>8.4</ele>
        <time>2023-10-15T07:40:03Z</time>
      </trkpt>
      <trkpt lat="49.12295" lon="-0.05223">
        <ele>8.5</ele>
        <time>2023-10-15T07:40:04Z</time>
      </trkpt>
      <trkpt lat="49.12297" lon="-0.05216">
        <ele>8.5</ele>
        <time>2023-10-15T07:40:05Z</time>
      </trkpt>
      <trkpt lat="49.12299" lon="-0.05209">
        <ele>8.6</ele>
        <time>2023-10-15T07:40:06Z</time>
      </trkpt>
      <trkpt lat="49.12299" lon="-0.05202">
        <ele>8.7</ele>
        <time>2023-10-15T07:40:07Z</time>
      </trkpt>
      <trkpt lat="49.12298" lon="-0.05196">
        <ele>8.6</ele>
        <time>2023-10-15T07:40:08Z</time>
      </trkpt>
      <trkpt lat="49.12296" lon="-0.0519">
        <ele>8.6</ele>
        <time>2023-10-15T07:40:09Z</time>
      </trkpt>
      <trkpt lat="49.12294" lon="-0.05186">
        <ele>8.5</ele>
        <time>2023-10-15T07:40:10Z</time>
      </trkpt>
      <trkpt lat="49.12291" lon="-0.05183">
        <ele>8.5</ele>
        <time>2023-10-15T07:40:11Z</time>
      </trkpt>
      <trkpt lat="49.12288" lon="-0.0518">
        <ele>8.4</ele>
        <time>2023-10-15T07:40:12Z</time>
      </trkpt>
      <trkpt lat="49.12285" lon="-0.05176">
        <ele>8.4</ele>
        <time>2023-10-15T07:40:13Z</time>
      </trkpt>
      <trkpt lat="49.12283" lon="-0.05171">
        <ele>8.3</ele>
        <time>2023-10-15T07:40:14Z</time>
      </trkpt>
      <trkpt lat="49.12283" lon="-0.05163">
        <ele>8.3</ele>
        <time>2023-10-15T07:40:15Z</time>
      </trkpt>
      <trkpt lat="49.12284" lon="-0.05155">
        <ele>8.3</ele>
        <time>2023-10-15T07:40:16Z</time>
      </trkpt>
      <trkpt lat="49.12286" lon="-0.05147">
        <ele>8.2</ele>
        <time>2023-10-15T07:40:17Z</time>
      </trkpt>
      <trkpt lat="49.12288" lon="-0.05138">
        <ele>8.1</ele>
        <time>2023-10-15T07:40:18Z</time>
      </trkpt>
      <trkpt lat="49.1229" lon="-0.05129">
        <ele>8.1</ele>
        <time>2023-10-15T07:40:19Z</time>
      </trkpt>
      <trkpt lat="49.12291" lon="-0.05119">
        <ele>8</ele>
        <time>2023-10-15T07:40:20Z</time>
      </trkpt>
      <trkpt lat="49.12293" lon="-0.05109">
        <ele>7.9</ele>
        <time>2023-10-15T07:40:21Z</time>
      </trkpt>
      <trkpt lat="49.12295" lon="-0.05099">
        <ele>7.8</ele>
        <time>2023-10-15T07:40:22Z</time>
      </trkpt>
      <trkpt lat="49.12297" lon="-0.05088">
        <ele>7.8</ele>
        <time>2023-10-15T07:40:23Z</time>
      </trkpt>
      <trkpt lat="49.12299" lon="-0.05077">
        <ele>7.8</ele>
        <time>2023-10-15T07:40:24Z</time>
      </trkpt>
      <trkpt lat="49.12301" lon="-0.05066">
        <ele>7.7</ele>
        <time>2023-10-15T07:40:25Z</time>
      </trkpt>
      <trkpt lat="49.12303" lon="-0.05055">
        <ele>7.7</ele>
        <time>2023-10-15T07:40:26Z</time>
      </trkpt>
      <trkpt lat="49.12306" lon="-0.05044">
        <ele>7.7</ele>
        <time>2023-10-15T07:40:27Z</time>
      </trkpt>
      <trkpt lat="49.12308" lon="-0.05033">
        <ele>7.7</ele>
        <time>2023-10-15T07:40:28Z</time>
      </trkpt>
      <trkpt lat="49.1231" lon="-0.05023">
        <ele>7.6</ele>
        <time>2023-10-15T07:40:29Z</time>
      </trkpt>
      <trkpt lat="49.12312" lon="-0.05012">
        <ele>7.6</ele>
        <time>2023-10-15T07:40:30Z</time>
      </trkpt>
      <trkpt lat="49.12314" lon="-0.05002">
        <ele>7.6</ele>
        <time>2023-10-15T07:40:31Z</time>
      </trkpt>
      <trkpt lat="49.12316" lon="-0.04992">
        <ele>7.6</ele>
        <time>2023-10-15T07:40:32Z</time>
      </trkpt>
      <trkpt lat="49.12318" lon="-0.04981">
        <ele>7.6</ele>
        <time>2023-10-15T07:40:33Z</time>
      </trkpt>
      <trkpt lat="49.12321" lon="-0.0497">
        <ele>7.5</ele>
        <time>2023-10-15T07:40:34Z</time>
      </trkpt>
      <trkpt lat="49.12323" lon="-0.04959">
        <ele>7.5</ele>
        <time>2023-10-15T07:40:35Z</time>
      </trkpt>
      <trkpt lat="49.12325" lon="-0.04949">
        <ele>7.4</ele>
        <time>2023-10-15T07:40:36Z</time>
      </trkpt>
      <trkpt lat="49.12328" lon="-0.04938">
        <ele>7.4</ele>
        <time>2023-10-15T07:40:37Z</time>
      </trkpt>
      <trkpt lat="49.1233" lon="-0.04927">
        <ele>7.4</ele>
        <time>2023-10-15T07:40:38Z</time>
      </trkpt>
      <trkpt lat="49.12332" lon="-0.04916">
        <ele>7.3</ele>
        <time>2023-10-15T07:40:39Z</time>
      </trkpt>
      <trkpt lat="49.12335" lon="-0.04905">
        <ele>7.3</ele>
        <time>2023-10-15T07:40:40Z</time>
      </trkpt>
      <trkpt lat="49.12337" lon="-0.04894">
        <ele>7.3</ele>
        <time>2023-10-15T07:40:41Z</time>
      </trkpt>
      <trkpt lat="49.1234" lon="-0.04883">
        <ele>7.3</ele>
        <time>2023-10-15T07:40:42Z</time>
      </trkpt>
      <trkpt lat="49.12342" lon="-0.04872">
        <ele>7.2</ele>
        <time>2023-10-15T07:40:43Z</time>
      </trkpt>
      <trkpt lat="49.12344" lon="-0.0486">
        <ele>7.2</ele>
        <time>2023-10-15T07:40:44Z</time>
      </trkpt>
      <trkpt lat="49.12346" lon="-0.04849">
        <ele>7.2</ele>
        <time>2023-10-15T07:40:45Z</time>
      </trkpt>
      <trkpt lat="49.12347" lon="-0.04837">
        <ele>7.2</ele>
        <time>2023-10-15T07:40:46Z</time>
      </trkpt>
      <trkpt lat="49.12349" lon="-0.04826">
        <ele>7.2</ele>
        <time>2023-10-15T07:40:47Z</time>
      </trkpt>
      <trkpt lat="49.1235" lon="-0.04814">
        <ele>7.2</ele>
        <time>2023-10-15T07:40:48Z</time>
      </trkpt>
      <trkpt lat="49.1235" lon="-0.04802">
        <ele>7.2</ele>
        <time>2023-10-15T07:40:49Z</time>
      </trkpt>
      <trkpt lat="49.1235" lon="-0.04791">
        <ele>7.2</ele>
        <time>2023-10-15T07:40:50Z</time>
      </trkpt>
      <trkpt lat="49.12351" lon="-0.04778">
        <ele>7.2</ele>
        <time>2023-10-15T07:40:51Z</time>
      </trkpt>
      <trkpt lat="49.12353" lon="-0.04766">
        <ele>7.2</ele>
        <time>2023-10-15T07:40:52Z</time>
      </trkpt>
      <trkpt lat="49.12355" lon="-0.04754">
        <ele>7.2</ele>
        <time>2023-10-15T07:40:53Z</time>
      </trkpt>
      <trkpt lat="49.12358" lon="-0.04743">
        <ele>7.2</ele>
        <time>2023-10-15T07:40:54Z</time>
      </trkpt>
      <trkpt lat="49.12361" lon="-0.04731">
        <ele>7.2</ele>
        <time>2023-10-15T07:40:55Z</time>
      </trkpt>
      <trkpt lat="49.12365" lon="-0.0472">
        <ele>7.2</ele>
        <time>2023-10-15T07:40:56Z</time>
      </trkpt>
      <trkpt lat="49.12368" lon="-0.04709">
        <ele>7.2</ele>
        <time>2023-10-15T07:40:57Z</time>
      </trkpt>
      <trkpt lat="49.12372" lon="-0.04698">
        <ele>7.2</ele>
        <time>2023-10-15T07:40:58Z</time>
      </trkpt>
      <trkpt lat="49.12376" lon="-0.04687">
        <ele>7.2</ele>
        <time>2023-10-15T07:40:59Z</time>
      </trkpt>
      <trkpt lat="49.1238" lon="-0.04676">
        <ele>7.2</ele>
        <time>2023-10-15T07:41:00Z</time>
      </trkpt>
      <trkpt lat="49.12384" lon="-0.04666">
        <ele>7.2</ele>
        <time>2023-10-15T07:41:01Z</time>
      </trkpt>
      <trkpt lat="49.12388" lon="-0.04656">
        <ele>7.2</ele>
        <time>2023-10-15T07:41:02Z</time>
      </trkpt>
      <trkpt lat="49.12392" lon="-0.04645">
        <ele>7.2</ele>
        <time>2023-10-15T07:41:03Z</time>
      </trkpt>
      <trkpt lat="49.12395" lon="-0.04635">
        <ele>7.2</ele>
        <time>2023-10-15T07:41:04Z</time>
      </trkpt>
      <trkpt lat="49.12399" lon="-0.04624">
        <ele>7.3</ele>
        <time>2023-10-15T07:41:05Z</time>
      </trkpt>
      <trkpt lat="49.12403" lon="-0.04614">
        <ele>7.3</ele>
        <time>2023-10-15T07:41:06Z</time>
      </trkpt>
      <trkpt lat="49.12407" lon="-0.04603">
        <ele>7.2</ele>
        <time>2023-10-15T07:41:07Z</time>
      </trkpt>
      <trkpt lat="49.12411" lon="-0.04593">
        <ele>7.2</ele>
        <time>2023-10-15T07:41:08Z</time>
      </trkpt>
      <trkpt lat="49.12415" lon="-0.04582">
        <ele>7.2</ele>
        <time>2023-10-15T07:41:09Z</time>
      </trkpt>
      <trkpt lat="49.12419" lon="-0.04571">
        <ele>7.2</ele>
        <time>2023-10-15T07:41:10Z</time>
      </trkpt>
      <trkpt lat="49.12423" lon="-0.0456">
        <ele>7.2</ele>
        <time>2023-10-15T07:41:11Z</time>
      </trkpt>
      <trkpt lat="49.12427" lon="-0.04549">
        <ele>7.2</ele>
        <time>2023-10-15T07:41:12Z</time>
      </trkpt>
      <trkpt lat="49.12431" lon="-0.04538">
        <ele>7.2</ele>
        <time>2023-10-15T07:41:13Z</time>
      </trkpt>
      <trkpt lat="49.12435" lon="-0.04526">
        <ele>7.2</ele>
        <time>2023-10-15T07:41:14Z</time>
      </trkpt>
      <trkpt lat="49.12439" lon="-0.04514">
        <ele>7.2</ele>
        <time>2023-10-15T07:41:15Z</time>
      </trkpt>
      <trkpt lat="49.12443" lon="-0.04502">
        <ele>7.2</ele>
        <time>2023-10-15T07:41:16Z</time>
      </trkpt>
      <trkpt lat="49.12447" lon="-0.04491">
        <ele>7.2</ele>
        <time>2023-10-15T07:41:17Z</time>
      </trkpt>
      <trkpt lat="49.12451" lon="-0.04479">
        <ele>7.2</ele>
        <time>2023-10-15T07:41:18Z</time>
      </trkpt>
      <trkpt lat="49.12454" lon="-0.04467">
        <ele>7.2</ele>
        <time>2023-10-15T07:41:19Z</time>
      </trkpt>
      <trkpt lat="49.12458" lon="-0.04456">
        <ele>7.1</ele>
        <time>2023-10-15T07:41:20Z</time>
      </trkpt>
      <trkpt lat="49.12462" lon="-0.04445">
        <ele>7.1</ele>
        <time>2023-10-15T07:41:21Z</time>
      </trkpt>
      <trkpt lat="49.12466" lon="-0.04434">
        <ele>7.1</ele>
        <time>2023-10-15T07:41:22Z</time>
      </trkpt>
      <trkpt lat="49.1247" lon="-0.04423">
        <ele>7.1</ele>
        <time>2023-10-15T07:41:23Z</time>
      </trkpt>
      <trkpt lat="49.12474" lon="-0.04412">
        <ele>7.1</ele>
        <time>2023-10-15T07:41:24Z</time>
      </trkpt>
      <trkpt lat="49.12477" lon="-0.044">
        <ele>7.1</ele>
        <time>2023-10-15T07:41:25Z</time>
      </trkpt>
      <trkpt lat="49.12481" lon="-0.04389">
        <ele>7.1</ele>
        <time>2023-10-15T07:41:26Z</time>
      </trkpt>
      <trkpt lat="49.12484" lon="-0.04376">
        <ele>7.1</ele>
        <time>2023-10-15T07:41:27Z</time>
      </trkpt>
      <trkpt lat="49.12487" lon="-0.04365">
        <ele>7.1</ele>
        <time>2023-10-15T07:41:28Z</time>
      </trkpt>
      <trkpt lat="49.12491" lon="-0.04353">
        <ele>7.1</ele>
        <time>2023-10-15T07:41:29Z</time>
      </trkpt>
      <trkpt lat="49.12494" lon="-0.04342">
        <ele>7.1</ele>
        <time>2023-10-15T07:41:30Z</time>
      </trkpt>
      <trkpt lat="49.12497" lon="-0.04329">
        <ele>7.1</ele>
        <time>2023-10-15T07:41:31Z</time>
      </trkpt>
      <trkpt lat="49.125" lon="-0.04317">
        <ele>7.1</ele>
        <time>2023-10-15T07:41:32Z</time>
      </trkpt>
      <trkpt lat="49.12502" lon="-0.04304">
        <ele>7.1</ele>
        <time>2023-10-15T07:41:33Z</time>
      </trkpt>
      <trkpt lat="49.12505" lon="-0.04292">
        <ele>7.1</ele>
        <time>2023-10-15T07:41:34Z</time>
      </trkpt>
      <trkpt lat="49.12507" lon="-0.0428">
        <ele>7.1</ele>
        <time>2023-10-15T07:41:35Z</time>
      </trkpt>
      <trkpt lat="49.12509" lon="-0.04268">
        <ele>7.1</ele>
        <time>2023-10-15T07:41:36Z</time>
      </trkpt>
      <trkpt lat="49.12512" lon="-0.04255">
        <ele>7.1</ele>
        <time>2023-10-15T07:41:37Z</time>
      </trkpt>
      <trkpt lat="49.12514" lon="-0.04243">
        <ele>7.1</ele>
        <time>2023-10-15T07:41:38Z</time>
      </trkpt>
      <trkpt lat="49.12516" lon="-0.04232">
        <ele>7.1</ele>
        <time>2023-10-15T07:41:39Z</time>
      </trkpt>
      <trkpt lat="49.12518" lon="-0.0422">
        <ele>7.2</ele>
        <time>2023-10-15T07:41:40Z</time>
      </trkpt>
      <trkpt lat="49.1252" lon="-0.04209">
        <ele>7.2</ele>
        <time>2023-10-15T07:41:41Z</time>
      </trkpt>
      <trkpt lat="49.12522" lon="-0.04198">
        <ele>7.3</ele>
        <time>2023-10-15T07:41:42Z</time>
      </trkpt>
      <trkpt lat="49.12524" lon="-0.04187">
        <ele>7.3</ele>
        <time>2023-10-15T07:41:43Z</time>
      </trkpt>
      <trkpt lat="49.12527" lon="-0.04176">
        <ele>7.4</ele>
        <time>2023-10-15T07:41:44Z</time>
      </trkpt>
      <trkpt lat="49.12531" lon="-0.04165">
        <ele>7.5</ele>
        <time>2023-10-15T07:41:45Z</time>
      </trkpt>
      <trkpt lat="49.12535" lon="-0.04154">
        <ele>7.6</ele>
        <time>2023-10-15T07:41:46Z</time>
      </trkpt>
      <trkpt lat="49.12539" lon="-0.04144">
        <ele>7.6</ele>
        <time>2023-10-15T07:41:47Z</time>
      </trkpt>
      <trkpt lat="49.12543" lon="-0.04134">
        <ele>7.7</ele>
        <time>2023-10-15T07:41:48Z</time>
      </trkpt>
      <trkpt lat="49.12548" lon="-0.04123">
        <ele>7.8</ele>
        <time>2023-10-15T07:41:49Z</time>
      </trkpt>
      <trkpt lat="49.12552" lon="-0.04113">
        <ele>7.8</ele>
        <time>2023-10-15T07:41:50Z</time>
      </trkpt>
      <trkpt lat="49.12557" lon="-0.04102">
        <ele>7.9</ele>
        <time>2023-10-15T07:41:51Z</time>
      </trkpt>
      <trkpt lat="49.12561" lon="-0.04092">
        <ele>7.9</ele>
        <time>2023-10-15T07:41:52Z</time>
      </trkpt>
      <trkpt lat="49.12566" lon="-0.04081">
        <ele>8</ele>
        <time>2023-10-15T07:41:53Z</time>
      </trkpt>
      <trkpt lat="49.12571" lon="-0.04071">
        <ele>8</ele>
        <time>2023-10-15T07:41:54Z</time>
      </trkpt>
      <trkpt lat="49.12575" lon="-0.04062">
        <ele>8</ele>
        <time>2023-10-15T07:41:55Z</time>
      </trkpt>
      <trkpt lat="49.12579" lon="-0.04053">
        <ele>8.1</ele>
        <time>2023-10-15T07:41:56Z</time>
      </trkpt>
      <trkpt lat="49.12582" lon="-0.04045">
        <ele>8.1</ele>
        <time>2023-10-15T07:41:57Z</time>
      </trkpt>
      <trkpt lat="49.12585" lon="-0.04038">
        <ele>8.1</ele>
        <time>2023-10-15T07:41:58Z</time>
      </trkpt>
      <trkpt lat="49.12588" lon="-0.04031">
        <ele>8.2</ele>
        <time>2023-10-15T07:41:59Z</time>
      </trkpt>
      <trkpt lat="49.12591" lon="-0.04024">
        <ele>8.2</ele>
        <time>2023-10-15T07:42:00Z</time>
      </trkpt>
      <trkpt lat="49.12593" lon="-0.04018">
        <ele>8.2</ele>
        <time>2023-10-15T07:42:01Z</time>
      </trkpt>
      <trkpt lat="49.12595" lon="-0.04013">
        <ele>8.3</ele>
        <time>2023-10-15T07:42:02Z</time>
      </trkpt>
      <trkpt lat="49.12597" lon="-0.04009">
        <ele>8.3</ele>
        <time>2023-10-15T07:42:03Z</time>
      </trkpt>
      <trkpt lat="49.12599" lon="-0.04005">
        <ele>8.4</ele>
        <time>2023-10-15T07:42:04Z</time>
      </trkpt>
      <trkpt lat="49.12599" lon="-0.04003">
        <ele>8.4</ele>
        <time>2023-10-15T07:42:05Z</time>
      </trkpt>
      <trkpt lat="49.12601" lon="-0.03999">
        <ele>8.4</ele>
        <time>2023-10-15T07:42:06Z</time>
      </trkpt>
      <trkpt lat="49.12601" lon="-0.03997">
        <ele>8.4</ele>
        <time>2023-10-15T07:42:07Z</time>
      </trkpt>
      <trkpt lat="49.12602" lon="-0.03993">
        <ele>8.5</ele>
        <time>2023-10-15T07:42:08Z</time>
      </trkpt>
      <trkpt lat="49.12602" lon="-0.03989">
        <ele>8.5</ele>
        <time>2023-10-15T07:42:09Z</time>
      </trkpt>
      <trkpt lat="49.12602" lon="-0.03985">
        <ele>8.6</ele>
        <time>2023-10-15T07:42:10Z</time>
      </trkpt>
      <trkpt lat="49.12602" lon="-0.03979">
        <ele>8.6</ele>
        <time>2023-10-15T07:42:11Z</time>
      </trkpt>
      <trkpt lat="49.12603" lon="-0.03972">
        <ele>8.6</ele>
        <time>2023-10-15T07:42:12Z</time>
      </trkpt>
      <trkpt lat="49.12604" lon="-0.03964">
        <ele>8.6</ele>
        <time>2023-10-15T07:42:13Z</time>
      </trkpt>
      <trkpt lat="49.12606" lon="-0.03955">
        <ele>8.5</ele>
        <time>2023-10-15T07:42:14Z</time>
      </trkpt>
      <trkpt lat="49.12608" lon="-0.03945">
        <ele>8.5</ele>
        <time>2023-10-15T07:42:15Z</time>
      </trkpt>
      <trkpt lat="49.12609" lon="-0.03937">
        <ele>8.5</ele>
        <time>2023-10-15T07:42:16Z</time>
      </trkpt>
      <trkpt lat="49.12611" lon="-0.03928">
        <ele>8.6</ele>
        <time>2023-10-15T07:42:17Z</time>
      </trkpt>
      <trkpt lat="49.12613" lon="-0.03919">
        <ele>8.6</ele>
        <time>2023-10-15T07:42:18Z</time>
      </trkpt>
      <trkpt lat="49.12615" lon="-0.03909">
        <ele>8.6</ele>
        <time>2023-10-15T07:42:19Z</time>
      </trkpt>
      <trkpt lat="49.12617" lon="-0.03899">
        <ele>8.6</ele>
        <time>2023-10-15T07:42:20Z</time>
      </trkpt>
      <trkpt lat="49.12619" lon="-0.03889">
        <ele>8.7</ele>
        <time>2023-10-15T07:42:21Z</time>
      </trkpt>
      <trkpt lat="49.12621" lon="-0.03879">
        <ele>8.7</ele>
        <time>2023-10-15T07:42:22Z</time>
      </trkpt>
      <trkpt lat="49.12624" lon="-0.03869">
        <ele>8.8</ele>
        <time>2023-10-15T07:42:23Z</time>
      </trkpt>
      <trkpt lat="49.12626" lon="-0.03858">
        <ele>8.8</ele>
        <time>2023-10-15T07:42:24Z</time>
      </trkpt>
      <trkpt lat="49.12628" lon="-0.03846">
        <ele>8.8</ele>
        <time>2023-10-15T07:42:25Z</time>
      </trkpt>
      <trkpt lat="49.12629" lon="-0.03834">
        <ele>8.8</ele>
        <time>2023-10-15T07:42:26Z</time>
      </trkpt>
      <trkpt lat="49.1263" lon="-0.03822">
        <ele>8.8</ele>
        <time>2023-10-15T07:42:27Z</time>
      </trkpt>
      <trkpt lat="49.1263" lon="-0.0381">
        <ele>8.8</ele>
        <time>2023-10-15T07:42:28Z</time>
      </trkpt>
      <trkpt lat="49.12629" lon="-0.03797">
        <ele>8.8</ele>
        <time>2023-10-15T07:42:29Z</time>
      </trkpt>
      <trkpt lat="49.12627" lon="-0.03784">
        <ele>8.7</ele>
        <time>2023-10-15T07:42:30Z</time>
      </trkpt>
      <trkpt lat="49.12626" lon="-0.03771">
        <ele>8.7</ele>
        <time>2023-10-15T07:42:31Z</time>
      </trkpt>
      <trkpt lat="49.12623" lon="-0.03758">
        <ele>8.7</ele>
        <time>2023-10-15T07:42:32Z</time>
      </trkpt>
      <trkpt lat="49.12621" lon="-0.03745">
        <ele>8.7</ele>
        <time>2023-10-15T07:42:33Z</time>
      </trkpt>
      <trkpt lat="49.12618" lon="-0.03733">
        <ele>8.7</ele>
        <time>2023-10-15T07:42:34Z</time>
      </trkpt>
      <trkpt lat="49.12615" lon="-0.0372">
        <ele>8.7</ele>
        <time>2023-10-15T07:42:35Z</time>
      </trkpt>
      <trkpt lat="49.12612" lon="-0.03707">
        <ele>8.7</ele>
        <time>2023-10-15T07:42:36Z</time>
      </trkpt>
      <trkpt lat="49.12609" lon="-0.03694">
        <ele>8.6</ele>
        <time>2023-10-15T07:42:37Z</time>
      </trkpt>
      <trkpt lat="49.12606" lon="-0.03681">
        <ele>8.6</ele>
        <time>2023-10-15T07:42:38Z</time>
      </trkpt>
      <trkpt lat="49.12603" lon="-0.03668">
        <ele>8.5</ele>
        <time>2023-10-15T07:42:39Z</time>
      </trkpt>
      <trkpt lat="49.126" lon="-0.03655">
        <ele>8.5</ele>
        <time>2023-10-15T07:42:40Z</time>
      </trkpt>
      <trkpt lat="49.12598" lon="-0.03642">
        <ele>8.4</ele>
        <time>2023-10-15T07:42:41Z</time>
      </trkpt>
      <trkpt lat="49.12595" lon="-0.03628">
        <ele>8.4</ele>
        <time>2023-10-15T07:42:42Z</time>
      </trkpt>
      <trkpt lat="49.12592" lon="-0.03615">
        <ele>8.3</ele>
        <time>2023-10-15T07:42:43Z</time>
      </trkpt>
      <trkpt lat="49.12589" lon="-0.03601">
        <ele>8.3</ele>
        <time>2023-10-15T07:42:44Z</time>
      </trkpt>
      <trkpt lat="49.12586" lon="-0.03588">
        <ele>8.3</ele>
        <time>2023-10-15T07:42:45Z</time>
      </trkpt>
      <trkpt lat="49.12583" lon="-0.03574">
        <ele>8.3</ele>
        <time>2023-10-15T07:42:46Z</time>
      </trkpt>
      <trkpt lat="49.1258" lon="-0.03561">
        <ele>8.2</ele>
        <time>2023-10-15T07:42:47Z</time>
      </trkpt>
      <trkpt lat="49.12577" lon="-0.03548">
        <ele>8.2</ele>
        <time>2023-10-15T07:42:48Z</time>
      </trkpt>
      <trkpt lat="49.12574" lon="-0.03534">
        <ele>8.2</ele>
        <time>2023-10-15T07:42:49Z</time>
      </trkpt>
      <trkpt lat="49.12571" lon="-0.03521">
        <ele>8.1</ele>
        <time>2023-10-15T07:42:50Z</time>
      </trkpt>
      <trkpt lat="49.12568" lon="-0.03509">
        <ele>8.1</ele>
        <time>2023-10-15T07:42:51Z</time>
      </trkpt>
      <trkpt lat="49.12565" lon="-0.03496">
        <ele>8.1</ele>
        <time>2023-10-15T07:42:52Z</time>
      </trkpt>
      <trkpt lat="49.12563" lon="-0.03483">
        <ele>8.1</ele>
        <time>2023-10-15T07:42:53Z</time>
      </trkpt>
      <trkpt lat="49.1256" lon="-0.03471">
        <ele>8.1</ele>
        <time>2023-10-15T07:42:54Z</time>
      </trkpt>
      <trkpt lat="49.12558" lon="-0.03458">
        <ele>8.1</ele>
        <time>2023-10-15T07:42:55Z</time>
      </trkpt>
      <trkpt lat="49.12556" lon="-0.03445">
        <ele>8.1</ele>
        <time>2023-10-15T07:42:56Z</time>
      </trkpt>
      <trkpt lat="49.12553" lon="-0.03432">
        <ele>8</ele>
        <time>2023-10-15T07:42:57Z</time>
      </trkpt>
      <trkpt lat="49.12551" lon="-0.03419">
        <ele>8</ele>
        <time>2023-10-15T07:42:58Z</time>
      </trkpt>
      <trkpt lat="49.12548" lon="-0.03406">
        <ele>8</ele>
        <time>2023-10-15T07:42:59Z</time>
      </trkpt>
      <trkpt lat="49.12547" lon="-0.03393">
        <ele>8</ele>
        <time>2023-10-15T07:43:00Z</time>
      </trkpt>
      <trkpt lat="49.12545" lon="-0.0338">
        <ele>8</ele>
        <time>2023-10-15T07:43:01Z</time>
      </trkpt>
      <trkpt lat="49.12544" lon="-0.03367">
        <ele>8</ele>
        <time>2023-10-15T07:43:02Z</time>
      </trkpt>
      <trkpt lat="49.12543" lon="-0.03354">
        <ele>8</ele>
        <time>2023-10-15T07:43:03Z</time>
      </trkpt>
      <trkpt lat="49.12541" lon="-0.03341">
        <ele>8</ele>
        <time>2023-10-15T07:43:04Z</time>
      </trkpt>
      <trkpt lat="49.1254" lon="-0.03329">
        <ele>8</ele>
        <time>2023-10-15T07:43:05Z</time>
      </trkpt>
      <trkpt lat="49.12539" lon="-0.03317">
        <ele>7.9</ele>
        <time>2023-10-15T07:43:06Z</time>
      </trkpt>
      <trkpt lat="49.12539" lon="-0.03304">
        <ele>7.9</ele>
        <time>2023-10-15T07:43:07Z</time>
      </trkpt>
      <trkpt lat="49.12538" lon="-0.03293">
        <ele>7.9</ele>
        <time>2023-10-15T07:43:08Z</time>
      </trkpt>
      <trkpt lat="49.12537" lon="-0.03281">
        <ele>7.9</ele>
        <time>2023-10-15T07:43:09Z</time>
      </trkpt>
      <trkpt lat="49.12536" lon="-0.03269">
        <ele>7.9</ele>
        <time>2023-10-15T07:43:10Z</time>
      </trkpt>
      <trkpt lat="49.12535" lon="-0.03258">
        <ele>7.8</ele>
        <time>2023-10-15T07:43:11Z</time>
      </trkpt>
      <trkpt lat="49.12535" lon="-0.03246">
        <ele>7.8</ele>
        <time>2023-10-15T07:43:12Z</time>
      </trkpt>
      <trkpt lat="49.12535" lon="-0.03233">
        <ele>7.8</ele>
        <time>2023-10-15T07:43:13Z</time>
      </trkpt>
      <trkpt lat="49.12534" lon="-0.03221">
        <ele>7.7</ele>
        <time>2023-10-15T07:43:14Z</time>
      </trkpt>
      <trkpt lat="49.12533" lon="-0.03208">
        <ele>7.7</ele>
        <time>2023-10-15T07:43:15Z</time>
      </trkpt>
      <trkpt lat="49.12533" lon="-0.03194">
        <ele>7.7</ele>
        <time>2023-10-15T07:43:16Z</time>
      </trkpt>
      <trkpt lat="49.12532" lon="-0.03181">
        <ele>7.7</ele>
        <time>2023-10-15T07:43:17Z</time>
      </trkpt>
      <trkpt lat="49.12531" lon="-0.03168">
        <ele>7.7</ele>
        <time>2023-10-15T07:43:18Z</time>
      </trkpt>
      <trkpt lat="49.1253" lon="-0.03155">
        <ele>7.7</ele>
        <time>2023-10-15T07:43:19Z</time>
      </trkpt>
      <trkpt lat="49.1253" lon="-0.03142">
        <ele>7.8</ele>
        <time>2023-10-15T07:43:20Z</time>
      </trkpt>
      <trkpt lat="49.12529" lon="-0.0313">
        <ele>7.8</ele>
        <time>2023-10-15T07:43:21Z</time>
      </trkpt>
      <trkpt lat="49.12528" lon="-0.03118">
        <ele>7.8</ele>
        <time>2023-10-15T07:43:22Z</time>
      </trkpt>
      <trkpt lat="49.12528" lon="-0.03105">
        <ele>7.9</ele>
        <time>2023-10-15T07:43:23Z</time>
      </trkpt>
      <trkpt lat="49.12527" lon="-0.03093">
        <ele>8</ele>
        <time>2023-10-15T07:43:24Z</time>
      </trkpt>
      <trkpt lat="49.12527" lon="-0.03082">
        <ele>8.1</ele>
        <time>2023-10-15T07:43:25Z</time>
      </trkpt>
      <trkpt lat="49.12526" lon="-0.0307">
        <ele>8.2</ele>
        <time>2023-10-15T07:43:26Z</time>
      </trkpt>
      <trkpt lat="49.12526" lon="-0.03059">
        <ele>8.3</ele>
        <time>2023-10-15T07:43:27Z</time>
      </trkpt>
      <trkpt lat="49.12525" lon="-0.03048">
        <ele>8.4</ele>
        <time>2023-10-15T07:43:28Z</time>
      </trkpt>
      <trkpt lat="49.12524" lon="-0.03037">
        <ele>8.4</ele>
        <time>2023-10-15T07:43:29Z</time>
      </trkpt>
      <trkpt lat="49.12524" lon="-0.03026">
        <ele>8.5</ele>
        <time>2023-10-15T07:43:30Z</time>
      </trkpt>
      <trkpt lat="49.12523" lon="-0.03014">
        <ele>8.4</ele>
        <time>2023-10-15T07:43:31Z</time>
      </trkpt>
      <trkpt lat="49.12522" lon="-0.03002">
        <ele>8.3</ele>
        <time>2023-10-15T07:43:32Z</time>
      </trkpt>
      <trkpt lat="49.12522" lon="-0.02989">
        <ele>8.2</ele>
        <time>2023-10-15T07:43:33Z</time>
      </trkpt>
      <trkpt lat="49.12522" lon="-0.02976">
        <ele>8.1</ele>
        <time>2023-10-15T07:43:34Z</time>
      </trkpt>
      <trkpt lat="49.12521" lon="-0.02963">
        <ele>8</ele>
        <time>2023-10-15T07:43:35Z</time>
      </trkpt>
      <trkpt lat="49.12521" lon="-0.0295">
        <ele>7.9</ele>
        <time>2023-10-15T07:43:36Z</time>
      </trkpt>
      <trkpt lat="49.1252" lon="-0.02937">
        <ele>7.9</ele>
        <time>2023-10-15T07:43:37Z</time>
      </trkpt>
      <trkpt lat="49.1252" lon="-0.02923">
        <ele>7.9</ele>
        <time>2023-10-15T07:43:38Z</time>
      </trkpt>
      <trkpt lat="49.12519" lon="-0.0291">
        <ele>7.8</ele>
        <time>2023-10-15T07:43:39Z</time>
      </trkpt>
      <trkpt lat="49.12519" lon="-0.02897">
        <ele>7.8</ele>
        <time>2023-10-15T07:43:40Z</time>
      </trkpt>
      <trkpt lat="49.12518" lon="-0.02884">
        <ele>7.8</ele>
        <time>2023-10-15T07:43:41Z</time>
      </trkpt>
      <trkpt lat="49.12518" lon="-0.02871">
        <ele>7.8</ele>
        <time>2023-10-15T07:43:42Z</time>
      </trkpt>
      <trkpt lat="49.12517" lon="-0.02858">
        <ele>7.8</ele>
        <time>2023-10-15T07:43:43Z</time>
      </trkpt>
      <trkpt lat="49.12516" lon="-0.02845">
        <ele>7.8</ele>
        <time>2023-10-15T07:43:44Z</time>
      </trkpt>
      <trkpt lat="49.12516" lon="-0.02832">
        <ele>7.7</ele>
        <time>2023-10-15T07:43:45Z</time>
      </trkpt>
      <trkpt lat="49.12515" lon="-0.02819">
        <ele>7.7</ele>
        <time>2023-10-15T07:43:46Z</time>
      </trkpt>
      <trkpt lat="49.12515" lon="-0.02805">
        <ele>7.7</ele>
        <time>2023-10-15T07:43:47Z</time>
      </trkpt>
      <trkpt lat="49.12514" lon="-0.02791">
        <ele>7.7</ele>
        <time>2023-10-15T07:43:48Z</time>
      </trkpt>
      <trkpt lat="49.12513" lon="-0.02778">
        <ele>7.7</ele>
        <time>2023-10-15T07:43:49Z</time>
      </trkpt>
      <trkpt lat="49.12513" lon="-0.02764">
        <ele>7.7</ele>
        <time>2023-10-15T07:43:50Z</time>
      </trkpt>
      <trkpt lat="49.12513" lon="-0.02751">
        <ele>7.6</ele>
        <time>2023-10-15T07:43:51Z</time>
      </trkpt>
      <trkpt lat="49.12512" lon="-0.02739">
        <ele>7.6</ele>
        <time>2023-10-15T07:43:52Z</time>
      </trkpt>
      <trkpt lat="49.12512" lon="-0.02727">
        <ele>7.6</ele>
        <time>2023-10-15T07:43:53Z</time>
      </trkpt>
      <trkpt lat="49.12511" lon="-0.02715">
        <ele>7.6</ele>
        <time>2023-10-15T07:43:54Z</time>
      </trkpt>
      <trkpt lat="49.1251" lon="-0.02703">
        <ele>7.6</ele>
        <time>2023-10-15T07:43:55Z</time>
      </trkpt>
      <trkpt lat="49.1251" lon="-0.02692">
        <ele>7.6</ele>
        <time>2023-10-15T07:43:56Z</time>
      </trkpt>
      <trkpt lat="49.12509" lon="-0.0268">
        <ele>7.6</ele>
        <time>2023-10-15T07:43:57Z</time>
      </trkpt>
      <trkpt lat="49.12509" lon="-0.02669">
        <ele>7.6</ele>
        <time>2023-10-15T07:43:58Z</time>
      </trkpt>
      <trkpt lat="49.12508" lon="-0.02658">
        <ele>7.6</ele>
        <time>2023-10-15T07:43:59Z</time>
      </trkpt>
      <trkpt lat="49.12507" lon="-0.02646">
        <ele>7.6</ele>
        <time>2023-10-15T07:44:00Z</time>
      </trkpt>
      <trkpt lat="49.12507" lon="-0.02634">
        <ele>7.6</ele>
        <time>2023-10-15T07:44:01Z</time>
      </trkpt>
      <trkpt lat="49.12506" lon="-0.02622">
        <ele>7.6</ele>
        <time>2023-10-15T07:44:02Z</time>
      </trkpt>
      <trkpt lat="49.12505" lon="-0.0261">
        <ele>7.6</ele>
        <time>2023-10-15T07:44:03Z</time>
      </trkpt>
      <trkpt lat="49.12505" lon="-0.02597">
        <ele>7.6</ele>
        <time>2023-10-15T07:44:04Z</time>
      </trkpt>
      <trkpt lat="49.12504" lon="-0.02584">
        <ele>7.6</ele>
        <time>2023-10-15T07:44:05Z</time>
      </trkpt>
      <trkpt lat="49.12504" lon="-0.02571">
        <ele>7.6</ele>
        <time>2023-10-15T07:44:06Z</time>
      </trkpt>
      <trkpt lat="49.12503" lon="-0.02558">
        <ele>7.7</ele>
        <time>2023-10-15T07:44:07Z</time>
      </trkpt>
      <trkpt lat="49.12503" lon="-0.02546">
        <ele>7.7</ele>
        <time>2023-10-15T07:44:08Z</time>
      </trkpt>
      <trkpt lat="49.12503" lon="-0.02533">
        <ele>7.7</ele>
        <time>2023-10-15T07:44:09Z</time>
      </trkpt>
      <trkpt lat="49.12502" lon="-0.0252">
        <ele>7.7</ele>
        <time>2023-10-15T07:44:10Z</time>
      </trkpt>
      <trkpt lat="49.12501" lon="-0.02507">
        <ele>7.7</ele>
        <time>2023-10-15T07:44:11Z</time>
      </trkpt>
      <trkpt lat="49.125" lon="-0.02494">
        <ele>7.7</ele>
        <time>2023-10-15T07:44:12Z</time>
      </trkpt>
      <trkpt lat="49.125" lon="-0.02482">
        <ele>7.7</ele>
        <time>2023-10-15T07:44:13Z</time>
      </trkpt>
      <trkpt lat="49.125" lon="-0.0247">
        <ele>7.7</ele>
        <time>2023-10-15T07:44:14Z</time>
      </trkpt>
      <trkpt lat="49.12499" lon="-0.02458">
        <ele>7.7</ele>
        <time>2023-10-15T07:44:15Z</time>
      </trkpt>
      <trkpt lat="49.12499" lon="-0.02446">
        <ele>7.8</ele>
        <time>2023-10-15T07:44:16Z</time>
      </trkpt>
      <trkpt lat="49.12499" lon="-0.02435">
        <ele>7.8</ele>
        <time>2023-10-15T07:44:17Z</time>
      </trkpt>
      <trkpt lat="49.12498" lon="-0.02423">
        <ele>7.8</ele>
        <time>2023-10-15T07:44:18Z</time>
      </trkpt>
      <trkpt lat="49.12497" lon="-0.02411">
        <ele>7.8</ele>
        <time>2023-10-15T07:44:19Z</time>
      </trkpt>
      <trkpt lat="49.12497" lon="-0.02399">
        <ele>7.8</ele>
        <time>2023-10-15T07:44:20Z</time>
      </trkpt>
      <trkpt lat="49.12496" lon="-0.02387">
        <ele>7.8</ele>
        <time>2023-10-15T07:44:21Z</time>
      </trkpt>
      <trkpt lat="49.12496" lon="-0.02375">
        <ele>7.8</ele>
        <time>2023-10-15T07:44:22Z</time>
      </trkpt>
      <trkpt lat="49.12495" lon="-0.02364">
        <ele>7.8</ele>
        <time>2023-10-15T07:44:23Z</time>
      </trkpt>
      <trkpt lat="49.12495" lon="-0.02352">
        <ele>7.9</ele>
        <time>2023-10-15T07:44:24Z</time>
      </trkpt>
      <trkpt lat="49.12494" lon="-0.0234">
        <ele>7.9</ele>
        <time>2023-10-15T07:44:25Z</time>
      </trkpt>
      <trkpt lat="49.12494" lon="-0.02328">
        <ele>8</ele>
        <time>2023-10-15T07:44:26Z</time>
      </trkpt>
      <trkpt lat="49.12493" lon="-0.02316">
        <ele>8.1</ele>
        <time>2023-10-15T07:44:27Z</time>
      </trkpt>
      <trkpt lat="49.12492" lon="-0.02303">
        <ele>8.2</ele>
        <time>2023-10-15T07:44:28Z</time>
      </trkpt>
      <trkpt lat="49.12492" lon="-0.02291">
        <ele>8.3</ele>
        <time>2023-10-15T07:44:29Z</time>
      </trkpt>
      <trkpt lat="49.12491" lon="-0.02279">
        <ele>8.3</ele>
        <time>2023-10-15T07:44:30Z</time>
      </trkpt>
      <trkpt lat="49.12491" lon="-0.02266">
        <ele>8.4</ele>
        <time>2023-10-15T07:44:31Z</time>
      </trkpt>
      <trkpt lat="49.1249" lon="-0.02254">
        <ele>8.5</ele>
        <time>2023-10-15T07:44:32Z</time>
      </trkpt>
      <trkpt lat="49.1249" lon="-0.02242">
        <ele>8.5</ele>
        <time>2023-10-15T07:44:33Z</time>
      </trkpt>
      <trkpt lat="49.1249" lon="-0.02232">
        <ele>8.5</ele>
        <time>2023-10-15T07:44:34Z</time>
      </trkpt>
      <trkpt lat="49.12489" lon="-0.02222">
        <ele>8.5</ele>
        <time>2023-10-15T07:44:35Z</time>
      </trkpt>
      <trkpt lat="49.12489" lon="-0.02213">
        <ele>8.4</ele>
        <time>2023-10-15T07:44:36Z</time>
      </trkpt>
      <trkpt lat="49.12489" lon="-0.02203">
        <ele>8.3</ele>
        <time>2023-10-15T07:44:37Z</time>
      </trkpt>
      <trkpt lat="49.1249" lon="-0.02193">
        <ele>8.3</ele>
        <time>2023-10-15T07:44:38Z</time>
      </trkpt>
      <trkpt lat="49.12491" lon="-0.02183">
        <ele>8.2</ele>
        <time>2023-10-15T07:44:39Z</time>
      </trkpt>
      <trkpt lat="49.12491" lon="-0.02174">
        <ele>8.1</ele>
        <time>2023-10-15T07:44:40Z</time>
      </trkpt>
      <trkpt lat="49.12492" lon="-0.02163">
        <ele>8</ele>
        <time>2023-10-15T07:44:41Z</time>
      </trkpt>
      <trkpt lat="49.12494" lon="-0.02153">
        <ele>7.9</ele>
        <time>2023-10-15T07:44:42Z</time>
      </trkpt>
      <trkpt lat="49.12495" lon="-0.02142">
        <ele>7.9</ele>
        <time>2023-10-15T07:44:43Z</time>
      </trkpt>
      <trkpt lat="49.12495" lon="-0.02131">
        <ele>7.8</ele>
        <time>2023-10-15T07:44:44Z</time>
      </trkpt>
      <trkpt lat="49.12496" lon="-0.0212">
        <ele>7.8</ele>
        <time>2023-10-15T07:44:45Z</time>
      </trkpt>
      <trkpt lat="49.12497" lon="-0.02109">
        <ele>7.7</ele>
        <time>2023-10-15T07:44:46Z</time>
      </trkpt>
      <trkpt lat="49.12498" lon="-0.02097">
        <ele>7.7</ele>
        <time>2023-10-15T07:44:47Z</time>
      </trkpt>
      <trkpt lat="49.12499" lon="-0.02085">
        <ele>7.7</ele>
        <time>2023-10-15T07:44:48Z</time>
      </trkpt>
      <trkpt lat="49.125" lon="-0.02072">
        <ele>7.7</ele>
        <time>2023-10-15T07:44:49Z</time>
      </trkpt>
      <trkpt lat="49.12501" lon="-0.0206">
        <ele>7.7</ele>
        <time>2023-10-15T07:44:50Z</time>
      </trkpt>
      <trkpt lat="49.12502" lon="-0.02047">
        <ele>7.7</ele>
        <time>2023-10-15T07:44:51Z</time>
      </trkpt>
      <trkpt lat="49.12503" lon="-0.02034">
        <ele>7.8</ele>
        <time>2023-10-15T07:44:52Z</time>
      </trkpt>
      <trkpt lat="49.12504" lon="-0.02021">
        <ele>7.8</ele>
        <time>2023-10-15T07:44:53Z</time>
      </trkpt>
      <trkpt lat="49.12505" lon="-0.02008">
        <ele>7.8</ele>
        <time>2023-10-15T07:44:54Z</time>
      </trkpt>
      <trkpt lat="49.12506" lon="-0.01996">
        <ele>7.8</ele>
        <time>2023-10-15T07:44:55Z</time>
      </trkpt>
      <trkpt lat="49.12507" lon="-0.01984">
        <ele>7.8</ele>
        <time>2023-10-15T07:44:56Z</time>
      </trkpt>
      <trkpt lat="49.12507" lon="-0.01972">
        <ele>7.9</ele>
        <time>2023-10-15T07:44:57Z</time>
      </trkpt>
      <trkpt lat="49.12508" lon="-0.0196">
        <ele>7.9</ele>
        <time>2023-10-15T07:44:58Z</time>
      </trkpt>
      <trkpt lat="49.12509" lon="-0.01947">
        <ele>7.9</ele>
        <time>2023-10-15T07:44:59Z</time>
      </trkpt>
      <trkpt lat="49.1251" lon="-0.01936">
        <ele>7.9</ele>
        <time>2023-10-15T07:45:00Z</time>
      </trkpt>
      <trkpt lat="49.12511" lon="-0.01923">
        <ele>7.9</ele>
        <time>2023-10-15T07:45:01Z</time>
      </trkpt>
      <trkpt lat="49.12513" lon="-0.01911">
        <ele>7.9</ele>
        <time>2023-10-15T07:45:02Z</time>
      </trkpt>
      <trkpt lat="49.12514" lon="-0.01899">
        <ele>7.9</ele>
        <time>2023-10-15T07:45:03Z</time>
      </trkpt>
      <trkpt lat="49.12515" lon="-0.01887">
        <ele>8</ele>
        <time>2023-10-15T07:45:04Z</time>
      </trkpt>
      <trkpt lat="49.12516" lon="-0.01875">
        <ele>8</ele>
        <time>2023-10-15T07:45:05Z</time>
      </trkpt>
      <trkpt lat="49.12517" lon="-0.01862">
        <ele>8</ele>
        <time>2023-10-15T07:45:06Z</time>
      </trkpt>
      <trkpt lat="49.12518" lon="-0.01849">
        <ele>8</ele>
        <time>2023-10-15T07:45:07Z</time>
      </trkpt>
      <trkpt lat="49.12519" lon="-0.01837">
        <ele>8.1</ele>
        <time>2023-10-15T07:45:08Z</time>
      </trkpt>
      <trkpt lat="49.1252" lon="-0.01825">
        <ele>8.1</ele>
        <time>2023-10-15T07:45:09Z</time>
      </trkpt>
      <trkpt lat="49.12521" lon="-0.01812">
        <ele>8.1</ele>
        <time>2023-10-15T07:45:10Z</time>
      </trkpt>
      <trkpt lat="49.12523" lon="-0.018">
        <ele>8.2</ele>
        <time>2023-10-15T07:45:11Z</time>
      </trkpt>
      <trkpt lat="49.12524" lon="-0.01787">
        <ele>8.2</ele>
        <time>2023-10-15T07:45:12Z</time>
      </trkpt>
      <trkpt lat="49.12525" lon="-0.01774">
        <ele>8.2</ele>
        <time>2023-10-15T07:45:13Z</time>
      </trkpt>
      <trkpt lat="49.12526" lon="-0.01761">
        <ele>8.2</ele>
        <time>2023-10-15T07:45:14Z</time>
      </trkpt>
      <trkpt lat="49.12527" lon="-0.01749">
        <ele>8.2</ele>
        <time>2023-10-15T07:45:15Z</time>
      </trkpt>
      <trkpt lat="49.12528" lon="-0.01736">
        <ele>8.2</ele>
        <time>2023-10-15T07:45:16Z</time>
      </trkpt>
      <trkpt lat="49.12529" lon="-0.01724">
        <ele>8.2</ele>
        <time>2023-10-15T07:45:17Z</time>
      </trkpt>
      <trkpt lat="49.1253" lon="-0.01711">
        <ele>8.3</ele>
        <time>2023-10-15T07:45:18Z</time>
      </trkpt>
      <trkpt lat="49.12531" lon="-0.01699">
        <ele>8.3</ele>
        <time>2023-10-15T07:45:19Z</time>
      </trkpt>
      <trkpt lat="49.12532" lon="-0.01686">
        <ele>8.3</ele>
        <time>2023-10-15T07:45:20Z</time>
      </trkpt>
      <trkpt lat="49.12533" lon="-0.01674">
        <ele>8.3</ele>
        <time>2023-10-15T07:45:21Z</time>
      </trkpt>
      <trkpt lat="49.12534" lon="-0.01661">
        <ele>8.4</ele>
        <time>2023-10-15T07:45:22Z</time>
      </trkpt>
      <trkpt lat="49.12535" lon="-0.01648">
        <ele>8.4</ele>
        <time>2023-10-15T07:45:23Z</time>
      </trkpt>
      <trkpt lat="49.12536" lon="-0.01635">
        <ele>8.5</ele>
        <time>2023-10-15T07:45:24Z</time>
      </trkpt>
      <trkpt lat="49.12537" lon="-0.01623">
        <ele>8.5</ele>
        <time>2023-10-15T07:45:25Z</time>
      </trkpt>
      <trkpt lat="49.12538" lon="-0.0161">
        <ele>8.5</ele>
        <time>2023-10-15T07:45:26Z</time>
      </trkpt>
      <trkpt lat="49.12539" lon="-0.01598">
        <ele>8.6</ele>
        <time>2023-10-15T07:45:27Z</time>
      </trkpt>
      <trkpt lat="49.1254" lon="-0.01585">
        <ele>8.6</ele>
        <time>2023-10-15T07:45:28Z</time>
      </trkpt>
      <trkpt lat="49.12541" lon="-0.01572">
        <ele>8.6</ele>
        <time>2023-10-15T07:45:29Z</time>
      </trkpt>
      <trkpt lat="49.12542" lon="-0.01559">
        <ele>8.6</ele>
        <time>2023-10-15T07:45:30Z</time>
      </trkpt>
      <trkpt lat="49.12543" lon="-0.01546">
        <ele>8.5</ele>
        <time>2023-10-15T07:45:31Z</time>
      </trkpt>
      <trkpt lat="49.12544" lon="-0.01533">
        <ele>8.5</ele>
        <time>2023-10-15T07:45:32Z</time>
      </trkpt>
      <trkpt lat="49.12545" lon="-0.0152">
        <ele>8.5</ele>
        <time>2023-10-15T07:45:33Z</time>
      </trkpt>
      <trkpt lat="49.12546" lon="-0.01507">
        <ele>8.5</ele>
        <time>2023-10-15T07:45:34Z</time>
      </trkpt>
      <trkpt lat="49.12547" lon="-0.01494">
        <ele>8.5</ele>
        <time>2023-10-15T07:45:35Z</time>
      </trkpt>
      <trkpt lat="49.12547" lon="-0.0148">
        <ele>8.6</ele>
        <time>2023-10-15T07:45:36Z</time>
      </trkpt>
      <trkpt lat="49.12548" lon="-0.01467">
        <ele>8.6</ele>
        <time>2023-10-15T07:45:37Z</time>
      </trkpt>
      <trkpt lat="49.12548" lon="-0.01454">
        <ele>8.6</ele>
        <time>2023-10-15T07:45:38Z</time>
      </trkpt>
      <trkpt lat="49.12548" lon="-0.01441">
        <ele>8.6</ele>
        <time>2023-10-15T07:45:39Z</time>
      </trkpt>
      <trkpt lat="49.12548" lon="-0.01427">
        <ele>8.7</ele>
        <time>2023-10-15T07:45:40Z</time>
      </trkpt>
      <trkpt lat="49.12547" lon="-0.01414">
        <ele>8.7</ele>
        <time>2023-10-15T07:45:41Z</time>
      </trkpt>
      <trkpt lat="49.12547" lon="-0.01402">
        <ele>8.8</ele>
        <time>2023-10-15T07:45:42Z</time>
      </trkpt>
      <trkpt lat="49.12546" lon="-0.01389">
        <ele>8.8</ele>
        <time>2023-10-15T07:45:43Z</time>
      </trkpt>
      <trkpt lat="49.12546" lon="-0.01377">
        <ele>8.9</ele>
        <time>2023-10-15T07:45:44Z</time>
      </trkpt>
      <trkpt lat="49.12545" lon="-0.01364">
        <ele>8.9</ele>
        <time>2023-10-15T07:45:45Z</time>
      </trkpt>
      <trkpt lat="49.12544" lon="-0.01351">
        <ele>8.9</ele>
        <time>2023-10-15T07:45:46Z</time>
      </trkpt>
      <trkpt lat="49.12542" lon="-0.01338">
        <ele>8.9</ele>
        <time>2023-10-15T07:45:47Z</time>
      </trkpt>
      <trkpt lat="49.12541" lon="-0.01326">
        <ele>9</ele>
        <time>2023-10-15T07:45:48Z</time>
      </trkpt>
      <trkpt lat="49.1254" lon="-0.01314">
        <ele>9</ele>
        <time>2023-10-15T07:45:49Z</time>
      </trkpt>
      <trkpt lat="49.12538" lon="-0.01302">
        <ele>9</ele>
        <time>2023-10-15T07:45:50Z</time>
      </trkpt>
      <trkpt lat="49.12536" lon="-0.0129">
        <ele>9</ele>
        <time>2023-10-15T07:45:51Z</time>
      </trkpt>
      <trkpt lat="49.12534" lon="-0.01278">
        <ele>9</ele>
        <time>2023-10-15T07:45:52Z</time>
      </trkpt>
      <trkpt lat="49.12532" lon="-0.01265">
        <ele>9</ele>
        <time>2023-10-15T07:45:53Z</time>
      </trkpt>
      <trkpt lat="49.1253" lon="-0.01253">
        <ele>9.1</ele>
        <time>2023-10-15T07:45:54Z</time>
      </trkpt>
      <trkpt lat="49.12527" lon="-0.01242">
        <ele>9.1</ele>
        <time>2023-10-15T07:45:55Z</time>
      </trkpt>
      <trkpt lat="49.12524" lon="-0.0123">
        <ele>9.1</ele>
        <time>2023-10-15T07:45:56Z</time>
      </trkpt>
      <trkpt lat="49.12521" lon="-0.01218">
        <ele>9.2</ele>
        <time>2023-10-15T07:45:57Z</time>
      </trkpt>
      <trkpt lat="49.12518" lon="-0.01207">
        <ele>9.2</ele>
        <time>2023-10-15T07:45:58Z</time>
      </trkpt>
      <trkpt lat="49.12515" lon="-0.01196">
        <ele>9.3</ele>
        <time>2023-10-15T07:45:59Z</time>
      </trkpt>
      <trkpt lat="49.12511" lon="-0.01185">
        <ele>9.3</ele>
        <time>2023-10-15T07:46:00Z</time>
      </trkpt>
      <trkpt lat="49.12508" lon="-0.01173">
        <ele>9.3</ele>
        <time>2023-10-15T07:46:01Z</time>
      </trkpt>
      <trkpt lat="49.12505" lon="-0.01162">
        <ele>9.4</ele>
        <time>2023-10-15T07:46:02Z</time>
      </trkpt>
      <trkpt lat="49.12501" lon="-0.01151">
        <ele>9.4</ele>
        <time>2023-10-15T07:46:03Z</time>
      </trkpt>
      <trkpt lat="49.12498" lon="-0.0114">
        <ele>9.5</ele>
        <time>2023-10-15T07:46:04Z</time>
      </trkpt>
      <trkpt lat="49.12495" lon="-0.01129">
        <ele>9.5</ele>
        <time>2023-10-15T07:46:05Z</time>
      </trkpt>
      <trkpt lat="49.12492" lon="-0.01118">
        <ele>9.6</ele>
        <time>2023-10-15T07:46:06Z</time>
      </trkpt>
      <trkpt lat="49.12489" lon="-0.01107">
        <ele>9.6</ele>
        <time>2023-10-15T07:46:07Z</time>
      </trkpt>
      <trkpt lat="49.12485" lon="-0.01096">
        <ele>9.6</ele>
        <time>2023-10-15T07:46:08Z</time>
      </trkpt>
      <trkpt lat="49.12482" lon="-0.01085">
        <ele>9.6</ele>
        <time>2023-10-15T07:46:09Z</time>
      </trkpt>
      <trkpt lat="49.12479" lon="-0.01074">
        <ele>9.6</ele>
        <time>2023-10-15T07:46:10Z</time>
      </trkpt>
      <trkpt lat="49.12476" lon="-0.01063">
        <ele>9.5</ele>
        <time>2023-10-15T07:46:11Z</time>
      </trkpt>
      <trkpt lat="49.12472" lon="-0.01051">
        <ele>9.5</ele>
        <time>2023-10-15T07:46:12Z</time>
      </trkpt>
      <trkpt lat="49.12468" lon="-0.01041">
        <ele>9.5</ele>
        <time>2023-10-15T07:46:13Z</time>
      </trkpt>
      <trkpt lat="49.12464" lon="-0.0103">
        <ele>9.5</ele>
        <time>2023-10-15T07:46:14Z</time>
      </trkpt>
      <trkpt lat="49.1246" lon="-0.01019">
        <ele>9.5</ele>
        <time>2023-10-15T07:46:15Z</time>
      </trkpt>
      <trkpt lat="49.12456" lon="-0.01009">
        <ele>9.5</ele>
        <time>2023-10-15T07:46:16Z</time>
      </trkpt>
      <trkpt lat="49.12452" lon="-0.00998">
        <ele>9.5</ele>
        <time>2023-10-15T07:46:17Z</time>
      </trkpt>
      <trkpt lat="49.12448" lon="-0.00988">
        <ele>9.6</ele>
        <time>2023-10-15T07:46:18Z</time>
      </trkpt>
      <trkpt lat="49.12443" lon="-0.00978">
        <ele>9.6</ele>
        <time>2023-10-15T07:46:19Z</time>
      </trkpt>
      <trkpt lat="49.12439" lon="-0.00967">
        <ele>9.6</ele>
        <time>2023-10-15T07:46:20Z</time>
      </trkpt>
      <trkpt lat="49.12434" lon="-0.00957">
        <ele>9.6</ele>
        <time>2023-10-15T07:46:21Z</time>
      </trkpt>
      <trkpt lat="49.1243" lon="-0.00946">
        <ele>9.6</ele>
        <time>2023-10-15T07:46:22Z</time>
      </trkpt>
      <trkpt lat="49.12425" lon="-0.00935">
        <ele>9.6</ele>
        <time>2023-10-15T07:46:23Z</time>
      </trkpt>
      <trkpt lat="49.12421" lon="-0.00924">
        <ele>9.6</ele>
        <time>2023-10-15T07:46:24Z</time>
      </trkpt>
      <trkpt lat="49.12417" lon="-0.00914">
        <ele>9.6</ele>
        <time>2023-10-15T07:46:25Z</time>
      </trkpt>
      <trkpt lat="49.12412" lon="-0.00903">
        <ele>9.6</ele>
        <time>2023-10-15T07:46:26Z</time>
      </trkpt>
      <trkpt lat="49.12408" lon="-0.00892">
        <ele>9.7</ele>
        <time>2023-10-15T07:46:27Z</time>
      </trkpt>
      <trkpt lat="49.12403" lon="-0.00881">
        <ele>9.7</ele>
        <time>2023-10-15T07:46:28Z</time>
      </trkpt>
      <trkpt lat="49.12397" lon="-0.00871">
        <ele>9.7</ele>
        <time>2023-10-15T07:46:29Z</time>
      </trkpt>
      <trkpt lat="49.12391" lon="-0.00862">
        <ele>9.7</ele>
        <time>2023-10-15T07:46:30Z</time>
      </trkpt>
      <trkpt lat="49.12385" lon="-0.00854">
        <ele>9.7</ele>
        <time>2023-10-15T07:46:31Z</time>
      </trkpt>
      <trkpt lat="49.12379" lon="-0.00846">
        <ele>9.7</ele>
        <time>2023-10-15T07:46:32Z</time>
      </trkpt>
      <trkpt lat="49.12373" lon="-0.00839">
        <ele>9.7</ele>
        <time>2023-10-15T07:46:33Z</time>
      </trkpt>
      <trkpt lat="49.12366" lon="-0.00831">
        <ele>9.8</ele>
        <time>2023-10-15T07:46:34Z</time>
      </trkpt>
      <trkpt lat="49.12359" lon="-0.00825">
        <ele>9.8</ele>
        <time>2023-10-15T07:46:35Z</time>
      </trkpt>
      <trkpt lat="49.12353" lon="-0.00818">
        <ele>9.8</ele>
        <time>2023-10-15T07:46:36Z</time>
      </trkpt>
      <trkpt lat="49.12346" lon="-0.00813">
        <ele>9.8</ele>
        <time>2023-10-15T07:46:37Z</time>
      </trkpt>
      <trkpt lat="49.12338" lon="-0.00808">
        <ele>9.8</ele>
        <time>2023-10-15T07:46:38Z</time>
      </trkpt>
      <trkpt lat="49.12331" lon="-0.00804">
        <ele>9.8</ele>
        <time>2023-10-15T07:46:39Z</time>
      </trkpt>
      <trkpt lat="49.12323" lon="-0.008">
        <ele>9.8</ele>
        <time>2023-10-15T07:46:40Z</time>
      </trkpt>
      <trkpt lat="49.12316" lon="-0.00797">
        <ele>9.8</ele>
        <time>2023-10-15T07:46:41Z</time>
      </trkpt>
      <trkpt lat="49.12308" lon="-0.00793">
        <ele>9.8</ele>
        <time>2023-10-15T07:46:42Z</time>
      </trkpt>
      <trkpt lat="49.12301" lon="-0.00789">
        <ele>9.8</ele>
        <time>2023-10-15T07:46:43Z</time>
      </trkpt>
      <trkpt lat="49.12295" lon="-0.00783">
        <ele>9.8</ele>
        <time>2023-10-15T07:46:44Z</time>
      </trkpt>
      <trkpt lat="49.12289" lon="-0.00776">
        <ele>9.8</ele>
        <time>2023-10-15T07:46:45Z</time>
      </trkpt>
      <trkpt lat="49.12283" lon="-0.00768">
        <ele>9.8</ele>
        <time>2023-10-15T07:46:46Z</time>
      </trkpt>
      <trkpt lat="49.12279" lon="-0.00759">
        <ele>9.8</ele>
        <time>2023-10-15T07:46:47Z</time>
      </trkpt>
      <trkpt lat="49.12275" lon="-0.0075">
        <ele>9.9</ele>
        <time>2023-10-15T07:46:48Z</time>
      </trkpt>
      <trkpt lat="49.12271" lon="-0.00741">
        <ele>9.9</ele>
        <time>2023-10-15T07:46:49Z</time>
      </trkpt>
      <trkpt lat="49.12268" lon="-0.00732">
        <ele>10</ele>
        <time>2023-10-15T07:46:50Z</time>
      </trkpt>
      <trkpt lat="49.12265" lon="-0.00722">
        <ele>10</ele>
        <time>2023-10-15T07:46:51Z</time>
      </trkpt>
      <trkpt lat="49.12262" lon="-0.00712">
        <ele>10.1</ele>
        <time>2023-10-15T07:46:52Z</time>
      </trkpt>
      <trkpt lat="49.1226" lon="-0.00701">
        <ele>10.1</ele>
        <time>2023-10-15T07:46:53Z</time>
      </trkpt>
      <trkpt lat="49.12257" lon="-0.0069">
        <ele>10.1</ele>
        <time>2023-10-15T07:46:54Z</time>
      </trkpt>
      <trkpt lat="49.12255" lon="-0.00679">
        <ele>10.1</ele>
        <time>2023-10-15T07:46:55Z</time>
      </trkpt>
      <trkpt lat="49.12252" lon="-0.00668">
        <ele>10.1</ele>
        <time>2023-10-15T07:46:56Z</time>
      </trkpt>
      <trkpt lat="49.12249" lon="-0.00656">
        <ele>10.1</ele>
        <time>2023-10-15T07:46:57Z</time>
      </trkpt>
      <trkpt lat="49.12245" lon="-0.00645">
        <ele>10.1</ele>
        <time>2023-10-15T07:46:58Z</time>
      </trkpt>
      <trkpt lat="49.12241" lon="-0.00634">
        <ele>10.2</ele>
        <time>2023-10-15T07:46:59Z</time>
      </trkpt>
      <trkpt lat="49.12237" lon="-0.00624">
        <ele>10.2</ele>
        <time>2023-10-15T07:47:00Z</time>
      </trkpt>
      <trkpt lat="49.12232" lon="-0.00614">
        <ele>10.2</ele>
        <time>2023-10-15T07:47:01Z</time>
      </trkpt>
      <trkpt lat="49.12226" lon="-0.00605">
        <ele>10.3</ele>
        <time>2023-10-15T07:47:02Z</time>
      </trkpt>
      <trkpt lat="49.1222" lon="-0.00597">
        <ele>10.3</ele>
        <time>2023-10-15T07:47:03Z</time>
      </trkpt>
      <trkpt lat="49.12213" lon="-0.00589">
        <ele>10.3</ele>
        <time>2023-10-15T07:47:04Z</time>
      </trkpt>
      <trkpt lat="49.12207" lon="-0.00582">
        <ele>10.3</ele>
        <time>2023-10-15T07:47:05Z</time>
      </trkpt>
      <trkpt lat="49.122" lon="-0.00575">
        <ele>10.2</ele>
        <time>2023-10-15T07:47:06Z</time>
      </trkpt>
      <trkpt lat="49.12194" lon="-0.00569">
        <ele>10.2</ele>
        <time>2023-10-15T07:47:07Z</time>
      </trkpt>
      <trkpt lat="49.12187" lon="-0.00563">
        <ele>10.2</ele>
        <time>2023-10-15T07:47:08Z</time>
      </trkpt>
      <trkpt lat="49.1218" lon="-0.00556">
        <ele>10.2</ele>
        <time>2023-10-15T07:47:09Z</time>
      </trkpt>
      <trkpt lat="49.12174" lon="-0.0055">
        <ele>10.2</ele>
        <time>2023-10-15T07:47:10Z</time>
      </trkpt>
      <trkpt lat="49.12167" lon="-0.00543">
        <ele>10.2</ele>
        <time>2023-10-15T07:47:11Z</time>
      </trkpt>
      <trkpt lat="49.12161" lon="-0.00537">
        <ele>10.2</ele>
        <time>2023-10-15T07:47:12Z</time>
      </trkpt>
      <trkpt lat="49.12154" lon="-0.0053">
        <ele>10.2</ele>
        <time>2023-10-15T07:47:13Z</time>
      </trkpt>
      <trkpt lat="49.12148" lon="-0.00523">
        <ele>10.2</ele>
        <time>2023-10-15T07:47:14Z</time>
      </trkpt>
      <trkpt lat="49.12141" lon="-0.00516">
        <ele>10.2</ele>
        <time>2023-10-15T07:47:15Z</time>
      </trkpt>
      <trkpt lat="49.12134" lon="-0.00509">
        <ele>10.2</ele>
        <time>2023-10-15T07:47:16Z</time>
      </trkpt>
      <trkpt lat="49.12128" lon="-0.00502">
        <ele>10.1</ele>
        <time>2023-10-15T07:47:17Z</time>
      </trkpt>
      <trkpt lat="49.12121" lon="-0.00496">
        <ele>10.1</ele>
        <time>2023-10-15T07:47:18Z</time>
      </trkpt>
      <trkpt lat="49.12114" lon="-0.0049">
        <ele>10.1</ele>
        <time>2023-10-15T07:47:19Z</time>
      </trkpt>
      <trkpt lat="49.12107" lon="-0.00485">
        <ele>10.2</ele>
        <time>2023-10-15T07:47:20Z</time>
      </trkpt>
      <trkpt lat="49.12099" lon="-0.00481">
        <ele>10.2</ele>
        <time>2023-10-15T07:47:21Z</time>
      </trkpt>
      <trkpt lat="49.12092" lon="-0.00477">
        <ele>10.2</ele>
        <time>2023-10-15T07:47:22Z</time>
      </trkpt>
      <trkpt lat="49.12084" lon="-0.00473">
        <ele>10.2</ele>
        <time>2023-10-15T07:47:23Z</time>
      </trkpt>
      <trkpt lat="49.12076" lon="-0.0047">
        <ele>10.2</ele>
        <time>2023-10-15T07:47:24Z</time>
      </trkpt>
      <trkpt lat="49.12069" lon="-0.00466">
        <ele>10.2</ele>
        <time>2023-10-15T07:47:25Z</time>
      </trkpt>
      <trkpt lat="49.12061" lon="-0.00461">
        <ele>10.2</ele>
        <time>2023-10-15T07:47:26Z</time>
      </trkpt>
      <trkpt lat="49.12053" lon="-0.00457">
        <ele>10.2</ele>
        <time>2023-10-15T07:47:27Z</time>
      </trkpt>
      <trkpt lat="49.12045" lon="-0.00453">
        <ele>10.2</ele>
        <time>2023-10-15T07:47:28Z</time>
      </trkpt>
      <trkpt lat="49.12037" lon="-0.0045">
        <ele>10.2</ele>
        <time>2023-10-15T07:47:29Z</time>
      </trkpt>
      <trkpt lat="49.1203" lon="-0.00445">
        <ele>10.2</ele>
        <time>2023-10-15T07:47:30Z</time>
      </trkpt>
      <trkpt lat="49.12022" lon="-0.00441">
        <ele>10.2</ele>
        <time>2023-10-15T07:47:31Z</time>
      </trkpt>
      <trkpt lat="49.12015" lon="-0.00437">
        <ele>10.2</ele>
        <time>2023-10-15T07:47:32Z</time>
      </trkpt>
      <trkpt lat="49.12007" lon="-0.00433">
        <ele>10.1</ele>
        <time>2023-10-15T07:47:33Z</time>
      </trkpt>
      <trkpt lat="49.11999" lon="-0.0043">
        <ele>10.1</ele>
        <time>2023-10-15T07:47:34Z</time>
      </trkpt>
      <trkpt lat="49.11991" lon="-0.00428">
        <ele>10</ele>
        <time>2023-10-15T07:47:35Z</time>
      </trkpt>
      <trkpt lat="49.11983" lon="-0.00428">
        <ele>10</ele>
        <time>2023-10-15T07:47:36Z</time>
      </trkpt>
      <trkpt lat="49.11975" lon="-0.0043">
        <ele>10</ele>
        <time>2023-10-15T07:47:37Z</time>
      </trkpt>
      <trkpt lat="49.11968" lon="-0.00432">
        <ele>10</ele>
        <time>2023-10-15T07:47:38Z</time>
      </trkpt>
      <trkpt lat="49.1196" lon="-0.00435">
        <ele>10</ele>
        <time>2023-10-15T07:47:39Z</time>
      </trkpt>
      <trkpt lat="49.11952" lon="-0.00437">
        <ele>10.1</ele>
        <time>2023-10-15T07:47:40Z</time>
      </trkpt>
      <trkpt lat="49.11945" lon="-0.00439">
        <ele>10.1</ele>
        <time>2023-10-15T07:47:41Z</time>
      </trkpt>
      <trkpt lat="49.11937" lon="-0.00439">
        <ele>10.1</ele>
        <time>2023-10-15T07:47:42Z</time>
      </trkpt>
      <trkpt lat="49.11929" lon="-0.00438">
        <ele>10.1</ele>
        <time>2023-10-15T07:47:43Z</time>
      </trkpt>
      <trkpt lat="49.11921" lon="-0.00436">
        <ele>10.2</ele>
        <time>2023-10-15T07:47:44Z</time>
      </trkpt>
      <trkpt lat="49.11913" lon="-0.00434">
        <ele>10.2</ele>
        <time>2023-10-15T07:47:45Z</time>
      </trkpt>
      <trkpt lat="49.11906" lon="-0.00431">
        <ele>10.2</ele>
        <time>2023-10-15T07:47:46Z</time>
      </trkpt>
      <trkpt lat="49.11898" lon="-0.00427">
        <ele>10.2</ele>
        <time>2023-10-15T07:47:47Z</time>
      </trkpt>
      <trkpt lat="49.11891" lon="-0.00424">
        <ele>10.2</ele>
        <time>2023-10-15T07:47:48Z</time>
      </trkpt>
      <trkpt lat="49.11883" lon="-0.0042">
        <ele>10.2</ele>
        <time>2023-10-15T07:47:49Z</time>
      </trkpt>
      <trkpt lat="49.11875" lon="-0.00417">
        <ele>10.2</ele>
        <time>2023-10-15T07:47:50Z</time>
      </trkpt>
      <trkpt lat="49.11868" lon="-0.00413">
        <ele>10.2</ele>
        <time>2023-10-15T07:47:51Z</time>
      </trkpt>
      <trkpt lat="49.11861" lon="-0.0041">
        <ele>10.2</ele>
        <time>2023-10-15T07:47:52Z</time>
      </trkpt>
      <trkpt lat="49.11853" lon="-0.00408">
        <ele>10.2</ele>
        <time>2023-10-15T07:47:53Z</time>
      </trkpt>
      <trkpt lat="49.11846" lon="-0.00405">
        <ele>10.2</ele>
        <time>2023-10-15T07:47:54Z</time>
      </trkpt>
      <trkpt lat="49.11839" lon="-0.00402">
        <ele>10.2</ele>
        <time>2023-10-15T07:47:55Z</time>
      </trkpt>
      <trkpt lat="49.11831" lon="-0.00399">
        <ele>10.2</ele>
        <time>2023-10-15T07:47:56Z</time>
      </trkpt>
      <trkpt lat="49.11823" lon="-0.00397">
        <ele>10.2</ele>
        <time>2023-10-15T07:47:57Z</time>
      </trkpt>
      <trkpt lat="49.11815" lon="-0.00395">
        <ele>10.2</ele>
        <time>2023-10-15T07:47:58Z</time>
      </trkpt>
      <trkpt lat="49.11807" lon="-0.00394">
        <ele>10.2</ele>
        <time>2023-10-15T07:47:59Z</time>
      </trkpt>
      <trkpt lat="49.11799" lon="-0.00394">
        <ele>10.2</ele>
        <time>2023-10-15T07:48:00Z</time>
      </trkpt>
      <trkpt lat="49.11791" lon="-0.00395">
        <ele>10.2</ele>
        <time>2023-10-15T07:48:01Z</time>
      </trkpt>
      <trkpt lat="49.11783" lon="-0.00395">
        <ele>10.2</ele>
        <time>2023-10-15T07:48:02Z</time>
      </trkpt>
      <trkpt lat="49.11775" lon="-0.00396">
        <ele>10.2</ele>
        <time>2023-10-15T07:48:03Z</time>
      </trkpt>
      <trkpt lat="49.11767" lon="-0.00395">
        <ele>10.2</ele>
        <time>2023-10-15T07:48:04Z</time>
      </trkpt>
      <trkpt lat="49.11759" lon="-0.00394">
        <ele>10.3</ele>
        <time>2023-10-15T07:48:05Z</time>
      </trkpt>
      <trkpt lat="49.11751" lon="-0.00392">
        <ele>10.3</ele>
        <time>2023-10-15T07:48:06Z</time>
      </trkpt>
      <trkpt lat="49.11744" lon="-0.0039">
        <ele>10.3</ele>
        <time>2023-10-15T07:48:07Z</time>
      </trkpt>
      <trkpt lat="49.11736" lon="-0.00389">
        <ele>10.4</ele>
        <time>2023-10-15T07:48:08Z</time>
      </trkpt>
      <trkpt lat="49.11728" lon="-0.00387">
        <ele>10.4</ele>
        <time>2023-10-15T07:48:09Z</time>
      </trkpt>
      <trkpt lat="49.11721" lon="-0.00386">
        <ele>10.5</ele>
        <time>2023-10-15T07:48:10Z</time>
      </trkpt>
      <trkpt lat="49.11713" lon="-0.00385">
        <ele>10.6</ele>
        <time>2023-10-15T07:48:11Z</time>
      </trkpt>
      <trkpt lat="49.11707" lon="-0.00385">
        <ele>10.6</ele>
        <time>2023-10-15T07:48:12Z</time>
      </trkpt>
      <trkpt lat="49.11699" lon="-0.00384">
        <ele>10.7</ele>
        <time>2023-10-15T07:48:13Z</time>
      </trkpt>
      <trkpt lat="49.11692" lon="-0.00384">
        <ele>10.7</ele>
        <time>2023-10-15T07:48:14Z</time>
      </trkpt>
      <trkpt lat="49.11685" lon="-0.00383">
        <ele>10.7</ele>
        <time>2023-10-15T07:48:15Z</time>
      </trkpt>
      <trkpt lat="49.11678" lon="-0.00382">
        <ele>10.7</ele>
        <time>2023-10-15T07:48:16Z</time>
      </trkpt>
      <trkpt lat="49.11671" lon="-0.00382">
        <ele>10.7</ele>
        <time>2023-10-15T07:48:17Z</time>
      </trkpt>
      <trkpt lat="49.11663" lon="-0.00381">
        <ele>10.7</ele>
        <time>2023-10-15T07:48:18Z</time>
      </trkpt>
      <trkpt lat="49.11655" lon="-0.00381">
        <ele>10.7</ele>
        <time>2023-10-15T07:48:19Z</time>
      </trkpt>
      <trkpt lat="49.11647" lon="-0.0038">
        <ele>10.7</ele>
        <time>2023-10-15T07:48:20Z</time>
      </trkpt>
      <trkpt lat="49.1164" lon="-0.0038">
        <ele>10.6</ele>
        <time>2023-10-15T07:48:21Z</time>
      </trkpt>
      <trkpt lat="49.11632" lon="-0.00379">
        <ele>10.6</ele>
        <time>2023-10-15T07:48:22Z</time>
      </trkpt>
      <trkpt lat="49.11625" lon="-0.00378">
        <ele>10.6</ele>
        <time>2023-10-15T07:48:23Z</time>
      </trkpt>
      <trkpt lat="49.11617" lon="-0.00377">
        <ele>10.6</ele>
        <time>2023-10-15T07:48:24Z</time>
      </trkpt>
      <trkpt lat="49.11609" lon="-0.00376">
        <ele>10.6</ele>
        <time>2023-10-15T07:48:25Z</time>
      </trkpt>
      <trkpt lat="49.11602" lon="-0.00376">
        <ele>10.6</ele>
        <time>2023-10-15T07:48:26Z</time>
      </trkpt>
      <trkpt lat="49.11594" lon="-0.00376">
        <ele>10.6</ele>
        <time>2023-10-15T07:48:27Z</time>
      </trkpt>
      <trkpt lat="49.11586" lon="-0.00377">
        <ele>10.6</ele>
        <time>2023-10-15T07:48:28Z</time>
      </trkpt>
      <trkpt lat="49.11578" lon="-0.00379">
        <ele>10.6</ele>
        <time>2023-10-15T07:48:29Z</time>
      </trkpt>
      <trkpt lat="49.1157" lon="-0.00379">
        <ele>10.6</ele>
        <time>2023-10-15T07:48:30Z</time>
      </trkpt>
      <trkpt lat="49.11561" lon="-0.00379">
        <ele>10.6</ele>
        <time>2023-10-15T07:48:31Z</time>
      </trkpt>
      <trkpt lat="49.11553" lon="-0.00379">
        <ele>10.6</ele>
        <time>2023-10-15T07:48:32Z</time>
      </trkpt>
      <trkpt lat="49.11544" lon="-0.00379">
        <ele>10.6</ele>
        <time>2023-10-15T07:48:33Z</time>
      </trkpt>
      <trkpt lat="49.11535" lon="-0.00378">
        <ele>10.6</ele>
        <time>2023-10-15T07:48:34Z</time>
      </trkpt>
      <trkpt lat="49.11527" lon="-0.00378">
        <ele>10.6</ele>
        <time>2023-10-15T07:48:35Z</time>
      </trkpt>
      <trkpt lat="49.11519" lon="-0.00378">
        <ele>10.6</ele>
        <time>2023-10-15T07:48:36Z</time>
      </trkpt>
      <trkpt lat="49.1151" lon="-0.00378">
        <ele>10.6</ele>
        <time>2023-10-15T07:48:37Z</time>
      </trkpt>
      <trkpt lat="49.11501" lon="-0.00378">
        <ele>10.6</ele>
        <time>2023-10-15T07:48:38Z</time>
      </trkpt>
      <trkpt lat="49.11492" lon="-0.00378">
        <ele>10.6</ele>
        <time>2023-10-15T07:48:39Z</time>
      </trkpt>
      <trkpt lat="49.11484" lon="-0.00379">
        <ele>10.6</ele>
        <time>2023-10-15T07:48:40Z</time>
      </trkpt>
      <trkpt lat="49.11475" lon="-0.00379">
        <ele>10.6</ele>
        <time>2023-10-15T07:48:41Z</time>
      </trkpt>
      <trkpt lat="49.11466" lon="-0.00379">
        <ele>10.7</ele>
        <time>2023-10-15T07:48:42Z</time>
      </trkpt>
      <trkpt lat="49.11458" lon="-0.00379">
        <ele>10.7</ele>
        <time>2023-10-15T07:48:43Z</time>
      </trkpt>
      <trkpt lat="49.11449" lon="-0.00379">
        <ele>10.7</ele>
        <time>2023-10-15T07:48:44Z</time>
      </trkpt>
      <trkpt lat="49.1144" lon="-0.00378">
        <ele>10.6</ele>
        <time>2023-10-15T07:48:45Z</time>
      </trkpt>
      <trkpt lat="49.11431" lon="-0.00378">
        <ele>10.6</ele>
        <time>2023-10-15T07:48:46Z</time>
      </trkpt>
      <trkpt lat="49.11423" lon="-0.00378">
        <ele>10.6</ele>
        <time>2023-10-15T07:48:47Z</time>
      </trkpt>
      <trkpt lat="49.11415" lon="-0.00378">
        <ele>10.6</ele>
        <time>2023-10-15T07:48:48Z</time>
      </trkpt>
      <trkpt lat="49.11407" lon="-0.00377">
        <ele>10.7</ele>
        <time>2023-10-15T07:48:49Z</time>
      </trkpt>
      <trkpt lat="49.11399" lon="-0.00377">
        <ele>10.7</ele>
        <time>2023-10-15T07:48:50Z</time>
      </trkpt>
      <trkpt lat="49.11391" lon="-0.00377">
        <ele>10.7</ele>
        <time>2023-10-15T07:48:51Z</time>
      </trkpt>
      <trkpt lat="49.11384" lon="-0.00377">
        <ele>10.7</ele>
        <time>2023-10-15T07:48:52Z</time>
      </trkpt>
      <trkpt lat="49.11376" lon="-0.00377">
        <ele>10.7</ele>
        <time>2023-10-15T07:48:53Z</time>
      </trkpt>
      <trkpt lat="49.11368" lon="-0.00378">
        <ele>10.7</ele>
        <time>2023-10-15T07:48:54Z</time>
      </trkpt>
      <trkpt lat="49.1136" lon="-0.00378">
        <ele>10.7</ele>
        <time>2023-10-15T07:48:55Z</time>
      </trkpt>
      <trkpt lat="49.11352" lon="-0.00378">
        <ele>10.7</ele>
        <time>2023-10-15T07:48:56Z</time>
      </trkpt>
      <trkpt lat="49.11343" lon="-0.00378">
        <ele>10.6</ele>
        <time>2023-10-15T07:48:57Z</time>
      </trkpt>
      <trkpt lat="49.11335" lon="-0.00378">
        <ele>10.6</ele>
        <time>2023-10-15T07:48:58Z</time>
      </trkpt>
      <trkpt lat="49.11326" lon="-0.00378">
        <ele>10.5</ele>
        <time>2023-10-15T07:48:59Z</time>
      </trkpt>
      <trkpt lat="49.11318" lon="-0.00378">
        <ele>10.5</ele>
        <time>2023-10-15T07:49:00Z</time>
      </trkpt>
      <trkpt lat="49.11309" lon="-0.00378">
        <ele>10.5</ele>
        <time>2023-10-15T07:49:01Z</time>
      </trkpt>
      <trkpt lat="49.113" lon="-0.00379">
        <ele>10.5</ele>
        <time>2023-10-15T07:49:02Z</time>
      </trkpt>
      <trkpt lat="49.11292" lon="-0.00379">
        <ele>10.5</ele>
        <time>2023-10-15T07:49:03Z</time>
      </trkpt>
      <trkpt lat="49.11283" lon="-0.00379">
        <ele>10.5</ele>
        <time>2023-10-15T07:49:04Z</time>
      </trkpt>
      <trkpt lat="49.11274" lon="-0.00378">
        <ele>10.5</ele>
        <time>2023-10-15T07:49:05Z</time>
      </trkpt>
      <trkpt lat="49.11266" lon="-0.00378">
        <ele>10.5</ele>
        <time>2023-10-15T07:49:06Z</time>
      </trkpt>
      <trkpt lat="49.11258" lon="-0.00377">
        <ele>10.5</ele>
        <time>2023-10-15T07:49:07Z</time>
      </trkpt>
      <trkpt lat="49.1125" lon="-0.00376">
        <ele>10.5</ele>
        <time>2023-10-15T07:49:08Z</time>
      </trkpt>
      <trkpt lat="49.11242" lon="-0.00374">
        <ele>10.6</ele>
        <time>2023-10-15T07:49:09Z</time>
      </trkpt>
      <trkpt lat="49.11235" lon="-0.00372">
        <ele>10.6</ele>
        <time>2023-10-15T07:49:10Z</time>
      </trkpt>
      <trkpt lat="49.11227" lon="-0.0037">
        <ele>10.6</ele>
        <time>2023-10-15T07:49:11Z</time>
      </trkpt>
      <trkpt lat="49.1122" lon="-0.00368">
        <ele>10.6</ele>
        <time>2023-10-15T07:49:12Z</time>
      </trkpt>
      <trkpt lat="49.11213" lon="-0.00366">
        <ele>10.6</ele>
        <time>2023-10-15T07:49:13Z</time>
      </trkpt>
      <trkpt lat="49.11205" lon="-0.00363">
        <ele>10.6</ele>
        <time>2023-10-15T07:49:14Z</time>
      </trkpt>
      <trkpt lat="49.11198" lon="-0.00361">
        <ele>10.6</ele>
        <time>2023-10-15T07:49:15Z</time>
      </trkpt>
      <trkpt lat="49.1119" lon="-0.00358">
        <ele>10.6</ele>
        <time>2023-10-15T07:49:16Z</time>
      </trkpt>
      <trkpt lat="49.11182" lon="-0.00356">
        <ele>10.6</ele>
        <time>2023-10-15T07:49:17Z</time>
      </trkpt>
      <trkpt lat="49.11174" lon="-0.00355">
        <ele>10.6</ele>
        <time>2023-10-15T07:49:18Z</time>
      </trkpt>
      <trkpt lat="49.11166" lon="-0.00354">
        <ele>10.6</ele>
        <time>2023-10-15T07:49:19Z</time>
      </trkpt>
      <trkpt lat="49.11159" lon="-0.00354">
        <ele>10.6</ele>
        <time>2023-10-15T07:49:20Z</time>
      </trkpt>
      <trkpt lat="49.11151" lon="-0.00354">
        <ele>10.6</ele>
        <time>2023-10-15T07:49:21Z</time>
      </trkpt>
      <trkpt lat="49.11144" lon="-0.00354">
        <ele>10.6</ele>
        <time>2023-10-15T07:49:22Z</time>
      </trkpt>
      <trkpt lat="49.11138" lon="-0.00355">
        <ele>10.6</ele>
        <time>2023-10-15T07:49:23Z</time>
      </trkpt>
      <trkpt lat="49.11132" lon="-0.00355">
        <ele>10.6</ele>
        <time>2023-10-15T07:49:24Z</time>
      </trkpt>
      <trkpt lat="49.11126" lon="-0.00356">
        <ele>10.7</ele>
        <time>2023-10-15T07:49:25Z</time>
      </trkpt>
      <trkpt lat="49.11121" lon="-0.00357">
        <ele>10.8</ele>
        <time>2023-10-15T07:49:26Z</time>
      </trkpt>
      <trkpt lat="49.11115" lon="-0.00358">
        <ele>10.9</ele>
        <time>2023-10-15T07:49:27Z</time>
      </trkpt>
      <trkpt lat="49.1111" lon="-0.00358">
        <ele>11.1</ele>
        <time>2023-10-15T07:49:28Z</time>
      </trkpt>
      <trkpt lat="49.11106" lon="-0.00358">
        <ele>11.3</ele>
        <time>2023-10-15T07:49:29Z</time>
      </trkpt>
      <trkpt lat="49.11102" lon="-0.00357">
        <ele>11.5</ele>
        <time>2023-10-15T07:49:30Z</time>
      </trkpt>
      <trkpt lat="49.11099" lon="-0.00357">
        <ele>11.7</ele>
        <time>2023-10-15T07:49:31Z</time>
      </trkpt>
      <trkpt lat="49.11096" lon="-0.00358">
        <ele>11.9</ele>
        <time>2023-10-15T07:49:32Z</time>
      </trkpt>
      <trkpt lat="49.11094" lon="-0.00358">
        <ele>12</ele>
        <time>2023-10-15T07:49:33Z</time>
      </trkpt>
      <trkpt lat="49.11092" lon="-0.00358">
        <ele>12.2</ele>
        <time>2023-10-15T07:49:34Z</time>
      </trkpt>
      <trkpt lat="49.11091" lon="-0.00358">
        <ele>12.3</ele>
        <time>2023-10-15T07:49:35Z</time>
      </trkpt>
      <trkpt lat="49.11089" lon="-0.00358">
        <ele>12.4</ele>
        <time>2023-10-15T07:49:36Z</time>
      </trkpt>
      <trkpt lat="49.11088" lon="-0.00356">
        <ele>12.5</ele>
        <time>2023-10-15T07:49:37Z</time>
      </trkpt>
      <trkpt lat="49.11086" lon="-0.00351">
        <ele>13</ele>
        <time>2023-10-15T07:49:38Z</time>
      </trkpt>
      <trkpt lat="49.11086" lon="-0.00349">
        <ele>13</ele>
        <time>2023-10-15T07:49:39Z</time>
      </trkpt>
      <trkpt lat="49.11085" lon="-0.00343">
        <ele>13</ele>
        <time>2023-10-15T07:49:40Z</time>
      </trkpt>
      <trkpt lat="49.11085" lon="-0.00338">
        <ele>13</ele>
        <time>2023-10-15T07:49:41Z</time>
      </trkpt>
      <trkpt lat="49.11085" lon="-0.00331">
        <ele>13</ele>
        <time>2023-10-15T07:49:42Z</time>
      </trkpt>
      <trkpt lat="49.11084" lon="-0.00324">
        <ele>13</ele>
        <time>2023-10-15T07:49:43Z</time>
      </trkpt>
      <trkpt lat="49.11084" lon="-0.00317">
        <ele>13</ele>
        <time>2023-10-15T07:49:44Z</time>
      </trkpt>
      <trkpt lat="49.11083" lon="-0.00308">
        <ele>13</ele>
        <time>2023-10-15T07:49:45Z</time>
      </trkpt>
      <trkpt lat="49.11083" lon="-0.00299">
        <ele>13</ele>
        <time>2023-10-15T07:49:46Z</time>
      </trkpt>
      <trkpt lat="49.11083" lon="-0.00291">
        <ele>13.1</ele>
        <time>2023-10-15T07:49:47Z</time>
      </trkpt>
      <trkpt lat="49.11084" lon="-0.00282">
        <ele>13.1</ele>
        <time>2023-10-15T07:49:48Z</time>
      </trkpt>
      <trkpt lat="49.11084" lon="-0.00273">
        <ele>13.1</ele>
        <time>2023-10-15T07:49:49Z</time>
      </trkpt>
      <trkpt lat="49.11085" lon="-0.00264">
        <ele>13.1</ele>
        <time>2023-10-15T07:49:50Z</time>
      </trkpt>
      <trkpt lat="49.11085" lon="-0.00256">
        <ele>13.1</ele>
        <time>2023-10-15T07:49:51Z</time>
      </trkpt>
      <trkpt lat="49.11085" lon="-0.00248">
        <ele>13.1</ele>
        <time>2023-10-15T07:49:52Z</time>
      </trkpt>
      <trkpt lat="49.11086" lon="-0.0024">
        <ele>13.1</ele>
        <time>2023-10-15T07:49:53Z</time>
      </trkpt>
      <trkpt lat="49.11087" lon="-0.00231">
        <ele>13.1</ele>
        <time>2023-10-15T07:49:54Z</time>
      </trkpt>
      <trkpt lat="49.11087" lon="-0.00223">
        <ele>13.2</ele>
        <time>2023-10-15T07:49:55Z</time>
      </trkpt>
      <trkpt lat="49.11087" lon="-0.00213">
        <ele>13.2</ele>
        <time>2023-10-15T07:49:56Z</time>
      </trkpt>
      <trkpt lat="49.11087" lon="-0.00204">
        <ele>13.2</ele>
        <time>2023-10-15T07:49:57Z</time>
      </trkpt>
      <trkpt lat="49.11088" lon="-0.00195">
        <ele>13.1</ele>
        <time>2023-10-15T07:49:58Z</time>
      </trkpt>
      <trkpt lat="49.11088" lon="-0.00186">
        <ele>13.1</ele>
        <time>2023-10-15T07:49:59Z</time>
      </trkpt>
      <trkpt lat="49.11088" lon="-0.00177">
        <ele>13.1</ele>
        <time>2023-10-15T07:50:00Z</time>
      </trkpt>
      <trkpt lat="49.11088" lon="-0.00168">
        <ele>13</ele>
        <time>2023-10-15T07:50:01Z</time>
      </trkpt>
      <trkpt lat="49.11088" lon="-0.00157">
        <ele>12.9</ele>
        <time>2023-10-15T07:50:02Z</time>
      </trkpt>
      <trkpt lat="49.11088" lon="-0.00147">
        <ele>12.8</ele>
        <time>2023-10-15T07:50:03Z</time>
      </trkpt>
      <trkpt lat="49.11089" lon="-0.00135">
        <ele>12.7</ele>
        <time>2023-10-15T07:50:04Z</time>
      </trkpt>
      <trkpt lat="49.11089" lon="-0.00123">
        <ele>12.5</ele>
        <time>2023-10-15T07:50:05Z</time>
      </trkpt>
      <trkpt lat="49.1109" lon="-0.0011">
        <ele>12.4</ele>
        <time>2023-10-15T07:50:06Z</time>
      </trkpt>
      <trkpt lat="49.1109" lon="-0.00096">
        <ele>12.3</ele>
        <time>2023-10-15T07:50:07Z</time>
      </trkpt>
      <trkpt lat="49.1109" lon="-0.00083">
        <ele>12.2</ele>
        <time>2023-10-15T07:50:08Z</time>
      </trkpt>
      <trkpt lat="49.1109" lon="-0.0007">
        <ele>12.1</ele>
        <time>2023-10-15T07:50:09Z</time>
      </trkpt>
      <trkpt lat="49.1109" lon="-0.00057">
        <ele>12.1</ele>
        <time>2023-10-15T07:50:10Z</time>
      </trkpt>
      <trkpt lat="49.1109" lon="-0.00044">
        <ele>12.1</ele>
        <time>2023-10-15T07:50:11Z</time>
      </trkpt>
      <trkpt lat="49.1109" lon="-0.0003">
        <ele>12.1</ele>
        <time>2023-10-15T07:50:12Z</time>
      </trkpt>
      <trkpt lat="49.1109" lon="-0.00017">
        <ele>12.1</ele>
        <time>2023-10-15T07:50:13Z</time>
      </trkpt>
      <trkpt lat="49.1109" lon="-4.0E-5">
        <ele>12.2</ele>
        <time>2023-10-15T07:50:14Z</time>
      </trkpt>
      <trkpt lat="49.11089" lon="9.0E-5">
        <ele>12.2</ele>
        <time>2023-10-15T07:50:15Z</time>
      </trkpt>
      <trkpt lat="49.11089" lon="0.00023">
        <ele>12.2</ele>
        <time>2023-10-15T07:50:16Z</time>
      </trkpt>
      <trkpt lat="49.11088" lon="0.00036">
        <ele>12.2</ele>
        <time>2023-10-15T07:50:17Z</time>
      </trkpt>
      <trkpt lat="49.11088" lon="0.00049">
        <ele>12.3</ele>
        <time>2023-10-15T07:50:18Z</time>
      </trkpt>
      <trkpt lat="49.11087" lon="0.00062">
        <ele>12.3</ele>
        <time>2023-10-15T07:50:19Z</time>
      </trkpt>
      <trkpt lat="49.11086" lon="0.00075">
        <ele>12.3</ele>
        <time>2023-10-15T07:50:20Z</time>
      </trkpt>
      <trkpt lat="49.11085" lon="0.00088">
        <ele>12.3</ele>
        <time>2023-10-15T07:50:21Z</time>
      </trkpt>
      <trkpt lat="49.11084" lon="0.00101">
        <ele>12.3</ele>
        <time>2023-10-15T07:50:22Z</time>
      </trkpt>
      <trkpt lat="49.11083" lon="0.00114">
        <ele>12.3</ele>
        <time>2023-10-15T07:50:23Z</time>
      </trkpt>
      <trkpt lat="49.11083" lon="0.00127">
        <ele>12.4</ele>
        <time>2023-10-15T07:50:24Z</time>
      </trkpt>
      <trkpt lat="49.11082" lon="0.0014">
        <ele>12.4</ele>
        <time>2023-10-15T07:50:25Z</time>
      </trkpt>
      <trkpt lat="49.11082" lon="0.00152">
        <ele>12.4</ele>
        <time>2023-10-15T07:50:26Z</time>
      </trkpt>
      <trkpt lat="49.11081" lon="0.00165">
        <ele>12.5</ele>
        <time>2023-10-15T07:50:27Z</time>
      </trkpt>
      <trkpt lat="49.11081" lon="0.00178">
        <ele>12.5</ele>
        <time>2023-10-15T07:50:28Z</time>
      </trkpt>
      <trkpt lat="49.11081" lon="0.0019">
        <ele>12.6</ele>
        <time>2023-10-15T07:50:29Z</time>
      </trkpt>
      <trkpt lat="49.11081" lon="0.00202">
        <ele>12.7</ele>
        <time>2023-10-15T07:50:30Z</time>
      </trkpt>
      <trkpt lat="49.11081" lon="0.00214">
        <ele>12.8</ele>
        <time>2023-10-15T07:50:31Z</time>
      </trkpt>
      <trkpt lat="49.11081" lon="0.00226">
        <ele>12.9</ele>
        <time>2023-10-15T07:50:32Z</time>
      </trkpt>
      <trkpt lat="49.11081" lon="0.00238">
        <ele>13.1</ele>
        <time>2023-10-15T07:50:33Z</time>
      </trkpt>
      <trkpt lat="49.11081" lon="0.00249">
        <ele>13.2</ele>
        <time>2023-10-15T07:50:34Z</time>
      </trkpt>
      <trkpt lat="49.11081" lon="0.00262">
        <ele>13.3</ele>
        <time>2023-10-15T07:50:35Z</time>
      </trkpt>
      <trkpt lat="49.11081" lon="0.00274">
        <ele>13.5</ele>
        <time>2023-10-15T07:50:36Z</time>
      </trkpt>
      <trkpt lat="49.11081" lon="0.00286">
        <ele>13.7</ele>
        <time>2023-10-15T07:50:37Z</time>
      </trkpt>
      <trkpt lat="49.11081" lon="0.00296">
        <ele>13.8</ele>
        <time>2023-10-15T07:50:38Z</time>
      </trkpt>
      <trkpt lat="49.11082" lon="0.00305">
        <ele>14</ele>
        <time>2023-10-15T07:50:39Z</time>
      </trkpt>
      <trkpt lat="49.11083" lon="0.00315">
        <ele>14.1</ele>
        <time>2023-10-15T07:50:40Z</time>
      </trkpt>
      <trkpt lat="49.11083" lon="0.00324">
        <ele>14.3</ele>
        <time>2023-10-15T07:50:41Z</time>
      </trkpt>
      <trkpt lat="49.11083" lon="0.00331">
        <ele>14.4</ele>
        <time>2023-10-15T07:50:42Z</time>
      </trkpt>
      <trkpt lat="49.11083" lon="0.00338">
        <ele>14.5</ele>
        <time>2023-10-15T07:50:43Z</time>
      </trkpt>
      <trkpt lat="49.11082" lon="0.00345">
        <ele>14.6</ele>
        <time>2023-10-15T07:50:44Z</time>
      </trkpt>
      <trkpt lat="49.1108" lon="0.00352">
        <ele>14.7</ele>
        <time>2023-10-15T07:50:45Z</time>
      </trkpt>
      <trkpt lat="49.11076" lon="0.00359">
        <ele>14.8</ele>
        <time>2023-10-15T07:50:46Z</time>
      </trkpt>
      <trkpt lat="49.11072" lon="0.00365">
        <ele>14.9</ele>
        <time>2023-10-15T07:50:47Z</time>
      </trkpt>
      <trkpt lat="49.11068" lon="0.00371">
        <ele>15</ele>
        <time>2023-10-15T07:50:48Z</time>
      </trkpt>
      <trkpt lat="49.11064" lon="0.00378">
        <ele>15.1</ele>
        <time>2023-10-15T07:50:49Z</time>
      </trkpt>
      <trkpt lat="49.1106" lon="0.00385">
        <ele>15.3</ele>
        <time>2023-10-15T07:50:50Z</time>
      </trkpt>
      <trkpt lat="49.11056" lon="0.00392">
        <ele>15.4</ele>
        <time>2023-10-15T07:50:51Z</time>
      </trkpt>
      <trkpt lat="49.11052" lon="0.00398">
        <ele>15.6</ele>
        <time>2023-10-15T07:50:52Z</time>
      </trkpt>
      <trkpt lat="49.11049" lon="0.00405">
        <ele>15.7</ele>
        <time>2023-10-15T07:50:53Z</time>
      </trkpt>
      <trkpt lat="49.11046" lon="0.00411">
        <ele>15.8</ele>
        <time>2023-10-15T07:50:54Z</time>
      </trkpt>
      <trkpt lat="49.11042" lon="0.00416">
        <ele>16</ele>
        <time>2023-10-15T07:50:55Z</time>
      </trkpt>
      <trkpt lat="49.11038" lon="0.00422">
        <ele>16.1</ele>
        <time>2023-10-15T07:50:56Z</time>
      </trkpt>
      <trkpt lat="49.11035" lon="0.00427">
        <ele>16.2</ele>
        <time>2023-10-15T07:50:57Z</time>
      </trkpt>
      <trkpt lat="49.11031" lon="0.00433">
        <ele>16.3</ele>
        <time>2023-10-15T07:50:58Z</time>
      </trkpt>
      <trkpt lat="49.11028" lon="0.0044">
        <ele>16.4</ele>
        <time>2023-10-15T07:50:59Z</time>
      </trkpt>
      <trkpt lat="49.11024" lon="0.00446">
        <ele>16.5</ele>
        <time>2023-10-15T07:51:00Z</time>
      </trkpt>
      <trkpt lat="49.1102" lon="0.00452">
        <ele>16.6</ele>
        <time>2023-10-15T07:51:01Z</time>
      </trkpt>
      <trkpt lat="49.11017" lon="0.00458">
        <ele>16.7</ele>
        <time>2023-10-15T07:51:02Z</time>
      </trkpt>
      <trkpt lat="49.11013" lon="0.00465">
        <ele>16.8</ele>
        <time>2023-10-15T07:51:03Z</time>
      </trkpt>
      <trkpt lat="49.11009" lon="0.00471">
        <ele>16.9</ele>
        <time>2023-10-15T07:51:04Z</time>
      </trkpt>
      <trkpt lat="49.11006" lon="0.00477">
        <ele>17</ele>
        <time>2023-10-15T07:51:05Z</time>
      </trkpt>
      <trkpt lat="49.11002" lon="0.00484">
        <ele>17.1</ele>
        <time>2023-10-15T07:51:06Z</time>
      </trkpt>
      <trkpt lat="49.10999" lon="0.00491">
        <ele>17.2</ele>
        <time>2023-10-15T07:51:07Z</time>
      </trkpt>
      <trkpt lat="49.10995" lon="0.00498">
        <ele>17.3</ele>
        <time>2023-10-15T07:51:08Z</time>
      </trkpt>
      <trkpt lat="49.10991" lon="0.00505">
        <ele>17.5</ele>
        <time>2023-10-15T07:51:09Z</time>
      </trkpt>
      <trkpt lat="49.10988" lon="0.00512">
        <ele>17.6</ele>
        <time>2023-10-15T07:51:10Z</time>
      </trkpt>
      <trkpt lat="49.10985" lon="0.00519">
        <ele>17.7</ele>
        <time>2023-10-15T07:51:11Z</time>
      </trkpt>
      <trkpt lat="49.10981" lon="0.00526">
        <ele>17.8</ele>
        <time>2023-10-15T07:51:12Z</time>
      </trkpt>
      <trkpt lat="49.10978" lon="0.00532">
        <ele>18</ele>
        <time>2023-10-15T07:51:13Z</time>
      </trkpt>
      <trkpt lat="49.10975" lon="0.00539">
        <ele>18.1</ele>
        <time>2023-10-15T07:51:14Z</time>
      </trkpt>
      <trkpt lat="49.10972" lon="0.00546">
        <ele>18.3</ele>
        <time>2023-10-15T07:51:15Z</time>
      </trkpt>
      <trkpt lat="49.10969" lon="0.00553">
        <ele>18.5</ele>
        <time>2023-10-15T07:51:16Z</time>
      </trkpt>
      <trkpt lat="49.10966" lon="0.0056">
        <ele>18.6</ele>
        <time>2023-10-15T07:51:17Z</time>
      </trkpt>
      <trkpt lat="49.10963" lon="0.00566">
        <ele>18.8</ele>
        <time>2023-10-15T07:51:18Z</time>
      </trkpt>
      <trkpt lat="49.1096" lon="0.00573">
        <ele>18.9</ele>
        <time>2023-10-15T07:51:19Z</time>
      </trkpt>
      <trkpt lat="49.10956" lon="0.0058">
        <ele>19.1</ele>
        <time>2023-10-15T07:51:20Z</time>
      </trkpt>
      <trkpt lat="49.10953" lon="0.00587">
        <ele>19.2</ele>
        <time>2023-10-15T07:51:21Z</time>
      </trkpt>
      <trkpt lat="49.10951" lon="0.00594">
        <ele>19.3</ele>
        <time>2023-10-15T07:51:22Z</time>
      </trkpt>
      <trkpt lat="49.10948" lon="0.00601">
        <ele>19.5</ele>
        <time>2023-10-15T07:51:23Z</time>
      </trkpt>
      <trkpt lat="49.10945" lon="0.00608">
        <ele>19.6</ele>
        <time>2023-10-15T07:51:24Z</time>
      </trkpt>
      <trkpt lat="49.10942" lon="0.00614">
        <ele>19.8</ele>
        <time>2023-10-15T07:51:25Z</time>
      </trkpt>
      <trkpt lat="49.10939" lon="0.00621">
        <ele>19.9</ele>
        <time>2023-10-15T07:51:26Z</time>
      </trkpt>
      <trkpt lat="49.10937" lon="0.00628">
        <ele>20.1</ele>
        <time>2023-10-15T07:51:27Z</time>
      </trkpt>
      <trkpt lat="49.10934" lon="0.00634">
        <ele>20.3</ele>
        <time>2023-10-15T07:51:28Z</time>
      </trkpt>
      <trkpt lat="49.10932" lon="0.00641">
        <ele>20.5</ele>
        <time>2023-10-15T07:51:29Z</time>
      </trkpt>
      <trkpt lat="49.1093" lon="0.00646">
        <ele>20.6</ele>
        <time>2023-10-15T07:51:30Z</time>
      </trkpt>
      <trkpt lat="49.10927" lon="0.00652">
        <ele>20.9</ele>
        <time>2023-10-15T07:51:31Z</time>
      </trkpt>
      <trkpt lat="49.10925" lon="0.00657">
        <ele>21.1</ele>
        <time>2023-10-15T07:51:32Z</time>
      </trkpt>
      <trkpt lat="49.10923" lon="0.00662">
        <ele>21.3</ele>
        <time>2023-10-15T07:51:33Z</time>
      </trkpt>
      <trkpt lat="49.10921" lon="0.00667">
        <ele>21.6</ele>
        <time>2023-10-15T07:51:34Z</time>
      </trkpt>
      <trkpt lat="49.1092" lon="0.00671">
        <ele>21.9</ele>
        <time>2023-10-15T07:51:35Z</time>
      </trkpt>
      <trkpt lat="49.10918" lon="0.00675">
        <ele>22.1</ele>
        <time>2023-10-15T07:51:36Z</time>
      </trkpt>
      <trkpt lat="49.10915" lon="0.00679">
        <ele>22.4</ele>
        <time>2023-10-15T07:51:37Z</time>
      </trkpt>
      <trkpt lat="49.10912" lon="0.00682">
        <ele>22.8</ele>
        <time>2023-10-15T07:51:38Z</time>
      </trkpt>
      <trkpt lat="49.10908" lon="0.00682">
        <ele>22.9</ele>
        <time>2023-10-15T07:51:39Z</time>
      </trkpt>
      <trkpt lat="49.10903" lon="0.00681">
        <ele>22.9</ele>
        <time>2023-10-15T07:51:40Z</time>
      </trkpt>
      <trkpt lat="49.10898" lon="0.00678">
        <ele>22.9</ele>
        <time>2023-10-15T07:51:41Z</time>
      </trkpt>
      <trkpt lat="49.10893" lon="0.00675">
        <ele>22.9</ele>
        <time>2023-10-15T07:51:42Z</time>
      </trkpt>
      <trkpt lat="49.10888" lon="0.00672">
        <ele>22.9</ele>
        <time>2023-10-15T07:51:43Z</time>
      </trkpt>
      <trkpt lat="49.10884" lon="0.00669">
        <ele>22.9</ele>
        <time>2023-10-15T07:51:44Z</time>
      </trkpt>
      <trkpt lat="49.10878" lon="0.00666">
        <ele>22.9</ele>
        <time>2023-10-15T07:51:45Z</time>
      </trkpt>
      <trkpt lat="49.10872" lon="0.00663">
        <ele>23</ele>
        <time>2023-10-15T07:51:46Z</time>
      </trkpt>
      <trkpt lat="49.10866" lon="0.0066">
        <ele>23</ele>
        <time>2023-10-15T07:51:47Z</time>
      </trkpt>
      <trkpt lat="49.10861" lon="0.00658">
        <ele>23</ele>
        <time>2023-10-15T07:51:48Z</time>
      </trkpt>
      <trkpt lat="49.10854" lon="0.00656">
        <ele>23.1</ele>
        <time>2023-10-15T07:51:49Z</time>
      </trkpt>
      <trkpt lat="49.10848" lon="0.00653">
        <ele>23.1</ele>
        <time>2023-10-15T07:51:50Z</time>
      </trkpt>
      <trkpt lat="49.10841" lon="0.00649">
        <ele>23.1</ele>
        <time>2023-10-15T07:51:51Z</time>
      </trkpt>
      <trkpt lat="49.10834" lon="0.00645">
        <ele>23.2</ele>
        <time>2023-10-15T07:51:52Z</time>
      </trkpt>
      <trkpt lat="49.10827" lon="0.00642">
        <ele>23.2</ele>
        <time>2023-10-15T07:51:53Z</time>
      </trkpt>
      <trkpt lat="49.10821" lon="0.00638">
        <ele>23.3</ele>
        <time>2023-10-15T07:51:54Z</time>
      </trkpt>
      <trkpt lat="49.10814" lon="0.00635">
        <ele>23.3</ele>
        <time>2023-10-15T07:51:55Z</time>
      </trkpt>
      <trkpt lat="49.10807" lon="0.00632">
        <ele>23.3</ele>
        <time>2023-10-15T07:51:56Z</time>
      </trkpt>
      <trkpt lat="49.108" lon="0.00629">
        <ele>23.4</ele>
        <time>2023-10-15T07:51:57Z</time>
      </trkpt>
      <trkpt lat="49.10793" lon="0.00626">
        <ele>23.4</ele>
        <time>2023-10-15T07:51:58Z</time>
      </trkpt>
      <trkpt lat="49.10786" lon="0.00622">
        <ele>23.4</ele>
        <time>2023-10-15T07:51:59Z</time>
      </trkpt>
      <trkpt lat="49.1078" lon="0.0062">
        <ele>23.5</ele>
        <time>2023-10-15T07:52:00Z</time>
      </trkpt>
      <trkpt lat="49.10772" lon="0.00616">
        <ele>23.5</ele>
        <time>2023-10-15T07:52:01Z</time>
      </trkpt>
      <trkpt lat="49.10766" lon="0.00613">
        <ele>23.5</ele>
        <time>2023-10-15T07:52:02Z</time>
      </trkpt>
      <trkpt lat="49.10758" lon="0.00609">
        <ele>23.5</ele>
        <time>2023-10-15T07:52:03Z</time>
      </trkpt>
      <trkpt lat="49.10752" lon="0.00606">
        <ele>23.5</ele>
        <time>2023-10-15T07:52:04Z</time>
      </trkpt>
      <trkpt lat="49.10745" lon="0.00603">
        <ele>23.5</ele>
        <time>2023-10-15T07:52:05Z</time>
      </trkpt>
      <trkpt lat="49.10737" lon="0.006">
        <ele>23.4</ele>
        <time>2023-10-15T07:52:06Z</time>
      </trkpt>
      <trkpt lat="49.1073" lon="0.00596">
        <ele>23.3</ele>
        <time>2023-10-15T07:52:07Z</time>
      </trkpt>
      <trkpt lat="49.10723" lon="0.00593">
        <ele>23.2</ele>
        <time>2023-10-15T07:52:08Z</time>
      </trkpt>
      <trkpt lat="49.10715" lon="0.00589">
        <ele>23.1</ele>
        <time>2023-10-15T07:52:09Z</time>
      </trkpt>
      <trkpt lat="49.10708" lon="0.00585">
        <ele>23</ele>
        <time>2023-10-15T07:52:10Z</time>
      </trkpt>
      <trkpt lat="49.107" lon="0.00581">
        <ele>22.9</ele>
        <time>2023-10-15T07:52:11Z</time>
      </trkpt>
      <trkpt lat="49.10692" lon="0.00576">
        <ele>22.8</ele>
        <time>2023-10-15T07:52:12Z</time>
      </trkpt>
      <trkpt lat="49.10684" lon="0.00572">
        <ele>22.6</ele>
        <time>2023-10-15T07:52:13Z</time>
      </trkpt>
      <trkpt lat="49.10675" lon="0.00568">
        <ele>22.5</ele>
        <time>2023-10-15T07:52:14Z</time>
      </trkpt>
      <trkpt lat="49.10667" lon="0.00564">
        <ele>22.3</ele>
        <time>2023-10-15T07:52:15Z</time>
      </trkpt>
      <trkpt lat="49.10659" lon="0.0056">
        <ele>22.2</ele>
        <time>2023-10-15T07:52:16Z</time>
      </trkpt>
      <trkpt lat="49.1065" lon="0.00556">
        <ele>22.1</ele>
        <time>2023-10-15T07:52:17Z</time>
      </trkpt>
      <trkpt lat="49.10642" lon="0.00552">
        <ele>22</ele>
        <time>2023-10-15T07:52:18Z</time>
      </trkpt>
      <trkpt lat="49.10634" lon="0.00548">
        <ele>21.8</ele>
        <time>2023-10-15T07:52:19Z</time>
      </trkpt>
      <trkpt lat="49.10625" lon="0.00544">
        <ele>21.7</ele>
        <time>2023-10-15T07:52:20Z</time>
      </trkpt>
      <trkpt lat="49.10617" lon="0.0054">
        <ele>21.5</ele>
        <time>2023-10-15T07:52:21Z</time>
      </trkpt>
      <trkpt lat="49.10609" lon="0.00536">
        <ele>21.3</ele>
        <time>2023-10-15T07:52:22Z</time>
      </trkpt>
      <trkpt lat="49.10601" lon="0.00532">
        <ele>21.1</ele>
        <time>2023-10-15T07:52:23Z</time>
      </trkpt>
      <trkpt lat="49.10592" lon="0.00527">
        <ele>20.9</ele>
        <time>2023-10-15T07:52:24Z</time>
      </trkpt>
      <trkpt lat="49.10584" lon="0.00523">
        <ele>20.7</ele>
        <time>2023-10-15T07:52:25Z</time>
      </trkpt>
      <trkpt lat="49.10575" lon="0.00519">
        <ele>20.5</ele>
        <time>2023-10-15T07:52:26Z</time>
      </trkpt>
      <trkpt lat="49.10567" lon="0.00516">
        <ele>20.3</ele>
        <time>2023-10-15T07:52:27Z</time>
      </trkpt>
      <trkpt lat="49.10558" lon="0.00512">
        <ele>20.1</ele>
        <time>2023-10-15T07:52:28Z</time>
      </trkpt>
      <trkpt lat="49.1055" lon="0.00509">
        <ele>19.8</ele>
        <time>2023-10-15T07:52:29Z</time>
      </trkpt>
      <trkpt lat="49.10541" lon="0.00505">
        <ele>19.6</ele>
        <time>2023-10-15T07:52:30Z</time>
      </trkpt>
      <trkpt lat="49.10533" lon="0.005">
        <ele>19.4</ele>
        <time>2023-10-15T07:52:31Z</time>
      </trkpt>
      <trkpt lat="49.10525" lon="0.00496">
        <ele>19.1</ele>
        <time>2023-10-15T07:52:32Z</time>
      </trkpt>
      <trkpt lat="49.10517" lon="0.00493">
        <ele>18.9</ele>
        <time>2023-10-15T07:52:33Z</time>
      </trkpt>
      <trkpt lat="49.10509" lon="0.00489">
        <ele>18.6</ele>
        <time>2023-10-15T07:52:34Z</time>
      </trkpt>
      <trkpt lat="49.10501" lon="0.00486">
        <ele>18.5</ele>
        <time>2023-10-15T07:52:35Z</time>
      </trkpt>
      <trkpt lat="49.10493" lon="0.00482">
        <ele>18.3</ele>
        <time>2023-10-15T07:52:36Z</time>
      </trkpt>
      <trkpt lat="49.10485" lon="0.00478">
        <ele>18.1</ele>
        <time>2023-10-15T07:52:37Z</time>
      </trkpt>
      <trkpt lat="49.10477" lon="0.00474">
        <ele>17.8</ele>
        <time>2023-10-15T07:52:38Z</time>
      </trkpt>
      <trkpt lat="49.10469" lon="0.0047">
        <ele>17.6</ele>
        <time>2023-10-15T07:52:39Z</time>
      </trkpt>
      <trkpt lat="49.10461" lon="0.00467">
        <ele>17.4</ele>
        <time>2023-10-15T07:52:40Z</time>
      </trkpt>
      <trkpt lat="49.10453" lon="0.00463">
        <ele>17.2</ele>
        <time>2023-10-15T07:52:41Z</time>
      </trkpt>
      <trkpt lat="49.10444" lon="0.00459">
        <ele>17</ele>
        <time>2023-10-15T07:52:42Z</time>
      </trkpt>
      <trkpt lat="49.10436" lon="0.00455">
        <ele>16.9</ele>
        <time>2023-10-15T07:52:43Z</time>
      </trkpt>
      <trkpt lat="49.10427" lon="0.00451">
        <ele>16.8</ele>
        <time>2023-10-15T07:52:44Z</time>
      </trkpt>
      <trkpt lat="49.10419" lon="0.00447">
        <ele>16.6</ele>
        <time>2023-10-15T07:52:45Z</time>
      </trkpt>
      <trkpt lat="49.1041" lon="0.00443">
        <ele>16.5</ele>
        <time>2023-10-15T07:52:46Z</time>
      </trkpt>
      <trkpt lat="49.10401" lon="0.00438">
        <ele>16.4</ele>
        <time>2023-10-15T07:52:47Z</time>
      </trkpt>
      <trkpt lat="49.10392" lon="0.00434">
        <ele>16.3</ele>
        <time>2023-10-15T07:52:48Z</time>
      </trkpt>
      <trkpt lat="49.10383" lon="0.0043">
        <ele>16.2</ele>
        <time>2023-10-15T07:52:49Z</time>
      </trkpt>
      <trkpt lat="49.10374" lon="0.00425">
        <ele>16.1</ele>
        <time>2023-10-15T07:52:50Z</time>
      </trkpt>
      <trkpt lat="49.10365" lon="0.00421">
        <ele>16.1</ele>
        <time>2023-10-15T07:52:51Z</time>
      </trkpt>
      <trkpt lat="49.10356" lon="0.00417">
        <ele>16</ele>
        <time>2023-10-15T07:52:52Z</time>
      </trkpt>
      <trkpt lat="49.10347" lon="0.00413">
        <ele>15.9</ele>
        <time>2023-10-15T07:52:53Z</time>
      </trkpt>
      <trkpt lat="49.10338" lon="0.00409">
        <ele>15.8</ele>
        <time>2023-10-15T07:52:54Z</time>
      </trkpt>
      <trkpt lat="49.1033" lon="0.00405">
        <ele>15.7</ele>
        <time>2023-10-15T07:52:55Z</time>
      </trkpt>
      <trkpt lat="49.10322" lon="0.004">
        <ele>15.6</ele>
        <time>2023-10-15T07:52:56Z</time>
      </trkpt>
      <trkpt lat="49.10314" lon="0.00397">
        <ele>15.5</ele>
        <time>2023-10-15T07:52:57Z</time>
      </trkpt>
      <trkpt lat="49.10306" lon="0.00393">
        <ele>15.4</ele>
        <time>2023-10-15T07:52:58Z</time>
      </trkpt>
      <trkpt lat="49.10297" lon="0.00389">
        <ele>15.3</ele>
        <time>2023-10-15T07:52:59Z</time>
      </trkpt>
      <trkpt lat="49.10289" lon="0.00386">
        <ele>15.3</ele>
        <time>2023-10-15T07:53:00Z</time>
      </trkpt>
      <trkpt lat="49.10281" lon="0.00383">
        <ele>15.2</ele>
        <time>2023-10-15T07:53:01Z</time>
      </trkpt>
      <trkpt lat="49.10274" lon="0.0038">
        <ele>15.2</ele>
        <time>2023-10-15T07:53:02Z</time>
      </trkpt>
      <trkpt lat="49.10266" lon="0.00376">
        <ele>15.1</ele>
        <time>2023-10-15T07:53:03Z</time>
      </trkpt>
      <trkpt lat="49.10259" lon="0.00372">
        <ele>15.1</ele>
        <time>2023-10-15T07:53:04Z</time>
      </trkpt>
      <trkpt lat="49.10252" lon="0.00368">
        <ele>15</ele>
        <time>2023-10-15T07:53:05Z</time>
      </trkpt>
      <trkpt lat="49.10245" lon="0.00364">
        <ele>15</ele>
        <time>2023-10-15T07:53:06Z</time>
      </trkpt>
      <trkpt lat="49.10238" lon="0.00361">
        <ele>14.9</ele>
        <time>2023-10-15T07:53:07Z</time>
      </trkpt>
      <trkpt lat="49.10232" lon="0.00358">
        <ele>14.9</ele>
        <time>2023-10-15T07:53:08Z</time>
      </trkpt>
      <trkpt lat="49.10226" lon="0.00356">
        <ele>14.9</ele>
        <time>2023-10-15T07:53:09Z</time>
      </trkpt>
      <trkpt lat="49.10221" lon="0.00354">
        <ele>14.8</ele>
        <time>2023-10-15T07:53:10Z</time>
      </trkpt>
      <trkpt lat="49.10215" lon="0.00352">
        <ele>14.7</ele>
        <time>2023-10-15T07:53:11Z</time>
      </trkpt>
      <trkpt lat="49.1021" lon="0.00351">
        <ele>14.7</ele>
        <time>2023-10-15T07:53:12Z</time>
      </trkpt>
      <trkpt lat="49.10203" lon="0.00353">
        <ele>14.5</ele>
        <time>2023-10-15T07:53:13Z</time>
      </trkpt>
      <trkpt lat="49.10198" lon="0.00359">
        <ele>14.3</ele>
        <time>2023-10-15T07:53:14Z</time>
      </trkpt>
      <trkpt lat="49.10193" lon="0.00369">
        <ele>14</ele>
        <time>2023-10-15T07:53:15Z</time>
      </trkpt>
      <trkpt lat="49.10188" lon="0.00378">
        <ele>13.8</ele>
        <time>2023-10-15T07:53:16Z</time>
      </trkpt>
      <trkpt lat="49.10183" lon="0.00386">
        <ele>13.7</ele>
        <time>2023-10-15T07:53:17Z</time>
      </trkpt>
      <trkpt lat="49.10178" lon="0.00395">
        <ele>13.6</ele>
        <time>2023-10-15T07:53:18Z</time>
      </trkpt>
      <trkpt lat="49.10173" lon="0.00404">
        <ele>13.5</ele>
        <time>2023-10-15T07:53:19Z</time>
      </trkpt>
      <trkpt lat="49.10167" lon="0.00414">
        <ele>13.4</ele>
        <time>2023-10-15T07:53:20Z</time>
      </trkpt>
      <trkpt lat="49.10161" lon="0.00423">
        <ele>13.4</ele>
        <time>2023-10-15T07:53:21Z</time>
      </trkpt>
      <trkpt lat="49.10156" lon="0.00433">
        <ele>13.4</ele>
        <time>2023-10-15T07:53:22Z</time>
      </trkpt>
      <trkpt lat="49.1015" lon="0.00443">
        <ele>13.3</ele>
        <time>2023-10-15T07:53:23Z</time>
      </trkpt>
      <trkpt lat="49.10145" lon="0.00452">
        <ele>13.3</ele>
        <time>2023-10-15T07:53:24Z</time>
      </trkpt>
      <trkpt lat="49.1014" lon="0.00462">
        <ele>13.2</ele>
        <time>2023-10-15T07:53:25Z</time>
      </trkpt>
      <trkpt lat="49.10135" lon="0.00471">
        <ele>13.2</ele>
        <time>2023-10-15T07:53:26Z</time>
      </trkpt>
      <trkpt lat="49.1013" lon="0.00481">
        <ele>13.2</ele>
        <time>2023-10-15T07:53:27Z</time>
      </trkpt>
      <trkpt lat="49.10125" lon="0.00491">
        <ele>13.2</ele>
        <time>2023-10-15T07:53:28Z</time>
      </trkpt>
      <trkpt lat="49.1012" lon="0.00501">
        <ele>13.2</ele>
        <time>2023-10-15T07:53:29Z</time>
      </trkpt>
      <trkpt lat="49.10115" lon="0.0051">
        <ele>13.2</ele>
        <time>2023-10-15T07:53:30Z</time>
      </trkpt>
      <trkpt lat="49.1011" lon="0.0052">
        <ele>13.2</ele>
        <time>2023-10-15T07:53:31Z</time>
      </trkpt>
      <trkpt lat="49.10105" lon="0.0053">
        <ele>13.3</ele>
        <time>2023-10-15T07:53:32Z</time>
      </trkpt>
      <trkpt lat="49.10099" lon="0.00539">
        <ele>13.3</ele>
        <time>2023-10-15T07:53:33Z</time>
      </trkpt>
      <trkpt lat="49.10094" lon="0.00548">
        <ele>13.3</ele>
        <time>2023-10-15T07:53:34Z</time>
      </trkpt>
      <trkpt lat="49.10089" lon="0.00558">
        <ele>13.4</ele>
        <time>2023-10-15T07:53:35Z</time>
      </trkpt>
      <trkpt lat="49.10083" lon="0.00567">
        <ele>13.4</ele>
        <time>2023-10-15T07:53:36Z</time>
      </trkpt>
      <trkpt lat="49.10078" lon="0.00576">
        <ele>13.5</ele>
        <time>2023-10-15T07:53:37Z</time>
      </trkpt>
      <trkpt lat="49.10073" lon="0.00585">
        <ele>13.5</ele>
        <time>2023-10-15T07:53:38Z</time>
      </trkpt>
      <trkpt lat="49.10068" lon="0.00595">
        <ele>13.5</ele>
        <time>2023-10-15T07:53:39Z</time>
      </trkpt>
      <trkpt lat="49.10063" lon="0.00604">
        <ele>13.5</ele>
        <time>2023-10-15T07:53:40Z</time>
      </trkpt>
      <trkpt lat="49.10058" lon="0.00614">
        <ele>13.6</ele>
        <time>2023-10-15T07:53:41Z</time>
      </trkpt>
      <trkpt lat="49.10052" lon="0.00623">
        <ele>13.6</ele>
        <time>2023-10-15T07:53:42Z</time>
      </trkpt>
      <trkpt lat="49.10047" lon="0.00633">
        <ele>13.7</ele>
        <time>2023-10-15T07:53:43Z</time>
      </trkpt>
      <trkpt lat="49.10042" lon="0.00643">
        <ele>13.7</ele>
        <time>2023-10-15T07:53:44Z</time>
      </trkpt>
      <trkpt lat="49.10037" lon="0.00653">
        <ele>13.8</ele>
        <time>2023-10-15T07:53:45Z</time>
      </trkpt>
      <trkpt lat="49.10032" lon="0.00663">
        <ele>13.8</ele>
        <time>2023-10-15T07:53:46Z</time>
      </trkpt>
      <trkpt lat="49.10026" lon="0.00673">
        <ele>13.8</ele>
        <time>2023-10-15T07:53:47Z</time>
      </trkpt>
      <trkpt lat="49.10021" lon="0.00682">
        <ele>13.8</ele>
        <time>2023-10-15T07:53:48Z</time>
      </trkpt>
      <trkpt lat="49.10016" lon="0.00692">
        <ele>13.9</ele>
        <time>2023-10-15T07:53:49Z</time>
      </trkpt>
      <trkpt lat="49.10011" lon="0.00701">
        <ele>13.9</ele>
        <time>2023-10-15T07:53:50Z</time>
      </trkpt>
      <trkpt lat="49.10006" lon="0.0071">
        <ele>14</ele>
        <time>2023-10-15T07:53:51Z</time>
      </trkpt>
      <trkpt lat="49.1" lon="0.0072">
        <ele>14</ele>
        <time>2023-10-15T07:53:52Z</time>
      </trkpt>
      <trkpt lat="49.09994" lon="0.0073">
        <ele>14.1</ele>
        <time>2023-10-15T07:53:53Z</time>
      </trkpt>
      <trkpt lat="49.09989" lon="0.00739">
        <ele>14.1</ele>
        <time>2023-10-15T07:53:54Z</time>
      </trkpt>
      <trkpt lat="49.09984" lon="0.00749">
        <ele>14.1</ele>
        <time>2023-10-15T07:53:55Z</time>
      </trkpt>
      <trkpt lat="49.09979" lon="0.00759">
        <ele>14.2</ele>
        <time>2023-10-15T07:53:56Z</time>
      </trkpt>
      <trkpt lat="49.09974" lon="0.00768">
        <ele>14.2</ele>
        <time>2023-10-15T07:53:57Z</time>
      </trkpt>
      <trkpt lat="49.09969" lon="0.00778">
        <ele>14.2</ele>
        <time>2023-10-15T07:53:58Z</time>
      </trkpt>
      <trkpt lat="49.09964" lon="0.00788">
        <ele>14.3</ele>
        <time>2023-10-15T07:53:59Z</time>
      </trkpt>
      <trkpt lat="49.09958" lon="0.00797">
        <ele>14.3</ele>
        <time>2023-10-15T07:54:00Z</time>
      </trkpt>
      <trkpt lat="49.09953" lon="0.00807">
        <ele>14.4</ele>
        <time>2023-10-15T07:54:01Z</time>
      </trkpt>
      <trkpt lat="49.09948" lon="0.00816">
        <ele>14.5</ele>
        <time>2023-10-15T07:54:02Z</time>
      </trkpt>
      <trkpt lat="49.09943" lon="0.00826">
        <ele>14.5</ele>
        <time>2023-10-15T07:54:03Z</time>
      </trkpt>
      <trkpt lat="49.09938" lon="0.00835">
        <ele>14.6</ele>
        <time>2023-10-15T07:54:04Z</time>
      </trkpt>
      <trkpt lat="49.09932" lon="0.00845">
        <ele>14.6</ele>
        <time>2023-10-15T07:54:05Z</time>
      </trkpt>
      <trkpt lat="49.09927" lon="0.00854">
        <ele>14.7</ele>
        <time>2023-10-15T07:54:06Z</time>
      </trkpt>
      <trkpt lat="49.09922" lon="0.00864">
        <ele>14.7</ele>
        <time>2023-10-15T07:54:07Z</time>
      </trkpt>
      <trkpt lat="49.09917" lon="0.00873">
        <ele>14.8</ele>
        <time>2023-10-15T07:54:08Z</time>
      </trkpt>
      <trkpt lat="49.09912" lon="0.00883">
        <ele>14.8</ele>
        <time>2023-10-15T07:54:09Z</time>
      </trkpt>
      <trkpt lat="49.09906" lon="0.00893">
        <ele>14.9</ele>
        <time>2023-10-15T07:54:10Z</time>
      </trkpt>
      <trkpt lat="49.09901" lon="0.00902">
        <ele>14.9</ele>
        <time>2023-10-15T07:54:11Z</time>
      </trkpt>
      <trkpt lat="49.09896" lon="0.00912">
        <ele>15</ele>
        <time>2023-10-15T07:54:12Z</time>
      </trkpt>
      <trkpt lat="49.0989" lon="0.00922">
        <ele>15</ele>
        <time>2023-10-15T07:54:13Z</time>
      </trkpt>
      <trkpt lat="49.09885" lon="0.00931">
        <ele>15.1</ele>
        <time>2023-10-15T07:54:14Z</time>
      </trkpt>
      <trkpt lat="49.0988" lon="0.00941">
        <ele>15.1</ele>
        <time>2023-10-15T07:54:15Z</time>
      </trkpt>
      <trkpt lat="49.09874" lon="0.00951">
        <ele>15.1</ele>
        <time>2023-10-15T07:54:16Z</time>
      </trkpt>
      <trkpt lat="49.09869" lon="0.00961">
        <ele>15.1</ele>
        <time>2023-10-15T07:54:17Z</time>
      </trkpt>
      <trkpt lat="49.09864" lon="0.00971">
        <ele>15.2</ele>
        <time>2023-10-15T07:54:18Z</time>
      </trkpt>
      <trkpt lat="49.09859" lon="0.0098">
        <ele>15.2</ele>
        <time>2023-10-15T07:54:19Z</time>
      </trkpt>
      <trkpt lat="49.09854" lon="0.00989">
        <ele>15.3</ele>
        <time>2023-10-15T07:54:20Z</time>
      </trkpt>
      <trkpt lat="49.09849" lon="0.00999">
        <ele>15.3</ele>
        <time>2023-10-15T07:54:21Z</time>
      </trkpt>
      <trkpt lat="49.09843" lon="0.01009">
        <ele>15.4</ele>
        <time>2023-10-15T07:54:22Z</time>
      </trkpt>
      <trkpt lat="49.09838" lon="0.01019">
        <ele>15.4</ele>
        <time>2023-10-15T07:54:23Z</time>
      </trkpt>
      <trkpt lat="49.09832" lon="0.01029">
        <ele>15.5</ele>
        <time>2023-10-15T07:54:24Z</time>
      </trkpt>
      <trkpt lat="49.09827" lon="0.01039">
        <ele>15.5</ele>
        <time>2023-10-15T07:54:25Z</time>
      </trkpt>
      <trkpt lat="49.09822" lon="0.01049">
        <ele>15.6</ele>
        <time>2023-10-15T07:54:26Z</time>
      </trkpt>
      <trkpt lat="49.09816" lon="0.0106">
        <ele>15.6</ele>
        <time>2023-10-15T07:54:27Z</time>
      </trkpt>
      <trkpt lat="49.0981" lon="0.0107">
        <ele>15.7</ele>
        <time>2023-10-15T07:54:28Z</time>
      </trkpt>
      <trkpt lat="49.09805" lon="0.01081">
        <ele>15.8</ele>
        <time>2023-10-15T07:54:29Z</time>
      </trkpt>
      <trkpt lat="49.098" lon="0.0109">
        <ele>15.8</ele>
        <time>2023-10-15T07:54:30Z</time>
      </trkpt>
      <trkpt lat="49.09794" lon="0.011">
        <ele>15.8</ele>
        <time>2023-10-15T07:54:31Z</time>
      </trkpt>
      <trkpt lat="49.09789" lon="0.01109">
        <ele>15.8</ele>
        <time>2023-10-15T07:54:32Z</time>
      </trkpt>
      <trkpt lat="49.09783" lon="0.01119">
        <ele>15.8</ele>
        <time>2023-10-15T07:54:33Z</time>
      </trkpt>
      <trkpt lat="49.09778" lon="0.01129">
        <ele>15.8</ele>
        <time>2023-10-15T07:54:34Z</time>
      </trkpt>
      <trkpt lat="49.09773" lon="0.01139">
        <ele>15.9</ele>
        <time>2023-10-15T07:54:35Z</time>
      </trkpt>
      <trkpt lat="49.09767" lon="0.01149">
        <ele>15.9</ele>
        <time>2023-10-15T07:54:36Z</time>
      </trkpt>
      <trkpt lat="49.09762" lon="0.01158">
        <ele>15.9</ele>
        <time>2023-10-15T07:54:37Z</time>
      </trkpt>
      <trkpt lat="49.09756" lon="0.01168">
        <ele>15.9</ele>
        <time>2023-10-15T07:54:38Z</time>
      </trkpt>
      <trkpt lat="49.09751" lon="0.01177">
        <ele>16</ele>
        <time>2023-10-15T07:54:39Z</time>
      </trkpt>
      <trkpt lat="49.09745" lon="0.01187">
        <ele>16</ele>
        <time>2023-10-15T07:54:40Z</time>
      </trkpt>
      <trkpt lat="49.0974" lon="0.01197">
        <ele>16</ele>
        <time>2023-10-15T07:54:41Z</time>
      </trkpt>
      <trkpt lat="49.09735" lon="0.01207">
        <ele>16.1</ele>
        <time>2023-10-15T07:54:42Z</time>
      </trkpt>
      <trkpt lat="49.09729" lon="0.01217">
        <ele>16.1</ele>
        <time>2023-10-15T07:54:43Z</time>
      </trkpt>
      <trkpt lat="49.09724" lon="0.01227">
        <ele>16.1</ele>
        <time>2023-10-15T07:54:44Z</time>
      </trkpt>
      <trkpt lat="49.09719" lon="0.01237">
        <ele>16.1</ele>
        <time>2023-10-15T07:54:45Z</time>
      </trkpt>
      <trkpt lat="49.09714" lon="0.01247">
        <ele>16.1</ele>
        <time>2023-10-15T07:54:46Z</time>
      </trkpt>
      <trkpt lat="49.09708" lon="0.01257">
        <ele>16.1</ele>
        <time>2023-10-15T07:54:47Z</time>
      </trkpt>
      <trkpt lat="49.09703" lon="0.01267">
        <ele>16.1</ele>
        <time>2023-10-15T07:54:48Z</time>
      </trkpt>
      <trkpt lat="49.09697" lon="0.01277">
        <ele>16.1</ele>
        <time>2023-10-15T07:54:49Z</time>
      </trkpt>
      <trkpt lat="49.09692" lon="0.01287">
        <ele>16.1</ele>
        <time>2023-10-15T07:54:50Z</time>
      </trkpt>
      <trkpt lat="49.09686" lon="0.01297">
        <ele>16.1</ele>
        <time>2023-10-15T07:54:51Z</time>
      </trkpt>
      <trkpt lat="49.09681" lon="0.01307">
        <ele>16.1</ele>
        <time>2023-10-15T07:54:52Z</time>
      </trkpt>
      <trkpt lat="49.09675" lon="0.01317">
        <ele>16.2</ele>
        <time>2023-10-15T07:54:53Z</time>
      </trkpt>
      <trkpt lat="49.0967" lon="0.01327">
        <ele>16.2</ele>
        <time>2023-10-15T07:54:54Z</time>
      </trkpt>
      <trkpt lat="49.09665" lon="0.01336">
        <ele>16.2</ele>
        <time>2023-10-15T07:54:55Z</time>
      </trkpt>
      <trkpt lat="49.09659" lon="0.01346">
        <ele>16.2</ele>
        <time>2023-10-15T07:54:56Z</time>
      </trkpt>
      <trkpt lat="49.09654" lon="0.01356">
        <ele>16.3</ele>
        <time>2023-10-15T07:54:57Z</time>
      </trkpt>
      <trkpt lat="49.09648" lon="0.01366">
        <ele>16.3</ele>
        <time>2023-10-15T07:54:58Z</time>
      </trkpt>
      <trkpt lat="49.09643" lon="0.01376">
        <ele>16.3</ele>
        <time>2023-10-15T07:54:59Z</time>
      </trkpt>
      <trkpt lat="49.09638" lon="0.01386">
        <ele>16.3</ele>
        <time>2023-10-15T07:55:00Z</time>
      </trkpt>
      <trkpt lat="49.09632" lon="0.01396">
        <ele>16.4</ele>
        <time>2023-10-15T07:55:01Z</time>
      </trkpt>
      <trkpt lat="49.09627" lon="0.01405">
        <ele>16.4</ele>
        <time>2023-10-15T07:55:02Z</time>
      </trkpt>
      <trkpt lat="49.09622" lon="0.01415">
        <ele>16.5</ele>
        <time>2023-10-15T07:55:03Z</time>
      </trkpt>
      <trkpt lat="49.09617" lon="0.01425">
        <ele>16.5</ele>
        <time>2023-10-15T07:55:04Z</time>
      </trkpt>
      <trkpt lat="49.09611" lon="0.01435">
        <ele>16.5</ele>
        <time>2023-10-15T07:55:05Z</time>
      </trkpt>
      <trkpt lat="49.09606" lon="0.01444">
        <ele>16.5</ele>
        <time>2023-10-15T07:55:06Z</time>
      </trkpt>
      <trkpt lat="49.09601" lon="0.01455">
        <ele>16.5</ele>
        <time>2023-10-15T07:55:07Z</time>
      </trkpt>
      <trkpt lat="49.09595" lon="0.01465">
        <ele>16.5</ele>
        <time>2023-10-15T07:55:08Z</time>
      </trkpt>
      <trkpt lat="49.0959" lon="0.01475">
        <ele>16.5</ele>
        <time>2023-10-15T07:55:09Z</time>
      </trkpt>
      <trkpt lat="49.09585" lon="0.01485">
        <ele>16.5</ele>
        <time>2023-10-15T07:55:10Z</time>
      </trkpt>
      <trkpt lat="49.09579" lon="0.01495">
        <ele>16.5</ele>
        <time>2023-10-15T07:55:11Z</time>
      </trkpt>
      <trkpt lat="49.09574" lon="0.01504">
        <ele>16.6</ele>
        <time>2023-10-15T07:55:12Z</time>
      </trkpt>
      <trkpt lat="49.09569" lon="0.01514">
        <ele>16.6</ele>
        <time>2023-10-15T07:55:13Z</time>
      </trkpt>
      <trkpt lat="49.09563" lon="0.01523">
        <ele>16.6</ele>
        <time>2023-10-15T07:55:14Z</time>
      </trkpt>
      <trkpt lat="49.09557" lon="0.01533">
        <ele>16.6</ele>
        <time>2023-10-15T07:55:15Z</time>
      </trkpt>
      <trkpt lat="49.09551" lon="0.01543">
        <ele>16.6</ele>
        <time>2023-10-15T07:55:16Z</time>
      </trkpt>
      <trkpt lat="49.09546" lon="0.01552">
        <ele>16.6</ele>
        <time>2023-10-15T07:55:17Z</time>
      </trkpt>
      <trkpt lat="49.0954" lon="0.01561">
        <ele>16.7</ele>
        <time>2023-10-15T07:55:18Z</time>
      </trkpt>
      <trkpt lat="49.09534" lon="0.0157">
        <ele>16.7</ele>
        <time>2023-10-15T07:55:19Z</time>
      </trkpt>
      <trkpt lat="49.09527" lon="0.01578">
        <ele>16.7</ele>
        <time>2023-10-15T07:55:20Z</time>
      </trkpt>
      <trkpt lat="49.09521" lon="0.01587">
        <ele>16.7</ele>
        <time>2023-10-15T07:55:21Z</time>
      </trkpt>
      <trkpt lat="49.09514" lon="0.01594">
        <ele>16.8</ele>
        <time>2023-10-15T07:55:22Z</time>
      </trkpt>
      <trkpt lat="49.09507" lon="0.01602">
        <ele>16.8</ele>
        <time>2023-10-15T07:55:23Z</time>
      </trkpt>
      <trkpt lat="49.095" lon="0.0161">
        <ele>16.8</ele>
        <time>2023-10-15T07:55:24Z</time>
      </trkpt>
      <trkpt lat="49.09493" lon="0.01618">
        <ele>16.8</ele>
        <time>2023-10-15T07:55:25Z</time>
      </trkpt>
      <trkpt lat="49.09486" lon="0.01626">
        <ele>16.8</ele>
        <time>2023-10-15T07:55:26Z</time>
      </trkpt>
      <trkpt lat="49.09478" lon="0.01633">
        <ele>16.8</ele>
        <time>2023-10-15T07:55:27Z</time>
      </trkpt>
      <trkpt lat="49.09471" lon="0.0164">
        <ele>16.8</ele>
        <time>2023-10-15T07:55:28Z</time>
      </trkpt>
      <trkpt lat="49.09464" lon="0.01647">
        <ele>16.8</ele>
        <time>2023-10-15T07:55:29Z</time>
      </trkpt>
      <trkpt lat="49.09457" lon="0.01653">
        <ele>16.8</ele>
        <time>2023-10-15T07:55:30Z</time>
      </trkpt>
      <trkpt lat="49.09449" lon="0.01659">
        <ele>16.8</ele>
        <time>2023-10-15T07:55:31Z</time>
      </trkpt>
      <trkpt lat="49.09441" lon="0.01665">
        <ele>16.8</ele>
        <time>2023-10-15T07:55:32Z</time>
      </trkpt>
      <trkpt lat="49.09433" lon="0.01671">
        <ele>16.8</ele>
        <time>2023-10-15T07:55:33Z</time>
      </trkpt>
      <trkpt lat="49.09425" lon="0.01677">
        <ele>16.8</ele>
        <time>2023-10-15T07:55:34Z</time>
      </trkpt>
      <trkpt lat="49.09416" lon="0.01682">
        <ele>16.7</ele>
        <time>2023-10-15T07:55:35Z</time>
      </trkpt>
      <trkpt lat="49.09408" lon="0.01687">
        <ele>16.7</ele>
        <time>2023-10-15T07:55:36Z</time>
      </trkpt>
      <trkpt lat="49.09399" lon="0.01692">
        <ele>16.7</ele>
        <time>2023-10-15T07:55:37Z</time>
      </trkpt>
      <trkpt lat="49.09391" lon="0.01697">
        <ele>16.7</ele>
        <time>2023-10-15T07:55:38Z</time>
      </trkpt>
      <trkpt lat="49.09383" lon="0.01701">
        <ele>16.6</ele>
        <time>2023-10-15T07:55:39Z</time>
      </trkpt>
      <trkpt lat="49.09375" lon="0.01705">
        <ele>16.6</ele>
        <time>2023-10-15T07:55:40Z</time>
      </trkpt>
      <trkpt lat="49.09367" lon="0.0171">
        <ele>16.6</ele>
        <time>2023-10-15T07:55:41Z</time>
      </trkpt>
      <trkpt lat="49.09358" lon="0.01713">
        <ele>16.6</ele>
        <time>2023-10-15T07:55:42Z</time>
      </trkpt>
      <trkpt lat="49.0935" lon="0.01717">
        <ele>16.6</ele>
        <time>2023-10-15T07:55:43Z</time>
      </trkpt>
      <trkpt lat="49.09342" lon="0.01721">
        <ele>16.6</ele>
        <time>2023-10-15T07:55:44Z</time>
      </trkpt>
      <trkpt lat="49.09334" lon="0.01725">
        <ele>16.7</ele>
        <time>2023-10-15T07:55:45Z</time>
      </trkpt>
      <trkpt lat="49.09325" lon="0.0173">
        <ele>16.7</ele>
        <time>2023-10-15T07:55:46Z</time>
      </trkpt>
      <trkpt lat="49.09317" lon="0.01734">
        <ele>16.7</ele>
        <time>2023-10-15T07:55:47Z</time>
      </trkpt>
      <trkpt lat="49.09309" lon="0.01738">
        <ele>16.6</ele>
        <time>2023-10-15T07:55:48Z</time>
      </trkpt>
      <trkpt lat="49.09301" lon="0.01741">
        <ele>16.6</ele>
        <time>2023-10-15T07:55:49Z</time>
      </trkpt>
      <trkpt lat="49.09293" lon="0.01746">
        <ele>16.6</ele>
        <time>2023-10-15T07:55:50Z</time>
      </trkpt>
      <trkpt lat="49.09284" lon="0.0175">
        <ele>16.6</ele>
        <time>2023-10-15T07:55:51Z</time>
      </trkpt>
      <trkpt lat="49.09276" lon="0.01754">
        <ele>16.6</ele>
        <time>2023-10-15T07:55:52Z</time>
      </trkpt>
      <trkpt lat="49.09269" lon="0.01758">
        <ele>16.6</ele>
        <time>2023-10-15T07:55:53Z</time>
      </trkpt>
      <trkpt lat="49.09261" lon="0.01762">
        <ele>16.6</ele>
        <time>2023-10-15T07:55:54Z</time>
      </trkpt>
      <trkpt lat="49.09253" lon="0.01766">
        <ele>16.6</ele>
        <time>2023-10-15T07:55:55Z</time>
      </trkpt>
      <trkpt lat="49.09244" lon="0.0177">
        <ele>16.6</ele>
        <time>2023-10-15T07:55:56Z</time>
      </trkpt>
      <trkpt lat="49.09236" lon="0.01774">
        <ele>16.6</ele>
        <time>2023-10-15T07:55:57Z</time>
      </trkpt>
      <trkpt lat="49.09228" lon="0.01778">
        <ele>16.6</ele>
        <time>2023-10-15T07:55:58Z</time>
      </trkpt>
      <trkpt lat="49.0922" lon="0.01782">
        <ele>16.7</ele>
        <time>2023-10-15T07:55:59Z</time>
      </trkpt>
      <trkpt lat="49.09212" lon="0.01786">
        <ele>16.7</ele>
        <time>2023-10-15T07:56:00Z</time>
      </trkpt>
      <trkpt lat="49.09204" lon="0.0179">
        <ele>16.7</ele>
        <time>2023-10-15T07:56:01Z</time>
      </trkpt>
      <trkpt lat="49.09196" lon="0.01794">
        <ele>16.7</ele>
        <time>2023-10-15T07:56:02Z</time>
      </trkpt>
      <trkpt lat="49.09188" lon="0.01799">
        <ele>16.8</ele>
        <time>2023-10-15T07:56:03Z</time>
      </trkpt>
      <trkpt lat="49.0918" lon="0.01803">
        <ele>16.8</ele>
        <time>2023-10-15T07:56:04Z</time>
      </trkpt>
      <trkpt lat="49.09172" lon="0.01806">
        <ele>16.9</ele>
        <time>2023-10-15T07:56:05Z</time>
      </trkpt>
      <trkpt lat="49.09165" lon="0.0181">
        <ele>17</ele>
        <time>2023-10-15T07:56:06Z</time>
      </trkpt>
      <trkpt lat="49.09157" lon="0.01814">
        <ele>17</ele>
        <time>2023-10-15T07:56:07Z</time>
      </trkpt>
      <trkpt lat="49.0915" lon="0.01817">
        <ele>17.1</ele>
        <time>2023-10-15T07:56:08Z</time>
      </trkpt>
      <trkpt lat="49.09142" lon="0.01821">
        <ele>17.1</ele>
        <time>2023-10-15T07:56:09Z</time>
      </trkpt>
      <trkpt lat="49.09134" lon="0.01824">
        <ele>17.2</ele>
        <time>2023-10-15T07:56:10Z</time>
      </trkpt>
      <trkpt lat="49.09127" lon="0.01828">
        <ele>17.3</ele>
        <time>2023-10-15T07:56:11Z</time>
      </trkpt>
      <trkpt lat="49.09119" lon="0.01832">
        <ele>17.4</ele>
        <time>2023-10-15T07:56:12Z</time>
      </trkpt>
      <trkpt lat="49.09112" lon="0.01836">
        <ele>17.5</ele>
        <time>2023-10-15T07:56:13Z</time>
      </trkpt>
      <trkpt lat="49.09104" lon="0.0184">
        <ele>17.6</ele>
        <time>2023-10-15T07:56:14Z</time>
      </trkpt>
      <trkpt lat="49.09097" lon="0.01843">
        <ele>17.8</ele>
        <time>2023-10-15T07:56:15Z</time>
      </trkpt>
      <trkpt lat="49.09089" lon="0.01847">
        <ele>17.9</ele>
        <time>2023-10-15T07:56:16Z</time>
      </trkpt>
      <trkpt lat="49.09082" lon="0.01851">
        <ele>18.1</ele>
        <time>2023-10-15T07:56:17Z</time>
      </trkpt>
      <trkpt lat="49.09075" lon="0.01855">
        <ele>18.3</ele>
        <time>2023-10-15T07:56:18Z</time>
      </trkpt>
      <trkpt lat="49.09068" lon="0.01859">
        <ele>18.5</ele>
        <time>2023-10-15T07:56:19Z</time>
      </trkpt>
      <trkpt lat="49.09061" lon="0.01862">
        <ele>18.7</ele>
        <time>2023-10-15T07:56:20Z</time>
      </trkpt>
      <trkpt lat="49.09055" lon="0.01866">
        <ele>18.9</ele>
        <time>2023-10-15T07:56:21Z</time>
      </trkpt>
      <trkpt lat="49.09049" lon="0.01869">
        <ele>19.1</ele>
        <time>2023-10-15T07:56:22Z</time>
      </trkpt>
      <trkpt lat="49.09043" lon="0.01871">
        <ele>19.3</ele>
        <time>2023-10-15T07:56:23Z</time>
      </trkpt>
      <trkpt lat="49.09038" lon="0.01874">
        <ele>19.4</ele>
        <time>2023-10-15T07:56:24Z</time>
      </trkpt>
      <trkpt lat="49.09033" lon="0.01877">
        <ele>19.6</ele>
        <time>2023-10-15T07:56:25Z</time>
      </trkpt>
      <trkpt lat="49.09029" lon="0.01879">
        <ele>19.8</ele>
        <time>2023-10-15T07:56:26Z</time>
      </trkpt>
      <trkpt lat="49.09024" lon="0.01882">
        <ele>20</ele>
        <time>2023-10-15T07:56:27Z</time>
      </trkpt>
      <trkpt lat="49.09019" lon="0.01885">
        <ele>20.2</ele>
        <time>2023-10-15T07:56:28Z</time>
      </trkpt>
      <trkpt lat="49.09014" lon="0.01887">
        <ele>20.4</ele>
        <time>2023-10-15T07:56:29Z</time>
      </trkpt>
      <trkpt lat="49.0901" lon="0.0189">
        <ele>20.5</ele>
        <time>2023-10-15T07:56:30Z</time>
      </trkpt>
      <trkpt lat="49.09007" lon="0.01893">
        <ele>20.7</ele>
        <time>2023-10-15T07:56:31Z</time>
      </trkpt>
      <trkpt lat="49.09005" lon="0.01898">
        <ele>20.7</ele>
        <time>2023-10-15T07:56:32Z</time>
      </trkpt>
      <trkpt lat="49.09005" lon="0.01906">
        <ele>20.6</ele>
        <time>2023-10-15T07:56:33Z</time>
      </trkpt>
      <trkpt lat="49.09006" lon="0.01913">
        <ele>20.5</ele>
        <time>2023-10-15T07:56:34Z</time>
      </trkpt>
      <trkpt lat="49.09007" lon="0.01922">
        <ele>20.3</ele>
        <time>2023-10-15T07:56:35Z</time>
      </trkpt>
      <trkpt lat="49.09009" lon="0.01932">
        <ele>20.2</ele>
        <time>2023-10-15T07:56:36Z</time>
      </trkpt>
      <trkpt lat="49.0901" lon="0.01941">
        <ele>20.1</ele>
        <time>2023-10-15T07:56:37Z</time>
      </trkpt>
      <trkpt lat="49.09011" lon="0.01952">
        <ele>20</ele>
        <time>2023-10-15T07:56:38Z</time>
      </trkpt>
      <trkpt lat="49.09012" lon="0.01963">
        <ele>20</ele>
        <time>2023-10-15T07:56:39Z</time>
      </trkpt>
      <trkpt lat="49.09012" lon="0.01975">
        <ele>20</ele>
        <time>2023-10-15T07:56:40Z</time>
      </trkpt>
      <trkpt lat="49.09012" lon="0.01986">
        <ele>20</ele>
        <time>2023-10-15T07:56:41Z</time>
      </trkpt>
      <trkpt lat="49.09013" lon="0.01998">
        <ele>20</ele>
        <time>2023-10-15T07:56:42Z</time>
      </trkpt>
      <trkpt lat="49.09013" lon="0.0201">
        <ele>19.9</ele>
        <time>2023-10-15T07:56:43Z</time>
      </trkpt>
      <trkpt lat="49.09013" lon="0.02022">
        <ele>19.8</ele>
        <time>2023-10-15T07:56:44Z</time>
      </trkpt>
      <trkpt lat="49.09013" lon="0.02034">
        <ele>19.7</ele>
        <time>2023-10-15T07:56:45Z</time>
      </trkpt>
      <trkpt lat="49.09013" lon="0.02046">
        <ele>19.6</ele>
        <time>2023-10-15T07:56:46Z</time>
      </trkpt>
      <trkpt lat="49.09013" lon="0.02059">
        <ele>19.5</ele>
        <time>2023-10-15T07:56:47Z</time>
      </trkpt>
      <trkpt lat="49.09013" lon="0.02072">
        <ele>19.4</ele>
        <time>2023-10-15T07:56:48Z</time>
      </trkpt>
      <trkpt lat="49.09014" lon="0.02086">
        <ele>19.4</ele>
        <time>2023-10-15T07:56:49Z</time>
      </trkpt>
      <trkpt lat="49.09015" lon="0.02099">
        <ele>19.4</ele>
        <time>2023-10-15T07:56:50Z</time>
      </trkpt>
      <trkpt lat="49.09015" lon="0.02113">
        <ele>19.4</ele>
        <time>2023-10-15T07:56:51Z</time>
      </trkpt>
      <trkpt lat="49.09016" lon="0.02126">
        <ele>19.4</ele>
        <time>2023-10-15T07:56:52Z</time>
      </trkpt>
      <trkpt lat="49.09017" lon="0.02139">
        <ele>19.4</ele>
        <time>2023-10-15T07:56:53Z</time>
      </trkpt>
      <trkpt lat="49.09018" lon="0.02151">
        <ele>19.5</ele>
        <time>2023-10-15T07:56:54Z</time>
      </trkpt>
      <trkpt lat="49.09019" lon="0.02163">
        <ele>19.5</ele>
        <time>2023-10-15T07:56:55Z</time>
      </trkpt>
      <trkpt lat="49.09021" lon="0.02174">
        <ele>19.6</ele>
        <time>2023-10-15T07:56:56Z</time>
      </trkpt>
      <trkpt lat="49.09021" lon="0.02186">
        <ele>19.7</ele>
        <time>2023-10-15T07:56:57Z</time>
      </trkpt>
      <trkpt lat="49.09021" lon="0.02198">
        <ele>19.8</ele>
        <time>2023-10-15T07:56:58Z</time>
      </trkpt>
      <trkpt lat="49.09021" lon="0.02211">
        <ele>19.8</ele>
        <time>2023-10-15T07:56:59Z</time>
      </trkpt>
      <trkpt lat="49.09019" lon="0.02223">
        <ele>19.9</ele>
        <time>2023-10-15T07:57:00Z</time>
      </trkpt>
      <trkpt lat="49.09017" lon="0.02235">
        <ele>20</ele>
        <time>2023-10-15T07:57:01Z</time>
      </trkpt>
      <trkpt lat="49.09015" lon="0.02246">
        <ele>20.1</ele>
        <time>2023-10-15T07:57:02Z</time>
      </trkpt>
      <trkpt lat="49.09013" lon="0.02257">
        <ele>20.2</ele>
        <time>2023-10-15T07:57:03Z</time>
      </trkpt>
      <trkpt lat="49.0901" lon="0.02267">
        <ele>20.3</ele>
        <time>2023-10-15T07:57:04Z</time>
      </trkpt>
      <trkpt lat="49.09008" lon="0.02277">
        <ele>20.4</ele>
        <time>2023-10-15T07:57:05Z</time>
      </trkpt>
      <trkpt lat="49.09005" lon="0.02288">
        <ele>20.4</ele>
        <time>2023-10-15T07:57:06Z</time>
      </trkpt>
      <trkpt lat="49.09003" lon="0.02298">
        <ele>20.5</ele>
        <time>2023-10-15T07:57:07Z</time>
      </trkpt>
      <trkpt lat="49.09" lon="0.02308">
        <ele>20.6</ele>
        <time>2023-10-15T07:57:08Z</time>
      </trkpt>
      <trkpt lat="49.08998" lon="0.02319">
        <ele>20.7</ele>
        <time>2023-10-15T07:57:09Z</time>
      </trkpt>
      <trkpt lat="49.08995" lon="0.02329">
        <ele>20.8</ele>
        <time>2023-10-15T07:57:10Z</time>
      </trkpt>
      <trkpt lat="49.08992" lon="0.02337">
        <ele>20.9</ele>
        <time>2023-10-15T07:57:11Z</time>
      </trkpt>
      <trkpt lat="49.08987" lon="0.02345">
        <ele>21.1</ele>
        <time>2023-10-15T07:57:12Z</time>
      </trkpt>
      <trkpt lat="49.08982" lon="0.02353">
        <ele>21.2</ele>
        <time>2023-10-15T07:57:13Z</time>
      </trkpt>
      <trkpt lat="49.08976" lon="0.02359">
        <ele>21.3</ele>
        <time>2023-10-15T07:57:14Z</time>
      </trkpt>
      <trkpt lat="49.0897" lon="0.02365">
        <ele>21.4</ele>
        <time>2023-10-15T07:57:15Z</time>
      </trkpt>
      <trkpt lat="49.08964" lon="0.02371">
        <ele>21.5</ele>
        <time>2023-10-15T07:57:16Z</time>
      </trkpt>
      <trkpt lat="49.08957" lon="0.02376">
        <ele>21.6</ele>
        <time>2023-10-15T07:57:17Z</time>
      </trkpt>
      <trkpt lat="49.08951" lon="0.02381">
        <ele>21.8</ele>
        <time>2023-10-15T07:57:18Z</time>
      </trkpt>
      <trkpt lat="49.08944" lon="0.02386">
        <ele>21.9</ele>
        <time>2023-10-15T07:57:19Z</time>
      </trkpt>
      <trkpt lat="49.08937" lon="0.02391">
        <ele>22.1</ele>
        <time>2023-10-15T07:57:20Z</time>
      </trkpt>
      <trkpt lat="49.0893" lon="0.02397">
        <ele>22.2</ele>
        <time>2023-10-15T07:57:21Z</time>
      </trkpt>
      <trkpt lat="49.08923" lon="0.02402">
        <ele>22.3</ele>
        <time>2023-10-15T07:57:22Z</time>
      </trkpt>
      <trkpt lat="49.08917" lon="0.02408">
        <ele>22.5</ele>
        <time>2023-10-15T07:57:23Z</time>
      </trkpt>
      <trkpt lat="49.08911" lon="0.02414">
        <ele>22.6</ele>
        <time>2023-10-15T07:57:24Z</time>
      </trkpt>
      <trkpt lat="49.08906" lon="0.0242">
        <ele>22.7</ele>
        <time>2023-10-15T07:57:25Z</time>
      </trkpt>
      <trkpt lat="49.089" lon="0.02427">
        <ele>22.8</ele>
        <time>2023-10-15T07:57:26Z</time>
      </trkpt>
      <trkpt lat="49.08895" lon="0.02434">
        <ele>22.9</ele>
        <time>2023-10-15T07:57:27Z</time>
      </trkpt>
      <trkpt lat="49.08889" lon="0.02441">
        <ele>23.1</ele>
        <time>2023-10-15T07:57:28Z</time>
      </trkpt>
      <trkpt lat="49.08884" lon="0.02448">
        <ele>23.2</ele>
        <time>2023-10-15T07:57:29Z</time>
      </trkpt>
      <trkpt lat="49.08877" lon="0.02454">
        <ele>23.4</ele>
        <time>2023-10-15T07:57:30Z</time>
      </trkpt>
      <trkpt lat="49.08871" lon="0.02457">
        <ele>23.6</ele>
        <time>2023-10-15T07:57:31Z</time>
      </trkpt>
      <trkpt lat="49.08864" lon="0.02458">
        <ele>23.9</ele>
        <time>2023-10-15T07:57:32Z</time>
      </trkpt>
      <trkpt lat="49.08857" lon="0.02457">
        <ele>24.2</ele>
        <time>2023-10-15T07:57:33Z</time>
      </trkpt>
      <trkpt lat="49.0885" lon="0.02456">
        <ele>24.5</ele>
        <time>2023-10-15T07:57:34Z</time>
      </trkpt>
      <trkpt lat="49.08844" lon="0.02454">
        <ele>24.7</ele>
        <time>2023-10-15T07:57:35Z</time>
      </trkpt>
      <trkpt lat="49.08838" lon="0.02451">
        <ele>25</ele>
        <time>2023-10-15T07:57:36Z</time>
      </trkpt>
      <trkpt lat="49.08833" lon="0.02449">
        <ele>25.3</ele>
        <time>2023-10-15T07:57:37Z</time>
      </trkpt>
      <trkpt lat="49.08827" lon="0.02446">
        <ele>25.7</ele>
        <time>2023-10-15T07:57:38Z</time>
      </trkpt>
      <trkpt lat="49.08821" lon="0.02444">
        <ele>26</ele>
        <time>2023-10-15T07:57:39Z</time>
      </trkpt>
      <trkpt lat="49.08815" lon="0.02442">
        <ele>26.3</ele>
        <time>2023-10-15T07:57:40Z</time>
      </trkpt>
      <trkpt lat="49.0881" lon="0.0244">
        <ele>26.6</ele>
        <time>2023-10-15T07:57:41Z</time>
      </trkpt>
      <trkpt lat="49.08804" lon="0.02437">
        <ele>26.9</ele>
        <time>2023-10-15T07:57:42Z</time>
      </trkpt>
      <trkpt lat="49.08798" lon="0.02435">
        <ele>27.2</ele>
        <time>2023-10-15T07:57:43Z</time>
      </trkpt>
      <trkpt lat="49.08793" lon="0.02434">
        <ele>27.4</ele>
        <time>2023-10-15T07:57:44Z</time>
      </trkpt>
      <trkpt lat="49.08787" lon="0.02434">
        <ele>27.6</ele>
        <time>2023-10-15T07:57:45Z</time>
      </trkpt>
      <trkpt lat="49.08781" lon="0.02437">
        <ele>27.6</ele>
        <time>2023-10-15T07:57:46Z</time>
      </trkpt>
      <trkpt lat="49.08777" lon="0.02441">
        <ele>27.6</ele>
        <time>2023-10-15T07:57:47Z</time>
      </trkpt>
      <trkpt lat="49.08772" lon="0.02446">
        <ele>27.5</ele>
        <time>2023-10-15T07:57:48Z</time>
      </trkpt>
      <trkpt lat="49.08768" lon="0.02453">
        <ele>27.5</ele>
        <time>2023-10-15T07:57:49Z</time>
      </trkpt>
      <trkpt lat="49.08767" lon="0.02463">
        <ele>27.3</ele>
        <time>2023-10-15T07:57:50Z</time>
      </trkpt>
      <trkpt lat="49.08766" lon="0.02474">
        <ele>27.1</ele>
        <time>2023-10-15T07:57:51Z</time>
      </trkpt>
      <trkpt lat="49.08765" lon="0.02484">
        <ele>26.9</ele>
        <time>2023-10-15T07:57:52Z</time>
      </trkpt>
      <trkpt lat="49.08766" lon="0.02495">
        <ele>26.7</ele>
        <time>2023-10-15T07:57:53Z</time>
      </trkpt>
      <trkpt lat="49.08766" lon="0.02506">
        <ele>26.4</ele>
        <time>2023-10-15T07:57:54Z</time>
      </trkpt>
      <trkpt lat="49.08768" lon="0.02519">
        <ele>26.1</ele>
        <time>2023-10-15T07:57:55Z</time>
      </trkpt>
      <trkpt lat="49.08769" lon="0.02532">
        <ele>25.9</ele>
        <time>2023-10-15T07:57:56Z</time>
      </trkpt>
      <trkpt lat="49.08771" lon="0.02545">
        <ele>25.8</ele>
        <time>2023-10-15T07:57:57Z</time>
      </trkpt>
      <trkpt lat="49.08772" lon="0.02558">
        <ele>25.6</ele>
        <time>2023-10-15T07:57:58Z</time>
      </trkpt>
      <trkpt lat="49.08773" lon="0.0257">
        <ele>25.5</ele>
        <time>2023-10-15T07:57:59Z</time>
      </trkpt>
      <trkpt lat="49.08773" lon="0.02581">
        <ele>25.5</ele>
        <time>2023-10-15T07:58:00Z</time>
      </trkpt>
      <trkpt lat="49.08774" lon="0.02592">
        <ele>25.5</ele>
        <time>2023-10-15T07:58:01Z</time>
      </trkpt>
      <trkpt lat="49.08773" lon="0.02603">
        <ele>25.4</ele>
        <time>2023-10-15T07:58:02Z</time>
      </trkpt>
      <trkpt lat="49.08772" lon="0.02613">
        <ele>25.4</ele>
        <time>2023-10-15T07:58:03Z</time>
      </trkpt>
      <trkpt lat="49.08768" lon="0.02623">
        <ele>25.4</ele>
        <time>2023-10-15T07:58:04Z</time>
      </trkpt>
      <trkpt lat="49.08763" lon="0.02631">
        <ele>25.4</ele>
        <time>2023-10-15T07:58:05Z</time>
      </trkpt>
      <trkpt lat="49.08757" lon="0.02639">
        <ele>25.4</ele>
        <time>2023-10-15T07:58:06Z</time>
      </trkpt>
      <trkpt lat="49.08751" lon="0.02647">
        <ele>25.4</ele>
        <time>2023-10-15T07:58:07Z</time>
      </trkpt>
      <trkpt lat="49.08744" lon="0.02654">
        <ele>25.4</ele>
        <time>2023-10-15T07:58:08Z</time>
      </trkpt>
      <trkpt lat="49.08737" lon="0.02662">
        <ele>25.4</ele>
        <time>2023-10-15T07:58:09Z</time>
      </trkpt>
      <trkpt lat="49.0873" lon="0.02669">
        <ele>25.4</ele>
        <time>2023-10-15T07:58:10Z</time>
      </trkpt>
      <trkpt lat="49.08723" lon="0.02676">
        <ele>25.5</ele>
        <time>2023-10-15T07:58:11Z</time>
      </trkpt>
      <trkpt lat="49.08717" lon="0.02684">
        <ele>25.5</ele>
        <time>2023-10-15T07:58:12Z</time>
      </trkpt>
      <trkpt lat="49.0871" lon="0.02693">
        <ele>25.5</ele>
        <time>2023-10-15T07:58:13Z</time>
      </trkpt>
      <trkpt lat="49.08704" lon="0.02702">
        <ele>25.6</ele>
        <time>2023-10-15T07:58:14Z</time>
      </trkpt>
      <trkpt lat="49.08698" lon="0.02711">
        <ele>25.6</ele>
        <time>2023-10-15T07:58:15Z</time>
      </trkpt>
      <trkpt lat="49.08692" lon="0.0272">
        <ele>25.6</ele>
        <time>2023-10-15T07:58:16Z</time>
      </trkpt>
      <trkpt lat="49.08686" lon="0.02729">
        <ele>25.7</ele>
        <time>2023-10-15T07:58:17Z</time>
      </trkpt>
      <trkpt lat="49.0868" lon="0.02739">
        <ele>25.7</ele>
        <time>2023-10-15T07:58:18Z</time>
      </trkpt>
      <trkpt lat="49.08675" lon="0.02749">
        <ele>25.8</ele>
        <time>2023-10-15T07:58:19Z</time>
      </trkpt>
      <trkpt lat="49.0867" lon="0.0276">
        <ele>25.8</ele>
        <time>2023-10-15T07:58:20Z</time>
      </trkpt>
      <trkpt lat="49.08664" lon="0.0277">
        <ele>25.7</ele>
        <time>2023-10-15T07:58:21Z</time>
      </trkpt>
      <trkpt lat="49.08659" lon="0.02781">
        <ele>25.7</ele>
        <time>2023-10-15T07:58:22Z</time>
      </trkpt>
      <trkpt lat="49.08654" lon="0.02792">
        <ele>25.6</ele>
        <time>2023-10-15T07:58:23Z</time>
      </trkpt>
      <trkpt lat="49.08649" lon="0.02803">
        <ele>25.6</ele>
        <time>2023-10-15T07:58:24Z</time>
      </trkpt>
      <trkpt lat="49.08644" lon="0.02814">
        <ele>25.5</ele>
        <time>2023-10-15T07:58:25Z</time>
      </trkpt>
      <trkpt lat="49.08639" lon="0.02825">
        <ele>25.4</ele>
        <time>2023-10-15T07:58:26Z</time>
      </trkpt>
      <trkpt lat="49.08634" lon="0.02836">
        <ele>25.4</ele>
        <time>2023-10-15T07:58:27Z</time>
      </trkpt>
      <trkpt lat="49.0863" lon="0.02847">
        <ele>25.4</ele>
        <time>2023-10-15T07:58:28Z</time>
      </trkpt>
      <trkpt lat="49.08625" lon="0.02858">
        <ele>25.4</ele>
        <time>2023-10-15T07:58:29Z</time>
      </trkpt>
      <trkpt lat="49.08621" lon="0.02869">
        <ele>25.4</ele>
        <time>2023-10-15T07:58:30Z</time>
      </trkpt>
      <trkpt lat="49.08617" lon="0.0288">
        <ele>25.4</ele>
        <time>2023-10-15T07:58:31Z</time>
      </trkpt>
      <trkpt lat="49.08613" lon="0.02891">
        <ele>25.4</ele>
        <time>2023-10-15T07:58:32Z</time>
      </trkpt>
      <trkpt lat="49.08609" lon="0.02902">
        <ele>25.5</ele>
        <time>2023-10-15T07:58:33Z</time>
      </trkpt>
      <trkpt lat="49.08604" lon="0.02913">
        <ele>25.5</ele>
        <time>2023-10-15T07:58:34Z</time>
      </trkpt>
      <trkpt lat="49.08599" lon="0.02923">
        <ele>25.5</ele>
        <time>2023-10-15T07:58:35Z</time>
      </trkpt>
      <trkpt lat="49.08595" lon="0.02934">
        <ele>25.5</ele>
        <time>2023-10-15T07:58:36Z</time>
      </trkpt>
      <trkpt lat="49.0859" lon="0.02944">
        <ele>25.5</ele>
        <time>2023-10-15T07:58:37Z</time>
      </trkpt>
      <trkpt lat="49.08585" lon="0.02955">
        <ele>25.5</ele>
        <time>2023-10-15T07:58:38Z</time>
      </trkpt>
      <trkpt lat="49.0858" lon="0.02965">
        <ele>25.5</ele>
        <time>2023-10-15T07:58:39Z</time>
      </trkpt>
      <trkpt lat="49.08575" lon="0.02975">
        <ele>25.5</ele>
        <time>2023-10-15T07:58:40Z</time>
      </trkpt>
      <trkpt lat="49.0857" lon="0.02985">
        <ele>25.4</ele>
        <time>2023-10-15T07:58:41Z</time>
      </trkpt>
      <trkpt lat="49.08565" lon="0.02996">
        <ele>25.4</ele>
        <time>2023-10-15T07:58:42Z</time>
      </trkpt>
      <trkpt lat="49.0856" lon="0.03006">
        <ele>25.4</ele>
        <time>2023-10-15T07:58:43Z</time>
      </trkpt>
      <trkpt lat="49.08555" lon="0.03017">
        <ele>25.4</ele>
        <time>2023-10-15T07:58:44Z</time>
      </trkpt>
      <trkpt lat="49.08549" lon="0.03026">
        <ele>25.4</ele>
        <time>2023-10-15T07:58:45Z</time>
      </trkpt>
      <trkpt lat="49.08543" lon="0.03036">
        <ele>25.5</ele>
        <time>2023-10-15T07:58:46Z</time>
      </trkpt>
      <trkpt lat="49.08536" lon="0.03045">
        <ele>25.5</ele>
        <time>2023-10-15T07:58:47Z</time>
      </trkpt>
      <trkpt lat="49.0853" lon="0.03054">
        <ele>25.6</ele>
        <time>2023-10-15T07:58:48Z</time>
      </trkpt>
      <trkpt lat="49.08523" lon="0.03063">
        <ele>25.7</ele>
        <time>2023-10-15T07:58:49Z</time>
      </trkpt>
      <trkpt lat="49.08516" lon="0.03072">
        <ele>25.8</ele>
        <time>2023-10-15T07:58:50Z</time>
      </trkpt>
      <trkpt lat="49.0851" lon="0.03082">
        <ele>25.9</ele>
        <time>2023-10-15T07:58:51Z</time>
      </trkpt>
      <trkpt lat="49.08504" lon="0.03091">
        <ele>26</ele>
        <time>2023-10-15T07:58:52Z</time>
      </trkpt>
      <trkpt lat="49.08498" lon="0.03101">
        <ele>26.1</ele>
        <time>2023-10-15T07:58:53Z</time>
      </trkpt>
      <trkpt lat="49.08492" lon="0.0311">
        <ele>26.1</ele>
        <time>2023-10-15T07:58:54Z</time>
      </trkpt>
      <trkpt lat="49.08485" lon="0.03118">
        <ele>26.2</ele>
        <time>2023-10-15T07:58:55Z</time>
      </trkpt>
      <trkpt lat="49.08479" lon="0.03127">
        <ele>26.3</ele>
        <time>2023-10-15T07:58:56Z</time>
      </trkpt>
      <trkpt lat="49.08473" lon="0.03136">
        <ele>26.3</ele>
        <time>2023-10-15T07:58:57Z</time>
      </trkpt>
      <trkpt lat="49.08467" lon="0.03146">
        <ele>26.4</ele>
        <time>2023-10-15T07:58:58Z</time>
      </trkpt>
      <trkpt lat="49.08461" lon="0.03155">
        <ele>26.4</ele>
        <time>2023-10-15T07:58:59Z</time>
      </trkpt>
      <trkpt lat="49.08455" lon="0.03164">
        <ele>26.4</ele>
        <time>2023-10-15T07:59:00Z</time>
      </trkpt>
      <trkpt lat="49.08449" lon="0.03172">
        <ele>26.4</ele>
        <time>2023-10-15T07:59:01Z</time>
      </trkpt>
      <trkpt lat="49.08442" lon="0.03181">
        <ele>26.4</ele>
        <time>2023-10-15T07:59:02Z</time>
      </trkpt>
      <trkpt lat="49.08436" lon="0.0319">
        <ele>26.4</ele>
        <time>2023-10-15T07:59:03Z</time>
      </trkpt>
      <trkpt lat="49.0843" lon="0.03199">
        <ele>26.4</ele>
        <time>2023-10-15T07:59:04Z</time>
      </trkpt>
      <trkpt lat="49.08424" lon="0.03207">
        <ele>26.4</ele>
        <time>2023-10-15T07:59:05Z</time>
      </trkpt>
      <trkpt lat="49.08418" lon="0.03216">
        <ele>26.5</ele>
        <time>2023-10-15T07:59:06Z</time>
      </trkpt>
      <trkpt lat="49.08412" lon="0.03224">
        <ele>26.5</ele>
        <time>2023-10-15T07:59:07Z</time>
      </trkpt>
      <trkpt lat="49.08407" lon="0.03232">
        <ele>26.5</ele>
        <time>2023-10-15T07:59:08Z</time>
      </trkpt>
      <trkpt lat="49.08402" lon="0.0324">
        <ele>26.5</ele>
        <time>2023-10-15T07:59:09Z</time>
      </trkpt>
      <trkpt lat="49.08398" lon="0.03248">
        <ele>26.6</ele>
        <time>2023-10-15T07:59:10Z</time>
      </trkpt>
      <trkpt lat="49.08394" lon="0.03257">
        <ele>26.7</ele>
        <time>2023-10-15T07:59:11Z</time>
      </trkpt>
      <trkpt lat="49.0839" lon="0.03267">
        <ele>26.8</ele>
        <time>2023-10-15T07:59:12Z</time>
      </trkpt>
      <trkpt lat="49.08386" lon="0.03276">
        <ele>26.8</ele>
        <time>2023-10-15T07:59:13Z</time>
      </trkpt>
      <trkpt lat="49.08383" lon="0.03287">
        <ele>26.9</ele>
        <time>2023-10-15T07:59:14Z</time>
      </trkpt>
      <trkpt lat="49.0838" lon="0.03298">
        <ele>26.9</ele>
        <time>2023-10-15T07:59:15Z</time>
      </trkpt>
      <trkpt lat="49.08377" lon="0.03309">
        <ele>26.8</ele>
        <time>2023-10-15T07:59:16Z</time>
      </trkpt>
      <trkpt lat="49.08375" lon="0.0332">
        <ele>26.6</ele>
        <time>2023-10-15T07:59:17Z</time>
      </trkpt>
      <trkpt lat="49.08372" lon="0.03331">
        <ele>26.5</ele>
        <time>2023-10-15T07:59:18Z</time>
      </trkpt>
      <trkpt lat="49.08369" lon="0.03341">
        <ele>26.4</ele>
        <time>2023-10-15T07:59:19Z</time>
      </trkpt>
      <trkpt lat="49.08366" lon="0.03352">
        <ele>26.2</ele>
        <time>2023-10-15T07:59:20Z</time>
      </trkpt>
      <trkpt lat="49.08364" lon="0.03363">
        <ele>26.1</ele>
        <time>2023-10-15T07:59:21Z</time>
      </trkpt>
      <trkpt lat="49.08361" lon="0.03375">
        <ele>25.9</ele>
        <time>2023-10-15T07:59:22Z</time>
      </trkpt>
      <trkpt lat="49.08358" lon="0.03387">
        <ele>25.8</ele>
        <time>2023-10-15T07:59:23Z</time>
      </trkpt>
      <trkpt lat="49.08355" lon="0.03399">
        <ele>25.8</ele>
        <time>2023-10-15T07:59:24Z</time>
      </trkpt>
      <trkpt lat="49.08352" lon="0.03411">
        <ele>25.7</ele>
        <time>2023-10-15T07:59:25Z</time>
      </trkpt>
      <trkpt lat="49.0835" lon="0.03424">
        <ele>25.8</ele>
        <time>2023-10-15T07:59:26Z</time>
      </trkpt>
      <trkpt lat="49.08347" lon="0.03437">
        <ele>25.9</ele>
        <time>2023-10-15T07:59:27Z</time>
      </trkpt>
      <trkpt lat="49.08344" lon="0.03449">
        <ele>26</ele>
        <time>2023-10-15T07:59:28Z</time>
      </trkpt>
      <trkpt lat="49.08341" lon="0.03462">
        <ele>26.3</ele>
        <time>2023-10-15T07:59:29Z</time>
      </trkpt>
      <trkpt lat="49.08338" lon="0.03474">
        <ele>26.5</ele>
        <time>2023-10-15T07:59:30Z</time>
      </trkpt>
      <trkpt lat="49.08335" lon="0.03485">
        <ele>26.8</ele>
        <time>2023-10-15T07:59:31Z</time>
      </trkpt>
      <trkpt lat="49.08332" lon="0.03497">
        <ele>27.1</ele>
        <time>2023-10-15T07:59:32Z</time>
      </trkpt>
      <trkpt lat="49.0833" lon="0.03508">
        <ele>27.4</ele>
        <time>2023-10-15T07:59:33Z</time>
      </trkpt>
      <trkpt lat="49.08327" lon="0.03519">
        <ele>27.7</ele>
        <time>2023-10-15T07:59:34Z</time>
      </trkpt>
      <trkpt lat="49.08325" lon="0.0353">
        <ele>28</ele>
        <time>2023-10-15T07:59:35Z</time>
      </trkpt>
      <trkpt lat="49.08322" lon="0.03541">
        <ele>28.2</ele>
        <time>2023-10-15T07:59:36Z</time>
      </trkpt>
      <trkpt lat="49.08319" lon="0.03552">
        <ele>28.5</ele>
        <time>2023-10-15T07:59:37Z</time>
      </trkpt>
      <trkpt lat="49.08317" lon="0.03563">
        <ele>28.8</ele>
        <time>2023-10-15T07:59:38Z</time>
      </trkpt>
      <trkpt lat="49.08314" lon="0.03574">
        <ele>29</ele>
        <time>2023-10-15T07:59:39Z</time>
      </trkpt>
      <trkpt lat="49.08312" lon="0.03585">
        <ele>29.3</ele>
        <time>2023-10-15T07:59:40Z</time>
      </trkpt>
      <trkpt lat="49.08309" lon="0.03595">
        <ele>29.5</ele>
        <time>2023-10-15T07:59:41Z</time>
      </trkpt>
      <trkpt lat="49.08307" lon="0.03605">
        <ele>29.7</ele>
        <time>2023-10-15T07:59:42Z</time>
      </trkpt>
      <trkpt lat="49.08304" lon="0.03615">
        <ele>29.9</ele>
        <time>2023-10-15T07:59:43Z</time>
      </trkpt>
      <trkpt lat="49.08302" lon="0.03623">
        <ele>30</ele>
        <time>2023-10-15T07:59:44Z</time>
      </trkpt>
      <trkpt lat="49.08298" lon="0.03633">
        <ele>30.1</ele>
        <time>2023-10-15T07:59:45Z</time>
      </trkpt>
      <trkpt lat="49.08295" lon="0.03642">
        <ele>30.2</ele>
        <time>2023-10-15T07:59:46Z</time>
      </trkpt>
      <trkpt lat="49.0829" lon="0.03651">
        <ele>30.4</ele>
        <time>2023-10-15T07:59:47Z</time>
      </trkpt>
      <trkpt lat="49.08285" lon="0.03659">
        <ele>30.5</ele>
        <time>2023-10-15T07:59:48Z</time>
      </trkpt>
      <trkpt lat="49.0828" lon="0.03668">
        <ele>30.7</ele>
        <time>2023-10-15T07:59:49Z</time>
      </trkpt>
      <trkpt lat="49.08275" lon="0.03676">
        <ele>30.9</ele>
        <time>2023-10-15T07:59:50Z</time>
      </trkpt>
      <trkpt lat="49.08269" lon="0.03683">
        <ele>31</ele>
        <time>2023-10-15T07:59:51Z</time>
      </trkpt>
      <trkpt lat="49.08264" lon="0.03691">
        <ele>31.2</ele>
        <time>2023-10-15T07:59:52Z</time>
      </trkpt>
      <trkpt lat="49.08259" lon="0.03699">
        <ele>31.3</ele>
        <time>2023-10-15T07:59:53Z</time>
      </trkpt>
      <trkpt lat="49.08254" lon="0.03707">
        <ele>31.4</ele>
        <time>2023-10-15T07:59:54Z</time>
      </trkpt>
      <trkpt lat="49.08249" lon="0.03715">
        <ele>31.6</ele>
        <time>2023-10-15T07:59:55Z</time>
      </trkpt>
      <trkpt lat="49.08244" lon="0.03723">
        <ele>31.7</ele>
        <time>2023-10-15T07:59:56Z</time>
      </trkpt>
      <trkpt lat="49.08238" lon="0.0373">
        <ele>31.9</ele>
        <time>2023-10-15T07:59:57Z</time>
      </trkpt>
      <trkpt lat="49.08232" lon="0.03735">
        <ele>32.1</ele>
        <time>2023-10-15T07:59:58Z</time>
      </trkpt>
      <trkpt lat="49.08226" lon="0.0374">
        <ele>32.2</ele>
        <time>2023-10-15T07:59:59Z</time>
      </trkpt>
      <trkpt lat="49.08221" lon="0.03744">
        <ele>32.4</ele>
        <time>2023-10-15T08:00:00Z</time>
      </trkpt>
      <trkpt lat="49.08215" lon="0.03749">
        <ele>32.6</ele>
        <time>2023-10-15T08:00:01Z</time>
      </trkpt>
      <trkpt lat="49.08209" lon="0.03753">
        <ele>32.8</ele>
        <time>2023-10-15T08:00:02Z</time>
      </trkpt>
      <trkpt lat="49.08202" lon="0.03758">
        <ele>33</ele>
        <time>2023-10-15T08:00:03Z</time>
      </trkpt>
      <trkpt lat="49.08196" lon="0.03764">
        <ele>33.1</ele>
        <time>2023-10-15T08:00:04Z</time>
      </trkpt>
      <trkpt lat="49.08191" lon="0.03772">
        <ele>33.1</ele>
        <time>2023-10-15T08:00:05Z</time>
      </trkpt>
      <trkpt lat="49.08186" lon="0.0378">
        <ele>33.2</ele>
        <time>2023-10-15T08:00:06Z</time>
      </trkpt>
      <trkpt lat="49.08182" lon="0.03789">
        <ele>33.3</ele>
        <time>2023-10-15T08:00:07Z</time>
      </trkpt>
      <trkpt lat="49.08178" lon="0.03798">
        <ele>33.4</ele>
        <time>2023-10-15T08:00:08Z</time>
      </trkpt>
      <trkpt lat="49.08174" lon="0.03807">
        <ele>33.4</ele>
        <time>2023-10-15T08:00:09Z</time>
      </trkpt>
      <trkpt lat="49.08169" lon="0.03816">
        <ele>33.5</ele>
        <time>2023-10-15T08:00:10Z</time>
      </trkpt>
      <trkpt lat="49.08166" lon="0.03826">
        <ele>33.7</ele>
        <time>2023-10-15T08:00:11Z</time>
      </trkpt>
      <trkpt lat="49.08162" lon="0.03835">
        <ele>33.8</ele>
        <time>2023-10-15T08:00:12Z</time>
      </trkpt>
      <trkpt lat="49.08158" lon="0.03845">
        <ele>33.9</ele>
        <time>2023-10-15T08:00:13Z</time>
      </trkpt>
      <trkpt lat="49.08154" lon="0.03855">
        <ele>34</ele>
        <time>2023-10-15T08:00:14Z</time>
      </trkpt>
      <trkpt lat="49.08151" lon="0.03865">
        <ele>34.1</ele>
        <time>2023-10-15T08:00:15Z</time>
      </trkpt>
      <trkpt lat="49.08147" lon="0.03875">
        <ele>34.2</ele>
        <time>2023-10-15T08:00:16Z</time>
      </trkpt>
      <trkpt lat="49.08144" lon="0.03885">
        <ele>34.3</ele>
        <time>2023-10-15T08:00:17Z</time>
      </trkpt>
      <trkpt lat="49.0814" lon="0.03894">
        <ele>34.4</ele>
        <time>2023-10-15T08:00:18Z</time>
      </trkpt>
      <trkpt lat="49.08135" lon="0.03902">
        <ele>34.5</ele>
        <time>2023-10-15T08:00:19Z</time>
      </trkpt>
      <trkpt lat="49.0813" lon="0.03909">
        <ele>34.7</ele>
        <time>2023-10-15T08:00:20Z</time>
      </trkpt>
      <trkpt lat="49.08124" lon="0.03916">
        <ele>34.9</ele>
        <time>2023-10-15T08:00:21Z</time>
      </trkpt>
      <trkpt lat="49.08118" lon="0.03921">
        <ele>34.9</ele>
        <time>2023-10-15T08:00:22Z</time>
      </trkpt>
      <trkpt lat="49.08112" lon="0.03926">
        <ele>35.1</ele>
        <time>2023-10-15T08:00:23Z</time>
      </trkpt>
      <trkpt lat="49.08106" lon="0.03932">
        <ele>35.2</ele>
        <time>2023-10-15T08:00:24Z</time>
      </trkpt>
      <trkpt lat="49.081" lon="0.03937">
        <ele>35.3</ele>
        <time>2023-10-15T08:00:25Z</time>
      </trkpt>
      <trkpt lat="49.08094" lon="0.03944">
        <ele>35.5</ele>
        <time>2023-10-15T08:00:26Z</time>
      </trkpt>
      <trkpt lat="49.08088" lon="0.03951">
        <ele>35.6</ele>
        <time>2023-10-15T08:00:27Z</time>
      </trkpt>
      <trkpt lat="49.08082" lon="0.03958">
        <ele>35.7</ele>
        <time>2023-10-15T08:00:28Z</time>
      </trkpt>
      <trkpt lat="49.08078" lon="0.03966">
        <ele>35.8</ele>
        <time>2023-10-15T08:00:29Z</time>
      </trkpt>
      <trkpt lat="49.08074" lon="0.03976">
        <ele>35.9</ele>
        <time>2023-10-15T08:00:30Z</time>
      </trkpt>
      <trkpt lat="49.08072" lon="0.03986">
        <ele>35.9</ele>
        <time>2023-10-15T08:00:31Z</time>
      </trkpt>
      <trkpt lat="49.0807" lon="0.03998">
        <ele>35.9</ele>
        <time>2023-10-15T08:00:32Z</time>
      </trkpt>
      <trkpt lat="49.08069" lon="0.0401">
        <ele>35.9</ele>
        <time>2023-10-15T08:00:33Z</time>
      </trkpt>
      <trkpt lat="49.08068" lon="0.04021">
        <ele>35.9</ele>
        <time>2023-10-15T08:00:34Z</time>
      </trkpt>
      <trkpt lat="49.08067" lon="0.04033">
        <ele>35.9</ele>
        <time>2023-10-15T08:00:35Z</time>
      </trkpt>
      <trkpt lat="49.08066" lon="0.04045">
        <ele>35.9</ele>
        <time>2023-10-15T08:00:36Z</time>
      </trkpt>
      <trkpt lat="49.08065" lon="0.04057">
        <ele>35.8</ele>
        <time>2023-10-15T08:00:37Z</time>
      </trkpt>
      <trkpt lat="49.08064" lon="0.04068">
        <ele>35.8</ele>
        <time>2023-10-15T08:00:38Z</time>
      </trkpt>
      <trkpt lat="49.08063" lon="0.04079">
        <ele>35.8</ele>
        <time>2023-10-15T08:00:39Z</time>
      </trkpt>
      <trkpt lat="49.08061" lon="0.0409">
        <ele>35.8</ele>
        <time>2023-10-15T08:00:40Z</time>
      </trkpt>
      <trkpt lat="49.0806" lon="0.041">
        <ele>35.8</ele>
        <time>2023-10-15T08:00:41Z</time>
      </trkpt>
      <trkpt lat="49.08059" lon="0.04111">
        <ele>35.8</ele>
        <time>2023-10-15T08:00:42Z</time>
      </trkpt>
      <trkpt lat="49.08058" lon="0.04122">
        <ele>35.8</ele>
        <time>2023-10-15T08:00:43Z</time>
      </trkpt>
      <trkpt lat="49.08056" lon="0.04132">
        <ele>35.8</ele>
        <time>2023-10-15T08:00:44Z</time>
      </trkpt>
      <trkpt lat="49.08055" lon="0.04142">
        <ele>35.8</ele>
        <time>2023-10-15T08:00:45Z</time>
      </trkpt>
      <trkpt lat="49.08053" lon="0.04152">
        <ele>35.8</ele>
        <time>2023-10-15T08:00:46Z</time>
      </trkpt>
      <trkpt lat="49.08052" lon="0.04162">
        <ele>35.8</ele>
        <time>2023-10-15T08:00:47Z</time>
      </trkpt>
      <trkpt lat="49.08051" lon="0.04173">
        <ele>35.8</ele>
        <time>2023-10-15T08:00:48Z</time>
      </trkpt>
      <trkpt lat="49.08052" lon="0.04184">
        <ele>35.8</ele>
        <time>2023-10-15T08:00:49Z</time>
      </trkpt>
      <trkpt lat="49.08055" lon="0.04195">
        <ele>35.8</ele>
        <time>2023-10-15T08:00:50Z</time>
      </trkpt>
      <trkpt lat="49.08058" lon="0.04206">
        <ele>35.9</ele>
        <time>2023-10-15T08:00:51Z</time>
      </trkpt>
      <trkpt lat="49.08061" lon="0.04217">
        <ele>35.9</ele>
        <time>2023-10-15T08:00:52Z</time>
      </trkpt>
      <trkpt lat="49.08065" lon="0.04227">
        <ele>35.9</ele>
        <time>2023-10-15T08:00:53Z</time>
      </trkpt>
      <trkpt lat="49.08069" lon="0.04237">
        <ele>36</ele>
        <time>2023-10-15T08:00:54Z</time>
      </trkpt>
      <trkpt lat="49.08073" lon="0.04246">
        <ele>36</ele>
        <time>2023-10-15T08:00:55Z</time>
      </trkpt>
      <trkpt lat="49.08076" lon="0.04256">
        <ele>35.9</ele>
        <time>2023-10-15T08:00:56Z</time>
      </trkpt>
      <trkpt lat="49.0808" lon="0.04265">
        <ele>35.9</ele>
        <time>2023-10-15T08:00:57Z</time>
      </trkpt>
      <trkpt lat="49.08083" lon="0.04274">
        <ele>35.8</ele>
        <time>2023-10-15T08:00:58Z</time>
      </trkpt>
      <trkpt lat="49.08087" lon="0.04285">
        <ele>35.7</ele>
        <time>2023-10-15T08:00:59Z</time>
      </trkpt>
      <trkpt lat="49.0809" lon="0.04295">
        <ele>35.5</ele>
        <time>2023-10-15T08:01:00Z</time>
      </trkpt>
      <trkpt lat="49.08093" lon="0.04305">
        <ele>35.3</ele>
        <time>2023-10-15T08:01:01Z</time>
      </trkpt>
      <trkpt lat="49.08096" lon="0.04316">
        <ele>35.1</ele>
        <time>2023-10-15T08:01:02Z</time>
      </trkpt>
      <trkpt lat="49.08098" lon="0.04329">
        <ele>34.9</ele>
        <time>2023-10-15T08:01:03Z</time>
      </trkpt>
      <trkpt lat="49.08101" lon="0.04341">
        <ele>34.8</ele>
        <time>2023-10-15T08:01:04Z</time>
      </trkpt>
      <trkpt lat="49.08104" lon="0.04353">
        <ele>34.6</ele>
        <time>2023-10-15T08:01:05Z</time>
      </trkpt>
      <trkpt lat="49.08106" lon="0.04366">
        <ele>34.5</ele>
        <time>2023-10-15T08:01:06Z</time>
      </trkpt>
      <trkpt lat="49.08107" lon="0.04379">
        <ele>34.4</ele>
        <time>2023-10-15T08:01:07Z</time>
      </trkpt>
      <trkpt lat="49.08109" lon="0.04391">
        <ele>34.2</ele>
        <time>2023-10-15T08:01:08Z</time>
      </trkpt>
      <trkpt lat="49.08111" lon="0.04404">
        <ele>34.2</ele>
        <time>2023-10-15T08:01:09Z</time>
      </trkpt>
      <trkpt lat="49.08113" lon="0.04417">
        <ele>34.1</ele>
        <time>2023-10-15T08:01:10Z</time>
      </trkpt>
      <trkpt lat="49.08114" lon="0.04429">
        <ele>34</ele>
        <time>2023-10-15T08:01:11Z</time>
      </trkpt>
      <trkpt lat="49.08116" lon="0.04441">
        <ele>33.9</ele>
        <time>2023-10-15T08:01:12Z</time>
      </trkpt>
      <trkpt lat="49.08118" lon="0.04453">
        <ele>33.7</ele>
        <time>2023-10-15T08:01:13Z</time>
      </trkpt>
      <trkpt lat="49.08119" lon="0.04465">
        <ele>33.6</ele>
        <time>2023-10-15T08:01:14Z</time>
      </trkpt>
      <trkpt lat="49.08121" lon="0.04477">
        <ele>33.4</ele>
        <time>2023-10-15T08:01:15Z</time>
      </trkpt>
      <trkpt lat="49.08122" lon="0.04489">
        <ele>33.2</ele>
        <time>2023-10-15T08:01:16Z</time>
      </trkpt>
      <trkpt lat="49.08124" lon="0.04501">
        <ele>33</ele>
        <time>2023-10-15T08:01:17Z</time>
      </trkpt>
      <trkpt lat="49.08125" lon="0.04514">
        <ele>32.9</ele>
        <time>2023-10-15T08:01:18Z</time>
      </trkpt>
      <trkpt lat="49.08126" lon="0.04527">
        <ele>32.7</ele>
        <time>2023-10-15T08:01:19Z</time>
      </trkpt>
      <trkpt lat="49.08127" lon="0.04539">
        <ele>32.5</ele>
        <time>2023-10-15T08:01:20Z</time>
      </trkpt>
      <trkpt lat="49.08128" lon="0.04552">
        <ele>32.3</ele>
        <time>2023-10-15T08:01:21Z</time>
      </trkpt>
      <trkpt lat="49.08129" lon="0.04565">
        <ele>32.1</ele>
        <time>2023-10-15T08:01:22Z</time>
      </trkpt>
      <trkpt lat="49.0813" lon="0.04578">
        <ele>32</ele>
        <time>2023-10-15T08:01:23Z</time>
      </trkpt>
      <trkpt lat="49.0813" lon="0.04592">
        <ele>31.9</ele>
        <time>2023-10-15T08:01:24Z</time>
      </trkpt>
      <trkpt lat="49.08131" lon="0.04605">
        <ele>31.9</ele>
        <time>2023-10-15T08:01:25Z</time>
      </trkpt>
      <trkpt lat="49.08131" lon="0.04617">
        <ele>31.9</ele>
        <time>2023-10-15T08:01:26Z</time>
      </trkpt>
      <trkpt lat="49.08131" lon="0.04629">
        <ele>32</ele>
        <time>2023-10-15T08:01:27Z</time>
      </trkpt>
      <trkpt lat="49.08131" lon="0.04642">
        <ele>32.1</ele>
        <time>2023-10-15T08:01:28Z</time>
      </trkpt>
      <trkpt lat="49.08131" lon="0.04654">
        <ele>32.2</ele>
        <time>2023-10-15T08:01:29Z</time>
      </trkpt>
      <trkpt lat="49.0813" lon="0.04665">
        <ele>32.3</ele>
        <time>2023-10-15T08:01:30Z</time>
      </trkpt>
      <trkpt lat="49.08129" lon="0.04676">
        <ele>32.4</ele>
        <time>2023-10-15T08:01:31Z</time>
      </trkpt>
      <trkpt lat="49.08128" lon="0.04688">
        <ele>32.5</ele>
        <time>2023-10-15T08:01:32Z</time>
      </trkpt>
      <trkpt lat="49.08127" lon="0.04699">
        <ele>32.5</ele>
        <time>2023-10-15T08:01:33Z</time>
      </trkpt>
      <trkpt lat="49.08126" lon="0.04711">
        <ele>32.4</ele>
        <time>2023-10-15T08:01:34Z</time>
      </trkpt>
      <trkpt lat="49.08125" lon="0.04722">
        <ele>32.3</ele>
        <time>2023-10-15T08:01:35Z</time>
      </trkpt>
      <trkpt lat="49.08123" lon="0.04734">
        <ele>32.1</ele>
        <time>2023-10-15T08:01:36Z</time>
      </trkpt>
      <trkpt lat="49.08122" lon="0.04746">
        <ele>31.9</ele>
        <time>2023-10-15T08:01:37Z</time>
      </trkpt>
      <trkpt lat="49.0812" lon="0.04758">
        <ele>31.7</ele>
        <time>2023-10-15T08:01:38Z</time>
      </trkpt>
      <trkpt lat="49.08118" lon="0.04771">
        <ele>31.5</ele>
        <time>2023-10-15T08:01:39Z</time>
      </trkpt>
      <trkpt lat="49.08117" lon="0.04783">
        <ele>31.2</ele>
        <time>2023-10-15T08:01:40Z</time>
      </trkpt>
      <trkpt lat="49.08116" lon="0.04795">
        <ele>31</ele>
        <time>2023-10-15T08:01:41Z</time>
      </trkpt>
      <trkpt lat="49.08115" lon="0.04808">
        <ele>30.8</ele>
        <time>2023-10-15T08:01:42Z</time>
      </trkpt>
      <trkpt lat="49.08114" lon="0.04821">
        <ele>30.6</ele>
        <time>2023-10-15T08:01:43Z</time>
      </trkpt>
      <trkpt lat="49.08112" lon="0.04833">
        <ele>30.4</ele>
        <time>2023-10-15T08:01:44Z</time>
      </trkpt>
      <trkpt lat="49.0811" lon="0.04845">
        <ele>30.3</ele>
        <time>2023-10-15T08:01:45Z</time>
      </trkpt>
      <trkpt lat="49.08108" lon="0.04856">
        <ele>30.2</ele>
        <time>2023-10-15T08:01:46Z</time>
      </trkpt>
      <trkpt lat="49.08105" lon="0.04867">
        <ele>30.1</ele>
        <time>2023-10-15T08:01:47Z</time>
      </trkpt>
      <trkpt lat="49.08102" lon="0.04879">
        <ele>30.1</ele>
        <time>2023-10-15T08:01:48Z</time>
      </trkpt>
      <trkpt lat="49.08098" lon="0.0489">
        <ele>30.1</ele>
        <time>2023-10-15T08:01:49Z</time>
      </trkpt>
      <trkpt lat="49.08095" lon="0.04901">
        <ele>30.1</ele>
        <time>2023-10-15T08:01:50Z</time>
      </trkpt>
      <trkpt lat="49.08091" lon="0.04912">
        <ele>30.1</ele>
        <time>2023-10-15T08:01:51Z</time>
      </trkpt>
      <trkpt lat="49.08087" lon="0.04924">
        <ele>30</ele>
        <time>2023-10-15T08:01:52Z</time>
      </trkpt>
      <trkpt lat="49.08084" lon="0.04935">
        <ele>29.9</ele>
        <time>2023-10-15T08:01:53Z</time>
      </trkpt>
      <trkpt lat="49.08081" lon="0.04948">
        <ele>29.9</ele>
        <time>2023-10-15T08:01:54Z</time>
      </trkpt>
      <trkpt lat="49.0808" lon="0.0496">
        <ele>29.9</ele>
        <time>2023-10-15T08:01:55Z</time>
      </trkpt>
      <trkpt lat="49.08079" lon="0.04974">
        <ele>29.9</ele>
        <time>2023-10-15T08:01:56Z</time>
      </trkpt>
      <trkpt lat="49.08079" lon="0.04987">
        <ele>29.9</ele>
        <time>2023-10-15T08:01:57Z</time>
      </trkpt>
      <trkpt lat="49.08079" lon="0.05">
        <ele>29.9</ele>
        <time>2023-10-15T08:01:58Z</time>
      </trkpt>
      <trkpt lat="49.08081" lon="0.05012">
        <ele>29.9</ele>
        <time>2023-10-15T08:01:59Z</time>
      </trkpt>
      <trkpt lat="49.08084" lon="0.05025">
        <ele>29.9</ele>
        <time>2023-10-15T08:02:00Z</time>
      </trkpt>
      <trkpt lat="49.08088" lon="0.05036">
        <ele>29.9</ele>
        <time>2023-10-15T08:02:01Z</time>
      </trkpt>
      <trkpt lat="49.08092" lon="0.05047">
        <ele>29.9</ele>
        <time>2023-10-15T08:02:02Z</time>
      </trkpt>
      <trkpt lat="49.08096" lon="0.05057">
        <ele>29.9</ele>
        <time>2023-10-15T08:02:03Z</time>
      </trkpt>
      <trkpt lat="49.08101" lon="0.05068">
        <ele>29.9</ele>
        <time>2023-10-15T08:02:04Z</time>
      </trkpt>
      <trkpt lat="49.08105" lon="0.05081">
        <ele>29.9</ele>
        <time>2023-10-15T08:02:05Z</time>
      </trkpt>
      <trkpt lat="49.08108" lon="0.05093">
        <ele>29.9</ele>
        <time>2023-10-15T08:02:06Z</time>
      </trkpt>
      <trkpt lat="49.08112" lon="0.05105">
        <ele>29.9</ele>
        <time>2023-10-15T08:02:07Z</time>
      </trkpt>
      <trkpt lat="49.08116" lon="0.05117">
        <ele>30</ele>
        <time>2023-10-15T08:02:08Z</time>
      </trkpt>
      <trkpt lat="49.08119" lon="0.05128">
        <ele>30</ele>
        <time>2023-10-15T08:02:09Z</time>
      </trkpt>
      <trkpt lat="49.08123" lon="0.0514">
        <ele>30</ele>
        <time>2023-10-15T08:02:10Z</time>
      </trkpt>
      <trkpt lat="49.08127" lon="0.05151">
        <ele>30</ele>
        <time>2023-10-15T08:02:11Z</time>
      </trkpt>
      <trkpt lat="49.0813" lon="0.05162">
        <ele>30.1</ele>
        <time>2023-10-15T08:02:12Z</time>
      </trkpt>
      <trkpt lat="49.08134" lon="0.05173">
        <ele>30.1</ele>
        <time>2023-10-15T08:02:13Z</time>
      </trkpt>
      <trkpt lat="49.08138" lon="0.05185">
        <ele>30.1</ele>
        <time>2023-10-15T08:02:14Z</time>
      </trkpt>
      <trkpt lat="49.08141" lon="0.05196">
        <ele>30.1</ele>
        <time>2023-10-15T08:02:15Z</time>
      </trkpt>
      <trkpt lat="49.08145" lon="0.05209">
        <ele>30.1</ele>
        <time>2023-10-15T08:02:16Z</time>
      </trkpt>
      <trkpt lat="49.08148" lon="0.05221">
        <ele>30.2</ele>
        <time>2023-10-15T08:02:17Z</time>
      </trkpt>
      <trkpt lat="49.08152" lon="0.05233">
        <ele>30.2</ele>
        <time>2023-10-15T08:02:18Z</time>
      </trkpt>
      <trkpt lat="49.08156" lon="0.05245">
        <ele>30.3</ele>
        <time>2023-10-15T08:02:19Z</time>
      </trkpt>
      <trkpt lat="49.08159" lon="0.05257">
        <ele>30.3</ele>
        <time>2023-10-15T08:02:20Z</time>
      </trkpt>
      <trkpt lat="49.08163" lon="0.05268">
        <ele>30.3</ele>
        <time>2023-10-15T08:02:21Z</time>
      </trkpt>
      <trkpt lat="49.08166" lon="0.0528">
        <ele>30.4</ele>
        <time>2023-10-15T08:02:22Z</time>
      </trkpt>
      <trkpt lat="49.0817" lon="0.05291">
        <ele>30.4</ele>
        <time>2023-10-15T08:02:23Z</time>
      </trkpt>
      <trkpt lat="49.08173" lon="0.05303">
        <ele>30.4</ele>
        <time>2023-10-15T08:02:24Z</time>
      </trkpt>
      <trkpt lat="49.08177" lon="0.05314">
        <ele>30.5</ele>
        <time>2023-10-15T08:02:25Z</time>
      </trkpt>
      <trkpt lat="49.08181" lon="0.05325">
        <ele>30.6</ele>
        <time>2023-10-15T08:02:26Z</time>
      </trkpt>
      <trkpt lat="49.08186" lon="0.05335">
        <ele>30.7</ele>
        <time>2023-10-15T08:02:27Z</time>
      </trkpt>
      <trkpt lat="49.08192" lon="0.05343">
        <ele>30.7</ele>
        <time>2023-10-15T08:02:28Z</time>
      </trkpt>
      <trkpt lat="49.08199" lon="0.0535">
        <ele>30.7</ele>
        <time>2023-10-15T08:02:29Z</time>
      </trkpt>
      <trkpt lat="49.08206" lon="0.05356">
        <ele>30.7</ele>
        <time>2023-10-15T08:02:30Z</time>
      </trkpt>
      <trkpt lat="49.08214" lon="0.05363">
        <ele>30.7</ele>
        <time>2023-10-15T08:02:31Z</time>
      </trkpt>
      <trkpt lat="49.08221" lon="0.05369">
        <ele>30.7</ele>
        <time>2023-10-15T08:02:32Z</time>
      </trkpt>
      <trkpt lat="49.08228" lon="0.05375">
        <ele>30.7</ele>
        <time>2023-10-15T08:02:33Z</time>
      </trkpt>
      <trkpt lat="49.08235" lon="0.05381">
        <ele>30.7</ele>
        <time>2023-10-15T08:02:34Z</time>
      </trkpt>
      <trkpt lat="49.08242" lon="0.05389">
        <ele>30.7</ele>
        <time>2023-10-15T08:02:35Z</time>
      </trkpt>
      <trkpt lat="49.08248" lon="0.05398">
        <ele>30.7</ele>
        <time>2023-10-15T08:02:36Z</time>
      </trkpt>
      <trkpt lat="49.08253" lon="0.05408">
        <ele>30.7</ele>
        <time>2023-10-15T08:02:37Z</time>
      </trkpt>
      <trkpt lat="49.08258" lon="0.05419">
        <ele>30.7</ele>
        <time>2023-10-15T08:02:38Z</time>
      </trkpt>
      <trkpt lat="49.08262" lon="0.05431">
        <ele>30.7</ele>
        <time>2023-10-15T08:02:39Z</time>
      </trkpt>
      <trkpt lat="49.08266" lon="0.05443">
        <ele>30.7</ele>
        <time>2023-10-15T08:02:40Z</time>
      </trkpt>
      <trkpt lat="49.0827" lon="0.05455">
        <ele>30.7</ele>
        <time>2023-10-15T08:02:41Z</time>
      </trkpt>
      <trkpt lat="49.08273" lon="0.05467">
        <ele>30.7</ele>
        <time>2023-10-15T08:02:42Z</time>
      </trkpt>
      <trkpt lat="49.08277" lon="0.05478">
        <ele>30.7</ele>
        <time>2023-10-15T08:02:43Z</time>
      </trkpt>
      <trkpt lat="49.0828" lon="0.0549">
        <ele>30.7</ele>
        <time>2023-10-15T08:02:44Z</time>
      </trkpt>
      <trkpt lat="49.08283" lon="0.05502">
        <ele>30.7</ele>
        <time>2023-10-15T08:02:45Z</time>
      </trkpt>
      <trkpt lat="49.08286" lon="0.05515">
        <ele>30.7</ele>
        <time>2023-10-15T08:02:46Z</time>
      </trkpt>
      <trkpt lat="49.08287" lon="0.05528">
        <ele>30.7</ele>
        <time>2023-10-15T08:02:47Z</time>
      </trkpt>
      <trkpt lat="49.08289" lon="0.05541">
        <ele>30.7</ele>
        <time>2023-10-15T08:02:48Z</time>
      </trkpt>
      <trkpt lat="49.0829" lon="0.05555">
        <ele>30.7</ele>
        <time>2023-10-15T08:02:49Z</time>
      </trkpt>
      <trkpt lat="49.0829" lon="0.05568">
        <ele>30.7</ele>
        <time>2023-10-15T08:02:50Z</time>
      </trkpt>
      <trkpt lat="49.0829" lon="0.05582">
        <ele>30.7</ele>
        <time>2023-10-15T08:02:51Z</time>
      </trkpt>
      <trkpt lat="49.0829" lon="0.05595">
        <ele>30.8</ele>
        <time>2023-10-15T08:02:52Z</time>
      </trkpt>
      <trkpt lat="49.0829" lon="0.05608">
        <ele>30.8</ele>
        <time>2023-10-15T08:02:53Z</time>
      </trkpt>
      <trkpt lat="49.08289" lon="0.05622">
        <ele>30.8</ele>
        <time>2023-10-15T08:02:54Z</time>
      </trkpt>
      <trkpt lat="49.08289" lon="0.05636">
        <ele>30.9</ele>
        <time>2023-10-15T08:02:55Z</time>
      </trkpt>
      <trkpt lat="49.08289" lon="0.0565">
        <ele>30.9</ele>
        <time>2023-10-15T08:02:56Z</time>
      </trkpt>
      <trkpt lat="49.08289" lon="0.05664">
        <ele>30.9</ele>
        <time>2023-10-15T08:02:57Z</time>
      </trkpt>
      <trkpt lat="49.08289" lon="0.05678">
        <ele>30.9</ele>
        <time>2023-10-15T08:02:58Z</time>
      </trkpt>
      <trkpt lat="49.08289" lon="0.05692">
        <ele>30.9</ele>
        <time>2023-10-15T08:02:59Z</time>
      </trkpt>
      <trkpt lat="49.08289" lon="0.05706">
        <ele>30.9</ele>
        <time>2023-10-15T08:03:00Z</time>
      </trkpt>
      <trkpt lat="49.08289" lon="0.0572">
        <ele>31</ele>
        <time>2023-10-15T08:03:01Z</time>
      </trkpt>
      <trkpt lat="49.08289" lon="0.05734">
        <ele>31</ele>
        <time>2023-10-15T08:03:02Z</time>
      </trkpt>
      <trkpt lat="49.08289" lon="0.05748">
        <ele>31</ele>
        <time>2023-10-15T08:03:03Z</time>
      </trkpt>
      <trkpt lat="49.08288" lon="0.05761">
        <ele>31</ele>
        <time>2023-10-15T08:03:04Z</time>
      </trkpt>
      <trkpt lat="49.08288" lon="0.05774">
        <ele>31.1</ele>
        <time>2023-10-15T08:03:05Z</time>
      </trkpt>
      <trkpt lat="49.08287" lon="0.05788">
        <ele>31.1</ele>
        <time>2023-10-15T08:03:06Z</time>
      </trkpt>
      <trkpt lat="49.08286" lon="0.05801">
        <ele>31.1</ele>
        <time>2023-10-15T08:03:07Z</time>
      </trkpt>
      <trkpt lat="49.08284" lon="0.05814">
        <ele>31.1</ele>
        <time>2023-10-15T08:03:08Z</time>
      </trkpt>
      <trkpt lat="49.08282" lon="0.05828">
        <ele>31.2</ele>
        <time>2023-10-15T08:03:09Z</time>
      </trkpt>
      <trkpt lat="49.08278" lon="0.05841">
        <ele>31.3</ele>
        <time>2023-10-15T08:03:10Z</time>
      </trkpt>
      <trkpt lat="49.08275" lon="0.05854">
        <ele>31.4</ele>
        <time>2023-10-15T08:03:11Z</time>
      </trkpt>
      <trkpt lat="49.08272" lon="0.05866">
        <ele>31.5</ele>
        <time>2023-10-15T08:03:12Z</time>
      </trkpt>
      <trkpt lat="49.08268" lon="0.05879">
        <ele>31.7</ele>
        <time>2023-10-15T08:03:13Z</time>
      </trkpt>
      <trkpt lat="49.08264" lon="0.05891">
        <ele>31.8</ele>
        <time>2023-10-15T08:03:14Z</time>
      </trkpt>
      <trkpt lat="49.08261" lon="0.05903">
        <ele>31.9</ele>
        <time>2023-10-15T08:03:15Z</time>
      </trkpt>
      <trkpt lat="49.08258" lon="0.05915">
        <ele>32</ele>
        <time>2023-10-15T08:03:16Z</time>
      </trkpt>
      <trkpt lat="49.08254" lon="0.05927">
        <ele>32</ele>
        <time>2023-10-15T08:03:17Z</time>
      </trkpt>
      <trkpt lat="49.08251" lon="0.05939">
        <ele>32.1</ele>
        <time>2023-10-15T08:03:18Z</time>
      </trkpt>
      <trkpt lat="49.08247" lon="0.05951">
        <ele>32.2</ele>
        <time>2023-10-15T08:03:19Z</time>
      </trkpt>
      <trkpt lat="49.08242" lon="0.05963">
        <ele>32.2</ele>
        <time>2023-10-15T08:03:20Z</time>
      </trkpt>
      <trkpt lat="49.08237" lon="0.05974">
        <ele>32.2</ele>
        <time>2023-10-15T08:03:21Z</time>
      </trkpt>
      <trkpt lat="49.08232" lon="0.05984">
        <ele>32.3</ele>
        <time>2023-10-15T08:03:22Z</time>
      </trkpt>
      <trkpt lat="49.08225" lon="0.05994">
        <ele>32.3</ele>
        <time>2023-10-15T08:03:23Z</time>
      </trkpt>
      <trkpt lat="49.08219" lon="0.06004">
        <ele>32.3</ele>
        <time>2023-10-15T08:03:24Z</time>
      </trkpt>
      <trkpt lat="49.08212" lon="0.06012">
        <ele>32.3</ele>
        <time>2023-10-15T08:03:25Z</time>
      </trkpt>
      <trkpt lat="49.08206" lon="0.0602">
        <ele>32.2</ele>
        <time>2023-10-15T08:03:26Z</time>
      </trkpt>
      <trkpt lat="49.08199" lon="0.06029">
        <ele>32.2</ele>
        <time>2023-10-15T08:03:27Z</time>
      </trkpt>
      <trkpt lat="49.08193" lon="0.06038">
        <ele>32.2</ele>
        <time>2023-10-15T08:03:28Z</time>
      </trkpt>
      <trkpt lat="49.08189" lon="0.06047">
        <ele>32.2</ele>
        <time>2023-10-15T08:03:29Z</time>
      </trkpt>
      <trkpt lat="49.08184" lon="0.06055">
        <ele>32.2</ele>
        <time>2023-10-15T08:03:30Z</time>
      </trkpt>
      <trkpt lat="49.0818" lon="0.06064">
        <ele>32.2</ele>
        <time>2023-10-15T08:03:31Z</time>
      </trkpt>
      <trkpt lat="49.08176" lon="0.06073">
        <ele>32.1</ele>
        <time>2023-10-15T08:03:32Z</time>
      </trkpt>
      <trkpt lat="49.08172" lon="0.06083">
        <ele>32.1</ele>
        <time>2023-10-15T08:03:33Z</time>
      </trkpt>
      <trkpt lat="49.08169" lon="0.06093">
        <ele>32.1</ele>
        <time>2023-10-15T08:03:34Z</time>
      </trkpt>
      <trkpt lat="49.08165" lon="0.06104">
        <ele>32</ele>
        <time>2023-10-15T08:03:35Z</time>
      </trkpt>
      <trkpt lat="49.08162" lon="0.06115">
        <ele>31.9</ele>
        <time>2023-10-15T08:03:36Z</time>
      </trkpt>
      <trkpt lat="49.08159" lon="0.06127">
        <ele>31.7</ele>
        <time>2023-10-15T08:03:37Z</time>
      </trkpt>
      <trkpt lat="49.08156" lon="0.0614">
        <ele>31.6</ele>
        <time>2023-10-15T08:03:38Z</time>
      </trkpt>
      <trkpt lat="49.08152" lon="0.06153">
        <ele>31.6</ele>
        <time>2023-10-15T08:03:39Z</time>
      </trkpt>
      <trkpt lat="49.08148" lon="0.06165">
        <ele>31.6</ele>
        <time>2023-10-15T08:03:40Z</time>
      </trkpt>
      <trkpt lat="49.08143" lon="0.06177">
        <ele>31.6</ele>
        <time>2023-10-15T08:03:41Z</time>
      </trkpt>
      <trkpt lat="49.08138" lon="0.06189">
        <ele>31.7</ele>
        <time>2023-10-15T08:03:42Z</time>
      </trkpt>
      <trkpt lat="49.08133" lon="0.062">
        <ele>31.8</ele>
        <time>2023-10-15T08:03:43Z</time>
      </trkpt>
      <trkpt lat="49.08128" lon="0.06211">
        <ele>31.8</ele>
        <time>2023-10-15T08:03:44Z</time>
      </trkpt>
      <trkpt lat="49.08123" lon="0.06222">
        <ele>31.9</ele>
        <time>2023-10-15T08:03:45Z</time>
      </trkpt>
      <trkpt lat="49.08118" lon="0.06233">
        <ele>32</ele>
        <time>2023-10-15T08:03:46Z</time>
      </trkpt>
      <trkpt lat="49.08113" lon="0.06244">
        <ele>32.1</ele>
        <time>2023-10-15T08:03:47Z</time>
      </trkpt>
      <trkpt lat="49.08107" lon="0.06255">
        <ele>32.2</ele>
        <time>2023-10-15T08:03:48Z</time>
      </trkpt>
      <trkpt lat="49.08102" lon="0.06265">
        <ele>32.4</ele>
        <time>2023-10-15T08:03:49Z</time>
      </trkpt>
      <trkpt lat="49.08096" lon="0.06276">
        <ele>32.5</ele>
        <time>2023-10-15T08:03:50Z</time>
      </trkpt>
      <trkpt lat="49.08091" lon="0.06287">
        <ele>32.6</ele>
        <time>2023-10-15T08:03:51Z</time>
      </trkpt>
      <trkpt lat="49.08086" lon="0.06297">
        <ele>32.6</ele>
        <time>2023-10-15T08:03:52Z</time>
      </trkpt>
      <trkpt lat="49.08081" lon="0.06307">
        <ele>32.7</ele>
        <time>2023-10-15T08:03:53Z</time>
      </trkpt>
      <trkpt lat="49.08075" lon="0.06318">
        <ele>32.8</ele>
        <time>2023-10-15T08:03:54Z</time>
      </trkpt>
      <trkpt lat="49.0807" lon="0.0633">
        <ele>32.8</ele>
        <time>2023-10-15T08:03:55Z</time>
      </trkpt>
      <trkpt lat="49.08066" lon="0.06341">
        <ele>32.8</ele>
        <time>2023-10-15T08:03:56Z</time>
      </trkpt>
      <trkpt lat="49.08061" lon="0.06353">
        <ele>32.8</ele>
        <time>2023-10-15T08:03:57Z</time>
      </trkpt>
      <trkpt lat="49.08057" lon="0.06366">
        <ele>32.7</ele>
        <time>2023-10-15T08:03:58Z</time>
      </trkpt>
      <trkpt lat="49.08052" lon="0.06379">
        <ele>32.7</ele>
        <time>2023-10-15T08:03:59Z</time>
      </trkpt>
      <trkpt lat="49.08048" lon="0.06391">
        <ele>32.7</ele>
        <time>2023-10-15T08:04:00Z</time>
      </trkpt>
      <trkpt lat="49.08044" lon="0.06403">
        <ele>32.6</ele>
        <time>2023-10-15T08:04:01Z</time>
      </trkpt>
      <trkpt lat="49.0804" lon="0.06415">
        <ele>32.6</ele>
        <time>2023-10-15T08:04:02Z</time>
      </trkpt>
      <trkpt lat="49.08034" lon="0.06427">
        <ele>32.6</ele>
        <time>2023-10-15T08:04:03Z</time>
      </trkpt>
      <trkpt lat="49.08029" lon="0.06438">
        <ele>32.6</ele>
        <time>2023-10-15T08:04:04Z</time>
      </trkpt>
      <trkpt lat="49.08024" lon="0.06449">
        <ele>32.6</ele>
        <time>2023-10-15T08:04:05Z</time>
      </trkpt>
      <trkpt lat="49.08019" lon="0.06461">
        <ele>32.6</ele>
        <time>2023-10-15T08:04:06Z</time>
      </trkpt>
      <trkpt lat="49.08014" lon="0.06472">
        <ele>32.5</ele>
        <time>2023-10-15T08:04:07Z</time>
      </trkpt>
      <trkpt lat="49.08008" lon="0.06483">
        <ele>32.5</ele>
        <time>2023-10-15T08:04:08Z</time>
      </trkpt>
      <trkpt lat="49.08003" lon="0.06494">
        <ele>32.5</ele>
        <time>2023-10-15T08:04:09Z</time>
      </trkpt>
      <trkpt lat="49.07997" lon="0.06504">
        <ele>32.5</ele>
        <time>2023-10-15T08:04:10Z</time>
      </trkpt>
      <trkpt lat="49.07992" lon="0.06515">
        <ele>32.4</ele>
        <time>2023-10-15T08:04:11Z</time>
      </trkpt>
      <trkpt lat="49.07987" lon="0.06526">
        <ele>32.4</ele>
        <time>2023-10-15T08:04:12Z</time>
      </trkpt>
      <trkpt lat="49.07982" lon="0.06538">
        <ele>32.4</ele>
        <time>2023-10-15T08:04:13Z</time>
      </trkpt>
      <trkpt lat="49.07977" lon="0.06548">
        <ele>32.4</ele>
        <time>2023-10-15T08:04:14Z</time>
      </trkpt>
      <trkpt lat="49.07971" lon="0.06559">
        <ele>32.5</ele>
        <time>2023-10-15T08:04:15Z</time>
      </trkpt>
      <trkpt lat="49.07966" lon="0.0657">
        <ele>32.5</ele>
        <time>2023-10-15T08:04:16Z</time>
      </trkpt>
      <trkpt lat="49.0796" lon="0.06581">
        <ele>32.6</ele>
        <time>2023-10-15T08:04:17Z</time>
      </trkpt>
      <trkpt lat="49.07955" lon="0.06592">
        <ele>32.6</ele>
        <time>2023-10-15T08:04:18Z</time>
      </trkpt>
      <trkpt lat="49.0795" lon="0.06603">
        <ele>32.7</ele>
        <time>2023-10-15T08:04:19Z</time>
      </trkpt>
      <trkpt lat="49.07946" lon="0.06614">
        <ele>32.7</ele>
        <time>2023-10-15T08:04:20Z</time>
      </trkpt>
      <trkpt lat="49.07941" lon="0.06625">
        <ele>32.7</ele>
        <time>2023-10-15T08:04:21Z</time>
      </trkpt>
      <trkpt lat="49.07937" lon="0.06637">
        <ele>32.7</ele>
        <time>2023-10-15T08:04:22Z</time>
      </trkpt>
      <trkpt lat="49.07933" lon="0.06649">
        <ele>32.8</ele>
        <time>2023-10-15T08:04:23Z</time>
      </trkpt>
      <trkpt lat="49.07929" lon="0.06661">
        <ele>32.8</ele>
        <time>2023-10-15T08:04:24Z</time>
      </trkpt>
      <trkpt lat="49.07925" lon="0.06673">
        <ele>32.8</ele>
        <time>2023-10-15T08:04:25Z</time>
      </trkpt>
      <trkpt lat="49.07921" lon="0.06685">
        <ele>32.8</ele>
        <time>2023-10-15T08:04:26Z</time>
      </trkpt>
      <trkpt lat="49.07918" lon="0.06696">
        <ele>32.9</ele>
        <time>2023-10-15T08:04:27Z</time>
      </trkpt>
      <trkpt lat="49.07914" lon="0.06708">
        <ele>32.9</ele>
        <time>2023-10-15T08:04:28Z</time>
      </trkpt>
      <trkpt lat="49.07911" lon="0.06719">
        <ele>32.9</ele>
        <time>2023-10-15T08:04:29Z</time>
      </trkpt>
      <trkpt lat="49.07907" lon="0.06731">
        <ele>33</ele>
        <time>2023-10-15T08:04:30Z</time>
      </trkpt>
      <trkpt lat="49.07904" lon="0.06743">
        <ele>33</ele>
        <time>2023-10-15T08:04:31Z</time>
      </trkpt>
      <trkpt lat="49.079" lon="0.06754">
        <ele>33</ele>
        <time>2023-10-15T08:04:32Z</time>
      </trkpt>
      <trkpt lat="49.07897" lon="0.06766">
        <ele>33</ele>
        <time>2023-10-15T08:04:33Z</time>
      </trkpt>
      <trkpt lat="49.07893" lon="0.06778">
        <ele>33.1</ele>
        <time>2023-10-15T08:04:34Z</time>
      </trkpt>
      <trkpt lat="49.0789" lon="0.0679">
        <ele>33</ele>
        <time>2023-10-15T08:04:35Z</time>
      </trkpt>
      <trkpt lat="49.07887" lon="0.06802">
        <ele>33</ele>
        <time>2023-10-15T08:04:36Z</time>
      </trkpt>
      <trkpt lat="49.07884" lon="0.06814">
        <ele>33</ele>
        <time>2023-10-15T08:04:37Z</time>
      </trkpt>
      <trkpt lat="49.07882" lon="0.06827">
        <ele>33</ele>
        <time>2023-10-15T08:04:38Z</time>
      </trkpt>
      <trkpt lat="49.07879" lon="0.06841">
        <ele>33</ele>
        <time>2023-10-15T08:04:39Z</time>
      </trkpt>
      <trkpt lat="49.07877" lon="0.06855">
        <ele>33.1</ele>
        <time>2023-10-15T08:04:40Z</time>
      </trkpt>
      <trkpt lat="49.07876" lon="0.06868">
        <ele>33.1</ele>
        <time>2023-10-15T08:04:41Z</time>
      </trkpt>
      <trkpt lat="49.07874" lon="0.06882">
        <ele>33.1</ele>
        <time>2023-10-15T08:04:42Z</time>
      </trkpt>
      <trkpt lat="49.07872" lon="0.06895">
        <ele>33.2</ele>
        <time>2023-10-15T08:04:43Z</time>
      </trkpt>
      <trkpt lat="49.0787" lon="0.06908">
        <ele>33.3</ele>
        <time>2023-10-15T08:04:44Z</time>
      </trkpt>
      <trkpt lat="49.07868" lon="0.06922">
        <ele>33.3</ele>
        <time>2023-10-15T08:04:45Z</time>
      </trkpt>
      <trkpt lat="49.07866" lon="0.06935">
        <ele>33.4</ele>
        <time>2023-10-15T08:04:46Z</time>
      </trkpt>
      <trkpt lat="49.07864" lon="0.06948">
        <ele>33.4</ele>
        <time>2023-10-15T08:04:47Z</time>
      </trkpt>
      <trkpt lat="49.07861" lon="0.06962">
        <ele>33.4</ele>
        <time>2023-10-15T08:04:48Z</time>
      </trkpt>
      <trkpt lat="49.07858" lon="0.06975">
        <ele>33.3</ele>
        <time>2023-10-15T08:04:49Z</time>
      </trkpt>
      <trkpt lat="49.07854" lon="0.06988">
        <ele>33.2</ele>
        <time>2023-10-15T08:04:50Z</time>
      </trkpt>
      <trkpt lat="49.07851" lon="0.07001">
        <ele>33.1</ele>
        <time>2023-10-15T08:04:51Z</time>
      </trkpt>
      <trkpt lat="49.07847" lon="0.07013">
        <ele>33.1</ele>
        <time>2023-10-15T08:04:52Z</time>
      </trkpt>
      <trkpt lat="49.07844" lon="0.07026">
        <ele>33</ele>
        <time>2023-10-15T08:04:53Z</time>
      </trkpt>
      <trkpt lat="49.0784" lon="0.07039">
        <ele>33</ele>
        <time>2023-10-15T08:04:54Z</time>
      </trkpt>
      <trkpt lat="49.07837" lon="0.07053">
        <ele>33</ele>
        <time>2023-10-15T08:04:55Z</time>
      </trkpt>
      <trkpt lat="49.07834" lon="0.07066">
        <ele>32.9</ele>
        <time>2023-10-15T08:04:56Z</time>
      </trkpt>
      <trkpt lat="49.07831" lon="0.0708">
        <ele>32.9</ele>
        <time>2023-10-15T08:04:57Z</time>
      </trkpt>
      <trkpt lat="49.07828" lon="0.07093">
        <ele>32.9</ele>
        <time>2023-10-15T08:04:58Z</time>
      </trkpt>
      <trkpt lat="49.07825" lon="0.07107">
        <ele>32.8</ele>
        <time>2023-10-15T08:04:59Z</time>
      </trkpt>
      <trkpt lat="49.07822" lon="0.0712">
        <ele>32.8</ele>
        <time>2023-10-15T08:05:00Z</time>
      </trkpt>
      <trkpt lat="49.07819" lon="0.07133">
        <ele>32.8</ele>
        <time>2023-10-15T08:05:01Z</time>
      </trkpt>
      <trkpt lat="49.07816" lon="0.07146">
        <ele>32.7</ele>
        <time>2023-10-15T08:05:02Z</time>
      </trkpt>
      <trkpt lat="49.07813" lon="0.07159">
        <ele>32.7</ele>
        <time>2023-10-15T08:05:03Z</time>
      </trkpt>
      <trkpt lat="49.07811" lon="0.07171">
        <ele>32.8</ele>
        <time>2023-10-15T08:05:04Z</time>
      </trkpt>
      <trkpt lat="49.07808" lon="0.07183">
        <ele>32.8</ele>
        <time>2023-10-15T08:05:05Z</time>
      </trkpt>
      <trkpt lat="49.07806" lon="0.07194">
        <ele>32.9</ele>
        <time>2023-10-15T08:05:06Z</time>
      </trkpt>
      <trkpt lat="49.07803" lon="0.07205">
        <ele>32.9</ele>
        <time>2023-10-15T08:05:07Z</time>
      </trkpt>
      <trkpt lat="49.078" lon="0.07216">
        <ele>33</ele>
        <time>2023-10-15T08:05:08Z</time>
      </trkpt>
      <trkpt lat="49.07798" lon="0.07226">
        <ele>33</ele>
        <time>2023-10-15T08:05:09Z</time>
      </trkpt>
      <trkpt lat="49.07795" lon="0.07237">
        <ele>33.1</ele>
        <time>2023-10-15T08:05:10Z</time>
      </trkpt>
      <trkpt lat="49.07793" lon="0.07247">
        <ele>33.2</ele>
        <time>2023-10-15T08:05:11Z</time>
      </trkpt>
      <trkpt lat="49.07791" lon="0.07257">
        <ele>33.2</ele>
        <time>2023-10-15T08:05:12Z</time>
      </trkpt>
      <trkpt lat="49.07789" lon="0.07266">
        <ele>33.3</ele>
        <time>2023-10-15T08:05:13Z</time>
      </trkpt>
      <trkpt lat="49.07787" lon="0.07276">
        <ele>33.4</ele>
        <time>2023-10-15T08:05:14Z</time>
      </trkpt>
      <trkpt lat="49.07785" lon="0.07286">
        <ele>33.5</ele>
        <time>2023-10-15T08:05:15Z</time>
      </trkpt>
      <trkpt lat="49.07783" lon="0.07297">
        <ele>33.5</ele>
        <time>2023-10-15T08:05:16Z</time>
      </trkpt>
      <trkpt lat="49.0778" lon="0.07307">
        <ele>33.5</ele>
        <time>2023-10-15T08:05:17Z</time>
      </trkpt>
      <trkpt lat="49.07777" lon="0.07318">
        <ele>33.5</ele>
        <time>2023-10-15T08:05:18Z</time>
      </trkpt>
      <trkpt lat="49.07772" lon="0.07328">
        <ele>33.5</ele>
        <time>2023-10-15T08:05:19Z</time>
      </trkpt>
      <trkpt lat="49.07768" lon="0.07338">
        <ele>33.6</ele>
        <time>2023-10-15T08:05:20Z</time>
      </trkpt>
      <trkpt lat="49.07763" lon="0.07348">
        <ele>33.6</ele>
        <time>2023-10-15T08:05:21Z</time>
      </trkpt>
      <trkpt lat="49.07758" lon="0.07358">
        <ele>33.6</ele>
        <time>2023-10-15T08:05:22Z</time>
      </trkpt>
      <trkpt lat="49.07753" lon="0.07368">
        <ele>33.7</ele>
        <time>2023-10-15T08:05:23Z</time>
      </trkpt>
      <trkpt lat="49.07748" lon="0.07378">
        <ele>33.7</ele>
        <time>2023-10-15T08:05:24Z</time>
      </trkpt>
      <trkpt lat="49.07743" lon="0.07389">
        <ele>33.7</ele>
        <time>2023-10-15T08:05:25Z</time>
      </trkpt>
      <trkpt lat="49.07738" lon="0.074">
        <ele>33.8</ele>
        <time>2023-10-15T08:05:26Z</time>
      </trkpt>
      <trkpt lat="49.07734" lon="0.07411">
        <ele>33.8</ele>
        <time>2023-10-15T08:05:27Z</time>
      </trkpt>
      <trkpt lat="49.0773" lon="0.07423">
        <ele>33.9</ele>
        <time>2023-10-15T08:05:28Z</time>
      </trkpt>
      <trkpt lat="49.07726" lon="0.07434">
        <ele>33.9</ele>
        <time>2023-10-15T08:05:29Z</time>
      </trkpt>
      <trkpt lat="49.07722" lon="0.07446">
        <ele>34</ele>
        <time>2023-10-15T08:05:30Z</time>
      </trkpt>
      <trkpt lat="49.07719" lon="0.07457">
        <ele>34</ele>
        <time>2023-10-15T08:05:31Z</time>
      </trkpt>
      <trkpt lat="49.07715" lon="0.07468">
        <ele>34.1</ele>
        <time>2023-10-15T08:05:32Z</time>
      </trkpt>
      <trkpt lat="49.07711" lon="0.0748">
        <ele>34.1</ele>
        <time>2023-10-15T08:05:33Z</time>
      </trkpt>
      <trkpt lat="49.07707" lon="0.07491">
        <ele>34.1</ele>
        <time>2023-10-15T08:05:34Z</time>
      </trkpt>
      <trkpt lat="49.07703" lon="0.07502">
        <ele>34.2</ele>
        <time>2023-10-15T08:05:35Z</time>
      </trkpt>
      <trkpt lat="49.07699" lon="0.07513">
        <ele>34.3</ele>
        <time>2023-10-15T08:05:36Z</time>
      </trkpt>
      <trkpt lat="49.07695" lon="0.07525">
        <ele>34.4</ele>
        <time>2023-10-15T08:05:37Z</time>
      </trkpt>
      <trkpt lat="49.0769" lon="0.07537">
        <ele>34.4</ele>
        <time>2023-10-15T08:05:38Z</time>
      </trkpt>
      <trkpt lat="49.07687" lon="0.07549">
        <ele>34.4</ele>
        <time>2023-10-15T08:05:39Z</time>
      </trkpt>
      <trkpt lat="49.07683" lon="0.07561">
        <ele>34.5</ele>
        <time>2023-10-15T08:05:40Z</time>
      </trkpt>
      <trkpt lat="49.0768" lon="0.07574">
        <ele>34.5</ele>
        <time>2023-10-15T08:05:41Z</time>
      </trkpt>
      <trkpt lat="49.07677" lon="0.07585">
        <ele>34.6</ele>
        <time>2023-10-15T08:05:42Z</time>
      </trkpt>
      <trkpt lat="49.07673" lon="0.07597">
        <ele>34.6</ele>
        <time>2023-10-15T08:05:43Z</time>
      </trkpt>
      <trkpt lat="49.07669" lon="0.07609">
        <ele>34.7</ele>
        <time>2023-10-15T08:05:44Z</time>
      </trkpt>
      <trkpt lat="49.07666" lon="0.0762">
        <ele>34.7</ele>
        <time>2023-10-15T08:05:45Z</time>
      </trkpt>
      <trkpt lat="49.07662" lon="0.07631">
        <ele>34.8</ele>
        <time>2023-10-15T08:05:46Z</time>
      </trkpt>
      <trkpt lat="49.07658" lon="0.07641">
        <ele>34.8</ele>
        <time>2023-10-15T08:05:47Z</time>
      </trkpt>
      <trkpt lat="49.07654" lon="0.07652">
        <ele>34.8</ele>
        <time>2023-10-15T08:05:48Z</time>
      </trkpt>
      <trkpt lat="49.0765" lon="0.07663">
        <ele>34.8</ele>
        <time>2023-10-15T08:05:49Z</time>
      </trkpt>
      <trkpt lat="49.07647" lon="0.07673">
        <ele>34.8</ele>
        <time>2023-10-15T08:05:50Z</time>
      </trkpt>
      <trkpt lat="49.07643" lon="0.07684">
        <ele>34.7</ele>
        <time>2023-10-15T08:05:51Z</time>
      </trkpt>
      <trkpt lat="49.07639" lon="0.07695">
        <ele>34.6</ele>
        <time>2023-10-15T08:05:52Z</time>
      </trkpt>
      <trkpt lat="49.07635" lon="0.07705">
        <ele>34.4</ele>
        <time>2023-10-15T08:05:53Z</time>
      </trkpt>
      <trkpt lat="49.07631" lon="0.07715">
        <ele>34.1</ele>
        <time>2023-10-15T08:05:54Z</time>
      </trkpt>
      <trkpt lat="49.07626" lon="0.07726">
        <ele>33.9</ele>
        <time>2023-10-15T08:05:55Z</time>
      </trkpt>
      <trkpt lat="49.07622" lon="0.07737">
        <ele>33.7</ele>
        <time>2023-10-15T08:05:56Z</time>
      </trkpt>
      <trkpt lat="49.07617" lon="0.07748">
        <ele>33.5</ele>
        <time>2023-10-15T08:05:57Z</time>
      </trkpt>
      <trkpt lat="49.07612" lon="0.07759">
        <ele>33.4</ele>
        <time>2023-10-15T08:05:58Z</time>
      </trkpt>
      <trkpt lat="49.07607" lon="0.0777">
        <ele>33.2</ele>
        <time>2023-10-15T08:05:59Z</time>
      </trkpt>
      <trkpt lat="49.07601" lon="0.07781">
        <ele>33.1</ele>
        <time>2023-10-15T08:06:00Z</time>
      </trkpt>
      <trkpt lat="49.07597" lon="0.07791">
        <ele>33</ele>
        <time>2023-10-15T08:06:01Z</time>
      </trkpt>
      <trkpt lat="49.07592" lon="0.07802">
        <ele>33</ele>
        <time>2023-10-15T08:06:02Z</time>
      </trkpt>
      <trkpt lat="49.07587" lon="0.07814">
        <ele>33.1</ele>
        <time>2023-10-15T08:06:03Z</time>
      </trkpt>
      <trkpt lat="49.07582" lon="0.07824">
        <ele>33.2</ele>
        <time>2023-10-15T08:06:04Z</time>
      </trkpt>
      <trkpt lat="49.07578" lon="0.07835">
        <ele>33.3</ele>
        <time>2023-10-15T08:06:05Z</time>
      </trkpt>
      <trkpt lat="49.07573" lon="0.07845">
        <ele>33.4</ele>
        <time>2023-10-15T08:06:06Z</time>
      </trkpt>
      <trkpt lat="49.07568" lon="0.07854">
        <ele>33.5</ele>
        <time>2023-10-15T08:06:07Z</time>
      </trkpt>
      <trkpt lat="49.07563" lon="0.07863">
        <ele>33.6</ele>
        <time>2023-10-15T08:06:08Z</time>
      </trkpt>
      <trkpt lat="49.07557" lon="0.07873">
        <ele>33.7</ele>
        <time>2023-10-15T08:06:09Z</time>
      </trkpt>
      <trkpt lat="49.07551" lon="0.07881">
        <ele>33.8</ele>
        <time>2023-10-15T08:06:10Z</time>
      </trkpt>
      <trkpt lat="49.07545" lon="0.07889">
        <ele>33.8</ele>
        <time>2023-10-15T08:06:11Z</time>
      </trkpt>
      <trkpt lat="49.07538" lon="0.07898">
        <ele>33.8</ele>
        <time>2023-10-15T08:06:12Z</time>
      </trkpt>
      <trkpt lat="49.07531" lon="0.07906">
        <ele>33.9</ele>
        <time>2023-10-15T08:06:13Z</time>
      </trkpt>
      <trkpt lat="49.07524" lon="0.07914">
        <ele>33.9</ele>
        <time>2023-10-15T08:06:14Z</time>
      </trkpt>
      <trkpt lat="49.07518" lon="0.07923">
        <ele>33.8</ele>
        <time>2023-10-15T08:06:15Z</time>
      </trkpt>
      <trkpt lat="49.07511" lon="0.07933">
        <ele>33.8</ele>
        <time>2023-10-15T08:06:16Z</time>
      </trkpt>
      <trkpt lat="49.07504" lon="0.07944">
        <ele>33.8</ele>
        <time>2023-10-15T08:06:17Z</time>
      </trkpt>
      <trkpt lat="49.07498" lon="0.07955">
        <ele>33.8</ele>
        <time>2023-10-15T08:06:18Z</time>
      </trkpt>
      <trkpt lat="49.07492" lon="0.07967">
        <ele>33.8</ele>
        <time>2023-10-15T08:06:19Z</time>
      </trkpt>
      <trkpt lat="49.07486" lon="0.07978">
        <ele>33.8</ele>
        <time>2023-10-15T08:06:20Z</time>
      </trkpt>
      <trkpt lat="49.0748" lon="0.0799">
        <ele>33.8</ele>
        <time>2023-10-15T08:06:21Z</time>
      </trkpt>
      <trkpt lat="49.07475" lon="0.08001">
        <ele>33.8</ele>
        <time>2023-10-15T08:06:22Z</time>
      </trkpt>
      <trkpt lat="49.07469" lon="0.08013">
        <ele>33.8</ele>
        <time>2023-10-15T08:06:23Z</time>
      </trkpt>
      <trkpt lat="49.07463" lon="0.08024">
        <ele>33.8</ele>
        <time>2023-10-15T08:06:24Z</time>
      </trkpt>
      <trkpt lat="49.07458" lon="0.08033">
        <ele>33.8</ele>
        <time>2023-10-15T08:06:25Z</time>
      </trkpt>
      <trkpt lat="49.07451" lon="0.08042">
        <ele>33.9</ele>
        <time>2023-10-15T08:06:26Z</time>
      </trkpt>
      <trkpt lat="49.07444" lon="0.08051">
        <ele>33.9</ele>
        <time>2023-10-15T08:06:27Z</time>
      </trkpt>
      <trkpt lat="49.07438" lon="0.08059">
        <ele>33.9</ele>
        <time>2023-10-15T08:06:28Z</time>
      </trkpt>
      <trkpt lat="49.0743" lon="0.08067">
        <ele>34</ele>
        <time>2023-10-15T08:06:29Z</time>
      </trkpt>
      <trkpt lat="49.07423" lon="0.08074">
        <ele>34</ele>
        <time>2023-10-15T08:06:30Z</time>
      </trkpt>
      <trkpt lat="49.07416" lon="0.08081">
        <ele>34.1</ele>
        <time>2023-10-15T08:06:31Z</time>
      </trkpt>
      <trkpt lat="49.07409" lon="0.08089">
        <ele>34.1</ele>
        <time>2023-10-15T08:06:32Z</time>
      </trkpt>
      <trkpt lat="49.07403" lon="0.08096">
        <ele>34.2</ele>
        <time>2023-10-15T08:06:33Z</time>
      </trkpt>
      <trkpt lat="49.07396" lon="0.08104">
        <ele>34.3</ele>
        <time>2023-10-15T08:06:34Z</time>
      </trkpt>
      <trkpt lat="49.07389" lon="0.08111">
        <ele>34.3</ele>
        <time>2023-10-15T08:06:35Z</time>
      </trkpt>
      <trkpt lat="49.07383" lon="0.08119">
        <ele>34.4</ele>
        <time>2023-10-15T08:06:36Z</time>
      </trkpt>
      <trkpt lat="49.07376" lon="0.08127">
        <ele>34.4</ele>
        <time>2023-10-15T08:06:37Z</time>
      </trkpt>
      <trkpt lat="49.07369" lon="0.08134">
        <ele>34.5</ele>
        <time>2023-10-15T08:06:38Z</time>
      </trkpt>
      <trkpt lat="49.07362" lon="0.08142">
        <ele>34.5</ele>
        <time>2023-10-15T08:06:39Z</time>
      </trkpt>
      <trkpt lat="49.07356" lon="0.08149">
        <ele>34.6</ele>
        <time>2023-10-15T08:06:40Z</time>
      </trkpt>
      <trkpt lat="49.07349" lon="0.08157">
        <ele>34.7</ele>
        <time>2023-10-15T08:06:41Z</time>
      </trkpt>
      <trkpt lat="49.07342" lon="0.08165">
        <ele>34.7</ele>
        <time>2023-10-15T08:06:42Z</time>
      </trkpt>
      <trkpt lat="49.07336" lon="0.08173">
        <ele>34.8</ele>
        <time>2023-10-15T08:06:43Z</time>
      </trkpt>
      <trkpt lat="49.07329" lon="0.08181">
        <ele>34.9</ele>
        <time>2023-10-15T08:06:44Z</time>
      </trkpt>
      <trkpt lat="49.07323" lon="0.08189">
        <ele>35</ele>
        <time>2023-10-15T08:06:45Z</time>
      </trkpt>
      <trkpt lat="49.07316" lon="0.08198">
        <ele>35.1</ele>
        <time>2023-10-15T08:06:46Z</time>
      </trkpt>
      <trkpt lat="49.0731" lon="0.08206">
        <ele>35.2</ele>
        <time>2023-10-15T08:06:47Z</time>
      </trkpt>
      <trkpt lat="49.07303" lon="0.08215">
        <ele>35.3</ele>
        <time>2023-10-15T08:06:48Z</time>
      </trkpt>
      <trkpt lat="49.07297" lon="0.08223">
        <ele>35.3</ele>
        <time>2023-10-15T08:06:49Z</time>
      </trkpt>
      <trkpt lat="49.0729" lon="0.08232">
        <ele>35.4</ele>
        <time>2023-10-15T08:06:50Z</time>
      </trkpt>
      <trkpt lat="49.07284" lon="0.08241">
        <ele>35.5</ele>
        <time>2023-10-15T08:06:51Z</time>
      </trkpt>
      <trkpt lat="49.07278" lon="0.08251">
        <ele>35.5</ele>
        <time>2023-10-15T08:06:52Z</time>
      </trkpt>
      <trkpt lat="49.07271" lon="0.08259">
        <ele>35.6</ele>
        <time>2023-10-15T08:06:53Z</time>
      </trkpt>
      <trkpt lat="49.07265" lon="0.08268">
        <ele>35.6</ele>
        <time>2023-10-15T08:06:54Z</time>
      </trkpt>
      <trkpt lat="49.07258" lon="0.08277">
        <ele>35.7</ele>
        <time>2023-10-15T08:06:55Z</time>
      </trkpt>
      <trkpt lat="49.07251" lon="0.08286">
        <ele>35.7</ele>
        <time>2023-10-15T08:06:56Z</time>
      </trkpt>
      <trkpt lat="49.07244" lon="0.08295">
        <ele>35.6</ele>
        <time>2023-10-15T08:06:57Z</time>
      </trkpt>
      <trkpt lat="49.07238" lon="0.08304">
        <ele>35.6</ele>
        <time>2023-10-15T08:06:58Z</time>
      </trkpt>
      <trkpt lat="49.07231" lon="0.08314">
        <ele>35.6</ele>
        <time>2023-10-15T08:06:59Z</time>
      </trkpt>
      <trkpt lat="49.07224" lon="0.08323">
        <ele>35.6</ele>
        <time>2023-10-15T08:07:00Z</time>
      </trkpt>
      <trkpt lat="49.07218" lon="0.08332">
        <ele>35.6</ele>
        <time>2023-10-15T08:07:01Z</time>
      </trkpt>
      <trkpt lat="49.07211" lon="0.08342">
        <ele>35.6</ele>
        <time>2023-10-15T08:07:02Z</time>
      </trkpt>
      <trkpt lat="49.07204" lon="0.08351">
        <ele>35.6</ele>
        <time>2023-10-15T08:07:03Z</time>
      </trkpt>
      <trkpt lat="49.07198" lon="0.0836">
        <ele>35.5</ele>
        <time>2023-10-15T08:07:04Z</time>
      </trkpt>
      <trkpt lat="49.07192" lon="0.08368">
        <ele>35.5</ele>
        <time>2023-10-15T08:07:05Z</time>
      </trkpt>
      <trkpt lat="49.07185" lon="0.08377">
        <ele>35.4</ele>
        <time>2023-10-15T08:07:06Z</time>
      </trkpt>
      <trkpt lat="49.07179" lon="0.08386">
        <ele>35.2</ele>
        <time>2023-10-15T08:07:07Z</time>
      </trkpt>
      <trkpt lat="49.07173" lon="0.08394">
        <ele>35.1</ele>
        <time>2023-10-15T08:07:08Z</time>
      </trkpt>
      <trkpt lat="49.07167" lon="0.08403">
        <ele>35</ele>
        <time>2023-10-15T08:07:09Z</time>
      </trkpt>
      <trkpt lat="49.0716" lon="0.08412">
        <ele>34.9</ele>
        <time>2023-10-15T08:07:10Z</time>
      </trkpt>
      <trkpt lat="49.07154" lon="0.0842">
        <ele>34.8</ele>
        <time>2023-10-15T08:07:11Z</time>
      </trkpt>
      <trkpt lat="49.07147" lon="0.08428">
        <ele>34.8</ele>
        <time>2023-10-15T08:07:12Z</time>
      </trkpt>
      <trkpt lat="49.0714" lon="0.08436">
        <ele>34.8</ele>
        <time>2023-10-15T08:07:13Z</time>
      </trkpt>
      <trkpt lat="49.07134" lon="0.08445">
        <ele>34.8</ele>
        <time>2023-10-15T08:07:14Z</time>
      </trkpt>
      <trkpt lat="49.07127" lon="0.08453">
        <ele>34.9</ele>
        <time>2023-10-15T08:07:15Z</time>
      </trkpt>
      <trkpt lat="49.0712" lon="0.08461">
        <ele>34.9</ele>
        <time>2023-10-15T08:07:16Z</time>
      </trkpt>
      <trkpt lat="49.07113" lon="0.08468">
        <ele>35</ele>
        <time>2023-10-15T08:07:17Z</time>
      </trkpt>
      <trkpt lat="49.07107" lon="0.08473">
        <ele>35.1</ele>
        <time>2023-10-15T08:07:18Z</time>
      </trkpt>
      <trkpt lat="49.071" lon="0.08478">
        <ele>35.2</ele>
        <time>2023-10-15T08:07:19Z</time>
      </trkpt>
      <trkpt lat="49.07094" lon="0.08483">
        <ele>35.3</ele>
        <time>2023-10-15T08:07:20Z</time>
      </trkpt>
      <trkpt lat="49.07089" lon="0.08489">
        <ele>35.3</ele>
        <time>2023-10-15T08:07:21Z</time>
      </trkpt>
      <trkpt lat="49.07083" lon="0.08494">
        <ele>35.3</ele>
        <time>2023-10-15T08:07:22Z</time>
      </trkpt>
      <trkpt lat="49.07078" lon="0.08498">
        <ele>35.3</ele>
        <time>2023-10-15T08:07:23Z</time>
      </trkpt>
      <trkpt lat="49.07072" lon="0.08502">
        <ele>35.4</ele>
        <time>2023-10-15T08:07:24Z</time>
      </trkpt>
      <trkpt lat="49.07067" lon="0.08506">
        <ele>35.4</ele>
        <time>2023-10-15T08:07:25Z</time>
      </trkpt>
      <trkpt lat="49.07062" lon="0.08511">
        <ele>35.5</ele>
        <time>2023-10-15T08:07:26Z</time>
      </trkpt>
      <trkpt lat="49.07057" lon="0.08515">
        <ele>35.5</ele>
        <time>2023-10-15T08:07:27Z</time>
      </trkpt>
      <trkpt lat="49.07053" lon="0.0852">
        <ele>35.5</ele>
        <time>2023-10-15T08:07:28Z</time>
      </trkpt>
      <trkpt lat="49.07049" lon="0.08526">
        <ele>35.6</ele>
        <time>2023-10-15T08:07:29Z</time>
      </trkpt>
      <trkpt lat="49.07045" lon="0.08531">
        <ele>35.6</ele>
        <time>2023-10-15T08:07:30Z</time>
      </trkpt>
      <trkpt lat="49.07041" lon="0.08537">
        <ele>35.7</ele>
        <time>2023-10-15T08:07:31Z</time>
      </trkpt>
      <trkpt lat="49.07037" lon="0.08543">
        <ele>35.7</ele>
        <time>2023-10-15T08:07:32Z</time>
      </trkpt>
      <trkpt lat="49.07033" lon="0.08548">
        <ele>35.8</ele>
        <time>2023-10-15T08:07:33Z</time>
      </trkpt>
      <trkpt lat="49.0703" lon="0.08553">
        <ele>35.8</ele>
        <time>2023-10-15T08:07:34Z</time>
      </trkpt>
      <trkpt lat="49.07027" lon="0.08557">
        <ele>35.9</ele>
        <time>2023-10-15T08:07:35Z</time>
      </trkpt>
      <trkpt lat="49.07024" lon="0.08561">
        <ele>35.9</ele>
        <time>2023-10-15T08:07:36Z</time>
      </trkpt>
      <trkpt lat="49.07021" lon="0.08565">
        <ele>36</ele>
        <time>2023-10-15T08:07:37Z</time>
      </trkpt>
      <trkpt lat="49.07019" lon="0.08568">
        <ele>36</ele>
        <time>2023-10-15T08:07:38Z</time>
      </trkpt>
      <trkpt lat="49.07016" lon="0.08572">
        <ele>36.1</ele>
        <time>2023-10-15T08:07:39Z</time>
      </trkpt>
      <trkpt lat="49.07014" lon="0.08576">
        <ele>36.1</ele>
        <time>2023-10-15T08:07:40Z</time>
      </trkpt>
      <trkpt lat="49.07012" lon="0.08579">
        <ele>36.2</ele>
        <time>2023-10-15T08:07:41Z</time>
      </trkpt>
      <trkpt lat="49.0701" lon="0.08583">
        <ele>36.2</ele>
        <time>2023-10-15T08:07:42Z</time>
      </trkpt>
      <trkpt lat="49.07007" lon="0.08586">
        <ele>36.3</ele>
        <time>2023-10-15T08:07:43Z</time>
      </trkpt>
      <trkpt lat="49.07005" lon="0.0859">
        <ele>36.3</ele>
        <time>2023-10-15T08:07:44Z</time>
      </trkpt>
      <trkpt lat="49.07003" lon="0.08593">
        <ele>36.4</ele>
        <time>2023-10-15T08:07:45Z</time>
      </trkpt>
      <trkpt lat="49.07" lon="0.08597">
        <ele>36.5</ele>
        <time>2023-10-15T08:07:46Z</time>
      </trkpt>
      <trkpt lat="49.06998" lon="0.08601">
        <ele>36.5</ele>
        <time>2023-10-15T08:07:47Z</time>
      </trkpt>
      <trkpt lat="49.06995" lon="0.08603">
        <ele>36.6</ele>
        <time>2023-10-15T08:07:48Z</time>
      </trkpt>
      <trkpt lat="49.06992" lon="0.08605">
        <ele>36.7</ele>
        <time>2023-10-15T08:07:49Z</time>
      </trkpt>
      <trkpt lat="49.06989" lon="0.08606">
        <ele>36.7</ele>
        <time>2023-10-15T08:07:50Z</time>
      </trkpt>
      <trkpt lat="49.06986" lon="0.08607">
        <ele>36.8</ele>
        <time>2023-10-15T08:07:51Z</time>
      </trkpt>
      <trkpt lat="49.06983" lon="0.08608">
        <ele>36.9</ele>
        <time>2023-10-15T08:07:52Z</time>
      </trkpt>
      <trkpt lat="49.0698" lon="0.08608">
        <ele>36.9</ele>
        <time>2023-10-15T08:07:53Z</time>
      </trkpt>
      <trkpt lat="49.06977" lon="0.08608">
        <ele>37</ele>
        <time>2023-10-15T08:07:54Z</time>
      </trkpt>
      <trkpt lat="49.06976" lon="0.08608">
        <ele>37</ele>
        <time>2023-10-15T08:07:55Z</time>
      </trkpt>
      <trkpt lat="49.06974" lon="0.08609">
        <ele>37.1</ele>
        <time>2023-10-15T08:07:56Z</time>
      </trkpt>
      <trkpt lat="49.06972" lon="0.08609">
        <ele>37.1</ele>
        <time>2023-10-15T08:07:57Z</time>
      </trkpt>
      <trkpt lat="49.06971" lon="0.08609">
        <ele>37.1</ele>
        <time>2023-10-15T08:07:58Z</time>
      </trkpt>
      <trkpt lat="49.0697" lon="0.08609">
        <ele>37.1</ele>
        <time>2023-10-15T08:07:59Z</time>
      </trkpt>
      <trkpt lat="49.0697" lon="0.08609">
        <ele>37.1</ele>
        <time>2023-10-15T08:08:00Z</time>
      </trkpt>
      <trkpt lat="49.06969" lon="0.08609">
        <ele>37.2</ele>
        <time>2023-10-15T08:08:01Z</time>
      </trkpt>
      <trkpt lat="49.06968" lon="0.0861">
        <ele>37.2</ele>
        <time>2023-10-15T08:08:02Z</time>
      </trkpt>
      <trkpt lat="49.06967" lon="0.08611">
        <ele>37.2</ele>
        <time>2023-10-15T08:08:03Z</time>
      </trkpt>
      <trkpt lat="49.06966" lon="0.08613">
        <ele>37.2</ele>
        <time>2023-10-15T08:08:04Z</time>
      </trkpt>
      <trkpt lat="49.06965" lon="0.08619">
        <ele>37.4</ele>
        <time>2023-10-15T08:08:06Z</time>
      </trkpt>
      <trkpt lat="49.06965" lon="0.08622">
        <ele>37.3</ele>
        <time>2023-10-15T08:08:07Z</time>
      </trkpt>
      <trkpt lat="49.06965" lon="0.08628">
        <ele>37.3</ele>
        <time>2023-10-15T08:08:08Z</time>
      </trkpt>
      <trkpt lat="49.06966" lon="0.0863">
        <ele>37.3</ele>
        <time>2023-10-15T08:08:09Z</time>
      </trkpt>
      <trkpt lat="49.06966" lon="0.08636">
        <ele>37.3</ele>
        <time>2023-10-15T08:08:10Z</time>
      </trkpt>
      <trkpt lat="49.06967" lon="0.08642">
        <ele>37.3</ele>
        <time>2023-10-15T08:08:11Z</time>
      </trkpt>
      <trkpt lat="49.06968" lon="0.08648">
        <ele>37.3</ele>
        <time>2023-10-15T08:08:12Z</time>
      </trkpt>
      <trkpt lat="49.06969" lon="0.08654">
        <ele>37.3</ele>
        <time>2023-10-15T08:08:13Z</time>
      </trkpt>
      <trkpt lat="49.0697" lon="0.08661">
        <ele>37.3</ele>
        <time>2023-10-15T08:08:14Z</time>
      </trkpt>
      <trkpt lat="49.06971" lon="0.08667">
        <ele>37.3</ele>
        <time>2023-10-15T08:08:15Z</time>
      </trkpt>
      <trkpt lat="49.06972" lon="0.08675">
        <ele>37.3</ele>
        <time>2023-10-15T08:08:16Z</time>
      </trkpt>
      <trkpt lat="49.06973" lon="0.08683">
        <ele>37.3</ele>
        <time>2023-10-15T08:08:17Z</time>
      </trkpt>
      <trkpt lat="49.06974" lon="0.08691">
        <ele>37.3</ele>
        <time>2023-10-15T08:08:18Z</time>
      </trkpt>
      <trkpt lat="49.06976" lon="0.08699">
        <ele>37.3</ele>
        <time>2023-10-15T08:08:19Z</time>
      </trkpt>
      <trkpt lat="49.06977" lon="0.08708">
        <ele>37.3</ele>
        <time>2023-10-15T08:08:20Z</time>
      </trkpt>
      <trkpt lat="49.06978" lon="0.08717">
        <ele>37.3</ele>
        <time>2023-10-15T08:08:21Z</time>
      </trkpt>
      <trkpt lat="49.0698" lon="0.08726">
        <ele>37.3</ele>
        <time>2023-10-15T08:08:22Z</time>
      </trkpt>
      <trkpt lat="49.06981" lon="0.08735">
        <ele>37.3</ele>
        <time>2023-10-15T08:08:23Z</time>
      </trkpt>
      <trkpt lat="49.06983" lon="0.08744">
        <ele>37.2</ele>
        <time>2023-10-15T08:08:24Z</time>
      </trkpt>
      <trkpt lat="49.06984" lon="0.08753">
        <ele>37.1</ele>
        <time>2023-10-15T08:08:25Z</time>
      </trkpt>
      <trkpt lat="49.06986" lon="0.08762">
        <ele>37.1</ele>
        <time>2023-10-15T08:08:26Z</time>
      </trkpt>
      <trkpt lat="49.06988" lon="0.08771">
        <ele>37</ele>
        <time>2023-10-15T08:08:27Z</time>
      </trkpt>
      <trkpt lat="49.0699" lon="0.08779">
        <ele>36.9</ele>
        <time>2023-10-15T08:08:28Z</time>
      </trkpt>
      <trkpt lat="49.06991" lon="0.08788">
        <ele>36.9</ele>
        <time>2023-10-15T08:08:29Z</time>
      </trkpt>
      <trkpt lat="49.06993" lon="0.08796">
        <ele>36.8</ele>
        <time>2023-10-15T08:08:30Z</time>
      </trkpt>
      <trkpt lat="49.06994" lon="0.08805">
        <ele>36.7</ele>
        <time>2023-10-15T08:08:31Z</time>
      </trkpt>
      <trkpt lat="49.06995" lon="0.08813">
        <ele>36.6</ele>
        <time>2023-10-15T08:08:32Z</time>
      </trkpt>
      <trkpt lat="49.06997" lon="0.08821">
        <ele>36.5</ele>
        <time>2023-10-15T08:08:33Z</time>
      </trkpt>
      <trkpt lat="49.06998" lon="0.0883">
        <ele>36.4</ele>
        <time>2023-10-15T08:08:34Z</time>
      </trkpt>
      <trkpt lat="49.07" lon="0.08838">
        <ele>36.3</ele>
        <time>2023-10-15T08:08:35Z</time>
      </trkpt>
      <trkpt lat="49.07002" lon="0.08847">
        <ele>36.2</ele>
        <time>2023-10-15T08:08:36Z</time>
      </trkpt>
      <trkpt lat="49.07004" lon="0.08855">
        <ele>36.1</ele>
        <time>2023-10-15T08:08:37Z</time>
      </trkpt>
      <trkpt lat="49.07007" lon="0.08864">
        <ele>36</ele>
        <time>2023-10-15T08:08:38Z</time>
      </trkpt>
      <trkpt lat="49.07011" lon="0.08873">
        <ele>35.9</ele>
        <time>2023-10-15T08:08:39Z</time>
      </trkpt>
      <trkpt lat="49.07015" lon="0.08882">
        <ele>35.8</ele>
        <time>2023-10-15T08:08:40Z</time>
      </trkpt>
      <trkpt lat="49.0702" lon="0.0889">
        <ele>35.7</ele>
        <time>2023-10-15T08:08:41Z</time>
      </trkpt>
      <trkpt lat="49.07026" lon="0.08898">
        <ele>35.6</ele>
        <time>2023-10-15T08:08:42Z</time>
      </trkpt>
      <trkpt lat="49.07031" lon="0.08905">
        <ele>35.4</ele>
        <time>2023-10-15T08:08:43Z</time>
      </trkpt>
      <trkpt lat="49.07037" lon="0.08913">
        <ele>35.2</ele>
        <time>2023-10-15T08:08:44Z</time>
      </trkpt>
      <trkpt lat="49.07043" lon="0.08921">
        <ele>35</ele>
        <time>2023-10-15T08:08:45Z</time>
      </trkpt>
      <trkpt lat="49.07048" lon="0.08929">
        <ele>34.8</ele>
        <time>2023-10-15T08:08:46Z</time>
      </trkpt>
      <trkpt lat="49.07054" lon="0.08937">
        <ele>34.6</ele>
        <time>2023-10-15T08:08:47Z</time>
      </trkpt>
      <trkpt lat="49.07059" lon="0.08945">
        <ele>34.5</ele>
        <time>2023-10-15T08:08:48Z</time>
      </trkpt>
      <trkpt lat="49.07065" lon="0.08953">
        <ele>34.4</ele>
        <time>2023-10-15T08:08:49Z</time>
      </trkpt>
      <trkpt lat="49.07071" lon="0.08961">
        <ele>34.3</ele>
        <time>2023-10-15T08:08:50Z</time>
      </trkpt>
      <trkpt lat="49.07078" lon="0.08969">
        <ele>34.1</ele>
        <time>2023-10-15T08:08:51Z</time>
      </trkpt>
      <trkpt lat="49.07084" lon="0.08977">
        <ele>34.1</ele>
        <time>2023-10-15T08:08:52Z</time>
      </trkpt>
      <trkpt lat="49.07091" lon="0.08984">
        <ele>34</ele>
        <time>2023-10-15T08:08:53Z</time>
      </trkpt>
      <trkpt lat="49.07097" lon="0.08992">
        <ele>33.9</ele>
        <time>2023-10-15T08:08:54Z</time>
      </trkpt>
      <trkpt lat="49.07103" lon="0.08999">
        <ele>33.9</ele>
        <time>2023-10-15T08:08:55Z</time>
      </trkpt>
      <trkpt lat="49.0711" lon="0.09005">
        <ele>33.8</ele>
        <time>2023-10-15T08:08:56Z</time>
      </trkpt>
      <trkpt lat="49.07118" lon="0.09012">
        <ele>33.8</ele>
        <time>2023-10-15T08:08:57Z</time>
      </trkpt>
      <trkpt lat="49.07125" lon="0.09019">
        <ele>33.8</ele>
        <time>2023-10-15T08:08:58Z</time>
      </trkpt>
      <trkpt lat="49.07132" lon="0.09025">
        <ele>33.8</ele>
        <time>2023-10-15T08:08:59Z</time>
      </trkpt>
      <trkpt lat="49.07139" lon="0.09032">
        <ele>33.8</ele>
        <time>2023-10-15T08:09:00Z</time>
      </trkpt>
      <trkpt lat="49.07146" lon="0.09038">
        <ele>33.8</ele>
        <time>2023-10-15T08:09:01Z</time>
      </trkpt>
      <trkpt lat="49.07153" lon="0.09045">
        <ele>33.8</ele>
        <time>2023-10-15T08:09:02Z</time>
      </trkpt>
      <trkpt lat="49.0716" lon="0.0905">
        <ele>33.8</ele>
        <time>2023-10-15T08:09:03Z</time>
      </trkpt>
      <trkpt lat="49.07167" lon="0.09057">
        <ele>33.8</ele>
        <time>2023-10-15T08:09:04Z</time>
      </trkpt>
      <trkpt lat="49.07174" lon="0.09063">
        <ele>33.8</ele>
        <time>2023-10-15T08:09:05Z</time>
      </trkpt>
      <trkpt lat="49.07181" lon="0.09069">
        <ele>33.8</ele>
        <time>2023-10-15T08:09:06Z</time>
      </trkpt>
      <trkpt lat="49.07188" lon="0.09076">
        <ele>33.8</ele>
        <time>2023-10-15T08:09:07Z</time>
      </trkpt>
      <trkpt lat="49.07195" lon="0.09082">
        <ele>33.9</ele>
        <time>2023-10-15T08:09:08Z</time>
      </trkpt>
      <trkpt lat="49.07202" lon="0.09088">
        <ele>33.9</ele>
        <time>2023-10-15T08:09:09Z</time>
      </trkpt>
      <trkpt lat="49.07208" lon="0.09094">
        <ele>33.9</ele>
        <time>2023-10-15T08:09:10Z</time>
      </trkpt>
      <trkpt lat="49.07215" lon="0.091">
        <ele>33.9</ele>
        <time>2023-10-15T08:09:11Z</time>
      </trkpt>
      <trkpt lat="49.07221" lon="0.09105">
        <ele>33.9</ele>
        <time>2023-10-15T08:09:12Z</time>
      </trkpt>
      <trkpt lat="49.07227" lon="0.09111">
        <ele>33.9</ele>
        <time>2023-10-15T08:09:13Z</time>
      </trkpt>
      <trkpt lat="49.07233" lon="0.09116">
        <ele>33.9</ele>
        <time>2023-10-15T08:09:14Z</time>
      </trkpt>
      <trkpt lat="49.0724" lon="0.09122">
        <ele>33.9</ele>
        <time>2023-10-15T08:09:15Z</time>
      </trkpt>
      <trkpt lat="49.07246" lon="0.09128">
        <ele>33.9</ele>
        <time>2023-10-15T08:09:16Z</time>
      </trkpt>
      <trkpt lat="49.07253" lon="0.09134">
        <ele>33.9</ele>
        <time>2023-10-15T08:09:17Z</time>
      </trkpt>
      <trkpt lat="49.07259" lon="0.0914">
        <ele>33.9</ele>
        <time>2023-10-15T08:09:18Z</time>
      </trkpt>
      <trkpt lat="49.07266" lon="0.09146">
        <ele>34</ele>
        <time>2023-10-15T08:09:19Z</time>
      </trkpt>
      <trkpt lat="49.07272" lon="0.09151">
        <ele>34</ele>
        <time>2023-10-15T08:09:20Z</time>
      </trkpt>
      <trkpt lat="49.07278" lon="0.09156">
        <ele>34</ele>
        <time>2023-10-15T08:09:21Z</time>
      </trkpt>
      <trkpt lat="49.07285" lon="0.09161">
        <ele>34</ele>
        <time>2023-10-15T08:09:22Z</time>
      </trkpt>
      <trkpt lat="49.07291" lon="0.09167">
        <ele>34</ele>
        <time>2023-10-15T08:09:23Z</time>
      </trkpt>
      <trkpt lat="49.07298" lon="0.09173">
        <ele>34</ele>
        <time>2023-10-15T08:09:24Z</time>
      </trkpt>
      <trkpt lat="49.07305" lon="0.09179">
        <ele>34</ele>
        <time>2023-10-15T08:09:25Z</time>
      </trkpt>
      <trkpt lat="49.07312" lon="0.09185">
        <ele>34</ele>
        <time>2023-10-15T08:09:26Z</time>
      </trkpt>
      <trkpt lat="49.0732" lon="0.09191">
        <ele>34.1</ele>
        <time>2023-10-15T08:09:27Z</time>
      </trkpt>
      <trkpt lat="49.07327" lon="0.09196">
        <ele>34.1</ele>
        <time>2023-10-15T08:09:28Z</time>
      </trkpt>
      <trkpt lat="49.07334" lon="0.09202">
        <ele>34.2</ele>
        <time>2023-10-15T08:09:29Z</time>
      </trkpt>
      <trkpt lat="49.07341" lon="0.09208">
        <ele>34.2</ele>
        <time>2023-10-15T08:09:30Z</time>
      </trkpt>
      <trkpt lat="49.07348" lon="0.09213">
        <ele>34.3</ele>
        <time>2023-10-15T08:09:31Z</time>
      </trkpt>
      <trkpt lat="49.07355" lon="0.09218">
        <ele>34.5</ele>
        <time>2023-10-15T08:09:32Z</time>
      </trkpt>
      <trkpt lat="49.07362" lon="0.09224">
        <ele>34.6</ele>
        <time>2023-10-15T08:09:33Z</time>
      </trkpt>
      <trkpt lat="49.07369" lon="0.09229">
        <ele>34.8</ele>
        <time>2023-10-15T08:09:34Z</time>
      </trkpt>
      <trkpt lat="49.07376" lon="0.09235">
        <ele>35</ele>
        <time>2023-10-15T08:09:35Z</time>
      </trkpt>
      <trkpt lat="49.07383" lon="0.0924">
        <ele>35.3</ele>
        <time>2023-10-15T08:09:36Z</time>
      </trkpt>
      <trkpt lat="49.0739" lon="0.09245">
        <ele>35.6</ele>
        <time>2023-10-15T08:09:37Z</time>
      </trkpt>
      <trkpt lat="49.07396" lon="0.09249">
        <ele>35.9</ele>
        <time>2023-10-15T08:09:38Z</time>
      </trkpt>
      <trkpt lat="49.07402" lon="0.09254">
        <ele>36.2</ele>
        <time>2023-10-15T08:09:39Z</time>
      </trkpt>
      <trkpt lat="49.07409" lon="0.09258">
        <ele>36.5</ele>
        <time>2023-10-15T08:09:40Z</time>
      </trkpt>
      <trkpt lat="49.07414" lon="0.09263">
        <ele>36.8</ele>
        <time>2023-10-15T08:09:41Z</time>
      </trkpt>
      <trkpt lat="49.0742" lon="0.09266">
        <ele>37.1</ele>
        <time>2023-10-15T08:09:42Z</time>
      </trkpt>
      <trkpt lat="49.07425" lon="0.0927">
        <ele>37.4</ele>
        <time>2023-10-15T08:09:43Z</time>
      </trkpt>
      <trkpt lat="49.07431" lon="0.09274">
        <ele>37.8</ele>
        <time>2023-10-15T08:09:44Z</time>
      </trkpt>
      <trkpt lat="49.07436" lon="0.09278">
        <ele>38</ele>
        <time>2023-10-15T08:09:45Z</time>
      </trkpt>
      <trkpt lat="49.07441" lon="0.09281">
        <ele>38.3</ele>
        <time>2023-10-15T08:09:46Z</time>
      </trkpt>
      <trkpt lat="49.07446" lon="0.09284">
        <ele>38.6</ele>
        <time>2023-10-15T08:09:47Z</time>
      </trkpt>
      <trkpt lat="49.07451" lon="0.09288">
        <ele>38.8</ele>
        <time>2023-10-15T08:09:48Z</time>
      </trkpt>
      <trkpt lat="49.07456" lon="0.09292">
        <ele>39.1</ele>
        <time>2023-10-15T08:09:49Z</time>
      </trkpt>
      <trkpt lat="49.07459" lon="0.09297">
        <ele>39.4</ele>
        <time>2023-10-15T08:09:50Z</time>
      </trkpt>
      <trkpt lat="49.07461" lon="0.09305">
        <ele>39.3</ele>
        <time>2023-10-15T08:09:51Z</time>
      </trkpt>
      <trkpt lat="49.0746" lon="0.09315">
        <ele>39</ele>
        <time>2023-10-15T08:09:52Z</time>
      </trkpt>
      <trkpt lat="49.07459" lon="0.09325">
        <ele>38.7</ele>
        <time>2023-10-15T08:09:53Z</time>
      </trkpt>
      <trkpt lat="49.07457" lon="0.09335">
        <ele>38.5</ele>
        <time>2023-10-15T08:09:54Z</time>
      </trkpt>
      <trkpt lat="49.07454" lon="0.09346">
        <ele>38.4</ele>
        <time>2023-10-15T08:09:55Z</time>
      </trkpt>
      <trkpt lat="49.07451" lon="0.09356">
        <ele>38.2</ele>
        <time>2023-10-15T08:09:56Z</time>
      </trkpt>
      <trkpt lat="49.07449" lon="0.09365">
        <ele>38.1</ele>
        <time>2023-10-15T08:09:57Z</time>
      </trkpt>
      <trkpt lat="49.07446" lon="0.09374">
        <ele>38</ele>
        <time>2023-10-15T08:09:58Z</time>
      </trkpt>
      <trkpt lat="49.07444" lon="0.09383">
        <ele>37.9</ele>
        <time>2023-10-15T08:09:59Z</time>
      </trkpt>
      <trkpt lat="49.07442" lon="0.09393">
        <ele>37.8</ele>
        <time>2023-10-15T08:10:00Z</time>
      </trkpt>
      <trkpt lat="49.07439" lon="0.09401">
        <ele>37.7</ele>
        <time>2023-10-15T08:10:01Z</time>
      </trkpt>
      <trkpt lat="49.07437" lon="0.09411">
        <ele>37.6</ele>
        <time>2023-10-15T08:10:02Z</time>
      </trkpt>
      <trkpt lat="49.07435" lon="0.0942">
        <ele>37.5</ele>
        <time>2023-10-15T08:10:03Z</time>
      </trkpt>
      <trkpt lat="49.07433" lon="0.09429">
        <ele>37.5</ele>
        <time>2023-10-15T08:10:04Z</time>
      </trkpt>
      <trkpt lat="49.0743" lon="0.09437">
        <ele>37.4</ele>
        <time>2023-10-15T08:10:05Z</time>
      </trkpt>
      <trkpt lat="49.07428" lon="0.09445">
        <ele>37.4</ele>
        <time>2023-10-15T08:10:06Z</time>
      </trkpt>
      <trkpt lat="49.07426" lon="0.09454">
        <ele>37.4</ele>
        <time>2023-10-15T08:10:07Z</time>
      </trkpt>
      <trkpt lat="49.07423" lon="0.09463">
        <ele>37.4</ele>
        <time>2023-10-15T08:10:08Z</time>
      </trkpt>
      <trkpt lat="49.07421" lon="0.09471">
        <ele>37.4</ele>
        <time>2023-10-15T08:10:09Z</time>
      </trkpt>
      <trkpt lat="49.0742" lon="0.09479">
        <ele>37.3</ele>
        <time>2023-10-15T08:10:10Z</time>
      </trkpt>
      <trkpt lat="49.0742" lon="0.09488">
        <ele>37.3</ele>
        <time>2023-10-15T08:10:11Z</time>
      </trkpt>
      <trkpt lat="49.07421" lon="0.09498">
        <ele>37.3</ele>
        <time>2023-10-15T08:10:12Z</time>
      </trkpt>
      <trkpt lat="49.07424" lon="0.09507">
        <ele>37.2</ele>
        <time>2023-10-15T08:10:13Z</time>
      </trkpt>
      <trkpt lat="49.07428" lon="0.09515">
        <ele>37.2</ele>
        <time>2023-10-15T08:10:14Z</time>
      </trkpt>
      <trkpt lat="49.07432" lon="0.09522">
        <ele>37.1</ele>
        <time>2023-10-15T08:10:15Z</time>
      </trkpt>
      <trkpt lat="49.07436" lon="0.0953">
        <ele>37.1</ele>
        <time>2023-10-15T08:10:16Z</time>
      </trkpt>
      <trkpt lat="49.07439" lon="0.09538">
        <ele>37.1</ele>
        <time>2023-10-15T08:10:17Z</time>
      </trkpt>
      <trkpt lat="49.07442" lon="0.09547">
        <ele>37</ele>
        <time>2023-10-15T08:10:18Z</time>
      </trkpt>
      <trkpt lat="49.07443" lon="0.09557">
        <ele>37</ele>
        <time>2023-10-15T08:10:19Z</time>
      </trkpt>
      <trkpt lat="49.07444" lon="0.09567">
        <ele>36.9</ele>
        <time>2023-10-15T08:10:20Z</time>
      </trkpt>
      <trkpt lat="49.07444" lon="0.09577">
        <ele>36.8</ele>
        <time>2023-10-15T08:10:21Z</time>
      </trkpt>
      <trkpt lat="49.07444" lon="0.09587">
        <ele>36.7</ele>
        <time>2023-10-15T08:10:22Z</time>
      </trkpt>
      <trkpt lat="49.07442" lon="0.09596">
        <ele>36.6</ele>
        <time>2023-10-15T08:10:23Z</time>
      </trkpt>
      <trkpt lat="49.07438" lon="0.09606">
        <ele>36.6</ele>
        <time>2023-10-15T08:10:24Z</time>
      </trkpt>
      <trkpt lat="49.07435" lon="0.09615">
        <ele>36.6</ele>
        <time>2023-10-15T08:10:25Z</time>
      </trkpt>
      <trkpt lat="49.07431" lon="0.09624">
        <ele>36.7</ele>
        <time>2023-10-15T08:10:26Z</time>
      </trkpt>
      <trkpt lat="49.07427" lon="0.09633">
        <ele>36.8</ele>
        <time>2023-10-15T08:10:27Z</time>
      </trkpt>
      <trkpt lat="49.07423" lon="0.09641">
        <ele>37</ele>
        <time>2023-10-15T08:10:28Z</time>
      </trkpt>
      <trkpt lat="49.07419" lon="0.0965">
        <ele>37.2</ele>
        <time>2023-10-15T08:10:29Z</time>
      </trkpt>
      <trkpt lat="49.07416" lon="0.09657">
        <ele>37.5</ele>
        <time>2023-10-15T08:10:30Z</time>
      </trkpt>
      <trkpt lat="49.07412" lon="0.09665">
        <ele>37.9</ele>
        <time>2023-10-15T08:10:31Z</time>
      </trkpt>
      <trkpt lat="49.07409" lon="0.09673">
        <ele>38.2</ele>
        <time>2023-10-15T08:10:32Z</time>
      </trkpt>
      <trkpt lat="49.07406" lon="0.0968">
        <ele>38.6</ele>
        <time>2023-10-15T08:10:33Z</time>
      </trkpt>
      <trkpt lat="49.07403" lon="0.09687">
        <ele>38.9</ele>
        <time>2023-10-15T08:10:34Z</time>
      </trkpt>
      <trkpt lat="49.074" lon="0.09695">
        <ele>39.3</ele>
        <time>2023-10-15T08:10:35Z</time>
      </trkpt>
      <trkpt lat="49.07397" lon="0.09701">
        <ele>39.7</ele>
        <time>2023-10-15T08:10:36Z</time>
      </trkpt>
      <trkpt lat="49.07395" lon="0.09708">
        <ele>40</ele>
        <time>2023-10-15T08:10:37Z</time>
      </trkpt>
      <trkpt lat="49.07392" lon="0.09715">
        <ele>40.4</ele>
        <time>2023-10-15T08:10:38Z</time>
      </trkpt>
      <trkpt lat="49.07389" lon="0.09722">
        <ele>40.7</ele>
        <time>2023-10-15T08:10:39Z</time>
      </trkpt>
      <trkpt lat="49.07386" lon="0.09729">
        <ele>41.1</ele>
        <time>2023-10-15T08:10:40Z</time>
      </trkpt>
      <trkpt lat="49.07383" lon="0.09735">
        <ele>41.5</ele>
        <time>2023-10-15T08:10:41Z</time>
      </trkpt>
      <trkpt lat="49.07381" lon="0.09742">
        <ele>41.9</ele>
        <time>2023-10-15T08:10:42Z</time>
      </trkpt>
      <trkpt lat="49.07378" lon="0.09748">
        <ele>42.2</ele>
        <time>2023-10-15T08:10:43Z</time>
      </trkpt>
      <trkpt lat="49.07375" lon="0.09754">
        <ele>42.6</ele>
        <time>2023-10-15T08:10:44Z</time>
      </trkpt>
      <trkpt lat="49.07373" lon="0.0976">
        <ele>42.9</ele>
        <time>2023-10-15T08:10:45Z</time>
      </trkpt>
      <trkpt lat="49.0737" lon="0.09765">
        <ele>43.3</ele>
        <time>2023-10-15T08:10:46Z</time>
      </trkpt>
      <trkpt lat="49.07368" lon="0.09771">
        <ele>43.6</ele>
        <time>2023-10-15T08:10:47Z</time>
      </trkpt>
      <trkpt lat="49.07366" lon="0.09777">
        <ele>44</ele>
        <time>2023-10-15T08:10:48Z</time>
      </trkpt>
      <trkpt lat="49.07364" lon="0.09783">
        <ele>44.3</ele>
        <time>2023-10-15T08:10:49Z</time>
      </trkpt>
      <trkpt lat="49.07362" lon="0.09789">
        <ele>44.6</ele>
        <time>2023-10-15T08:10:50Z</time>
      </trkpt>
      <trkpt lat="49.07361" lon="0.09795">
        <ele>44.9</ele>
        <time>2023-10-15T08:10:51Z</time>
      </trkpt>
      <trkpt lat="49.0736" lon="0.09801">
        <ele>45.2</ele>
        <time>2023-10-15T08:10:52Z</time>
      </trkpt>
      <trkpt lat="49.07358" lon="0.09808">
        <ele>45.5</ele>
        <time>2023-10-15T08:10:53Z</time>
      </trkpt>
      <trkpt lat="49.07357" lon="0.09814">
        <ele>45.8</ele>
        <time>2023-10-15T08:10:54Z</time>
      </trkpt>
      <trkpt lat="49.07357" lon="0.09821">
        <ele>46.2</ele>
        <time>2023-10-15T08:10:55Z</time>
      </trkpt>
      <trkpt lat="49.07356" lon="0.09828">
        <ele>46.5</ele>
        <time>2023-10-15T08:10:56Z</time>
      </trkpt>
      <trkpt lat="49.07356" lon="0.09834">
        <ele>46.7</ele>
        <time>2023-10-15T08:10:57Z</time>
      </trkpt>
      <trkpt lat="49.07357" lon="0.0984">
        <ele>47</ele>
        <time>2023-10-15T08:10:58Z</time>
      </trkpt>
      <trkpt lat="49.07357" lon="0.09846">
        <ele>47.2</ele>
        <time>2023-10-15T08:10:59Z</time>
      </trkpt>
      <trkpt lat="49.07358" lon="0.09853">
        <ele>47.4</ele>
        <time>2023-10-15T08:11:00Z</time>
      </trkpt>
      <trkpt lat="49.0736" lon="0.09859">
        <ele>47.6</ele>
        <time>2023-10-15T08:11:01Z</time>
      </trkpt>
      <trkpt lat="49.07361" lon="0.09866">
        <ele>47.9</ele>
        <time>2023-10-15T08:11:02Z</time>
      </trkpt>
      <trkpt lat="49.07362" lon="0.09872">
        <ele>48.1</ele>
        <time>2023-10-15T08:11:03Z</time>
      </trkpt>
      <trkpt lat="49.07362" lon="0.09878">
        <ele>48.3</ele>
        <time>2023-10-15T08:11:04Z</time>
      </trkpt>
      <trkpt lat="49.07363" lon="0.09884">
        <ele>48.5</ele>
        <time>2023-10-15T08:11:05Z</time>
      </trkpt>
      <trkpt lat="49.07364" lon="0.0989">
        <ele>48.7</ele>
        <time>2023-10-15T08:11:06Z</time>
      </trkpt>
      <trkpt lat="49.07365" lon="0.09896">
        <ele>49</ele>
        <time>2023-10-15T08:11:07Z</time>
      </trkpt>
      <trkpt lat="49.07366" lon="0.09902">
        <ele>49.2</ele>
        <time>2023-10-15T08:11:08Z</time>
      </trkpt>
      <trkpt lat="49.07367" lon="0.09909">
        <ele>49.4</ele>
        <time>2023-10-15T08:11:09Z</time>
      </trkpt>
      <trkpt lat="49.07368" lon="0.09916">
        <ele>49.7</ele>
        <time>2023-10-15T08:11:10Z</time>
      </trkpt>
      <trkpt lat="49.07369" lon="0.09922">
        <ele>49.9</ele>
        <time>2023-10-15T08:11:11Z</time>
      </trkpt>
      <trkpt lat="49.07371" lon="0.09929">
        <ele>50.1</ele>
        <time>2023-10-15T08:11:12Z</time>
      </trkpt>
      <trkpt lat="49.07372" lon="0.09936">
        <ele>50.4</ele>
        <time>2023-10-15T08:11:13Z</time>
      </trkpt>
      <trkpt lat="49.07374" lon="0.09944">
        <ele>50.6</ele>
        <time>2023-10-15T08:11:14Z</time>
      </trkpt>
      <trkpt lat="49.07376" lon="0.09952">
        <ele>50.9</ele>
        <time>2023-10-15T08:11:15Z</time>
      </trkpt>
      <trkpt lat="49.07378" lon="0.09959">
        <ele>51.1</ele>
        <time>2023-10-15T08:11:16Z</time>
      </trkpt>
      <trkpt lat="49.0738" lon="0.09967">
        <ele>51.3</ele>
        <time>2023-10-15T08:11:17Z</time>
      </trkpt>
      <trkpt lat="49.07383" lon="0.09975">
        <ele>51.5</ele>
        <time>2023-10-15T08:11:18Z</time>
      </trkpt>
      <trkpt lat="49.07385" lon="0.09982">
        <ele>51.6</ele>
        <time>2023-10-15T08:11:19Z</time>
      </trkpt>
      <trkpt lat="49.07387" lon="0.0999">
        <ele>51.7</ele>
        <time>2023-10-15T08:11:20Z</time>
      </trkpt>
      <trkpt lat="49.0739" lon="0.09998">
        <ele>51.8</ele>
        <time>2023-10-15T08:11:21Z</time>
      </trkpt>
      <trkpt lat="49.07392" lon="0.10005">
        <ele>51.9</ele>
        <time>2023-10-15T08:11:22Z</time>
      </trkpt>
      <trkpt lat="49.07395" lon="0.10012">
        <ele>52</ele>
        <time>2023-10-15T08:11:23Z</time>
      </trkpt>
      <trkpt lat="49.07397" lon="0.10018">
        <ele>52</ele>
        <time>2023-10-15T08:11:24Z</time>
      </trkpt>
      <trkpt lat="49.07399" lon="0.10024">
        <ele>52</ele>
        <time>2023-10-15T08:11:25Z</time>
      </trkpt>
      <trkpt lat="49.07402" lon="0.10032">
        <ele>52</ele>
        <time>2023-10-15T08:11:26Z</time>
      </trkpt>
      <trkpt lat="49.07405" lon="0.10039">
        <ele>52</ele>
        <time>2023-10-15T08:11:27Z</time>
      </trkpt>
      <trkpt lat="49.07408" lon="0.10045">
        <ele>51.9</ele>
        <time>2023-10-15T08:11:28Z</time>
      </trkpt>
      <trkpt lat="49.07412" lon="0.10052">
        <ele>51.8</ele>
        <time>2023-10-15T08:11:29Z</time>
      </trkpt>
      <trkpt lat="49.07416" lon="0.10058">
        <ele>51.8</ele>
        <time>2023-10-15T08:11:30Z</time>
      </trkpt>
      <trkpt lat="49.0742" lon="0.10065">
        <ele>51.7</ele>
        <time>2023-10-15T08:11:31Z</time>
      </trkpt>
      <trkpt lat="49.07424" lon="0.10072">
        <ele>51.7</ele>
        <time>2023-10-15T08:11:32Z</time>
      </trkpt>
      <trkpt lat="49.07428" lon="0.10078">
        <ele>51.6</ele>
        <time>2023-10-15T08:11:33Z</time>
      </trkpt>
      <trkpt lat="49.07433" lon="0.10085">
        <ele>51.6</ele>
        <time>2023-10-15T08:11:34Z</time>
      </trkpt>
      <trkpt lat="49.07437" lon="0.10091">
        <ele>51.5</ele>
        <time>2023-10-15T08:11:35Z</time>
      </trkpt>
      <trkpt lat="49.07441" lon="0.10098">
        <ele>51.4</ele>
        <time>2023-10-15T08:11:36Z</time>
      </trkpt>
      <trkpt lat="49.07444" lon="0.10105">
        <ele>51.4</ele>
        <time>2023-10-15T08:11:37Z</time>
      </trkpt>
      <trkpt lat="49.07448" lon="0.10113">
        <ele>51.4</ele>
        <time>2023-10-15T08:11:38Z</time>
      </trkpt>
      <trkpt lat="49.07451" lon="0.10121">
        <ele>51.4</ele>
        <time>2023-10-15T08:11:39Z</time>
      </trkpt>
      <trkpt lat="49.07454" lon="0.1013">
        <ele>51.4</ele>
        <time>2023-10-15T08:11:40Z</time>
      </trkpt>
      <trkpt lat="49.07457" lon="0.10139">
        <ele>51.4</ele>
        <time>2023-10-15T08:11:41Z</time>
      </trkpt>
      <trkpt lat="49.0746" lon="0.10147">
        <ele>51.5</ele>
        <time>2023-10-15T08:11:42Z</time>
      </trkpt>
      <trkpt lat="49.07463" lon="0.10156">
        <ele>51.6</ele>
        <time>2023-10-15T08:11:43Z</time>
      </trkpt>
      <trkpt lat="49.07466" lon="0.10164">
        <ele>51.7</ele>
        <time>2023-10-15T08:11:44Z</time>
      </trkpt>
      <trkpt lat="49.07469" lon="0.10172">
        <ele>51.9</ele>
        <time>2023-10-15T08:11:45Z</time>
      </trkpt>
      <trkpt lat="49.07472" lon="0.1018">
        <ele>52</ele>
        <time>2023-10-15T08:11:46Z</time>
      </trkpt>
      <trkpt lat="49.07474" lon="0.10188">
        <ele>52.2</ele>
        <time>2023-10-15T08:11:47Z</time>
      </trkpt>
      <trkpt lat="49.07478" lon="0.10196">
        <ele>52.3</ele>
        <time>2023-10-15T08:11:48Z</time>
      </trkpt>
      <trkpt lat="49.07481" lon="0.10203">
        <ele>52.5</ele>
        <time>2023-10-15T08:11:49Z</time>
      </trkpt>
      <trkpt lat="49.07484" lon="0.1021">
        <ele>52.6</ele>
        <time>2023-10-15T08:11:50Z</time>
      </trkpt>
      <trkpt lat="49.07487" lon="0.10217">
        <ele>52.8</ele>
        <time>2023-10-15T08:11:51Z</time>
      </trkpt>
      <trkpt lat="49.07491" lon="0.10224">
        <ele>52.9</ele>
        <time>2023-10-15T08:11:52Z</time>
      </trkpt>
      <trkpt lat="49.07493" lon="0.1023">
        <ele>53.1</ele>
        <time>2023-10-15T08:11:53Z</time>
      </trkpt>
      <trkpt lat="49.07496" lon="0.10237">
        <ele>53.3</ele>
        <time>2023-10-15T08:11:54Z</time>
      </trkpt>
      <trkpt lat="49.075" lon="0.10243">
        <ele>53.5</ele>
        <time>2023-10-15T08:11:55Z</time>
      </trkpt>
      <trkpt lat="49.07503" lon="0.10249">
        <ele>53.7</ele>
        <time>2023-10-15T08:11:56Z</time>
      </trkpt>
      <trkpt lat="49.07506" lon="0.10255">
        <ele>53.9</ele>
        <time>2023-10-15T08:11:57Z</time>
      </trkpt>
      <trkpt lat="49.07509" lon="0.10262">
        <ele>54.1</ele>
        <time>2023-10-15T08:11:58Z</time>
      </trkpt>
      <trkpt lat="49.07511" lon="0.10268">
        <ele>54.4</ele>
        <time>2023-10-15T08:11:59Z</time>
      </trkpt>
      <trkpt lat="49.07514" lon="0.10275">
        <ele>54.7</ele>
        <time>2023-10-15T08:12:00Z</time>
      </trkpt>
      <trkpt lat="49.07516" lon="0.10282">
        <ele>55</ele>
        <time>2023-10-15T08:12:01Z</time>
      </trkpt>
      <trkpt lat="49.07518" lon="0.10289">
        <ele>55.2</ele>
        <time>2023-10-15T08:12:02Z</time>
      </trkpt>
      <trkpt lat="49.07519" lon="0.10296">
        <ele>55.5</ele>
        <time>2023-10-15T08:12:03Z</time>
      </trkpt>
      <trkpt lat="49.07521" lon="0.10302">
        <ele>55.8</ele>
        <time>2023-10-15T08:12:04Z</time>
      </trkpt>
      <trkpt lat="49.07522" lon="0.10309">
        <ele>56.1</ele>
        <time>2023-10-15T08:12:05Z</time>
      </trkpt>
      <trkpt lat="49.07524" lon="0.10315">
        <ele>56.4</ele>
        <time>2023-10-15T08:12:06Z</time>
      </trkpt>
      <trkpt lat="49.07525" lon="0.10322">
        <ele>56.7</ele>
        <time>2023-10-15T08:12:07Z</time>
      </trkpt>
      <trkpt lat="49.07527" lon="0.10328">
        <ele>57</ele>
        <time>2023-10-15T08:12:08Z</time>
      </trkpt>
      <trkpt lat="49.07528" lon="0.10334">
        <ele>57.3</ele>
        <time>2023-10-15T08:12:09Z</time>
      </trkpt>
      <trkpt lat="49.07529" lon="0.1034">
        <ele>57.7</ele>
        <time>2023-10-15T08:12:10Z</time>
      </trkpt>
      <trkpt lat="49.0753" lon="0.10346">
        <ele>58</ele>
        <time>2023-10-15T08:12:11Z</time>
      </trkpt>
      <trkpt lat="49.07532" lon="0.10351">
        <ele>58.3</ele>
        <time>2023-10-15T08:12:12Z</time>
      </trkpt>
      <trkpt lat="49.07533" lon="0.10357">
        <ele>58.6</ele>
        <time>2023-10-15T08:12:13Z</time>
      </trkpt>
      <trkpt lat="49.07534" lon="0.10363">
        <ele>58.9</ele>
        <time>2023-10-15T08:12:14Z</time>
      </trkpt>
      <trkpt lat="49.07535" lon="0.10368">
        <ele>59.3</ele>
        <time>2023-10-15T08:12:15Z</time>
      </trkpt>
      <trkpt lat="49.07536" lon="0.10374">
        <ele>59.6</ele>
        <time>2023-10-15T08:12:16Z</time>
      </trkpt>
      <trkpt lat="49.07536" lon="0.10379">
        <ele>59.9</ele>
        <time>2023-10-15T08:12:17Z</time>
      </trkpt>
      <trkpt lat="49.07537" lon="0.10384">
        <ele>60.2</ele>
        <time>2023-10-15T08:12:18Z</time>
      </trkpt>
      <trkpt lat="49.07538" lon="0.1039">
        <ele>60.6</ele>
        <time>2023-10-15T08:12:19Z</time>
      </trkpt>
      <trkpt lat="49.07539" lon="0.10395">
        <ele>60.9</ele>
        <time>2023-10-15T08:12:20Z</time>
      </trkpt>
      <trkpt lat="49.07539" lon="0.10401">
        <ele>61.3</ele>
        <time>2023-10-15T08:12:21Z</time>
      </trkpt>
      <trkpt lat="49.0754" lon="0.10407">
        <ele>61.6</ele>
        <time>2023-10-15T08:12:22Z</time>
      </trkpt>
      <trkpt lat="49.0754" lon="0.10413">
        <ele>61.9</ele>
        <time>2023-10-15T08:12:23Z</time>
      </trkpt>
      <trkpt lat="49.07541" lon="0.10419">
        <ele>62.2</ele>
        <time>2023-10-15T08:12:24Z</time>
      </trkpt>
      <trkpt lat="49.07541" lon="0.10425">
        <ele>62.5</ele>
        <time>2023-10-15T08:12:25Z</time>
      </trkpt>
      <trkpt lat="49.0754" lon="0.10431">
        <ele>62.8</ele>
        <time>2023-10-15T08:12:26Z</time>
      </trkpt>
      <trkpt lat="49.0754" lon="0.10437">
        <ele>63.1</ele>
        <time>2023-10-15T08:12:27Z</time>
      </trkpt>
      <trkpt lat="49.07539" lon="0.10443">
        <ele>63.3</ele>
        <time>2023-10-15T08:12:28Z</time>
      </trkpt>
      <trkpt lat="49.07538" lon="0.10449">
        <ele>63.6</ele>
        <time>2023-10-15T08:12:29Z</time>
      </trkpt>
      <trkpt lat="49.07537" lon="0.10454">
        <ele>63.9</ele>
        <time>2023-10-15T08:12:30Z</time>
      </trkpt>
      <trkpt lat="49.07536" lon="0.1046">
        <ele>64.2</ele>
        <time>2023-10-15T08:12:31Z</time>
      </trkpt>
      <trkpt lat="49.07535" lon="0.10466">
        <ele>64.4</ele>
        <time>2023-10-15T08:12:32Z</time>
      </trkpt>
      <trkpt lat="49.07534" lon="0.10471">
        <ele>64.7</ele>
        <time>2023-10-15T08:12:33Z</time>
      </trkpt>
      <trkpt lat="49.07533" lon="0.10477">
        <ele>64.9</ele>
        <time>2023-10-15T08:12:34Z</time>
      </trkpt>
      <trkpt lat="49.07532" lon="0.10482">
        <ele>65.2</ele>
        <time>2023-10-15T08:12:35Z</time>
      </trkpt>
      <trkpt lat="49.07531" lon="0.10488">
        <ele>65.4</ele>
        <time>2023-10-15T08:12:36Z</time>
      </trkpt>
      <trkpt lat="49.07529" lon="0.10494">
        <ele>65.6</ele>
        <time>2023-10-15T08:12:37Z</time>
      </trkpt>
      <trkpt lat="49.07528" lon="0.10499">
        <ele>65.9</ele>
        <time>2023-10-15T08:12:38Z</time>
      </trkpt>
      <trkpt lat="49.07527" lon="0.10505">
        <ele>66.1</ele>
        <time>2023-10-15T08:12:39Z</time>
      </trkpt>
      <trkpt lat="49.07525" lon="0.10511">
        <ele>66.3</ele>
        <time>2023-10-15T08:12:40Z</time>
      </trkpt>
      <trkpt lat="49.07524" lon="0.10517">
        <ele>66.6</ele>
        <time>2023-10-15T08:12:41Z</time>
      </trkpt>
      <trkpt lat="49.07523" lon="0.10522">
        <ele>66.8</ele>
        <time>2023-10-15T08:12:42Z</time>
      </trkpt>
      <trkpt lat="49.07522" lon="0.10528">
        <ele>67</ele>
        <time>2023-10-15T08:12:43Z</time>
      </trkpt>
      <trkpt lat="49.07521" lon="0.10534">
        <ele>67.2</ele>
        <time>2023-10-15T08:12:44Z</time>
      </trkpt>
      <trkpt lat="49.07521" lon="0.10539">
        <ele>67.4</ele>
        <time>2023-10-15T08:12:45Z</time>
      </trkpt>
      <trkpt lat="49.0752" lon="0.10545">
        <ele>67.6</ele>
        <time>2023-10-15T08:12:46Z</time>
      </trkpt>
      <trkpt lat="49.07519" lon="0.10551">
        <ele>67.8</ele>
        <time>2023-10-15T08:12:47Z</time>
      </trkpt>
      <trkpt lat="49.07518" lon="0.10557">
        <ele>68</ele>
        <time>2023-10-15T08:12:48Z</time>
      </trkpt>
      <trkpt lat="49.07517" lon="0.10563">
        <ele>68.2</ele>
        <time>2023-10-15T08:12:49Z</time>
      </trkpt>
      <trkpt lat="49.07516" lon="0.10568">
        <ele>68.4</ele>
        <time>2023-10-15T08:12:50Z</time>
      </trkpt>
      <trkpt lat="49.07515" lon="0.10573">
        <ele>68.6</ele>
        <time>2023-10-15T08:12:51Z</time>
      </trkpt>
      <trkpt lat="49.07514" lon="0.10579">
        <ele>68.8</ele>
        <time>2023-10-15T08:12:52Z</time>
      </trkpt>
      <trkpt lat="49.07513" lon="0.10584">
        <ele>69</ele>
        <time>2023-10-15T08:12:53Z</time>
      </trkpt>
      <trkpt lat="49.07512" lon="0.1059">
        <ele>69.3</ele>
        <time>2023-10-15T08:12:54Z</time>
      </trkpt>
      <trkpt lat="49.07511" lon="0.10596">
        <ele>69.5</ele>
        <time>2023-10-15T08:12:55Z</time>
      </trkpt>
      <trkpt lat="49.07509" lon="0.10601">
        <ele>69.7</ele>
        <time>2023-10-15T08:12:56Z</time>
      </trkpt>
      <trkpt lat="49.07506" lon="0.10606">
        <ele>70</ele>
        <time>2023-10-15T08:12:57Z</time>
      </trkpt>
      <trkpt lat="49.07504" lon="0.10611">
        <ele>70.2</ele>
        <time>2023-10-15T08:12:58Z</time>
      </trkpt>
      <trkpt lat="49.07502" lon="0.10616">
        <ele>70.4</ele>
        <time>2023-10-15T08:12:59Z</time>
      </trkpt>
      <trkpt lat="49.07499" lon="0.10621">
        <ele>70.7</ele>
        <time>2023-10-15T08:13:00Z</time>
      </trkpt>
      <trkpt lat="49.07497" lon="0.10625">
        <ele>70.9</ele>
        <time>2023-10-15T08:13:01Z</time>
      </trkpt>
      <trkpt lat="49.07494" lon="0.1063">
        <ele>71.2</ele>
        <time>2023-10-15T08:13:02Z</time>
      </trkpt>
      <trkpt lat="49.07491" lon="0.10634">
        <ele>71.5</ele>
        <time>2023-10-15T08:13:03Z</time>
      </trkpt>
      <trkpt lat="49.07488" lon="0.10638">
        <ele>71.7</ele>
        <time>2023-10-15T08:13:04Z</time>
      </trkpt>
      <trkpt lat="49.07485" lon="0.10642">
        <ele>72</ele>
        <time>2023-10-15T08:13:05Z</time>
      </trkpt>
      <trkpt lat="49.07482" lon="0.10646">
        <ele>72.2</ele>
        <time>2023-10-15T08:13:06Z</time>
      </trkpt>
      <trkpt lat="49.07479" lon="0.10649">
        <ele>72.5</ele>
        <time>2023-10-15T08:13:07Z</time>
      </trkpt>
      <trkpt lat="49.07476" lon="0.10653">
        <ele>72.7</ele>
        <time>2023-10-15T08:13:08Z</time>
      </trkpt>
      <trkpt lat="49.07473" lon="0.10657">
        <ele>73</ele>
        <time>2023-10-15T08:13:09Z</time>
      </trkpt>
      <trkpt lat="49.0747" lon="0.1066">
        <ele>73.2</ele>
        <time>2023-10-15T08:13:10Z</time>
      </trkpt>
      <trkpt lat="49.07467" lon="0.10664">
        <ele>73.4</ele>
        <time>2023-10-15T08:13:11Z</time>
      </trkpt>
      <trkpt lat="49.07465" lon="0.10668">
        <ele>73.6</ele>
        <time>2023-10-15T08:13:12Z</time>
      </trkpt>
      <trkpt lat="49.07463" lon="0.10673">
        <ele>73.8</ele>
        <time>2023-10-15T08:13:13Z</time>
      </trkpt>
      <trkpt lat="49.07461" lon="0.10678">
        <ele>74</ele>
        <time>2023-10-15T08:13:14Z</time>
      </trkpt>
      <trkpt lat="49.07459" lon="0.10683">
        <ele>74.2</ele>
        <time>2023-10-15T08:13:15Z</time>
      </trkpt>
      <trkpt lat="49.07458" lon="0.10688">
        <ele>74.4</ele>
        <time>2023-10-15T08:13:16Z</time>
      </trkpt>
      <trkpt lat="49.07458" lon="0.10693">
        <ele>74.6</ele>
        <time>2023-10-15T08:13:17Z</time>
      </trkpt>
      <trkpt lat="49.07457" lon="0.10698">
        <ele>74.8</ele>
        <time>2023-10-15T08:13:18Z</time>
      </trkpt>
      <trkpt lat="49.07457" lon="0.10704">
        <ele>75</ele>
        <time>2023-10-15T08:13:19Z</time>
      </trkpt>
      <trkpt lat="49.07458" lon="0.10709">
        <ele>75.2</ele>
        <time>2023-10-15T08:13:20Z</time>
      </trkpt>
      <trkpt lat="49.07458" lon="0.10714">
        <ele>75.4</ele>
        <time>2023-10-15T08:13:21Z</time>
      </trkpt>
      <trkpt lat="49.07459" lon="0.1072">
        <ele>75.6</ele>
        <time>2023-10-15T08:13:22Z</time>
      </trkpt>
      <trkpt lat="49.07459" lon="0.10725">
        <ele>75.8</ele>
        <time>2023-10-15T08:13:23Z</time>
      </trkpt>
      <trkpt lat="49.0746" lon="0.10731">
        <ele>76</ele>
        <time>2023-10-15T08:13:24Z</time>
      </trkpt>
      <trkpt lat="49.0746" lon="0.10736">
        <ele>76.2</ele>
        <time>2023-10-15T08:13:25Z</time>
      </trkpt>
      <trkpt lat="49.07461" lon="0.10742">
        <ele>76.4</ele>
        <time>2023-10-15T08:13:26Z</time>
      </trkpt>
      <trkpt lat="49.07461" lon="0.10747">
        <ele>76.6</ele>
        <time>2023-10-15T08:13:27Z</time>
      </trkpt>
      <trkpt lat="49.07462" lon="0.10753">
        <ele>76.8</ele>
        <time>2023-10-15T08:13:28Z</time>
      </trkpt>
      <trkpt lat="49.07462" lon="0.10758">
        <ele>77</ele>
        <time>2023-10-15T08:13:29Z</time>
      </trkpt>
      <trkpt lat="49.07463" lon="0.10764">
        <ele>77.2</ele>
        <time>2023-10-15T08:13:30Z</time>
      </trkpt>
      <trkpt lat="49.07464" lon="0.10769">
        <ele>77.4</ele>
        <time>2023-10-15T08:13:31Z</time>
      </trkpt>
      <trkpt lat="49.07464" lon="0.10775">
        <ele>77.7</ele>
        <time>2023-10-15T08:13:32Z</time>
      </trkpt>
      <trkpt lat="49.07464" lon="0.1078">
        <ele>77.9</ele>
        <time>2023-10-15T08:13:33Z</time>
      </trkpt>
      <trkpt lat="49.07465" lon="0.10785">
        <ele>78.1</ele>
        <time>2023-10-15T08:13:34Z</time>
      </trkpt>
      <trkpt lat="49.07465" lon="0.10791">
        <ele>78.3</ele>
        <time>2023-10-15T08:13:35Z</time>
      </trkpt>
      <trkpt lat="49.07466" lon="0.10797">
        <ele>78.6</ele>
        <time>2023-10-15T08:13:36Z</time>
      </trkpt>
      <trkpt lat="49.07466" lon="0.10802">
        <ele>78.8</ele>
        <time>2023-10-15T08:13:37Z</time>
      </trkpt>
      <trkpt lat="49.07467" lon="0.10807">
        <ele>79</ele>
        <time>2023-10-15T08:13:38Z</time>
      </trkpt>
      <trkpt lat="49.07467" lon="0.10812">
        <ele>79.3</ele>
        <time>2023-10-15T08:13:39Z</time>
      </trkpt>
      <trkpt lat="49.07467" lon="0.10818">
        <ele>79.5</ele>
        <time>2023-10-15T08:13:40Z</time>
      </trkpt>
      <trkpt lat="49.07467" lon="0.10823">
        <ele>79.7</ele>
        <time>2023-10-15T08:13:41Z</time>
      </trkpt>
      <trkpt lat="49.07467" lon="0.10828">
        <ele>79.9</ele>
        <time>2023-10-15T08:13:42Z</time>
      </trkpt>
      <trkpt lat="49.07467" lon="0.10834">
        <ele>80.2</ele>
        <time>2023-10-15T08:13:43Z</time>
      </trkpt>
      <trkpt lat="49.07467" lon="0.10839">
        <ele>80.4</ele>
        <time>2023-10-15T08:13:44Z</time>
      </trkpt>
      <trkpt lat="49.07467" lon="0.10845">
        <ele>80.6</ele>
        <time>2023-10-15T08:13:45Z</time>
      </trkpt>
      <trkpt lat="49.07467" lon="0.1085">
        <ele>80.9</ele>
        <time>2023-10-15T08:13:46Z</time>
      </trkpt>
      <trkpt lat="49.07466" lon="0.10855">
        <ele>81.1</ele>
        <time>2023-10-15T08:13:47Z</time>
      </trkpt>
      <trkpt lat="49.07466" lon="0.1086">
        <ele>81.3</ele>
        <time>2023-10-15T08:13:48Z</time>
      </trkpt>
      <trkpt lat="49.07466" lon="0.10865">
        <ele>81.5</ele>
        <time>2023-10-15T08:13:49Z</time>
      </trkpt>
      <trkpt lat="49.07466" lon="0.10869">
        <ele>81.7</ele>
        <time>2023-10-15T08:13:50Z</time>
      </trkpt>
      <trkpt lat="49.07465" lon="0.10873">
        <ele>81.9</ele>
        <time>2023-10-15T08:13:51Z</time>
      </trkpt>
      <trkpt lat="49.07465" lon="0.10878">
        <ele>82.1</ele>
        <time>2023-10-15T08:13:52Z</time>
      </trkpt>
      <trkpt lat="49.07465" lon="0.10883">
        <ele>82.3</ele>
        <time>2023-10-15T08:13:53Z</time>
      </trkpt>
      <trkpt lat="49.07465" lon="0.10888">
        <ele>82.6</ele>
        <time>2023-10-15T08:13:54Z</time>
      </trkpt>
      <trkpt lat="49.07465" lon="0.10893">
        <ele>82.8</ele>
        <time>2023-10-15T08:13:55Z</time>
      </trkpt>
      <trkpt lat="49.07464" lon="0.10898">
        <ele>83.1</ele>
        <time>2023-10-15T08:13:56Z</time>
      </trkpt>
      <trkpt lat="49.07463" lon="0.10903">
        <ele>83.3</ele>
        <time>2023-10-15T08:13:57Z</time>
      </trkpt>
      <trkpt lat="49.07463" lon="0.10908">
        <ele>83.6</ele>
        <time>2023-10-15T08:13:58Z</time>
      </trkpt>
      <trkpt lat="49.07463" lon="0.10913">
        <ele>83.8</ele>
        <time>2023-10-15T08:13:59Z</time>
      </trkpt>
      <trkpt lat="49.07463" lon="0.10918">
        <ele>84.1</ele>
        <time>2023-10-15T08:14:00Z</time>
      </trkpt>
      <trkpt lat="49.07464" lon="0.10923">
        <ele>84.3</ele>
        <time>2023-10-15T08:14:01Z</time>
      </trkpt>
      <trkpt lat="49.07464" lon="0.10928">
        <ele>84.6</ele>
        <time>2023-10-15T08:14:02Z</time>
      </trkpt>
      <trkpt lat="49.07464" lon="0.10933">
        <ele>84.9</ele>
        <time>2023-10-15T08:14:03Z</time>
      </trkpt>
      <trkpt lat="49.07464" lon="0.10938">
        <ele>85.2</ele>
        <time>2023-10-15T08:14:04Z</time>
      </trkpt>
      <trkpt lat="49.07464" lon="0.10943">
        <ele>85.5</ele>
        <time>2023-10-15T08:14:05Z</time>
      </trkpt>
      <trkpt lat="49.07464" lon="0.10948">
        <ele>85.8</ele>
        <time>2023-10-15T08:14:06Z</time>
      </trkpt>
      <trkpt lat="49.07464" lon="0.10953">
        <ele>86.1</ele>
        <time>2023-10-15T08:14:07Z</time>
      </trkpt>
      <trkpt lat="49.07464" lon="0.10957">
        <ele>86.4</ele>
        <time>2023-10-15T08:14:08Z</time>
      </trkpt>
      <trkpt lat="49.07464" lon="0.10962">
        <ele>86.7</ele>
        <time>2023-10-15T08:14:09Z</time>
      </trkpt>
      <trkpt lat="49.07464" lon="0.10966">
        <ele>87</ele>
        <time>2023-10-15T08:14:10Z</time>
      </trkpt>
      <trkpt lat="49.07464" lon="0.10971">
        <ele>87.3</ele>
        <time>2023-10-15T08:14:11Z</time>
      </trkpt>
      <trkpt lat="49.07464" lon="0.10975">
        <ele>87.6</ele>
        <time>2023-10-15T08:14:12Z</time>
      </trkpt>
      <trkpt lat="49.07464" lon="0.10979">
        <ele>87.9</ele>
        <time>2023-10-15T08:14:13Z</time>
      </trkpt>
      <trkpt lat="49.07464" lon="0.10984">
        <ele>88.1</ele>
        <time>2023-10-15T08:14:14Z</time>
      </trkpt>
      <trkpt lat="49.07463" lon="0.10988">
        <ele>88.4</ele>
        <time>2023-10-15T08:14:15Z</time>
      </trkpt>
      <trkpt lat="49.07463" lon="0.10992">
        <ele>88.7</ele>
        <time>2023-10-15T08:14:16Z</time>
      </trkpt>
      <trkpt lat="49.07463" lon="0.10996">
        <ele>89</ele>
        <time>2023-10-15T08:14:17Z</time>
      </trkpt>
      <trkpt lat="49.07462" lon="0.11003">
        <ele>89.5</ele>
        <time>2023-10-15T08:14:18Z</time>
      </trkpt>
      <trkpt lat="49.07462" lon="0.11005">
        <ele>89.6</ele>
        <time>2023-10-15T08:14:19Z</time>
      </trkpt>
      <trkpt lat="49.07462" lon="0.11011">
        <ele>90</ele>
        <time>2023-10-15T08:14:20Z</time>
      </trkpt>
      <trkpt lat="49.07462" lon="0.11013">
        <ele>90.2</ele>
        <time>2023-10-15T08:14:21Z</time>
      </trkpt>
      <trkpt lat="49.07462" lon="0.11017">
        <ele>90.5</ele>
        <time>2023-10-15T08:14:22Z</time>
      </trkpt>
      <trkpt lat="49.07461" lon="0.11021">
        <ele>90.8</ele>
        <time>2023-10-15T08:14:23Z</time>
      </trkpt>
      <trkpt lat="49.07461" lon="0.11026">
        <ele>91.1</ele>
        <time>2023-10-15T08:14:24Z</time>
      </trkpt>
      <trkpt lat="49.0746" lon="0.1103">
        <ele>91.4</ele>
        <time>2023-10-15T08:14:25Z</time>
      </trkpt>
      <trkpt lat="49.07459" lon="0.11035">
        <ele>91.8</ele>
        <time>2023-10-15T08:14:26Z</time>
      </trkpt>
      <trkpt lat="49.07459" lon="0.11037">
        <ele>92</ele>
        <time>2023-10-15T08:14:27Z</time>
      </trkpt>
      <trkpt lat="49.07458" lon="0.11041">
        <ele>92.3</ele>
        <time>2023-10-15T08:14:28Z</time>
      </trkpt>
      <trkpt lat="49.07457" lon="0.11045">
        <ele>92.6</ele>
        <time>2023-10-15T08:14:29Z</time>
      </trkpt>
      <trkpt lat="49.07456" lon="0.11051">
        <ele>93</ele>
        <time>2023-10-15T08:14:30Z</time>
      </trkpt>
      <trkpt lat="49.07455" lon="0.11053">
        <ele>93.2</ele>
        <time>2023-10-15T08:14:31Z</time>
      </trkpt>
      <trkpt lat="49.07454" lon="0.11059">
        <ele>93.6</ele>
        <time>2023-10-15T08:14:32Z</time>
      </trkpt>
      <trkpt lat="49.07454" lon="0.11061">
        <ele>93.7</ele>
        <time>2023-10-15T08:14:33Z</time>
      </trkpt>
      <trkpt lat="49.07453" lon="0.11065">
        <ele>94</ele>
        <time>2023-10-15T08:14:34Z</time>
      </trkpt>
      <trkpt lat="49.07452" lon="0.11069">
        <ele>94.3</ele>
        <time>2023-10-15T08:14:35Z</time>
      </trkpt>
      <trkpt lat="49.07451" lon="0.11073">
        <ele>94.6</ele>
        <time>2023-10-15T08:14:36Z</time>
      </trkpt>
      <trkpt lat="49.07449" lon="0.11078">
        <ele>95.1</ele>
        <time>2023-10-15T08:14:37Z</time>
      </trkpt>
      <trkpt lat="49.07449" lon="0.1108">
        <ele>95.2</ele>
        <time>2023-10-15T08:14:38Z</time>
      </trkpt>
      <trkpt lat="49.07447" lon="0.11086">
        <ele>95.6</ele>
        <time>2023-10-15T08:14:39Z</time>
      </trkpt>
      <trkpt lat="49.07446" lon="0.11087">
        <ele>95.8</ele>
        <time>2023-10-15T08:14:40Z</time>
      </trkpt>
      <trkpt lat="49.07445" lon="0.11093">
        <ele>96.2</ele>
        <time>2023-10-15T08:14:41Z</time>
      </trkpt>
      <trkpt lat="49.07444" lon="0.11095">
        <ele>96.3</ele>
        <time>2023-10-15T08:14:42Z</time>
      </trkpt>
      <trkpt lat="49.07443" lon="0.11098">
        <ele>96.6</ele>
        <time>2023-10-15T08:14:43Z</time>
      </trkpt>
      <trkpt lat="49.07442" lon="0.11104">
        <ele>97</ele>
        <time>2023-10-15T08:14:44Z</time>
      </trkpt>
      <trkpt lat="49.07441" lon="0.11106">
        <ele>97.2</ele>
        <time>2023-10-15T08:14:45Z</time>
      </trkpt>
      <trkpt lat="49.0744" lon="0.11111">
        <ele>97.5</ele>
        <time>2023-10-15T08:14:46Z</time>
      </trkpt>
      <trkpt lat="49.07439" lon="0.11113">
        <ele>97.7</ele>
        <time>2023-10-15T08:14:47Z</time>
      </trkpt>
      <trkpt lat="49.07438" lon="0.11118">
        <ele>98.1</ele>
        <time>2023-10-15T08:14:48Z</time>
      </trkpt>
      <trkpt lat="49.07437" lon="0.1112">
        <ele>98.2</ele>
        <time>2023-10-15T08:14:49Z</time>
      </trkpt>
      <trkpt lat="49.07436" lon="0.11125">
        <ele>98.7</ele>
        <time>2023-10-15T08:14:50Z</time>
      </trkpt>
      <trkpt lat="49.07436" lon="0.11127">
        <ele>98.8</ele>
        <time>2023-10-15T08:14:51Z</time>
      </trkpt>
      <trkpt lat="49.07435" lon="0.11133">
        <ele>99.2</ele>
        <time>2023-10-15T08:14:52Z</time>
      </trkpt>
      <trkpt lat="49.07434" lon="0.11134">
        <ele>99.4</ele>
        <time>2023-10-15T08:14:53Z</time>
      </trkpt>
      <trkpt lat="49.07433" lon="0.1114">
        <ele>99.8</ele>
        <time>2023-10-15T08:14:54Z</time>
      </trkpt>
      <trkpt lat="49.07433" lon="0.11142">
        <ele>99.9</ele>
        <time>2023-10-15T08:14:55Z</time>
      </trkpt>
      <trkpt lat="49.07432" lon="0.11147">
        <ele>100.3</ele>
        <time>2023-10-15T08:14:56Z</time>
      </trkpt>
      <trkpt lat="49.07431" lon="0.11148">
        <ele>100.4</ele>
        <time>2023-10-15T08:14:57Z</time>
      </trkpt>
      <trkpt lat="49.07431" lon="0.11153">
        <ele>100.8</ele>
        <time>2023-10-15T08:14:58Z</time>
      </trkpt>
      <trkpt lat="49.07431" lon="0.11155">
        <ele>100.9</ele>
        <time>2023-10-15T08:14:59Z</time>
      </trkpt>
      <trkpt lat="49.0743" lon="0.1116">
        <ele>101.3</ele>
        <time>2023-10-15T08:15:00Z</time>
      </trkpt>
      <trkpt lat="49.0743" lon="0.11162">
        <ele>101.4</ele>
        <time>2023-10-15T08:15:01Z</time>
      </trkpt>
      <trkpt lat="49.07429" lon="0.11167">
        <ele>101.8</ele>
        <time>2023-10-15T08:15:02Z</time>
      </trkpt>
      <trkpt lat="49.07428" lon="0.11169">
        <ele>102</ele>
        <time>2023-10-15T08:15:03Z</time>
      </trkpt>
      <trkpt lat="49.07427" lon="0.11175">
        <ele>102.4</ele>
        <time>2023-10-15T08:15:04Z</time>
      </trkpt>
      <trkpt lat="49.07427" lon="0.11177">
        <ele>102.5</ele>
        <time>2023-10-15T08:15:05Z</time>
      </trkpt>
      <trkpt lat="49.07426" lon="0.11183">
        <ele>103</ele>
        <time>2023-10-15T08:15:06Z</time>
      </trkpt>
      <trkpt lat="49.07426" lon="0.11185">
        <ele>103.1</ele>
        <time>2023-10-15T08:15:07Z</time>
      </trkpt>
      <trkpt lat="49.07425" lon="0.1119">
        <ele>103.5</ele>
        <time>2023-10-15T08:15:08Z</time>
      </trkpt>
      <trkpt lat="49.07425" lon="0.11192">
        <ele>103.7</ele>
        <time>2023-10-15T08:15:09Z</time>
      </trkpt>
      <trkpt lat="49.07424" lon="0.11196">
        <ele>104</ele>
        <time>2023-10-15T08:15:10Z</time>
      </trkpt>
      <trkpt lat="49.07423" lon="0.11202">
        <ele>104.4</ele>
        <time>2023-10-15T08:15:11Z</time>
      </trkpt>
      <trkpt lat="49.07422" lon="0.11204">
        <ele>104.6</ele>
        <time>2023-10-15T08:15:12Z</time>
      </trkpt>
      <trkpt lat="49.0742" lon="0.11209">
        <ele>105</ele>
        <time>2023-10-15T08:15:13Z</time>
      </trkpt>
      <trkpt lat="49.0742" lon="0.1121">
        <ele>105.1</ele>
        <time>2023-10-15T08:15:14Z</time>
      </trkpt>
      <trkpt lat="49.07418" lon="0.11215">
        <ele>105.5</ele>
        <time>2023-10-15T08:15:15Z</time>
      </trkpt>
      <trkpt lat="49.07417" lon="0.11217">
        <ele>105.6</ele>
        <time>2023-10-15T08:15:16Z</time>
      </trkpt>
      <trkpt lat="49.07416" lon="0.11221">
        <ele>106</ele>
        <time>2023-10-15T08:15:17Z</time>
      </trkpt>
      <trkpt lat="49.07415" lon="0.11225">
        <ele>106.2</ele>
        <time>2023-10-15T08:15:18Z</time>
      </trkpt>
      <trkpt lat="49.07414" lon="0.11229">
        <ele>106.5</ele>
        <time>2023-10-15T08:15:19Z</time>
      </trkpt>
      <trkpt lat="49.07412" lon="0.11234">
        <ele>106.9</ele>
        <time>2023-10-15T08:15:20Z</time>
      </trkpt>
      <trkpt lat="49.07411" lon="0.11236">
        <ele>107.1</ele>
        <time>2023-10-15T08:15:21Z</time>
      </trkpt>
      <trkpt lat="49.0741" lon="0.11241">
        <ele>107.4</ele>
        <time>2023-10-15T08:15:22Z</time>
      </trkpt>
      <trkpt lat="49.07409" lon="0.11242">
        <ele>107.6</ele>
        <time>2023-10-15T08:15:23Z</time>
      </trkpt>
      <trkpt lat="49.07407" lon="0.11247">
        <ele>108</ele>
        <time>2023-10-15T08:15:24Z</time>
      </trkpt>
      <trkpt lat="49.07407" lon="0.11249">
        <ele>108.1</ele>
        <time>2023-10-15T08:15:25Z</time>
      </trkpt>
      <trkpt lat="49.07405" lon="0.11254">
        <ele>108.5</ele>
        <time>2023-10-15T08:15:26Z</time>
      </trkpt>
      <trkpt lat="49.07404" lon="0.11256">
        <ele>108.6</ele>
        <time>2023-10-15T08:15:27Z</time>
      </trkpt>
      <trkpt lat="49.07402" lon="0.1126">
        <ele>109</ele>
        <time>2023-10-15T08:15:28Z</time>
      </trkpt>
      <trkpt lat="49.07401" lon="0.11262">
        <ele>109.2</ele>
        <time>2023-10-15T08:15:29Z</time>
      </trkpt>
      <trkpt lat="49.07399" lon="0.11267">
        <ele>109.6</ele>
        <time>2023-10-15T08:15:30Z</time>
      </trkpt>
      <trkpt lat="49.07399" lon="0.11269">
        <ele>109.7</ele>
        <time>2023-10-15T08:15:31Z</time>
      </trkpt>
      <trkpt lat="49.07397" lon="0.11273">
        <ele>110</ele>
        <time>2023-10-15T08:15:32Z</time>
      </trkpt>
      <trkpt lat="49.07395" lon="0.11278">
        <ele>110.4</ele>
        <time>2023-10-15T08:15:33Z</time>
      </trkpt>
      <trkpt lat="49.07395" lon="0.1128">
        <ele>110.6</ele>
        <time>2023-10-15T08:15:34Z</time>
      </trkpt>
      <trkpt lat="49.07393" lon="0.11285">
        <ele>111</ele>
        <time>2023-10-15T08:15:35Z</time>
      </trkpt>
      <trkpt lat="49.07392" lon="0.11287">
        <ele>111.1</ele>
        <time>2023-10-15T08:15:36Z</time>
      </trkpt>
      <trkpt lat="49.0739" lon="0.11292">
        <ele>111.6</ele>
        <time>2023-10-15T08:15:37Z</time>
      </trkpt>
      <trkpt lat="49.07389" lon="0.11294">
        <ele>111.7</ele>
        <time>2023-10-15T08:15:38Z</time>
      </trkpt>
      <trkpt lat="49.07387" lon="0.11298">
        <ele>112.2</ele>
        <time>2023-10-15T08:15:39Z</time>
      </trkpt>
      <trkpt lat="49.07387" lon="0.113">
        <ele>112.3</ele>
        <time>2023-10-15T08:15:40Z</time>
      </trkpt>
      <trkpt lat="49.07385" lon="0.11305">
        <ele>112.8</ele>
        <time>2023-10-15T08:15:41Z</time>
      </trkpt>
      <trkpt lat="49.07384" lon="0.11307">
        <ele>112.9</ele>
        <time>2023-10-15T08:15:42Z</time>
      </trkpt>
      <trkpt lat="49.07383" lon="0.11312">
        <ele>113.4</ele>
        <time>2023-10-15T08:15:43Z</time>
      </trkpt>
      <trkpt lat="49.07382" lon="0.11314">
        <ele>113.5</ele>
        <time>2023-10-15T08:15:44Z</time>
      </trkpt>
      <trkpt lat="49.07381" lon="0.11319">
        <ele>114</ele>
        <time>2023-10-15T08:15:45Z</time>
      </trkpt>
      <trkpt lat="49.0738" lon="0.11321">
        <ele>114.1</ele>
        <time>2023-10-15T08:15:46Z</time>
      </trkpt>
      <trkpt lat="49.07378" lon="0.11326">
        <ele>114.5</ele>
        <time>2023-10-15T08:15:47Z</time>
      </trkpt>
      <trkpt lat="49.07378" lon="0.11327">
        <ele>114.7</ele>
        <time>2023-10-15T08:15:48Z</time>
      </trkpt>
      <trkpt lat="49.07377" lon="0.11332">
        <ele>115</ele>
        <time>2023-10-15T08:15:49Z</time>
      </trkpt>
      <trkpt lat="49.07377" lon="0.11334">
        <ele>115.1</ele>
        <time>2023-10-15T08:15:50Z</time>
      </trkpt>
      <trkpt lat="49.07375" lon="0.11338">
        <ele>115.4</ele>
        <time>2023-10-15T08:15:51Z</time>
      </trkpt>
      <trkpt lat="49.07375" lon="0.11339">
        <ele>115.5</ele>
        <time>2023-10-15T08:15:52Z</time>
      </trkpt>
      <trkpt lat="49.07374" lon="0.11343">
        <ele>115.8</ele>
        <time>2023-10-15T08:15:53Z</time>
      </trkpt>
      <trkpt lat="49.07374" lon="0.11345">
        <ele>115.9</ele>
        <time>2023-10-15T08:15:54Z</time>
      </trkpt>
      <trkpt lat="49.07374" lon="0.1135">
        <ele>116.2</ele>
        <time>2023-10-15T08:15:55Z</time>
      </trkpt>
      <trkpt lat="49.07374" lon="0.11352">
        <ele>116.3</ele>
        <time>2023-10-15T08:15:56Z</time>
      </trkpt>
      <trkpt lat="49.07374" lon="0.11358">
        <ele>116.7</ele>
        <time>2023-10-15T08:15:57Z</time>
      </trkpt>
      <trkpt lat="49.07374" lon="0.1136">
        <ele>116.8</ele>
        <time>2023-10-15T08:15:58Z</time>
      </trkpt>
      <trkpt lat="49.07373" lon="0.11366">
        <ele>117.1</ele>
        <time>2023-10-15T08:15:59Z</time>
      </trkpt>
      <trkpt lat="49.07373" lon="0.11368">
        <ele>117.2</ele>
        <time>2023-10-15T08:16:00Z</time>
      </trkpt>
      <trkpt lat="49.07373" lon="0.11374">
        <ele>117.6</ele>
        <time>2023-10-15T08:16:01Z</time>
      </trkpt>
      <trkpt lat="49.07373" lon="0.11375">
        <ele>117.7</ele>
        <time>2023-10-15T08:16:02Z</time>
      </trkpt>
      <trkpt lat="49.07373" lon="0.11381">
        <ele>118</ele>
        <time>2023-10-15T08:16:03Z</time>
      </trkpt>
      <trkpt lat="49.07373" lon="0.11383">
        <ele>118.1</ele>
        <time>2023-10-15T08:16:04Z</time>
      </trkpt>
      <trkpt lat="49.07373" lon="0.11389">
        <ele>118.5</ele>
        <time>2023-10-15T08:16:05Z</time>
      </trkpt>
      <trkpt lat="49.07373" lon="0.11391">
        <ele>118.6</ele>
        <time>2023-10-15T08:16:06Z</time>
      </trkpt>
      <trkpt lat="49.07373" lon="0.11396">
        <ele>118.9</ele>
        <time>2023-10-15T08:16:07Z</time>
      </trkpt>
      <trkpt lat="49.07373" lon="0.11398">
        <ele>119</ele>
        <time>2023-10-15T08:16:08Z</time>
      </trkpt>
      <trkpt lat="49.07372" lon="0.11403">
        <ele>119.3</ele>
        <time>2023-10-15T08:16:09Z</time>
      </trkpt>
      <trkpt lat="49.07372" lon="0.11405">
        <ele>119.4</ele>
        <time>2023-10-15T08:16:10Z</time>
      </trkpt>
      <trkpt lat="49.07373" lon="0.1141">
        <ele>119.7</ele>
        <time>2023-10-15T08:16:11Z</time>
      </trkpt>
      <trkpt lat="49.07373" lon="0.11412">
        <ele>119.8</ele>
        <time>2023-10-15T08:16:12Z</time>
      </trkpt>
      <trkpt lat="49.07372" lon="0.11417">
        <ele>120.1</ele>
        <time>2023-10-15T08:16:13Z</time>
      </trkpt>
      <trkpt lat="49.07372" lon="0.11419">
        <ele>120.2</ele>
        <time>2023-10-15T08:16:14Z</time>
      </trkpt>
      <trkpt lat="49.07372" lon="0.11424">
        <ele>120.6</ele>
        <time>2023-10-15T08:16:15Z</time>
      </trkpt>
      <trkpt lat="49.07372" lon="0.11426">
        <ele>120.7</ele>
        <time>2023-10-15T08:16:16Z</time>
      </trkpt>
      <trkpt lat="49.07372" lon="0.11431">
        <ele>121</ele>
        <time>2023-10-15T08:16:17Z</time>
      </trkpt>
      <trkpt lat="49.07372" lon="0.11433">
        <ele>121.1</ele>
        <time>2023-10-15T08:16:18Z</time>
      </trkpt>
      <trkpt lat="49.07371" lon="0.1144">
        <ele>121.6</ele>
        <time>2023-10-15T08:16:20Z</time>
      </trkpt>
      <trkpt lat="49.07371" lon="0.11445">
        <ele>121.9</ele>
        <time>2023-10-15T08:16:21Z</time>
      </trkpt>
      <trkpt lat="49.07371" lon="0.11446">
        <ele>122</ele>
        <time>2023-10-15T08:16:22Z</time>
      </trkpt>
      <trkpt lat="49.07371" lon="0.11452">
        <ele>122.3</ele>
        <time>2023-10-15T08:16:23Z</time>
      </trkpt>
      <trkpt lat="49.07371" lon="0.11454">
        <ele>122.5</ele>
        <time>2023-10-15T08:16:24Z</time>
      </trkpt>
      <trkpt lat="49.07371" lon="0.11459">
        <ele>122.8</ele>
        <time>2023-10-15T08:16:25Z</time>
      </trkpt>
      <trkpt lat="49.07371" lon="0.11461">
        <ele>122.9</ele>
        <time>2023-10-15T08:16:26Z</time>
      </trkpt>
      <trkpt lat="49.07371" lon="0.11466">
        <ele>123.2</ele>
        <time>2023-10-15T08:16:27Z</time>
      </trkpt>
      <trkpt lat="49.07371" lon="0.11467">
        <ele>123.3</ele>
        <time>2023-10-15T08:16:28Z</time>
      </trkpt>
      <trkpt lat="49.07371" lon="0.11473">
        <ele>123.7</ele>
        <time>2023-10-15T08:16:29Z</time>
      </trkpt>
      <trkpt lat="49.07371" lon="0.11475">
        <ele>123.8</ele>
        <time>2023-10-15T08:16:30Z</time>
      </trkpt>
      <trkpt lat="49.0737" lon="0.1148">
        <ele>124.2</ele>
        <time>2023-10-15T08:16:31Z</time>
      </trkpt>
      <trkpt lat="49.0737" lon="0.11482">
        <ele>124.3</ele>
        <time>2023-10-15T08:16:32Z</time>
      </trkpt>
      <trkpt lat="49.0737" lon="0.11487">
        <ele>124.7</ele>
        <time>2023-10-15T08:16:33Z</time>
      </trkpt>
      <trkpt lat="49.0737" lon="0.11489">
        <ele>124.8</ele>
        <time>2023-10-15T08:16:34Z</time>
      </trkpt>
      <trkpt lat="49.0737" lon="0.11494">
        <ele>125.2</ele>
        <time>2023-10-15T08:16:35Z</time>
      </trkpt>
      <trkpt lat="49.0737" lon="0.11496">
        <ele>125.3</ele>
        <time>2023-10-15T08:16:36Z</time>
      </trkpt>
      <trkpt lat="49.0737" lon="0.11501">
        <ele>125.7</ele>
        <time>2023-10-15T08:16:37Z</time>
      </trkpt>
      <trkpt lat="49.0737" lon="0.11502">
        <ele>125.8</ele>
        <time>2023-10-15T08:16:38Z</time>
      </trkpt>
      <trkpt lat="49.0737" lon="0.11507">
        <ele>126.2</ele>
        <time>2023-10-15T08:16:39Z</time>
      </trkpt>
      <trkpt lat="49.0737" lon="0.11509">
        <ele>126.3</ele>
        <time>2023-10-15T08:16:40Z</time>
      </trkpt>
      <trkpt lat="49.0737" lon="0.11513">
        <ele>126.5</ele>
        <time>2023-10-15T08:16:41Z</time>
      </trkpt>
      <trkpt lat="49.07369" lon="0.1152">
        <ele>127</ele>
        <time>2023-10-15T08:16:43Z</time>
      </trkpt>
      <trkpt lat="49.07369" lon="0.11523">
        <ele>127.3</ele>
        <time>2023-10-15T08:16:44Z</time>
      </trkpt>
      <trkpt lat="49.07369" lon="0.11528">
        <ele>127.6</ele>
        <time>2023-10-15T08:16:45Z</time>
      </trkpt>
      <trkpt lat="49.07369" lon="0.1153">
        <ele>127.8</ele>
        <time>2023-10-15T08:16:46Z</time>
      </trkpt>
      <trkpt lat="49.07369" lon="0.11535">
        <ele>128.1</ele>
        <time>2023-10-15T08:16:47Z</time>
      </trkpt>
      <trkpt lat="49.07369" lon="0.11537">
        <ele>128.3</ele>
        <time>2023-10-15T08:16:48Z</time>
      </trkpt>
      <trkpt lat="49.07369" lon="0.11542">
        <ele>128.6</ele>
        <time>2023-10-15T08:16:49Z</time>
      </trkpt>
      <trkpt lat="49.07369" lon="0.11544">
        <ele>128.8</ele>
        <time>2023-10-15T08:16:50Z</time>
      </trkpt>
      <trkpt lat="49.07369" lon="0.1155">
        <ele>129.1</ele>
        <time>2023-10-15T08:16:51Z</time>
      </trkpt>
      <trkpt lat="49.07369" lon="0.11551">
        <ele>129.3</ele>
        <time>2023-10-15T08:16:52Z</time>
      </trkpt>
      <trkpt lat="49.07369" lon="0.11557">
        <ele>129.7</ele>
        <time>2023-10-15T08:16:53Z</time>
      </trkpt>
      <trkpt lat="49.07369" lon="0.11559">
        <ele>129.8</ele>
        <time>2023-10-15T08:16:54Z</time>
      </trkpt>
      <trkpt lat="49.0737" lon="0.11563">
        <ele>130.1</ele>
        <time>2023-10-15T08:16:55Z</time>
      </trkpt>
      <trkpt lat="49.0737" lon="0.11567">
        <ele>130.4</ele>
        <time>2023-10-15T08:16:56Z</time>
      </trkpt>
      <trkpt lat="49.0737" lon="0.11573">
        <ele>130.8</ele>
        <time>2023-10-15T08:16:57Z</time>
      </trkpt>
      <trkpt lat="49.0737" lon="0.11575">
        <ele>130.9</ele>
        <time>2023-10-15T08:16:58Z</time>
      </trkpt>
      <trkpt lat="49.07371" lon="0.11581">
        <ele>131.4</ele>
        <time>2023-10-15T08:16:59Z</time>
      </trkpt>
      <trkpt lat="49.07371" lon="0.11583">
        <ele>131.5</ele>
        <time>2023-10-15T08:17:00Z</time>
      </trkpt>
      <trkpt lat="49.07371" lon="0.11589">
        <ele>131.9</ele>
        <time>2023-10-15T08:17:01Z</time>
      </trkpt>
      <trkpt lat="49.07371" lon="0.11591">
        <ele>132</ele>
        <time>2023-10-15T08:17:02Z</time>
      </trkpt>
      <trkpt lat="49.07371" lon="0.11597">
        <ele>132.4</ele>
        <time>2023-10-15T08:17:03Z</time>
      </trkpt>
      <trkpt lat="49.07371" lon="0.11599">
        <ele>132.6</ele>
        <time>2023-10-15T08:17:04Z</time>
      </trkpt>
      <trkpt lat="49.0737" lon="0.11605">
        <ele>133</ele>
        <time>2023-10-15T08:17:05Z</time>
      </trkpt>
      <trkpt lat="49.0737" lon="0.11606">
        <ele>133.1</ele>
        <time>2023-10-15T08:17:06Z</time>
      </trkpt>
      <trkpt lat="49.0737" lon="0.11612">
        <ele>133.5</ele>
        <time>2023-10-15T08:17:07Z</time>
      </trkpt>
      <trkpt lat="49.0737" lon="0.11614">
        <ele>133.6</ele>
        <time>2023-10-15T08:17:08Z</time>
      </trkpt>
      <trkpt lat="49.0737" lon="0.11619">
        <ele>134</ele>
        <time>2023-10-15T08:17:09Z</time>
      </trkpt>
      <trkpt lat="49.0737" lon="0.11621">
        <ele>134.1</ele>
        <time>2023-10-15T08:17:10Z</time>
      </trkpt>
      <trkpt lat="49.0737" lon="0.11627">
        <ele>134.5</ele>
        <time>2023-10-15T08:17:11Z</time>
      </trkpt>
      <trkpt lat="49.0737" lon="0.11629">
        <ele>134.6</ele>
        <time>2023-10-15T08:17:12Z</time>
      </trkpt>
      <trkpt lat="49.0737" lon="0.11634">
        <ele>135</ele>
        <time>2023-10-15T08:17:13Z</time>
      </trkpt>
      <trkpt lat="49.0737" lon="0.11635">
        <ele>135.1</ele>
        <time>2023-10-15T08:17:14Z</time>
      </trkpt>
      <trkpt lat="49.0737" lon="0.11641">
        <ele>135.5</ele>
        <time>2023-10-15T08:17:15Z</time>
      </trkpt>
      <trkpt lat="49.0737" lon="0.11643">
        <ele>135.6</ele>
        <time>2023-10-15T08:17:16Z</time>
      </trkpt>
      <trkpt lat="49.0737" lon="0.11649">
        <ele>136</ele>
        <time>2023-10-15T08:17:17Z</time>
      </trkpt>
      <trkpt lat="49.0737" lon="0.11651">
        <ele>136.1</ele>
        <time>2023-10-15T08:17:18Z</time>
      </trkpt>
      <trkpt lat="49.0737" lon="0.11657">
        <ele>136.5</ele>
        <time>2023-10-15T08:17:19Z</time>
      </trkpt>
      <trkpt lat="49.0737" lon="0.11658">
        <ele>136.6</ele>
        <time>2023-10-15T08:17:20Z</time>
      </trkpt>
      <trkpt lat="49.0737" lon="0.11664">
        <ele>137.1</ele>
        <time>2023-10-15T08:17:21Z</time>
      </trkpt>
      <trkpt lat="49.0737" lon="0.11666">
        <ele>137.2</ele>
        <time>2023-10-15T08:17:22Z</time>
      </trkpt>
      <trkpt lat="49.07369" lon="0.11671">
        <ele>137.6</ele>
        <time>2023-10-15T08:17:23Z</time>
      </trkpt>
      <trkpt lat="49.07369" lon="0.11673">
        <ele>137.8</ele>
        <time>2023-10-15T08:17:24Z</time>
      </trkpt>
      <trkpt lat="49.0737" lon="0.11678">
        <ele>138.1</ele>
        <time>2023-10-15T08:17:25Z</time>
      </trkpt>
      <trkpt lat="49.07369" lon="0.11683">
        <ele>138.5</ele>
        <time>2023-10-15T08:17:26Z</time>
      </trkpt>
      <trkpt lat="49.07369" lon="0.11685">
        <ele>138.6</ele>
        <time>2023-10-15T08:17:27Z</time>
      </trkpt>
      <trkpt lat="49.07368" lon="0.1169">
        <ele>139</ele>
        <time>2023-10-15T08:17:28Z</time>
      </trkpt>
      <trkpt lat="49.07368" lon="0.11692">
        <ele>139.2</ele>
        <time>2023-10-15T08:17:29Z</time>
      </trkpt>
      <trkpt lat="49.07369" lon="0.11698">
        <ele>139.6</ele>
        <time>2023-10-15T08:17:30Z</time>
      </trkpt>
      <trkpt lat="49.07369" lon="0.117">
        <ele>139.8</ele>
        <time>2023-10-15T08:17:31Z</time>
      </trkpt>
      <trkpt lat="49.07369" lon="0.11705">
        <ele>140.1</ele>
        <time>2023-10-15T08:17:32Z</time>
      </trkpt>
      <trkpt lat="49.07369" lon="0.11706">
        <ele>140.2</ele>
        <time>2023-10-15T08:17:33Z</time>
      </trkpt>
      <trkpt lat="49.07369" lon="0.11711">
        <ele>140.6</ele>
        <time>2023-10-15T08:17:34Z</time>
      </trkpt>
      <trkpt lat="49.07369" lon="0.11713">
        <ele>140.7</ele>
        <time>2023-10-15T08:17:35Z</time>
      </trkpt>
      <trkpt lat="49.07369" lon="0.11718">
        <ele>141.1</ele>
        <time>2023-10-15T08:17:36Z</time>
      </trkpt>
      <trkpt lat="49.07369" lon="0.1172">
        <ele>141.2</ele>
        <time>2023-10-15T08:17:37Z</time>
      </trkpt>
      <trkpt lat="49.07369" lon="0.11726">
        <ele>141.6</ele>
        <time>2023-10-15T08:17:38Z</time>
      </trkpt>
      <trkpt lat="49.07369" lon="0.11728">
        <ele>141.7</ele>
        <time>2023-10-15T08:17:39Z</time>
      </trkpt>
      <trkpt lat="49.07369" lon="0.11734">
        <ele>142.1</ele>
        <time>2023-10-15T08:17:40Z</time>
      </trkpt>
      <trkpt lat="49.07369" lon="0.11736">
        <ele>142.2</ele>
        <time>2023-10-15T08:17:41Z</time>
      </trkpt>
      <trkpt lat="49.07369" lon="0.11741">
        <ele>142.6</ele>
        <time>2023-10-15T08:17:42Z</time>
      </trkpt>
      <trkpt lat="49.07369" lon="0.11743">
        <ele>142.7</ele>
        <time>2023-10-15T08:17:43Z</time>
      </trkpt>
      <trkpt lat="49.07369" lon="0.11749">
        <ele>143</ele>
        <time>2023-10-15T08:17:44Z</time>
      </trkpt>
      <trkpt lat="49.07369" lon="0.11751">
        <ele>143.1</ele>
        <time>2023-10-15T08:17:45Z</time>
      </trkpt>
      <trkpt lat="49.07369" lon="0.11755">
        <ele>143.4</ele>
        <time>2023-10-15T08:17:46Z</time>
      </trkpt>
      <trkpt lat="49.07369" lon="0.11759">
        <ele>143.6</ele>
        <time>2023-10-15T08:17:47Z</time>
      </trkpt>
      <trkpt lat="49.07369" lon="0.11765">
        <ele>144</ele>
        <time>2023-10-15T08:17:48Z</time>
      </trkpt>
      <trkpt lat="49.07369" lon="0.11768">
        <ele>144.1</ele>
        <time>2023-10-15T08:17:49Z</time>
      </trkpt>
      <trkpt lat="49.07369" lon="0.11773">
        <ele>144.4</ele>
        <time>2023-10-15T08:17:50Z</time>
      </trkpt>
      <trkpt lat="49.07369" lon="0.11775">
        <ele>144.5</ele>
        <time>2023-10-15T08:17:51Z</time>
      </trkpt>
      <trkpt lat="49.07368" lon="0.1178">
        <ele>144.7</ele>
        <time>2023-10-15T08:17:52Z</time>
      </trkpt>
      <trkpt lat="49.07368" lon="0.11784">
        <ele>145</ele>
        <time>2023-10-15T08:17:53Z</time>
      </trkpt>
      <trkpt lat="49.07368" lon="0.11789">
        <ele>145.2</ele>
        <time>2023-10-15T08:17:54Z</time>
      </trkpt>
      <trkpt lat="49.07368" lon="0.11791">
        <ele>145.3</ele>
        <time>2023-10-15T08:17:55Z</time>
      </trkpt>
      <trkpt lat="49.07368" lon="0.11796">
        <ele>145.6</ele>
        <time>2023-10-15T08:17:56Z</time>
      </trkpt>
      <trkpt lat="49.07368" lon="0.11798">
        <ele>145.7</ele>
        <time>2023-10-15T08:17:57Z</time>
      </trkpt>
      <trkpt lat="49.07368" lon="0.11803">
        <ele>145.9</ele>
        <time>2023-10-15T08:17:58Z</time>
      </trkpt>
      <trkpt lat="49.07368" lon="0.11807">
        <ele>146.1</ele>
        <time>2023-10-15T08:17:59Z</time>
      </trkpt>
      <trkpt lat="49.07368" lon="0.11811">
        <ele>146.3</ele>
        <time>2023-10-15T08:18:00Z</time>
      </trkpt>
      <trkpt lat="49.07368" lon="0.11816">
        <ele>146.5</ele>
        <time>2023-10-15T08:18:01Z</time>
      </trkpt>
      <trkpt lat="49.07368" lon="0.1182">
        <ele>146.7</ele>
        <time>2023-10-15T08:18:02Z</time>
      </trkpt>
      <trkpt lat="49.07368" lon="0.11825">
        <ele>146.9</ele>
        <time>2023-10-15T08:18:03Z</time>
      </trkpt>
      <trkpt lat="49.07368" lon="0.1183">
        <ele>147</ele>
        <time>2023-10-15T08:18:04Z</time>
      </trkpt>
      <trkpt lat="49.07368" lon="0.11835">
        <ele>147.2</ele>
        <time>2023-10-15T08:18:05Z</time>
      </trkpt>
      <trkpt lat="49.07368" lon="0.1184">
        <ele>147.3</ele>
        <time>2023-10-15T08:18:06Z</time>
      </trkpt>
      <trkpt lat="49.07368" lon="0.11845">
        <ele>147.5</ele>
        <time>2023-10-15T08:18:07Z</time>
      </trkpt>
      <trkpt lat="49.07368" lon="0.1185">
        <ele>147.6</ele>
        <time>2023-10-15T08:18:08Z</time>
      </trkpt>
      <trkpt lat="49.07368" lon="0.11854">
        <ele>147.8</ele>
        <time>2023-10-15T08:18:09Z</time>
      </trkpt>
      <trkpt lat="49.07368" lon="0.1186">
        <ele>147.9</ele>
        <time>2023-10-15T08:18:10Z</time>
      </trkpt>
      <trkpt lat="49.07368" lon="0.11865">
        <ele>148.1</ele>
        <time>2023-10-15T08:18:11Z</time>
      </trkpt>
      <trkpt lat="49.07368" lon="0.11869">
        <ele>148.2</ele>
        <time>2023-10-15T08:18:12Z</time>
      </trkpt>
      <trkpt lat="49.07369" lon="0.11874">
        <ele>148.3</ele>
        <time>2023-10-15T08:18:13Z</time>
      </trkpt>
      <trkpt lat="49.07369" lon="0.11879">
        <ele>148.4</ele>
        <time>2023-10-15T08:18:14Z</time>
      </trkpt>
      <trkpt lat="49.07369" lon="0.11885">
        <ele>148.6</ele>
        <time>2023-10-15T08:18:15Z</time>
      </trkpt>
      <trkpt lat="49.0737" lon="0.1189">
        <ele>148.7</ele>
        <time>2023-10-15T08:18:16Z</time>
      </trkpt>
      <trkpt lat="49.0737" lon="0.11895">
        <ele>148.8</ele>
        <time>2023-10-15T08:18:17Z</time>
      </trkpt>
      <trkpt lat="49.07371" lon="0.119">
        <ele>148.9</ele>
        <time>2023-10-15T08:18:18Z</time>
      </trkpt>
      <trkpt lat="49.07372" lon="0.11905">
        <ele>149</ele>
        <time>2023-10-15T08:18:19Z</time>
      </trkpt>
      <trkpt lat="49.07373" lon="0.1191">
        <ele>149</ele>
        <time>2023-10-15T08:18:20Z</time>
      </trkpt>
      <trkpt lat="49.07374" lon="0.11915">
        <ele>149.1</ele>
        <time>2023-10-15T08:18:21Z</time>
      </trkpt>
      <trkpt lat="49.07375" lon="0.1192">
        <ele>149.2</ele>
        <time>2023-10-15T08:18:22Z</time>
      </trkpt>
      <trkpt lat="49.07376" lon="0.11924">
        <ele>149.3</ele>
        <time>2023-10-15T08:18:23Z</time>
      </trkpt>
      <trkpt lat="49.07378" lon="0.11928">
        <ele>149.3</ele>
        <time>2023-10-15T08:18:24Z</time>
      </trkpt>
      <trkpt lat="49.07379" lon="0.11932">
        <ele>149.4</ele>
        <time>2023-10-15T08:18:25Z</time>
      </trkpt>
      <trkpt lat="49.0738" lon="0.11938">
        <ele>149.4</ele>
        <time>2023-10-15T08:18:26Z</time>
      </trkpt>
      <trkpt lat="49.07381" lon="0.1194">
        <ele>149.5</ele>
        <time>2023-10-15T08:18:27Z</time>
      </trkpt>
      <trkpt lat="49.07382" lon="0.11944">
        <ele>149.5</ele>
        <time>2023-10-15T08:18:28Z</time>
      </trkpt>
      <trkpt lat="49.07386" lon="0.11954">
        <ele>149.6</ele>
        <time>2023-10-15T08:18:30Z</time>
      </trkpt>
      <trkpt lat="49.07386" lon="0.11955">
        <ele>149.6</ele>
        <time>2023-10-15T08:18:31Z</time>
      </trkpt>
      <trkpt lat="49.07388" lon="0.11959">
        <ele>149.6</ele>
        <time>2023-10-15T08:18:32Z</time>
      </trkpt>
      <trkpt lat="49.0739" lon="0.11964">
        <ele>149.7</ele>
        <time>2023-10-15T08:18:33Z</time>
      </trkpt>
      <trkpt lat="49.0739" lon="0.11965">
        <ele>149.7</ele>
        <time>2023-10-15T08:18:34Z</time>
      </trkpt>
      <trkpt lat="49.07392" lon="0.1197">
        <ele>149.7</ele>
        <time>2023-10-15T08:18:35Z</time>
      </trkpt>
      <trkpt lat="49.07392" lon="0.11972">
        <ele>149.8</ele>
        <time>2023-10-15T08:18:36Z</time>
      </trkpt>
      <trkpt lat="49.07394" lon="0.11977">
        <ele>149.8</ele>
        <time>2023-10-15T08:18:37Z</time>
      </trkpt>
      <trkpt lat="49.07395" lon="0.11978">
        <ele>149.8</ele>
        <time>2023-10-15T08:18:38Z</time>
      </trkpt>
      <trkpt lat="49.07396" lon="0.11982">
        <ele>149.8</ele>
        <time>2023-10-15T08:18:39Z</time>
      </trkpt>
      <trkpt lat="49.07396" lon="0.11983">
        <ele>149.8</ele>
        <time>2023-10-15T08:18:40Z</time>
      </trkpt>
      <trkpt lat="49.07397" lon="0.11986">
        <ele>149.9</ele>
        <time>2023-10-15T08:18:41Z</time>
      </trkpt>
      <trkpt lat="49.07397" lon="0.11988">
        <ele>149.9</ele>
        <time>2023-10-15T08:18:42Z</time>
      </trkpt>
      <trkpt lat="49.07397" lon="0.1199">
        <ele>149.9</ele>
        <time>2023-10-15T08:18:43Z</time>
      </trkpt>
      <trkpt lat="49.07396" lon="0.11991">
        <ele>149.9</ele>
        <time>2023-10-15T08:18:44Z</time>
      </trkpt>
      <trkpt lat="49.07396" lon="0.11992">
        <ele>149.9</ele>
        <time>2023-10-15T08:18:45Z</time>
      </trkpt>
      <trkpt lat="49.07395" lon="0.11991">
        <ele>149.9</ele>
        <time>2023-10-15T08:18:46Z</time>
      </trkpt>
      <trkpt lat="49.07395" lon="0.11991">
        <ele>149.9</ele>
        <time>2023-10-15T08:18:47Z</time>
      </trkpt>
      <trkpt lat="49.07395" lon="0.11991">
        <ele>149.9</ele>
        <time>2023-10-15T08:18:48Z</time>
      </trkpt>
      <trkpt lat="49.07395" lon="0.11991">
        <ele>149.9</ele>
        <time>2023-10-15T08:18:49Z</time>
      </trkpt>
      <trkpt lat="49.07395" lon="0.11991">
        <ele>149.9</ele>
        <time>2023-10-15T08:18:50Z</time>
      </trkpt>
      <trkpt lat="49.07395" lon="0.11991">
        <ele>149.9</ele>
        <time>2023-10-15T08:18:51Z</time>
      </trkpt>
      <trkpt lat="49.07395" lon="0.11991">
        <ele>149.9</ele>
        <time>2023-10-15T08:18:52Z</time>
      </trkpt>
      <trkpt lat="49.07395" lon="0.11991">
        <ele>149.9</ele>
        <time>2023-10-15T08:18:53Z</time>
      </trkpt>
      <trkpt lat="49.07395" lon="0.11991">
        <ele>149.9</ele>
        <time>2023-10-15T08:18:54Z</time>
      </trkpt>
      <trkpt lat="49.07395" lon="0.11991">
        <ele>149.9</ele>
        <time>2023-10-15T08:18:55Z</time>
      </trkpt>
      <trkpt lat="49.07395" lon="0.11991">
        <ele>149.9</ele>
        <time>2023-10-15T08:18:56Z</time>
      </trkpt>
      <trkpt lat="49.07399" lon="0.11992">
        <ele>150</ele>
        <time>2023-10-15T08:25:39Z</time>
      </trkpt>
      <trkpt lat="49.074" lon="0.11994">
        <ele>150</ele>
        <time>2023-10-15T08:25:40Z</time>
      </trkpt>
      <trkpt lat="49.07401" lon="0.11996">
        <ele>150</ele>
        <time>2023-10-15T08:25:41Z</time>
      </trkpt>
      <trkpt lat="49.07402" lon="0.11998">
        <ele>150</ele>
        <time>2023-10-15T08:25:42Z</time>
      </trkpt>
      <trkpt lat="49.07403" lon="0.12001">
        <ele>150.1</ele>
        <time>2023-10-15T08:25:43Z</time>
      </trkpt>
      <trkpt lat="49.07404" lon="0.12002">
        <ele>150.1</ele>
        <time>2023-10-15T08:25:44Z</time>
      </trkpt>
      <trkpt lat="49.07405" lon="0.12004">
        <ele>150.1</ele>
        <time>2023-10-15T08:25:45Z</time>
      </trkpt>
      <trkpt lat="49.07405" lon="0.12007">
        <ele>150.1</ele>
        <time>2023-10-15T08:25:46Z</time>
      </trkpt>
      <trkpt lat="49.07406" lon="0.12009">
        <ele>150.1</ele>
        <time>2023-10-15T08:25:47Z</time>
      </trkpt>
      <trkpt lat="49.07408" lon="0.12014">
        <ele>150.2</ele>
        <time>2023-10-15T08:25:48Z</time>
      </trkpt>
      <trkpt lat="49.07409" lon="0.12016">
        <ele>150.2</ele>
        <time>2023-10-15T08:25:49Z</time>
      </trkpt>
      <trkpt lat="49.07412" lon="0.1202">
        <ele>150.3</ele>
        <time>2023-10-15T08:25:50Z</time>
      </trkpt>
      <trkpt lat="49.07414" lon="0.12026">
        <ele>150.3</ele>
        <time>2023-10-15T08:25:51Z</time>
      </trkpt>
      <trkpt lat="49.07416" lon="0.12031">
        <ele>150.4</ele>
        <time>2023-10-15T08:25:52Z</time>
      </trkpt>
      <trkpt lat="49.07418" lon="0.12035">
        <ele>150.5</ele>
        <time>2023-10-15T08:25:53Z</time>
      </trkpt>
      <trkpt lat="49.0742" lon="0.1204">
        <ele>150.5</ele>
        <time>2023-10-15T08:25:54Z</time>
      </trkpt>
      <trkpt lat="49.07423" lon="0.12045">
        <ele>150.6</ele>
        <time>2023-10-15T08:25:55Z</time>
      </trkpt>
      <trkpt lat="49.07425" lon="0.12049">
        <ele>150.7</ele>
        <time>2023-10-15T08:25:56Z</time>
      </trkpt>
      <trkpt lat="49.07427" lon="0.12054">
        <ele>150.7</ele>
        <time>2023-10-15T08:25:57Z</time>
      </trkpt>
      <trkpt lat="49.07429" lon="0.12059">
        <ele>150.8</ele>
        <time>2023-10-15T08:25:58Z</time>
      </trkpt>
      <trkpt lat="49.07431" lon="0.12064">
        <ele>150.8</ele>
        <time>2023-10-15T08:25:59Z</time>
      </trkpt>
      <trkpt lat="49.07433" lon="0.12069">
        <ele>150.9</ele>
        <time>2023-10-15T08:26:00Z</time>
      </trkpt>
      <trkpt lat="49.07435" lon="0.12074">
        <ele>150.9</ele>
        <time>2023-10-15T08:26:01Z</time>
      </trkpt>
      <trkpt lat="49.07437" lon="0.12079">
        <ele>151</ele>
        <time>2023-10-15T08:26:02Z</time>
      </trkpt>
      <trkpt lat="49.07439" lon="0.12083">
        <ele>151</ele>
        <time>2023-10-15T08:26:03Z</time>
      </trkpt>
      <trkpt lat="49.0744" lon="0.12088">
        <ele>151.1</ele>
        <time>2023-10-15T08:26:04Z</time>
      </trkpt>
      <trkpt lat="49.07441" lon="0.12092">
        <ele>151.1</ele>
        <time>2023-10-15T08:26:05Z</time>
      </trkpt>
      <trkpt lat="49.07443" lon="0.12097">
        <ele>151.2</ele>
        <time>2023-10-15T08:26:06Z</time>
      </trkpt>
      <trkpt lat="49.07445" lon="0.12102">
        <ele>151.2</ele>
        <time>2023-10-15T08:26:07Z</time>
      </trkpt>
      <trkpt lat="49.07447" lon="0.12107">
        <ele>151.3</ele>
        <time>2023-10-15T08:26:08Z</time>
      </trkpt>
      <trkpt lat="49.07449" lon="0.12113">
        <ele>151.4</ele>
        <time>2023-10-15T08:26:09Z</time>
      </trkpt>
      <trkpt lat="49.07451" lon="0.12118">
        <ele>151.4</ele>
        <time>2023-10-15T08:26:10Z</time>
      </trkpt>
      <trkpt lat="49.07453" lon="0.12123">
        <ele>151.5</ele>
        <time>2023-10-15T08:26:11Z</time>
      </trkpt>
      <trkpt lat="49.07455" lon="0.12129">
        <ele>151.6</ele>
        <time>2023-10-15T08:26:12Z</time>
      </trkpt>
      <trkpt lat="49.07458" lon="0.12134">
        <ele>151.7</ele>
        <time>2023-10-15T08:26:13Z</time>
      </trkpt>
      <trkpt lat="49.0746" lon="0.1214">
        <ele>151.8</ele>
        <time>2023-10-15T08:26:14Z</time>
      </trkpt>
      <trkpt lat="49.07462" lon="0.12146">
        <ele>151.8</ele>
        <time>2023-10-15T08:26:15Z</time>
      </trkpt>
      <trkpt lat="49.07465" lon="0.12152">
        <ele>151.9</ele>
        <time>2023-10-15T08:26:16Z</time>
      </trkpt>
      <trkpt lat="49.07467" lon="0.12158">
        <ele>152</ele>
        <time>2023-10-15T08:26:17Z</time>
      </trkpt>
      <trkpt lat="49.07469" lon="0.12163">
        <ele>152</ele>
        <time>2023-10-15T08:26:18Z</time>
      </trkpt>
      <trkpt lat="49.07472" lon="0.12169">
        <ele>152</ele>
        <time>2023-10-15T08:26:19Z</time>
      </trkpt>
      <trkpt lat="49.07477" lon="0.12181">
        <ele>152.1</ele>
        <time>2023-10-15T08:26:21Z</time>
      </trkpt>
      <trkpt lat="49.0748" lon="0.12187">
        <ele>152.1</ele>
        <time>2023-10-15T08:26:22Z</time>
      </trkpt>
      <trkpt lat="49.07482" lon="0.12193">
        <ele>152.2</ele>
        <time>2023-10-15T08:26:23Z</time>
      </trkpt>
      <trkpt lat="49.07485" lon="0.12199">
        <ele>152.3</ele>
        <time>2023-10-15T08:26:24Z</time>
      </trkpt>
      <trkpt lat="49.07487" lon="0.12205">
        <ele>152.3</ele>
        <time>2023-10-15T08:26:25Z</time>
      </trkpt>
      <trkpt lat="49.0749" lon="0.12212">
        <ele>152.4</ele>
        <time>2023-10-15T08:26:26Z</time>
      </trkpt>
      <trkpt lat="49.07492" lon="0.12218">
        <ele>152.4</ele>
        <time>2023-10-15T08:26:27Z</time>
      </trkpt>
      <trkpt lat="49.07495" lon="0.12225">
        <ele>152.5</ele>
        <time>2023-10-15T08:26:28Z</time>
      </trkpt>
      <trkpt lat="49.07497" lon="0.12232">
        <ele>152.5</ele>
        <time>2023-10-15T08:26:29Z</time>
      </trkpt>
      <trkpt lat="49.075" lon="0.1224">
        <ele>152.6</ele>
        <time>2023-10-15T08:26:30Z</time>
      </trkpt>
      <trkpt lat="49.07502" lon="0.12247">
        <ele>152.6</ele>
        <time>2023-10-15T08:26:31Z</time>
      </trkpt>
      <trkpt lat="49.07505" lon="0.12253">
        <ele>152.7</ele>
        <time>2023-10-15T08:26:32Z</time>
      </trkpt>
      <trkpt lat="49.07508" lon="0.1226">
        <ele>152.8</ele>
        <time>2023-10-15T08:26:33Z</time>
      </trkpt>
      <trkpt lat="49.0751" lon="0.12267">
        <ele>152.9</ele>
        <time>2023-10-15T08:26:34Z</time>
      </trkpt>
      <trkpt lat="49.07513" lon="0.12273">
        <ele>152.9</ele>
        <time>2023-10-15T08:26:35Z</time>
      </trkpt>
      <trkpt lat="49.07516" lon="0.1228">
        <ele>153</ele>
        <time>2023-10-15T08:26:36Z</time>
      </trkpt>
      <trkpt lat="49.07519" lon="0.12287">
        <ele>153</ele>
        <time>2023-10-15T08:26:37Z</time>
      </trkpt>
      <trkpt lat="49.07522" lon="0.12294">
        <ele>153.1</ele>
        <time>2023-10-15T08:26:38Z</time>
      </trkpt>
      <trkpt lat="49.07524" lon="0.12301">
        <ele>153.2</ele>
        <time>2023-10-15T08:26:39Z</time>
      </trkpt>
      <trkpt lat="49.07527" lon="0.12307">
        <ele>153.2</ele>
        <time>2023-10-15T08:26:40Z</time>
      </trkpt>
      <trkpt lat="49.0753" lon="0.12313">
        <ele>153.3</ele>
        <time>2023-10-15T08:26:41Z</time>
      </trkpt>
      <trkpt lat="49.07533" lon="0.1232">
        <ele>153.4</ele>
        <time>2023-10-15T08:26:42Z</time>
      </trkpt>
      <trkpt lat="49.07536" lon="0.12328">
        <ele>153.5</ele>
        <time>2023-10-15T08:26:43Z</time>
      </trkpt>
      <trkpt lat="49.07538" lon="0.12335">
        <ele>153.5</ele>
        <time>2023-10-15T08:26:44Z</time>
      </trkpt>
      <trkpt lat="49.07541" lon="0.12343">
        <ele>153.6</ele>
        <time>2023-10-15T08:26:45Z</time>
      </trkpt>
      <trkpt lat="49.07544" lon="0.1235">
        <ele>153.6</ele>
        <time>2023-10-15T08:26:46Z</time>
      </trkpt>
      <trkpt lat="49.07547" lon="0.12357">
        <ele>153.7</ele>
        <time>2023-10-15T08:26:47Z</time>
      </trkpt>
      <trkpt lat="49.0755" lon="0.12364">
        <ele>153.7</ele>
        <time>2023-10-15T08:26:48Z</time>
      </trkpt>
      <trkpt lat="49.07553" lon="0.12372">
        <ele>153.7</ele>
        <time>2023-10-15T08:26:49Z</time>
      </trkpt>
      <trkpt lat="49.07556" lon="0.1238">
        <ele>153.7</ele>
        <time>2023-10-15T08:26:50Z</time>
      </trkpt>
      <trkpt lat="49.07559" lon="0.12388">
        <ele>153.8</ele>
        <time>2023-10-15T08:26:51Z</time>
      </trkpt>
      <trkpt lat="49.07562" lon="0.12396">
        <ele>153.8</ele>
        <time>2023-10-15T08:26:52Z</time>
      </trkpt>
      <trkpt lat="49.07565" lon="0.12403">
        <ele>153.8</ele>
        <time>2023-10-15T08:26:53Z</time>
      </trkpt>
      <trkpt lat="49.07568" lon="0.12411">
        <ele>153.9</ele>
        <time>2023-10-15T08:26:54Z</time>
      </trkpt>
      <trkpt lat="49.07571" lon="0.12419">
        <ele>154</ele>
        <time>2023-10-15T08:26:55Z</time>
      </trkpt>
      <trkpt lat="49.07575" lon="0.12428">
        <ele>154</ele>
        <time>2023-10-15T08:26:56Z</time>
      </trkpt>
      <trkpt lat="49.07578" lon="0.12436">
        <ele>154.1</ele>
        <time>2023-10-15T08:26:57Z</time>
      </trkpt>
      <trkpt lat="49.07582" lon="0.12444">
        <ele>154.2</ele>
        <time>2023-10-15T08:26:58Z</time>
      </trkpt>
      <trkpt lat="49.07585" lon="0.12452">
        <ele>154.2</ele>
        <time>2023-10-15T08:26:59Z</time>
      </trkpt>
      <trkpt lat="49.07588" lon="0.1246">
        <ele>154.2</ele>
        <time>2023-10-15T08:27:00Z</time>
      </trkpt>
      <trkpt lat="49.07592" lon="0.12468">
        <ele>154.3</ele>
        <time>2023-10-15T08:27:01Z</time>
      </trkpt>
      <trkpt lat="49.07595" lon="0.12477">
        <ele>154.3</ele>
        <time>2023-10-15T08:27:02Z</time>
      </trkpt>
      <trkpt lat="49.07599" lon="0.12485">
        <ele>154.4</ele>
        <time>2023-10-15T08:27:03Z</time>
      </trkpt>
      <trkpt lat="49.07603" lon="0.12493">
        <ele>154.4</ele>
        <time>2023-10-15T08:27:04Z</time>
      </trkpt>
      <trkpt lat="49.07606" lon="0.12501">
        <ele>154.5</ele>
        <time>2023-10-15T08:27:05Z</time>
      </trkpt>
      <trkpt lat="49.07609" lon="0.12509">
        <ele>154.5</ele>
        <time>2023-10-15T08:27:06Z</time>
      </trkpt>
      <trkpt lat="49.07612" lon="0.12518">
        <ele>154.5</ele>
        <time>2023-10-15T08:27:07Z</time>
      </trkpt>
      <trkpt lat="49.07615" lon="0.12527">
        <ele>154.6</ele>
        <time>2023-10-15T08:27:08Z</time>
      </trkpt>
      <trkpt lat="49.07619" lon="0.12535">
        <ele>154.6</ele>
        <time>2023-10-15T08:27:09Z</time>
      </trkpt>
      <trkpt lat="49.07622" lon="0.12543">
        <ele>154.6</ele>
        <time>2023-10-15T08:27:10Z</time>
      </trkpt>
      <trkpt lat="49.07625" lon="0.12552">
        <ele>154.6</ele>
        <time>2023-10-15T08:27:11Z</time>
      </trkpt>
      <trkpt lat="49.07629" lon="0.1256">
        <ele>154.7</ele>
        <time>2023-10-15T08:27:12Z</time>
      </trkpt>
      <trkpt lat="49.07633" lon="0.12568">
        <ele>154.7</ele>
        <time>2023-10-15T08:27:13Z</time>
      </trkpt>
      <trkpt lat="49.07636" lon="0.12577">
        <ele>154.7</ele>
        <time>2023-10-15T08:27:14Z</time>
      </trkpt>
      <trkpt lat="49.0764" lon="0.12586">
        <ele>154.7</ele>
        <time>2023-10-15T08:27:15Z</time>
      </trkpt>
      <trkpt lat="49.07643" lon="0.12595">
        <ele>154.8</ele>
        <time>2023-10-15T08:27:16Z</time>
      </trkpt>
      <trkpt lat="49.07646" lon="0.12604">
        <ele>154.8</ele>
        <time>2023-10-15T08:27:17Z</time>
      </trkpt>
      <trkpt lat="49.0765" lon="0.12613">
        <ele>154.8</ele>
        <time>2023-10-15T08:27:18Z</time>
      </trkpt>
      <trkpt lat="49.07654" lon="0.12622">
        <ele>154.9</ele>
        <time>2023-10-15T08:27:19Z</time>
      </trkpt>
      <trkpt lat="49.07657" lon="0.12632">
        <ele>154.9</ele>
        <time>2023-10-15T08:27:20Z</time>
      </trkpt>
      <trkpt lat="49.07661" lon="0.12641">
        <ele>154.9</ele>
        <time>2023-10-15T08:27:21Z</time>
      </trkpt>
      <trkpt lat="49.07666" lon="0.12651">
        <ele>155</ele>
        <time>2023-10-15T08:27:22Z</time>
      </trkpt>
      <trkpt lat="49.0767" lon="0.1266">
        <ele>155</ele>
        <time>2023-10-15T08:27:23Z</time>
      </trkpt>
      <trkpt lat="49.07674" lon="0.12669">
        <ele>155</ele>
        <time>2023-10-15T08:27:24Z</time>
      </trkpt>
      <trkpt lat="49.07678" lon="0.12679">
        <ele>155</ele>
        <time>2023-10-15T08:27:25Z</time>
      </trkpt>
      <trkpt lat="49.07681" lon="0.12689">
        <ele>155</ele>
        <time>2023-10-15T08:27:26Z</time>
      </trkpt>
      <trkpt lat="49.07686" lon="0.127">
        <ele>155</ele>
        <time>2023-10-15T08:27:27Z</time>
      </trkpt>
      <trkpt lat="49.0769" lon="0.1271">
        <ele>155</ele>
        <time>2023-10-15T08:27:28Z</time>
      </trkpt>
      <trkpt lat="49.07694" lon="0.12721">
        <ele>155</ele>
        <time>2023-10-15T08:27:29Z</time>
      </trkpt>
      <trkpt lat="49.07698" lon="0.12732">
        <ele>155</ele>
        <time>2023-10-15T08:27:30Z</time>
      </trkpt>
      <trkpt lat="49.07702" lon="0.12743">
        <ele>155</ele>
        <time>2023-10-15T08:27:31Z</time>
      </trkpt>
      <trkpt lat="49.07706" lon="0.12754">
        <ele>155</ele>
        <time>2023-10-15T08:27:32Z</time>
      </trkpt>
      <trkpt lat="49.0771" lon="0.12765">
        <ele>155</ele>
        <time>2023-10-15T08:27:33Z</time>
      </trkpt>
      <trkpt lat="49.07714" lon="0.12775">
        <ele>155</ele>
        <time>2023-10-15T08:27:34Z</time>
      </trkpt>
      <trkpt lat="49.07719" lon="0.12785">
        <ele>155.1</ele>
        <time>2023-10-15T08:27:35Z</time>
      </trkpt>
      <trkpt lat="49.07723" lon="0.12794">
        <ele>155.1</ele>
        <time>2023-10-15T08:27:36Z</time>
      </trkpt>
      <trkpt lat="49.07726" lon="0.12804">
        <ele>155.1</ele>
        <time>2023-10-15T08:27:37Z</time>
      </trkpt>
      <trkpt lat="49.0773" lon="0.12813">
        <ele>155</ele>
        <time>2023-10-15T08:27:38Z</time>
      </trkpt>
      <trkpt lat="49.07733" lon="0.12822">
        <ele>155</ele>
        <time>2023-10-15T08:27:39Z</time>
      </trkpt>
      <trkpt lat="49.07737" lon="0.12832">
        <ele>155</ele>
        <time>2023-10-15T08:27:40Z</time>
      </trkpt>
      <trkpt lat="49.07741" lon="0.12842">
        <ele>155</ele>
        <time>2023-10-15T08:27:41Z</time>
      </trkpt>
      <trkpt lat="49.07745" lon="0.12852">
        <ele>155</ele>
        <time>2023-10-15T08:27:42Z</time>
      </trkpt>
      <trkpt lat="49.07749" lon="0.12862">
        <ele>155</ele>
        <time>2023-10-15T08:27:43Z</time>
      </trkpt>
      <trkpt lat="49.07753" lon="0.12873">
        <ele>155</ele>
        <time>2023-10-15T08:27:44Z</time>
      </trkpt>
      <trkpt lat="49.07757" lon="0.12883">
        <ele>155</ele>
        <time>2023-10-15T08:27:45Z</time>
      </trkpt>
      <trkpt lat="49.07762" lon="0.12894">
        <ele>155.1</ele>
        <time>2023-10-15T08:27:46Z</time>
      </trkpt>
      <trkpt lat="49.07766" lon="0.12905">
        <ele>155.1</ele>
        <time>2023-10-15T08:27:47Z</time>
      </trkpt>
      <trkpt lat="49.07771" lon="0.12916">
        <ele>155.1</ele>
        <time>2023-10-15T08:27:48Z</time>
      </trkpt>
      <trkpt lat="49.07775" lon="0.12928">
        <ele>155.1</ele>
        <time>2023-10-15T08:27:49Z</time>
      </trkpt>
      <trkpt lat="49.07779" lon="0.12939">
        <ele>155.1</ele>
        <time>2023-10-15T08:27:50Z</time>
      </trkpt>
      <trkpt lat="49.07788" lon="0.12962">
        <ele>155.1</ele>
        <time>2023-10-15T08:27:52Z</time>
      </trkpt>
      <trkpt lat="49.07792" lon="0.12973">
        <ele>155</ele>
        <time>2023-10-15T08:27:53Z</time>
      </trkpt>
      <trkpt lat="49.07797" lon="0.12985">
        <ele>154.9</ele>
        <time>2023-10-15T08:27:54Z</time>
      </trkpt>
      <trkpt lat="49.07801" lon="0.12996">
        <ele>154.8</ele>
        <time>2023-10-15T08:27:55Z</time>
      </trkpt>
      <trkpt lat="49.07806" lon="0.13007">
        <ele>154.8</ele>
        <time>2023-10-15T08:27:56Z</time>
      </trkpt>
      <trkpt lat="49.07811" lon="0.13018">
        <ele>154.7</ele>
        <time>2023-10-15T08:27:57Z</time>
      </trkpt>
      <trkpt lat="49.07816" lon="0.13029">
        <ele>154.6</ele>
        <time>2023-10-15T08:27:58Z</time>
      </trkpt>
      <trkpt lat="49.07822" lon="0.13039">
        <ele>154.6</ele>
        <time>2023-10-15T08:27:59Z</time>
      </trkpt>
      <trkpt lat="49.07828" lon="0.13049">
        <ele>154.6</ele>
        <time>2023-10-15T08:28:00Z</time>
      </trkpt>
      <trkpt lat="49.07835" lon="0.13059">
        <ele>154.6</ele>
        <time>2023-10-15T08:28:01Z</time>
      </trkpt>
      <trkpt lat="49.07841" lon="0.13067">
        <ele>154.7</ele>
        <time>2023-10-15T08:28:02Z</time>
      </trkpt>
      <trkpt lat="49.07848" lon="0.13075">
        <ele>154.7</ele>
        <time>2023-10-15T08:28:03Z</time>
      </trkpt>
      <trkpt lat="49.07855" lon="0.13082">
        <ele>154.7</ele>
        <time>2023-10-15T08:28:04Z</time>
      </trkpt>
      <trkpt lat="49.07862" lon="0.13089">
        <ele>154.8</ele>
        <time>2023-10-15T08:28:05Z</time>
      </trkpt>
      <trkpt lat="49.07868" lon="0.13096">
        <ele>154.8</ele>
        <time>2023-10-15T08:28:06Z</time>
      </trkpt>
      <trkpt lat="49.07875" lon="0.13103">
        <ele>154.9</ele>
        <time>2023-10-15T08:28:07Z</time>
      </trkpt>
      <trkpt lat="49.07881" lon="0.1311">
        <ele>155</ele>
        <time>2023-10-15T08:28:08Z</time>
      </trkpt>
      <trkpt lat="49.07886" lon="0.13117">
        <ele>155</ele>
        <time>2023-10-15T08:28:09Z</time>
      </trkpt>
      <trkpt lat="49.07893" lon="0.13124">
        <ele>155</ele>
        <time>2023-10-15T08:28:10Z</time>
      </trkpt>
      <trkpt lat="49.07899" lon="0.13131">
        <ele>155.1</ele>
        <time>2023-10-15T08:28:11Z</time>
      </trkpt>
      <trkpt lat="49.07905" lon="0.13139">
        <ele>155.1</ele>
        <time>2023-10-15T08:28:12Z</time>
      </trkpt>
      <trkpt lat="49.07912" lon="0.13146">
        <ele>155.1</ele>
        <time>2023-10-15T08:28:13Z</time>
      </trkpt>
      <trkpt lat="49.07918" lon="0.13154">
        <ele>155.2</ele>
        <time>2023-10-15T08:28:14Z</time>
      </trkpt>
      <trkpt lat="49.07925" lon="0.13161">
        <ele>155.3</ele>
        <time>2023-10-15T08:28:15Z</time>
      </trkpt>
      <trkpt lat="49.07931" lon="0.13169">
        <ele>155.4</ele>
        <time>2023-10-15T08:28:16Z</time>
      </trkpt>
      <trkpt lat="49.07937" lon="0.13177">
        <ele>155.5</ele>
        <time>2023-10-15T08:28:17Z</time>
      </trkpt>
      <trkpt lat="49.07943" lon="0.13184">
        <ele>155.5</ele>
        <time>2023-10-15T08:28:18Z</time>
      </trkpt>
      <trkpt lat="49.07949" lon="0.13192">
        <ele>155.6</ele>
        <time>2023-10-15T08:28:19Z</time>
      </trkpt>
      <trkpt lat="49.07955" lon="0.132">
        <ele>155.6</ele>
        <time>2023-10-15T08:28:20Z</time>
      </trkpt>
      <trkpt lat="49.07961" lon="0.13207">
        <ele>155.6</ele>
        <time>2023-10-15T08:28:21Z</time>
      </trkpt>
      <trkpt lat="49.07967" lon="0.13214">
        <ele>155.7</ele>
        <time>2023-10-15T08:28:22Z</time>
      </trkpt>
      <trkpt lat="49.07974" lon="0.13222">
        <ele>155.7</ele>
        <time>2023-10-15T08:28:23Z</time>
      </trkpt>
      <trkpt lat="49.0798" lon="0.13229">
        <ele>155.7</ele>
        <time>2023-10-15T08:28:24Z</time>
      </trkpt>
      <trkpt lat="49.07987" lon="0.13236">
        <ele>155.8</ele>
        <time>2023-10-15T08:28:25Z</time>
      </trkpt>
      <trkpt lat="49.07993" lon="0.13244">
        <ele>155.9</ele>
        <time>2023-10-15T08:28:26Z</time>
      </trkpt>
      <trkpt lat="49.08" lon="0.13251">
        <ele>155.9</ele>
        <time>2023-10-15T08:28:27Z</time>
      </trkpt>
      <trkpt lat="49.08006" lon="0.13257">
        <ele>156</ele>
        <time>2023-10-15T08:28:28Z</time>
      </trkpt>
      <trkpt lat="49.08012" lon="0.13264">
        <ele>156</ele>
        <time>2023-10-15T08:28:29Z</time>
      </trkpt>
      <trkpt lat="49.08018" lon="0.13271">
        <ele>156.1</ele>
        <time>2023-10-15T08:28:30Z</time>
      </trkpt>
      <trkpt lat="49.08024" lon="0.13278">
        <ele>156.2</ele>
        <time>2023-10-15T08:28:31Z</time>
      </trkpt>
      <trkpt lat="49.0803" lon="0.13285">
        <ele>156.3</ele>
        <time>2023-10-15T08:28:32Z</time>
      </trkpt>
      <trkpt lat="49.08036" lon="0.13292">
        <ele>156.4</ele>
        <time>2023-10-15T08:28:33Z</time>
      </trkpt>
      <trkpt lat="49.08042" lon="0.13299">
        <ele>156.5</ele>
        <time>2023-10-15T08:28:34Z</time>
      </trkpt>
      <trkpt lat="49.08048" lon="0.13306">
        <ele>156.5</ele>
        <time>2023-10-15T08:28:35Z</time>
      </trkpt>
      <trkpt lat="49.08054" lon="0.13313">
        <ele>156.6</ele>
        <time>2023-10-15T08:28:36Z</time>
      </trkpt>
      <trkpt lat="49.08059" lon="0.1332">
        <ele>156.7</ele>
        <time>2023-10-15T08:28:37Z</time>
      </trkpt>
      <trkpt lat="49.08065" lon="0.13327">
        <ele>156.8</ele>
        <time>2023-10-15T08:28:38Z</time>
      </trkpt>
      <trkpt lat="49.08071" lon="0.13335">
        <ele>156.9</ele>
        <time>2023-10-15T08:28:39Z</time>
      </trkpt>
      <trkpt lat="49.08077" lon="0.13342">
        <ele>156.9</ele>
        <time>2023-10-15T08:28:40Z</time>
      </trkpt>
      <trkpt lat="49.08082" lon="0.13349">
        <ele>156.9</ele>
        <time>2023-10-15T08:28:41Z</time>
      </trkpt>
      <trkpt lat="49.08089" lon="0.13356">
        <ele>157</ele>
        <time>2023-10-15T08:28:42Z</time>
      </trkpt>
      <trkpt lat="49.08095" lon="0.13363">
        <ele>157</ele>
        <time>2023-10-15T08:28:43Z</time>
      </trkpt>
      <trkpt lat="49.08101" lon="0.1337">
        <ele>157</ele>
        <time>2023-10-15T08:28:44Z</time>
      </trkpt>
      <trkpt lat="49.08106" lon="0.13378">
        <ele>157</ele>
        <time>2023-10-15T08:28:45Z</time>
      </trkpt>
      <trkpt lat="49.08112" lon="0.13386">
        <ele>157</ele>
        <time>2023-10-15T08:28:46Z</time>
      </trkpt>
      <trkpt lat="49.08117" lon="0.13394">
        <ele>156.9</ele>
        <time>2023-10-15T08:28:47Z</time>
      </trkpt>
      <trkpt lat="49.08123" lon="0.13403">
        <ele>156.9</ele>
        <time>2023-10-15T08:28:48Z</time>
      </trkpt>
      <trkpt lat="49.08128" lon="0.13413">
        <ele>156.8</ele>
        <time>2023-10-15T08:28:49Z</time>
      </trkpt>
      <trkpt lat="49.08132" lon="0.13423">
        <ele>156.7</ele>
        <time>2023-10-15T08:28:50Z</time>
      </trkpt>
      <trkpt lat="49.08136" lon="0.13433">
        <ele>156.5</ele>
        <time>2023-10-15T08:28:51Z</time>
      </trkpt>
      <trkpt lat="49.08139" lon="0.13444">
        <ele>156.4</ele>
        <time>2023-10-15T08:28:52Z</time>
      </trkpt>
      <trkpt lat="49.08143" lon="0.13454">
        <ele>156.2</ele>
        <time>2023-10-15T08:28:53Z</time>
      </trkpt>
      <trkpt lat="49.08146" lon="0.13466">
        <ele>156.1</ele>
        <time>2023-10-15T08:28:54Z</time>
      </trkpt>
      <trkpt lat="49.08149" lon="0.13478">
        <ele>155.9</ele>
        <time>2023-10-15T08:28:55Z</time>
      </trkpt>
      <trkpt lat="49.08151" lon="0.13491">
        <ele>155.8</ele>
        <time>2023-10-15T08:28:56Z</time>
      </trkpt>
      <trkpt lat="49.08153" lon="0.13504">
        <ele>155.6</ele>
        <time>2023-10-15T08:28:57Z</time>
      </trkpt>
      <trkpt lat="49.08156" lon="0.13516">
        <ele>155.4</ele>
        <time>2023-10-15T08:28:58Z</time>
      </trkpt>
      <trkpt lat="49.08159" lon="0.13528">
        <ele>155.3</ele>
        <time>2023-10-15T08:28:59Z</time>
      </trkpt>
      <trkpt lat="49.08162" lon="0.1354">
        <ele>155.1</ele>
        <time>2023-10-15T08:29:00Z</time>
      </trkpt>
      <trkpt lat="49.08165" lon="0.13552">
        <ele>154.9</ele>
        <time>2023-10-15T08:29:01Z</time>
      </trkpt>
      <trkpt lat="49.08168" lon="0.13563">
        <ele>154.7</ele>
        <time>2023-10-15T08:29:02Z</time>
      </trkpt>
      <trkpt lat="49.08171" lon="0.13575">
        <ele>154.5</ele>
        <time>2023-10-15T08:29:03Z</time>
      </trkpt>
      <trkpt lat="49.08174" lon="0.13588">
        <ele>154.3</ele>
        <time>2023-10-15T08:29:04Z</time>
      </trkpt>
      <trkpt lat="49.08177" lon="0.136">
        <ele>154.2</ele>
        <time>2023-10-15T08:29:05Z</time>
      </trkpt>
      <trkpt lat="49.08179" lon="0.13614">
        <ele>154.1</ele>
        <time>2023-10-15T08:29:06Z</time>
      </trkpt>
      <trkpt lat="49.08183" lon="0.13627">
        <ele>154</ele>
        <time>2023-10-15T08:29:07Z</time>
      </trkpt>
      <trkpt lat="49.08186" lon="0.1364">
        <ele>154</ele>
        <time>2023-10-15T08:29:08Z</time>
      </trkpt>
      <trkpt lat="49.08189" lon="0.13652">
        <ele>154</ele>
        <time>2023-10-15T08:29:09Z</time>
      </trkpt>
      <trkpt lat="49.08193" lon="0.13664">
        <ele>154.1</ele>
        <time>2023-10-15T08:29:10Z</time>
      </trkpt>
      <trkpt lat="49.08196" lon="0.13676">
        <ele>154.1</ele>
        <time>2023-10-15T08:29:11Z</time>
      </trkpt>
      <trkpt lat="49.082" lon="0.13688">
        <ele>154.1</ele>
        <time>2023-10-15T08:29:12Z</time>
      </trkpt>
      <trkpt lat="49.08204" lon="0.13699">
        <ele>154.2</ele>
        <time>2023-10-15T08:29:13Z</time>
      </trkpt>
      <trkpt lat="49.08207" lon="0.1371">
        <ele>154.3</ele>
        <time>2023-10-15T08:29:14Z</time>
      </trkpt>
      <trkpt lat="49.08212" lon="0.13721">
        <ele>154.3</ele>
        <time>2023-10-15T08:29:15Z</time>
      </trkpt>
      <trkpt lat="49.08216" lon="0.13732">
        <ele>154.3</ele>
        <time>2023-10-15T08:29:16Z</time>
      </trkpt>
      <trkpt lat="49.0822" lon="0.13742">
        <ele>154.4</ele>
        <time>2023-10-15T08:29:17Z</time>
      </trkpt>
      <trkpt lat="49.08224" lon="0.13752">
        <ele>154.4</ele>
        <time>2023-10-15T08:29:18Z</time>
      </trkpt>
      <trkpt lat="49.08228" lon="0.13762">
        <ele>154.4</ele>
        <time>2023-10-15T08:29:19Z</time>
      </trkpt>
      <trkpt lat="49.08233" lon="0.13771">
        <ele>154.5</ele>
        <time>2023-10-15T08:29:20Z</time>
      </trkpt>
      <trkpt lat="49.08238" lon="0.1378">
        <ele>154.5</ele>
        <time>2023-10-15T08:29:21Z</time>
      </trkpt>
      <trkpt lat="49.08243" lon="0.13788">
        <ele>154.5</ele>
        <time>2023-10-15T08:29:22Z</time>
      </trkpt>
      <trkpt lat="49.08248" lon="0.13797">
        <ele>154.6</ele>
        <time>2023-10-15T08:29:23Z</time>
      </trkpt>
      <trkpt lat="49.08254" lon="0.13805">
        <ele>154.6</ele>
        <time>2023-10-15T08:29:24Z</time>
      </trkpt>
      <trkpt lat="49.0826" lon="0.13812">
        <ele>154.6</ele>
        <time>2023-10-15T08:29:25Z</time>
      </trkpt>
      <trkpt lat="49.08266" lon="0.1382">
        <ele>154.7</ele>
        <time>2023-10-15T08:29:26Z</time>
      </trkpt>
      <trkpt lat="49.08272" lon="0.13827">
        <ele>154.8</ele>
        <time>2023-10-15T08:29:27Z</time>
      </trkpt>
      <trkpt lat="49.08278" lon="0.13834">
        <ele>154.9</ele>
        <time>2023-10-15T08:29:28Z</time>
      </trkpt>
      <trkpt lat="49.08284" lon="0.13841">
        <ele>154.9</ele>
        <time>2023-10-15T08:29:29Z</time>
      </trkpt>
      <trkpt lat="49.08291" lon="0.13848">
        <ele>155</ele>
        <time>2023-10-15T08:29:30Z</time>
      </trkpt>
      <trkpt lat="49.08297" lon="0.13855">
        <ele>155</ele>
        <time>2023-10-15T08:29:31Z</time>
      </trkpt>
      <trkpt lat="49.08303" lon="0.13861">
        <ele>155.1</ele>
        <time>2023-10-15T08:29:32Z</time>
      </trkpt>
      <trkpt lat="49.08309" lon="0.13867">
        <ele>155.1</ele>
        <time>2023-10-15T08:29:33Z</time>
      </trkpt>
      <trkpt lat="49.08316" lon="0.13873">
        <ele>155.2</ele>
        <time>2023-10-15T08:29:34Z</time>
      </trkpt>
      <trkpt lat="49.08322" lon="0.13877">
        <ele>155.2</ele>
        <time>2023-10-15T08:29:35Z</time>
      </trkpt>
      <trkpt lat="49.08329" lon="0.13882">
        <ele>155.3</ele>
        <time>2023-10-15T08:29:36Z</time>
      </trkpt>
      <trkpt lat="49.08335" lon="0.13886">
        <ele>155.4</ele>
        <time>2023-10-15T08:29:37Z</time>
      </trkpt>
      <trkpt lat="49.08342" lon="0.1389">
        <ele>155.4</ele>
        <time>2023-10-15T08:29:38Z</time>
      </trkpt>
      <trkpt lat="49.08348" lon="0.13894">
        <ele>155.5</ele>
        <time>2023-10-15T08:29:39Z</time>
      </trkpt>
      <trkpt lat="49.08355" lon="0.13898">
        <ele>155.7</ele>
        <time>2023-10-15T08:29:40Z</time>
      </trkpt>
      <trkpt lat="49.08361" lon="0.13902">
        <ele>155.8</ele>
        <time>2023-10-15T08:29:41Z</time>
      </trkpt>
      <trkpt lat="49.08368" lon="0.13906">
        <ele>156</ele>
        <time>2023-10-15T08:29:42Z</time>
      </trkpt>
      <trkpt lat="49.08374" lon="0.1391">
        <ele>156.2</ele>
        <time>2023-10-15T08:29:43Z</time>
      </trkpt>
      <trkpt lat="49.0838" lon="0.13914">
        <ele>156.3</ele>
        <time>2023-10-15T08:29:44Z</time>
      </trkpt>
      <trkpt lat="49.08385" lon="0.13919">
        <ele>156.5</ele>
        <time>2023-10-15T08:29:45Z</time>
      </trkpt>
      <trkpt lat="49.08391" lon="0.13924">
        <ele>156.6</ele>
        <time>2023-10-15T08:29:46Z</time>
      </trkpt>
      <trkpt lat="49.08396" lon="0.13929">
        <ele>156.8</ele>
        <time>2023-10-15T08:29:47Z</time>
      </trkpt>
      <trkpt lat="49.08402" lon="0.13935">
        <ele>157</ele>
        <time>2023-10-15T08:29:48Z</time>
      </trkpt>
      <trkpt lat="49.08407" lon="0.13941">
        <ele>157.1</ele>
        <time>2023-10-15T08:29:49Z</time>
      </trkpt>
      <trkpt lat="49.08412" lon="0.13948">
        <ele>157.3</ele>
        <time>2023-10-15T08:29:50Z</time>
      </trkpt>
      <trkpt lat="49.08418" lon="0.13954">
        <ele>157.5</ele>
        <time>2023-10-15T08:29:51Z</time>
      </trkpt>
      <trkpt lat="49.08423" lon="0.13961">
        <ele>157.6</ele>
        <time>2023-10-15T08:29:52Z</time>
      </trkpt>
      <trkpt lat="49.08428" lon="0.13969">
        <ele>157.8</ele>
        <time>2023-10-15T08:29:53Z</time>
      </trkpt>
      <trkpt lat="49.08433" lon="0.13976">
        <ele>158</ele>
        <time>2023-10-15T08:29:54Z</time>
      </trkpt>
      <trkpt lat="49.08438" lon="0.13983">
        <ele>158.2</ele>
        <time>2023-10-15T08:29:55Z</time>
      </trkpt>
      <trkpt lat="49.08443" lon="0.1399">
        <ele>158.3</ele>
        <time>2023-10-15T08:29:56Z</time>
      </trkpt>
      <trkpt lat="49.08448" lon="0.13997">
        <ele>158.5</ele>
        <time>2023-10-15T08:29:57Z</time>
      </trkpt>
      <trkpt lat="49.08453" lon="0.14004">
        <ele>158.6</ele>
        <time>2023-10-15T08:29:58Z</time>
      </trkpt>
      <trkpt lat="49.08457" lon="0.14011">
        <ele>158.8</ele>
        <time>2023-10-15T08:29:59Z</time>
      </trkpt>
      <trkpt lat="49.08462" lon="0.14018">
        <ele>159</ele>
        <time>2023-10-15T08:30:00Z</time>
      </trkpt>
      <trkpt lat="49.08467" lon="0.14025">
        <ele>159.3</ele>
        <time>2023-10-15T08:30:01Z</time>
      </trkpt>
      <trkpt lat="49.08472" lon="0.14032">
        <ele>159.5</ele>
        <time>2023-10-15T08:30:02Z</time>
      </trkpt>
      <trkpt lat="49.08477" lon="0.14038">
        <ele>159.7</ele>
        <time>2023-10-15T08:30:03Z</time>
      </trkpt>
      <trkpt lat="49.08482" lon="0.14044">
        <ele>159.9</ele>
        <time>2023-10-15T08:30:04Z</time>
      </trkpt>
      <trkpt lat="49.08486" lon="0.14049">
        <ele>160.1</ele>
        <time>2023-10-15T08:30:05Z</time>
      </trkpt>
      <trkpt lat="49.08491" lon="0.14055">
        <ele>160.3</ele>
        <time>2023-10-15T08:30:06Z</time>
      </trkpt>
      <trkpt lat="49.08495" lon="0.14062">
        <ele>160.5</ele>
        <time>2023-10-15T08:30:07Z</time>
      </trkpt>
      <trkpt lat="49.085" lon="0.14068">
        <ele>160.8</ele>
        <time>2023-10-15T08:30:08Z</time>
      </trkpt>
      <trkpt lat="49.08504" lon="0.14074">
        <ele>161</ele>
        <time>2023-10-15T08:30:09Z</time>
      </trkpt>
      <trkpt lat="49.08508" lon="0.1408">
        <ele>161.2</ele>
        <time>2023-10-15T08:30:10Z</time>
      </trkpt>
      <trkpt lat="49.08513" lon="0.14086">
        <ele>161.5</ele>
        <time>2023-10-15T08:30:11Z</time>
      </trkpt>
      <trkpt lat="49.08517" lon="0.14092">
        <ele>161.7</ele>
        <time>2023-10-15T08:30:12Z</time>
      </trkpt>
      <trkpt lat="49.08521" lon="0.14098">
        <ele>161.9</ele>
        <time>2023-10-15T08:30:13Z</time>
      </trkpt>
      <trkpt lat="49.08525" lon="0.14103">
        <ele>162.1</ele>
        <time>2023-10-15T08:30:14Z</time>
      </trkpt>
      <trkpt lat="49.0853" lon="0.14108">
        <ele>162.2</ele>
        <time>2023-10-15T08:30:15Z</time>
      </trkpt>
      <trkpt lat="49.08534" lon="0.14114">
        <ele>162.4</ele>
        <time>2023-10-15T08:30:16Z</time>
      </trkpt>
      <trkpt lat="49.08537" lon="0.1412">
        <ele>162.5</ele>
        <time>2023-10-15T08:30:17Z</time>
      </trkpt>
      <trkpt lat="49.08541" lon="0.14126">
        <ele>162.7</ele>
        <time>2023-10-15T08:30:18Z</time>
      </trkpt>
      <trkpt lat="49.08545" lon="0.14131">
        <ele>162.8</ele>
        <time>2023-10-15T08:30:19Z</time>
      </trkpt>
      <trkpt lat="49.08549" lon="0.14137">
        <ele>163</ele>
        <time>2023-10-15T08:30:20Z</time>
      </trkpt>
      <trkpt lat="49.08553" lon="0.14143">
        <ele>163.2</ele>
        <time>2023-10-15T08:30:21Z</time>
      </trkpt>
      <trkpt lat="49.08557" lon="0.14148">
        <ele>163.3</ele>
        <time>2023-10-15T08:30:22Z</time>
      </trkpt>
      <trkpt lat="49.08562" lon="0.14153">
        <ele>163.5</ele>
        <time>2023-10-15T08:30:23Z</time>
      </trkpt>
      <trkpt lat="49.08566" lon="0.14159">
        <ele>163.7</ele>
        <time>2023-10-15T08:30:24Z</time>
      </trkpt>
      <trkpt lat="49.08571" lon="0.14164">
        <ele>163.9</ele>
        <time>2023-10-15T08:30:25Z</time>
      </trkpt>
      <trkpt lat="49.08576" lon="0.1417">
        <ele>164</ele>
        <time>2023-10-15T08:30:26Z</time>
      </trkpt>
      <trkpt lat="49.0858" lon="0.14175">
        <ele>164.2</ele>
        <time>2023-10-15T08:30:27Z</time>
      </trkpt>
      <trkpt lat="49.08585" lon="0.14181">
        <ele>164.4</ele>
        <time>2023-10-15T08:30:28Z</time>
      </trkpt>
      <trkpt lat="49.08589" lon="0.14187">
        <ele>164.5</ele>
        <time>2023-10-15T08:30:29Z</time>
      </trkpt>
      <trkpt lat="49.08594" lon="0.14194">
        <ele>164.7</ele>
        <time>2023-10-15T08:30:30Z</time>
      </trkpt>
      <trkpt lat="49.08598" lon="0.142">
        <ele>164.8</ele>
        <time>2023-10-15T08:30:31Z</time>
      </trkpt>
      <trkpt lat="49.08603" lon="0.14206">
        <ele>164.9</ele>
        <time>2023-10-15T08:30:32Z</time>
      </trkpt>
      <trkpt lat="49.08607" lon="0.14212">
        <ele>165.1</ele>
        <time>2023-10-15T08:30:33Z</time>
      </trkpt>
      <trkpt lat="49.08612" lon="0.14218">
        <ele>165.2</ele>
        <time>2023-10-15T08:30:34Z</time>
      </trkpt>
      <trkpt lat="49.08617" lon="0.14224">
        <ele>165.4</ele>
        <time>2023-10-15T08:30:35Z</time>
      </trkpt>
      <trkpt lat="49.08621" lon="0.14231">
        <ele>165.5</ele>
        <time>2023-10-15T08:30:36Z</time>
      </trkpt>
      <trkpt lat="49.08626" lon="0.14238">
        <ele>165.6</ele>
        <time>2023-10-15T08:30:37Z</time>
      </trkpt>
      <trkpt lat="49.0863" lon="0.14244">
        <ele>165.7</ele>
        <time>2023-10-15T08:30:38Z</time>
      </trkpt>
      <trkpt lat="49.08634" lon="0.1425">
        <ele>165.8</ele>
        <time>2023-10-15T08:30:39Z</time>
      </trkpt>
      <trkpt lat="49.08639" lon="0.14257">
        <ele>166</ele>
        <time>2023-10-15T08:30:40Z</time>
      </trkpt>
      <trkpt lat="49.08643" lon="0.14264">
        <ele>166.1</ele>
        <time>2023-10-15T08:30:41Z</time>
      </trkpt>
      <trkpt lat="49.08648" lon="0.14271">
        <ele>166.2</ele>
        <time>2023-10-15T08:30:42Z</time>
      </trkpt>
      <trkpt lat="49.08652" lon="0.14277">
        <ele>166.3</ele>
        <time>2023-10-15T08:30:43Z</time>
      </trkpt>
      <trkpt lat="49.08657" lon="0.14284">
        <ele>166.4</ele>
        <time>2023-10-15T08:30:44Z</time>
      </trkpt>
      <trkpt lat="49.08662" lon="0.14291">
        <ele>166.6</ele>
        <time>2023-10-15T08:30:45Z</time>
      </trkpt>
      <trkpt lat="49.08667" lon="0.14298">
        <ele>166.7</ele>
        <time>2023-10-15T08:30:46Z</time>
      </trkpt>
      <trkpt lat="49.08672" lon="0.14305">
        <ele>166.9</ele>
        <time>2023-10-15T08:30:47Z</time>
      </trkpt>
      <trkpt lat="49.08677" lon="0.14312">
        <ele>167</ele>
        <time>2023-10-15T08:30:48Z</time>
      </trkpt>
      <trkpt lat="49.08682" lon="0.14319">
        <ele>167.2</ele>
        <time>2023-10-15T08:30:49Z</time>
      </trkpt>
      <trkpt lat="49.08687" lon="0.14326">
        <ele>167.4</ele>
        <time>2023-10-15T08:30:50Z</time>
      </trkpt>
      <trkpt lat="49.08692" lon="0.14332">
        <ele>167.5</ele>
        <time>2023-10-15T08:30:51Z</time>
      </trkpt>
      <trkpt lat="49.08698" lon="0.14339">
        <ele>167.7</ele>
        <time>2023-10-15T08:30:52Z</time>
      </trkpt>
      <trkpt lat="49.08702" lon="0.14346">
        <ele>167.8</ele>
        <time>2023-10-15T08:30:53Z</time>
      </trkpt>
      <trkpt lat="49.08707" lon="0.14353">
        <ele>167.9</ele>
        <time>2023-10-15T08:30:54Z</time>
      </trkpt>
      <trkpt lat="49.08712" lon="0.14359">
        <ele>168.1</ele>
        <time>2023-10-15T08:30:55Z</time>
      </trkpt>
      <trkpt lat="49.08717" lon="0.14365">
        <ele>168.2</ele>
        <time>2023-10-15T08:30:56Z</time>
      </trkpt>
      <trkpt lat="49.08723" lon="0.14371">
        <ele>168.3</ele>
        <time>2023-10-15T08:30:57Z</time>
      </trkpt>
      <trkpt lat="49.08728" lon="0.14377">
        <ele>168.5</ele>
        <time>2023-10-15T08:30:58Z</time>
      </trkpt>
      <trkpt lat="49.08732" lon="0.14382">
        <ele>168.6</ele>
        <time>2023-10-15T08:30:59Z</time>
      </trkpt>
      <trkpt lat="49.08737" lon="0.14389">
        <ele>168.7</ele>
        <time>2023-10-15T08:31:00Z</time>
      </trkpt>
      <trkpt lat="49.08742" lon="0.14395">
        <ele>168.8</ele>
        <time>2023-10-15T08:31:01Z</time>
      </trkpt>
      <trkpt lat="49.08746" lon="0.14402">
        <ele>168.9</ele>
        <time>2023-10-15T08:31:02Z</time>
      </trkpt>
      <trkpt lat="49.08751" lon="0.14408">
        <ele>168.9</ele>
        <time>2023-10-15T08:31:03Z</time>
      </trkpt>
      <trkpt lat="49.08755" lon="0.14415">
        <ele>169</ele>
        <time>2023-10-15T08:31:04Z</time>
      </trkpt>
      <trkpt lat="49.0876" lon="0.14422">
        <ele>169.1</ele>
        <time>2023-10-15T08:31:05Z</time>
      </trkpt>
      <trkpt lat="49.08765" lon="0.1443">
        <ele>169.2</ele>
        <time>2023-10-15T08:31:06Z</time>
      </trkpt>
      <trkpt lat="49.08769" lon="0.14438">
        <ele>169.2</ele>
        <time>2023-10-15T08:31:07Z</time>
      </trkpt>
      <trkpt lat="49.08774" lon="0.14444">
        <ele>169.3</ele>
        <time>2023-10-15T08:31:08Z</time>
      </trkpt>
      <trkpt lat="49.0878" lon="0.1445">
        <ele>169.4</ele>
        <time>2023-10-15T08:31:09Z</time>
      </trkpt>
      <trkpt lat="49.08785" lon="0.14456">
        <ele>169.5</ele>
        <time>2023-10-15T08:31:10Z</time>
      </trkpt>
      <trkpt lat="49.0879" lon="0.14463">
        <ele>169.5</ele>
        <time>2023-10-15T08:31:11Z</time>
      </trkpt>
      <trkpt lat="49.08794" lon="0.1447">
        <ele>169.5</ele>
        <time>2023-10-15T08:31:12Z</time>
      </trkpt>
      <trkpt lat="49.08799" lon="0.14477">
        <ele>169.5</ele>
        <time>2023-10-15T08:31:13Z</time>
      </trkpt>
      <trkpt lat="49.08803" lon="0.14483">
        <ele>169.5</ele>
        <time>2023-10-15T08:31:14Z</time>
      </trkpt>
      <trkpt lat="49.08808" lon="0.1449">
        <ele>169.5</ele>
        <time>2023-10-15T08:31:15Z</time>
      </trkpt>
      <trkpt lat="49.08812" lon="0.14496">
        <ele>169.5</ele>
        <time>2023-10-15T08:31:16Z</time>
      </trkpt>
      <trkpt lat="49.08816" lon="0.14502">
        <ele>169.5</ele>
        <time>2023-10-15T08:31:17Z</time>
      </trkpt>
      <trkpt lat="49.08821" lon="0.14509">
        <ele>169.6</ele>
        <time>2023-10-15T08:31:18Z</time>
      </trkpt>
      <trkpt lat="49.08826" lon="0.14516">
        <ele>169.6</ele>
        <time>2023-10-15T08:31:19Z</time>
      </trkpt>
      <trkpt lat="49.08831" lon="0.14522">
        <ele>169.7</ele>
        <time>2023-10-15T08:31:20Z</time>
      </trkpt>
      <trkpt lat="49.08836" lon="0.14528">
        <ele>169.8</ele>
        <time>2023-10-15T08:31:21Z</time>
      </trkpt>
      <trkpt lat="49.08841" lon="0.14535">
        <ele>169.9</ele>
        <time>2023-10-15T08:31:22Z</time>
      </trkpt>
      <trkpt lat="49.08846" lon="0.14541">
        <ele>170</ele>
        <time>2023-10-15T08:31:23Z</time>
      </trkpt>
      <trkpt lat="49.08851" lon="0.14547">
        <ele>170</ele>
        <time>2023-10-15T08:31:24Z</time>
      </trkpt>
      <trkpt lat="49.08856" lon="0.14553">
        <ele>170.1</ele>
        <time>2023-10-15T08:31:25Z</time>
      </trkpt>
      <trkpt lat="49.0886" lon="0.1456">
        <ele>170.1</ele>
        <time>2023-10-15T08:31:26Z</time>
      </trkpt>
      <trkpt lat="49.08865" lon="0.14566">
        <ele>170.2</ele>
        <time>2023-10-15T08:31:27Z</time>
      </trkpt>
      <trkpt lat="49.0887" lon="0.14572">
        <ele>170.2</ele>
        <time>2023-10-15T08:31:28Z</time>
      </trkpt>
      <trkpt lat="49.08874" lon="0.14579">
        <ele>170.2</ele>
        <time>2023-10-15T08:31:29Z</time>
      </trkpt>
      <trkpt lat="49.0888" lon="0.14586">
        <ele>170.3</ele>
        <time>2023-10-15T08:31:30Z</time>
      </trkpt>
      <trkpt lat="49.08885" lon="0.14594">
        <ele>170.3</ele>
        <time>2023-10-15T08:31:31Z</time>
      </trkpt>
      <trkpt lat="49.0889" lon="0.14601">
        <ele>170.4</ele>
        <time>2023-10-15T08:31:32Z</time>
      </trkpt>
      <trkpt lat="49.08896" lon="0.14609">
        <ele>170.5</ele>
        <time>2023-10-15T08:31:33Z</time>
      </trkpt>
      <trkpt lat="49.08901" lon="0.14616">
        <ele>170.6</ele>
        <time>2023-10-15T08:31:34Z</time>
      </trkpt>
      <trkpt lat="49.08906" lon="0.14623">
        <ele>170.6</ele>
        <time>2023-10-15T08:31:35Z</time>
      </trkpt>
      <trkpt lat="49.0891" lon="0.1463">
        <ele>170.7</ele>
        <time>2023-10-15T08:31:36Z</time>
      </trkpt>
      <trkpt lat="49.08915" lon="0.14637">
        <ele>170.8</ele>
        <time>2023-10-15T08:31:37Z</time>
      </trkpt>
      <trkpt lat="49.0892" lon="0.14643">
        <ele>170.9</ele>
        <time>2023-10-15T08:31:38Z</time>
      </trkpt>
      <trkpt lat="49.08925" lon="0.14649">
        <ele>171</ele>
        <time>2023-10-15T08:31:39Z</time>
      </trkpt>
      <trkpt lat="49.0893" lon="0.14655">
        <ele>171.1</ele>
        <time>2023-10-15T08:31:40Z</time>
      </trkpt>
      <trkpt lat="49.08935" lon="0.14661">
        <ele>171.1</ele>
        <time>2023-10-15T08:31:41Z</time>
      </trkpt>
      <trkpt lat="49.08939" lon="0.14666">
        <ele>171.2</ele>
        <time>2023-10-15T08:31:42Z</time>
      </trkpt>
      <trkpt lat="49.08944" lon="0.14672">
        <ele>171.3</ele>
        <time>2023-10-15T08:31:43Z</time>
      </trkpt>
      <trkpt lat="49.08948" lon="0.14677">
        <ele>171.4</ele>
        <time>2023-10-15T08:31:44Z</time>
      </trkpt>
      <trkpt lat="49.08951" lon="0.14683">
        <ele>171.4</ele>
        <time>2023-10-15T08:31:45Z</time>
      </trkpt>
      <trkpt lat="49.08955" lon="0.14688">
        <ele>171.5</ele>
        <time>2023-10-15T08:31:46Z</time>
      </trkpt>
      <trkpt lat="49.08959" lon="0.14693">
        <ele>171.6</ele>
        <time>2023-10-15T08:31:47Z</time>
      </trkpt>
      <trkpt lat="49.08962" lon="0.14698">
        <ele>171.6</ele>
        <time>2023-10-15T08:31:48Z</time>
      </trkpt>
      <trkpt lat="49.08965" lon="0.14703">
        <ele>171.7</ele>
        <time>2023-10-15T08:31:49Z</time>
      </trkpt>
      <trkpt lat="49.08968" lon="0.14708">
        <ele>171.8</ele>
        <time>2023-10-15T08:31:50Z</time>
      </trkpt>
      <trkpt lat="49.08971" lon="0.14712">
        <ele>171.9</ele>
        <time>2023-10-15T08:31:51Z</time>
      </trkpt>
      <trkpt lat="49.08974" lon="0.14716">
        <ele>172</ele>
        <time>2023-10-15T08:31:52Z</time>
      </trkpt>
      <trkpt lat="49.08977" lon="0.14721">
        <ele>172.1</ele>
        <time>2023-10-15T08:31:53Z</time>
      </trkpt>
      <trkpt lat="49.0898" lon="0.14725">
        <ele>172.2</ele>
        <time>2023-10-15T08:31:54Z</time>
      </trkpt>
      <trkpt lat="49.08982" lon="0.1473">
        <ele>172.3</ele>
        <time>2023-10-15T08:31:55Z</time>
      </trkpt>
      <trkpt lat="49.08985" lon="0.14733">
        <ele>172.4</ele>
        <time>2023-10-15T08:31:56Z</time>
      </trkpt>
      <trkpt lat="49.08988" lon="0.14736">
        <ele>172.4</ele>
        <time>2023-10-15T08:31:57Z</time>
      </trkpt>
      <trkpt lat="49.08992" lon="0.14738">
        <ele>172.5</ele>
        <time>2023-10-15T08:31:58Z</time>
      </trkpt>
      <trkpt lat="49.08997" lon="0.14737">
        <ele>172.5</ele>
        <time>2023-10-15T08:31:59Z</time>
      </trkpt>
      <trkpt lat="49.09003" lon="0.14735">
        <ele>172.6</ele>
        <time>2023-10-15T08:32:00Z</time>
      </trkpt>
      <trkpt lat="49.09008" lon="0.14732">
        <ele>172.6</ele>
        <time>2023-10-15T08:32:01Z</time>
      </trkpt>
      <trkpt lat="49.09013" lon="0.14728">
        <ele>172.6</ele>
        <time>2023-10-15T08:32:02Z</time>
      </trkpt>
      <trkpt lat="49.09019" lon="0.14723">
        <ele>172.6</ele>
        <time>2023-10-15T08:32:03Z</time>
      </trkpt>
      <trkpt lat="49.09025" lon="0.14719">
        <ele>172.7</ele>
        <time>2023-10-15T08:32:04Z</time>
      </trkpt>
      <trkpt lat="49.09032" lon="0.14714">
        <ele>172.7</ele>
        <time>2023-10-15T08:32:05Z</time>
      </trkpt>
      <trkpt lat="49.09038" lon="0.14709">
        <ele>172.7</ele>
        <time>2023-10-15T08:32:06Z</time>
      </trkpt>
      <trkpt lat="49.09045" lon="0.14704">
        <ele>172.7</ele>
        <time>2023-10-15T08:32:07Z</time>
      </trkpt>
      <trkpt lat="49.09051" lon="0.14699">
        <ele>172.7</ele>
        <time>2023-10-15T08:32:08Z</time>
      </trkpt>
      <trkpt lat="49.09058" lon="0.14694">
        <ele>172.7</ele>
        <time>2023-10-15T08:32:09Z</time>
      </trkpt>
      <trkpt lat="49.09065" lon="0.14689">
        <ele>172.7</ele>
        <time>2023-10-15T08:32:10Z</time>
      </trkpt>
      <trkpt lat="49.09072" lon="0.14685">
        <ele>172.7</ele>
        <time>2023-10-15T08:32:11Z</time>
      </trkpt>
      <trkpt lat="49.09079" lon="0.1468">
        <ele>172.7</ele>
        <time>2023-10-15T08:32:12Z</time>
      </trkpt>
      <trkpt lat="49.09085" lon="0.14675">
        <ele>172.7</ele>
        <time>2023-10-15T08:32:13Z</time>
      </trkpt>
      <trkpt lat="49.09092" lon="0.1467">
        <ele>172.7</ele>
        <time>2023-10-15T08:32:14Z</time>
      </trkpt>
      <trkpt lat="49.09099" lon="0.14666">
        <ele>172.7</ele>
        <time>2023-10-15T08:32:15Z</time>
      </trkpt>
      <trkpt lat="49.09106" lon="0.14661">
        <ele>172.7</ele>
        <time>2023-10-15T08:32:16Z</time>
      </trkpt>
      <trkpt lat="49.09113" lon="0.14656">
        <ele>172.7</ele>
        <time>2023-10-15T08:32:17Z</time>
      </trkpt>
      <trkpt lat="49.0912" lon="0.1465">
        <ele>172.7</ele>
        <time>2023-10-15T08:32:18Z</time>
      </trkpt>
      <trkpt lat="49.09127" lon="0.14645">
        <ele>172.6</ele>
        <time>2023-10-15T08:32:19Z</time>
      </trkpt>
      <trkpt lat="49.09134" lon="0.1464">
        <ele>172.6</ele>
        <time>2023-10-15T08:32:20Z</time>
      </trkpt>
      <trkpt lat="49.09141" lon="0.14634">
        <ele>172.6</ele>
        <time>2023-10-15T08:32:21Z</time>
      </trkpt>
      <trkpt lat="49.09149" lon="0.14629">
        <ele>172.5</ele>
        <time>2023-10-15T08:32:22Z</time>
      </trkpt>
      <trkpt lat="49.09156" lon="0.14625">
        <ele>172.4</ele>
        <time>2023-10-15T08:32:23Z</time>
      </trkpt>
      <trkpt lat="49.09164" lon="0.1462">
        <ele>172.3</ele>
        <time>2023-10-15T08:32:24Z</time>
      </trkpt>
      <trkpt lat="49.09172" lon="0.14615">
        <ele>172.3</ele>
        <time>2023-10-15T08:32:25Z</time>
      </trkpt>
      <trkpt lat="49.0918" lon="0.14612">
        <ele>172.2</ele>
        <time>2023-10-15T08:32:26Z</time>
      </trkpt>
      <trkpt lat="49.09189" lon="0.14608">
        <ele>172.1</ele>
        <time>2023-10-15T08:32:27Z</time>
      </trkpt>
      <trkpt lat="49.09197" lon="0.14605">
        <ele>172</ele>
        <time>2023-10-15T08:32:28Z</time>
      </trkpt>
      <trkpt lat="49.09206" lon="0.14602">
        <ele>172</ele>
        <time>2023-10-15T08:32:29Z</time>
      </trkpt>
      <trkpt lat="49.09214" lon="0.14599">
        <ele>171.9</ele>
        <time>2023-10-15T08:32:30Z</time>
      </trkpt>
      <trkpt lat="49.09223" lon="0.14596">
        <ele>171.8</ele>
        <time>2023-10-15T08:32:31Z</time>
      </trkpt>
      <trkpt lat="49.09232" lon="0.14593">
        <ele>171.8</ele>
        <time>2023-10-15T08:32:32Z</time>
      </trkpt>
      <trkpt lat="49.09241" lon="0.1459">
        <ele>171.7</ele>
        <time>2023-10-15T08:32:33Z</time>
      </trkpt>
      <trkpt lat="49.09249" lon="0.14587">
        <ele>171.6</ele>
        <time>2023-10-15T08:32:34Z</time>
      </trkpt>
      <trkpt lat="49.09258" lon="0.14584">
        <ele>171.6</ele>
        <time>2023-10-15T08:32:35Z</time>
      </trkpt>
      <trkpt lat="49.09266" lon="0.1458">
        <ele>171.6</ele>
        <time>2023-10-15T08:32:36Z</time>
      </trkpt>
      <trkpt lat="49.09275" lon="0.14577">
        <ele>171.6</ele>
        <time>2023-10-15T08:32:37Z</time>
      </trkpt>
      <trkpt lat="49.09284" lon="0.14574">
        <ele>171.6</ele>
        <time>2023-10-15T08:32:38Z</time>
      </trkpt>
      <trkpt lat="49.09293" lon="0.14572">
        <ele>171.6</ele>
        <time>2023-10-15T08:32:39Z</time>
      </trkpt>
      <trkpt lat="49.09302" lon="0.14569">
        <ele>171.6</ele>
        <time>2023-10-15T08:32:40Z</time>
      </trkpt>
      <trkpt lat="49.09311" lon="0.14566">
        <ele>171.6</ele>
        <time>2023-10-15T08:32:41Z</time>
      </trkpt>
      <trkpt lat="49.09319" lon="0.14564">
        <ele>171.6</ele>
        <time>2023-10-15T08:32:42Z</time>
      </trkpt>
      <trkpt lat="49.09328" lon="0.14562">
        <ele>171.6</ele>
        <time>2023-10-15T08:32:43Z</time>
      </trkpt>
      <trkpt lat="49.09336" lon="0.14561">
        <ele>171.6</ele>
        <time>2023-10-15T08:32:44Z</time>
      </trkpt>
      <trkpt lat="49.09344" lon="0.14561">
        <ele>171.7</ele>
        <time>2023-10-15T08:32:45Z</time>
      </trkpt>
      <trkpt lat="49.09352" lon="0.14562">
        <ele>171.7</ele>
        <time>2023-10-15T08:32:46Z</time>
      </trkpt>
      <trkpt lat="49.09361" lon="0.14563">
        <ele>171.7</ele>
        <time>2023-10-15T08:32:47Z</time>
      </trkpt>
      <trkpt lat="49.09369" lon="0.14564">
        <ele>171.6</ele>
        <time>2023-10-15T08:32:48Z</time>
      </trkpt>
      <trkpt lat="49.09377" lon="0.14566">
        <ele>171.6</ele>
        <time>2023-10-15T08:32:49Z</time>
      </trkpt>
      <trkpt lat="49.09386" lon="0.14567">
        <ele>171.6</ele>
        <time>2023-10-15T08:32:50Z</time>
      </trkpt>
      <trkpt lat="49.09395" lon="0.14568">
        <ele>171.6</ele>
        <time>2023-10-15T08:32:51Z</time>
      </trkpt>
      <trkpt lat="49.09404" lon="0.14569">
        <ele>171.6</ele>
        <time>2023-10-15T08:32:52Z</time>
      </trkpt>
      <trkpt lat="49.09413" lon="0.1457">
        <ele>171.6</ele>
        <time>2023-10-15T08:32:53Z</time>
      </trkpt>
      <trkpt lat="49.09422" lon="0.1457">
        <ele>171.6</ele>
        <time>2023-10-15T08:32:54Z</time>
      </trkpt>
      <trkpt lat="49.0943" lon="0.14569">
        <ele>171.6</ele>
        <time>2023-10-15T08:32:55Z</time>
      </trkpt>
      <trkpt lat="49.09439" lon="0.14568">
        <ele>171.6</ele>
        <time>2023-10-15T08:32:56Z</time>
      </trkpt>
      <trkpt lat="49.09447" lon="0.14567">
        <ele>171.6</ele>
        <time>2023-10-15T08:32:57Z</time>
      </trkpt>
      <trkpt lat="49.09455" lon="0.14567">
        <ele>171.6</ele>
        <time>2023-10-15T08:32:58Z</time>
      </trkpt>
      <trkpt lat="49.09463" lon="0.14566">
        <ele>171.6</ele>
        <time>2023-10-15T08:32:59Z</time>
      </trkpt>
      <trkpt lat="49.09471" lon="0.14566">
        <ele>171.5</ele>
        <time>2023-10-15T08:33:00Z</time>
      </trkpt>
      <trkpt lat="49.0948" lon="0.14565">
        <ele>171.5</ele>
        <time>2023-10-15T08:33:01Z</time>
      </trkpt>
      <trkpt lat="49.09488" lon="0.14564">
        <ele>171.4</ele>
        <time>2023-10-15T08:33:02Z</time>
      </trkpt>
      <trkpt lat="49.09497" lon="0.14564">
        <ele>171.3</ele>
        <time>2023-10-15T08:33:03Z</time>
      </trkpt>
      <trkpt lat="49.09505" lon="0.14563">
        <ele>171.2</ele>
        <time>2023-10-15T08:33:04Z</time>
      </trkpt>
      <trkpt lat="49.09514" lon="0.14562">
        <ele>171.1</ele>
        <time>2023-10-15T08:33:05Z</time>
      </trkpt>
      <trkpt lat="49.09522" lon="0.14561">
        <ele>171</ele>
        <time>2023-10-15T08:33:06Z</time>
      </trkpt>
      <trkpt lat="49.09531" lon="0.1456">
        <ele>170.9</ele>
        <time>2023-10-15T08:33:07Z</time>
      </trkpt>
      <trkpt lat="49.0954" lon="0.14558">
        <ele>170.8</ele>
        <time>2023-10-15T08:33:08Z</time>
      </trkpt>
      <trkpt lat="49.09548" lon="0.14556">
        <ele>170.7</ele>
        <time>2023-10-15T08:33:09Z</time>
      </trkpt>
      <trkpt lat="49.09557" lon="0.14554">
        <ele>170.6</ele>
        <time>2023-10-15T08:33:10Z</time>
      </trkpt>
      <trkpt lat="49.09565" lon="0.14551">
        <ele>170.6</ele>
        <time>2023-10-15T08:33:11Z</time>
      </trkpt>
      <trkpt lat="49.09573" lon="0.14547">
        <ele>170.5</ele>
        <time>2023-10-15T08:33:12Z</time>
      </trkpt>
      <trkpt lat="49.09581" lon="0.14543">
        <ele>170.4</ele>
        <time>2023-10-15T08:33:13Z</time>
      </trkpt>
      <trkpt lat="49.09589" lon="0.14539">
        <ele>170.3</ele>
        <time>2023-10-15T08:33:14Z</time>
      </trkpt>
      <trkpt lat="49.09597" lon="0.14535">
        <ele>170.2</ele>
        <time>2023-10-15T08:33:15Z</time>
      </trkpt>
      <trkpt lat="49.09605" lon="0.14531">
        <ele>170.2</ele>
        <time>2023-10-15T08:33:16Z</time>
      </trkpt>
      <trkpt lat="49.09614" lon="0.14526">
        <ele>170.1</ele>
        <time>2023-10-15T08:33:17Z</time>
      </trkpt>
      <trkpt lat="49.09622" lon="0.1452">
        <ele>170</ele>
        <time>2023-10-15T08:33:18Z</time>
      </trkpt>
      <trkpt lat="49.09629" lon="0.14515">
        <ele>169.9</ele>
        <time>2023-10-15T08:33:19Z</time>
      </trkpt>
      <trkpt lat="49.09637" lon="0.1451">
        <ele>169.9</ele>
        <time>2023-10-15T08:33:20Z</time>
      </trkpt>
      <trkpt lat="49.09645" lon="0.14505">
        <ele>169.7</ele>
        <time>2023-10-15T08:33:21Z</time>
      </trkpt>
      <trkpt lat="49.09653" lon="0.14499">
        <ele>169.6</ele>
        <time>2023-10-15T08:33:22Z</time>
      </trkpt>
      <trkpt lat="49.09661" lon="0.14493">
        <ele>169.5</ele>
        <time>2023-10-15T08:33:23Z</time>
      </trkpt>
      <trkpt lat="49.09669" lon="0.14487">
        <ele>169.3</ele>
        <time>2023-10-15T08:33:24Z</time>
      </trkpt>
      <trkpt lat="49.09677" lon="0.14481">
        <ele>169.2</ele>
        <time>2023-10-15T08:33:25Z</time>
      </trkpt>
      <trkpt lat="49.09685" lon="0.14474">
        <ele>169</ele>
        <time>2023-10-15T08:33:26Z</time>
      </trkpt>
      <trkpt lat="49.09693" lon="0.14467">
        <ele>168.9</ele>
        <time>2023-10-15T08:33:27Z</time>
      </trkpt>
      <trkpt lat="49.09701" lon="0.14459">
        <ele>168.7</ele>
        <time>2023-10-15T08:33:28Z</time>
      </trkpt>
      <trkpt lat="49.09709" lon="0.14451">
        <ele>168.6</ele>
        <time>2023-10-15T08:33:29Z</time>
      </trkpt>
      <trkpt lat="49.09716" lon="0.14442">
        <ele>168.4</ele>
        <time>2023-10-15T08:33:30Z</time>
      </trkpt>
      <trkpt lat="49.09724" lon="0.14433">
        <ele>168.2</ele>
        <time>2023-10-15T08:33:31Z</time>
      </trkpt>
      <trkpt lat="49.09731" lon="0.14425">
        <ele>168.1</ele>
        <time>2023-10-15T08:33:32Z</time>
      </trkpt>
      <trkpt lat="49.09738" lon="0.14417">
        <ele>167.9</ele>
        <time>2023-10-15T08:33:33Z</time>
      </trkpt>
      <trkpt lat="49.09745" lon="0.14408">
        <ele>167.8</ele>
        <time>2023-10-15T08:33:34Z</time>
      </trkpt>
      <trkpt lat="49.09753" lon="0.144">
        <ele>167.6</ele>
        <time>2023-10-15T08:33:35Z</time>
      </trkpt>
      <trkpt lat="49.0976" lon="0.14391">
        <ele>167.5</ele>
        <time>2023-10-15T08:33:36Z</time>
      </trkpt>
      <trkpt lat="49.09767" lon="0.14383">
        <ele>167.5</ele>
        <time>2023-10-15T08:33:37Z</time>
      </trkpt>
      <trkpt lat="49.09775" lon="0.14374">
        <ele>167.5</ele>
        <time>2023-10-15T08:33:38Z</time>
      </trkpt>
      <trkpt lat="49.09783" lon="0.14366">
        <ele>167.4</ele>
        <time>2023-10-15T08:33:39Z</time>
      </trkpt>
      <trkpt lat="49.0979" lon="0.14357">
        <ele>167.3</ele>
        <time>2023-10-15T08:33:40Z</time>
      </trkpt>
      <trkpt lat="49.09797" lon="0.1435">
        <ele>167.2</ele>
        <time>2023-10-15T08:33:41Z</time>
      </trkpt>
      <trkpt lat="49.09805" lon="0.14342">
        <ele>167.1</ele>
        <time>2023-10-15T08:33:42Z</time>
      </trkpt>
      <trkpt lat="49.09813" lon="0.14336">
        <ele>167</ele>
        <time>2023-10-15T08:33:43Z</time>
      </trkpt>
      <trkpt lat="49.09821" lon="0.1433">
        <ele>166.9</ele>
        <time>2023-10-15T08:33:44Z</time>
      </trkpt>
      <trkpt lat="49.0983" lon="0.14326">
        <ele>166.8</ele>
        <time>2023-10-15T08:33:45Z</time>
      </trkpt>
      <trkpt lat="49.0984" lon="0.14322">
        <ele>166.7</ele>
        <time>2023-10-15T08:33:46Z</time>
      </trkpt>
      <trkpt lat="49.09849" lon="0.14319">
        <ele>166.6</ele>
        <time>2023-10-15T08:33:47Z</time>
      </trkpt>
      <trkpt lat="49.09858" lon="0.14316">
        <ele>166.6</ele>
        <time>2023-10-15T08:33:48Z</time>
      </trkpt>
      <trkpt lat="49.09868" lon="0.14313">
        <ele>166.5</ele>
        <time>2023-10-15T08:33:49Z</time>
      </trkpt>
      <trkpt lat="49.09877" lon="0.1431">
        <ele>166.6</ele>
        <time>2023-10-15T08:33:50Z</time>
      </trkpt>
      <trkpt lat="49.09886" lon="0.14307">
        <ele>166.6</ele>
        <time>2023-10-15T08:33:51Z</time>
      </trkpt>
      <trkpt lat="49.09894" lon="0.14305">
        <ele>166.7</ele>
        <time>2023-10-15T08:33:52Z</time>
      </trkpt>
      <trkpt lat="49.09902" lon="0.14302">
        <ele>166.8</ele>
        <time>2023-10-15T08:33:53Z</time>
      </trkpt>
      <trkpt lat="49.09911" lon="0.14299">
        <ele>166.9</ele>
        <time>2023-10-15T08:33:54Z</time>
      </trkpt>
      <trkpt lat="49.09919" lon="0.14296">
        <ele>167</ele>
        <time>2023-10-15T08:33:55Z</time>
      </trkpt>
      <trkpt lat="49.09927" lon="0.14293">
        <ele>167.1</ele>
        <time>2023-10-15T08:33:56Z</time>
      </trkpt>
      <trkpt lat="49.09936" lon="0.14291">
        <ele>167.3</ele>
        <time>2023-10-15T08:33:57Z</time>
      </trkpt>
      <trkpt lat="49.09944" lon="0.14288">
        <ele>167.4</ele>
        <time>2023-10-15T08:33:58Z</time>
      </trkpt>
      <trkpt lat="49.09952" lon="0.14285">
        <ele>167.5</ele>
        <time>2023-10-15T08:33:59Z</time>
      </trkpt>
      <trkpt lat="49.09961" lon="0.14282">
        <ele>167.7</ele>
        <time>2023-10-15T08:34:00Z</time>
      </trkpt>
      <trkpt lat="49.09969" lon="0.14279">
        <ele>167.8</ele>
        <time>2023-10-15T08:34:01Z</time>
      </trkpt>
      <trkpt lat="49.09977" lon="0.14276">
        <ele>168</ele>
        <time>2023-10-15T08:34:02Z</time>
      </trkpt>
      <trkpt lat="49.09986" lon="0.14273">
        <ele>168.2</ele>
        <time>2023-10-15T08:34:03Z</time>
      </trkpt>
      <trkpt lat="49.09994" lon="0.1427">
        <ele>168.4</ele>
        <time>2023-10-15T08:34:04Z</time>
      </trkpt>
      <trkpt lat="49.10002" lon="0.14268">
        <ele>168.5</ele>
        <time>2023-10-15T08:34:05Z</time>
      </trkpt>
      <trkpt lat="49.1001" lon="0.14265">
        <ele>168.7</ele>
        <time>2023-10-15T08:34:06Z</time>
      </trkpt>
      <trkpt lat="49.10017" lon="0.14262">
        <ele>168.9</ele>
        <time>2023-10-15T08:34:07Z</time>
      </trkpt>
      <trkpt lat="49.10026" lon="0.14259">
        <ele>169</ele>
        <time>2023-10-15T08:34:08Z</time>
      </trkpt>
      <trkpt lat="49.10034" lon="0.14257">
        <ele>169.2</ele>
        <time>2023-10-15T08:34:09Z</time>
      </trkpt>
      <trkpt lat="49.10042" lon="0.14254">
        <ele>169.4</ele>
        <time>2023-10-15T08:34:10Z</time>
      </trkpt>
      <trkpt lat="49.10051" lon="0.14251">
        <ele>169.5</ele>
        <time>2023-10-15T08:34:11Z</time>
      </trkpt>
      <trkpt lat="49.10059" lon="0.14249">
        <ele>169.7</ele>
        <time>2023-10-15T08:34:12Z</time>
      </trkpt>
      <trkpt lat="49.10068" lon="0.14246">
        <ele>169.9</ele>
        <time>2023-10-15T08:34:13Z</time>
      </trkpt>
      <trkpt lat="49.10077" lon="0.14243">
        <ele>170</ele>
        <time>2023-10-15T08:34:14Z</time>
      </trkpt>
      <trkpt lat="49.10085" lon="0.1424">
        <ele>170</ele>
        <time>2023-10-15T08:34:15Z</time>
      </trkpt>
      <trkpt lat="49.10094" lon="0.14237">
        <ele>170</ele>
        <time>2023-10-15T08:34:16Z</time>
      </trkpt>
      <trkpt lat="49.10103" lon="0.14234">
        <ele>170</ele>
        <time>2023-10-15T08:34:17Z</time>
      </trkpt>
      <trkpt lat="49.10111" lon="0.14231">
        <ele>170</ele>
        <time>2023-10-15T08:34:18Z</time>
      </trkpt>
      <trkpt lat="49.1012" lon="0.14227">
        <ele>170</ele>
        <time>2023-10-15T08:34:19Z</time>
      </trkpt>
      <trkpt lat="49.10129" lon="0.14223">
        <ele>170</ele>
        <time>2023-10-15T08:34:20Z</time>
      </trkpt>
      <trkpt lat="49.10137" lon="0.14219">
        <ele>170</ele>
        <time>2023-10-15T08:34:21Z</time>
      </trkpt>
      <trkpt lat="49.10146" lon="0.14215">
        <ele>170.1</ele>
        <time>2023-10-15T08:34:22Z</time>
      </trkpt>
      <trkpt lat="49.10155" lon="0.14212">
        <ele>170.1</ele>
        <time>2023-10-15T08:34:23Z</time>
      </trkpt>
      <trkpt lat="49.10164" lon="0.14208">
        <ele>170.1</ele>
        <time>2023-10-15T08:34:24Z</time>
      </trkpt>
      <trkpt lat="49.10173" lon="0.14203">
        <ele>170.1</ele>
        <time>2023-10-15T08:34:25Z</time>
      </trkpt>
      <trkpt lat="49.10182" lon="0.14199">
        <ele>170.2</ele>
        <time>2023-10-15T08:34:26Z</time>
      </trkpt>
      <trkpt lat="49.10191" lon="0.14195">
        <ele>170.2</ele>
        <time>2023-10-15T08:34:27Z</time>
      </trkpt>
      <trkpt lat="49.102" lon="0.14192">
        <ele>170.2</ele>
        <time>2023-10-15T08:34:28Z</time>
      </trkpt>
      <trkpt lat="49.10208" lon="0.14188">
        <ele>170.2</ele>
        <time>2023-10-15T08:34:29Z</time>
      </trkpt>
      <trkpt lat="49.10216" lon="0.14184">
        <ele>170.3</ele>
        <time>2023-10-15T08:34:30Z</time>
      </trkpt>
      <trkpt lat="49.10225" lon="0.1418">
        <ele>170.3</ele>
        <time>2023-10-15T08:34:31Z</time>
      </trkpt>
      <trkpt lat="49.10233" lon="0.14176">
        <ele>170.3</ele>
        <time>2023-10-15T08:34:32Z</time>
      </trkpt>
      <trkpt lat="49.10241" lon="0.14172">
        <ele>170.3</ele>
        <time>2023-10-15T08:34:33Z</time>
      </trkpt>
      <trkpt lat="49.10249" lon="0.14168">
        <ele>170.3</ele>
        <time>2023-10-15T08:34:34Z</time>
      </trkpt>
      <trkpt lat="49.10258" lon="0.14165">
        <ele>170.3</ele>
        <time>2023-10-15T08:34:35Z</time>
      </trkpt>
      <trkpt lat="49.10267" lon="0.14162">
        <ele>170.3</ele>
        <time>2023-10-15T08:34:36Z</time>
      </trkpt>
      <trkpt lat="49.10275" lon="0.14159">
        <ele>170.3</ele>
        <time>2023-10-15T08:34:37Z</time>
      </trkpt>
      <trkpt lat="49.10284" lon="0.14156">
        <ele>170.3</ele>
        <time>2023-10-15T08:34:38Z</time>
      </trkpt>
      <trkpt lat="49.10293" lon="0.14154">
        <ele>170.4</ele>
        <time>2023-10-15T08:34:39Z</time>
      </trkpt>
      <trkpt lat="49.10301" lon="0.14153">
        <ele>170.4</ele>
        <time>2023-10-15T08:34:40Z</time>
      </trkpt>
      <trkpt lat="49.1031" lon="0.14152">
        <ele>170.4</ele>
        <time>2023-10-15T08:34:41Z</time>
      </trkpt>
      <trkpt lat="49.10319" lon="0.1415">
        <ele>170.4</ele>
        <time>2023-10-15T08:34:42Z</time>
      </trkpt>
      <trkpt lat="49.10327" lon="0.14149">
        <ele>170.4</ele>
        <time>2023-10-15T08:34:43Z</time>
      </trkpt>
      <trkpt lat="49.10336" lon="0.14147">
        <ele>170.4</ele>
        <time>2023-10-15T08:34:44Z</time>
      </trkpt>
      <trkpt lat="49.10345" lon="0.14146">
        <ele>170.5</ele>
        <time>2023-10-15T08:34:45Z</time>
      </trkpt>
      <trkpt lat="49.10353" lon="0.14145">
        <ele>170.5</ele>
        <time>2023-10-15T08:34:46Z</time>
      </trkpt>
      <trkpt lat="49.10362" lon="0.14144">
        <ele>170.6</ele>
        <time>2023-10-15T08:34:47Z</time>
      </trkpt>
      <trkpt lat="49.1037" lon="0.14142">
        <ele>170.7</ele>
        <time>2023-10-15T08:34:48Z</time>
      </trkpt>
      <trkpt lat="49.10379" lon="0.14141">
        <ele>170.8</ele>
        <time>2023-10-15T08:34:49Z</time>
      </trkpt>
      <trkpt lat="49.10387" lon="0.1414">
        <ele>170.9</ele>
        <time>2023-10-15T08:34:50Z</time>
      </trkpt>
      <trkpt lat="49.10396" lon="0.14139">
        <ele>171</ele>
        <time>2023-10-15T08:34:51Z</time>
      </trkpt>
      <trkpt lat="49.10404" lon="0.14138">
        <ele>171.2</ele>
        <time>2023-10-15T08:34:52Z</time>
      </trkpt>
      <trkpt lat="49.10412" lon="0.14137">
        <ele>171.3</ele>
        <time>2023-10-15T08:34:53Z</time>
      </trkpt>
      <trkpt lat="49.1042" lon="0.14136">
        <ele>171.5</ele>
        <time>2023-10-15T08:34:54Z</time>
      </trkpt>
      <trkpt lat="49.10427" lon="0.14134">
        <ele>171.6</ele>
        <time>2023-10-15T08:34:55Z</time>
      </trkpt>
      <trkpt lat="49.10435" lon="0.14133">
        <ele>171.7</ele>
        <time>2023-10-15T08:34:56Z</time>
      </trkpt>
      <trkpt lat="49.10442" lon="0.14132">
        <ele>171.7</ele>
        <time>2023-10-15T08:34:57Z</time>
      </trkpt>
      <trkpt lat="49.1045" lon="0.1413">
        <ele>171.8</ele>
        <time>2023-10-15T08:34:58Z</time>
      </trkpt>
      <trkpt lat="49.10456" lon="0.14129">
        <ele>171.9</ele>
        <time>2023-10-15T08:34:59Z</time>
      </trkpt>
      <trkpt lat="49.10463" lon="0.14128">
        <ele>171.9</ele>
        <time>2023-10-15T08:35:00Z</time>
      </trkpt>
      <trkpt lat="49.10469" lon="0.14127">
        <ele>172</ele>
        <time>2023-10-15T08:35:01Z</time>
      </trkpt>
      <trkpt lat="49.10475" lon="0.14126">
        <ele>172.1</ele>
        <time>2023-10-15T08:35:02Z</time>
      </trkpt>
      <trkpt lat="49.10481" lon="0.14125">
        <ele>172.1</ele>
        <time>2023-10-15T08:35:03Z</time>
      </trkpt>
      <trkpt lat="49.10487" lon="0.14123">
        <ele>172.2</ele>
        <time>2023-10-15T08:35:04Z</time>
      </trkpt>
      <trkpt lat="49.10493" lon="0.14121">
        <ele>172.3</ele>
        <time>2023-10-15T08:35:05Z</time>
      </trkpt>
      <trkpt lat="49.10498" lon="0.1412">
        <ele>172.4</ele>
        <time>2023-10-15T08:35:06Z</time>
      </trkpt>
      <trkpt lat="49.10503" lon="0.14118">
        <ele>172.5</ele>
        <time>2023-10-15T08:35:07Z</time>
      </trkpt>
      <trkpt lat="49.10508" lon="0.14116">
        <ele>172.6</ele>
        <time>2023-10-15T08:35:08Z</time>
      </trkpt>
      <trkpt lat="49.10512" lon="0.14115">
        <ele>172.7</ele>
        <time>2023-10-15T08:35:09Z</time>
      </trkpt>
      <trkpt lat="49.10515" lon="0.14113">
        <ele>172.8</ele>
        <time>2023-10-15T08:35:10Z</time>
      </trkpt>
      <trkpt lat="49.10518" lon="0.14112">
        <ele>172.9</ele>
        <time>2023-10-15T08:35:11Z</time>
      </trkpt>
      <trkpt lat="49.10521" lon="0.1411">
        <ele>173</ele>
        <time>2023-10-15T08:35:12Z</time>
      </trkpt>
      <trkpt lat="49.10522" lon="0.14109">
        <ele>173</ele>
        <time>2023-10-15T08:35:13Z</time>
      </trkpt>
      <trkpt lat="49.10524" lon="0.14108">
        <ele>173.1</ele>
        <time>2023-10-15T08:35:14Z</time>
      </trkpt>
      <trkpt lat="49.10525" lon="0.14106">
        <ele>173.1</ele>
        <time>2023-10-15T08:35:15Z</time>
      </trkpt>
      <trkpt lat="49.10528" lon="0.14103">
        <ele>173.2</ele>
        <time>2023-10-15T08:35:16Z</time>
      </trkpt>
      <trkpt lat="49.10529" lon="0.14102">
        <ele>173.3</ele>
        <time>2023-10-15T08:35:17Z</time>
      </trkpt>
      <trkpt lat="49.10531" lon="0.14098">
        <ele>173.2</ele>
        <time>2023-10-15T08:35:18Z</time>
      </trkpt>
      <trkpt lat="49.10533" lon="0.14094">
        <ele>173.1</ele>
        <time>2023-10-15T08:35:19Z</time>
      </trkpt>
      <trkpt lat="49.10534" lon="0.14091">
        <ele>173</ele>
        <time>2023-10-15T08:35:20Z</time>
      </trkpt>
      <trkpt lat="49.10536" lon="0.14087">
        <ele>172.9</ele>
        <time>2023-10-15T08:35:21Z</time>
      </trkpt>
      <trkpt lat="49.10539" lon="0.14084">
        <ele>172.8</ele>
        <time>2023-10-15T08:35:22Z</time>
      </trkpt>
      <trkpt lat="49.10541" lon="0.14081">
        <ele>172.7</ele>
        <time>2023-10-15T08:35:23Z</time>
      </trkpt>
      <trkpt lat="49.10544" lon="0.14077">
        <ele>172.6</ele>
        <time>2023-10-15T08:35:24Z</time>
      </trkpt>
      <trkpt lat="49.10547" lon="0.14073">
        <ele>172.5</ele>
        <time>2023-10-15T08:35:25Z</time>
      </trkpt>
      <trkpt lat="49.1055" lon="0.14069">
        <ele>172.4</ele>
        <time>2023-10-15T08:35:26Z</time>
      </trkpt>
      <trkpt lat="49.10553" lon="0.14065">
        <ele>172.3</ele>
        <time>2023-10-15T08:35:27Z</time>
      </trkpt>
      <trkpt lat="49.10556" lon="0.1406">
        <ele>172.3</ele>
        <time>2023-10-15T08:35:28Z</time>
      </trkpt>
      <trkpt lat="49.10559" lon="0.14056">
        <ele>172.2</ele>
        <time>2023-10-15T08:35:29Z</time>
      </trkpt>
      <trkpt lat="49.10563" lon="0.14051">
        <ele>172.2</ele>
        <time>2023-10-15T08:35:30Z</time>
      </trkpt>
      <trkpt lat="49.10566" lon="0.14047">
        <ele>172.2</ele>
        <time>2023-10-15T08:35:31Z</time>
      </trkpt>
      <trkpt lat="49.1057" lon="0.14042">
        <ele>172.1</ele>
        <time>2023-10-15T08:35:32Z</time>
      </trkpt>
      <trkpt lat="49.10573" lon="0.14038">
        <ele>172.1</ele>
        <time>2023-10-15T08:35:33Z</time>
      </trkpt>
      <trkpt lat="49.10577" lon="0.14033">
        <ele>172.1</ele>
        <time>2023-10-15T08:35:34Z</time>
      </trkpt>
      <trkpt lat="49.10581" lon="0.14028">
        <ele>172.2</ele>
        <time>2023-10-15T08:35:35Z</time>
      </trkpt>
      <trkpt lat="49.10585" lon="0.14022">
        <ele>172.2</ele>
        <time>2023-10-15T08:35:36Z</time>
      </trkpt>
      <trkpt lat="49.1059" lon="0.14016">
        <ele>172.2</ele>
        <time>2023-10-15T08:35:37Z</time>
      </trkpt>
      <trkpt lat="49.10593" lon="0.14011">
        <ele>172.2</ele>
        <time>2023-10-15T08:35:38Z</time>
      </trkpt>
      <trkpt lat="49.10597" lon="0.14006">
        <ele>172.2</ele>
        <time>2023-10-15T08:35:39Z</time>
      </trkpt>
      <trkpt lat="49.10602" lon="0.14">
        <ele>172.2</ele>
        <time>2023-10-15T08:35:40Z</time>
      </trkpt>
      <trkpt lat="49.10606" lon="0.13994">
        <ele>172.2</ele>
        <time>2023-10-15T08:35:41Z</time>
      </trkpt>
      <trkpt lat="49.10611" lon="0.13989">
        <ele>172.2</ele>
        <time>2023-10-15T08:35:42Z</time>
      </trkpt>
      <trkpt lat="49.10616" lon="0.13983">
        <ele>172.2</ele>
        <time>2023-10-15T08:35:43Z</time>
      </trkpt>
      <trkpt lat="49.10621" lon="0.13978">
        <ele>172.2</ele>
        <time>2023-10-15T08:35:44Z</time>
      </trkpt>
      <trkpt lat="49.10626" lon="0.13973">
        <ele>172.2</ele>
        <time>2023-10-15T08:35:45Z</time>
      </trkpt>
      <trkpt lat="49.10631" lon="0.13968">
        <ele>172.3</ele>
        <time>2023-10-15T08:35:46Z</time>
      </trkpt>
      <trkpt lat="49.10636" lon="0.13964">
        <ele>172.3</ele>
        <time>2023-10-15T08:35:47Z</time>
      </trkpt>
      <trkpt lat="49.10641" lon="0.1396">
        <ele>172.4</ele>
        <time>2023-10-15T08:35:48Z</time>
      </trkpt>
      <trkpt lat="49.10646" lon="0.13956">
        <ele>172.4</ele>
        <time>2023-10-15T08:35:49Z</time>
      </trkpt>
      <trkpt lat="49.1065" lon="0.13952">
        <ele>172.5</ele>
        <time>2023-10-15T08:35:50Z</time>
      </trkpt>
      <trkpt lat="49.10655" lon="0.13948">
        <ele>172.5</ele>
        <time>2023-10-15T08:35:51Z</time>
      </trkpt>
      <trkpt lat="49.1066" lon="0.13945">
        <ele>172.5</ele>
        <time>2023-10-15T08:35:52Z</time>
      </trkpt>
      <trkpt lat="49.10665" lon="0.13941">
        <ele>172.6</ele>
        <time>2023-10-15T08:35:53Z</time>
      </trkpt>
      <trkpt lat="49.1067" lon="0.13937">
        <ele>172.6</ele>
        <time>2023-10-15T08:35:54Z</time>
      </trkpt>
      <trkpt lat="49.10675" lon="0.13934">
        <ele>172.7</ele>
        <time>2023-10-15T08:35:55Z</time>
      </trkpt>
      <trkpt lat="49.10681" lon="0.1393">
        <ele>172.7</ele>
        <time>2023-10-15T08:35:56Z</time>
      </trkpt>
      <trkpt lat="49.10686" lon="0.13926">
        <ele>172.8</ele>
        <time>2023-10-15T08:35:57Z</time>
      </trkpt>
      <trkpt lat="49.10691" lon="0.13923">
        <ele>172.8</ele>
        <time>2023-10-15T08:35:58Z</time>
      </trkpt>
      <trkpt lat="49.10696" lon="0.13919">
        <ele>172.9</ele>
        <time>2023-10-15T08:35:59Z</time>
      </trkpt>
      <trkpt lat="49.10702" lon="0.13916">
        <ele>172.9</ele>
        <time>2023-10-15T08:36:00Z</time>
      </trkpt>
      <trkpt lat="49.10707" lon="0.13913">
        <ele>173</ele>
        <time>2023-10-15T08:36:01Z</time>
      </trkpt>
      <trkpt lat="49.10713" lon="0.1391">
        <ele>173</ele>
        <time>2023-10-15T08:36:02Z</time>
      </trkpt>
      <trkpt lat="49.10718" lon="0.13908">
        <ele>173.1</ele>
        <time>2023-10-15T08:36:03Z</time>
      </trkpt>
      <trkpt lat="49.10724" lon="0.13905">
        <ele>173.1</ele>
        <time>2023-10-15T08:36:04Z</time>
      </trkpt>
      <trkpt lat="49.10729" lon="0.13903">
        <ele>173.1</ele>
        <time>2023-10-15T08:36:05Z</time>
      </trkpt>
      <trkpt lat="49.10734" lon="0.139">
        <ele>173.1</ele>
        <time>2023-10-15T08:36:06Z</time>
      </trkpt>
      <trkpt lat="49.10739" lon="0.13898">
        <ele>173.1</ele>
        <time>2023-10-15T08:36:07Z</time>
      </trkpt>
      <trkpt lat="49.10745" lon="0.13896">
        <ele>173.1</ele>
        <time>2023-10-15T08:36:08Z</time>
      </trkpt>
      <trkpt lat="49.10751" lon="0.13893">
        <ele>173.1</ele>
        <time>2023-10-15T08:36:09Z</time>
      </trkpt>
      <trkpt lat="49.10758" lon="0.13891">
        <ele>173</ele>
        <time>2023-10-15T08:36:10Z</time>
      </trkpt>
      <trkpt lat="49.10764" lon="0.13888">
        <ele>173</ele>
        <time>2023-10-15T08:36:11Z</time>
      </trkpt>
      <trkpt lat="49.1077" lon="0.13885">
        <ele>173</ele>
        <time>2023-10-15T08:36:12Z</time>
      </trkpt>
      <trkpt lat="49.10776" lon="0.13882">
        <ele>173</ele>
        <time>2023-10-15T08:36:13Z</time>
      </trkpt>
      <trkpt lat="49.10782" lon="0.13878">
        <ele>173</ele>
        <time>2023-10-15T08:36:14Z</time>
      </trkpt>
      <trkpt lat="49.10788" lon="0.13875">
        <ele>173</ele>
        <time>2023-10-15T08:36:15Z</time>
      </trkpt>
      <trkpt lat="49.10794" lon="0.13871">
        <ele>173</ele>
        <time>2023-10-15T08:36:16Z</time>
      </trkpt>
      <trkpt lat="49.10799" lon="0.13866">
        <ele>173.1</ele>
        <time>2023-10-15T08:36:17Z</time>
      </trkpt>
      <trkpt lat="49.10804" lon="0.13862">
        <ele>173.1</ele>
        <time>2023-10-15T08:36:18Z</time>
      </trkpt>
      <trkpt lat="49.10809" lon="0.13858">
        <ele>173.1</ele>
        <time>2023-10-15T08:36:19Z</time>
      </trkpt>
      <trkpt lat="49.10814" lon="0.13853">
        <ele>173.1</ele>
        <time>2023-10-15T08:36:20Z</time>
      </trkpt>
      <trkpt lat="49.10818" lon="0.13848">
        <ele>173.1</ele>
        <time>2023-10-15T08:36:21Z</time>
      </trkpt>
      <trkpt lat="49.10822" lon="0.13843">
        <ele>173.1</ele>
        <time>2023-10-15T08:36:22Z</time>
      </trkpt>
      <trkpt lat="49.10827" lon="0.13838">
        <ele>173.1</ele>
        <time>2023-10-15T08:36:23Z</time>
      </trkpt>
      <trkpt lat="49.10831" lon="0.13832">
        <ele>173</ele>
        <time>2023-10-15T08:36:24Z</time>
      </trkpt>
      <trkpt lat="49.10835" lon="0.13827">
        <ele>173</ele>
        <time>2023-10-15T08:36:25Z</time>
      </trkpt>
      <trkpt lat="49.1084" lon="0.13821">
        <ele>173</ele>
        <time>2023-10-15T08:36:26Z</time>
      </trkpt>
      <trkpt lat="49.10844" lon="0.13815">
        <ele>173</ele>
        <time>2023-10-15T08:36:27Z</time>
      </trkpt>
      <trkpt lat="49.10849" lon="0.13809">
        <ele>173</ele>
        <time>2023-10-15T08:36:28Z</time>
      </trkpt>
      <trkpt lat="49.10853" lon="0.13803">
        <ele>172.9</ele>
        <time>2023-10-15T08:36:29Z</time>
      </trkpt>
      <trkpt lat="49.10858" lon="0.13797">
        <ele>172.9</ele>
        <time>2023-10-15T08:36:30Z</time>
      </trkpt>
      <trkpt lat="49.10862" lon="0.13791">
        <ele>172.9</ele>
        <time>2023-10-15T08:36:31Z</time>
      </trkpt>
      <trkpt lat="49.10867" lon="0.13785">
        <ele>172.8</ele>
        <time>2023-10-15T08:36:32Z</time>
      </trkpt>
      <trkpt lat="49.10871" lon="0.13779">
        <ele>172.8</ele>
        <time>2023-10-15T08:36:33Z</time>
      </trkpt>
      <trkpt lat="49.10876" lon="0.13773">
        <ele>172.7</ele>
        <time>2023-10-15T08:36:34Z</time>
      </trkpt>
      <trkpt lat="49.10881" lon="0.13767">
        <ele>172.6</ele>
        <time>2023-10-15T08:36:35Z</time>
      </trkpt>
      <trkpt lat="49.10885" lon="0.13762">
        <ele>172.6</ele>
        <time>2023-10-15T08:36:36Z</time>
      </trkpt>
      <trkpt lat="49.1089" lon="0.13756">
        <ele>172.5</ele>
        <time>2023-10-15T08:36:37Z</time>
      </trkpt>
      <trkpt lat="49.10894" lon="0.13751">
        <ele>172.5</ele>
        <time>2023-10-15T08:36:38Z</time>
      </trkpt>
      <trkpt lat="49.10899" lon="0.13746">
        <ele>172.4</ele>
        <time>2023-10-15T08:36:39Z</time>
      </trkpt>
      <trkpt lat="49.10904" lon="0.13741">
        <ele>172.4</ele>
        <time>2023-10-15T08:36:40Z</time>
      </trkpt>
      <trkpt lat="49.10909" lon="0.13736">
        <ele>172.3</ele>
        <time>2023-10-15T08:36:41Z</time>
      </trkpt>
      <trkpt lat="49.10915" lon="0.13731">
        <ele>172.3</ele>
        <time>2023-10-15T08:36:42Z</time>
      </trkpt>
      <trkpt lat="49.1092" lon="0.13726">
        <ele>172.2</ele>
        <time>2023-10-15T08:36:43Z</time>
      </trkpt>
      <trkpt lat="49.10926" lon="0.13721">
        <ele>172.1</ele>
        <time>2023-10-15T08:36:44Z</time>
      </trkpt>
      <trkpt lat="49.10931" lon="0.13717">
        <ele>172.1</ele>
        <time>2023-10-15T08:36:45Z</time>
      </trkpt>
      <trkpt lat="49.10937" lon="0.13712">
        <ele>172</ele>
        <time>2023-10-15T08:36:46Z</time>
      </trkpt>
      <trkpt lat="49.10942" lon="0.13708">
        <ele>171.9</ele>
        <time>2023-10-15T08:36:47Z</time>
      </trkpt>
      <trkpt lat="49.10948" lon="0.13705">
        <ele>171.9</ele>
        <time>2023-10-15T08:36:48Z</time>
      </trkpt>
      <trkpt lat="49.10954" lon="0.13702">
        <ele>171.8</ele>
        <time>2023-10-15T08:36:49Z</time>
      </trkpt>
      <trkpt lat="49.1096" lon="0.13698">
        <ele>171.8</ele>
        <time>2023-10-15T08:36:50Z</time>
      </trkpt>
      <trkpt lat="49.10967" lon="0.13695">
        <ele>171.8</ele>
        <time>2023-10-15T08:36:51Z</time>
      </trkpt>
      <trkpt lat="49.10973" lon="0.13693">
        <ele>171.7</ele>
        <time>2023-10-15T08:36:52Z</time>
      </trkpt>
      <trkpt lat="49.10979" lon="0.13691">
        <ele>171.7</ele>
        <time>2023-10-15T08:36:53Z</time>
      </trkpt>
      <trkpt lat="49.10986" lon="0.13689">
        <ele>171.6</ele>
        <time>2023-10-15T08:36:54Z</time>
      </trkpt>
      <trkpt lat="49.10992" lon="0.13687">
        <ele>171.6</ele>
        <time>2023-10-15T08:36:55Z</time>
      </trkpt>
      <trkpt lat="49.10999" lon="0.13686">
        <ele>171.6</ele>
        <time>2023-10-15T08:36:56Z</time>
      </trkpt>
      <trkpt lat="49.11005" lon="0.13684">
        <ele>171.6</ele>
        <time>2023-10-15T08:36:57Z</time>
      </trkpt>
      <trkpt lat="49.11011" lon="0.13683">
        <ele>171.6</ele>
        <time>2023-10-15T08:36:58Z</time>
      </trkpt>
      <trkpt lat="49.11018" lon="0.13682">
        <ele>171.5</ele>
        <time>2023-10-15T08:36:59Z</time>
      </trkpt>
      <trkpt lat="49.11024" lon="0.13682">
        <ele>171.5</ele>
        <time>2023-10-15T08:37:00Z</time>
      </trkpt>
      <trkpt lat="49.11031" lon="0.13682">
        <ele>171.4</ele>
        <time>2023-10-15T08:37:01Z</time>
      </trkpt>
      <trkpt lat="49.11037" lon="0.13682">
        <ele>171.4</ele>
        <time>2023-10-15T08:37:02Z</time>
      </trkpt>
      <trkpt lat="49.11044" lon="0.13683">
        <ele>171.3</ele>
        <time>2023-10-15T08:37:03Z</time>
      </trkpt>
      <trkpt lat="49.11051" lon="0.13684">
        <ele>171.3</ele>
        <time>2023-10-15T08:37:04Z</time>
      </trkpt>
      <trkpt lat="49.11058" lon="0.13686">
        <ele>171.2</ele>
        <time>2023-10-15T08:37:05Z</time>
      </trkpt>
      <trkpt lat="49.11064" lon="0.13688">
        <ele>171.2</ele>
        <time>2023-10-15T08:37:06Z</time>
      </trkpt>
      <trkpt lat="49.11071" lon="0.1369">
        <ele>171.2</ele>
        <time>2023-10-15T08:37:07Z</time>
      </trkpt>
      <trkpt lat="49.11078" lon="0.13693">
        <ele>171.2</ele>
        <time>2023-10-15T08:37:08Z</time>
      </trkpt>
      <trkpt lat="49.11085" lon="0.13695">
        <ele>171.1</ele>
        <time>2023-10-15T08:37:09Z</time>
      </trkpt>
      <trkpt lat="49.11093" lon="0.13698">
        <ele>171.1</ele>
        <time>2023-10-15T08:37:10Z</time>
      </trkpt>
      <trkpt lat="49.11106" lon="0.13705">
        <ele>171.2</ele>
        <time>2023-10-15T08:37:12Z</time>
      </trkpt>
      <trkpt lat="49.11113" lon="0.13709">
        <ele>171.2</ele>
        <time>2023-10-15T08:37:13Z</time>
      </trkpt>
      <trkpt lat="49.1112" lon="0.13712">
        <ele>171.2</ele>
        <time>2023-10-15T08:37:14Z</time>
      </trkpt>
      <trkpt lat="49.11126" lon="0.13716">
        <ele>171.2</ele>
        <time>2023-10-15T08:37:15Z</time>
      </trkpt>
      <trkpt lat="49.11133" lon="0.1372">
        <ele>171.2</ele>
        <time>2023-10-15T08:37:16Z</time>
      </trkpt>
      <trkpt lat="49.1114" lon="0.13724">
        <ele>171.2</ele>
        <time>2023-10-15T08:37:17Z</time>
      </trkpt>
      <trkpt lat="49.11147" lon="0.13728">
        <ele>171.2</ele>
        <time>2023-10-15T08:37:18Z</time>
      </trkpt>
      <trkpt lat="49.11154" lon="0.13731">
        <ele>171.2</ele>
        <time>2023-10-15T08:37:19Z</time>
      </trkpt>
      <trkpt lat="49.11161" lon="0.13735">
        <ele>171.2</ele>
        <time>2023-10-15T08:37:20Z</time>
      </trkpt>
      <trkpt lat="49.11168" lon="0.13738">
        <ele>171.2</ele>
        <time>2023-10-15T08:37:21Z</time>
      </trkpt>
      <trkpt lat="49.11175" lon="0.13741">
        <ele>171.2</ele>
        <time>2023-10-15T08:37:22Z</time>
      </trkpt>
      <trkpt lat="49.11182" lon="0.13745">
        <ele>171.1</ele>
        <time>2023-10-15T08:37:23Z</time>
      </trkpt>
      <trkpt lat="49.11189" lon="0.13748">
        <ele>171.1</ele>
        <time>2023-10-15T08:37:24Z</time>
      </trkpt>
      <trkpt lat="49.11196" lon="0.13752">
        <ele>171.1</ele>
        <time>2023-10-15T08:37:25Z</time>
      </trkpt>
      <trkpt lat="49.11203" lon="0.13755">
        <ele>171.1</ele>
        <time>2023-10-15T08:37:26Z</time>
      </trkpt>
      <trkpt lat="49.1121" lon="0.13759">
        <ele>171.1</ele>
        <time>2023-10-15T08:37:27Z</time>
      </trkpt>
      <trkpt lat="49.11217" lon="0.13763">
        <ele>171.1</ele>
        <time>2023-10-15T08:37:28Z</time>
      </trkpt>
      <trkpt lat="49.11224" lon="0.13767">
        <ele>171.1</ele>
        <time>2023-10-15T08:37:29Z</time>
      </trkpt>
      <trkpt lat="49.11231" lon="0.13771">
        <ele>171.1</ele>
        <time>2023-10-15T08:37:30Z</time>
      </trkpt>
      <trkpt lat="49.11238" lon="0.13775">
        <ele>171.1</ele>
        <time>2023-10-15T08:37:31Z</time>
      </trkpt>
      <trkpt lat="49.11245" lon="0.13779">
        <ele>171.1</ele>
        <time>2023-10-15T08:37:32Z</time>
      </trkpt>
      <trkpt lat="49.11253" lon="0.13782">
        <ele>171.1</ele>
        <time>2023-10-15T08:37:33Z</time>
      </trkpt>
      <trkpt lat="49.1126" lon="0.13786">
        <ele>171.1</ele>
        <time>2023-10-15T08:37:34Z</time>
      </trkpt>
      <trkpt lat="49.11267" lon="0.1379">
        <ele>171.1</ele>
        <time>2023-10-15T08:37:35Z</time>
      </trkpt>
      <trkpt lat="49.11274" lon="0.13794">
        <ele>171.1</ele>
        <time>2023-10-15T08:37:36Z</time>
      </trkpt>
      <trkpt lat="49.11281" lon="0.13797">
        <ele>171.1</ele>
        <time>2023-10-15T08:37:37Z</time>
      </trkpt>
      <trkpt lat="49.11288" lon="0.13801">
        <ele>171.1</ele>
        <time>2023-10-15T08:37:38Z</time>
      </trkpt>
      <trkpt lat="49.11296" lon="0.13805">
        <ele>171.1</ele>
        <time>2023-10-15T08:37:39Z</time>
      </trkpt>
      <trkpt lat="49.11303" lon="0.13809">
        <ele>171.2</ele>
        <time>2023-10-15T08:37:40Z</time>
      </trkpt>
      <trkpt lat="49.1131" lon="0.13813">
        <ele>171.2</ele>
        <time>2023-10-15T08:37:41Z</time>
      </trkpt>
      <trkpt lat="49.11318" lon="0.13817">
        <ele>171.3</ele>
        <time>2023-10-15T08:37:42Z</time>
      </trkpt>
      <trkpt lat="49.11325" lon="0.13821">
        <ele>171.3</ele>
        <time>2023-10-15T08:37:43Z</time>
      </trkpt>
      <trkpt lat="49.11333" lon="0.13825">
        <ele>171.3</ele>
        <time>2023-10-15T08:37:44Z</time>
      </trkpt>
      <trkpt lat="49.11341" lon="0.13828">
        <ele>171.4</ele>
        <time>2023-10-15T08:37:45Z</time>
      </trkpt>
      <trkpt lat="49.11349" lon="0.13832">
        <ele>171.5</ele>
        <time>2023-10-15T08:37:46Z</time>
      </trkpt>
      <trkpt lat="49.11357" lon="0.13835">
        <ele>171.6</ele>
        <time>2023-10-15T08:37:47Z</time>
      </trkpt>
      <trkpt lat="49.11372" lon="0.13841">
        <ele>171.8</ele>
        <time>2023-10-15T08:37:49Z</time>
      </trkpt>
      <trkpt lat="49.11379" lon="0.13844">
        <ele>171.9</ele>
        <time>2023-10-15T08:37:50Z</time>
      </trkpt>
      <trkpt lat="49.11386" lon="0.13847">
        <ele>172</ele>
        <time>2023-10-15T08:37:51Z</time>
      </trkpt>
      <trkpt lat="49.11393" lon="0.13851">
        <ele>172</ele>
        <time>2023-10-15T08:37:52Z</time>
      </trkpt>
      <trkpt lat="49.11399" lon="0.13855">
        <ele>172</ele>
        <time>2023-10-15T08:37:53Z</time>
      </trkpt>
      <trkpt lat="49.11406" lon="0.13858">
        <ele>172.1</ele>
        <time>2023-10-15T08:37:54Z</time>
      </trkpt>
      <trkpt lat="49.11414" lon="0.13861">
        <ele>172.2</ele>
        <time>2023-10-15T08:37:55Z</time>
      </trkpt>
      <trkpt lat="49.11422" lon="0.13864">
        <ele>172.3</ele>
        <time>2023-10-15T08:37:56Z</time>
      </trkpt>
      <trkpt lat="49.1143" lon="0.13867">
        <ele>172.3</ele>
        <time>2023-10-15T08:37:57Z</time>
      </trkpt>
      <trkpt lat="49.11438" lon="0.1387">
        <ele>172.3</ele>
        <time>2023-10-15T08:37:58Z</time>
      </trkpt>
      <trkpt lat="49.11446" lon="0.13874">
        <ele>172.4</ele>
        <time>2023-10-15T08:37:59Z</time>
      </trkpt>
      <trkpt lat="49.11453" lon="0.13878">
        <ele>172.4</ele>
        <time>2023-10-15T08:38:00Z</time>
      </trkpt>
      <trkpt lat="49.11461" lon="0.13882">
        <ele>172.5</ele>
        <time>2023-10-15T08:38:01Z</time>
      </trkpt>
      <trkpt lat="49.11468" lon="0.13885">
        <ele>172.6</ele>
        <time>2023-10-15T08:38:02Z</time>
      </trkpt>
      <trkpt lat="49.11476" lon="0.13888">
        <ele>172.7</ele>
        <time>2023-10-15T08:38:03Z</time>
      </trkpt>
      <trkpt lat="49.11483" lon="0.13891">
        <ele>172.7</ele>
        <time>2023-10-15T08:38:04Z</time>
      </trkpt>
      <trkpt lat="49.1149" lon="0.13893">
        <ele>172.8</ele>
        <time>2023-10-15T08:38:05Z</time>
      </trkpt>
      <trkpt lat="49.11497" lon="0.13896">
        <ele>173</ele>
        <time>2023-10-15T08:38:06Z</time>
      </trkpt>
      <trkpt lat="49.11504" lon="0.13898">
        <ele>173.1</ele>
        <time>2023-10-15T08:38:07Z</time>
      </trkpt>
      <trkpt lat="49.11512" lon="0.139">
        <ele>173.2</ele>
        <time>2023-10-15T08:38:08Z</time>
      </trkpt>
      <trkpt lat="49.11519" lon="0.13901">
        <ele>173.3</ele>
        <time>2023-10-15T08:38:09Z</time>
      </trkpt>
      <trkpt lat="49.11526" lon="0.13902">
        <ele>173.4</ele>
        <time>2023-10-15T08:38:10Z</time>
      </trkpt>
      <trkpt lat="49.11533" lon="0.13903">
        <ele>173.5</ele>
        <time>2023-10-15T08:38:11Z</time>
      </trkpt>
      <trkpt lat="49.1154" lon="0.13904">
        <ele>173.6</ele>
        <time>2023-10-15T08:38:12Z</time>
      </trkpt>
      <trkpt lat="49.11547" lon="0.13903">
        <ele>173.7</ele>
        <time>2023-10-15T08:38:13Z</time>
      </trkpt>
      <trkpt lat="49.11554" lon="0.13903">
        <ele>173.8</ele>
        <time>2023-10-15T08:38:14Z</time>
      </trkpt>
      <trkpt lat="49.11561" lon="0.13902">
        <ele>173.9</ele>
        <time>2023-10-15T08:38:15Z</time>
      </trkpt>
      <trkpt lat="49.11568" lon="0.13901">
        <ele>173.9</ele>
        <time>2023-10-15T08:38:16Z</time>
      </trkpt>
      <trkpt lat="49.11576" lon="0.13899">
        <ele>173.9</ele>
        <time>2023-10-15T08:38:17Z</time>
      </trkpt>
      <trkpt lat="49.11583" lon="0.13897">
        <ele>174</ele>
        <time>2023-10-15T08:38:18Z</time>
      </trkpt>
      <trkpt lat="49.1159" lon="0.13896">
        <ele>174</ele>
        <time>2023-10-15T08:38:19Z</time>
      </trkpt>
      <trkpt lat="49.11598" lon="0.13894">
        <ele>174</ele>
        <time>2023-10-15T08:38:20Z</time>
      </trkpt>
      <trkpt lat="49.11605" lon="0.13892">
        <ele>174.1</ele>
        <time>2023-10-15T08:38:21Z</time>
      </trkpt>
      <trkpt lat="49.11612" lon="0.1389">
        <ele>174.1</ele>
        <time>2023-10-15T08:38:22Z</time>
      </trkpt>
      <trkpt lat="49.11619" lon="0.13887">
        <ele>174.1</ele>
        <time>2023-10-15T08:38:23Z</time>
      </trkpt>
      <trkpt lat="49.11626" lon="0.13885">
        <ele>174.2</ele>
        <time>2023-10-15T08:38:24Z</time>
      </trkpt>
      <trkpt lat="49.11633" lon="0.13883">
        <ele>174.2</ele>
        <time>2023-10-15T08:38:25Z</time>
      </trkpt>
      <trkpt lat="49.1164" lon="0.13882">
        <ele>174.3</ele>
        <time>2023-10-15T08:38:26Z</time>
      </trkpt>
      <trkpt lat="49.11647" lon="0.1388">
        <ele>174.3</ele>
        <time>2023-10-15T08:38:27Z</time>
      </trkpt>
      <trkpt lat="49.11654" lon="0.13878">
        <ele>174.3</ele>
        <time>2023-10-15T08:38:28Z</time>
      </trkpt>
      <trkpt lat="49.11661" lon="0.13876">
        <ele>174.3</ele>
        <time>2023-10-15T08:38:29Z</time>
      </trkpt>
      <trkpt lat="49.11669" lon="0.13874">
        <ele>174.3</ele>
        <time>2023-10-15T08:38:30Z</time>
      </trkpt>
      <trkpt lat="49.11677" lon="0.13872">
        <ele>174.2</ele>
        <time>2023-10-15T08:38:31Z</time>
      </trkpt>
      <trkpt lat="49.11685" lon="0.13869">
        <ele>174.3</ele>
        <time>2023-10-15T08:38:32Z</time>
      </trkpt>
      <trkpt lat="49.11694" lon="0.13866">
        <ele>174.3</ele>
        <time>2023-10-15T08:38:33Z</time>
      </trkpt>
      <trkpt lat="49.11701" lon="0.13863">
        <ele>174.4</ele>
        <time>2023-10-15T08:38:34Z</time>
      </trkpt>
      <trkpt lat="49.11709" lon="0.1386">
        <ele>174.5</ele>
        <time>2023-10-15T08:38:35Z</time>
      </trkpt>
      <trkpt lat="49.11717" lon="0.13858">
        <ele>174.6</ele>
        <time>2023-10-15T08:38:36Z</time>
      </trkpt>
      <trkpt lat="49.11725" lon="0.13855">
        <ele>174.7</ele>
        <time>2023-10-15T08:38:37Z</time>
      </trkpt>
      <trkpt lat="49.11733" lon="0.13853">
        <ele>174.7</ele>
        <time>2023-10-15T08:38:38Z</time>
      </trkpt>
      <trkpt lat="49.11741" lon="0.13851">
        <ele>174.8</ele>
        <time>2023-10-15T08:38:39Z</time>
      </trkpt>
      <trkpt lat="49.11748" lon="0.1385">
        <ele>174.9</ele>
        <time>2023-10-15T08:38:40Z</time>
      </trkpt>
      <trkpt lat="49.11755" lon="0.13848">
        <ele>175</ele>
        <time>2023-10-15T08:38:41Z</time>
      </trkpt>
      <trkpt lat="49.11762" lon="0.13846">
        <ele>175.1</ele>
        <time>2023-10-15T08:38:42Z</time>
      </trkpt>
      <trkpt lat="49.1177" lon="0.13844">
        <ele>175.2</ele>
        <time>2023-10-15T08:38:43Z</time>
      </trkpt>
      <trkpt lat="49.11778" lon="0.13843">
        <ele>175.3</ele>
        <time>2023-10-15T08:38:44Z</time>
      </trkpt>
      <trkpt lat="49.11786" lon="0.1384">
        <ele>175.4</ele>
        <time>2023-10-15T08:38:45Z</time>
      </trkpt>
      <trkpt lat="49.11793" lon="0.13838">
        <ele>175.4</ele>
        <time>2023-10-15T08:38:46Z</time>
      </trkpt>
      <trkpt lat="49.11801" lon="0.13836">
        <ele>175.5</ele>
        <time>2023-10-15T08:38:47Z</time>
      </trkpt>
      <trkpt lat="49.11809" lon="0.13834">
        <ele>175.5</ele>
        <time>2023-10-15T08:38:48Z</time>
      </trkpt>
      <trkpt lat="49.11817" lon="0.13831">
        <ele>175.5</ele>
        <time>2023-10-15T08:38:49Z</time>
      </trkpt>
      <trkpt lat="49.11826" lon="0.13828">
        <ele>175.5</ele>
        <time>2023-10-15T08:38:50Z</time>
      </trkpt>
      <trkpt lat="49.11834" lon="0.13825">
        <ele>175.5</ele>
        <time>2023-10-15T08:38:51Z</time>
      </trkpt>
      <trkpt lat="49.11842" lon="0.13823">
        <ele>175.4</ele>
        <time>2023-10-15T08:38:52Z</time>
      </trkpt>
      <trkpt lat="49.1185" lon="0.13821">
        <ele>175.4</ele>
        <time>2023-10-15T08:38:53Z</time>
      </trkpt>
      <trkpt lat="49.11859" lon="0.13819">
        <ele>175.3</ele>
        <time>2023-10-15T08:38:54Z</time>
      </trkpt>
      <trkpt lat="49.11867" lon="0.13817">
        <ele>175.3</ele>
        <time>2023-10-15T08:38:55Z</time>
      </trkpt>
      <trkpt lat="49.11875" lon="0.13816">
        <ele>175.2</ele>
        <time>2023-10-15T08:38:56Z</time>
      </trkpt>
      <trkpt lat="49.11883" lon="0.13816">
        <ele>175.2</ele>
        <time>2023-10-15T08:38:57Z</time>
      </trkpt>
      <trkpt lat="49.11891" lon="0.13815">
        <ele>175.1</ele>
        <time>2023-10-15T08:38:58Z</time>
      </trkpt>
      <trkpt lat="49.119" lon="0.13815">
        <ele>174.9</ele>
        <time>2023-10-15T08:38:59Z</time>
      </trkpt>
      <trkpt lat="49.11908" lon="0.13815">
        <ele>174.8</ele>
        <time>2023-10-15T08:39:00Z</time>
      </trkpt>
      <trkpt lat="49.11917" lon="0.13816">
        <ele>174.7</ele>
        <time>2023-10-15T08:39:01Z</time>
      </trkpt>
      <trkpt lat="49.11926" lon="0.13817">
        <ele>174.6</ele>
        <time>2023-10-15T08:39:02Z</time>
      </trkpt>
      <trkpt lat="49.11935" lon="0.13818">
        <ele>174.4</ele>
        <time>2023-10-15T08:39:03Z</time>
      </trkpt>
      <trkpt lat="49.11944" lon="0.13819">
        <ele>174.3</ele>
        <time>2023-10-15T08:39:04Z</time>
      </trkpt>
      <trkpt lat="49.11952" lon="0.1382">
        <ele>174.2</ele>
        <time>2023-10-15T08:39:05Z</time>
      </trkpt>
      <trkpt lat="49.11961" lon="0.13821">
        <ele>174.1</ele>
        <time>2023-10-15T08:39:06Z</time>
      </trkpt>
      <trkpt lat="49.1197" lon="0.13822">
        <ele>174</ele>
        <time>2023-10-15T08:39:07Z</time>
      </trkpt>
      <trkpt lat="49.11979" lon="0.13823">
        <ele>173.9</ele>
        <time>2023-10-15T08:39:08Z</time>
      </trkpt>
      <trkpt lat="49.11988" lon="0.13823">
        <ele>173.8</ele>
        <time>2023-10-15T08:39:09Z</time>
      </trkpt>
      <trkpt lat="49.11997" lon="0.13822">
        <ele>173.6</ele>
        <time>2023-10-15T08:39:10Z</time>
      </trkpt>
      <trkpt lat="49.12005" lon="0.13821">
        <ele>173.5</ele>
        <time>2023-10-15T08:39:11Z</time>
      </trkpt>
      <trkpt lat="49.12014" lon="0.13818">
        <ele>173.3</ele>
        <time>2023-10-15T08:39:12Z</time>
      </trkpt>
      <trkpt lat="49.12023" lon="0.13814">
        <ele>173.2</ele>
        <time>2023-10-15T08:39:13Z</time>
      </trkpt>
      <trkpt lat="49.12031" lon="0.13809">
        <ele>173.1</ele>
        <time>2023-10-15T08:39:14Z</time>
      </trkpt>
      <trkpt lat="49.12039" lon="0.13803">
        <ele>173</ele>
        <time>2023-10-15T08:39:15Z</time>
      </trkpt>
      <trkpt lat="49.12047" lon="0.13798">
        <ele>172.9</ele>
        <time>2023-10-15T08:39:16Z</time>
      </trkpt>
      <trkpt lat="49.12055" lon="0.13793">
        <ele>172.8</ele>
        <time>2023-10-15T08:39:17Z</time>
      </trkpt>
      <trkpt lat="49.12063" lon="0.13788">
        <ele>172.8</ele>
        <time>2023-10-15T08:39:18Z</time>
      </trkpt>
      <trkpt lat="49.12071" lon="0.13784">
        <ele>172.7</ele>
        <time>2023-10-15T08:39:19Z</time>
      </trkpt>
      <trkpt lat="49.1208" lon="0.1378">
        <ele>172.6</ele>
        <time>2023-10-15T08:39:20Z</time>
      </trkpt>
      <trkpt lat="49.12088" lon="0.13776">
        <ele>172.5</ele>
        <time>2023-10-15T08:39:21Z</time>
      </trkpt>
      <trkpt lat="49.12096" lon="0.13772">
        <ele>172.4</ele>
        <time>2023-10-15T08:39:22Z</time>
      </trkpt>
      <trkpt lat="49.12105" lon="0.13768">
        <ele>172.3</ele>
        <time>2023-10-15T08:39:23Z</time>
      </trkpt>
      <trkpt lat="49.12114" lon="0.13766">
        <ele>172.2</ele>
        <time>2023-10-15T08:39:24Z</time>
      </trkpt>
      <trkpt lat="49.12123" lon="0.13764">
        <ele>172.1</ele>
        <time>2023-10-15T08:39:25Z</time>
      </trkpt>
      <trkpt lat="49.12132" lon="0.13764">
        <ele>172</ele>
        <time>2023-10-15T08:39:26Z</time>
      </trkpt>
      <trkpt lat="49.12141" lon="0.13765">
        <ele>172</ele>
        <time>2023-10-15T08:39:27Z</time>
      </trkpt>
      <trkpt lat="49.1215" lon="0.13766">
        <ele>171.9</ele>
        <time>2023-10-15T08:39:28Z</time>
      </trkpt>
      <trkpt lat="49.12159" lon="0.13767">
        <ele>171.9</ele>
        <time>2023-10-15T08:39:29Z</time>
      </trkpt>
      <trkpt lat="49.12168" lon="0.13769">
        <ele>171.9</ele>
        <time>2023-10-15T08:39:30Z</time>
      </trkpt>
      <trkpt lat="49.12176" lon="0.1377">
        <ele>172</ele>
        <time>2023-10-15T08:39:31Z</time>
      </trkpt>
      <trkpt lat="49.12184" lon="0.13772">
        <ele>172</ele>
        <time>2023-10-15T08:39:32Z</time>
      </trkpt>
      <trkpt lat="49.12193" lon="0.13774">
        <ele>172</ele>
        <time>2023-10-15T08:39:33Z</time>
      </trkpt>
      <trkpt lat="49.12202" lon="0.13775">
        <ele>172</ele>
        <time>2023-10-15T08:39:34Z</time>
      </trkpt>
      <trkpt lat="49.1221" lon="0.13777">
        <ele>172</ele>
        <time>2023-10-15T08:39:35Z</time>
      </trkpt>
      <trkpt lat="49.12219" lon="0.13777">
        <ele>172</ele>
        <time>2023-10-15T08:39:36Z</time>
      </trkpt>
      <trkpt lat="49.12228" lon="0.13778">
        <ele>172</ele>
        <time>2023-10-15T08:39:37Z</time>
      </trkpt>
      <trkpt lat="49.12237" lon="0.1378">
        <ele>171.9</ele>
        <time>2023-10-15T08:39:38Z</time>
      </trkpt>
      <trkpt lat="49.12245" lon="0.13782">
        <ele>171.9</ele>
        <time>2023-10-15T08:39:39Z</time>
      </trkpt>
      <trkpt lat="49.12254" lon="0.13786">
        <ele>171.9</ele>
        <time>2023-10-15T08:39:40Z</time>
      </trkpt>
      <trkpt lat="49.12262" lon="0.13791">
        <ele>171.9</ele>
        <time>2023-10-15T08:39:41Z</time>
      </trkpt>
      <trkpt lat="49.12269" lon="0.13798">
        <ele>171.9</ele>
        <time>2023-10-15T08:39:42Z</time>
      </trkpt>
      <trkpt lat="49.12276" lon="0.13806">
        <ele>172</ele>
        <time>2023-10-15T08:39:43Z</time>
      </trkpt>
      <trkpt lat="49.12283" lon="0.13815">
        <ele>172</ele>
        <time>2023-10-15T08:39:44Z</time>
      </trkpt>
      <trkpt lat="49.12288" lon="0.13825">
        <ele>172</ele>
        <time>2023-10-15T08:39:45Z</time>
      </trkpt>
      <trkpt lat="49.12294" lon="0.13835">
        <ele>172.1</ele>
        <time>2023-10-15T08:39:46Z</time>
      </trkpt>
      <trkpt lat="49.12299" lon="0.13846">
        <ele>172.1</ele>
        <time>2023-10-15T08:39:47Z</time>
      </trkpt>
      <trkpt lat="49.12304" lon="0.13857">
        <ele>172.2</ele>
        <time>2023-10-15T08:39:48Z</time>
      </trkpt>
      <trkpt lat="49.12309" lon="0.13867">
        <ele>172.3</ele>
        <time>2023-10-15T08:39:49Z</time>
      </trkpt>
      <trkpt lat="49.12314" lon="0.13877">
        <ele>172.4</ele>
        <time>2023-10-15T08:39:50Z</time>
      </trkpt>
      <trkpt lat="49.12319" lon="0.13888">
        <ele>172.5</ele>
        <time>2023-10-15T08:39:51Z</time>
      </trkpt>
      <trkpt lat="49.12324" lon="0.13898">
        <ele>172.5</ele>
        <time>2023-10-15T08:39:52Z</time>
      </trkpt>
      <trkpt lat="49.1233" lon="0.13907">
        <ele>172.6</ele>
        <time>2023-10-15T08:39:53Z</time>
      </trkpt>
      <trkpt lat="49.12336" lon="0.13916">
        <ele>172.7</ele>
        <time>2023-10-15T08:39:54Z</time>
      </trkpt>
      <trkpt lat="49.12341" lon="0.13925">
        <ele>172.7</ele>
        <time>2023-10-15T08:39:55Z</time>
      </trkpt>
      <trkpt lat="49.12347" lon="0.13933">
        <ele>172.8</ele>
        <time>2023-10-15T08:39:56Z</time>
      </trkpt>
      <trkpt lat="49.12353" lon="0.13941">
        <ele>173</ele>
        <time>2023-10-15T08:39:57Z</time>
      </trkpt>
      <trkpt lat="49.12359" lon="0.13949">
        <ele>173.1</ele>
        <time>2023-10-15T08:39:58Z</time>
      </trkpt>
      <trkpt lat="49.12366" lon="0.13957">
        <ele>173.2</ele>
        <time>2023-10-15T08:39:59Z</time>
      </trkpt>
      <trkpt lat="49.12372" lon="0.13964">
        <ele>173.3</ele>
        <time>2023-10-15T08:40:00Z</time>
      </trkpt>
      <trkpt lat="49.12378" lon="0.13971">
        <ele>173.5</ele>
        <time>2023-10-15T08:40:01Z</time>
      </trkpt>
      <trkpt lat="49.12384" lon="0.13978">
        <ele>173.6</ele>
        <time>2023-10-15T08:40:02Z</time>
      </trkpt>
      <trkpt lat="49.1239" lon="0.13984">
        <ele>173.8</ele>
        <time>2023-10-15T08:40:03Z</time>
      </trkpt>
      <trkpt lat="49.12396" lon="0.13991">
        <ele>173.9</ele>
        <time>2023-10-15T08:40:04Z</time>
      </trkpt>
      <trkpt lat="49.12402" lon="0.13996">
        <ele>174.1</ele>
        <time>2023-10-15T08:40:05Z</time>
      </trkpt>
      <trkpt lat="49.12407" lon="0.14002">
        <ele>174.2</ele>
        <time>2023-10-15T08:40:06Z</time>
      </trkpt>
      <trkpt lat="49.12412" lon="0.14009">
        <ele>174.3</ele>
        <time>2023-10-15T08:40:07Z</time>
      </trkpt>
      <trkpt lat="49.12417" lon="0.14016">
        <ele>174.4</ele>
        <time>2023-10-15T08:40:08Z</time>
      </trkpt>
      <trkpt lat="49.12422" lon="0.14023">
        <ele>174.5</ele>
        <time>2023-10-15T08:40:09Z</time>
      </trkpt>
      <trkpt lat="49.12427" lon="0.1403">
        <ele>174.6</ele>
        <time>2023-10-15T08:40:10Z</time>
      </trkpt>
      <trkpt lat="49.12433" lon="0.14038">
        <ele>174.7</ele>
        <time>2023-10-15T08:40:11Z</time>
      </trkpt>
      <trkpt lat="49.12438" lon="0.14045">
        <ele>174.8</ele>
        <time>2023-10-15T08:40:12Z</time>
      </trkpt>
      <trkpt lat="49.12443" lon="0.14053">
        <ele>174.9</ele>
        <time>2023-10-15T08:40:13Z</time>
      </trkpt>
      <trkpt lat="49.12449" lon="0.14061">
        <ele>174.9</ele>
        <time>2023-10-15T08:40:14Z</time>
      </trkpt>
      <trkpt lat="49.12454" lon="0.14068">
        <ele>175</ele>
        <time>2023-10-15T08:40:15Z</time>
      </trkpt>
      <trkpt lat="49.1246" lon="0.14076">
        <ele>175.1</ele>
        <time>2023-10-15T08:40:16Z</time>
      </trkpt>
      <trkpt lat="49.12465" lon="0.14083">
        <ele>175.1</ele>
        <time>2023-10-15T08:40:17Z</time>
      </trkpt>
      <trkpt lat="49.12471" lon="0.14091">
        <ele>175.2</ele>
        <time>2023-10-15T08:40:18Z</time>
      </trkpt>
      <trkpt lat="49.12476" lon="0.14099">
        <ele>175.2</ele>
        <time>2023-10-15T08:40:19Z</time>
      </trkpt>
      <trkpt lat="49.12482" lon="0.14106">
        <ele>175.2</ele>
        <time>2023-10-15T08:40:20Z</time>
      </trkpt>
      <trkpt lat="49.12488" lon="0.14114">
        <ele>175.3</ele>
        <time>2023-10-15T08:40:21Z</time>
      </trkpt>
      <trkpt lat="49.12494" lon="0.14122">
        <ele>175.3</ele>
        <time>2023-10-15T08:40:22Z</time>
      </trkpt>
      <trkpt lat="49.125" lon="0.14129">
        <ele>175.3</ele>
        <time>2023-10-15T08:40:23Z</time>
      </trkpt>
      <trkpt lat="49.12507" lon="0.14136">
        <ele>175.3</ele>
        <time>2023-10-15T08:40:24Z</time>
      </trkpt>
      <trkpt lat="49.12513" lon="0.14143">
        <ele>175.4</ele>
        <time>2023-10-15T08:40:25Z</time>
      </trkpt>
      <trkpt lat="49.12519" lon="0.1415">
        <ele>175.4</ele>
        <time>2023-10-15T08:40:26Z</time>
      </trkpt>
      <trkpt lat="49.12525" lon="0.14158">
        <ele>175.4</ele>
        <time>2023-10-15T08:40:27Z</time>
      </trkpt>
      <trkpt lat="49.12532" lon="0.14165">
        <ele>175.4</ele>
        <time>2023-10-15T08:40:28Z</time>
      </trkpt>
      <trkpt lat="49.12538" lon="0.14173">
        <ele>175.4</ele>
        <time>2023-10-15T08:40:29Z</time>
      </trkpt>
      <trkpt lat="49.12544" lon="0.1418">
        <ele>175.4</ele>
        <time>2023-10-15T08:40:30Z</time>
      </trkpt>
      <trkpt lat="49.12551" lon="0.14188">
        <ele>175.4</ele>
        <time>2023-10-15T08:40:31Z</time>
      </trkpt>
      <trkpt lat="49.12557" lon="0.14195">
        <ele>175.5</ele>
        <time>2023-10-15T08:40:32Z</time>
      </trkpt>
      <trkpt lat="49.12563" lon="0.14201">
        <ele>175.5</ele>
        <time>2023-10-15T08:40:33Z</time>
      </trkpt>
      <trkpt lat="49.12569" lon="0.14208">
        <ele>175.5</ele>
        <time>2023-10-15T08:40:34Z</time>
      </trkpt>
      <trkpt lat="49.12576" lon="0.14215">
        <ele>175.5</ele>
        <time>2023-10-15T08:40:35Z</time>
      </trkpt>
      <trkpt lat="49.12582" lon="0.14222">
        <ele>175.5</ele>
        <time>2023-10-15T08:40:36Z</time>
      </trkpt>
      <trkpt lat="49.12588" lon="0.14229">
        <ele>175.5</ele>
        <time>2023-10-15T08:40:37Z</time>
      </trkpt>
      <trkpt lat="49.12595" lon="0.14237">
        <ele>175.5</ele>
        <time>2023-10-15T08:40:38Z</time>
      </trkpt>
      <trkpt lat="49.12601" lon="0.14245">
        <ele>175.5</ele>
        <time>2023-10-15T08:40:39Z</time>
      </trkpt>
      <trkpt lat="49.12607" lon="0.14253">
        <ele>175.5</ele>
        <time>2023-10-15T08:40:40Z</time>
      </trkpt>
      <trkpt lat="49.12614" lon="0.1426">
        <ele>175.5</ele>
        <time>2023-10-15T08:40:41Z</time>
      </trkpt>
      <trkpt lat="49.12621" lon="0.14267">
        <ele>175.5</ele>
        <time>2023-10-15T08:40:42Z</time>
      </trkpt>
      <trkpt lat="49.12627" lon="0.14274">
        <ele>175.5</ele>
        <time>2023-10-15T08:40:43Z</time>
      </trkpt>
      <trkpt lat="49.12633" lon="0.14281">
        <ele>175.5</ele>
        <time>2023-10-15T08:40:44Z</time>
      </trkpt>
      <trkpt lat="49.12639" lon="0.14289">
        <ele>175.5</ele>
        <time>2023-10-15T08:40:45Z</time>
      </trkpt>
      <trkpt lat="49.12645" lon="0.14296">
        <ele>175.6</ele>
        <time>2023-10-15T08:40:46Z</time>
      </trkpt>
      <trkpt lat="49.12651" lon="0.14303">
        <ele>175.6</ele>
        <time>2023-10-15T08:40:47Z</time>
      </trkpt>
      <trkpt lat="49.12658" lon="0.1431">
        <ele>175.6</ele>
        <time>2023-10-15T08:40:48Z</time>
      </trkpt>
      <trkpt lat="49.12664" lon="0.14318">
        <ele>175.6</ele>
        <time>2023-10-15T08:40:49Z</time>
      </trkpt>
      <trkpt lat="49.1267" lon="0.14326">
        <ele>175.6</ele>
        <time>2023-10-15T08:40:50Z</time>
      </trkpt>
      <trkpt lat="49.12676" lon="0.14333">
        <ele>175.7</ele>
        <time>2023-10-15T08:40:51Z</time>
      </trkpt>
      <trkpt lat="49.12682" lon="0.1434">
        <ele>175.7</ele>
        <time>2023-10-15T08:40:52Z</time>
      </trkpt>
      <trkpt lat="49.12688" lon="0.14348">
        <ele>175.7</ele>
        <time>2023-10-15T08:40:53Z</time>
      </trkpt>
      <trkpt lat="49.12694" lon="0.14357">
        <ele>175.7</ele>
        <time>2023-10-15T08:40:54Z</time>
      </trkpt>
      <trkpt lat="49.12701" lon="0.14365">
        <ele>175.7</ele>
        <time>2023-10-15T08:40:55Z</time>
      </trkpt>
      <trkpt lat="49.12707" lon="0.14374">
        <ele>175.7</ele>
        <time>2023-10-15T08:40:56Z</time>
      </trkpt>
      <trkpt lat="49.12713" lon="0.14382">
        <ele>175.7</ele>
        <time>2023-10-15T08:40:57Z</time>
      </trkpt>
      <trkpt lat="49.12719" lon="0.14391">
        <ele>175.7</ele>
        <time>2023-10-15T08:40:58Z</time>
      </trkpt>
      <trkpt lat="49.12724" lon="0.14399">
        <ele>175.7</ele>
        <time>2023-10-15T08:40:59Z</time>
      </trkpt>
      <trkpt lat="49.12731" lon="0.14407">
        <ele>175.7</ele>
        <time>2023-10-15T08:41:00Z</time>
      </trkpt>
      <trkpt lat="49.12737" lon="0.14416">
        <ele>175.7</ele>
        <time>2023-10-15T08:41:01Z</time>
      </trkpt>
      <trkpt lat="49.12743" lon="0.14424">
        <ele>175.8</ele>
        <time>2023-10-15T08:41:02Z</time>
      </trkpt>
      <trkpt lat="49.12749" lon="0.14431">
        <ele>175.8</ele>
        <time>2023-10-15T08:41:03Z</time>
      </trkpt>
      <trkpt lat="49.12756" lon="0.14439">
        <ele>175.8</ele>
        <time>2023-10-15T08:41:04Z</time>
      </trkpt>
      <trkpt lat="49.12763" lon="0.14445">
        <ele>175.8</ele>
        <time>2023-10-15T08:41:05Z</time>
      </trkpt>
      <trkpt lat="49.1277" lon="0.14452">
        <ele>175.9</ele>
        <time>2023-10-15T08:41:06Z</time>
      </trkpt>
      <trkpt lat="49.12777" lon="0.14458">
        <ele>175.9</ele>
        <time>2023-10-15T08:41:07Z</time>
      </trkpt>
      <trkpt lat="49.12785" lon="0.14464">
        <ele>175.9</ele>
        <time>2023-10-15T08:41:08Z</time>
      </trkpt>
      <trkpt lat="49.12792" lon="0.14469">
        <ele>175.9</ele>
        <time>2023-10-15T08:41:09Z</time>
      </trkpt>
      <trkpt lat="49.128" lon="0.14473">
        <ele>175.9</ele>
        <time>2023-10-15T08:41:10Z</time>
      </trkpt>
      <trkpt lat="49.12807" lon="0.14477">
        <ele>176</ele>
        <time>2023-10-15T08:41:11Z</time>
      </trkpt>
      <trkpt lat="49.12815" lon="0.14482">
        <ele>176</ele>
        <time>2023-10-15T08:41:12Z</time>
      </trkpt>
      <trkpt lat="49.12823" lon="0.14486">
        <ele>176</ele>
        <time>2023-10-15T08:41:13Z</time>
      </trkpt>
      <trkpt lat="49.12831" lon="0.1449">
        <ele>176</ele>
        <time>2023-10-15T08:41:14Z</time>
      </trkpt>
      <trkpt lat="49.12838" lon="0.14494">
        <ele>176</ele>
        <time>2023-10-15T08:41:15Z</time>
      </trkpt>
      <trkpt lat="49.12846" lon="0.14499">
        <ele>176</ele>
        <time>2023-10-15T08:41:16Z</time>
      </trkpt>
      <trkpt lat="49.12854" lon="0.14505">
        <ele>176</ele>
        <time>2023-10-15T08:41:17Z</time>
      </trkpt>
      <trkpt lat="49.12861" lon="0.14512">
        <ele>176</ele>
        <time>2023-10-15T08:41:18Z</time>
      </trkpt>
      <trkpt lat="49.12868" lon="0.1452">
        <ele>176</ele>
        <time>2023-10-15T08:41:19Z</time>
      </trkpt>
      <trkpt lat="49.12874" lon="0.14528">
        <ele>176</ele>
        <time>2023-10-15T08:41:20Z</time>
      </trkpt>
      <trkpt lat="49.1288" lon="0.14537">
        <ele>176</ele>
        <time>2023-10-15T08:41:21Z</time>
      </trkpt>
      <trkpt lat="49.12886" lon="0.14546">
        <ele>176</ele>
        <time>2023-10-15T08:41:22Z</time>
      </trkpt>
      <trkpt lat="49.12892" lon="0.14556">
        <ele>176.1</ele>
        <time>2023-10-15T08:41:23Z</time>
      </trkpt>
      <trkpt lat="49.12897" lon="0.14566">
        <ele>176.1</ele>
        <time>2023-10-15T08:41:24Z</time>
      </trkpt>
      <trkpt lat="49.12903" lon="0.14576">
        <ele>176.1</ele>
        <time>2023-10-15T08:41:25Z</time>
      </trkpt>
      <trkpt lat="49.12908" lon="0.14586">
        <ele>176.1</ele>
        <time>2023-10-15T08:41:26Z</time>
      </trkpt>
      <trkpt lat="49.12914" lon="0.14596">
        <ele>176</ele>
        <time>2023-10-15T08:41:27Z</time>
      </trkpt>
      <trkpt lat="49.12919" lon="0.14605">
        <ele>176</ele>
        <time>2023-10-15T08:41:28Z</time>
      </trkpt>
      <trkpt lat="49.12925" lon="0.14614">
        <ele>176</ele>
        <time>2023-10-15T08:41:29Z</time>
      </trkpt>
      <trkpt lat="49.1293" lon="0.14624">
        <ele>175.9</ele>
        <time>2023-10-15T08:41:30Z</time>
      </trkpt>
      <trkpt lat="49.12935" lon="0.14633">
        <ele>175.9</ele>
        <time>2023-10-15T08:41:31Z</time>
      </trkpt>
      <trkpt lat="49.12941" lon="0.14644">
        <ele>175.9</ele>
        <time>2023-10-15T08:41:32Z</time>
      </trkpt>
      <trkpt lat="49.12946" lon="0.14654">
        <ele>175.8</ele>
        <time>2023-10-15T08:41:33Z</time>
      </trkpt>
      <trkpt lat="49.12952" lon="0.14664">
        <ele>175.8</ele>
        <time>2023-10-15T08:41:34Z</time>
      </trkpt>
      <trkpt lat="49.12958" lon="0.14674">
        <ele>175.8</ele>
        <time>2023-10-15T08:41:35Z</time>
      </trkpt>
      <trkpt lat="49.12963" lon="0.14683">
        <ele>175.8</ele>
        <time>2023-10-15T08:41:36Z</time>
      </trkpt>
      <trkpt lat="49.12968" lon="0.14692">
        <ele>175.7</ele>
        <time>2023-10-15T08:41:37Z</time>
      </trkpt>
      <trkpt lat="49.12973" lon="0.14702">
        <ele>175.7</ele>
        <time>2023-10-15T08:41:38Z</time>
      </trkpt>
      <trkpt lat="49.12979" lon="0.14712">
        <ele>175.6</ele>
        <time>2023-10-15T08:41:39Z</time>
      </trkpt>
      <trkpt lat="49.12985" lon="0.14721">
        <ele>175.6</ele>
        <time>2023-10-15T08:41:40Z</time>
      </trkpt>
      <trkpt lat="49.1299" lon="0.14731">
        <ele>175.5</ele>
        <time>2023-10-15T08:41:41Z</time>
      </trkpt>
      <trkpt lat="49.12995" lon="0.14741">
        <ele>175.5</ele>
        <time>2023-10-15T08:41:42Z</time>
      </trkpt>
      <trkpt lat="49.13001" lon="0.14751">
        <ele>175.5</ele>
        <time>2023-10-15T08:41:43Z</time>
      </trkpt>
      <trkpt lat="49.13006" lon="0.14761">
        <ele>175.5</ele>
        <time>2023-10-15T08:41:44Z</time>
      </trkpt>
      <trkpt lat="49.13011" lon="0.1477">
        <ele>175.5</ele>
        <time>2023-10-15T08:41:45Z</time>
      </trkpt>
      <trkpt lat="49.13017" lon="0.14779">
        <ele>175.5</ele>
        <time>2023-10-15T08:41:46Z</time>
      </trkpt>
      <trkpt lat="49.13022" lon="0.14788">
        <ele>175.5</ele>
        <time>2023-10-15T08:41:47Z</time>
      </trkpt>
      <trkpt lat="49.13028" lon="0.14797">
        <ele>175.5</ele>
        <time>2023-10-15T08:41:48Z</time>
      </trkpt>
      <trkpt lat="49.13034" lon="0.14805">
        <ele>175.5</ele>
        <time>2023-10-15T08:41:49Z</time>
      </trkpt>
      <trkpt lat="49.1304" lon="0.14812">
        <ele>175.6</ele>
        <time>2023-10-15T08:41:50Z</time>
      </trkpt>
      <trkpt lat="49.13048" lon="0.14817">
        <ele>175.6</ele>
        <time>2023-10-15T08:41:51Z</time>
      </trkpt>
      <trkpt lat="49.13055" lon="0.1482">
        <ele>175.7</ele>
        <time>2023-10-15T08:41:52Z</time>
      </trkpt>
      <trkpt lat="49.13063" lon="0.14823">
        <ele>175.8</ele>
        <time>2023-10-15T08:41:53Z</time>
      </trkpt>
      <trkpt lat="49.13071" lon="0.14825">
        <ele>175.9</ele>
        <time>2023-10-15T08:41:54Z</time>
      </trkpt>
      <trkpt lat="49.13079" lon="0.14826">
        <ele>175.9</ele>
        <time>2023-10-15T08:41:55Z</time>
      </trkpt>
      <trkpt lat="49.13087" lon="0.14827">
        <ele>176</ele>
        <time>2023-10-15T08:41:56Z</time>
      </trkpt>
      <trkpt lat="49.13095" lon="0.14827">
        <ele>176.1</ele>
        <time>2023-10-15T08:41:57Z</time>
      </trkpt>
      <trkpt lat="49.13103" lon="0.14828">
        <ele>176.1</ele>
        <time>2023-10-15T08:41:58Z</time>
      </trkpt>
      <trkpt lat="49.13111" lon="0.14827">
        <ele>176.2</ele>
        <time>2023-10-15T08:41:59Z</time>
      </trkpt>
      <trkpt lat="49.13119" lon="0.14827">
        <ele>176.3</ele>
        <time>2023-10-15T08:42:00Z</time>
      </trkpt>
      <trkpt lat="49.13127" lon="0.14828">
        <ele>176.3</ele>
        <time>2023-10-15T08:42:01Z</time>
      </trkpt>
      <trkpt lat="49.13135" lon="0.14828">
        <ele>176.4</ele>
        <time>2023-10-15T08:42:02Z</time>
      </trkpt>
      <trkpt lat="49.13142" lon="0.14828">
        <ele>176.4</ele>
        <time>2023-10-15T08:42:03Z</time>
      </trkpt>
      <trkpt lat="49.13149" lon="0.14829">
        <ele>176.5</ele>
        <time>2023-10-15T08:42:04Z</time>
      </trkpt>
      <trkpt lat="49.13156" lon="0.14829">
        <ele>176.5</ele>
        <time>2023-10-15T08:42:05Z</time>
      </trkpt>
      <trkpt lat="49.13164" lon="0.1483">
        <ele>176.6</ele>
        <time>2023-10-15T08:42:06Z</time>
      </trkpt>
      <trkpt lat="49.13171" lon="0.14831">
        <ele>176.6</ele>
        <time>2023-10-15T08:42:07Z</time>
      </trkpt>
      <trkpt lat="49.13179" lon="0.14831">
        <ele>176.6</ele>
        <time>2023-10-15T08:42:08Z</time>
      </trkpt>
      <trkpt lat="49.13187" lon="0.14832">
        <ele>176.7</ele>
        <time>2023-10-15T08:42:09Z</time>
      </trkpt>
      <trkpt lat="49.13195" lon="0.14832">
        <ele>176.7</ele>
        <time>2023-10-15T08:42:10Z</time>
      </trkpt>
      <trkpt lat="49.13203" lon="0.14833">
        <ele>176.8</ele>
        <time>2023-10-15T08:42:11Z</time>
      </trkpt>
      <trkpt lat="49.13211" lon="0.14833">
        <ele>176.8</ele>
        <time>2023-10-15T08:42:12Z</time>
      </trkpt>
      <trkpt lat="49.13219" lon="0.14833">
        <ele>176.8</ele>
        <time>2023-10-15T08:42:13Z</time>
      </trkpt>
      <trkpt lat="49.13228" lon="0.14833">
        <ele>176.8</ele>
        <time>2023-10-15T08:42:14Z</time>
      </trkpt>
      <trkpt lat="49.13236" lon="0.14834">
        <ele>176.8</ele>
        <time>2023-10-15T08:42:15Z</time>
      </trkpt>
      <trkpt lat="49.13245" lon="0.14835">
        <ele>176.7</ele>
        <time>2023-10-15T08:42:16Z</time>
      </trkpt>
      <trkpt lat="49.13253" lon="0.14835">
        <ele>176.7</ele>
        <time>2023-10-15T08:42:17Z</time>
      </trkpt>
      <trkpt lat="49.13261" lon="0.14836">
        <ele>176.7</ele>
        <time>2023-10-15T08:42:18Z</time>
      </trkpt>
      <trkpt lat="49.13269" lon="0.14836">
        <ele>176.6</ele>
        <time>2023-10-15T08:42:19Z</time>
      </trkpt>
      <trkpt lat="49.13278" lon="0.14836">
        <ele>176.6</ele>
        <time>2023-10-15T08:42:20Z</time>
      </trkpt>
      <trkpt lat="49.13286" lon="0.14837">
        <ele>176.6</ele>
        <time>2023-10-15T08:42:21Z</time>
      </trkpt>
      <trkpt lat="49.13294" lon="0.14837">
        <ele>176.6</ele>
        <time>2023-10-15T08:42:22Z</time>
      </trkpt>
      <trkpt lat="49.13302" lon="0.14837">
        <ele>176.6</ele>
        <time>2023-10-15T08:42:23Z</time>
      </trkpt>
      <trkpt lat="49.1331" lon="0.14838">
        <ele>176.6</ele>
        <time>2023-10-15T08:42:24Z</time>
      </trkpt>
      <trkpt lat="49.13318" lon="0.14839">
        <ele>176.5</ele>
        <time>2023-10-15T08:42:25Z</time>
      </trkpt>
      <trkpt lat="49.13326" lon="0.14839">
        <ele>176.5</ele>
        <time>2023-10-15T08:42:26Z</time>
      </trkpt>
      <trkpt lat="49.13334" lon="0.1484">
        <ele>176.5</ele>
        <time>2023-10-15T08:42:27Z</time>
      </trkpt>
      <trkpt lat="49.13342" lon="0.1484">
        <ele>176.4</ele>
        <time>2023-10-15T08:42:28Z</time>
      </trkpt>
      <trkpt lat="49.1335" lon="0.14841">
        <ele>176.4</ele>
        <time>2023-10-15T08:42:29Z</time>
      </trkpt>
      <trkpt lat="49.13357" lon="0.14841">
        <ele>176.4</ele>
        <time>2023-10-15T08:42:30Z</time>
      </trkpt>
      <trkpt lat="49.13365" lon="0.14842">
        <ele>176.4</ele>
        <time>2023-10-15T08:42:31Z</time>
      </trkpt>
      <trkpt lat="49.13372" lon="0.14842">
        <ele>176.3</ele>
        <time>2023-10-15T08:42:32Z</time>
      </trkpt>
      <trkpt lat="49.13379" lon="0.14842">
        <ele>176.3</ele>
        <time>2023-10-15T08:42:33Z</time>
      </trkpt>
      <trkpt lat="49.13387" lon="0.14843">
        <ele>176.2</ele>
        <time>2023-10-15T08:42:34Z</time>
      </trkpt>
      <trkpt lat="49.13394" lon="0.14843">
        <ele>176.2</ele>
        <time>2023-10-15T08:42:35Z</time>
      </trkpt>
      <trkpt lat="49.13401" lon="0.14844">
        <ele>176.2</ele>
        <time>2023-10-15T08:42:36Z</time>
      </trkpt>
      <trkpt lat="49.13409" lon="0.14845">
        <ele>176.2</ele>
        <time>2023-10-15T08:42:37Z</time>
      </trkpt>
      <trkpt lat="49.13416" lon="0.14845">
        <ele>176.2</ele>
        <time>2023-10-15T08:42:38Z</time>
      </trkpt>
      <trkpt lat="49.13423" lon="0.14845">
        <ele>176.2</ele>
        <time>2023-10-15T08:42:39Z</time>
      </trkpt>
      <trkpt lat="49.13429" lon="0.14845">
        <ele>176.2</ele>
        <time>2023-10-15T08:42:40Z</time>
      </trkpt>
      <trkpt lat="49.13436" lon="0.14846">
        <ele>176.2</ele>
        <time>2023-10-15T08:42:41Z</time>
      </trkpt>
      <trkpt lat="49.13442" lon="0.14846">
        <ele>176.3</ele>
        <time>2023-10-15T08:42:42Z</time>
      </trkpt>
      <trkpt lat="49.13449" lon="0.14847">
        <ele>176.3</ele>
        <time>2023-10-15T08:42:43Z</time>
      </trkpt>
      <trkpt lat="49.13455" lon="0.14847">
        <ele>176.4</ele>
        <time>2023-10-15T08:42:44Z</time>
      </trkpt>
      <trkpt lat="49.13461" lon="0.14847">
        <ele>176.5</ele>
        <time>2023-10-15T08:42:45Z</time>
      </trkpt>
      <trkpt lat="49.13466" lon="0.14848">
        <ele>176.6</ele>
        <time>2023-10-15T08:42:46Z</time>
      </trkpt>
      <trkpt lat="49.1347" lon="0.14849">
        <ele>176.8</ele>
        <time>2023-10-15T08:42:47Z</time>
      </trkpt>
      <trkpt lat="49.13474" lon="0.1485">
        <ele>176.9</ele>
        <time>2023-10-15T08:42:48Z</time>
      </trkpt>
      <trkpt lat="49.13477" lon="0.14851">
        <ele>177</ele>
        <time>2023-10-15T08:42:49Z</time>
      </trkpt>
      <trkpt lat="49.1348" lon="0.14852">
        <ele>177.2</ele>
        <time>2023-10-15T08:42:50Z</time>
      </trkpt>
      <trkpt lat="49.13481" lon="0.14852">
        <ele>177.3</ele>
        <time>2023-10-15T08:42:51Z</time>
      </trkpt>
      <trkpt lat="49.13483" lon="0.14852">
        <ele>177.3</ele>
        <time>2023-10-15T08:42:52Z</time>
      </trkpt>
      <trkpt lat="49.13484" lon="0.14853">
        <ele>177.4</ele>
        <time>2023-10-15T08:42:53Z</time>
      </trkpt>
      <trkpt lat="49.13484" lon="0.14852">
        <ele>177.4</ele>
        <time>2023-10-15T08:42:54Z</time>
      </trkpt>
      <trkpt lat="49.13485" lon="0.14852">
        <ele>177.4</ele>
        <time>2023-10-15T08:42:55Z</time>
      </trkpt>
      <trkpt lat="49.13485" lon="0.14852">
        <ele>177.5</ele>
        <time>2023-10-15T08:42:56Z</time>
      </trkpt>
      <trkpt lat="49.13486" lon="0.14852">
        <ele>177.5</ele>
        <time>2023-10-15T08:42:57Z</time>
      </trkpt>
      <trkpt lat="49.13486" lon="0.14852">
        <ele>177.5</ele>
        <time>2023-10-15T08:42:58Z</time>
      </trkpt>
      <trkpt lat="49.13487" lon="0.14852">
        <ele>177.5</ele>
        <time>2023-10-15T08:42:59Z</time>
      </trkpt>
      <trkpt lat="49.13487" lon="0.14852">
        <ele>177.6</ele>
        <time>2023-10-15T08:43:00Z</time>
      </trkpt>
      <trkpt lat="49.13488" lon="0.14852">
        <ele>177.6</ele>
        <time>2023-10-15T08:43:01Z</time>
      </trkpt>
      <trkpt lat="49.13488" lon="0.14852">
        <ele>177.6</ele>
        <time>2023-10-15T08:43:02Z</time>
      </trkpt>
      <trkpt lat="49.13489" lon="0.14852">
        <ele>177.6</ele>
        <time>2023-10-15T08:43:03Z</time>
      </trkpt>
      <trkpt lat="49.13489" lon="0.14852">
        <ele>177.7</ele>
        <time>2023-10-15T08:43:04Z</time>
      </trkpt>
      <trkpt lat="49.1349" lon="0.14852">
        <ele>177.7</ele>
        <time>2023-10-15T08:43:05Z</time>
      </trkpt>
      <trkpt lat="49.1349" lon="0.14852">
        <ele>177.7</ele>
        <time>2023-10-15T08:43:26Z</time>
      </trkpt>
      <trkpt lat="49.13491" lon="0.14852">
        <ele>177.7</ele>
        <time>2023-10-15T08:43:27Z</time>
      </trkpt>
      <trkpt lat="49.13491" lon="0.14852">
        <ele>177.8</ele>
        <time>2023-10-15T08:43:28Z</time>
      </trkpt>
      <trkpt lat="49.13494" lon="0.14849">
        <ele>177.9</ele>
        <time>2023-10-15T08:43:29Z</time>
      </trkpt>
      <trkpt lat="49.13496" lon="0.14846">
        <ele>178.1</ele>
        <time>2023-10-15T08:43:30Z</time>
      </trkpt>
      <trkpt lat="49.13498" lon="0.14841">
        <ele>178</ele>
        <time>2023-10-15T08:43:31Z</time>
      </trkpt>
      <trkpt lat="49.13498" lon="0.14835">
        <ele>178</ele>
        <time>2023-10-15T08:43:32Z</time>
      </trkpt>
      <trkpt lat="49.13499" lon="0.14829">
        <ele>177.9</ele>
        <time>2023-10-15T08:43:33Z</time>
      </trkpt>
      <trkpt lat="49.13498" lon="0.14821">
        <ele>177.8</ele>
        <time>2023-10-15T08:43:34Z</time>
      </trkpt>
      <trkpt lat="49.13498" lon="0.14814">
        <ele>177.7</ele>
        <time>2023-10-15T08:43:35Z</time>
      </trkpt>
      <trkpt lat="49.13498" lon="0.14806">
        <ele>177.6</ele>
        <time>2023-10-15T08:43:36Z</time>
      </trkpt>
      <trkpt lat="49.13498" lon="0.14797">
        <ele>177.6</ele>
        <time>2023-10-15T08:43:37Z</time>
      </trkpt>
      <trkpt lat="49.13499" lon="0.14788">
        <ele>177.5</ele>
        <time>2023-10-15T08:43:38Z</time>
      </trkpt>
      <trkpt lat="49.135" lon="0.14778">
        <ele>177.5</ele>
        <time>2023-10-15T08:43:39Z</time>
      </trkpt>
      <trkpt lat="49.135" lon="0.14768">
        <ele>177.4</ele>
        <time>2023-10-15T08:43:40Z</time>
      </trkpt>
      <trkpt lat="49.13501" lon="0.14758">
        <ele>177.4</ele>
        <time>2023-10-15T08:43:41Z</time>
      </trkpt>
      <trkpt lat="49.13502" lon="0.14746">
        <ele>177.4</ele>
        <time>2023-10-15T08:43:42Z</time>
      </trkpt>
      <trkpt lat="49.13503" lon="0.14734">
        <ele>177.4</ele>
        <time>2023-10-15T08:43:43Z</time>
      </trkpt>
      <trkpt lat="49.13503" lon="0.14722">
        <ele>177.4</ele>
        <time>2023-10-15T08:43:44Z</time>
      </trkpt>
      <trkpt lat="49.13504" lon="0.1471">
        <ele>177.4</ele>
        <time>2023-10-15T08:43:45Z</time>
      </trkpt>
      <trkpt lat="49.13504" lon="0.14698">
        <ele>177.4</ele>
        <time>2023-10-15T08:43:46Z</time>
      </trkpt>
      <trkpt lat="49.13505" lon="0.14685">
        <ele>177.4</ele>
        <time>2023-10-15T08:43:47Z</time>
      </trkpt>
      <trkpt lat="49.13506" lon="0.14673">
        <ele>177.4</ele>
        <time>2023-10-15T08:43:48Z</time>
      </trkpt>
      <trkpt lat="49.13506" lon="0.1466">
        <ele>177.5</ele>
        <time>2023-10-15T08:43:49Z</time>
      </trkpt>
      <trkpt lat="49.13507" lon="0.14647">
        <ele>177.6</ele>
        <time>2023-10-15T08:43:50Z</time>
      </trkpt>
      <trkpt lat="49.13507" lon="0.14634">
        <ele>177.7</ele>
        <time>2023-10-15T08:43:51Z</time>
      </trkpt>
      <trkpt lat="49.13508" lon="0.14621">
        <ele>177.7</ele>
        <time>2023-10-15T08:43:52Z</time>
      </trkpt>
      <trkpt lat="49.13508" lon="0.14608">
        <ele>177.7</ele>
        <time>2023-10-15T08:43:53Z</time>
      </trkpt>
      <trkpt lat="49.13509" lon="0.14594">
        <ele>177.6</ele>
        <time>2023-10-15T08:43:54Z</time>
      </trkpt>
      <trkpt lat="49.1351" lon="0.14581">
        <ele>177.6</ele>
        <time>2023-10-15T08:43:55Z</time>
      </trkpt>
      <trkpt lat="49.1351" lon="0.14567">
        <ele>177.5</ele>
        <time>2023-10-15T08:43:56Z</time>
      </trkpt>
      <trkpt lat="49.13511" lon="0.14553">
        <ele>177.4</ele>
        <time>2023-10-15T08:43:57Z</time>
      </trkpt>
      <trkpt lat="49.13512" lon="0.14538">
        <ele>177.3</ele>
        <time>2023-10-15T08:43:58Z</time>
      </trkpt>
      <trkpt lat="49.13512" lon="0.14524">
        <ele>177.1</ele>
        <time>2023-10-15T08:43:59Z</time>
      </trkpt>
      <trkpt lat="49.13513" lon="0.14509">
        <ele>177</ele>
        <time>2023-10-15T08:44:00Z</time>
      </trkpt>
      <trkpt lat="49.13514" lon="0.14495">
        <ele>176.9</ele>
        <time>2023-10-15T08:44:01Z</time>
      </trkpt>
      <trkpt lat="49.13515" lon="0.1448">
        <ele>176.8</ele>
        <time>2023-10-15T08:44:02Z</time>
      </trkpt>
      <trkpt lat="49.13515" lon="0.14466">
        <ele>176.8</ele>
        <time>2023-10-15T08:44:03Z</time>
      </trkpt>
      <trkpt lat="49.13516" lon="0.14451">
        <ele>176.7</ele>
        <time>2023-10-15T08:44:04Z</time>
      </trkpt>
      <trkpt lat="49.13516" lon="0.14437">
        <ele>176.6</ele>
        <time>2023-10-15T08:44:05Z</time>
      </trkpt>
      <trkpt lat="49.13517" lon="0.14422">
        <ele>176.5</ele>
        <time>2023-10-15T08:44:06Z</time>
      </trkpt>
      <trkpt lat="49.13517" lon="0.14407">
        <ele>176.4</ele>
        <time>2023-10-15T08:44:07Z</time>
      </trkpt>
      <trkpt lat="49.13518" lon="0.14393">
        <ele>176.3</ele>
        <time>2023-10-15T08:44:08Z</time>
      </trkpt>
      <trkpt lat="49.13519" lon="0.14378">
        <ele>176.1</ele>
        <time>2023-10-15T08:44:09Z</time>
      </trkpt>
      <trkpt lat="49.13519" lon="0.14363">
        <ele>176</ele>
        <time>2023-10-15T08:44:10Z</time>
      </trkpt>
      <trkpt lat="49.1352" lon="0.14349">
        <ele>175.9</ele>
        <time>2023-10-15T08:44:11Z</time>
      </trkpt>
      <trkpt lat="49.13521" lon="0.14334">
        <ele>175.8</ele>
        <time>2023-10-15T08:44:12Z</time>
      </trkpt>
      <trkpt lat="49.13522" lon="0.14319">
        <ele>175.7</ele>
        <time>2023-10-15T08:44:13Z</time>
      </trkpt>
      <trkpt lat="49.13522" lon="0.14304">
        <ele>175.6</ele>
        <time>2023-10-15T08:44:14Z</time>
      </trkpt>
      <trkpt lat="49.13523" lon="0.14289">
        <ele>175.6</ele>
        <time>2023-10-15T08:44:15Z</time>
      </trkpt>
      <trkpt lat="49.13524" lon="0.14275">
        <ele>175.5</ele>
        <time>2023-10-15T08:44:16Z</time>
      </trkpt>
      <trkpt lat="49.13524" lon="0.14262">
        <ele>175.3</ele>
        <time>2023-10-15T08:44:17Z</time>
      </trkpt>
      <trkpt lat="49.13525" lon="0.14248">
        <ele>175.2</ele>
        <time>2023-10-15T08:44:18Z</time>
      </trkpt>
      <trkpt lat="49.13526" lon="0.14235">
        <ele>175.1</ele>
        <time>2023-10-15T08:44:19Z</time>
      </trkpt>
      <trkpt lat="49.13527" lon="0.14221">
        <ele>174.9</ele>
        <time>2023-10-15T08:44:20Z</time>
      </trkpt>
      <trkpt lat="49.13528" lon="0.14206">
        <ele>174.7</ele>
        <time>2023-10-15T08:44:21Z</time>
      </trkpt>
      <trkpt lat="49.13528" lon="0.14192">
        <ele>174.5</ele>
        <time>2023-10-15T08:44:22Z</time>
      </trkpt>
      <trkpt lat="49.13529" lon="0.14177">
        <ele>174.2</ele>
        <time>2023-10-15T08:44:23Z</time>
      </trkpt>
      <trkpt lat="49.1353" lon="0.14163">
        <ele>174</ele>
        <time>2023-10-15T08:44:24Z</time>
      </trkpt>
      <trkpt lat="49.1353" lon="0.14148">
        <ele>173.8</ele>
        <time>2023-10-15T08:44:25Z</time>
      </trkpt>
      <trkpt lat="49.13531" lon="0.14133">
        <ele>173.5</ele>
        <time>2023-10-15T08:44:26Z</time>
      </trkpt>
      <trkpt lat="49.13532" lon="0.14117">
        <ele>173.2</ele>
        <time>2023-10-15T08:44:27Z</time>
      </trkpt>
      <trkpt lat="49.13533" lon="0.14102">
        <ele>172.8</ele>
        <time>2023-10-15T08:44:28Z</time>
      </trkpt>
      <trkpt lat="49.13533" lon="0.14086">
        <ele>172.5</ele>
        <time>2023-10-15T08:44:29Z</time>
      </trkpt>
      <trkpt lat="49.13534" lon="0.1407">
        <ele>172.1</ele>
        <time>2023-10-15T08:44:30Z</time>
      </trkpt>
      <trkpt lat="49.13534" lon="0.14054">
        <ele>171.8</ele>
        <time>2023-10-15T08:44:31Z</time>
      </trkpt>
      <trkpt lat="49.13535" lon="0.14038">
        <ele>171.4</ele>
        <time>2023-10-15T08:44:32Z</time>
      </trkpt>
      <trkpt lat="49.13536" lon="0.14022">
        <ele>171.1</ele>
        <time>2023-10-15T08:44:33Z</time>
      </trkpt>
      <trkpt lat="49.13536" lon="0.14005">
        <ele>170.7</ele>
        <time>2023-10-15T08:44:34Z</time>
      </trkpt>
      <trkpt lat="49.13537" lon="0.13988">
        <ele>170.4</ele>
        <time>2023-10-15T08:44:35Z</time>
      </trkpt>
      <trkpt lat="49.13538" lon="0.13971">
        <ele>170.1</ele>
        <time>2023-10-15T08:44:36Z</time>
      </trkpt>
      <trkpt lat="49.13539" lon="0.13955">
        <ele>169.8</ele>
        <time>2023-10-15T08:44:37Z</time>
      </trkpt>
      <trkpt lat="49.13539" lon="0.13938">
        <ele>169.6</ele>
        <time>2023-10-15T08:44:38Z</time>
      </trkpt>
      <trkpt lat="49.1354" lon="0.13921">
        <ele>169.5</ele>
        <time>2023-10-15T08:44:39Z</time>
      </trkpt>
      <trkpt lat="49.1354" lon="0.13905">
        <ele>169.4</ele>
        <time>2023-10-15T08:44:40Z</time>
      </trkpt>
      <trkpt lat="49.13541" lon="0.13888">
        <ele>169.4</ele>
        <time>2023-10-15T08:44:41Z</time>
      </trkpt>
      <trkpt lat="49.13542" lon="0.13872">
        <ele>169.3</ele>
        <time>2023-10-15T08:44:42Z</time>
      </trkpt>
      <trkpt lat="49.13543" lon="0.13856">
        <ele>169.4</ele>
        <time>2023-10-15T08:44:43Z</time>
      </trkpt>
      <trkpt lat="49.13543" lon="0.1384">
        <ele>169.4</ele>
        <time>2023-10-15T08:44:44Z</time>
      </trkpt>
      <trkpt lat="49.13544" lon="0.13825">
        <ele>169.5</ele>
        <time>2023-10-15T08:44:45Z</time>
      </trkpt>
      <trkpt lat="49.13545" lon="0.13809">
        <ele>169.6</ele>
        <time>2023-10-15T08:44:46Z</time>
      </trkpt>
      <trkpt lat="49.13546" lon="0.13793">
        <ele>169.7</ele>
        <time>2023-10-15T08:44:47Z</time>
      </trkpt>
      <trkpt lat="49.13547" lon="0.13778">
        <ele>169.8</ele>
        <time>2023-10-15T08:44:48Z</time>
      </trkpt>
      <trkpt lat="49.13548" lon="0.13762">
        <ele>169.9</ele>
        <time>2023-10-15T08:44:49Z</time>
      </trkpt>
      <trkpt lat="49.13548" lon="0.13746">
        <ele>170</ele>
        <time>2023-10-15T08:44:50Z</time>
      </trkpt>
      <trkpt lat="49.13549" lon="0.13731">
        <ele>170.1</ele>
        <time>2023-10-15T08:44:51Z</time>
      </trkpt>
      <trkpt lat="49.13549" lon="0.13715">
        <ele>170.3</ele>
        <time>2023-10-15T08:44:52Z</time>
      </trkpt>
      <trkpt lat="49.1355" lon="0.137">
        <ele>170.4</ele>
        <time>2023-10-15T08:44:53Z</time>
      </trkpt>
      <trkpt lat="49.1355" lon="0.13685">
        <ele>170.5</ele>
        <time>2023-10-15T08:44:54Z</time>
      </trkpt>
      <trkpt lat="49.13551" lon="0.13669">
        <ele>170.7</ele>
        <time>2023-10-15T08:44:55Z</time>
      </trkpt>
      <trkpt lat="49.13552" lon="0.13655">
        <ele>170.8</ele>
        <time>2023-10-15T08:44:56Z</time>
      </trkpt>
      <trkpt lat="49.13554" lon="0.1364">
        <ele>170.9</ele>
        <time>2023-10-15T08:44:57Z</time>
      </trkpt>
      <trkpt lat="49.13554" lon="0.13625">
        <ele>171</ele>
        <time>2023-10-15T08:44:58Z</time>
      </trkpt>
      <trkpt lat="49.13555" lon="0.13611">
        <ele>171.1</ele>
        <time>2023-10-15T08:44:59Z</time>
      </trkpt>
      <trkpt lat="49.13555" lon="0.13596">
        <ele>171.1</ele>
        <time>2023-10-15T08:45:00Z</time>
      </trkpt>
      <trkpt lat="49.13556" lon="0.13582">
        <ele>171.2</ele>
        <time>2023-10-15T08:45:01Z</time>
      </trkpt>
      <trkpt lat="49.13557" lon="0.13568">
        <ele>171.2</ele>
        <time>2023-10-15T08:45:02Z</time>
      </trkpt>
      <trkpt lat="49.13558" lon="0.13554">
        <ele>171.2</ele>
        <time>2023-10-15T08:45:03Z</time>
      </trkpt>
      <trkpt lat="49.13559" lon="0.1354">
        <ele>171.1</ele>
        <time>2023-10-15T08:45:04Z</time>
      </trkpt>
      <trkpt lat="49.1356" lon="0.13526">
        <ele>171.1</ele>
        <time>2023-10-15T08:45:05Z</time>
      </trkpt>
      <trkpt lat="49.13562" lon="0.13513">
        <ele>171</ele>
        <time>2023-10-15T08:45:06Z</time>
      </trkpt>
      <trkpt lat="49.13563" lon="0.13499">
        <ele>170.9</ele>
        <time>2023-10-15T08:45:07Z</time>
      </trkpt>
      <trkpt lat="49.13564" lon="0.13485">
        <ele>170.8</ele>
        <time>2023-10-15T08:45:08Z</time>
      </trkpt>
      <trkpt lat="49.13566" lon="0.13471">
        <ele>170.7</ele>
        <time>2023-10-15T08:45:09Z</time>
      </trkpt>
      <trkpt lat="49.13567" lon="0.13457">
        <ele>170.5</ele>
        <time>2023-10-15T08:45:10Z</time>
      </trkpt>
      <trkpt lat="49.13568" lon="0.13443">
        <ele>170.4</ele>
        <time>2023-10-15T08:45:11Z</time>
      </trkpt>
      <trkpt lat="49.13569" lon="0.13429">
        <ele>170.2</ele>
        <time>2023-10-15T08:45:12Z</time>
      </trkpt>
      <trkpt lat="49.13571" lon="0.13414">
        <ele>170</ele>
        <time>2023-10-15T08:45:13Z</time>
      </trkpt>
      <trkpt lat="49.13573" lon="0.134">
        <ele>169.8</ele>
        <time>2023-10-15T08:45:14Z</time>
      </trkpt>
      <trkpt lat="49.13575" lon="0.13385">
        <ele>169.6</ele>
        <time>2023-10-15T08:45:15Z</time>
      </trkpt>
      <trkpt lat="49.13577" lon="0.1337">
        <ele>169.4</ele>
        <time>2023-10-15T08:45:16Z</time>
      </trkpt>
      <trkpt lat="49.13579" lon="0.13355">
        <ele>169.3</ele>
        <time>2023-10-15T08:45:17Z</time>
      </trkpt>
      <trkpt lat="49.13582" lon="0.13341">
        <ele>169.1</ele>
        <time>2023-10-15T08:45:18Z</time>
      </trkpt>
      <trkpt lat="49.13585" lon="0.13326">
        <ele>169</ele>
        <time>2023-10-15T08:45:19Z</time>
      </trkpt>
      <trkpt lat="49.13587" lon="0.13311">
        <ele>169</ele>
        <time>2023-10-15T08:45:20Z</time>
      </trkpt>
      <trkpt lat="49.1359" lon="0.13296">
        <ele>168.9</ele>
        <time>2023-10-15T08:45:21Z</time>
      </trkpt>
      <trkpt lat="49.13593" lon="0.13281">
        <ele>168.9</ele>
        <time>2023-10-15T08:45:22Z</time>
      </trkpt>
      <trkpt lat="49.13596" lon="0.13267">
        <ele>168.9</ele>
        <time>2023-10-15T08:45:23Z</time>
      </trkpt>
      <trkpt lat="49.13599" lon="0.13253">
        <ele>169</ele>
        <time>2023-10-15T08:45:24Z</time>
      </trkpt>
      <trkpt lat="49.13602" lon="0.1324">
        <ele>169</ele>
        <time>2023-10-15T08:45:25Z</time>
      </trkpt>
      <trkpt lat="49.13605" lon="0.13226">
        <ele>169.1</ele>
        <time>2023-10-15T08:45:26Z</time>
      </trkpt>
      <trkpt lat="49.13609" lon="0.13212">
        <ele>169.1</ele>
        <time>2023-10-15T08:45:27Z</time>
      </trkpt>
      <trkpt lat="49.13612" lon="0.13198">
        <ele>169.1</ele>
        <time>2023-10-15T08:45:28Z</time>
      </trkpt>
      <trkpt lat="49.13615" lon="0.13184">
        <ele>169.1</ele>
        <time>2023-10-15T08:45:29Z</time>
      </trkpt>
      <trkpt lat="49.13618" lon="0.1317">
        <ele>169.1</ele>
        <time>2023-10-15T08:45:30Z</time>
      </trkpt>
      <trkpt lat="49.13621" lon="0.13157">
        <ele>169.2</ele>
        <time>2023-10-15T08:45:31Z</time>
      </trkpt>
      <trkpt lat="49.13625" lon="0.13144">
        <ele>169.2</ele>
        <time>2023-10-15T08:45:32Z</time>
      </trkpt>
      <trkpt lat="49.13629" lon="0.13131">
        <ele>169.2</ele>
        <time>2023-10-15T08:45:33Z</time>
      </trkpt>
      <trkpt lat="49.13632" lon="0.13118">
        <ele>169.2</ele>
        <time>2023-10-15T08:45:34Z</time>
      </trkpt>
      <trkpt lat="49.13636" lon="0.13105">
        <ele>169.2</ele>
        <time>2023-10-15T08:45:35Z</time>
      </trkpt>
      <trkpt lat="49.13639" lon="0.13092">
        <ele>169.2</ele>
        <time>2023-10-15T08:45:36Z</time>
      </trkpt>
      <trkpt lat="49.13642" lon="0.13079">
        <ele>169.2</ele>
        <time>2023-10-15T08:45:37Z</time>
      </trkpt>
      <trkpt lat="49.13645" lon="0.13065">
        <ele>169.1</ele>
        <time>2023-10-15T08:45:38Z</time>
      </trkpt>
      <trkpt lat="49.13648" lon="0.13052">
        <ele>169.1</ele>
        <time>2023-10-15T08:45:39Z</time>
      </trkpt>
      <trkpt lat="49.1365" lon="0.13039">
        <ele>169</ele>
        <time>2023-10-15T08:45:40Z</time>
      </trkpt>
      <trkpt lat="49.13653" lon="0.13026">
        <ele>169</ele>
        <time>2023-10-15T08:45:41Z</time>
      </trkpt>
      <trkpt lat="49.13655" lon="0.13013">
        <ele>168.9</ele>
        <time>2023-10-15T08:45:42Z</time>
      </trkpt>
      <trkpt lat="49.13657" lon="0.13">
        <ele>168.8</ele>
        <time>2023-10-15T08:45:43Z</time>
      </trkpt>
      <trkpt lat="49.13659" lon="0.12988">
        <ele>168.7</ele>
        <time>2023-10-15T08:45:44Z</time>
      </trkpt>
      <trkpt lat="49.1366" lon="0.12976">
        <ele>168.6</ele>
        <time>2023-10-15T08:45:45Z</time>
      </trkpt>
      <trkpt lat="49.13662" lon="0.12963">
        <ele>168.5</ele>
        <time>2023-10-15T08:45:46Z</time>
      </trkpt>
      <trkpt lat="49.13663" lon="0.12951">
        <ele>168.3</ele>
        <time>2023-10-15T08:45:47Z</time>
      </trkpt>
      <trkpt lat="49.13664" lon="0.12939">
        <ele>168.1</ele>
        <time>2023-10-15T08:45:48Z</time>
      </trkpt>
      <trkpt lat="49.13665" lon="0.12927">
        <ele>167.9</ele>
        <time>2023-10-15T08:45:49Z</time>
      </trkpt>
      <trkpt lat="49.13667" lon="0.12915">
        <ele>167.7</ele>
        <time>2023-10-15T08:45:50Z</time>
      </trkpt>
      <trkpt lat="49.13668" lon="0.12903">
        <ele>167.5</ele>
        <time>2023-10-15T08:45:51Z</time>
      </trkpt>
      <trkpt lat="49.1367" lon="0.12891">
        <ele>167.3</ele>
        <time>2023-10-15T08:45:52Z</time>
      </trkpt>
      <trkpt lat="49.13671" lon="0.12879">
        <ele>167.2</ele>
        <time>2023-10-15T08:45:53Z</time>
      </trkpt>
      <trkpt lat="49.13673" lon="0.12867">
        <ele>167.2</ele>
        <time>2023-10-15T08:45:54Z</time>
      </trkpt>
      <trkpt lat="49.13675" lon="0.12858">
        <ele>167.2</ele>
        <time>2023-10-15T08:45:55Z</time>
      </trkpt>
      <trkpt lat="49.1368" lon="0.12849">
        <ele>167</ele>
        <time>2023-10-15T08:45:56Z</time>
      </trkpt>
      <trkpt lat="49.13687" lon="0.12843">
        <ele>166.9</ele>
        <time>2023-10-15T08:45:57Z</time>
      </trkpt>
      <trkpt lat="49.13694" lon="0.12839">
        <ele>166.7</ele>
        <time>2023-10-15T08:45:58Z</time>
      </trkpt>
      <trkpt lat="49.13701" lon="0.12836">
        <ele>166.5</ele>
        <time>2023-10-15T08:45:59Z</time>
      </trkpt>
      <trkpt lat="49.13707" lon="0.12833">
        <ele>166.3</ele>
        <time>2023-10-15T08:46:00Z</time>
      </trkpt>
      <trkpt lat="49.13713" lon="0.12829">
        <ele>166.2</ele>
        <time>2023-10-15T08:46:01Z</time>
      </trkpt>
      <trkpt lat="49.1372" lon="0.12826">
        <ele>166.2</ele>
        <time>2023-10-15T08:46:02Z</time>
      </trkpt>
      <trkpt lat="49.13726" lon="0.12822">
        <ele>166.2</ele>
        <time>2023-10-15T08:46:03Z</time>
      </trkpt>
      <trkpt lat="49.13732" lon="0.12818">
        <ele>166.2</ele>
        <time>2023-10-15T08:46:04Z</time>
      </trkpt>
      <trkpt lat="49.13738" lon="0.12814">
        <ele>166.3</ele>
        <time>2023-10-15T08:46:05Z</time>
      </trkpt>
      <trkpt lat="49.13744" lon="0.12811">
        <ele>166.3</ele>
        <time>2023-10-15T08:46:06Z</time>
      </trkpt>
      <trkpt lat="49.1375" lon="0.12807">
        <ele>166.4</ele>
        <time>2023-10-15T08:46:07Z</time>
      </trkpt>
      <trkpt lat="49.13755" lon="0.12804">
        <ele>166.5</ele>
        <time>2023-10-15T08:46:08Z</time>
      </trkpt>
      <trkpt lat="49.13761" lon="0.128">
        <ele>166.6</ele>
        <time>2023-10-15T08:46:09Z</time>
      </trkpt>
      <trkpt lat="49.13766" lon="0.12797">
        <ele>166.7</ele>
        <time>2023-10-15T08:46:10Z</time>
      </trkpt>
      <trkpt lat="49.13771" lon="0.12794">
        <ele>166.8</ele>
        <time>2023-10-15T08:46:11Z</time>
      </trkpt>
      <trkpt lat="49.13777" lon="0.12792">
        <ele>167</ele>
        <time>2023-10-15T08:46:12Z</time>
      </trkpt>
      <trkpt lat="49.13783" lon="0.12789">
        <ele>167.1</ele>
        <time>2023-10-15T08:46:13Z</time>
      </trkpt>
      <trkpt lat="49.13788" lon="0.12786">
        <ele>167.3</ele>
        <time>2023-10-15T08:46:14Z</time>
      </trkpt>
      <trkpt lat="49.13794" lon="0.12783">
        <ele>167.5</ele>
        <time>2023-10-15T08:46:15Z</time>
      </trkpt>
      <trkpt lat="49.13799" lon="0.12779">
        <ele>167.7</ele>
        <time>2023-10-15T08:46:16Z</time>
      </trkpt>
      <trkpt lat="49.13805" lon="0.12776">
        <ele>167.8</ele>
        <time>2023-10-15T08:46:17Z</time>
      </trkpt>
      <trkpt lat="49.1381" lon="0.12772">
        <ele>168</ele>
        <time>2023-10-15T08:46:18Z</time>
      </trkpt>
      <trkpt lat="49.13816" lon="0.12768">
        <ele>168.2</ele>
        <time>2023-10-15T08:46:19Z</time>
      </trkpt>
      <trkpt lat="49.13822" lon="0.12764">
        <ele>168.3</ele>
        <time>2023-10-15T08:46:20Z</time>
      </trkpt>
      <trkpt lat="49.13828" lon="0.12761">
        <ele>168.5</ele>
        <time>2023-10-15T08:46:21Z</time>
      </trkpt>
      <trkpt lat="49.13834" lon="0.12757">
        <ele>168.6</ele>
        <time>2023-10-15T08:46:22Z</time>
      </trkpt>
      <trkpt lat="49.1384" lon="0.12754">
        <ele>168.7</ele>
        <time>2023-10-15T08:46:23Z</time>
      </trkpt>
      <trkpt lat="49.13846" lon="0.1275">
        <ele>168.9</ele>
        <time>2023-10-15T08:46:24Z</time>
      </trkpt>
      <trkpt lat="49.13852" lon="0.12747">
        <ele>169.1</ele>
        <time>2023-10-15T08:46:25Z</time>
      </trkpt>
      <trkpt lat="49.13858" lon="0.12743">
        <ele>169.2</ele>
        <time>2023-10-15T08:46:26Z</time>
      </trkpt>
      <trkpt lat="49.13864" lon="0.12739">
        <ele>169.4</ele>
        <time>2023-10-15T08:46:27Z</time>
      </trkpt>
      <trkpt lat="49.13871" lon="0.12736">
        <ele>169.6</ele>
        <time>2023-10-15T08:46:28Z</time>
      </trkpt>
      <trkpt lat="49.13877" lon="0.12732">
        <ele>169.7</ele>
        <time>2023-10-15T08:46:29Z</time>
      </trkpt>
      <trkpt lat="49.13883" lon="0.12728">
        <ele>169.9</ele>
        <time>2023-10-15T08:46:30Z</time>
      </trkpt>
      <trkpt lat="49.13889" lon="0.12724">
        <ele>170</ele>
        <time>2023-10-15T08:46:31Z</time>
      </trkpt>
      <trkpt lat="49.13895" lon="0.12721">
        <ele>170.2</ele>
        <time>2023-10-15T08:46:32Z</time>
      </trkpt>
      <trkpt lat="49.13902" lon="0.12717">
        <ele>170.3</ele>
        <time>2023-10-15T08:46:33Z</time>
      </trkpt>
      <trkpt lat="49.13909" lon="0.12714">
        <ele>170.5</ele>
        <time>2023-10-15T08:46:34Z</time>
      </trkpt>
      <trkpt lat="49.13915" lon="0.12711">
        <ele>170.6</ele>
        <time>2023-10-15T08:46:35Z</time>
      </trkpt>
      <trkpt lat="49.13921" lon="0.12707">
        <ele>170.7</ele>
        <time>2023-10-15T08:46:36Z</time>
      </trkpt>
      <trkpt lat="49.13928" lon="0.12704">
        <ele>170.8</ele>
        <time>2023-10-15T08:46:37Z</time>
      </trkpt>
      <trkpt lat="49.13934" lon="0.127">
        <ele>171</ele>
        <time>2023-10-15T08:46:38Z</time>
      </trkpt>
      <trkpt lat="49.1394" lon="0.12697">
        <ele>171.1</ele>
        <time>2023-10-15T08:46:39Z</time>
      </trkpt>
      <trkpt lat="49.13947" lon="0.12693">
        <ele>171.2</ele>
        <time>2023-10-15T08:46:40Z</time>
      </trkpt>
      <trkpt lat="49.13952" lon="0.12689">
        <ele>171.2</ele>
        <time>2023-10-15T08:46:41Z</time>
      </trkpt>
      <trkpt lat="49.13958" lon="0.12684">
        <ele>171.3</ele>
        <time>2023-10-15T08:46:42Z</time>
      </trkpt>
      <trkpt lat="49.13963" lon="0.12681">
        <ele>171.3</ele>
        <time>2023-10-15T08:46:43Z</time>
      </trkpt>
      <trkpt lat="49.13969" lon="0.12677">
        <ele>171.4</ele>
        <time>2023-10-15T08:46:44Z</time>
      </trkpt>
      <trkpt lat="49.13976" lon="0.12674">
        <ele>171.4</ele>
        <time>2023-10-15T08:46:45Z</time>
      </trkpt>
      <trkpt lat="49.13982" lon="0.12671">
        <ele>171.5</ele>
        <time>2023-10-15T08:46:46Z</time>
      </trkpt>
      <trkpt lat="49.13989" lon="0.12667">
        <ele>171.5</ele>
        <time>2023-10-15T08:46:47Z</time>
      </trkpt>
      <trkpt lat="49.13996" lon="0.12664">
        <ele>171.6</ele>
        <time>2023-10-15T08:46:48Z</time>
      </trkpt>
      <trkpt lat="49.14003" lon="0.1266">
        <ele>171.6</ele>
        <time>2023-10-15T08:46:49Z</time>
      </trkpt>
      <trkpt lat="49.14011" lon="0.12656">
        <ele>171.7</ele>
        <time>2023-10-15T08:46:50Z</time>
      </trkpt>
      <trkpt lat="49.14018" lon="0.12652">
        <ele>171.7</ele>
        <time>2023-10-15T08:46:51Z</time>
      </trkpt>
      <trkpt lat="49.14026" lon="0.12648">
        <ele>171.7</ele>
        <time>2023-10-15T08:46:52Z</time>
      </trkpt>
      <trkpt lat="49.14033" lon="0.12644">
        <ele>171.6</ele>
        <time>2023-10-15T08:46:53Z</time>
      </trkpt>
      <trkpt lat="49.14041" lon="0.1264">
        <ele>171.6</ele>
        <time>2023-10-15T08:46:54Z</time>
      </trkpt>
      <trkpt lat="49.14049" lon="0.12636">
        <ele>171.5</ele>
        <time>2023-10-15T08:46:55Z</time>
      </trkpt>
      <trkpt lat="49.14057" lon="0.12632">
        <ele>171.4</ele>
        <time>2023-10-15T08:46:56Z</time>
      </trkpt>
      <trkpt lat="49.14064" lon="0.12627">
        <ele>171.4</ele>
        <time>2023-10-15T08:46:57Z</time>
      </trkpt>
      <trkpt lat="49.14072" lon="0.12623">
        <ele>171.3</ele>
        <time>2023-10-15T08:46:58Z</time>
      </trkpt>
      <trkpt lat="49.1408" lon="0.12618">
        <ele>171.2</ele>
        <time>2023-10-15T08:46:59Z</time>
      </trkpt>
      <trkpt lat="49.14088" lon="0.12614">
        <ele>171.1</ele>
        <time>2023-10-15T08:47:00Z</time>
      </trkpt>
      <trkpt lat="49.14096" lon="0.12609">
        <ele>170.9</ele>
        <time>2023-10-15T08:47:01Z</time>
      </trkpt>
      <trkpt lat="49.14104" lon="0.12604">
        <ele>170.7</ele>
        <time>2023-10-15T08:47:02Z</time>
      </trkpt>
      <trkpt lat="49.14113" lon="0.12599">
        <ele>170.5</ele>
        <time>2023-10-15T08:47:03Z</time>
      </trkpt>
      <trkpt lat="49.14121" lon="0.12594">
        <ele>170.3</ele>
        <time>2023-10-15T08:47:04Z</time>
      </trkpt>
      <trkpt lat="49.1413" lon="0.12589">
        <ele>170.1</ele>
        <time>2023-10-15T08:47:05Z</time>
      </trkpt>
      <trkpt lat="49.14139" lon="0.12585">
        <ele>169.8</ele>
        <time>2023-10-15T08:47:06Z</time>
      </trkpt>
      <trkpt lat="49.14147" lon="0.1258">
        <ele>169.6</ele>
        <time>2023-10-15T08:47:07Z</time>
      </trkpt>
      <trkpt lat="49.14156" lon="0.12575">
        <ele>169.4</ele>
        <time>2023-10-15T08:47:08Z</time>
      </trkpt>
      <trkpt lat="49.14165" lon="0.1257">
        <ele>169.1</ele>
        <time>2023-10-15T08:47:09Z</time>
      </trkpt>
      <trkpt lat="49.14174" lon="0.12565">
        <ele>168.9</ele>
        <time>2023-10-15T08:47:10Z</time>
      </trkpt>
      <trkpt lat="49.14182" lon="0.1256">
        <ele>168.6</ele>
        <time>2023-10-15T08:47:11Z</time>
      </trkpt>
      <trkpt lat="49.14192" lon="0.12555">
        <ele>168.4</ele>
        <time>2023-10-15T08:47:12Z</time>
      </trkpt>
      <trkpt lat="49.14201" lon="0.12549">
        <ele>168.1</ele>
        <time>2023-10-15T08:47:13Z</time>
      </trkpt>
      <trkpt lat="49.1421" lon="0.12544">
        <ele>167.9</ele>
        <time>2023-10-15T08:47:14Z</time>
      </trkpt>
      <trkpt lat="49.14219" lon="0.12539">
        <ele>167.7</ele>
        <time>2023-10-15T08:47:15Z</time>
      </trkpt>
      <trkpt lat="49.14228" lon="0.12534">
        <ele>167.5</ele>
        <time>2023-10-15T08:47:16Z</time>
      </trkpt>
      <trkpt lat="49.14237" lon="0.12528">
        <ele>167.2</ele>
        <time>2023-10-15T08:47:17Z</time>
      </trkpt>
      <trkpt lat="49.14247" lon="0.12523">
        <ele>167</ele>
        <time>2023-10-15T08:47:18Z</time>
      </trkpt>
      <trkpt lat="49.14256" lon="0.12518">
        <ele>166.7</ele>
        <time>2023-10-15T08:47:19Z</time>
      </trkpt>
      <trkpt lat="49.14265" lon="0.12512">
        <ele>166.4</ele>
        <time>2023-10-15T08:47:20Z</time>
      </trkpt>
      <trkpt lat="49.14274" lon="0.12507">
        <ele>166.2</ele>
        <time>2023-10-15T08:47:21Z</time>
      </trkpt>
      <trkpt lat="49.14284" lon="0.12502">
        <ele>165.9</ele>
        <time>2023-10-15T08:47:22Z</time>
      </trkpt>
      <trkpt lat="49.14293" lon="0.12497">
        <ele>165.6</ele>
        <time>2023-10-15T08:47:23Z</time>
      </trkpt>
      <trkpt lat="49.14301" lon="0.12492">
        <ele>165.4</ele>
        <time>2023-10-15T08:47:24Z</time>
      </trkpt>
      <trkpt lat="49.1431" lon="0.12486">
        <ele>165.2</ele>
        <time>2023-10-15T08:47:25Z</time>
      </trkpt>
      <trkpt lat="49.14319" lon="0.12481">
        <ele>165</ele>
        <time>2023-10-15T08:47:26Z</time>
      </trkpt>
      <trkpt lat="49.14327" lon="0.12476">
        <ele>164.8</ele>
        <time>2023-10-15T08:47:27Z</time>
      </trkpt>
      <trkpt lat="49.14336" lon="0.12471">
        <ele>164.7</ele>
        <time>2023-10-15T08:47:28Z</time>
      </trkpt>
      <trkpt lat="49.14344" lon="0.12466">
        <ele>164.6</ele>
        <time>2023-10-15T08:47:29Z</time>
      </trkpt>
      <trkpt lat="49.14352" lon="0.12462">
        <ele>164.5</ele>
        <time>2023-10-15T08:47:30Z</time>
      </trkpt>
      <trkpt lat="49.1436" lon="0.12458">
        <ele>164.4</ele>
        <time>2023-10-15T08:47:31Z</time>
      </trkpt>
      <trkpt lat="49.14368" lon="0.12453">
        <ele>164.2</ele>
        <time>2023-10-15T08:47:32Z</time>
      </trkpt>
      <trkpt lat="49.14375" lon="0.12449">
        <ele>164.2</ele>
        <time>2023-10-15T08:47:33Z</time>
      </trkpt>
      <trkpt lat="49.14383" lon="0.12444">
        <ele>164.1</ele>
        <time>2023-10-15T08:47:34Z</time>
      </trkpt>
      <trkpt lat="49.14391" lon="0.1244">
        <ele>164</ele>
        <time>2023-10-15T08:47:35Z</time>
      </trkpt>
      <trkpt lat="49.14399" lon="0.12436">
        <ele>164</ele>
        <time>2023-10-15T08:47:36Z</time>
      </trkpt>
      <trkpt lat="49.14406" lon="0.12431">
        <ele>163.9</ele>
        <time>2023-10-15T08:47:37Z</time>
      </trkpt>
      <trkpt lat="49.14414" lon="0.12426">
        <ele>163.9</ele>
        <time>2023-10-15T08:47:38Z</time>
      </trkpt>
      <trkpt lat="49.14422" lon="0.12423">
        <ele>163.9</ele>
        <time>2023-10-15T08:47:39Z</time>
      </trkpt>
      <trkpt lat="49.1443" lon="0.12418">
        <ele>164</ele>
        <time>2023-10-15T08:47:40Z</time>
      </trkpt>
      <trkpt lat="49.14438" lon="0.12413">
        <ele>164</ele>
        <time>2023-10-15T08:47:41Z</time>
      </trkpt>
      <trkpt lat="49.14446" lon="0.12409">
        <ele>164.1</ele>
        <time>2023-10-15T08:47:42Z</time>
      </trkpt>
      <trkpt lat="49.14455" lon="0.12404">
        <ele>164.2</ele>
        <time>2023-10-15T08:47:43Z</time>
      </trkpt>
      <trkpt lat="49.14463" lon="0.12399">
        <ele>164.1</ele>
        <time>2023-10-15T08:47:44Z</time>
      </trkpt>
      <trkpt lat="49.14472" lon="0.12394">
        <ele>164</ele>
        <time>2023-10-15T08:47:45Z</time>
      </trkpt>
      <trkpt lat="49.1448" lon="0.12389">
        <ele>164</ele>
        <time>2023-10-15T08:47:46Z</time>
      </trkpt>
      <trkpt lat="49.14489" lon="0.12383">
        <ele>163.9</ele>
        <time>2023-10-15T08:47:47Z</time>
      </trkpt>
      <trkpt lat="49.14497" lon="0.12378">
        <ele>163.8</ele>
        <time>2023-10-15T08:47:48Z</time>
      </trkpt>
      <trkpt lat="49.14505" lon="0.12373">
        <ele>163.8</ele>
        <time>2023-10-15T08:47:49Z</time>
      </trkpt>
      <trkpt lat="49.14514" lon="0.12369">
        <ele>163.8</ele>
        <time>2023-10-15T08:47:50Z</time>
      </trkpt>
      <trkpt lat="49.14522" lon="0.12364">
        <ele>163.8</ele>
        <time>2023-10-15T08:47:51Z</time>
      </trkpt>
      <trkpt lat="49.14531" lon="0.12359">
        <ele>163.9</ele>
        <time>2023-10-15T08:47:52Z</time>
      </trkpt>
      <trkpt lat="49.14539" lon="0.12355">
        <ele>163.7</ele>
        <time>2023-10-15T08:47:53Z</time>
      </trkpt>
      <trkpt lat="49.14547" lon="0.1235">
        <ele>163.6</ele>
        <time>2023-10-15T08:47:54Z</time>
      </trkpt>
      <trkpt lat="49.14556" lon="0.12345">
        <ele>163.5</ele>
        <time>2023-10-15T08:47:55Z</time>
      </trkpt>
      <trkpt lat="49.14564" lon="0.12341">
        <ele>163.5</ele>
        <time>2023-10-15T08:47:56Z</time>
      </trkpt>
      <trkpt lat="49.14572" lon="0.12336">
        <ele>163.4</ele>
        <time>2023-10-15T08:47:57Z</time>
      </trkpt>
      <trkpt lat="49.14581" lon="0.12331">
        <ele>163.3</ele>
        <time>2023-10-15T08:47:58Z</time>
      </trkpt>
      <trkpt lat="49.14589" lon="0.12326">
        <ele>163.2</ele>
        <time>2023-10-15T08:47:59Z</time>
      </trkpt>
      <trkpt lat="49.14597" lon="0.12322">
        <ele>163.1</ele>
        <time>2023-10-15T08:48:00Z</time>
      </trkpt>
      <trkpt lat="49.14606" lon="0.12317">
        <ele>163.1</ele>
        <time>2023-10-15T08:48:01Z</time>
      </trkpt>
      <trkpt lat="49.14614" lon="0.12312">
        <ele>163</ele>
        <time>2023-10-15T08:48:02Z</time>
      </trkpt>
      <trkpt lat="49.14622" lon="0.12307">
        <ele>162.9</ele>
        <time>2023-10-15T08:48:03Z</time>
      </trkpt>
      <trkpt lat="49.14631" lon="0.12303">
        <ele>162.8</ele>
        <time>2023-10-15T08:48:04Z</time>
      </trkpt>
      <trkpt lat="49.14639" lon="0.12298">
        <ele>162.7</ele>
        <time>2023-10-15T08:48:05Z</time>
      </trkpt>
      <trkpt lat="49.14648" lon="0.12293">
        <ele>162.5</ele>
        <time>2023-10-15T08:48:06Z</time>
      </trkpt>
      <trkpt lat="49.14656" lon="0.12288">
        <ele>162.4</ele>
        <time>2023-10-15T08:48:07Z</time>
      </trkpt>
      <trkpt lat="49.14664" lon="0.12283">
        <ele>162.3</ele>
        <time>2023-10-15T08:48:08Z</time>
      </trkpt>
      <trkpt lat="49.14673" lon="0.12278">
        <ele>162.1</ele>
        <time>2023-10-15T08:48:09Z</time>
      </trkpt>
      <trkpt lat="49.14681" lon="0.12273">
        <ele>161.8</ele>
        <time>2023-10-15T08:48:10Z</time>
      </trkpt>
      <trkpt lat="49.1469" lon="0.12268">
        <ele>161.5</ele>
        <time>2023-10-15T08:48:11Z</time>
      </trkpt>
      <trkpt lat="49.14699" lon="0.12263">
        <ele>161.2</ele>
        <time>2023-10-15T08:48:12Z</time>
      </trkpt>
      <trkpt lat="49.14708" lon="0.12258">
        <ele>160.9</ele>
        <time>2023-10-15T08:48:13Z</time>
      </trkpt>
      <trkpt lat="49.14717" lon="0.12253">
        <ele>160.5</ele>
        <time>2023-10-15T08:48:14Z</time>
      </trkpt>
      <trkpt lat="49.14726" lon="0.12248">
        <ele>160.2</ele>
        <time>2023-10-15T08:48:15Z</time>
      </trkpt>
      <trkpt lat="49.14735" lon="0.12243">
        <ele>159.8</ele>
        <time>2023-10-15T08:48:16Z</time>
      </trkpt>
      <trkpt lat="49.14744" lon="0.12238">
        <ele>159.4</ele>
        <time>2023-10-15T08:48:17Z</time>
      </trkpt>
      <trkpt lat="49.14753" lon="0.12233">
        <ele>158.9</ele>
        <time>2023-10-15T08:48:18Z</time>
      </trkpt>
      <trkpt lat="49.14762" lon="0.12228">
        <ele>158.5</ele>
        <time>2023-10-15T08:48:19Z</time>
      </trkpt>
      <trkpt lat="49.14772" lon="0.12223">
        <ele>158.1</ele>
        <time>2023-10-15T08:48:20Z</time>
      </trkpt>
      <trkpt lat="49.14781" lon="0.12217">
        <ele>157.7</ele>
        <time>2023-10-15T08:48:21Z</time>
      </trkpt>
      <trkpt lat="49.1479" lon="0.1221">
        <ele>157.3</ele>
        <time>2023-10-15T08:48:22Z</time>
      </trkpt>
      <trkpt lat="49.14798" lon="0.12201">
        <ele>156.8</ele>
        <time>2023-10-15T08:48:23Z</time>
      </trkpt>
      <trkpt lat="49.14806" lon="0.12192">
        <ele>156.4</ele>
        <time>2023-10-15T08:48:24Z</time>
      </trkpt>
      <trkpt lat="49.14814" lon="0.12182">
        <ele>156</ele>
        <time>2023-10-15T08:48:25Z</time>
      </trkpt>
      <trkpt lat="49.14822" lon="0.12171">
        <ele>156</ele>
        <time>2023-10-15T08:48:26Z</time>
      </trkpt>
      <trkpt lat="49.14828" lon="0.1216">
        <ele>155.5</ele>
        <time>2023-10-15T08:48:27Z</time>
      </trkpt>
      <trkpt lat="49.14834" lon="0.12148">
        <ele>155</ele>
        <time>2023-10-15T08:48:28Z</time>
      </trkpt>
      <trkpt lat="49.1484" lon="0.12135">
        <ele>154.4</ele>
        <time>2023-10-15T08:48:29Z</time>
      </trkpt>
      <trkpt lat="49.14845" lon="0.12122">
        <ele>153.9</ele>
        <time>2023-10-15T08:48:30Z</time>
      </trkpt>
      <trkpt lat="49.1485" lon="0.12108">
        <ele>153.3</ele>
        <time>2023-10-15T08:48:31Z</time>
      </trkpt>
      <trkpt lat="49.14854" lon="0.12093">
        <ele>152.7</ele>
        <time>2023-10-15T08:48:32Z</time>
      </trkpt>
      <trkpt lat="49.14858" lon="0.12078">
        <ele>152.1</ele>
        <time>2023-10-15T08:48:33Z</time>
      </trkpt>
      <trkpt lat="49.14862" lon="0.12062">
        <ele>151.5</ele>
        <time>2023-10-15T08:48:34Z</time>
      </trkpt>
      <trkpt lat="49.14865" lon="0.12047">
        <ele>150.8</ele>
        <time>2023-10-15T08:48:35Z</time>
      </trkpt>
      <trkpt lat="49.14869" lon="0.12031">
        <ele>150.2</ele>
        <time>2023-10-15T08:48:36Z</time>
      </trkpt>
      <trkpt lat="49.14873" lon="0.12015">
        <ele>149.6</ele>
        <time>2023-10-15T08:48:37Z</time>
      </trkpt>
      <trkpt lat="49.14876" lon="0.11999">
        <ele>149</ele>
        <time>2023-10-15T08:48:38Z</time>
      </trkpt>
      <trkpt lat="49.1488" lon="0.11983">
        <ele>148.4</ele>
        <time>2023-10-15T08:48:39Z</time>
      </trkpt>
      <trkpt lat="49.14883" lon="0.11967">
        <ele>147.8</ele>
        <time>2023-10-15T08:48:40Z</time>
      </trkpt>
      <trkpt lat="49.14887" lon="0.1195">
        <ele>147.1</ele>
        <time>2023-10-15T08:48:41Z</time>
      </trkpt>
      <trkpt lat="49.1489" lon="0.11934">
        <ele>146.5</ele>
        <time>2023-10-15T08:48:42Z</time>
      </trkpt>
      <trkpt lat="49.14893" lon="0.11918">
        <ele>145.9</ele>
        <time>2023-10-15T08:48:43Z</time>
      </trkpt>
      <trkpt lat="49.14897" lon="0.11901">
        <ele>145.2</ele>
        <time>2023-10-15T08:48:44Z</time>
      </trkpt>
      <trkpt lat="49.14901" lon="0.11883">
        <ele>144.6</ele>
        <time>2023-10-15T08:48:45Z</time>
      </trkpt>
      <trkpt lat="49.14904" lon="0.11866">
        <ele>144</ele>
        <time>2023-10-15T08:48:46Z</time>
      </trkpt>
      <trkpt lat="49.14908" lon="0.11849">
        <ele>143.4</ele>
        <time>2023-10-15T08:48:47Z</time>
      </trkpt>
      <trkpt lat="49.14912" lon="0.11833">
        <ele>142.7</ele>
        <time>2023-10-15T08:48:48Z</time>
      </trkpt>
      <trkpt lat="49.14918" lon="0.11817">
        <ele>142</ele>
        <time>2023-10-15T08:48:49Z</time>
      </trkpt>
      <trkpt lat="49.14925" lon="0.11802">
        <ele>141.3</ele>
        <time>2023-10-15T08:48:50Z</time>
      </trkpt>
      <trkpt lat="49.14932" lon="0.11788">
        <ele>140.6</ele>
        <time>2023-10-15T08:48:51Z</time>
      </trkpt>
      <trkpt lat="49.14941" lon="0.11775">
        <ele>139.9</ele>
        <time>2023-10-15T08:48:52Z</time>
      </trkpt>
      <trkpt lat="49.1495" lon="0.11763">
        <ele>139.3</ele>
        <time>2023-10-15T08:48:53Z</time>
      </trkpt>
      <trkpt lat="49.1496" lon="0.11754">
        <ele>138.6</ele>
        <time>2023-10-15T08:48:54Z</time>
      </trkpt>
      <trkpt lat="49.14971" lon="0.11746">
        <ele>138.1</ele>
        <time>2023-10-15T08:48:55Z</time>
      </trkpt>
      <trkpt lat="49.14981" lon="0.11737">
        <ele>138.5</ele>
        <time>2023-10-15T08:48:56Z</time>
      </trkpt>
      <trkpt lat="49.14991" lon="0.11728">
        <ele>138.8</ele>
        <time>2023-10-15T08:48:57Z</time>
      </trkpt>
      <trkpt lat="49.15" lon="0.11717">
        <ele>138.5</ele>
        <time>2023-10-15T08:48:58Z</time>
      </trkpt>
      <trkpt lat="49.15008" lon="0.11707">
        <ele>138.4</ele>
        <time>2023-10-15T08:48:59Z</time>
      </trkpt>
      <trkpt lat="49.15015" lon="0.11695">
        <ele>138.2</ele>
        <time>2023-10-15T08:49:00Z</time>
      </trkpt>
      <trkpt lat="49.15022" lon="0.11682">
        <ele>138.1</ele>
        <time>2023-10-15T08:49:01Z</time>
      </trkpt>
      <trkpt lat="49.15029" lon="0.11668">
        <ele>137.9</ele>
        <time>2023-10-15T08:49:02Z</time>
      </trkpt>
      <trkpt lat="49.15035" lon="0.11654">
        <ele>137.7</ele>
        <time>2023-10-15T08:49:03Z</time>
      </trkpt>
      <trkpt lat="49.1504" lon="0.11639">
        <ele>137.5</ele>
        <time>2023-10-15T08:49:04Z</time>
      </trkpt>
      <trkpt lat="49.15046" lon="0.11625">
        <ele>137.4</ele>
        <time>2023-10-15T08:49:05Z</time>
      </trkpt>
      <trkpt lat="49.15051" lon="0.11611">
        <ele>137.2</ele>
        <time>2023-10-15T08:49:06Z</time>
      </trkpt>
      <trkpt lat="49.15057" lon="0.11596">
        <ele>137.1</ele>
        <time>2023-10-15T08:49:07Z</time>
      </trkpt>
      <trkpt lat="49.15062" lon="0.11581">
        <ele>136.9</ele>
        <time>2023-10-15T08:49:08Z</time>
      </trkpt>
      <trkpt lat="49.15067" lon="0.11567">
        <ele>136.8</ele>
        <time>2023-10-15T08:49:09Z</time>
      </trkpt>
      <trkpt lat="49.15072" lon="0.11553">
        <ele>136.7</ele>
        <time>2023-10-15T08:49:10Z</time>
      </trkpt>
      <trkpt lat="49.15078" lon="0.11539">
        <ele>136.6</ele>
        <time>2023-10-15T08:49:11Z</time>
      </trkpt>
      <trkpt lat="49.15084" lon="0.11526">
        <ele>136.4</ele>
        <time>2023-10-15T08:49:12Z</time>
      </trkpt>
      <trkpt lat="49.1509" lon="0.11513">
        <ele>136.3</ele>
        <time>2023-10-15T08:49:13Z</time>
      </trkpt>
      <trkpt lat="49.15096" lon="0.11499">
        <ele>136.2</ele>
        <time>2023-10-15T08:49:14Z</time>
      </trkpt>
      <trkpt lat="49.15102" lon="0.11487">
        <ele>136.1</ele>
        <time>2023-10-15T08:49:15Z</time>
      </trkpt>
      <trkpt lat="49.15108" lon="0.11474">
        <ele>136</ele>
        <time>2023-10-15T08:49:16Z</time>
      </trkpt>
      <trkpt lat="49.15115" lon="0.11462">
        <ele>135.9</ele>
        <time>2023-10-15T08:49:17Z</time>
      </trkpt>
      <trkpt lat="49.15122" lon="0.1145">
        <ele>135.7</ele>
        <time>2023-10-15T08:49:18Z</time>
      </trkpt>
      <trkpt lat="49.1513" lon="0.11439">
        <ele>135.7</ele>
        <time>2023-10-15T08:49:19Z</time>
      </trkpt>
      <trkpt lat="49.15137" lon="0.11427">
        <ele>135.5</ele>
        <time>2023-10-15T08:49:20Z</time>
      </trkpt>
      <trkpt lat="49.15145" lon="0.11416">
        <ele>135.4</ele>
        <time>2023-10-15T08:49:21Z</time>
      </trkpt>
      <trkpt lat="49.15152" lon="0.11405">
        <ele>135.1</ele>
        <time>2023-10-15T08:49:22Z</time>
      </trkpt>
      <trkpt lat="49.1516" lon="0.11394">
        <ele>134.9</ele>
        <time>2023-10-15T08:49:23Z</time>
      </trkpt>
      <trkpt lat="49.15168" lon="0.11384">
        <ele>134.6</ele>
        <time>2023-10-15T08:49:24Z</time>
      </trkpt>
      <trkpt lat="49.15175" lon="0.11373">
        <ele>134.2</ele>
        <time>2023-10-15T08:49:25Z</time>
      </trkpt>
      <trkpt lat="49.15182" lon="0.11361">
        <ele>133.8</ele>
        <time>2023-10-15T08:49:26Z</time>
      </trkpt>
      <trkpt lat="49.1519" lon="0.11351">
        <ele>133.4</ele>
        <time>2023-10-15T08:49:27Z</time>
      </trkpt>
      <trkpt lat="49.15198" lon="0.1134">
        <ele>133</ele>
        <time>2023-10-15T08:49:28Z</time>
      </trkpt>
      <trkpt lat="49.15206" lon="0.11329">
        <ele>132.6</ele>
        <time>2023-10-15T08:49:29Z</time>
      </trkpt>
      <trkpt lat="49.15214" lon="0.11319">
        <ele>132.2</ele>
        <time>2023-10-15T08:49:30Z</time>
      </trkpt>
      <trkpt lat="49.15223" lon="0.11309">
        <ele>131.8</ele>
        <time>2023-10-15T08:49:31Z</time>
      </trkpt>
      <trkpt lat="49.15232" lon="0.11301">
        <ele>131.4</ele>
        <time>2023-10-15T08:49:32Z</time>
      </trkpt>
      <trkpt lat="49.15241" lon="0.11292">
        <ele>131</ele>
        <time>2023-10-15T08:49:33Z</time>
      </trkpt>
      <trkpt lat="49.1525" lon="0.11283">
        <ele>130.5</ele>
        <time>2023-10-15T08:49:34Z</time>
      </trkpt>
      <trkpt lat="49.1526" lon="0.11274">
        <ele>130</ele>
        <time>2023-10-15T08:49:35Z</time>
      </trkpt>
      <trkpt lat="49.1527" lon="0.11264">
        <ele>129.5</ele>
        <time>2023-10-15T08:49:36Z</time>
      </trkpt>
      <trkpt lat="49.15279" lon="0.11256">
        <ele>129</ele>
        <time>2023-10-15T08:49:37Z</time>
      </trkpt>
      <trkpt lat="49.15288" lon="0.11247">
        <ele>128.4</ele>
        <time>2023-10-15T08:49:38Z</time>
      </trkpt>
      <trkpt lat="49.15298" lon="0.11239">
        <ele>127.9</ele>
        <time>2023-10-15T08:49:39Z</time>
      </trkpt>
      <trkpt lat="49.15307" lon="0.1123">
        <ele>127.3</ele>
        <time>2023-10-15T08:49:40Z</time>
      </trkpt>
      <trkpt lat="49.15316" lon="0.1122">
        <ele>126.7</ele>
        <time>2023-10-15T08:49:41Z</time>
      </trkpt>
      <trkpt lat="49.15324" lon="0.11208">
        <ele>126</ele>
        <time>2023-10-15T08:49:42Z</time>
      </trkpt>
      <trkpt lat="49.15333" lon="0.11197">
        <ele>125.4</ele>
        <time>2023-10-15T08:49:43Z</time>
      </trkpt>
      <trkpt lat="49.15341" lon="0.11185">
        <ele>124.9</ele>
        <time>2023-10-15T08:49:44Z</time>
      </trkpt>
      <trkpt lat="49.15349" lon="0.11173">
        <ele>124.5</ele>
        <time>2023-10-15T08:49:45Z</time>
      </trkpt>
      <trkpt lat="49.15357" lon="0.11161">
        <ele>124.3</ele>
        <time>2023-10-15T08:49:46Z</time>
      </trkpt>
      <trkpt lat="49.15365" lon="0.11149">
        <ele>124.1</ele>
        <time>2023-10-15T08:49:47Z</time>
      </trkpt>
      <trkpt lat="49.15372" lon="0.11138">
        <ele>124.1</ele>
        <time>2023-10-15T08:49:48Z</time>
      </trkpt>
      <trkpt lat="49.15379" lon="0.11126">
        <ele>124.2</ele>
        <time>2023-10-15T08:49:49Z</time>
      </trkpt>
      <trkpt lat="49.15385" lon="0.11114">
        <ele>124.3</ele>
        <time>2023-10-15T08:49:50Z</time>
      </trkpt>
      <trkpt lat="49.15392" lon="0.11103">
        <ele>124.4</ele>
        <time>2023-10-15T08:49:51Z</time>
      </trkpt>
      <trkpt lat="49.15398" lon="0.11092">
        <ele>124.5</ele>
        <time>2023-10-15T08:49:52Z</time>
      </trkpt>
      <trkpt lat="49.15405" lon="0.11082">
        <ele>124.7</ele>
        <time>2023-10-15T08:49:53Z</time>
      </trkpt>
      <trkpt lat="49.15411" lon="0.11072">
        <ele>124.8</ele>
        <time>2023-10-15T08:49:54Z</time>
      </trkpt>
      <trkpt lat="49.15417" lon="0.11062">
        <ele>124.9</ele>
        <time>2023-10-15T08:49:55Z</time>
      </trkpt>
      <trkpt lat="49.15423" lon="0.11052">
        <ele>125</ele>
        <time>2023-10-15T08:49:56Z</time>
      </trkpt>
      <trkpt lat="49.1543" lon="0.11042">
        <ele>125</ele>
        <time>2023-10-15T08:49:57Z</time>
      </trkpt>
      <trkpt lat="49.15436" lon="0.11031">
        <ele>125.1</ele>
        <time>2023-10-15T08:49:58Z</time>
      </trkpt>
      <trkpt lat="49.15443" lon="0.11021">
        <ele>125.1</ele>
        <time>2023-10-15T08:49:59Z</time>
      </trkpt>
      <trkpt lat="49.15449" lon="0.11011">
        <ele>125</ele>
        <time>2023-10-15T08:50:00Z</time>
      </trkpt>
      <trkpt lat="49.15455" lon="0.11001">
        <ele>124.9</ele>
        <time>2023-10-15T08:50:01Z</time>
      </trkpt>
      <trkpt lat="49.15462" lon="0.1099">
        <ele>124.7</ele>
        <time>2023-10-15T08:50:02Z</time>
      </trkpt>
      <trkpt lat="49.15468" lon="0.1098">
        <ele>124.6</ele>
        <time>2023-10-15T08:50:03Z</time>
      </trkpt>
      <trkpt lat="49.15475" lon="0.1097">
        <ele>124.3</ele>
        <time>2023-10-15T08:50:04Z</time>
      </trkpt>
      <trkpt lat="49.15482" lon="0.10959">
        <ele>124.2</ele>
        <time>2023-10-15T08:50:05Z</time>
      </trkpt>
      <trkpt lat="49.15489" lon="0.10949">
        <ele>124</ele>
        <time>2023-10-15T08:50:06Z</time>
      </trkpt>
      <trkpt lat="49.15495" lon="0.10938">
        <ele>123.8</ele>
        <time>2023-10-15T08:50:07Z</time>
      </trkpt>
      <trkpt lat="49.15502" lon="0.10928">
        <ele>123.8</ele>
        <time>2023-10-15T08:50:08Z</time>
      </trkpt>
      <trkpt lat="49.15509" lon="0.10918">
        <ele>123.7</ele>
        <time>2023-10-15T08:50:09Z</time>
      </trkpt>
      <trkpt lat="49.15516" lon="0.10908">
        <ele>123.5</ele>
        <time>2023-10-15T08:50:10Z</time>
      </trkpt>
      <trkpt lat="49.15522" lon="0.10897">
        <ele>123.3</ele>
        <time>2023-10-15T08:50:11Z</time>
      </trkpt>
      <trkpt lat="49.15529" lon="0.10886">
        <ele>123.1</ele>
        <time>2023-10-15T08:50:12Z</time>
      </trkpt>
      <trkpt lat="49.15536" lon="0.10875">
        <ele>123</ele>
        <time>2023-10-15T08:50:13Z</time>
      </trkpt>
      <trkpt lat="49.15543" lon="0.10865">
        <ele>122.8</ele>
        <time>2023-10-15T08:50:14Z</time>
      </trkpt>
      <trkpt lat="49.15549" lon="0.10854">
        <ele>122.6</ele>
        <time>2023-10-15T08:50:15Z</time>
      </trkpt>
      <trkpt lat="49.15555" lon="0.10843">
        <ele>122.5</ele>
        <time>2023-10-15T08:50:16Z</time>
      </trkpt>
      <trkpt lat="49.15562" lon="0.10832">
        <ele>122.4</ele>
        <time>2023-10-15T08:50:17Z</time>
      </trkpt>
      <trkpt lat="49.15568" lon="0.10822">
        <ele>122.3</ele>
        <time>2023-10-15T08:50:18Z</time>
      </trkpt>
      <trkpt lat="49.15574" lon="0.10811">
        <ele>122.2</ele>
        <time>2023-10-15T08:50:19Z</time>
      </trkpt>
      <trkpt lat="49.15581" lon="0.10801">
        <ele>122.2</ele>
        <time>2023-10-15T08:50:20Z</time>
      </trkpt>
      <trkpt lat="49.15587" lon="0.1079">
        <ele>122.1</ele>
        <time>2023-10-15T08:50:21Z</time>
      </trkpt>
      <trkpt lat="49.15594" lon="0.1078">
        <ele>122.1</ele>
        <time>2023-10-15T08:50:22Z</time>
      </trkpt>
      <trkpt lat="49.156" lon="0.1077">
        <ele>122.1</ele>
        <time>2023-10-15T08:50:23Z</time>
      </trkpt>
      <trkpt lat="49.15607" lon="0.10759">
        <ele>122</ele>
        <time>2023-10-15T08:50:24Z</time>
      </trkpt>
      <trkpt lat="49.15613" lon="0.10749">
        <ele>121.9</ele>
        <time>2023-10-15T08:50:25Z</time>
      </trkpt>
      <trkpt lat="49.15619" lon="0.10739">
        <ele>121.9</ele>
        <time>2023-10-15T08:50:26Z</time>
      </trkpt>
      <trkpt lat="49.15626" lon="0.10729">
        <ele>121.8</ele>
        <time>2023-10-15T08:50:27Z</time>
      </trkpt>
      <trkpt lat="49.15632" lon="0.10719">
        <ele>121.7</ele>
        <time>2023-10-15T08:50:28Z</time>
      </trkpt>
      <trkpt lat="49.15638" lon="0.10709">
        <ele>121.6</ele>
        <time>2023-10-15T08:50:29Z</time>
      </trkpt>
      <trkpt lat="49.15645" lon="0.10698">
        <ele>121.5</ele>
        <time>2023-10-15T08:50:30Z</time>
      </trkpt>
      <trkpt lat="49.15652" lon="0.10688">
        <ele>121.5</ele>
        <time>2023-10-15T08:50:31Z</time>
      </trkpt>
      <trkpt lat="49.15659" lon="0.10677">
        <ele>121.5</ele>
        <time>2023-10-15T08:50:32Z</time>
      </trkpt>
      <trkpt lat="49.15665" lon="0.10667">
        <ele>121.5</ele>
        <time>2023-10-15T08:50:33Z</time>
      </trkpt>
      <trkpt lat="49.15672" lon="0.10657">
        <ele>121.5</ele>
        <time>2023-10-15T08:50:34Z</time>
      </trkpt>
      <trkpt lat="49.15679" lon="0.10647">
        <ele>121.4</ele>
        <time>2023-10-15T08:50:35Z</time>
      </trkpt>
      <trkpt lat="49.15686" lon="0.10636">
        <ele>121.3</ele>
        <time>2023-10-15T08:50:36Z</time>
      </trkpt>
      <trkpt lat="49.15693" lon="0.10625">
        <ele>121.3</ele>
        <time>2023-10-15T08:50:37Z</time>
      </trkpt>
      <trkpt lat="49.157" lon="0.10615">
        <ele>121.1</ele>
        <time>2023-10-15T08:50:38Z</time>
      </trkpt>
      <trkpt lat="49.15707" lon="0.10604">
        <ele>121</ele>
        <time>2023-10-15T08:50:39Z</time>
      </trkpt>
      <trkpt lat="49.15714" lon="0.10593">
        <ele>120.8</ele>
        <time>2023-10-15T08:50:40Z</time>
      </trkpt>
      <trkpt lat="49.15721" lon="0.10582">
        <ele>120.7</ele>
        <time>2023-10-15T08:50:41Z</time>
      </trkpt>
      <trkpt lat="49.15728" lon="0.10572">
        <ele>120.5</ele>
        <time>2023-10-15T08:50:42Z</time>
      </trkpt>
      <trkpt lat="49.15735" lon="0.10561">
        <ele>120.2</ele>
        <time>2023-10-15T08:50:43Z</time>
      </trkpt>
      <trkpt lat="49.15743" lon="0.10551">
        <ele>119.9</ele>
        <time>2023-10-15T08:50:44Z</time>
      </trkpt>
      <trkpt lat="49.1575" lon="0.10541">
        <ele>119.5</ele>
        <time>2023-10-15T08:50:45Z</time>
      </trkpt>
      <trkpt lat="49.15757" lon="0.10531">
        <ele>119.1</ele>
        <time>2023-10-15T08:50:46Z</time>
      </trkpt>
      <trkpt lat="49.15765" lon="0.10521">
        <ele>118.6</ele>
        <time>2023-10-15T08:50:47Z</time>
      </trkpt>
      <trkpt lat="49.15774" lon="0.10511">
        <ele>118</ele>
        <time>2023-10-15T08:50:48Z</time>
      </trkpt>
      <trkpt lat="49.15782" lon="0.10502">
        <ele>117.5</ele>
        <time>2023-10-15T08:50:49Z</time>
      </trkpt>
      <trkpt lat="49.15791" lon="0.10493">
        <ele>117</ele>
        <time>2023-10-15T08:50:50Z</time>
      </trkpt>
      <trkpt lat="49.15799" lon="0.10484">
        <ele>116.4</ele>
        <time>2023-10-15T08:50:51Z</time>
      </trkpt>
      <trkpt lat="49.15809" lon="0.10475">
        <ele>115.9</ele>
        <time>2023-10-15T08:50:52Z</time>
      </trkpt>
      <trkpt lat="49.15818" lon="0.10466">
        <ele>115.3</ele>
        <time>2023-10-15T08:50:53Z</time>
      </trkpt>
      <trkpt lat="49.15827" lon="0.10457">
        <ele>114.7</ele>
        <time>2023-10-15T08:50:54Z</time>
      </trkpt>
      <trkpt lat="49.15836" lon="0.10448">
        <ele>114.1</ele>
        <time>2023-10-15T08:50:55Z</time>
      </trkpt>
      <trkpt lat="49.15845" lon="0.10439">
        <ele>113.5</ele>
        <time>2023-10-15T08:50:56Z</time>
      </trkpt>
      <trkpt lat="49.15854" lon="0.1043">
        <ele>112.9</ele>
        <time>2023-10-15T08:50:57Z</time>
      </trkpt>
      <trkpt lat="49.15863" lon="0.10421">
        <ele>112.3</ele>
        <time>2023-10-15T08:50:58Z</time>
      </trkpt>
      <trkpt lat="49.15872" lon="0.10412">
        <ele>111.7</ele>
        <time>2023-10-15T08:50:59Z</time>
      </trkpt>
      <trkpt lat="49.15881" lon="0.10403">
        <ele>111.1</ele>
        <time>2023-10-15T08:51:00Z</time>
      </trkpt>
      <trkpt lat="49.1589" lon="0.10393">
        <ele>110.4</ele>
        <time>2023-10-15T08:51:01Z</time>
      </trkpt>
      <trkpt lat="49.15899" lon="0.10383">
        <ele>109.8</ele>
        <time>2023-10-15T08:51:02Z</time>
      </trkpt>
      <trkpt lat="49.15909" lon="0.10374">
        <ele>109.2</ele>
        <time>2023-10-15T08:51:03Z</time>
      </trkpt>
      <trkpt lat="49.15919" lon="0.10364">
        <ele>108.5</ele>
        <time>2023-10-15T08:51:04Z</time>
      </trkpt>
      <trkpt lat="49.15928" lon="0.10354">
        <ele>107.9</ele>
        <time>2023-10-15T08:51:05Z</time>
      </trkpt>
      <trkpt lat="49.15938" lon="0.10344">
        <ele>107.2</ele>
        <time>2023-10-15T08:51:06Z</time>
      </trkpt>
      <trkpt lat="49.15947" lon="0.10334">
        <ele>106.6</ele>
        <time>2023-10-15T08:51:07Z</time>
      </trkpt>
      <trkpt lat="49.15957" lon="0.10324">
        <ele>106</ele>
        <time>2023-10-15T08:51:08Z</time>
      </trkpt>
      <trkpt lat="49.15967" lon="0.10315">
        <ele>105.6</ele>
        <time>2023-10-15T08:51:09Z</time>
      </trkpt>
      <trkpt lat="49.15977" lon="0.10306">
        <ele>105.3</ele>
        <time>2023-10-15T08:51:10Z</time>
      </trkpt>
      <trkpt lat="49.15986" lon="0.10298">
        <ele>105.1</ele>
        <time>2023-10-15T08:51:11Z</time>
      </trkpt>
      <trkpt lat="49.15996" lon="0.10288">
        <ele>105</ele>
        <time>2023-10-15T08:51:12Z</time>
      </trkpt>
      <trkpt lat="49.16005" lon="0.1028">
        <ele>104.9</ele>
        <time>2023-10-15T08:51:13Z</time>
      </trkpt>
      <trkpt lat="49.16013" lon="0.10271">
        <ele>104.9</ele>
        <time>2023-10-15T08:51:14Z</time>
      </trkpt>
      <trkpt lat="49.16022" lon="0.10262">
        <ele>104.8</ele>
        <time>2023-10-15T08:51:15Z</time>
      </trkpt>
      <trkpt lat="49.16031" lon="0.10253">
        <ele>104.9</ele>
        <time>2023-10-15T08:51:16Z</time>
      </trkpt>
      <trkpt lat="49.16039" lon="0.10244">
        <ele>105</ele>
        <time>2023-10-15T08:51:17Z</time>
      </trkpt>
      <trkpt lat="49.16047" lon="0.10235">
        <ele>105.1</ele>
        <time>2023-10-15T08:51:18Z</time>
      </trkpt>
      <trkpt lat="49.16056" lon="0.10226">
        <ele>105.3</ele>
        <time>2023-10-15T08:51:19Z</time>
      </trkpt>
      <trkpt lat="49.16064" lon="0.10216">
        <ele>105.5</ele>
        <time>2023-10-15T08:51:20Z</time>
      </trkpt>
      <trkpt lat="49.16071" lon="0.10206">
        <ele>105.7</ele>
        <time>2023-10-15T08:51:21Z</time>
      </trkpt>
      <trkpt lat="49.16078" lon="0.10196">
        <ele>105.7</ele>
        <time>2023-10-15T08:51:22Z</time>
      </trkpt>
      <trkpt lat="49.16084" lon="0.10186">
        <ele>105.6</ele>
        <time>2023-10-15T08:51:23Z</time>
      </trkpt>
      <trkpt lat="49.1609" lon="0.10174">
        <ele>105.5</ele>
        <time>2023-10-15T08:51:24Z</time>
      </trkpt>
      <trkpt lat="49.16096" lon="0.10161">
        <ele>105.3</ele>
        <time>2023-10-15T08:51:25Z</time>
      </trkpt>
      <trkpt lat="49.16101" lon="0.10147">
        <ele>105.1</ele>
        <time>2023-10-15T08:51:26Z</time>
      </trkpt>
      <trkpt lat="49.16106" lon="0.10133">
        <ele>104.9</ele>
        <time>2023-10-15T08:51:27Z</time>
      </trkpt>
      <trkpt lat="49.16112" lon="0.10119">
        <ele>104.8</ele>
        <time>2023-10-15T08:51:28Z</time>
      </trkpt>
      <trkpt lat="49.16117" lon="0.10105">
        <ele>104.7</ele>
        <time>2023-10-15T08:51:29Z</time>
      </trkpt>
      <trkpt lat="49.16122" lon="0.10091">
        <ele>104.6</ele>
        <time>2023-10-15T08:51:30Z</time>
      </trkpt>
      <trkpt lat="49.16127" lon="0.10078">
        <ele>104.5</ele>
        <time>2023-10-15T08:51:31Z</time>
      </trkpt>
      <trkpt lat="49.16133" lon="0.10065">
        <ele>104.5</ele>
        <time>2023-10-15T08:51:32Z</time>
      </trkpt>
      <trkpt lat="49.16139" lon="0.10052">
        <ele>104.4</ele>
        <time>2023-10-15T08:51:33Z</time>
      </trkpt>
      <trkpt lat="49.16144" lon="0.10038">
        <ele>104.3</ele>
        <time>2023-10-15T08:51:34Z</time>
      </trkpt>
      <trkpt lat="49.16149" lon="0.10025">
        <ele>104.2</ele>
        <time>2023-10-15T08:51:35Z</time>
      </trkpt>
      <trkpt lat="49.16153" lon="0.10012">
        <ele>104.1</ele>
        <time>2023-10-15T08:51:36Z</time>
      </trkpt>
      <trkpt lat="49.16158" lon="0.09999">
        <ele>104</ele>
        <time>2023-10-15T08:51:37Z</time>
      </trkpt>
      <trkpt lat="49.16164" lon="0.09986">
        <ele>103.8</ele>
        <time>2023-10-15T08:51:38Z</time>
      </trkpt>
      <trkpt lat="49.1617" lon="0.09973">
        <ele>103.7</ele>
        <time>2023-10-15T08:51:39Z</time>
      </trkpt>
      <trkpt lat="49.16176" lon="0.09961">
        <ele>103.6</ele>
        <time>2023-10-15T08:51:40Z</time>
      </trkpt>
      <trkpt lat="49.16183" lon="0.0995">
        <ele>103.5</ele>
        <time>2023-10-15T08:51:41Z</time>
      </trkpt>
      <trkpt lat="49.1619" lon="0.09939">
        <ele>103.5</ele>
        <time>2023-10-15T08:51:42Z</time>
      </trkpt>
      <trkpt lat="49.16198" lon="0.09928">
        <ele>103.5</ele>
        <time>2023-10-15T08:51:43Z</time>
      </trkpt>
      <trkpt lat="49.16205" lon="0.09917">
        <ele>103.5</ele>
        <time>2023-10-15T08:51:44Z</time>
      </trkpt>
      <trkpt lat="49.16213" lon="0.09907">
        <ele>103.4</ele>
        <time>2023-10-15T08:51:45Z</time>
      </trkpt>
      <trkpt lat="49.1622" lon="0.09897">
        <ele>103.4</ele>
        <time>2023-10-15T08:51:46Z</time>
      </trkpt>
      <trkpt lat="49.16228" lon="0.09887">
        <ele>103.4</ele>
        <time>2023-10-15T08:51:47Z</time>
      </trkpt>
      <trkpt lat="49.16236" lon="0.09878">
        <ele>103.3</ele>
        <time>2023-10-15T08:51:48Z</time>
      </trkpt>
      <trkpt lat="49.16244" lon="0.09868">
        <ele>103.2</ele>
        <time>2023-10-15T08:51:49Z</time>
      </trkpt>
      <trkpt lat="49.16251" lon="0.09857">
        <ele>103</ele>
        <time>2023-10-15T08:51:50Z</time>
      </trkpt>
      <trkpt lat="49.16259" lon="0.09846">
        <ele>102.8</ele>
        <time>2023-10-15T08:51:51Z</time>
      </trkpt>
      <trkpt lat="49.16266" lon="0.09835">
        <ele>102.6</ele>
        <time>2023-10-15T08:51:52Z</time>
      </trkpt>
      <trkpt lat="49.16273" lon="0.09824">
        <ele>102.3</ele>
        <time>2023-10-15T08:51:53Z</time>
      </trkpt>
      <trkpt lat="49.16281" lon="0.09812">
        <ele>102.1</ele>
        <time>2023-10-15T08:51:54Z</time>
      </trkpt>
      <trkpt lat="49.16288" lon="0.098">
        <ele>101.9</ele>
        <time>2023-10-15T08:51:55Z</time>
      </trkpt>
      <trkpt lat="49.16296" lon="0.09789">
        <ele>101.7</ele>
        <time>2023-10-15T08:51:56Z</time>
      </trkpt>
      <trkpt lat="49.16303" lon="0.09778">
        <ele>101.5</ele>
        <time>2023-10-15T08:51:57Z</time>
      </trkpt>
      <trkpt lat="49.1631" lon="0.09766">
        <ele>101.3</ele>
        <time>2023-10-15T08:51:58Z</time>
      </trkpt>
      <trkpt lat="49.16317" lon="0.09754">
        <ele>101.1</ele>
        <time>2023-10-15T08:51:59Z</time>
      </trkpt>
      <trkpt lat="49.16325" lon="0.09742">
        <ele>100.9</ele>
        <time>2023-10-15T08:52:00Z</time>
      </trkpt>
      <trkpt lat="49.16332" lon="0.0973">
        <ele>100.6</ele>
        <time>2023-10-15T08:52:01Z</time>
      </trkpt>
      <trkpt lat="49.16339" lon="0.09718">
        <ele>100.4</ele>
        <time>2023-10-15T08:52:02Z</time>
      </trkpt>
      <trkpt lat="49.16346" lon="0.09705">
        <ele>100.2</ele>
        <time>2023-10-15T08:52:03Z</time>
      </trkpt>
      <trkpt lat="49.16353" lon="0.09692">
        <ele>100.1</ele>
        <time>2023-10-15T08:52:04Z</time>
      </trkpt>
      <trkpt lat="49.16361" lon="0.0968">
        <ele>100</ele>
        <time>2023-10-15T08:52:05Z</time>
      </trkpt>
      <trkpt lat="49.16369" lon="0.09668">
        <ele>99.9</ele>
        <time>2023-10-15T08:52:06Z</time>
      </trkpt>
      <trkpt lat="49.16377" lon="0.09657">
        <ele>99.8</ele>
        <time>2023-10-15T08:52:07Z</time>
      </trkpt>
      <trkpt lat="49.16385" lon="0.09647">
        <ele>99.8</ele>
        <time>2023-10-15T08:52:08Z</time>
      </trkpt>
      <trkpt lat="49.16393" lon="0.09637">
        <ele>99.9</ele>
        <time>2023-10-15T08:52:09Z</time>
      </trkpt>
      <trkpt lat="49.16402" lon="0.09629">
        <ele>99.9</ele>
        <time>2023-10-15T08:52:10Z</time>
      </trkpt>
      <trkpt lat="49.1641" lon="0.09621">
        <ele>100.1</ele>
        <time>2023-10-15T08:52:11Z</time>
      </trkpt>
      <trkpt lat="49.16418" lon="0.09613">
        <ele>100.1</ele>
        <time>2023-10-15T08:52:12Z</time>
      </trkpt>
      <trkpt lat="49.16427" lon="0.09605">
        <ele>100.2</ele>
        <time>2023-10-15T08:52:13Z</time>
      </trkpt>
      <trkpt lat="49.16435" lon="0.09597">
        <ele>100.2</ele>
        <time>2023-10-15T08:52:14Z</time>
      </trkpt>
      <trkpt lat="49.16444" lon="0.09591">
        <ele>100.2</ele>
        <time>2023-10-15T08:52:15Z</time>
      </trkpt>
      <trkpt lat="49.16452" lon="0.09585">
        <ele>100</ele>
        <time>2023-10-15T08:52:16Z</time>
      </trkpt>
      <trkpt lat="49.16462" lon="0.09579">
        <ele>99.8</ele>
        <time>2023-10-15T08:52:17Z</time>
      </trkpt>
      <trkpt lat="49.16471" lon="0.09574">
        <ele>99.5</ele>
        <time>2023-10-15T08:52:18Z</time>
      </trkpt>
      <trkpt lat="49.16481" lon="0.09569">
        <ele>99.1</ele>
        <time>2023-10-15T08:52:19Z</time>
      </trkpt>
      <trkpt lat="49.16491" lon="0.09563">
        <ele>98.7</ele>
        <time>2023-10-15T08:52:20Z</time>
      </trkpt>
      <trkpt lat="49.16502" lon="0.09557">
        <ele>98.2</ele>
        <time>2023-10-15T08:52:21Z</time>
      </trkpt>
      <trkpt lat="49.16512" lon="0.09552">
        <ele>97.7</ele>
        <time>2023-10-15T08:52:22Z</time>
      </trkpt>
      <trkpt lat="49.16522" lon="0.09546">
        <ele>97.2</ele>
        <time>2023-10-15T08:52:23Z</time>
      </trkpt>
      <trkpt lat="49.16533" lon="0.09541">
        <ele>96.6</ele>
        <time>2023-10-15T08:52:24Z</time>
      </trkpt>
      <trkpt lat="49.16543" lon="0.09536">
        <ele>96</ele>
        <time>2023-10-15T08:52:25Z</time>
      </trkpt>
      <trkpt lat="49.16554" lon="0.0953">
        <ele>95.4</ele>
        <time>2023-10-15T08:52:26Z</time>
      </trkpt>
      <trkpt lat="49.16565" lon="0.09524">
        <ele>94.6</ele>
        <time>2023-10-15T08:52:27Z</time>
      </trkpt>
      <trkpt lat="49.16576" lon="0.09517">
        <ele>93.9</ele>
        <time>2023-10-15T08:52:28Z</time>
      </trkpt>
      <trkpt lat="49.16588" lon="0.09509">
        <ele>93.1</ele>
        <time>2023-10-15T08:52:29Z</time>
      </trkpt>
      <trkpt lat="49.166" lon="0.09503">
        <ele>92.4</ele>
        <time>2023-10-15T08:52:30Z</time>
      </trkpt>
      <trkpt lat="49.16612" lon="0.09496">
        <ele>91.7</ele>
        <time>2023-10-15T08:52:31Z</time>
      </trkpt>
      <trkpt lat="49.16624" lon="0.0949">
        <ele>91.2</ele>
        <time>2023-10-15T08:52:32Z</time>
      </trkpt>
      <trkpt lat="49.16636" lon="0.09484">
        <ele>90.6</ele>
        <time>2023-10-15T08:52:33Z</time>
      </trkpt>
      <trkpt lat="49.16648" lon="0.09477">
        <ele>90.2</ele>
        <time>2023-10-15T08:52:34Z</time>
      </trkpt>
      <trkpt lat="49.1666" lon="0.09472">
        <ele>89.7</ele>
        <time>2023-10-15T08:52:35Z</time>
      </trkpt>
      <trkpt lat="49.16671" lon="0.09467">
        <ele>89.3</ele>
        <time>2023-10-15T08:52:36Z</time>
      </trkpt>
      <trkpt lat="49.16683" lon="0.09464">
        <ele>88.9</ele>
        <time>2023-10-15T08:52:37Z</time>
      </trkpt>
      <trkpt lat="49.16695" lon="0.09462">
        <ele>88.5</ele>
        <time>2023-10-15T08:52:38Z</time>
      </trkpt>
      <trkpt lat="49.16708" lon="0.09462">
        <ele>88.1</ele>
        <time>2023-10-15T08:52:39Z</time>
      </trkpt>
      <trkpt lat="49.1672" lon="0.09463">
        <ele>87.7</ele>
        <time>2023-10-15T08:52:40Z</time>
      </trkpt>
      <trkpt lat="49.16732" lon="0.09464">
        <ele>87.3</ele>
        <time>2023-10-15T08:52:41Z</time>
      </trkpt>
      <trkpt lat="49.16744" lon="0.09466">
        <ele>86.9</ele>
        <time>2023-10-15T08:52:42Z</time>
      </trkpt>
      <trkpt lat="49.16757" lon="0.09469">
        <ele>86.6</ele>
        <time>2023-10-15T08:52:43Z</time>
      </trkpt>
      <trkpt lat="49.16769" lon="0.09472">
        <ele>86.4</ele>
        <time>2023-10-15T08:52:44Z</time>
      </trkpt>
      <trkpt lat="49.16781" lon="0.09474">
        <ele>86.2</ele>
        <time>2023-10-15T08:52:45Z</time>
      </trkpt>
      <trkpt lat="49.16793" lon="0.09476">
        <ele>86.2</ele>
        <time>2023-10-15T08:52:46Z</time>
      </trkpt>
      <trkpt lat="49.16805" lon="0.09478">
        <ele>86.1</ele>
        <time>2023-10-15T08:52:47Z</time>
      </trkpt>
      <trkpt lat="49.16817" lon="0.0948">
        <ele>86.1</ele>
        <time>2023-10-15T08:52:48Z</time>
      </trkpt>
      <trkpt lat="49.16828" lon="0.09481">
        <ele>86.1</ele>
        <time>2023-10-15T08:52:49Z</time>
      </trkpt>
      <trkpt lat="49.16839" lon="0.0948">
        <ele>86</ele>
        <time>2023-10-15T08:52:50Z</time>
      </trkpt>
      <trkpt lat="49.16849" lon="0.09476">
        <ele>86</ele>
        <time>2023-10-15T08:52:51Z</time>
      </trkpt>
      <trkpt lat="49.1686" lon="0.09469">
        <ele>85.8</ele>
        <time>2023-10-15T08:52:52Z</time>
      </trkpt>
      <trkpt lat="49.1687" lon="0.0946">
        <ele>85.6</ele>
        <time>2023-10-15T08:52:53Z</time>
      </trkpt>
      <trkpt lat="49.16879" lon="0.09449">
        <ele>85.4</ele>
        <time>2023-10-15T08:52:54Z</time>
      </trkpt>
      <trkpt lat="49.16888" lon="0.09439">
        <ele>85.2</ele>
        <time>2023-10-15T08:52:55Z</time>
      </trkpt>
      <trkpt lat="49.16897" lon="0.09429">
        <ele>84.9</ele>
        <time>2023-10-15T08:52:56Z</time>
      </trkpt>
      <trkpt lat="49.16907" lon="0.09418">
        <ele>84.7</ele>
        <time>2023-10-15T08:52:57Z</time>
      </trkpt>
      <trkpt lat="49.16916" lon="0.09407">
        <ele>84.6</ele>
        <time>2023-10-15T08:52:58Z</time>
      </trkpt>
      <trkpt lat="49.16926" lon="0.09396">
        <ele>84.4</ele>
        <time>2023-10-15T08:52:59Z</time>
      </trkpt>
      <trkpt lat="49.16935" lon="0.09386">
        <ele>84.3</ele>
        <time>2023-10-15T08:53:00Z</time>
      </trkpt>
      <trkpt lat="49.16945" lon="0.09376">
        <ele>84.3</ele>
        <time>2023-10-15T08:53:01Z</time>
      </trkpt>
      <trkpt lat="49.16954" lon="0.09366">
        <ele>84.1</ele>
        <time>2023-10-15T08:53:02Z</time>
      </trkpt>
      <trkpt lat="49.16963" lon="0.09356">
        <ele>83.9</ele>
        <time>2023-10-15T08:53:03Z</time>
      </trkpt>
      <trkpt lat="49.16972" lon="0.09345">
        <ele>83.7</ele>
        <time>2023-10-15T08:53:04Z</time>
      </trkpt>
      <trkpt lat="49.16981" lon="0.09335">
        <ele>83.5</ele>
        <time>2023-10-15T08:53:05Z</time>
      </trkpt>
      <trkpt lat="49.16989" lon="0.09326">
        <ele>83.2</ele>
        <time>2023-10-15T08:53:06Z</time>
      </trkpt>
      <trkpt lat="49.16998" lon="0.09316">
        <ele>83</ele>
        <time>2023-10-15T08:53:07Z</time>
      </trkpt>
      <trkpt lat="49.17007" lon="0.09307">
        <ele>82.8</ele>
        <time>2023-10-15T08:53:08Z</time>
      </trkpt>
      <trkpt lat="49.17016" lon="0.09298">
        <ele>82.5</ele>
        <time>2023-10-15T08:53:09Z</time>
      </trkpt>
      <trkpt lat="49.17025" lon="0.09288">
        <ele>82.2</ele>
        <time>2023-10-15T08:53:10Z</time>
      </trkpt>
      <trkpt lat="49.17035" lon="0.09278">
        <ele>81.9</ele>
        <time>2023-10-15T08:53:11Z</time>
      </trkpt>
      <trkpt lat="49.17045" lon="0.09269">
        <ele>81.6</ele>
        <time>2023-10-15T08:53:12Z</time>
      </trkpt>
      <trkpt lat="49.17055" lon="0.09259">
        <ele>81.4</ele>
        <time>2023-10-15T08:53:13Z</time>
      </trkpt>
      <trkpt lat="49.17065" lon="0.0925">
        <ele>81.2</ele>
        <time>2023-10-15T08:53:14Z</time>
      </trkpt>
      <trkpt lat="49.17075" lon="0.09242">
        <ele>81</ele>
        <time>2023-10-15T08:53:15Z</time>
      </trkpt>
      <trkpt lat="49.17085" lon="0.09233">
        <ele>80.9</ele>
        <time>2023-10-15T08:53:16Z</time>
      </trkpt>
      <trkpt lat="49.17094" lon="0.09223">
        <ele>80.6</ele>
        <time>2023-10-15T08:53:17Z</time>
      </trkpt>
      <trkpt lat="49.17104" lon="0.09213">
        <ele>80.3</ele>
        <time>2023-10-15T08:53:18Z</time>
      </trkpt>
      <trkpt lat="49.17113" lon="0.09202">
        <ele>79.9</ele>
        <time>2023-10-15T08:53:19Z</time>
      </trkpt>
      <trkpt lat="49.17122" lon="0.09191">
        <ele>79.6</ele>
        <time>2023-10-15T08:53:20Z</time>
      </trkpt>
      <trkpt lat="49.1713" lon="0.0918">
        <ele>79.3</ele>
        <time>2023-10-15T08:53:21Z</time>
      </trkpt>
      <trkpt lat="49.1714" lon="0.09169">
        <ele>78.9</ele>
        <time>2023-10-15T08:53:22Z</time>
      </trkpt>
      <trkpt lat="49.17149" lon="0.09158">
        <ele>78.5</ele>
        <time>2023-10-15T08:53:23Z</time>
      </trkpt>
      <trkpt lat="49.17159" lon="0.09147">
        <ele>78.1</ele>
        <time>2023-10-15T08:53:24Z</time>
      </trkpt>
      <trkpt lat="49.17169" lon="0.09136">
        <ele>77.7</ele>
        <time>2023-10-15T08:53:25Z</time>
      </trkpt>
      <trkpt lat="49.17178" lon="0.09126">
        <ele>77.3</ele>
        <time>2023-10-15T08:53:26Z</time>
      </trkpt>
      <trkpt lat="49.17187" lon="0.09115">
        <ele>77</ele>
        <time>2023-10-15T08:53:27Z</time>
      </trkpt>
      <trkpt lat="49.17196" lon="0.09105">
        <ele>76.7</ele>
        <time>2023-10-15T08:53:28Z</time>
      </trkpt>
      <trkpt lat="49.17206" lon="0.09095">
        <ele>76.4</ele>
        <time>2023-10-15T08:53:29Z</time>
      </trkpt>
      <trkpt lat="49.17215" lon="0.09084">
        <ele>76.1</ele>
        <time>2023-10-15T08:53:30Z</time>
      </trkpt>
      <trkpt lat="49.17225" lon="0.09074">
        <ele>75.8</ele>
        <time>2023-10-15T08:53:31Z</time>
      </trkpt>
      <trkpt lat="49.17234" lon="0.09065">
        <ele>75.5</ele>
        <time>2023-10-15T08:53:32Z</time>
      </trkpt>
      <trkpt lat="49.17244" lon="0.09057">
        <ele>75.3</ele>
        <time>2023-10-15T08:53:33Z</time>
      </trkpt>
      <trkpt lat="49.17253" lon="0.09048">
        <ele>75.1</ele>
        <time>2023-10-15T08:53:34Z</time>
      </trkpt>
      <trkpt lat="49.17262" lon="0.09039">
        <ele>75</ele>
        <time>2023-10-15T08:53:35Z</time>
      </trkpt>
      <trkpt lat="49.17271" lon="0.0903">
        <ele>74.9</ele>
        <time>2023-10-15T08:53:36Z</time>
      </trkpt>
      <trkpt lat="49.17279" lon="0.09021">
        <ele>74.9</ele>
        <time>2023-10-15T08:53:37Z</time>
      </trkpt>
      <trkpt lat="49.17287" lon="0.09011">
        <ele>75</ele>
        <time>2023-10-15T08:53:38Z</time>
      </trkpt>
      <trkpt lat="49.17295" lon="0.09001">
        <ele>75.2</ele>
        <time>2023-10-15T08:53:39Z</time>
      </trkpt>
      <trkpt lat="49.17303" lon="0.08991">
        <ele>75.5</ele>
        <time>2023-10-15T08:53:40Z</time>
      </trkpt>
      <trkpt lat="49.1731" lon="0.08981">
        <ele>76</ele>
        <time>2023-10-15T08:53:41Z</time>
      </trkpt>
      <trkpt lat="49.17317" lon="0.08971">
        <ele>76.5</ele>
        <time>2023-10-15T08:53:42Z</time>
      </trkpt>
      <trkpt lat="49.17324" lon="0.08963">
        <ele>77.1</ele>
        <time>2023-10-15T08:53:43Z</time>
      </trkpt>
      <trkpt lat="49.1733" lon="0.08955">
        <ele>77.6</ele>
        <time>2023-10-15T08:53:44Z</time>
      </trkpt>
      <trkpt lat="49.17335" lon="0.08947">
        <ele>78.2</ele>
        <time>2023-10-15T08:53:45Z</time>
      </trkpt>
      <trkpt lat="49.1734" lon="0.0894">
        <ele>78.7</ele>
        <time>2023-10-15T08:53:46Z</time>
      </trkpt>
      <trkpt lat="49.17345" lon="0.08934">
        <ele>79.2</ele>
        <time>2023-10-15T08:53:47Z</time>
      </trkpt>
      <trkpt lat="49.17349" lon="0.0893">
        <ele>79.6</ele>
        <time>2023-10-15T08:53:48Z</time>
      </trkpt>
      <trkpt lat="49.17352" lon="0.08927">
        <ele>79.9</ele>
        <time>2023-10-15T08:53:49Z</time>
      </trkpt>
      <trkpt lat="49.17355" lon="0.08924">
        <ele>80.1</ele>
        <time>2023-10-15T08:53:50Z</time>
      </trkpt>
      <trkpt lat="49.17357" lon="0.0892">
        <ele>79.9</ele>
        <time>2023-10-15T08:53:51Z</time>
      </trkpt>
      <trkpt lat="49.17357" lon="0.08915">
        <ele>79.7</ele>
        <time>2023-10-15T08:53:52Z</time>
      </trkpt>
      <trkpt lat="49.17356" lon="0.08909">
        <ele>79.4</ele>
        <time>2023-10-15T08:53:53Z</time>
      </trkpt>
      <trkpt lat="49.17355" lon="0.08904">
        <ele>79.2</ele>
        <time>2023-10-15T08:53:54Z</time>
      </trkpt>
      <trkpt lat="49.17353" lon="0.08897">
        <ele>79</ele>
        <time>2023-10-15T08:53:55Z</time>
      </trkpt>
      <trkpt lat="49.17352" lon="0.08891">
        <ele>78.7</ele>
        <time>2023-10-15T08:53:56Z</time>
      </trkpt>
      <trkpt lat="49.1735" lon="0.08883">
        <ele>78.5</ele>
        <time>2023-10-15T08:53:57Z</time>
      </trkpt>
      <trkpt lat="49.17347" lon="0.08876">
        <ele>78.3</ele>
        <time>2023-10-15T08:53:58Z</time>
      </trkpt>
      <trkpt lat="49.17345" lon="0.08868">
        <ele>78.1</ele>
        <time>2023-10-15T08:53:59Z</time>
      </trkpt>
      <trkpt lat="49.17342" lon="0.0886">
        <ele>77.9</ele>
        <time>2023-10-15T08:54:00Z</time>
      </trkpt>
      <trkpt lat="49.17339" lon="0.08853">
        <ele>77.8</ele>
        <time>2023-10-15T08:54:01Z</time>
      </trkpt>
      <trkpt lat="49.17337" lon="0.08845">
        <ele>77.7</ele>
        <time>2023-10-15T08:54:02Z</time>
      </trkpt>
      <trkpt lat="49.17334" lon="0.08836">
        <ele>77.6</ele>
        <time>2023-10-15T08:54:03Z</time>
      </trkpt>
      <trkpt lat="49.17332" lon="0.08827">
        <ele>77.4</ele>
        <time>2023-10-15T08:54:04Z</time>
      </trkpt>
      <trkpt lat="49.1733" lon="0.08818">
        <ele>77.3</ele>
        <time>2023-10-15T08:54:05Z</time>
      </trkpt>
      <trkpt lat="49.17328" lon="0.08809">
        <ele>77.2</ele>
        <time>2023-10-15T08:54:06Z</time>
      </trkpt>
      <trkpt lat="49.17326" lon="0.08801">
        <ele>77.2</ele>
        <time>2023-10-15T08:54:07Z</time>
      </trkpt>
      <trkpt lat="49.17324" lon="0.08793">
        <ele>77.1</ele>
        <time>2023-10-15T08:54:08Z</time>
      </trkpt>
      <trkpt lat="49.17322" lon="0.08785">
        <ele>77</ele>
        <time>2023-10-15T08:54:09Z</time>
      </trkpt>
      <trkpt lat="49.17321" lon="0.08777">
        <ele>76.9</ele>
        <time>2023-10-15T08:54:10Z</time>
      </trkpt>
      <trkpt lat="49.17319" lon="0.08769">
        <ele>76.8</ele>
        <time>2023-10-15T08:54:11Z</time>
      </trkpt>
      <trkpt lat="49.17317" lon="0.08761">
        <ele>76.7</ele>
        <time>2023-10-15T08:54:12Z</time>
      </trkpt>
      <trkpt lat="49.17315" lon="0.08752">
        <ele>76.6</ele>
        <time>2023-10-15T08:54:13Z</time>
      </trkpt>
      <trkpt lat="49.17312" lon="0.08743">
        <ele>76.5</ele>
        <time>2023-10-15T08:54:14Z</time>
      </trkpt>
      <trkpt lat="49.17309" lon="0.08734">
        <ele>76.4</ele>
        <time>2023-10-15T08:54:15Z</time>
      </trkpt>
      <trkpt lat="49.17306" lon="0.08725">
        <ele>76.4</ele>
        <time>2023-10-15T08:54:16Z</time>
      </trkpt>
      <trkpt lat="49.17304" lon="0.08716">
        <ele>76.3</ele>
        <time>2023-10-15T08:54:17Z</time>
      </trkpt>
      <trkpt lat="49.17301" lon="0.08707">
        <ele>76.2</ele>
        <time>2023-10-15T08:54:18Z</time>
      </trkpt>
      <trkpt lat="49.17298" lon="0.08698">
        <ele>76.1</ele>
        <time>2023-10-15T08:54:19Z</time>
      </trkpt>
      <trkpt lat="49.17295" lon="0.08688">
        <ele>76</ele>
        <time>2023-10-15T08:54:20Z</time>
      </trkpt>
      <trkpt lat="49.17292" lon="0.08679">
        <ele>75.9</ele>
        <time>2023-10-15T08:54:21Z</time>
      </trkpt>
      <trkpt lat="49.17289" lon="0.0867">
        <ele>75.9</ele>
        <time>2023-10-15T08:54:22Z</time>
      </trkpt>
      <trkpt lat="49.17286" lon="0.0866">
        <ele>75.9</ele>
        <time>2023-10-15T08:54:23Z</time>
      </trkpt>
      <trkpt lat="49.17284" lon="0.0865">
        <ele>75.8</ele>
        <time>2023-10-15T08:54:24Z</time>
      </trkpt>
      <trkpt lat="49.17281" lon="0.0864">
        <ele>75.7</ele>
        <time>2023-10-15T08:54:25Z</time>
      </trkpt>
      <trkpt lat="49.17279" lon="0.0863">
        <ele>75.7</ele>
        <time>2023-10-15T08:54:26Z</time>
      </trkpt>
      <trkpt lat="49.17278" lon="0.08619">
        <ele>75.6</ele>
        <time>2023-10-15T08:54:27Z</time>
      </trkpt>
      <trkpt lat="49.17276" lon="0.08609">
        <ele>75.6</ele>
        <time>2023-10-15T08:54:28Z</time>
      </trkpt>
      <trkpt lat="49.17275" lon="0.08598">
        <ele>75.5</ele>
        <time>2023-10-15T08:54:29Z</time>
      </trkpt>
      <trkpt lat="49.17273" lon="0.08588">
        <ele>75.4</ele>
        <time>2023-10-15T08:54:30Z</time>
      </trkpt>
      <trkpt lat="49.17272" lon="0.08577">
        <ele>75.4</ele>
        <time>2023-10-15T08:54:31Z</time>
      </trkpt>
      <trkpt lat="49.1727" lon="0.08566">
        <ele>75.3</ele>
        <time>2023-10-15T08:54:32Z</time>
      </trkpt>
      <trkpt lat="49.17269" lon="0.08554">
        <ele>75.2</ele>
        <time>2023-10-15T08:54:33Z</time>
      </trkpt>
      <trkpt lat="49.17267" lon="0.08543">
        <ele>75.2</ele>
        <time>2023-10-15T08:54:34Z</time>
      </trkpt>
      <trkpt lat="49.17265" lon="0.08531">
        <ele>75.2</ele>
        <time>2023-10-15T08:54:35Z</time>
      </trkpt>
      <trkpt lat="49.17264" lon="0.0852">
        <ele>75.1</ele>
        <time>2023-10-15T08:54:36Z</time>
      </trkpt>
      <trkpt lat="49.17262" lon="0.08509">
        <ele>75.1</ele>
        <time>2023-10-15T08:54:37Z</time>
      </trkpt>
      <trkpt lat="49.17261" lon="0.08497">
        <ele>75.1</ele>
        <time>2023-10-15T08:54:38Z</time>
      </trkpt>
      <trkpt lat="49.17259" lon="0.08486">
        <ele>75</ele>
        <time>2023-10-15T08:54:39Z</time>
      </trkpt>
      <trkpt lat="49.17256" lon="0.08475">
        <ele>75</ele>
        <time>2023-10-15T08:54:40Z</time>
      </trkpt>
      <trkpt lat="49.17254" lon="0.08464">
        <ele>74.9</ele>
        <time>2023-10-15T08:54:41Z</time>
      </trkpt>
      <trkpt lat="49.17251" lon="0.08452">
        <ele>74.8</ele>
        <time>2023-10-15T08:54:42Z</time>
      </trkpt>
      <trkpt lat="49.17248" lon="0.08441">
        <ele>74.7</ele>
        <time>2023-10-15T08:54:43Z</time>
      </trkpt>
      <trkpt lat="49.17245" lon="0.0843">
        <ele>74.5</ele>
        <time>2023-10-15T08:54:44Z</time>
      </trkpt>
      <trkpt lat="49.17242" lon="0.08419">
        <ele>74.4</ele>
        <time>2023-10-15T08:54:45Z</time>
      </trkpt>
      <trkpt lat="49.17239" lon="0.08407">
        <ele>74.2</ele>
        <time>2023-10-15T08:54:46Z</time>
      </trkpt>
      <trkpt lat="49.17236" lon="0.08396">
        <ele>74</ele>
        <time>2023-10-15T08:54:47Z</time>
      </trkpt>
      <trkpt lat="49.17232" lon="0.08385">
        <ele>73.8</ele>
        <time>2023-10-15T08:54:48Z</time>
      </trkpt>
      <trkpt lat="49.17228" lon="0.08374">
        <ele>73.7</ele>
        <time>2023-10-15T08:54:49Z</time>
      </trkpt>
      <trkpt lat="49.17224" lon="0.08363">
        <ele>73.6</ele>
        <time>2023-10-15T08:54:50Z</time>
      </trkpt>
      <trkpt lat="49.1722" lon="0.08352">
        <ele>73.4</ele>
        <time>2023-10-15T08:54:51Z</time>
      </trkpt>
      <trkpt lat="49.17215" lon="0.08342">
        <ele>73.3</ele>
        <time>2023-10-15T08:54:52Z</time>
      </trkpt>
      <trkpt lat="49.17211" lon="0.08332">
        <ele>73.2</ele>
        <time>2023-10-15T08:54:53Z</time>
      </trkpt>
      <trkpt lat="49.17206" lon="0.08322">
        <ele>73</ele>
        <time>2023-10-15T08:54:54Z</time>
      </trkpt>
      <trkpt lat="49.17202" lon="0.08312">
        <ele>72.9</ele>
        <time>2023-10-15T08:54:55Z</time>
      </trkpt>
      <trkpt lat="49.17197" lon="0.08303">
        <ele>72.8</ele>
        <time>2023-10-15T08:54:56Z</time>
      </trkpt>
      <trkpt lat="49.17193" lon="0.08293">
        <ele>72.6</ele>
        <time>2023-10-15T08:54:57Z</time>
      </trkpt>
      <trkpt lat="49.17189" lon="0.08282">
        <ele>72.5</ele>
        <time>2023-10-15T08:54:58Z</time>
      </trkpt>
      <trkpt lat="49.17185" lon="0.08272">
        <ele>72.4</ele>
        <time>2023-10-15T08:54:59Z</time>
      </trkpt>
      <trkpt lat="49.17182" lon="0.08261">
        <ele>72.3</ele>
        <time>2023-10-15T08:55:00Z</time>
      </trkpt>
      <trkpt lat="49.17179" lon="0.0825">
        <ele>72.2</ele>
        <time>2023-10-15T08:55:01Z</time>
      </trkpt>
      <trkpt lat="49.17176" lon="0.08238">
        <ele>72.2</ele>
        <time>2023-10-15T08:55:02Z</time>
      </trkpt>
      <trkpt lat="49.17173" lon="0.08227">
        <ele>72.3</ele>
        <time>2023-10-15T08:55:03Z</time>
      </trkpt>
      <trkpt lat="49.1717" lon="0.08215">
        <ele>72.3</ele>
        <time>2023-10-15T08:55:04Z</time>
      </trkpt>
      <trkpt lat="49.17167" lon="0.08204">
        <ele>72.3</ele>
        <time>2023-10-15T08:55:05Z</time>
      </trkpt>
      <trkpt lat="49.17164" lon="0.08193">
        <ele>72.2</ele>
        <time>2023-10-15T08:55:06Z</time>
      </trkpt>
      <trkpt lat="49.17161" lon="0.08181">
        <ele>72.2</ele>
        <time>2023-10-15T08:55:07Z</time>
      </trkpt>
      <trkpt lat="49.17158" lon="0.0817">
        <ele>72.1</ele>
        <time>2023-10-15T08:55:08Z</time>
      </trkpt>
      <trkpt lat="49.17154" lon="0.08158">
        <ele>72.1</ele>
        <time>2023-10-15T08:55:09Z</time>
      </trkpt>
      <trkpt lat="49.17152" lon="0.08147">
        <ele>72</ele>
        <time>2023-10-15T08:55:10Z</time>
      </trkpt>
      <trkpt lat="49.17149" lon="0.08135">
        <ele>71.9</ele>
        <time>2023-10-15T08:55:11Z</time>
      </trkpt>
      <trkpt lat="49.17146" lon="0.08124">
        <ele>71.9</ele>
        <time>2023-10-15T08:55:12Z</time>
      </trkpt>
      <trkpt lat="49.17143" lon="0.08113">
        <ele>71.8</ele>
        <time>2023-10-15T08:55:13Z</time>
      </trkpt>
      <trkpt lat="49.1714" lon="0.08101">
        <ele>71.7</ele>
        <time>2023-10-15T08:55:14Z</time>
      </trkpt>
      <trkpt lat="49.17136" lon="0.08089">
        <ele>71.6</ele>
        <time>2023-10-15T08:55:15Z</time>
      </trkpt>
      <trkpt lat="49.17134" lon="0.08077">
        <ele>71.6</ele>
        <time>2023-10-15T08:55:16Z</time>
      </trkpt>
      <trkpt lat="49.17131" lon="0.08065">
        <ele>71.5</ele>
        <time>2023-10-15T08:55:17Z</time>
      </trkpt>
      <trkpt lat="49.17129" lon="0.08053">
        <ele>71.4</ele>
        <time>2023-10-15T08:55:18Z</time>
      </trkpt>
      <trkpt lat="49.17126" lon="0.08041">
        <ele>71.3</ele>
        <time>2023-10-15T08:55:19Z</time>
      </trkpt>
      <trkpt lat="49.17124" lon="0.08029">
        <ele>71.2</ele>
        <time>2023-10-15T08:55:20Z</time>
      </trkpt>
      <trkpt lat="49.17122" lon="0.08017">
        <ele>71.2</ele>
        <time>2023-10-15T08:55:21Z</time>
      </trkpt>
      <trkpt lat="49.1712" lon="0.08005">
        <ele>71.1</ele>
        <time>2023-10-15T08:55:22Z</time>
      </trkpt>
      <trkpt lat="49.17119" lon="0.07993">
        <ele>71.1</ele>
        <time>2023-10-15T08:55:23Z</time>
      </trkpt>
      <trkpt lat="49.17117" lon="0.07982">
        <ele>71</ele>
        <time>2023-10-15T08:55:24Z</time>
      </trkpt>
      <trkpt lat="49.17115" lon="0.0797">
        <ele>70.9</ele>
        <time>2023-10-15T08:55:25Z</time>
      </trkpt>
      <trkpt lat="49.17114" lon="0.07958">
        <ele>70.8</ele>
        <time>2023-10-15T08:55:26Z</time>
      </trkpt>
      <trkpt lat="49.17113" lon="0.07946">
        <ele>70.7</ele>
        <time>2023-10-15T08:55:27Z</time>
      </trkpt>
      <trkpt lat="49.17112" lon="0.07934">
        <ele>70.6</ele>
        <time>2023-10-15T08:55:28Z</time>
      </trkpt>
      <trkpt lat="49.17111" lon="0.07922">
        <ele>70.6</ele>
        <time>2023-10-15T08:55:29Z</time>
      </trkpt>
      <trkpt lat="49.1711" lon="0.0791">
        <ele>70.5</ele>
        <time>2023-10-15T08:55:30Z</time>
      </trkpt>
      <trkpt lat="49.17109" lon="0.07899">
        <ele>70.5</ele>
        <time>2023-10-15T08:55:31Z</time>
      </trkpt>
      <trkpt lat="49.17108" lon="0.07888">
        <ele>70.5</ele>
        <time>2023-10-15T08:55:32Z</time>
      </trkpt>
      <trkpt lat="49.17107" lon="0.07877">
        <ele>70.5</ele>
        <time>2023-10-15T08:55:33Z</time>
      </trkpt>
      <trkpt lat="49.17106" lon="0.07868">
        <ele>70.4</ele>
        <time>2023-10-15T08:55:34Z</time>
      </trkpt>
      <trkpt lat="49.17106" lon="0.07859">
        <ele>70.4</ele>
        <time>2023-10-15T08:55:35Z</time>
      </trkpt>
      <trkpt lat="49.17105" lon="0.07851">
        <ele>70.4</ele>
        <time>2023-10-15T08:55:36Z</time>
      </trkpt>
      <trkpt lat="49.17104" lon="0.07846">
        <ele>70.4</ele>
        <time>2023-10-15T08:55:37Z</time>
      </trkpt>
      <trkpt lat="49.17103" lon="0.0784">
        <ele>70.4</ele>
        <time>2023-10-15T08:55:38Z</time>
      </trkpt>
      <trkpt lat="49.17103" lon="0.07836">
        <ele>70.4</ele>
        <time>2023-10-15T08:55:39Z</time>
      </trkpt>
      <trkpt lat="49.17102" lon="0.07831">
        <ele>70.4</ele>
        <time>2023-10-15T08:55:40Z</time>
      </trkpt>
      <trkpt lat="49.17101" lon="0.07826">
        <ele>70.4</ele>
        <time>2023-10-15T08:55:41Z</time>
      </trkpt>
      <trkpt lat="49.17101" lon="0.07824">
        <ele>70.4</ele>
        <time>2023-10-15T08:55:42Z</time>
      </trkpt>
      <trkpt lat="49.171" lon="0.07819">
        <ele>70.4</ele>
        <time>2023-10-15T08:55:43Z</time>
      </trkpt>
      <trkpt lat="49.17101" lon="0.07818">
        <ele>70.5</ele>
        <time>2023-10-15T08:55:44Z</time>
      </trkpt>
      <trkpt lat="49.17101" lon="0.07815">
        <ele>70.5</ele>
        <time>2023-10-15T08:55:45Z</time>
      </trkpt>
      <trkpt lat="49.17101" lon="0.07813">
        <ele>70.5</ele>
        <time>2023-10-15T08:55:46Z</time>
      </trkpt>
      <trkpt lat="49.171" lon="0.07812">
        <ele>70.5</ele>
        <time>2023-10-15T08:55:47Z</time>
      </trkpt>
      <trkpt lat="49.17099" lon="0.07811">
        <ele>70.5</ele>
        <time>2023-10-15T08:55:48Z</time>
      </trkpt>
      <trkpt lat="49.17099" lon="0.07811">
        <ele>70.5</ele>
        <time>2023-10-15T08:55:49Z</time>
      </trkpt>
      <trkpt lat="49.17099" lon="0.0781">
        <ele>70.5</ele>
        <time>2023-10-15T08:55:50Z</time>
      </trkpt>
      <trkpt lat="49.17099" lon="0.0781">
        <ele>70.5</ele>
        <time>2023-10-15T08:55:51Z</time>
      </trkpt>
      <trkpt lat="49.17098" lon="0.07809">
        <ele>70.5</ele>
        <time>2023-10-15T08:55:52Z</time>
      </trkpt>
      <trkpt lat="49.17098" lon="0.07809">
        <ele>70.5</ele>
        <time>2023-10-15T08:55:53Z</time>
      </trkpt>
      <trkpt lat="49.17098" lon="0.07808">
        <ele>70.5</ele>
        <time>2023-10-15T08:55:54Z</time>
      </trkpt>
      <trkpt lat="49.17098" lon="0.07807">
        <ele>70.5</ele>
        <time>2023-10-15T08:55:55Z</time>
      </trkpt>
      <trkpt lat="49.17097" lon="0.07807">
        <ele>70.5</ele>
        <time>2023-10-15T08:55:56Z</time>
      </trkpt>
      <trkpt lat="49.17097" lon="0.07806">
        <ele>70.5</ele>
        <time>2023-10-15T08:55:57Z</time>
      </trkpt>
      <trkpt lat="49.17097" lon="0.07806">
        <ele>70.5</ele>
        <time>2023-10-15T08:55:58Z</time>
      </trkpt>
      <trkpt lat="49.17096" lon="0.07805">
        <ele>70.5</ele>
        <time>2023-10-15T08:56:03Z</time>
      </trkpt>
      <trkpt lat="49.17096" lon="0.07805">
        <ele>70.5</ele>
        <time>2023-10-15T08:56:04Z</time>
      </trkpt>
      <trkpt lat="49.17096" lon="0.07804">
        <ele>70.5</ele>
        <time>2023-10-15T08:56:05Z</time>
      </trkpt>
      <trkpt lat="49.17095" lon="0.078">
        <ele>70.5</ele>
        <time>2023-10-15T08:56:06Z</time>
      </trkpt>
      <trkpt lat="49.17094" lon="0.07798">
        <ele>70.6</ele>
        <time>2023-10-15T08:56:07Z</time>
      </trkpt>
      <trkpt lat="49.17093" lon="0.07793">
        <ele>70.6</ele>
        <time>2023-10-15T08:56:08Z</time>
      </trkpt>
      <trkpt lat="49.17093" lon="0.0779">
        <ele>70.6</ele>
        <time>2023-10-15T08:56:09Z</time>
      </trkpt>
      <trkpt lat="49.17092" lon="0.07785">
        <ele>70.6</ele>
        <time>2023-10-15T08:56:10Z</time>
      </trkpt>
      <trkpt lat="49.1709" lon="0.0778">
        <ele>70.7</ele>
        <time>2023-10-15T08:56:11Z</time>
      </trkpt>
      <trkpt lat="49.17089" lon="0.07774">
        <ele>70.7</ele>
        <time>2023-10-15T08:56:12Z</time>
      </trkpt>
      <trkpt lat="49.17088" lon="0.07768">
        <ele>70.8</ele>
        <time>2023-10-15T08:56:13Z</time>
      </trkpt>
      <trkpt lat="49.17086" lon="0.07761">
        <ele>70.8</ele>
        <time>2023-10-15T08:56:14Z</time>
      </trkpt>
      <trkpt lat="49.17085" lon="0.07754">
        <ele>70.9</ele>
        <time>2023-10-15T08:56:15Z</time>
      </trkpt>
      <trkpt lat="49.17083" lon="0.07746">
        <ele>70.9</ele>
        <time>2023-10-15T08:56:16Z</time>
      </trkpt>
      <trkpt lat="49.17081" lon="0.07738">
        <ele>71</ele>
        <time>2023-10-15T08:56:17Z</time>
      </trkpt>
      <trkpt lat="49.17079" lon="0.0773">
        <ele>71.1</ele>
        <time>2023-10-15T08:56:18Z</time>
      </trkpt>
      <trkpt lat="49.17077" lon="0.07722">
        <ele>71.1</ele>
        <time>2023-10-15T08:56:19Z</time>
      </trkpt>
      <trkpt lat="49.17075" lon="0.07714">
        <ele>71.2</ele>
        <time>2023-10-15T08:56:20Z</time>
      </trkpt>
      <trkpt lat="49.17074" lon="0.07707">
        <ele>71.3</ele>
        <time>2023-10-15T08:56:21Z</time>
      </trkpt>
      <trkpt lat="49.17072" lon="0.077">
        <ele>71.3</ele>
        <time>2023-10-15T08:56:22Z</time>
      </trkpt>
      <trkpt lat="49.17071" lon="0.07694">
        <ele>71.4</ele>
        <time>2023-10-15T08:56:23Z</time>
      </trkpt>
      <trkpt lat="49.1707" lon="0.07689">
        <ele>71.4</ele>
        <time>2023-10-15T08:56:24Z</time>
      </trkpt>
      <trkpt lat="49.17069" lon="0.07683">
        <ele>71.5</ele>
        <time>2023-10-15T08:56:25Z</time>
      </trkpt>
      <trkpt lat="49.17068" lon="0.07678">
        <ele>71.5</ele>
        <time>2023-10-15T08:56:26Z</time>
      </trkpt>
      <trkpt lat="49.17066" lon="0.07671">
        <ele>71.6</ele>
        <time>2023-10-15T08:56:27Z</time>
      </trkpt>
      <trkpt lat="49.17065" lon="0.07666">
        <ele>71.7</ele>
        <time>2023-10-15T08:56:28Z</time>
      </trkpt>
      <trkpt lat="49.17064" lon="0.0766">
        <ele>71.7</ele>
        <time>2023-10-15T08:56:29Z</time>
      </trkpt>
      <trkpt lat="49.17062" lon="0.07654">
        <ele>71.8</ele>
        <time>2023-10-15T08:56:30Z</time>
      </trkpt>
      <trkpt lat="49.17061" lon="0.07648">
        <ele>71.8</ele>
        <time>2023-10-15T08:56:31Z</time>
      </trkpt>
      <trkpt lat="49.1706" lon="0.07642">
        <ele>71.9</ele>
        <time>2023-10-15T08:56:32Z</time>
      </trkpt>
      <trkpt lat="49.17058" lon="0.07636">
        <ele>71.9</ele>
        <time>2023-10-15T08:56:33Z</time>
      </trkpt>
      <trkpt lat="49.17057" lon="0.0763">
        <ele>72</ele>
        <time>2023-10-15T08:56:34Z</time>
      </trkpt>
      <trkpt lat="49.17055" lon="0.07623">
        <ele>72</ele>
        <time>2023-10-15T08:56:35Z</time>
      </trkpt>
      <trkpt lat="49.17055" lon="0.07616">
        <ele>72.1</ele>
        <time>2023-10-15T08:56:36Z</time>
      </trkpt>
      <trkpt lat="49.17054" lon="0.07609">
        <ele>72.2</ele>
        <time>2023-10-15T08:56:37Z</time>
      </trkpt>
      <trkpt lat="49.17053" lon="0.07602">
        <ele>72.2</ele>
        <time>2023-10-15T08:56:38Z</time>
      </trkpt>
      <trkpt lat="49.17052" lon="0.07595">
        <ele>72.3</ele>
        <time>2023-10-15T08:56:39Z</time>
      </trkpt>
      <trkpt lat="49.17051" lon="0.07589">
        <ele>72.3</ele>
        <time>2023-10-15T08:56:40Z</time>
      </trkpt>
      <trkpt lat="49.17049" lon="0.07581">
        <ele>72.4</ele>
        <time>2023-10-15T08:56:41Z</time>
      </trkpt>
      <trkpt lat="49.17048" lon="0.07573">
        <ele>72.4</ele>
        <time>2023-10-15T08:56:42Z</time>
      </trkpt>
      <trkpt lat="49.17046" lon="0.07565">
        <ele>72.5</ele>
        <time>2023-10-15T08:56:43Z</time>
      </trkpt>
      <trkpt lat="49.17045" lon="0.07557">
        <ele>72.5</ele>
        <time>2023-10-15T08:56:44Z</time>
      </trkpt>
      <trkpt lat="49.17044" lon="0.07548">
        <ele>72.6</ele>
        <time>2023-10-15T08:56:45Z</time>
      </trkpt>
      <trkpt lat="49.17043" lon="0.07539">
        <ele>72.7</ele>
        <time>2023-10-15T08:56:46Z</time>
      </trkpt>
      <trkpt lat="49.17042" lon="0.0753">
        <ele>72.7</ele>
        <time>2023-10-15T08:56:47Z</time>
      </trkpt>
      <trkpt lat="49.17041" lon="0.0752">
        <ele>72.8</ele>
        <time>2023-10-15T08:56:48Z</time>
      </trkpt>
      <trkpt lat="49.1704" lon="0.0751">
        <ele>72.8</ele>
        <time>2023-10-15T08:56:49Z</time>
      </trkpt>
      <trkpt lat="49.17038" lon="0.075">
        <ele>72.9</ele>
        <time>2023-10-15T08:56:50Z</time>
      </trkpt>
      <trkpt lat="49.17037" lon="0.07491">
        <ele>72.9</ele>
        <time>2023-10-15T08:56:51Z</time>
      </trkpt>
      <trkpt lat="49.17036" lon="0.07482">
        <ele>73</ele>
        <time>2023-10-15T08:56:52Z</time>
      </trkpt>
      <trkpt lat="49.17035" lon="0.07473">
        <ele>73</ele>
        <time>2023-10-15T08:56:53Z</time>
      </trkpt>
      <trkpt lat="49.17034" lon="0.07464">
        <ele>73.1</ele>
        <time>2023-10-15T08:56:54Z</time>
      </trkpt>
      <trkpt lat="49.17034" lon="0.07455">
        <ele>73.1</ele>
        <time>2023-10-15T08:56:55Z</time>
      </trkpt>
      <trkpt lat="49.17033" lon="0.07446">
        <ele>73.2</ele>
        <time>2023-10-15T08:56:56Z</time>
      </trkpt>
      <trkpt lat="49.17033" lon="0.07437">
        <ele>73.2</ele>
        <time>2023-10-15T08:56:57Z</time>
      </trkpt>
      <trkpt lat="49.17033" lon="0.07428">
        <ele>73.3</ele>
        <time>2023-10-15T08:56:58Z</time>
      </trkpt>
      <trkpt lat="49.17032" lon="0.07419">
        <ele>73.3</ele>
        <time>2023-10-15T08:56:59Z</time>
      </trkpt>
      <trkpt lat="49.17032" lon="0.0741">
        <ele>73.3</ele>
        <time>2023-10-15T08:57:00Z</time>
      </trkpt>
      <trkpt lat="49.17032" lon="0.07401">
        <ele>73.4</ele>
        <time>2023-10-15T08:57:01Z</time>
      </trkpt>
      <trkpt lat="49.17031" lon="0.07391">
        <ele>73.4</ele>
        <time>2023-10-15T08:57:02Z</time>
      </trkpt>
      <trkpt lat="49.17031" lon="0.07382">
        <ele>73.5</ele>
        <time>2023-10-15T08:57:03Z</time>
      </trkpt>
      <trkpt lat="49.1703" lon="0.07373">
        <ele>73.5</ele>
        <time>2023-10-15T08:57:04Z</time>
      </trkpt>
      <trkpt lat="49.1703" lon="0.07364">
        <ele>73.5</ele>
        <time>2023-10-15T08:57:05Z</time>
      </trkpt>
      <trkpt lat="49.1703" lon="0.07354">
        <ele>73.6</ele>
        <time>2023-10-15T08:57:06Z</time>
      </trkpt>
      <trkpt lat="49.1703" lon="0.07344">
        <ele>73.6</ele>
        <time>2023-10-15T08:57:07Z</time>
      </trkpt>
      <trkpt lat="49.1703" lon="0.07333">
        <ele>73.6</ele>
        <time>2023-10-15T08:57:08Z</time>
      </trkpt>
      <trkpt lat="49.1703" lon="0.07324">
        <ele>73.7</ele>
        <time>2023-10-15T08:57:09Z</time>
      </trkpt>
      <trkpt lat="49.1703" lon="0.07313">
        <ele>73.7</ele>
        <time>2023-10-15T08:57:10Z</time>
      </trkpt>
      <trkpt lat="49.17031" lon="0.07303">
        <ele>73.7</ele>
        <time>2023-10-15T08:57:11Z</time>
      </trkpt>
      <trkpt lat="49.17031" lon="0.07292">
        <ele>73.7</ele>
        <time>2023-10-15T08:57:12Z</time>
      </trkpt>
      <trkpt lat="49.17031" lon="0.07281">
        <ele>73.7</ele>
        <time>2023-10-15T08:57:13Z</time>
      </trkpt>
      <trkpt lat="49.17032" lon="0.07271">
        <ele>73.7</ele>
        <time>2023-10-15T08:57:14Z</time>
      </trkpt>
      <trkpt lat="49.17033" lon="0.0726">
        <ele>73.7</ele>
        <time>2023-10-15T08:57:15Z</time>
      </trkpt>
      <trkpt lat="49.17033" lon="0.07249">
        <ele>73.7</ele>
        <time>2023-10-15T08:57:16Z</time>
      </trkpt>
      <trkpt lat="49.17034" lon="0.07238">
        <ele>73.7</ele>
        <time>2023-10-15T08:57:17Z</time>
      </trkpt>
      <trkpt lat="49.17034" lon="0.07226">
        <ele>73.6</ele>
        <time>2023-10-15T08:57:18Z</time>
      </trkpt>
      <trkpt lat="49.17035" lon="0.07215">
        <ele>73.6</ele>
        <time>2023-10-15T08:57:19Z</time>
      </trkpt>
      <trkpt lat="49.17035" lon="0.07203">
        <ele>73.5</ele>
        <time>2023-10-15T08:57:20Z</time>
      </trkpt>
      <trkpt lat="49.17035" lon="0.07193">
        <ele>73.4</ele>
        <time>2023-10-15T08:57:21Z</time>
      </trkpt>
      <trkpt lat="49.17035" lon="0.07181">
        <ele>73.4</ele>
        <time>2023-10-15T08:57:22Z</time>
      </trkpt>
      <trkpt lat="49.17035" lon="0.0717">
        <ele>73.3</ele>
        <time>2023-10-15T08:57:23Z</time>
      </trkpt>
      <trkpt lat="49.17035" lon="0.07157">
        <ele>73.2</ele>
        <time>2023-10-15T08:57:24Z</time>
      </trkpt>
      <trkpt lat="49.17035" lon="0.07145">
        <ele>73.2</ele>
        <time>2023-10-15T08:57:25Z</time>
      </trkpt>
      <trkpt lat="49.17035" lon="0.07132">
        <ele>73.1</ele>
        <time>2023-10-15T08:57:26Z</time>
      </trkpt>
      <trkpt lat="49.17034" lon="0.07119">
        <ele>73.1</ele>
        <time>2023-10-15T08:57:27Z</time>
      </trkpt>
      <trkpt lat="49.17034" lon="0.07107">
        <ele>73</ele>
        <time>2023-10-15T08:57:28Z</time>
      </trkpt>
      <trkpt lat="49.17034" lon="0.07094">
        <ele>73</ele>
        <time>2023-10-15T08:57:29Z</time>
      </trkpt>
      <trkpt lat="49.17034" lon="0.07082">
        <ele>72.9</ele>
        <time>2023-10-15T08:57:30Z</time>
      </trkpt>
      <trkpt lat="49.17034" lon="0.0707">
        <ele>72.9</ele>
        <time>2023-10-15T08:57:31Z</time>
      </trkpt>
      <trkpt lat="49.17035" lon="0.07059">
        <ele>72.8</ele>
        <time>2023-10-15T08:57:32Z</time>
      </trkpt>
      <trkpt lat="49.17035" lon="0.07049">
        <ele>72.8</ele>
        <time>2023-10-15T08:57:33Z</time>
      </trkpt>
      <trkpt lat="49.17035" lon="0.07039">
        <ele>72.7</ele>
        <time>2023-10-15T08:57:34Z</time>
      </trkpt>
      <trkpt lat="49.17035" lon="0.07028">
        <ele>72.6</ele>
        <time>2023-10-15T08:57:35Z</time>
      </trkpt>
      <trkpt lat="49.17035" lon="0.07018">
        <ele>72.6</ele>
        <time>2023-10-15T08:57:36Z</time>
      </trkpt>
      <trkpt lat="49.17035" lon="0.07007">
        <ele>72.5</ele>
        <time>2023-10-15T08:57:37Z</time>
      </trkpt>
      <trkpt lat="49.17034" lon="0.06995">
        <ele>72.3</ele>
        <time>2023-10-15T08:57:38Z</time>
      </trkpt>
      <trkpt lat="49.17035" lon="0.06983">
        <ele>72.1</ele>
        <time>2023-10-15T08:57:39Z</time>
      </trkpt>
      <trkpt lat="49.17035" lon="0.0697">
        <ele>71.9</ele>
        <time>2023-10-15T08:57:40Z</time>
      </trkpt>
      <trkpt lat="49.17035" lon="0.06957">
        <ele>71.7</ele>
        <time>2023-10-15T08:57:41Z</time>
      </trkpt>
      <trkpt lat="49.17035" lon="0.06944">
        <ele>71.5</ele>
        <time>2023-10-15T08:57:42Z</time>
      </trkpt>
      <trkpt lat="49.17035" lon="0.0693">
        <ele>71.3</ele>
        <time>2023-10-15T08:57:43Z</time>
      </trkpt>
      <trkpt lat="49.17036" lon="0.06917">
        <ele>71.1</ele>
        <time>2023-10-15T08:57:44Z</time>
      </trkpt>
      <trkpt lat="49.17036" lon="0.06904">
        <ele>70.9</ele>
        <time>2023-10-15T08:57:45Z</time>
      </trkpt>
      <trkpt lat="49.17036" lon="0.0689">
        <ele>70.6</ele>
        <time>2023-10-15T08:57:46Z</time>
      </trkpt>
      <trkpt lat="49.17036" lon="0.06877">
        <ele>70.3</ele>
        <time>2023-10-15T08:57:47Z</time>
      </trkpt>
      <trkpt lat="49.17036" lon="0.06864">
        <ele>70</ele>
        <time>2023-10-15T08:57:48Z</time>
      </trkpt>
      <trkpt lat="49.17036" lon="0.0685">
        <ele>69.5</ele>
        <time>2023-10-15T08:57:49Z</time>
      </trkpt>
      <trkpt lat="49.17035" lon="0.06836">
        <ele>69</ele>
        <time>2023-10-15T08:57:50Z</time>
      </trkpt>
      <trkpt lat="49.17035" lon="0.06821">
        <ele>68.5</ele>
        <time>2023-10-15T08:57:51Z</time>
      </trkpt>
      <trkpt lat="49.17035" lon="0.06806">
        <ele>67.9</ele>
        <time>2023-10-15T08:57:52Z</time>
      </trkpt>
      <trkpt lat="49.17036" lon="0.06791">
        <ele>67.3</ele>
        <time>2023-10-15T08:57:53Z</time>
      </trkpt>
      <trkpt lat="49.17038" lon="0.06776">
        <ele>66.6</ele>
        <time>2023-10-15T08:57:54Z</time>
      </trkpt>
      <trkpt lat="49.17041" lon="0.06761">
        <ele>65.9</ele>
        <time>2023-10-15T08:57:55Z</time>
      </trkpt>
      <trkpt lat="49.17045" lon="0.06746">
        <ele>65.1</ele>
        <time>2023-10-15T08:57:56Z</time>
      </trkpt>
      <trkpt lat="49.17049" lon="0.06732">
        <ele>64.4</ele>
        <time>2023-10-15T08:57:57Z</time>
      </trkpt>
      <trkpt lat="49.17054" lon="0.06717">
        <ele>63.8</ele>
        <time>2023-10-15T08:57:58Z</time>
      </trkpt>
      <trkpt lat="49.17058" lon="0.06702">
        <ele>63.2</ele>
        <time>2023-10-15T08:57:59Z</time>
      </trkpt>
      <trkpt lat="49.17061" lon="0.06686">
        <ele>62.7</ele>
        <time>2023-10-15T08:58:00Z</time>
      </trkpt>
      <trkpt lat="49.17064" lon="0.06669">
        <ele>62.4</ele>
        <time>2023-10-15T08:58:01Z</time>
      </trkpt>
      <trkpt lat="49.17064" lon="0.06652">
        <ele>62.3</ele>
        <time>2023-10-15T08:58:02Z</time>
      </trkpt>
      <trkpt lat="49.17064" lon="0.06635">
        <ele>62.3</ele>
        <time>2023-10-15T08:58:03Z</time>
      </trkpt>
      <trkpt lat="49.17063" lon="0.06619">
        <ele>62.2</ele>
        <time>2023-10-15T08:58:04Z</time>
      </trkpt>
      <trkpt lat="49.17062" lon="0.06603">
        <ele>62.2</ele>
        <time>2023-10-15T08:58:05Z</time>
      </trkpt>
      <trkpt lat="49.17061" lon="0.06587">
        <ele>62.2</ele>
        <time>2023-10-15T08:58:06Z</time>
      </trkpt>
      <trkpt lat="49.17061" lon="0.06572">
        <ele>62.3</ele>
        <time>2023-10-15T08:58:07Z</time>
      </trkpt>
      <trkpt lat="49.17061" lon="0.06557">
        <ele>62.5</ele>
        <time>2023-10-15T08:58:08Z</time>
      </trkpt>
      <trkpt lat="49.17062" lon="0.06542">
        <ele>62.8</ele>
        <time>2023-10-15T08:58:09Z</time>
      </trkpt>
      <trkpt lat="49.17063" lon="0.06527">
        <ele>63.2</ele>
        <time>2023-10-15T08:58:10Z</time>
      </trkpt>
      <trkpt lat="49.17064" lon="0.06512">
        <ele>63.6</ele>
        <time>2023-10-15T08:58:11Z</time>
      </trkpt>
      <trkpt lat="49.17065" lon="0.06498">
        <ele>64</ele>
        <time>2023-10-15T08:58:12Z</time>
      </trkpt>
      <trkpt lat="49.17066" lon="0.06483">
        <ele>64.4</ele>
        <time>2023-10-15T08:58:13Z</time>
      </trkpt>
      <trkpt lat="49.17067" lon="0.06469">
        <ele>64.7</ele>
        <time>2023-10-15T08:58:14Z</time>
      </trkpt>
      <trkpt lat="49.17069" lon="0.06455">
        <ele>65</ele>
        <time>2023-10-15T08:58:15Z</time>
      </trkpt>
      <trkpt lat="49.17071" lon="0.06441">
        <ele>65.2</ele>
        <time>2023-10-15T08:58:16Z</time>
      </trkpt>
      <trkpt lat="49.17073" lon="0.06426">
        <ele>65.4</ele>
        <time>2023-10-15T08:58:17Z</time>
      </trkpt>
      <trkpt lat="49.17075" lon="0.06412">
        <ele>65.5</ele>
        <time>2023-10-15T08:58:18Z</time>
      </trkpt>
      <trkpt lat="49.17076" lon="0.06397">
        <ele>65.6</ele>
        <time>2023-10-15T08:58:19Z</time>
      </trkpt>
      <trkpt lat="49.17078" lon="0.06382">
        <ele>65.6</ele>
        <time>2023-10-15T08:58:20Z</time>
      </trkpt>
      <trkpt lat="49.17079" lon="0.06367">
        <ele>65.6</ele>
        <time>2023-10-15T08:58:21Z</time>
      </trkpt>
      <trkpt lat="49.17081" lon="0.06352">
        <ele>65.5</ele>
        <time>2023-10-15T08:58:22Z</time>
      </trkpt>
      <trkpt lat="49.17083" lon="0.06337">
        <ele>65.4</ele>
        <time>2023-10-15T08:58:23Z</time>
      </trkpt>
      <trkpt lat="49.17084" lon="0.06323">
        <ele>65.2</ele>
        <time>2023-10-15T08:58:24Z</time>
      </trkpt>
      <trkpt lat="49.17086" lon="0.06308">
        <ele>65</ele>
        <time>2023-10-15T08:58:25Z</time>
      </trkpt>
      <trkpt lat="49.17088" lon="0.06293">
        <ele>64.8</ele>
        <time>2023-10-15T08:58:26Z</time>
      </trkpt>
      <trkpt lat="49.1709" lon="0.06278">
        <ele>64.7</ele>
        <time>2023-10-15T08:58:27Z</time>
      </trkpt>
      <trkpt lat="49.17091" lon="0.06262">
        <ele>64.5</ele>
        <time>2023-10-15T08:58:28Z</time>
      </trkpt>
      <trkpt lat="49.17092" lon="0.06247">
        <ele>64.4</ele>
        <time>2023-10-15T08:58:29Z</time>
      </trkpt>
      <trkpt lat="49.17092" lon="0.06232">
        <ele>64.2</ele>
        <time>2023-10-15T08:58:30Z</time>
      </trkpt>
      <trkpt lat="49.17092" lon="0.06217">
        <ele>64.1</ele>
        <time>2023-10-15T08:58:31Z</time>
      </trkpt>
      <trkpt lat="49.17092" lon="0.06202">
        <ele>64</ele>
        <time>2023-10-15T08:58:32Z</time>
      </trkpt>
      <trkpt lat="49.17094" lon="0.06188">
        <ele>63.9</ele>
        <time>2023-10-15T08:58:33Z</time>
      </trkpt>
      <trkpt lat="49.17096" lon="0.06175">
        <ele>63.8</ele>
        <time>2023-10-15T08:58:34Z</time>
      </trkpt>
      <trkpt lat="49.171" lon="0.06161">
        <ele>63.8</ele>
        <time>2023-10-15T08:58:35Z</time>
      </trkpt>
      <trkpt lat="49.17104" lon="0.06148">
        <ele>63.9</ele>
        <time>2023-10-15T08:58:36Z</time>
      </trkpt>
      <trkpt lat="49.17109" lon="0.06136">
        <ele>63.9</ele>
        <time>2023-10-15T08:58:37Z</time>
      </trkpt>
      <trkpt lat="49.17113" lon="0.06123">
        <ele>64</ele>
        <time>2023-10-15T08:58:38Z</time>
      </trkpt>
      <trkpt lat="49.17117" lon="0.06112">
        <ele>64.1</ele>
        <time>2023-10-15T08:58:39Z</time>
      </trkpt>
      <trkpt lat="49.17121" lon="0.061">
        <ele>64.2</ele>
        <time>2023-10-15T08:58:40Z</time>
      </trkpt>
      <trkpt lat="49.17125" lon="0.06088">
        <ele>64.3</ele>
        <time>2023-10-15T08:58:41Z</time>
      </trkpt>
      <trkpt lat="49.17128" lon="0.06077">
        <ele>64.3</ele>
        <time>2023-10-15T08:58:42Z</time>
      </trkpt>
      <trkpt lat="49.17132" lon="0.06067">
        <ele>64.4</ele>
        <time>2023-10-15T08:58:43Z</time>
      </trkpt>
      <trkpt lat="49.17136" lon="0.06056">
        <ele>64.4</ele>
        <time>2023-10-15T08:58:44Z</time>
      </trkpt>
      <trkpt lat="49.1714" lon="0.06045">
        <ele>64.5</ele>
        <time>2023-10-15T08:58:45Z</time>
      </trkpt>
      <trkpt lat="49.17144" lon="0.06035">
        <ele>64.6</ele>
        <time>2023-10-15T08:58:46Z</time>
      </trkpt>
      <trkpt lat="49.17149" lon="0.06025">
        <ele>64.7</ele>
        <time>2023-10-15T08:58:47Z</time>
      </trkpt>
      <trkpt lat="49.17153" lon="0.06015">
        <ele>64.8</ele>
        <time>2023-10-15T08:58:48Z</time>
      </trkpt>
      <trkpt lat="49.17158" lon="0.06005">
        <ele>64.9</ele>
        <time>2023-10-15T08:58:49Z</time>
      </trkpt>
      <trkpt lat="49.17163" lon="0.05995">
        <ele>64.9</ele>
        <time>2023-10-15T08:58:50Z</time>
      </trkpt>
      <trkpt lat="49.17168" lon="0.05986">
        <ele>64.8</ele>
        <time>2023-10-15T08:58:51Z</time>
      </trkpt>
      <trkpt lat="49.17174" lon="0.05977">
        <ele>64.8</ele>
        <time>2023-10-15T08:58:52Z</time>
      </trkpt>
      <trkpt lat="49.1718" lon="0.05968">
        <ele>64.8</ele>
        <time>2023-10-15T08:58:53Z</time>
      </trkpt>
      <trkpt lat="49.17186" lon="0.0596">
        <ele>64.8</ele>
        <time>2023-10-15T08:58:54Z</time>
      </trkpt>
      <trkpt lat="49.17192" lon="0.05953">
        <ele>64.8</ele>
        <time>2023-10-15T08:58:55Z</time>
      </trkpt>
      <trkpt lat="49.17198" lon="0.05945">
        <ele>64.7</ele>
        <time>2023-10-15T08:58:56Z</time>
      </trkpt>
      <trkpt lat="49.17204" lon="0.05937">
        <ele>64.7</ele>
        <time>2023-10-15T08:58:57Z</time>
      </trkpt>
      <trkpt lat="49.1721" lon="0.05927">
        <ele>64.6</ele>
        <time>2023-10-15T08:58:58Z</time>
      </trkpt>
      <trkpt lat="49.17215" lon="0.05917">
        <ele>64.6</ele>
        <time>2023-10-15T08:58:59Z</time>
      </trkpt>
      <trkpt lat="49.17219" lon="0.05904">
        <ele>64.6</ele>
        <time>2023-10-15T08:59:00Z</time>
      </trkpt>
      <trkpt lat="49.17222" lon="0.0589">
        <ele>64.6</ele>
        <time>2023-10-15T08:59:01Z</time>
      </trkpt>
      <trkpt lat="49.17223" lon="0.05876">
        <ele>64.8</ele>
        <time>2023-10-15T08:59:02Z</time>
      </trkpt>
      <trkpt lat="49.17224" lon="0.05862">
        <ele>65</ele>
        <time>2023-10-15T08:59:03Z</time>
      </trkpt>
      <trkpt lat="49.17224" lon="0.05849">
        <ele>65.2</ele>
        <time>2023-10-15T08:59:04Z</time>
      </trkpt>
      <trkpt lat="49.17223" lon="0.05836">
        <ele>65.4</ele>
        <time>2023-10-15T08:59:05Z</time>
      </trkpt>
      <trkpt lat="49.17222" lon="0.05824">
        <ele>65.7</ele>
        <time>2023-10-15T08:59:06Z</time>
      </trkpt>
      <trkpt lat="49.17222" lon="0.05812">
        <ele>65.9</ele>
        <time>2023-10-15T08:59:07Z</time>
      </trkpt>
      <trkpt lat="49.17222" lon="0.058">
        <ele>66.2</ele>
        <time>2023-10-15T08:59:08Z</time>
      </trkpt>
      <trkpt lat="49.17223" lon="0.05788">
        <ele>66.5</ele>
        <time>2023-10-15T08:59:09Z</time>
      </trkpt>
      <trkpt lat="49.17224" lon="0.05776">
        <ele>66.8</ele>
        <time>2023-10-15T08:59:10Z</time>
      </trkpt>
      <trkpt lat="49.17227" lon="0.05764">
        <ele>67.1</ele>
        <time>2023-10-15T08:59:11Z</time>
      </trkpt>
      <trkpt lat="49.1723" lon="0.05752">
        <ele>67.5</ele>
        <time>2023-10-15T08:59:12Z</time>
      </trkpt>
      <trkpt lat="49.17233" lon="0.05742">
        <ele>67.8</ele>
        <time>2023-10-15T08:59:13Z</time>
      </trkpt>
      <trkpt lat="49.17237" lon="0.05732">
        <ele>68.1</ele>
        <time>2023-10-15T08:59:14Z</time>
      </trkpt>
      <trkpt lat="49.1724" lon="0.05722">
        <ele>68.5</ele>
        <time>2023-10-15T08:59:15Z</time>
      </trkpt>
      <trkpt lat="49.17244" lon="0.05713">
        <ele>68.9</ele>
        <time>2023-10-15T08:59:16Z</time>
      </trkpt>
      <trkpt lat="49.17248" lon="0.05703">
        <ele>69.1</ele>
        <time>2023-10-15T08:59:17Z</time>
      </trkpt>
      <trkpt lat="49.17251" lon="0.05693">
        <ele>69.4</ele>
        <time>2023-10-15T08:59:18Z</time>
      </trkpt>
      <trkpt lat="49.17255" lon="0.05683">
        <ele>69.6</ele>
        <time>2023-10-15T08:59:19Z</time>
      </trkpt>
      <trkpt lat="49.17259" lon="0.05673">
        <ele>69.8</ele>
        <time>2023-10-15T08:59:20Z</time>
      </trkpt>
      <trkpt lat="49.17263" lon="0.05663">
        <ele>70</ele>
        <time>2023-10-15T08:59:21Z</time>
      </trkpt>
      <trkpt lat="49.17267" lon="0.05653">
        <ele>70.2</ele>
        <time>2023-10-15T08:59:22Z</time>
      </trkpt>
      <trkpt lat="49.17272" lon="0.05643">
        <ele>70.4</ele>
        <time>2023-10-15T08:59:23Z</time>
      </trkpt>
      <trkpt lat="49.17276" lon="0.05632">
        <ele>70.5</ele>
        <time>2023-10-15T08:59:24Z</time>
      </trkpt>
      <trkpt lat="49.17281" lon="0.05621">
        <ele>70.7</ele>
        <time>2023-10-15T08:59:25Z</time>
      </trkpt>
      <trkpt lat="49.17286" lon="0.0561">
        <ele>70.8</ele>
        <time>2023-10-15T08:59:26Z</time>
      </trkpt>
      <trkpt lat="49.17291" lon="0.05599">
        <ele>71</ele>
        <time>2023-10-15T08:59:27Z</time>
      </trkpt>
      <trkpt lat="49.17295" lon="0.05589">
        <ele>71.1</ele>
        <time>2023-10-15T08:59:28Z</time>
      </trkpt>
      <trkpt lat="49.173" lon="0.05579">
        <ele>71.2</ele>
        <time>2023-10-15T08:59:29Z</time>
      </trkpt>
      <trkpt lat="49.17305" lon="0.05569">
        <ele>71.3</ele>
        <time>2023-10-15T08:59:30Z</time>
      </trkpt>
      <trkpt lat="49.17311" lon="0.05559">
        <ele>71.3</ele>
        <time>2023-10-15T08:59:31Z</time>
      </trkpt>
      <trkpt lat="49.17316" lon="0.05548">
        <ele>71.4</ele>
        <time>2023-10-15T08:59:32Z</time>
      </trkpt>
      <trkpt lat="49.17321" lon="0.05538">
        <ele>71.5</ele>
        <time>2023-10-15T08:59:33Z</time>
      </trkpt>
      <trkpt lat="49.17326" lon="0.05528">
        <ele>71.6</ele>
        <time>2023-10-15T08:59:34Z</time>
      </trkpt>
      <trkpt lat="49.17331" lon="0.05518">
        <ele>71.7</ele>
        <time>2023-10-15T08:59:35Z</time>
      </trkpt>
      <trkpt lat="49.17336" lon="0.05508">
        <ele>71.8</ele>
        <time>2023-10-15T08:59:36Z</time>
      </trkpt>
      <trkpt lat="49.17341" lon="0.05499">
        <ele>71.9</ele>
        <time>2023-10-15T08:59:37Z</time>
      </trkpt>
      <trkpt lat="49.17347" lon="0.05489">
        <ele>72</ele>
        <time>2023-10-15T08:59:38Z</time>
      </trkpt>
      <trkpt lat="49.17353" lon="0.05481">
        <ele>72.1</ele>
        <time>2023-10-15T08:59:39Z</time>
      </trkpt>
      <trkpt lat="49.17359" lon="0.05473">
        <ele>72.1</ele>
        <time>2023-10-15T08:59:40Z</time>
      </trkpt>
      <trkpt lat="49.17365" lon="0.05465">
        <ele>72.2</ele>
        <time>2023-10-15T08:59:41Z</time>
      </trkpt>
      <trkpt lat="49.17372" lon="0.05457">
        <ele>72.2</ele>
        <time>2023-10-15T08:59:42Z</time>
      </trkpt>
      <trkpt lat="49.17378" lon="0.0545">
        <ele>72.2</ele>
        <time>2023-10-15T08:59:43Z</time>
      </trkpt>
      <trkpt lat="49.17385" lon="0.05442">
        <ele>72.1</ele>
        <time>2023-10-15T08:59:44Z</time>
      </trkpt>
      <trkpt lat="49.17391" lon="0.05434">
        <ele>72</ele>
        <time>2023-10-15T08:59:45Z</time>
      </trkpt>
      <trkpt lat="49.17398" lon="0.05426">
        <ele>71.8</ele>
        <time>2023-10-15T08:59:46Z</time>
      </trkpt>
      <trkpt lat="49.17405" lon="0.05417">
        <ele>71.6</ele>
        <time>2023-10-15T08:59:47Z</time>
      </trkpt>
      <trkpt lat="49.17411" lon="0.05407">
        <ele>71.3</ele>
        <time>2023-10-15T08:59:48Z</time>
      </trkpt>
      <trkpt lat="49.17417" lon="0.05394">
        <ele>70.9</ele>
        <time>2023-10-15T08:59:49Z</time>
      </trkpt>
      <trkpt lat="49.17421" lon="0.05382">
        <ele>70.4</ele>
        <time>2023-10-15T08:59:50Z</time>
      </trkpt>
      <trkpt lat="49.17426" lon="0.05368">
        <ele>70</ele>
        <time>2023-10-15T08:59:51Z</time>
      </trkpt>
      <trkpt lat="49.1743" lon="0.05353">
        <ele>69.5</ele>
        <time>2023-10-15T08:59:52Z</time>
      </trkpt>
      <trkpt lat="49.17433" lon="0.05339">
        <ele>69.1</ele>
        <time>2023-10-15T08:59:53Z</time>
      </trkpt>
      <trkpt lat="49.17436" lon="0.05323">
        <ele>68.7</ele>
        <time>2023-10-15T08:59:54Z</time>
      </trkpt>
      <trkpt lat="49.17437" lon="0.05307">
        <ele>68.3</ele>
        <time>2023-10-15T08:59:55Z</time>
      </trkpt>
      <trkpt lat="49.17437" lon="0.05291">
        <ele>68</ele>
        <time>2023-10-15T08:59:56Z</time>
      </trkpt>
      <trkpt lat="49.17435" lon="0.05275">
        <ele>67.8</ele>
        <time>2023-10-15T08:59:57Z</time>
      </trkpt>
      <trkpt lat="49.17433" lon="0.0526">
        <ele>67.6</ele>
        <time>2023-10-15T08:59:58Z</time>
      </trkpt>
      <trkpt lat="49.17431" lon="0.05244">
        <ele>67.5</ele>
        <time>2023-10-15T08:59:59Z</time>
      </trkpt>
      <trkpt lat="49.1743" lon="0.05228">
        <ele>67.4</ele>
        <time>2023-10-15T09:00:00Z</time>
      </trkpt>
      <trkpt lat="49.1743" lon="0.05214">
        <ele>67.3</ele>
        <time>2023-10-15T09:00:01Z</time>
      </trkpt>
      <trkpt lat="49.17431" lon="0.05199">
        <ele>67.2</ele>
        <time>2023-10-15T09:00:02Z</time>
      </trkpt>
      <trkpt lat="49.17435" lon="0.05185">
        <ele>67.1</ele>
        <time>2023-10-15T09:00:03Z</time>
      </trkpt>
      <trkpt lat="49.1744" lon="0.05172">
        <ele>67</ele>
        <time>2023-10-15T09:00:04Z</time>
      </trkpt>
      <trkpt lat="49.17445" lon="0.0516">
        <ele>67</ele>
        <time>2023-10-15T09:00:05Z</time>
      </trkpt>
      <trkpt lat="49.17451" lon="0.05147">
        <ele>67.1</ele>
        <time>2023-10-15T09:00:06Z</time>
      </trkpt>
      <trkpt lat="49.17456" lon="0.05134">
        <ele>67.2</ele>
        <time>2023-10-15T09:00:07Z</time>
      </trkpt>
      <trkpt lat="49.1746" lon="0.05121">
        <ele>67.4</ele>
        <time>2023-10-15T09:00:08Z</time>
      </trkpt>
      <trkpt lat="49.17464" lon="0.05108">
        <ele>67.4</ele>
        <time>2023-10-15T09:00:09Z</time>
      </trkpt>
      <trkpt lat="49.17468" lon="0.05095">
        <ele>67.4</ele>
        <time>2023-10-15T09:00:10Z</time>
      </trkpt>
      <trkpt lat="49.17473" lon="0.05082">
        <ele>67.4</ele>
        <time>2023-10-15T09:00:11Z</time>
      </trkpt>
      <trkpt lat="49.17476" lon="0.05069">
        <ele>67.4</ele>
        <time>2023-10-15T09:00:12Z</time>
      </trkpt>
      <trkpt lat="49.1748" lon="0.05056">
        <ele>67.5</ele>
        <time>2023-10-15T09:00:13Z</time>
      </trkpt>
      <trkpt lat="49.17485" lon="0.05044">
        <ele>67.5</ele>
        <time>2023-10-15T09:00:14Z</time>
      </trkpt>
      <trkpt lat="49.1749" lon="0.05032">
        <ele>67.5</ele>
        <time>2023-10-15T09:00:15Z</time>
      </trkpt>
      <trkpt lat="49.17495" lon="0.0502">
        <ele>67.4</ele>
        <time>2023-10-15T09:00:16Z</time>
      </trkpt>
      <trkpt lat="49.17501" lon="0.05009">
        <ele>67.4</ele>
        <time>2023-10-15T09:00:17Z</time>
      </trkpt>
      <trkpt lat="49.17507" lon="0.04997">
        <ele>67.3</ele>
        <time>2023-10-15T09:00:18Z</time>
      </trkpt>
      <trkpt lat="49.17513" lon="0.04986">
        <ele>67.2</ele>
        <time>2023-10-15T09:00:19Z</time>
      </trkpt>
      <trkpt lat="49.17519" lon="0.04974">
        <ele>67.2</ele>
        <time>2023-10-15T09:00:20Z</time>
      </trkpt>
      <trkpt lat="49.17524" lon="0.04963">
        <ele>67.1</ele>
        <time>2023-10-15T09:00:21Z</time>
      </trkpt>
      <trkpt lat="49.1753" lon="0.04951">
        <ele>67</ele>
        <time>2023-10-15T09:00:22Z</time>
      </trkpt>
      <trkpt lat="49.17537" lon="0.04939">
        <ele>66.9</ele>
        <time>2023-10-15T09:00:23Z</time>
      </trkpt>
      <trkpt lat="49.17542" lon="0.04928">
        <ele>66.8</ele>
        <time>2023-10-15T09:00:24Z</time>
      </trkpt>
      <trkpt lat="49.17548" lon="0.04917">
        <ele>66.6</ele>
        <time>2023-10-15T09:00:25Z</time>
      </trkpt>
      <trkpt lat="49.17554" lon="0.04905">
        <ele>66.5</ele>
        <time>2023-10-15T09:00:26Z</time>
      </trkpt>
      <trkpt lat="49.1756" lon="0.04894">
        <ele>66.4</ele>
        <time>2023-10-15T09:00:27Z</time>
      </trkpt>
      <trkpt lat="49.17566" lon="0.04882">
        <ele>66.2</ele>
        <time>2023-10-15T09:00:28Z</time>
      </trkpt>
      <trkpt lat="49.17572" lon="0.04871">
        <ele>66.1</ele>
        <time>2023-10-15T09:00:29Z</time>
      </trkpt>
      <trkpt lat="49.17579" lon="0.04859">
        <ele>66</ele>
        <time>2023-10-15T09:00:30Z</time>
      </trkpt>
      <trkpt lat="49.17584" lon="0.04847">
        <ele>65.8</ele>
        <time>2023-10-15T09:00:31Z</time>
      </trkpt>
      <trkpt lat="49.1759" lon="0.04836">
        <ele>65.7</ele>
        <time>2023-10-15T09:00:32Z</time>
      </trkpt>
      <trkpt lat="49.17596" lon="0.04824">
        <ele>65.5</ele>
        <time>2023-10-15T09:00:33Z</time>
      </trkpt>
      <trkpt lat="49.17602" lon="0.04812">
        <ele>65.4</ele>
        <time>2023-10-15T09:00:34Z</time>
      </trkpt>
      <trkpt lat="49.17608" lon="0.04801">
        <ele>65.2</ele>
        <time>2023-10-15T09:00:35Z</time>
      </trkpt>
      <trkpt lat="49.17615" lon="0.0479">
        <ele>65.1</ele>
        <time>2023-10-15T09:00:36Z</time>
      </trkpt>
      <trkpt lat="49.17621" lon="0.04778">
        <ele>64.9</ele>
        <time>2023-10-15T09:00:37Z</time>
      </trkpt>
      <trkpt lat="49.17627" lon="0.04767">
        <ele>64.8</ele>
        <time>2023-10-15T09:00:38Z</time>
      </trkpt>
      <trkpt lat="49.17634" lon="0.04755">
        <ele>64.7</ele>
        <time>2023-10-15T09:00:39Z</time>
      </trkpt>
      <trkpt lat="49.1764" lon="0.04744">
        <ele>64.6</ele>
        <time>2023-10-15T09:00:40Z</time>
      </trkpt>
      <trkpt lat="49.17647" lon="0.04733">
        <ele>64.5</ele>
        <time>2023-10-15T09:00:41Z</time>
      </trkpt>
      <trkpt lat="49.17654" lon="0.04723">
        <ele>64.5</ele>
        <time>2023-10-15T09:00:42Z</time>
      </trkpt>
      <trkpt lat="49.1766" lon="0.04713">
        <ele>64.4</ele>
        <time>2023-10-15T09:00:43Z</time>
      </trkpt>
      <trkpt lat="49.17667" lon="0.04702">
        <ele>64.3</ele>
        <time>2023-10-15T09:00:44Z</time>
      </trkpt>
      <trkpt lat="49.17673" lon="0.04692">
        <ele>64.2</ele>
        <time>2023-10-15T09:00:45Z</time>
      </trkpt>
      <trkpt lat="49.1768" lon="0.04682">
        <ele>64.1</ele>
        <time>2023-10-15T09:00:46Z</time>
      </trkpt>
      <trkpt lat="49.17687" lon="0.04671">
        <ele>64.1</ele>
        <time>2023-10-15T09:00:47Z</time>
      </trkpt>
      <trkpt lat="49.17693" lon="0.04662">
        <ele>64</ele>
        <time>2023-10-15T09:00:48Z</time>
      </trkpt>
      <trkpt lat="49.177" lon="0.04652">
        <ele>63.9</ele>
        <time>2023-10-15T09:00:49Z</time>
      </trkpt>
      <trkpt lat="49.17707" lon="0.04641">
        <ele>63.8</ele>
        <time>2023-10-15T09:00:50Z</time>
      </trkpt>
      <trkpt lat="49.17714" lon="0.04631">
        <ele>63.7</ele>
        <time>2023-10-15T09:00:51Z</time>
      </trkpt>
      <trkpt lat="49.1772" lon="0.0462">
        <ele>63.7</ele>
        <time>2023-10-15T09:00:52Z</time>
      </trkpt>
      <trkpt lat="49.17727" lon="0.0461">
        <ele>63.7</ele>
        <time>2023-10-15T09:00:53Z</time>
      </trkpt>
      <trkpt lat="49.17734" lon="0.046">
        <ele>63.6</ele>
        <time>2023-10-15T09:00:54Z</time>
      </trkpt>
      <trkpt lat="49.17741" lon="0.04589">
        <ele>63.6</ele>
        <time>2023-10-15T09:00:55Z</time>
      </trkpt>
      <trkpt lat="49.17747" lon="0.04579">
        <ele>63.6</ele>
        <time>2023-10-15T09:00:56Z</time>
      </trkpt>
      <trkpt lat="49.17754" lon="0.04569">
        <ele>63.5</ele>
        <time>2023-10-15T09:00:57Z</time>
      </trkpt>
      <trkpt lat="49.17761" lon="0.04558">
        <ele>63.4</ele>
        <time>2023-10-15T09:00:58Z</time>
      </trkpt>
      <trkpt lat="49.17768" lon="0.04548">
        <ele>63.2</ele>
        <time>2023-10-15T09:00:59Z</time>
      </trkpt>
      <trkpt lat="49.17775" lon="0.04538">
        <ele>63.1</ele>
        <time>2023-10-15T09:01:00Z</time>
      </trkpt>
      <trkpt lat="49.17782" lon="0.04528">
        <ele>62.9</ele>
        <time>2023-10-15T09:01:01Z</time>
      </trkpt>
      <trkpt lat="49.17789" lon="0.04519">
        <ele>62.6</ele>
        <time>2023-10-15T09:01:02Z</time>
      </trkpt>
      <trkpt lat="49.17796" lon="0.04509">
        <ele>62.3</ele>
        <time>2023-10-15T09:01:03Z</time>
      </trkpt>
      <trkpt lat="49.17804" lon="0.04499">
        <ele>61.9</ele>
        <time>2023-10-15T09:01:04Z</time>
      </trkpt>
      <trkpt lat="49.17812" lon="0.04489">
        <ele>61.4</ele>
        <time>2023-10-15T09:01:05Z</time>
      </trkpt>
      <trkpt lat="49.1782" lon="0.04478">
        <ele>60.8</ele>
        <time>2023-10-15T09:01:06Z</time>
      </trkpt>
      <trkpt lat="49.17828" lon="0.04468">
        <ele>60.2</ele>
        <time>2023-10-15T09:01:07Z</time>
      </trkpt>
      <trkpt lat="49.17836" lon="0.04457">
        <ele>59.5</ele>
        <time>2023-10-15T09:01:08Z</time>
      </trkpt>
      <trkpt lat="49.17845" lon="0.04445">
        <ele>58.8</ele>
        <time>2023-10-15T09:01:09Z</time>
      </trkpt>
      <trkpt lat="49.17854" lon="0.04434">
        <ele>58</ele>
        <time>2023-10-15T09:01:10Z</time>
      </trkpt>
      <trkpt lat="49.17863" lon="0.04423">
        <ele>57.2</ele>
        <time>2023-10-15T09:01:11Z</time>
      </trkpt>
      <trkpt lat="49.17872" lon="0.04412">
        <ele>56.4</ele>
        <time>2023-10-15T09:01:12Z</time>
      </trkpt>
      <trkpt lat="49.17882" lon="0.044">
        <ele>55.6</ele>
        <time>2023-10-15T09:01:13Z</time>
      </trkpt>
      <trkpt lat="49.17891" lon="0.04389">
        <ele>54.7</ele>
        <time>2023-10-15T09:01:14Z</time>
      </trkpt>
      <trkpt lat="49.17901" lon="0.04377">
        <ele>53.9</ele>
        <time>2023-10-15T09:01:15Z</time>
      </trkpt>
      <trkpt lat="49.1791" lon="0.04365">
        <ele>53</ele>
        <time>2023-10-15T09:01:16Z</time>
      </trkpt>
      <trkpt lat="49.1792" lon="0.04354">
        <ele>52.1</ele>
        <time>2023-10-15T09:01:17Z</time>
      </trkpt>
      <trkpt lat="49.17929" lon="0.04342">
        <ele>51.2</ele>
        <time>2023-10-15T09:01:18Z</time>
      </trkpt>
      <trkpt lat="49.17939" lon="0.04329">
        <ele>50.3</ele>
        <time>2023-10-15T09:01:19Z</time>
      </trkpt>
      <trkpt lat="49.17948" lon="0.04315">
        <ele>49.3</ele>
        <time>2023-10-15T09:01:20Z</time>
      </trkpt>
      <trkpt lat="49.17956" lon="0.04301">
        <ele>48.3</ele>
        <time>2023-10-15T09:01:21Z</time>
      </trkpt>
      <trkpt lat="49.17964" lon="0.04286">
        <ele>47.4</ele>
        <time>2023-10-15T09:01:22Z</time>
      </trkpt>
      <trkpt lat="49.17972" lon="0.04271">
        <ele>46.4</ele>
        <time>2023-10-15T09:01:23Z</time>
      </trkpt>
      <trkpt lat="49.17979" lon="0.04254">
        <ele>45.3</ele>
        <time>2023-10-15T09:01:24Z</time>
      </trkpt>
      <trkpt lat="49.17986" lon="0.04237">
        <ele>44.2</ele>
        <time>2023-10-15T09:01:25Z</time>
      </trkpt>
      <trkpt lat="49.17993" lon="0.0422">
        <ele>43.2</ele>
        <time>2023-10-15T09:01:26Z</time>
      </trkpt>
      <trkpt lat="49.18" lon="0.04202">
        <ele>42.2</ele>
        <time>2023-10-15T09:01:27Z</time>
      </trkpt>
      <trkpt lat="49.18007" lon="0.04184">
        <ele>41.4</ele>
        <time>2023-10-15T09:01:28Z</time>
      </trkpt>
      <trkpt lat="49.18013" lon="0.04167">
        <ele>40.6</ele>
        <time>2023-10-15T09:01:29Z</time>
      </trkpt>
      <trkpt lat="49.1802" lon="0.0415">
        <ele>40</ele>
        <time>2023-10-15T09:01:30Z</time>
      </trkpt>
      <trkpt lat="49.18027" lon="0.04135">
        <ele>39.4</ele>
        <time>2023-10-15T09:01:31Z</time>
      </trkpt>
      <trkpt lat="49.18036" lon="0.04121">
        <ele>38.9</ele>
        <time>2023-10-15T09:01:32Z</time>
      </trkpt>
      <trkpt lat="49.18047" lon="0.04112">
        <ele>38.3</ele>
        <time>2023-10-15T09:01:33Z</time>
      </trkpt>
      <trkpt lat="49.18059" lon="0.04106">
        <ele>38</ele>
        <time>2023-10-15T09:01:34Z</time>
      </trkpt>
      <trkpt lat="49.18071" lon="0.04103">
        <ele>37.7</ele>
        <time>2023-10-15T09:01:35Z</time>
      </trkpt>
      <trkpt lat="49.18083" lon="0.041">
        <ele>37.5</ele>
        <time>2023-10-15T09:01:36Z</time>
      </trkpt>
      <trkpt lat="49.18095" lon="0.04098">
        <ele>37.4</ele>
        <time>2023-10-15T09:01:37Z</time>
      </trkpt>
      <trkpt lat="49.18106" lon="0.04095">
        <ele>37.2</ele>
        <time>2023-10-15T09:01:38Z</time>
      </trkpt>
      <trkpt lat="49.18117" lon="0.04092">
        <ele>37</ele>
        <time>2023-10-15T09:01:39Z</time>
      </trkpt>
      <trkpt lat="49.18128" lon="0.04089">
        <ele>36.8</ele>
        <time>2023-10-15T09:01:40Z</time>
      </trkpt>
      <trkpt lat="49.18139" lon="0.04086">
        <ele>36.5</ele>
        <time>2023-10-15T09:01:41Z</time>
      </trkpt>
      <trkpt lat="49.1815" lon="0.04085">
        <ele>36.4</ele>
        <time>2023-10-15T09:01:42Z</time>
      </trkpt>
      <trkpt lat="49.18161" lon="0.04085">
        <ele>36.2</ele>
        <time>2023-10-15T09:01:43Z</time>
      </trkpt>
      <trkpt lat="49.18171" lon="0.04086">
        <ele>36.1</ele>
        <time>2023-10-15T09:01:44Z</time>
      </trkpt>
      <trkpt lat="49.18182" lon="0.04086">
        <ele>36</ele>
        <time>2023-10-15T09:01:45Z</time>
      </trkpt>
      <trkpt lat="49.18192" lon="0.04086">
        <ele>35.9</ele>
        <time>2023-10-15T09:01:46Z</time>
      </trkpt>
      <trkpt lat="49.18203" lon="0.04087">
        <ele>35.8</ele>
        <time>2023-10-15T09:01:47Z</time>
      </trkpt>
      <trkpt lat="49.18214" lon="0.04087">
        <ele>35.8</ele>
        <time>2023-10-15T09:01:48Z</time>
      </trkpt>
      <trkpt lat="49.18224" lon="0.04087">
        <ele>35.8</ele>
        <time>2023-10-15T09:01:49Z</time>
      </trkpt>
      <trkpt lat="49.18234" lon="0.04088">
        <ele>35.8</ele>
        <time>2023-10-15T09:01:50Z</time>
      </trkpt>
      <trkpt lat="49.18244" lon="0.04088">
        <ele>35.8</ele>
        <time>2023-10-15T09:01:51Z</time>
      </trkpt>
      <trkpt lat="49.18253" lon="0.04089">
        <ele>35.7</ele>
        <time>2023-10-15T09:01:52Z</time>
      </trkpt>
      <trkpt lat="49.18263" lon="0.0409">
        <ele>35.7</ele>
        <time>2023-10-15T09:01:53Z</time>
      </trkpt>
      <trkpt lat="49.18272" lon="0.04091">
        <ele>35.8</ele>
        <time>2023-10-15T09:01:54Z</time>
      </trkpt>
      <trkpt lat="49.18281" lon="0.04092">
        <ele>35.8</ele>
        <time>2023-10-15T09:01:55Z</time>
      </trkpt>
      <trkpt lat="49.1829" lon="0.04093">
        <ele>35.8</ele>
        <time>2023-10-15T09:01:56Z</time>
      </trkpt>
      <trkpt lat="49.18299" lon="0.04094">
        <ele>35.8</ele>
        <time>2023-10-15T09:01:57Z</time>
      </trkpt>
      <trkpt lat="49.18307" lon="0.04095">
        <ele>35.8</ele>
        <time>2023-10-15T09:01:58Z</time>
      </trkpt>
      <trkpt lat="49.18316" lon="0.04096">
        <ele>35.8</ele>
        <time>2023-10-15T09:01:59Z</time>
      </trkpt>
      <trkpt lat="49.18325" lon="0.04096">
        <ele>35.7</ele>
        <time>2023-10-15T09:02:00Z</time>
      </trkpt>
      <trkpt lat="49.18334" lon="0.04098">
        <ele>35.7</ele>
        <time>2023-10-15T09:02:01Z</time>
      </trkpt>
      <trkpt lat="49.18341" lon="0.04099">
        <ele>35.8</ele>
        <time>2023-10-15T09:02:02Z</time>
      </trkpt>
      <trkpt lat="49.18349" lon="0.041">
        <ele>35.8</ele>
        <time>2023-10-15T09:02:03Z</time>
      </trkpt>
      <trkpt lat="49.18355" lon="0.04102">
        <ele>35.9</ele>
        <time>2023-10-15T09:02:04Z</time>
      </trkpt>
      <trkpt lat="49.18361" lon="0.04102">
        <ele>35.9</ele>
        <time>2023-10-15T09:02:05Z</time>
      </trkpt>
      <trkpt lat="49.18366" lon="0.04102">
        <ele>36</ele>
        <time>2023-10-15T09:02:06Z</time>
      </trkpt>
      <trkpt lat="49.1837" lon="0.04102">
        <ele>36.1</ele>
        <time>2023-10-15T09:02:07Z</time>
      </trkpt>
      <trkpt lat="49.18373" lon="0.04102">
        <ele>36.1</ele>
        <time>2023-10-15T09:02:08Z</time>
      </trkpt>
      <trkpt lat="49.18375" lon="0.04101">
        <ele>36.1</ele>
        <time>2023-10-15T09:02:09Z</time>
      </trkpt>
      <trkpt lat="49.18375" lon="0.04101">
        <ele>36.1</ele>
        <time>2023-10-15T09:02:10Z</time>
      </trkpt>
      <trkpt lat="49.18375" lon="0.041">
        <ele>36.2</ele>
        <time>2023-10-15T09:02:11Z</time>
      </trkpt>
      <trkpt lat="49.18375" lon="0.041">
        <ele>36.2</ele>
        <time>2023-10-15T09:02:12Z</time>
      </trkpt>
      <trkpt lat="49.18375" lon="0.041">
        <ele>36.2</ele>
        <time>2023-10-15T09:02:13Z</time>
      </trkpt>
      <trkpt lat="49.18375" lon="0.041">
        <ele>36.2</ele>
        <time>2023-10-15T09:02:14Z</time>
      </trkpt>
      <trkpt lat="49.18375" lon="0.041">
        <ele>36.2</ele>
        <time>2023-10-15T09:02:15Z</time>
      </trkpt>
      <trkpt lat="49.18375" lon="0.041">
        <ele>36.2</ele>
        <time>2023-10-15T09:02:16Z</time>
      </trkpt>
      <trkpt lat="49.18375" lon="0.041">
        <ele>36.2</ele>
        <time>2023-10-15T09:02:17Z</time>
      </trkpt>
      <trkpt lat="49.18375" lon="0.041">
        <ele>36.2</ele>
        <time>2023-10-15T09:02:18Z</time>
      </trkpt>
      <trkpt lat="49.18375" lon="0.041">
        <ele>36.2</ele>
        <time>2023-10-15T09:02:19Z</time>
      </trkpt>
      <trkpt lat="49.18375" lon="0.041">
        <ele>36.2</ele>
        <time>2023-10-15T09:02:20Z</time>
      </trkpt>
      <trkpt lat="49.18375" lon="0.041">
        <ele>36.2</ele>
        <time>2023-10-15T09:02:21Z</time>
      </trkpt>
      <trkpt lat="49.18376" lon="0.041">
        <ele>36.2</ele>
        <time>2023-10-15T09:02:50Z</time>
      </trkpt>
      <trkpt lat="49.18377" lon="0.04099">
        <ele>36.2</ele>
        <time>2023-10-15T09:02:51Z</time>
      </trkpt>
      <trkpt lat="49.18378" lon="0.04099">
        <ele>36.2</ele>
        <time>2023-10-15T09:02:52Z</time>
      </trkpt>
      <trkpt lat="49.18378" lon="0.04098">
        <ele>36.2</ele>
        <time>2023-10-15T09:02:53Z</time>
      </trkpt>
      <trkpt lat="49.18378" lon="0.04098">
        <ele>36.2</ele>
        <time>2023-10-15T09:02:54Z</time>
      </trkpt>
      <trkpt lat="49.18379" lon="0.04098">
        <ele>36.2</ele>
        <time>2023-10-15T09:02:55Z</time>
      </trkpt>
      <trkpt lat="49.18379" lon="0.04097">
        <ele>36.3</ele>
        <time>2023-10-15T09:02:56Z</time>
      </trkpt>
      <trkpt lat="49.18379" lon="0.04096">
        <ele>36.3</ele>
        <time>2023-10-15T09:02:57Z</time>
      </trkpt>
      <trkpt lat="49.18379" lon="0.04095">
        <ele>36.3</ele>
        <time>2023-10-15T09:02:58Z</time>
      </trkpt>
      <trkpt lat="49.1838" lon="0.04094">
        <ele>36.3</ele>
        <time>2023-10-15T09:02:59Z</time>
      </trkpt>
      <trkpt lat="49.1838" lon="0.04094">
        <ele>36.3</ele>
        <time>2023-10-15T09:03:00Z</time>
      </trkpt>
      <trkpt lat="49.1838" lon="0.04093">
        <ele>36.3</ele>
        <time>2023-10-15T09:03:01Z</time>
      </trkpt>
      <trkpt lat="49.1838" lon="0.04092">
        <ele>36.3</ele>
        <time>2023-10-15T09:03:02Z</time>
      </trkpt>
      <trkpt lat="49.18381" lon="0.04091">
        <ele>36.3</ele>
        <time>2023-10-15T09:03:03Z</time>
      </trkpt>
      <trkpt lat="49.18381" lon="0.0409">
        <ele>36.3</ele>
        <time>2023-10-15T09:03:04Z</time>
      </trkpt>
      <trkpt lat="49.18381" lon="0.0409">
        <ele>36.3</ele>
        <time>2023-10-15T09:03:10Z</time>
      </trkpt>
      <trkpt lat="49.18381" lon="0.04089">
        <ele>36.3</ele>
        <time>2023-10-15T09:03:11Z</time>
      </trkpt>
      <trkpt lat="49.18382" lon="0.04088">
        <ele>36.3</ele>
        <time>2023-10-15T09:03:12Z</time>
      </trkpt>
      <trkpt lat="49.18381" lon="0.04082">
        <ele>36.2</ele>
        <time>2023-10-15T09:03:13Z</time>
      </trkpt>
      <trkpt lat="49.1838" lon="0.0408">
        <ele>36.2</ele>
        <time>2023-10-15T09:03:14Z</time>
      </trkpt>
      <trkpt lat="49.18379" lon="0.04076">
        <ele>36.2</ele>
        <time>2023-10-15T09:03:15Z</time>
      </trkpt>
      <trkpt lat="49.18378" lon="0.04072">
        <ele>36.1</ele>
        <time>2023-10-15T09:03:16Z</time>
      </trkpt>
      <trkpt lat="49.18377" lon="0.04067">
        <ele>36</ele>
        <time>2023-10-15T09:03:17Z</time>
      </trkpt>
      <trkpt lat="49.18376" lon="0.04062">
        <ele>35.9</ele>
        <time>2023-10-15T09:03:18Z</time>
      </trkpt>
      <trkpt lat="49.18374" lon="0.04056">
        <ele>35.8</ele>
        <time>2023-10-15T09:03:19Z</time>
      </trkpt>
      <trkpt lat="49.18372" lon="0.0405">
        <ele>35.6</ele>
        <time>2023-10-15T09:03:20Z</time>
      </trkpt>
      <trkpt lat="49.1837" lon="0.04044">
        <ele>35.5</ele>
        <time>2023-10-15T09:03:21Z</time>
      </trkpt>
      <trkpt lat="49.18369" lon="0.04037">
        <ele>35.3</ele>
        <time>2023-10-15T09:03:22Z</time>
      </trkpt>
      <trkpt lat="49.18367" lon="0.04029">
        <ele>35.2</ele>
        <time>2023-10-15T09:03:23Z</time>
      </trkpt>
      <trkpt lat="49.18366" lon="0.04021">
        <ele>35.1</ele>
        <time>2023-10-15T09:03:24Z</time>
      </trkpt>
      <trkpt lat="49.18363" lon="0.04013">
        <ele>34.9</ele>
        <time>2023-10-15T09:03:25Z</time>
      </trkpt>
      <trkpt lat="49.18361" lon="0.04005">
        <ele>34.8</ele>
        <time>2023-10-15T09:03:26Z</time>
      </trkpt>
      <trkpt lat="49.18359" lon="0.03996">
        <ele>34.7</ele>
        <time>2023-10-15T09:03:27Z</time>
      </trkpt>
      <trkpt lat="49.18356" lon="0.03988">
        <ele>34.6</ele>
        <time>2023-10-15T09:03:28Z</time>
      </trkpt>
      <trkpt lat="49.18354" lon="0.03979">
        <ele>34.5</ele>
        <time>2023-10-15T09:03:29Z</time>
      </trkpt>
      <trkpt lat="49.18351" lon="0.03969">
        <ele>34.4</ele>
        <time>2023-10-15T09:03:30Z</time>
      </trkpt>
      <trkpt lat="49.18349" lon="0.0396">
        <ele>34.3</ele>
        <time>2023-10-15T09:03:31Z</time>
      </trkpt>
      <trkpt lat="49.18346" lon="0.0395">
        <ele>34.2</ele>
        <time>2023-10-15T09:03:32Z</time>
      </trkpt>
      <trkpt lat="49.18344" lon="0.0394">
        <ele>34.1</ele>
        <time>2023-10-15T09:03:33Z</time>
      </trkpt>
      <trkpt lat="49.18342" lon="0.03929">
        <ele>34</ele>
        <time>2023-10-15T09:03:34Z</time>
      </trkpt>
      <trkpt lat="49.1834" lon="0.03917">
        <ele>33.9</ele>
        <time>2023-10-15T09:03:35Z</time>
      </trkpt>
      <trkpt lat="49.18338" lon="0.03906">
        <ele>33.7</ele>
        <time>2023-10-15T09:03:36Z</time>
      </trkpt>
      <trkpt lat="49.18335" lon="0.03895">
        <ele>33.6</ele>
        <time>2023-10-15T09:03:37Z</time>
      </trkpt>
      <trkpt lat="49.18333" lon="0.03884">
        <ele>33.5</ele>
        <time>2023-10-15T09:03:38Z</time>
      </trkpt>
      <trkpt lat="49.1833" lon="0.03873">
        <ele>33.3</ele>
        <time>2023-10-15T09:03:39Z</time>
      </trkpt>
      <trkpt lat="49.18327" lon="0.03861">
        <ele>33.2</ele>
        <time>2023-10-15T09:03:40Z</time>
      </trkpt>
      <trkpt lat="49.18324" lon="0.0385">
        <ele>33.1</ele>
        <time>2023-10-15T09:03:41Z</time>
      </trkpt>
      <trkpt lat="49.18322" lon="0.03839">
        <ele>33</ele>
        <time>2023-10-15T09:03:42Z</time>
      </trkpt>
      <trkpt lat="49.18319" lon="0.03827">
        <ele>33</ele>
        <time>2023-10-15T09:03:43Z</time>
      </trkpt>
      <trkpt lat="49.18316" lon="0.03816">
        <ele>32.9</ele>
        <time>2023-10-15T09:03:44Z</time>
      </trkpt>
      <trkpt lat="49.18313" lon="0.03804">
        <ele>32.8</ele>
        <time>2023-10-15T09:03:45Z</time>
      </trkpt>
      <trkpt lat="49.1831" lon="0.03793">
        <ele>32.8</ele>
        <time>2023-10-15T09:03:46Z</time>
      </trkpt>
      <trkpt lat="49.18307" lon="0.03781">
        <ele>32.7</ele>
        <time>2023-10-15T09:03:47Z</time>
      </trkpt>
      <trkpt lat="49.18305" lon="0.0377">
        <ele>32.7</ele>
        <time>2023-10-15T09:03:48Z</time>
      </trkpt>
      <trkpt lat="49.18302" lon="0.03758">
        <ele>32.7</ele>
        <time>2023-10-15T09:03:49Z</time>
      </trkpt>
      <trkpt lat="49.18299" lon="0.03746">
        <ele>32.7</ele>
        <time>2023-10-15T09:03:50Z</time>
      </trkpt>
      <trkpt lat="49.18296" lon="0.03735">
        <ele>32.7</ele>
        <time>2023-10-15T09:03:51Z</time>
      </trkpt>
      <trkpt lat="49.18293" lon="0.03723">
        <ele>32.7</ele>
        <time>2023-10-15T09:03:52Z</time>
      </trkpt>
      <trkpt lat="49.1829" lon="0.03711">
        <ele>32.8</ele>
        <time>2023-10-15T09:03:53Z</time>
      </trkpt>
      <trkpt lat="49.18287" lon="0.037">
        <ele>32.8</ele>
        <time>2023-10-15T09:03:54Z</time>
      </trkpt>
      <trkpt lat="49.18285" lon="0.03689">
        <ele>32.9</ele>
        <time>2023-10-15T09:03:55Z</time>
      </trkpt>
      <trkpt lat="49.18282" lon="0.03677">
        <ele>32.9</ele>
        <time>2023-10-15T09:03:56Z</time>
      </trkpt>
      <trkpt lat="49.18279" lon="0.03666">
        <ele>33</ele>
        <time>2023-10-15T09:03:57Z</time>
      </trkpt>
      <trkpt lat="49.18277" lon="0.03655">
        <ele>33.1</ele>
        <time>2023-10-15T09:03:58Z</time>
      </trkpt>
      <trkpt lat="49.18274" lon="0.03644">
        <ele>33.2</ele>
        <time>2023-10-15T09:03:59Z</time>
      </trkpt>
      <trkpt lat="49.18271" lon="0.03634">
        <ele>33.3</ele>
        <time>2023-10-15T09:04:00Z</time>
      </trkpt>
      <trkpt lat="49.18268" lon="0.03623">
        <ele>33.4</ele>
        <time>2023-10-15T09:04:01Z</time>
      </trkpt>
      <trkpt lat="49.18265" lon="0.03612">
        <ele>33.5</ele>
        <time>2023-10-15T09:04:02Z</time>
      </trkpt>
      <trkpt lat="49.18262" lon="0.03601">
        <ele>33.6</ele>
        <time>2023-10-15T09:04:03Z</time>
      </trkpt>
      <trkpt lat="49.18259" lon="0.0359">
        <ele>33.7</ele>
        <time>2023-10-15T09:04:04Z</time>
      </trkpt>
      <trkpt lat="49.18256" lon="0.03578">
        <ele>33.8</ele>
        <time>2023-10-15T09:04:05Z</time>
      </trkpt>
      <trkpt lat="49.18253" lon="0.03567">
        <ele>33.9</ele>
        <time>2023-10-15T09:04:06Z</time>
      </trkpt>
      <trkpt lat="49.1825" lon="0.03556">
        <ele>34</ele>
        <time>2023-10-15T09:04:07Z</time>
      </trkpt>
      <trkpt lat="49.18248" lon="0.03544">
        <ele>34.1</ele>
        <time>2023-10-15T09:04:08Z</time>
      </trkpt>
      <trkpt lat="49.18245" lon="0.03532">
        <ele>34.2</ele>
        <time>2023-10-15T09:04:09Z</time>
      </trkpt>
      <trkpt lat="49.18242" lon="0.03521">
        <ele>34.2</ele>
        <time>2023-10-15T09:04:10Z</time>
      </trkpt>
      <trkpt lat="49.18239" lon="0.03509">
        <ele>34.3</ele>
        <time>2023-10-15T09:04:11Z</time>
      </trkpt>
      <trkpt lat="49.18236" lon="0.03497">
        <ele>34.4</ele>
        <time>2023-10-15T09:04:12Z</time>
      </trkpt>
      <trkpt lat="49.18233" lon="0.03486">
        <ele>34.4</ele>
        <time>2023-10-15T09:04:13Z</time>
      </trkpt>
      <trkpt lat="49.1823" lon="0.03474">
        <ele>34.5</ele>
        <time>2023-10-15T09:04:14Z</time>
      </trkpt>
      <trkpt lat="49.18227" lon="0.03463">
        <ele>34.5</ele>
        <time>2023-10-15T09:04:15Z</time>
      </trkpt>
      <trkpt lat="49.18225" lon="0.03451">
        <ele>34.5</ele>
        <time>2023-10-15T09:04:16Z</time>
      </trkpt>
      <trkpt lat="49.18222" lon="0.03439">
        <ele>34.5</ele>
        <time>2023-10-15T09:04:17Z</time>
      </trkpt>
      <trkpt lat="49.18219" lon="0.03427">
        <ele>34.5</ele>
        <time>2023-10-15T09:04:18Z</time>
      </trkpt>
      <trkpt lat="49.18215" lon="0.03415">
        <ele>34.5</ele>
        <time>2023-10-15T09:04:19Z</time>
      </trkpt>
      <trkpt lat="49.18212" lon="0.03403">
        <ele>34.5</ele>
        <time>2023-10-15T09:04:20Z</time>
      </trkpt>
      <trkpt lat="49.18208" lon="0.03391">
        <ele>34.5</ele>
        <time>2023-10-15T09:04:21Z</time>
      </trkpt>
      <trkpt lat="49.18206" lon="0.03381">
        <ele>34.5</ele>
        <time>2023-10-15T09:04:22Z</time>
      </trkpt>
      <trkpt lat="49.18203" lon="0.0337">
        <ele>34.5</ele>
        <time>2023-10-15T09:04:23Z</time>
      </trkpt>
      <trkpt lat="49.18201" lon="0.03359">
        <ele>34.6</ele>
        <time>2023-10-15T09:04:24Z</time>
      </trkpt>
      <trkpt lat="49.18198" lon="0.03348">
        <ele>34.6</ele>
        <time>2023-10-15T09:04:25Z</time>
      </trkpt>
      <trkpt lat="49.18195" lon="0.03338">
        <ele>34.6</ele>
        <time>2023-10-15T09:04:26Z</time>
      </trkpt>
      <trkpt lat="49.18193" lon="0.03328">
        <ele>34.6</ele>
        <time>2023-10-15T09:04:27Z</time>
      </trkpt>
      <trkpt lat="49.18191" lon="0.03318">
        <ele>34.6</ele>
        <time>2023-10-15T09:04:28Z</time>
      </trkpt>
      <trkpt lat="49.18189" lon="0.03309">
        <ele>34.7</ele>
        <time>2023-10-15T09:04:29Z</time>
      </trkpt>
      <trkpt lat="49.18186" lon="0.03299">
        <ele>34.7</ele>
        <time>2023-10-15T09:04:30Z</time>
      </trkpt>
      <trkpt lat="49.18184" lon="0.0329">
        <ele>34.8</ele>
        <time>2023-10-15T09:04:31Z</time>
      </trkpt>
      <trkpt lat="49.18182" lon="0.03282">
        <ele>34.9</ele>
        <time>2023-10-15T09:04:32Z</time>
      </trkpt>
      <trkpt lat="49.1818" lon="0.03274">
        <ele>35</ele>
        <time>2023-10-15T09:04:33Z</time>
      </trkpt>
      <trkpt lat="49.18178" lon="0.03265">
        <ele>35.1</ele>
        <time>2023-10-15T09:04:34Z</time>
      </trkpt>
      <trkpt lat="49.18176" lon="0.03256">
        <ele>35.1</ele>
        <time>2023-10-15T09:04:35Z</time>
      </trkpt>
      <trkpt lat="49.18173" lon="0.03246">
        <ele>35</ele>
        <time>2023-10-15T09:04:36Z</time>
      </trkpt>
      <trkpt lat="49.18171" lon="0.03235">
        <ele>34.8</ele>
        <time>2023-10-15T09:04:37Z</time>
      </trkpt>
      <trkpt lat="49.18168" lon="0.03225">
        <ele>34.6</ele>
        <time>2023-10-15T09:04:38Z</time>
      </trkpt>
      <trkpt lat="49.18166" lon="0.03214">
        <ele>34.5</ele>
        <time>2023-10-15T09:04:39Z</time>
      </trkpt>
      <trkpt lat="49.18163" lon="0.03203">
        <ele>34.3</ele>
        <time>2023-10-15T09:04:40Z</time>
      </trkpt>
      <trkpt lat="49.1816" lon="0.03192">
        <ele>34.2</ele>
        <time>2023-10-15T09:04:41Z</time>
      </trkpt>
      <trkpt lat="49.18158" lon="0.03181">
        <ele>34</ele>
        <time>2023-10-15T09:04:42Z</time>
      </trkpt>
      <trkpt lat="49.18155" lon="0.03171">
        <ele>33.9</ele>
        <time>2023-10-15T09:04:43Z</time>
      </trkpt>
      <trkpt lat="49.18152" lon="0.03161">
        <ele>33.7</ele>
        <time>2023-10-15T09:04:44Z</time>
      </trkpt>
      <trkpt lat="49.1815" lon="0.0315">
        <ele>33.6</ele>
        <time>2023-10-15T09:04:45Z</time>
      </trkpt>
      <trkpt lat="49.18147" lon="0.0314">
        <ele>33.4</ele>
        <time>2023-10-15T09:04:46Z</time>
      </trkpt>
      <trkpt lat="49.18144" lon="0.03129">
        <ele>33.3</ele>
        <time>2023-10-15T09:04:47Z</time>
      </trkpt>
      <trkpt lat="49.18141" lon="0.03118">
        <ele>33.1</ele>
        <time>2023-10-15T09:04:48Z</time>
      </trkpt>
      <trkpt lat="49.18138" lon="0.03106">
        <ele>33</ele>
        <time>2023-10-15T09:04:49Z</time>
      </trkpt>
      <trkpt lat="49.18135" lon="0.03094">
        <ele>32.9</ele>
        <time>2023-10-15T09:04:50Z</time>
      </trkpt>
      <trkpt lat="49.18133" lon="0.03083">
        <ele>32.7</ele>
        <time>2023-10-15T09:04:51Z</time>
      </trkpt>
      <trkpt lat="49.1813" lon="0.03071">
        <ele>32.6</ele>
        <time>2023-10-15T09:04:52Z</time>
      </trkpt>
      <trkpt lat="49.18127" lon="0.0306">
        <ele>32.5</ele>
        <time>2023-10-15T09:04:53Z</time>
      </trkpt>
      <trkpt lat="49.18124" lon="0.03048">
        <ele>32.4</ele>
        <time>2023-10-15T09:04:54Z</time>
      </trkpt>
      <trkpt lat="49.18121" lon="0.03037">
        <ele>32.2</ele>
        <time>2023-10-15T09:04:55Z</time>
      </trkpt>
      <trkpt lat="49.18118" lon="0.03025">
        <ele>32.1</ele>
        <time>2023-10-15T09:04:56Z</time>
      </trkpt>
      <trkpt lat="49.18115" lon="0.03013">
        <ele>32</ele>
        <time>2023-10-15T09:04:57Z</time>
      </trkpt>
      <trkpt lat="49.18112" lon="0.03001">
        <ele>31.9</ele>
        <time>2023-10-15T09:04:58Z</time>
      </trkpt>
      <trkpt lat="49.18109" lon="0.02988">
        <ele>31.8</ele>
        <time>2023-10-15T09:04:59Z</time>
      </trkpt>
      <trkpt lat="49.18106" lon="0.02975">
        <ele>31.7</ele>
        <time>2023-10-15T09:05:00Z</time>
      </trkpt>
      <trkpt lat="49.18102" lon="0.02962">
        <ele>31.6</ele>
        <time>2023-10-15T09:05:01Z</time>
      </trkpt>
      <trkpt lat="49.18099" lon="0.02949">
        <ele>31.5</ele>
        <time>2023-10-15T09:05:02Z</time>
      </trkpt>
      <trkpt lat="49.18095" lon="0.02935">
        <ele>31.4</ele>
        <time>2023-10-15T09:05:03Z</time>
      </trkpt>
      <trkpt lat="49.18092" lon="0.02922">
        <ele>31.3</ele>
        <time>2023-10-15T09:05:04Z</time>
      </trkpt>
      <trkpt lat="49.18088" lon="0.0291">
        <ele>31.2</ele>
        <time>2023-10-15T09:05:05Z</time>
      </trkpt>
      <trkpt lat="49.18084" lon="0.02897">
        <ele>31.1</ele>
        <time>2023-10-15T09:05:06Z</time>
      </trkpt>
      <trkpt lat="49.18081" lon="0.02885">
        <ele>31</ele>
        <time>2023-10-15T09:05:07Z</time>
      </trkpt>
      <trkpt lat="49.18078" lon="0.02873">
        <ele>30.8</ele>
        <time>2023-10-15T09:05:08Z</time>
      </trkpt>
      <trkpt lat="49.18074" lon="0.0286">
        <ele>30.8</ele>
        <time>2023-10-15T09:05:09Z</time>
      </trkpt>
      <trkpt lat="49.1807" lon="0.02848">
        <ele>30.8</ele>
        <time>2023-10-15T09:05:10Z</time>
      </trkpt>
      <trkpt lat="49.18066" lon="0.02835">
        <ele>30.7</ele>
        <time>2023-10-15T09:05:11Z</time>
      </trkpt>
      <trkpt lat="49.18062" lon="0.02822">
        <ele>30.7</ele>
        <time>2023-10-15T09:05:12Z</time>
      </trkpt>
      <trkpt lat="49.18058" lon="0.0281">
        <ele>30.7</ele>
        <time>2023-10-15T09:05:13Z</time>
      </trkpt>
      <trkpt lat="49.18054" lon="0.02797">
        <ele>30.7</ele>
        <time>2023-10-15T09:05:14Z</time>
      </trkpt>
      <trkpt lat="49.1805" lon="0.02785">
        <ele>30.7</ele>
        <time>2023-10-15T09:05:15Z</time>
      </trkpt>
      <trkpt lat="49.18045" lon="0.02772">
        <ele>30.8</ele>
        <time>2023-10-15T09:05:16Z</time>
      </trkpt>
      <trkpt lat="49.18042" lon="0.0276">
        <ele>30.8</ele>
        <time>2023-10-15T09:05:17Z</time>
      </trkpt>
      <trkpt lat="49.18038" lon="0.02747">
        <ele>30.8</ele>
        <time>2023-10-15T09:05:18Z</time>
      </trkpt>
      <trkpt lat="49.18034" lon="0.02734">
        <ele>30.9</ele>
        <time>2023-10-15T09:05:19Z</time>
      </trkpt>
      <trkpt lat="49.1803" lon="0.02721">
        <ele>30.9</ele>
        <time>2023-10-15T09:05:20Z</time>
      </trkpt>
      <trkpt lat="49.18025" lon="0.02708">
        <ele>31</ele>
        <time>2023-10-15T09:05:21Z</time>
      </trkpt>
      <trkpt lat="49.18021" lon="0.02695">
        <ele>31.1</ele>
        <time>2023-10-15T09:05:22Z</time>
      </trkpt>
      <trkpt lat="49.18017" lon="0.02682">
        <ele>31.1</ele>
        <time>2023-10-15T09:05:23Z</time>
      </trkpt>
      <trkpt lat="49.18013" lon="0.02668">
        <ele>31.2</ele>
        <time>2023-10-15T09:05:24Z</time>
      </trkpt>
      <trkpt lat="49.18009" lon="0.02655">
        <ele>31.2</ele>
        <time>2023-10-15T09:05:25Z</time>
      </trkpt>
      <trkpt lat="49.18004" lon="0.02641">
        <ele>31.3</ele>
        <time>2023-10-15T09:05:26Z</time>
      </trkpt>
      <trkpt lat="49.18" lon="0.02628">
        <ele>31.3</ele>
        <time>2023-10-15T09:05:27Z</time>
      </trkpt>
      <trkpt lat="49.17996" lon="0.02615">
        <ele>31.4</ele>
        <time>2023-10-15T09:05:28Z</time>
      </trkpt>
      <trkpt lat="49.17992" lon="0.02602">
        <ele>31.4</ele>
        <time>2023-10-15T09:05:29Z</time>
      </trkpt>
      <trkpt lat="49.17987" lon="0.02588">
        <ele>31.4</ele>
        <time>2023-10-15T09:05:30Z</time>
      </trkpt>
      <trkpt lat="49.17983" lon="0.02575">
        <ele>31.4</ele>
        <time>2023-10-15T09:05:31Z</time>
      </trkpt>
      <trkpt lat="49.17978" lon="0.02562">
        <ele>31.4</ele>
        <time>2023-10-15T09:05:32Z</time>
      </trkpt>
      <trkpt lat="49.17974" lon="0.02548">
        <ele>31.4</ele>
        <time>2023-10-15T09:05:33Z</time>
      </trkpt>
      <trkpt lat="49.1797" lon="0.02534">
        <ele>31.3</ele>
        <time>2023-10-15T09:05:34Z</time>
      </trkpt>
      <trkpt lat="49.17965" lon="0.0252">
        <ele>31.3</ele>
        <time>2023-10-15T09:05:35Z</time>
      </trkpt>
      <trkpt lat="49.17961" lon="0.02506">
        <ele>31.2</ele>
        <time>2023-10-15T09:05:36Z</time>
      </trkpt>
      <trkpt lat="49.17957" lon="0.02493">
        <ele>31.1</ele>
        <time>2023-10-15T09:05:37Z</time>
      </trkpt>
      <trkpt lat="49.17952" lon="0.02479">
        <ele>31.1</ele>
        <time>2023-10-15T09:05:38Z</time>
      </trkpt>
      <trkpt lat="49.17947" lon="0.02466">
        <ele>31</ele>
        <time>2023-10-15T09:05:39Z</time>
      </trkpt>
      <trkpt lat="49.17943" lon="0.02453">
        <ele>30.9</ele>
        <time>2023-10-15T09:05:40Z</time>
      </trkpt>
      <trkpt lat="49.17939" lon="0.0244">
        <ele>30.9</ele>
        <time>2023-10-15T09:05:41Z</time>
      </trkpt>
      <trkpt lat="49.17935" lon="0.02427">
        <ele>30.8</ele>
        <time>2023-10-15T09:05:42Z</time>
      </trkpt>
      <trkpt lat="49.1793" lon="0.02414">
        <ele>30.8</ele>
        <time>2023-10-15T09:05:43Z</time>
      </trkpt>
      <trkpt lat="49.17926" lon="0.024">
        <ele>30.8</ele>
        <time>2023-10-15T09:05:44Z</time>
      </trkpt>
      <trkpt lat="49.17922" lon="0.02387">
        <ele>30.7</ele>
        <time>2023-10-15T09:05:45Z</time>
      </trkpt>
      <trkpt lat="49.17918" lon="0.02374">
        <ele>30.6</ele>
        <time>2023-10-15T09:05:46Z</time>
      </trkpt>
      <trkpt lat="49.17914" lon="0.02361">
        <ele>30.6</ele>
        <time>2023-10-15T09:05:47Z</time>
      </trkpt>
      <trkpt lat="49.1791" lon="0.02348">
        <ele>30.5</ele>
        <time>2023-10-15T09:05:48Z</time>
      </trkpt>
      <trkpt lat="49.17906" lon="0.02336">
        <ele>30.4</ele>
        <time>2023-10-15T09:05:49Z</time>
      </trkpt>
      <trkpt lat="49.17902" lon="0.02322">
        <ele>30.4</ele>
        <time>2023-10-15T09:05:50Z</time>
      </trkpt>
      <trkpt lat="49.17898" lon="0.02309">
        <ele>30.3</ele>
        <time>2023-10-15T09:05:51Z</time>
      </trkpt>
      <trkpt lat="49.17894" lon="0.02296">
        <ele>30.3</ele>
        <time>2023-10-15T09:05:52Z</time>
      </trkpt>
      <trkpt lat="49.17889" lon="0.02282">
        <ele>30.2</ele>
        <time>2023-10-15T09:05:53Z</time>
      </trkpt>
      <trkpt lat="49.17885" lon="0.02269">
        <ele>30.2</ele>
        <time>2023-10-15T09:05:54Z</time>
      </trkpt>
      <trkpt lat="49.1788" lon="0.02255">
        <ele>30.1</ele>
        <time>2023-10-15T09:05:55Z</time>
      </trkpt>
      <trkpt lat="49.17876" lon="0.02241">
        <ele>30.1</ele>
        <time>2023-10-15T09:05:56Z</time>
      </trkpt>
      <trkpt lat="49.17872" lon="0.02227">
        <ele>30</ele>
        <time>2023-10-15T09:05:57Z</time>
      </trkpt>
      <trkpt lat="49.17868" lon="0.02213">
        <ele>30</ele>
        <time>2023-10-15T09:05:58Z</time>
      </trkpt>
      <trkpt lat="49.17863" lon="0.022">
        <ele>30</ele>
        <time>2023-10-15T09:05:59Z</time>
      </trkpt>
      <trkpt lat="49.17858" lon="0.02187">
        <ele>29.9</ele>
        <time>2023-10-15T09:06:00Z</time>
      </trkpt>
      <trkpt lat="49.17854" lon="0.02173">
        <ele>29.9</ele>
        <time>2023-10-15T09:06:01Z</time>
      </trkpt>
      <trkpt lat="49.1785" lon="0.0216">
        <ele>29.9</ele>
        <time>2023-10-15T09:06:02Z</time>
      </trkpt>
      <trkpt lat="49.17845" lon="0.02146">
        <ele>29.8</ele>
        <time>2023-10-15T09:06:03Z</time>
      </trkpt>
      <trkpt lat="49.17841" lon="0.02132">
        <ele>29.8</ele>
        <time>2023-10-15T09:06:04Z</time>
      </trkpt>
      <trkpt lat="49.17836" lon="0.02118">
        <ele>29.8</ele>
        <time>2023-10-15T09:06:05Z</time>
      </trkpt>
      <trkpt lat="49.17832" lon="0.02104">
        <ele>29.8</ele>
        <time>2023-10-15T09:06:06Z</time>
      </trkpt>
      <trkpt lat="49.17827" lon="0.0209">
        <ele>29.7</ele>
        <time>2023-10-15T09:06:07Z</time>
      </trkpt>
      <trkpt lat="49.17823" lon="0.02075">
        <ele>29.7</ele>
        <time>2023-10-15T09:06:08Z</time>
      </trkpt>
      <trkpt lat="49.17819" lon="0.02062">
        <ele>29.6</ele>
        <time>2023-10-15T09:06:09Z</time>
      </trkpt>
      <trkpt lat="49.17815" lon="0.02048">
        <ele>29.6</ele>
        <time>2023-10-15T09:06:10Z</time>
      </trkpt>
      <trkpt lat="49.1781" lon="0.02034">
        <ele>29.5</ele>
        <time>2023-10-15T09:06:11Z</time>
      </trkpt>
      <trkpt lat="49.17806" lon="0.0202">
        <ele>29.5</ele>
        <time>2023-10-15T09:06:12Z</time>
      </trkpt>
      <trkpt lat="49.17802" lon="0.02006">
        <ele>29.4</ele>
        <time>2023-10-15T09:06:13Z</time>
      </trkpt>
      <trkpt lat="49.17797" lon="0.01992">
        <ele>29.4</ele>
        <time>2023-10-15T09:06:14Z</time>
      </trkpt>
      <trkpt lat="49.17793" lon="0.01977">
        <ele>29.4</ele>
        <time>2023-10-15T09:06:15Z</time>
      </trkpt>
      <trkpt lat="49.17789" lon="0.01963">
        <ele>29.3</ele>
        <time>2023-10-15T09:06:16Z</time>
      </trkpt>
      <trkpt lat="49.17784" lon="0.01949">
        <ele>29.3</ele>
        <time>2023-10-15T09:06:17Z</time>
      </trkpt>
      <trkpt lat="49.17779" lon="0.01934">
        <ele>29.2</ele>
        <time>2023-10-15T09:06:18Z</time>
      </trkpt>
      <trkpt lat="49.17774" lon="0.0192">
        <ele>29.1</ele>
        <time>2023-10-15T09:06:19Z</time>
      </trkpt>
      <trkpt lat="49.17769" lon="0.01905">
        <ele>29.1</ele>
        <time>2023-10-15T09:06:20Z</time>
      </trkpt>
      <trkpt lat="49.17765" lon="0.01891">
        <ele>29.1</ele>
        <time>2023-10-15T09:06:21Z</time>
      </trkpt>
      <trkpt lat="49.1776" lon="0.01876">
        <ele>29</ele>
        <time>2023-10-15T09:06:22Z</time>
      </trkpt>
      <trkpt lat="49.17755" lon="0.01861">
        <ele>29</ele>
        <time>2023-10-15T09:06:23Z</time>
      </trkpt>
      <trkpt lat="49.17751" lon="0.01847">
        <ele>29</ele>
        <time>2023-10-15T09:06:24Z</time>
      </trkpt>
      <trkpt lat="49.17746" lon="0.01832">
        <ele>28.9</ele>
        <time>2023-10-15T09:06:25Z</time>
      </trkpt>
      <trkpt lat="49.17741" lon="0.01816">
        <ele>28.8</ele>
        <time>2023-10-15T09:06:26Z</time>
      </trkpt>
      <trkpt lat="49.17736" lon="0.01801">
        <ele>28.7</ele>
        <time>2023-10-15T09:06:27Z</time>
      </trkpt>
      <trkpt lat="49.17731" lon="0.01786">
        <ele>28.7</ele>
        <time>2023-10-15T09:06:28Z</time>
      </trkpt>
      <trkpt lat="49.17726" lon="0.0177">
        <ele>28.7</ele>
        <time>2023-10-15T09:06:29Z</time>
      </trkpt>
      <trkpt lat="49.17721" lon="0.01755">
        <ele>28.7</ele>
        <time>2023-10-15T09:06:30Z</time>
      </trkpt>
      <trkpt lat="49.17716" lon="0.0174">
        <ele>28.6</ele>
        <time>2023-10-15T09:06:31Z</time>
      </trkpt>
      <trkpt lat="49.17711" lon="0.01725">
        <ele>28.5</ele>
        <time>2023-10-15T09:06:32Z</time>
      </trkpt>
      <trkpt lat="49.17706" lon="0.0171">
        <ele>28.4</ele>
        <time>2023-10-15T09:06:33Z</time>
      </trkpt>
      <trkpt lat="49.17702" lon="0.01696">
        <ele>28.3</ele>
        <time>2023-10-15T09:06:34Z</time>
      </trkpt>
      <trkpt lat="49.17697" lon="0.01681">
        <ele>28.2</ele>
        <time>2023-10-15T09:06:35Z</time>
      </trkpt>
      <trkpt lat="49.17693" lon="0.01666">
        <ele>28</ele>
        <time>2023-10-15T09:06:36Z</time>
      </trkpt>
      <trkpt lat="49.17688" lon="0.01651">
        <ele>27.9</ele>
        <time>2023-10-15T09:06:37Z</time>
      </trkpt>
      <trkpt lat="49.17683" lon="0.01635">
        <ele>27.8</ele>
        <time>2023-10-15T09:06:38Z</time>
      </trkpt>
      <trkpt lat="49.17678" lon="0.0162">
        <ele>27.6</ele>
        <time>2023-10-15T09:06:39Z</time>
      </trkpt>
      <trkpt lat="49.17673" lon="0.01604">
        <ele>27.5</ele>
        <time>2023-10-15T09:06:40Z</time>
      </trkpt>
      <trkpt lat="49.17668" lon="0.01588">
        <ele>27.3</ele>
        <time>2023-10-15T09:06:41Z</time>
      </trkpt>
      <trkpt lat="49.17662" lon="0.01571">
        <ele>27.2</ele>
        <time>2023-10-15T09:06:42Z</time>
      </trkpt>
      <trkpt lat="49.17657" lon="0.01555">
        <ele>27.1</ele>
        <time>2023-10-15T09:06:43Z</time>
      </trkpt>
      <trkpt lat="49.17652" lon="0.01539">
        <ele>27</ele>
        <time>2023-10-15T09:06:44Z</time>
      </trkpt>
      <trkpt lat="49.17646" lon="0.01523">
        <ele>26.9</ele>
        <time>2023-10-15T09:06:45Z</time>
      </trkpt>
      <trkpt lat="49.17641" lon="0.01508">
        <ele>26.8</ele>
        <time>2023-10-15T09:06:46Z</time>
      </trkpt>
      <trkpt lat="49.17636" lon="0.01492">
        <ele>26.7</ele>
        <time>2023-10-15T09:06:47Z</time>
      </trkpt>
      <trkpt lat="49.17632" lon="0.01477">
        <ele>26.6</ele>
        <time>2023-10-15T09:06:48Z</time>
      </trkpt>
      <trkpt lat="49.17627" lon="0.01462">
        <ele>26.5</ele>
        <time>2023-10-15T09:06:49Z</time>
      </trkpt>
      <trkpt lat="49.17622" lon="0.01446">
        <ele>26.5</ele>
        <time>2023-10-15T09:06:50Z</time>
      </trkpt>
      <trkpt lat="49.17617" lon="0.01431">
        <ele>26.5</ele>
        <time>2023-10-15T09:06:51Z</time>
      </trkpt>
      <trkpt lat="49.17612" lon="0.01416">
        <ele>26.4</ele>
        <time>2023-10-15T09:06:52Z</time>
      </trkpt>
      <trkpt lat="49.17608" lon="0.01401">
        <ele>26.4</ele>
        <time>2023-10-15T09:06:53Z</time>
      </trkpt>
      <trkpt lat="49.17603" lon="0.01386">
        <ele>26.3</ele>
        <time>2023-10-15T09:06:54Z</time>
      </trkpt>
      <trkpt lat="49.17598" lon="0.01371">
        <ele>26.3</ele>
        <time>2023-10-15T09:06:55Z</time>
      </trkpt>
      <trkpt lat="49.17593" lon="0.01357">
        <ele>26.2</ele>
        <time>2023-10-15T09:06:56Z</time>
      </trkpt>
      <trkpt lat="49.17589" lon="0.01342">
        <ele>26.1</ele>
        <time>2023-10-15T09:06:57Z</time>
      </trkpt>
      <trkpt lat="49.17584" lon="0.01328">
        <ele>26.1</ele>
        <time>2023-10-15T09:06:58Z</time>
      </trkpt>
      <trkpt lat="49.17579" lon="0.01314">
        <ele>26.1</ele>
        <time>2023-10-15T09:06:59Z</time>
      </trkpt>
      <trkpt lat="49.17575" lon="0.013">
        <ele>26</ele>
        <time>2023-10-15T09:07:00Z</time>
      </trkpt>
      <trkpt lat="49.17571" lon="0.01286">
        <ele>26</ele>
        <time>2023-10-15T09:07:01Z</time>
      </trkpt>
      <trkpt lat="49.17566" lon="0.01272">
        <ele>26</ele>
        <time>2023-10-15T09:07:02Z</time>
      </trkpt>
      <trkpt lat="49.17562" lon="0.01259">
        <ele>25.9</ele>
        <time>2023-10-15T09:07:03Z</time>
      </trkpt>
      <trkpt lat="49.17558" lon="0.01246">
        <ele>25.9</ele>
        <time>2023-10-15T09:07:04Z</time>
      </trkpt>
      <trkpt lat="49.17553" lon="0.01232">
        <ele>25.8</ele>
        <time>2023-10-15T09:07:05Z</time>
      </trkpt>
      <trkpt lat="49.17548" lon="0.01219">
        <ele>25.8</ele>
        <time>2023-10-15T09:07:06Z</time>
      </trkpt>
      <trkpt lat="49.17541" lon="0.01206">
        <ele>25.7</ele>
        <time>2023-10-15T09:07:07Z</time>
      </trkpt>
      <trkpt lat="49.17535" lon="0.01195">
        <ele>25.7</ele>
        <time>2023-10-15T09:07:08Z</time>
      </trkpt>
      <trkpt lat="49.17527" lon="0.01184">
        <ele>25.6</ele>
        <time>2023-10-15T09:07:09Z</time>
      </trkpt>
      <trkpt lat="49.1752" lon="0.01173">
        <ele>25.6</ele>
        <time>2023-10-15T09:07:10Z</time>
      </trkpt>
      <trkpt lat="49.17512" lon="0.01164">
        <ele>25.5</ele>
        <time>2023-10-15T09:07:11Z</time>
      </trkpt>
      <trkpt lat="49.17504" lon="0.01155">
        <ele>25.5</ele>
        <time>2023-10-15T09:07:12Z</time>
      </trkpt>
      <trkpt lat="49.17496" lon="0.01147">
        <ele>25.4</ele>
        <time>2023-10-15T09:07:13Z</time>
      </trkpt>
      <trkpt lat="49.17488" lon="0.01139">
        <ele>25.4</ele>
        <time>2023-10-15T09:07:14Z</time>
      </trkpt>
      <trkpt lat="49.17481" lon="0.0113">
        <ele>25.3</ele>
        <time>2023-10-15T09:07:15Z</time>
      </trkpt>
      <trkpt lat="49.17473" lon="0.01122">
        <ele>25.3</ele>
        <time>2023-10-15T09:07:16Z</time>
      </trkpt>
      <trkpt lat="49.17466" lon="0.01113">
        <ele>25.2</ele>
        <time>2023-10-15T09:07:17Z</time>
      </trkpt>
      <trkpt lat="49.17459" lon="0.01105">
        <ele>25.2</ele>
        <time>2023-10-15T09:07:18Z</time>
      </trkpt>
      <trkpt lat="49.17451" lon="0.01096">
        <ele>25.2</ele>
        <time>2023-10-15T09:07:19Z</time>
      </trkpt>
      <trkpt lat="49.17444" lon="0.01088">
        <ele>25.1</ele>
        <time>2023-10-15T09:07:20Z</time>
      </trkpt>
      <trkpt lat="49.17437" lon="0.01079">
        <ele>25.1</ele>
        <time>2023-10-15T09:07:21Z</time>
      </trkpt>
      <trkpt lat="49.17429" lon="0.0107">
        <ele>25</ele>
        <time>2023-10-15T09:07:22Z</time>
      </trkpt>
      <trkpt lat="49.17421" lon="0.01061">
        <ele>24.9</ele>
        <time>2023-10-15T09:07:23Z</time>
      </trkpt>
      <trkpt lat="49.17413" lon="0.01053">
        <ele>24.9</ele>
        <time>2023-10-15T09:07:24Z</time>
      </trkpt>
      <trkpt lat="49.17405" lon="0.01044">
        <ele>24.8</ele>
        <time>2023-10-15T09:07:25Z</time>
      </trkpt>
      <trkpt lat="49.17397" lon="0.01035">
        <ele>24.7</ele>
        <time>2023-10-15T09:07:26Z</time>
      </trkpt>
      <trkpt lat="49.17389" lon="0.01026">
        <ele>24.7</ele>
        <time>2023-10-15T09:07:27Z</time>
      </trkpt>
      <trkpt lat="49.17381" lon="0.01017">
        <ele>24.6</ele>
        <time>2023-10-15T09:07:28Z</time>
      </trkpt>
      <trkpt lat="49.17373" lon="0.01008">
        <ele>24.5</ele>
        <time>2023-10-15T09:07:29Z</time>
      </trkpt>
      <trkpt lat="49.17365" lon="0.00999">
        <ele>24.4</ele>
        <time>2023-10-15T09:07:30Z</time>
      </trkpt>
      <trkpt lat="49.17358" lon="0.0099">
        <ele>24.3</ele>
        <time>2023-10-15T09:07:31Z</time>
      </trkpt>
      <trkpt lat="49.1735" lon="0.00981">
        <ele>24.2</ele>
        <time>2023-10-15T09:07:32Z</time>
      </trkpt>
      <trkpt lat="49.17341" lon="0.00971">
        <ele>24.1</ele>
        <time>2023-10-15T09:07:33Z</time>
      </trkpt>
      <trkpt lat="49.17333" lon="0.00962">
        <ele>23.9</ele>
        <time>2023-10-15T09:07:34Z</time>
      </trkpt>
      <trkpt lat="49.17325" lon="0.00952">
        <ele>23.8</ele>
        <time>2023-10-15T09:07:35Z</time>
      </trkpt>
      <trkpt lat="49.17316" lon="0.00942">
        <ele>23.6</ele>
        <time>2023-10-15T09:07:36Z</time>
      </trkpt>
      <trkpt lat="49.17308" lon="0.00933">
        <ele>23.5</ele>
        <time>2023-10-15T09:07:37Z</time>
      </trkpt>
      <trkpt lat="49.173" lon="0.00923">
        <ele>23.3</ele>
        <time>2023-10-15T09:07:38Z</time>
      </trkpt>
      <trkpt lat="49.17292" lon="0.00913">
        <ele>23.2</ele>
        <time>2023-10-15T09:07:39Z</time>
      </trkpt>
      <trkpt lat="49.17284" lon="0.00903">
        <ele>23.1</ele>
        <time>2023-10-15T09:07:40Z</time>
      </trkpt>
      <trkpt lat="49.17276" lon="0.00894">
        <ele>22.9</ele>
        <time>2023-10-15T09:07:41Z</time>
      </trkpt>
      <trkpt lat="49.17267" lon="0.00885">
        <ele>22.8</ele>
        <time>2023-10-15T09:07:42Z</time>
      </trkpt>
      <trkpt lat="49.17259" lon="0.00875">
        <ele>22.7</ele>
        <time>2023-10-15T09:07:43Z</time>
      </trkpt>
      <trkpt lat="49.17252" lon="0.00866">
        <ele>22.6</ele>
        <time>2023-10-15T09:07:44Z</time>
      </trkpt>
      <trkpt lat="49.17244" lon="0.00857">
        <ele>22.4</ele>
        <time>2023-10-15T09:07:45Z</time>
      </trkpt>
      <trkpt lat="49.17237" lon="0.00848">
        <ele>22.3</ele>
        <time>2023-10-15T09:07:46Z</time>
      </trkpt>
      <trkpt lat="49.17229" lon="0.00839">
        <ele>22.2</ele>
        <time>2023-10-15T09:07:47Z</time>
      </trkpt>
      <trkpt lat="49.17222" lon="0.0083">
        <ele>22.2</ele>
        <time>2023-10-15T09:07:48Z</time>
      </trkpt>
      <trkpt lat="49.17214" lon="0.00821">
        <ele>22.1</ele>
        <time>2023-10-15T09:07:49Z</time>
      </trkpt>
      <trkpt lat="49.17207" lon="0.00812">
        <ele>22</ele>
        <time>2023-10-15T09:07:50Z</time>
      </trkpt>
      <trkpt lat="49.172" lon="0.00802">
        <ele>21.9</ele>
        <time>2023-10-15T09:07:51Z</time>
      </trkpt>
      <trkpt lat="49.17192" lon="0.00793">
        <ele>21.8</ele>
        <time>2023-10-15T09:07:52Z</time>
      </trkpt>
      <trkpt lat="49.17184" lon="0.00783">
        <ele>21.8</ele>
        <time>2023-10-15T09:07:53Z</time>
      </trkpt>
      <trkpt lat="49.17176" lon="0.00774">
        <ele>21.7</ele>
        <time>2023-10-15T09:07:54Z</time>
      </trkpt>
      <trkpt lat="49.17168" lon="0.00764">
        <ele>21.6</ele>
        <time>2023-10-15T09:07:55Z</time>
      </trkpt>
      <trkpt lat="49.17159" lon="0.00755">
        <ele>21.5</ele>
        <time>2023-10-15T09:07:56Z</time>
      </trkpt>
      <trkpt lat="49.17151" lon="0.00745">
        <ele>21.3</ele>
        <time>2023-10-15T09:07:57Z</time>
      </trkpt>
      <trkpt lat="49.17143" lon="0.00736">
        <ele>21.2</ele>
        <time>2023-10-15T09:07:58Z</time>
      </trkpt>
      <trkpt lat="49.17134" lon="0.00726">
        <ele>21.1</ele>
        <time>2023-10-15T09:07:59Z</time>
      </trkpt>
      <trkpt lat="49.17125" lon="0.00717">
        <ele>21</ele>
        <time>2023-10-15T09:08:00Z</time>
      </trkpt>
      <trkpt lat="49.17117" lon="0.00708">
        <ele>20.9</ele>
        <time>2023-10-15T09:08:01Z</time>
      </trkpt>
      <trkpt lat="49.17109" lon="0.00699">
        <ele>20.9</ele>
        <time>2023-10-15T09:08:02Z</time>
      </trkpt>
      <trkpt lat="49.17101" lon="0.0069">
        <ele>20.8</ele>
        <time>2023-10-15T09:08:03Z</time>
      </trkpt>
      <trkpt lat="49.17092" lon="0.00682">
        <ele>20.7</ele>
        <time>2023-10-15T09:08:04Z</time>
      </trkpt>
      <trkpt lat="49.17084" lon="0.00673">
        <ele>20.6</ele>
        <time>2023-10-15T09:08:05Z</time>
      </trkpt>
      <trkpt lat="49.17076" lon="0.00666">
        <ele>20.5</ele>
        <time>2023-10-15T09:08:06Z</time>
      </trkpt>
      <trkpt lat="49.17067" lon="0.00658">
        <ele>20.4</ele>
        <time>2023-10-15T09:08:07Z</time>
      </trkpt>
      <trkpt lat="49.17058" lon="0.00651">
        <ele>20.3</ele>
        <time>2023-10-15T09:08:08Z</time>
      </trkpt>
      <trkpt lat="49.17049" lon="0.00644">
        <ele>20.2</ele>
        <time>2023-10-15T09:08:09Z</time>
      </trkpt>
      <trkpt lat="49.1704" lon="0.00636">
        <ele>20.1</ele>
        <time>2023-10-15T09:08:10Z</time>
      </trkpt>
      <trkpt lat="49.17031" lon="0.00629">
        <ele>20</ele>
        <time>2023-10-15T09:08:11Z</time>
      </trkpt>
      <trkpt lat="49.17022" lon="0.00622">
        <ele>19.9</ele>
        <time>2023-10-15T09:08:12Z</time>
      </trkpt>
      <trkpt lat="49.17013" lon="0.00615">
        <ele>19.8</ele>
        <time>2023-10-15T09:08:13Z</time>
      </trkpt>
      <trkpt lat="49.17004" lon="0.00608">
        <ele>19.7</ele>
        <time>2023-10-15T09:08:14Z</time>
      </trkpt>
      <trkpt lat="49.16995" lon="0.00602">
        <ele>19.6</ele>
        <time>2023-10-15T09:08:15Z</time>
      </trkpt>
      <trkpt lat="49.16986" lon="0.00595">
        <ele>19.5</ele>
        <time>2023-10-15T09:08:16Z</time>
      </trkpt>
      <trkpt lat="49.16977" lon="0.00588">
        <ele>19.5</ele>
        <time>2023-10-15T09:08:17Z</time>
      </trkpt>
      <trkpt lat="49.16969" lon="0.00581">
        <ele>19.4</ele>
        <time>2023-10-15T09:08:18Z</time>
      </trkpt>
      <trkpt lat="49.1696" lon="0.00574">
        <ele>19.4</ele>
        <time>2023-10-15T09:08:19Z</time>
      </trkpt>
      <trkpt lat="49.16952" lon="0.00568">
        <ele>19.3</ele>
        <time>2023-10-15T09:08:20Z</time>
      </trkpt>
      <trkpt lat="49.16944" lon="0.00561">
        <ele>19.3</ele>
        <time>2023-10-15T09:08:21Z</time>
      </trkpt>
      <trkpt lat="49.16936" lon="0.00554">
        <ele>19.3</ele>
        <time>2023-10-15T09:08:22Z</time>
      </trkpt>
      <trkpt lat="49.16927" lon="0.00547">
        <ele>19.2</ele>
        <time>2023-10-15T09:08:23Z</time>
      </trkpt>
      <trkpt lat="49.16918" lon="0.0054">
        <ele>19.2</ele>
        <time>2023-10-15T09:08:24Z</time>
      </trkpt>
      <trkpt lat="49.1691" lon="0.00533">
        <ele>19.3</ele>
        <time>2023-10-15T09:08:25Z</time>
      </trkpt>
      <trkpt lat="49.16901" lon="0.00526">
        <ele>19.4</ele>
        <time>2023-10-15T09:08:26Z</time>
      </trkpt>
      <trkpt lat="49.16893" lon="0.00519">
        <ele>19.5</ele>
        <time>2023-10-15T09:08:27Z</time>
      </trkpt>
      <trkpt lat="49.16884" lon="0.00512">
        <ele>19.6</ele>
        <time>2023-10-15T09:08:28Z</time>
      </trkpt>
      <trkpt lat="49.16875" lon="0.00505">
        <ele>19.7</ele>
        <time>2023-10-15T09:08:29Z</time>
      </trkpt>
      <trkpt lat="49.16866" lon="0.00498">
        <ele>19.8</ele>
        <time>2023-10-15T09:08:30Z</time>
      </trkpt>
      <trkpt lat="49.16858" lon="0.0049">
        <ele>20</ele>
        <time>2023-10-15T09:08:31Z</time>
      </trkpt>
      <trkpt lat="49.1685" lon="0.00481">
        <ele>20.1</ele>
        <time>2023-10-15T09:08:32Z</time>
      </trkpt>
      <trkpt lat="49.16841" lon="0.00473">
        <ele>20.3</ele>
        <time>2023-10-15T09:08:33Z</time>
      </trkpt>
      <trkpt lat="49.16833" lon="0.00464">
        <ele>20.5</ele>
        <time>2023-10-15T09:08:34Z</time>
      </trkpt>
      <trkpt lat="49.16825" lon="0.00455">
        <ele>20.6</ele>
        <time>2023-10-15T09:08:35Z</time>
      </trkpt>
      <trkpt lat="49.16816" lon="0.00447">
        <ele>20.8</ele>
        <time>2023-10-15T09:08:36Z</time>
      </trkpt>
      <trkpt lat="49.16808" lon="0.00438">
        <ele>20.9</ele>
        <time>2023-10-15T09:08:37Z</time>
      </trkpt>
      <trkpt lat="49.168" lon="0.0043">
        <ele>21.1</ele>
        <time>2023-10-15T09:08:38Z</time>
      </trkpt>
      <trkpt lat="49.16792" lon="0.00421">
        <ele>21.3</ele>
        <time>2023-10-15T09:08:39Z</time>
      </trkpt>
      <trkpt lat="49.16785" lon="0.00412">
        <ele>21.4</ele>
        <time>2023-10-15T09:08:40Z</time>
      </trkpt>
      <trkpt lat="49.16777" lon="0.00403">
        <ele>21.6</ele>
        <time>2023-10-15T09:08:41Z</time>
      </trkpt>
      <trkpt lat="49.16769" lon="0.00394">
        <ele>21.6</ele>
        <time>2023-10-15T09:08:42Z</time>
      </trkpt>
      <trkpt lat="49.16761" lon="0.00385">
        <ele>21.6</ele>
        <time>2023-10-15T09:08:43Z</time>
      </trkpt>
      <trkpt lat="49.16752" lon="0.00376">
        <ele>21.5</ele>
        <time>2023-10-15T09:08:44Z</time>
      </trkpt>
      <trkpt lat="49.16744" lon="0.00367">
        <ele>21.3</ele>
        <time>2023-10-15T09:08:45Z</time>
      </trkpt>
      <trkpt lat="49.16736" lon="0.00358">
        <ele>21.1</ele>
        <time>2023-10-15T09:08:46Z</time>
      </trkpt>
      <trkpt lat="49.16726" lon="0.00348">
        <ele>20.9</ele>
        <time>2023-10-15T09:08:47Z</time>
      </trkpt>
      <trkpt lat="49.16717" lon="0.00339">
        <ele>20.6</ele>
        <time>2023-10-15T09:08:48Z</time>
      </trkpt>
      <trkpt lat="49.16708" lon="0.00329">
        <ele>20.4</ele>
        <time>2023-10-15T09:08:49Z</time>
      </trkpt>
      <trkpt lat="49.16698" lon="0.00319">
        <ele>20.2</ele>
        <time>2023-10-15T09:08:50Z</time>
      </trkpt>
      <trkpt lat="49.16689" lon="0.00308">
        <ele>20</ele>
        <time>2023-10-15T09:08:51Z</time>
      </trkpt>
      <trkpt lat="49.16679" lon="0.00298">
        <ele>19.7</ele>
        <time>2023-10-15T09:08:52Z</time>
      </trkpt>
      <trkpt lat="49.1667" lon="0.00289">
        <ele>19.5</ele>
        <time>2023-10-15T09:08:53Z</time>
      </trkpt>
      <trkpt lat="49.16661" lon="0.00279">
        <ele>19.3</ele>
        <time>2023-10-15T09:08:54Z</time>
      </trkpt>
      <trkpt lat="49.16652" lon="0.00269">
        <ele>19.1</ele>
        <time>2023-10-15T09:08:55Z</time>
      </trkpt>
      <trkpt lat="49.16643" lon="0.00259">
        <ele>19</ele>
        <time>2023-10-15T09:08:56Z</time>
      </trkpt>
      <trkpt lat="49.16634" lon="0.0025">
        <ele>18.8</ele>
        <time>2023-10-15T09:08:57Z</time>
      </trkpt>
      <trkpt lat="49.16626" lon="0.00241">
        <ele>18.6</ele>
        <time>2023-10-15T09:08:58Z</time>
      </trkpt>
      <trkpt lat="49.16617" lon="0.00232">
        <ele>18.5</ele>
        <time>2023-10-15T09:08:59Z</time>
      </trkpt>
      <trkpt lat="49.16609" lon="0.00224">
        <ele>18.5</ele>
        <time>2023-10-15T09:09:00Z</time>
      </trkpt>
      <trkpt lat="49.16601" lon="0.00215">
        <ele>18.4</ele>
        <time>2023-10-15T09:09:01Z</time>
      </trkpt>
      <trkpt lat="49.16592" lon="0.00206">
        <ele>18.4</ele>
        <time>2023-10-15T09:09:02Z</time>
      </trkpt>
      <trkpt lat="49.16584" lon="0.00197">
        <ele>18.4</ele>
        <time>2023-10-15T09:09:03Z</time>
      </trkpt>
      <trkpt lat="49.16575" lon="0.00188">
        <ele>18.4</ele>
        <time>2023-10-15T09:09:04Z</time>
      </trkpt>
      <trkpt lat="49.16567" lon="0.00179">
        <ele>18.5</ele>
        <time>2023-10-15T09:09:05Z</time>
      </trkpt>
      <trkpt lat="49.16559" lon="0.0017">
        <ele>18.5</ele>
        <time>2023-10-15T09:09:06Z</time>
      </trkpt>
      <trkpt lat="49.16551" lon="0.0016">
        <ele>18.6</ele>
        <time>2023-10-15T09:09:07Z</time>
      </trkpt>
      <trkpt lat="49.16543" lon="0.00151">
        <ele>18.6</ele>
        <time>2023-10-15T09:09:08Z</time>
      </trkpt>
      <trkpt lat="49.16535" lon="0.00143">
        <ele>18.7</ele>
        <time>2023-10-15T09:09:09Z</time>
      </trkpt>
      <trkpt lat="49.16527" lon="0.00134">
        <ele>18.8</ele>
        <time>2023-10-15T09:09:10Z</time>
      </trkpt>
      <trkpt lat="49.1652" lon="0.00126">
        <ele>18.9</ele>
        <time>2023-10-15T09:09:11Z</time>
      </trkpt>
      <trkpt lat="49.16512" lon="0.00117">
        <ele>19</ele>
        <time>2023-10-15T09:09:12Z</time>
      </trkpt>
      <trkpt lat="49.16504" lon="0.00109">
        <ele>19</ele>
        <time>2023-10-15T09:09:13Z</time>
      </trkpt>
      <trkpt lat="49.16497" lon="0.00101">
        <ele>19.1</ele>
        <time>2023-10-15T09:09:14Z</time>
      </trkpt>
      <trkpt lat="49.16489" lon="0.00093">
        <ele>19.2</ele>
        <time>2023-10-15T09:09:15Z</time>
      </trkpt>
      <trkpt lat="49.16482" lon="0.00085">
        <ele>19.3</ele>
        <time>2023-10-15T09:09:16Z</time>
      </trkpt>
      <trkpt lat="49.16474" lon="0.00077">
        <ele>19.4</ele>
        <time>2023-10-15T09:09:17Z</time>
      </trkpt>
      <trkpt lat="49.16466" lon="0.00068">
        <ele>19.5</ele>
        <time>2023-10-15T09:09:18Z</time>
      </trkpt>
      <trkpt lat="49.16458" lon="0.0006">
        <ele>19.6</ele>
        <time>2023-10-15T09:09:19Z</time>
      </trkpt>
      <trkpt lat="49.16451" lon="0.00052">
        <ele>19.7</ele>
        <time>2023-10-15T09:09:20Z</time>
      </trkpt>
      <trkpt lat="49.16443" lon="0.00043">
        <ele>19.7</ele>
        <time>2023-10-15T09:09:21Z</time>
      </trkpt>
      <trkpt lat="49.16435" lon="0.00035">
        <ele>19.8</ele>
        <time>2023-10-15T09:09:22Z</time>
      </trkpt>
      <trkpt lat="49.16428" lon="0.00027">
        <ele>19.8</ele>
        <time>2023-10-15T09:09:23Z</time>
      </trkpt>
      <trkpt lat="49.1642" lon="0.00018">
        <ele>19.7</ele>
        <time>2023-10-15T09:09:24Z</time>
      </trkpt>
      <trkpt lat="49.16412" lon="0.0001">
        <ele>19.7</ele>
        <time>2023-10-15T09:09:25Z</time>
      </trkpt>
      <trkpt lat="49.16405" lon="2.0E-5">
        <ele>19.6</ele>
        <time>2023-10-15T09:09:26Z</time>
      </trkpt>
      <trkpt lat="49.16397" lon="-6.0E-5">
        <ele>19.6</ele>
        <time>2023-10-15T09:09:27Z</time>
      </trkpt>
      <trkpt lat="49.1639" lon="-0.00015">
        <ele>19.5</ele>
        <time>2023-10-15T09:09:28Z</time>
      </trkpt>
      <trkpt lat="49.16382" lon="-0.00023">
        <ele>19.5</ele>
        <time>2023-10-15T09:09:29Z</time>
      </trkpt>
      <trkpt lat="49.16375" lon="-0.00031">
        <ele>19.5</ele>
        <time>2023-10-15T09:09:30Z</time>
      </trkpt>
      <trkpt lat="49.16367" lon="-0.0004">
        <ele>19.4</ele>
        <time>2023-10-15T09:09:31Z</time>
      </trkpt>
      <trkpt lat="49.1636" lon="-0.00048">
        <ele>19.4</ele>
        <time>2023-10-15T09:09:32Z</time>
      </trkpt>
      <trkpt lat="49.16352" lon="-0.00057">
        <ele>19.3</ele>
        <time>2023-10-15T09:09:33Z</time>
      </trkpt>
      <trkpt lat="49.16344" lon="-0.00065">
        <ele>19.3</ele>
        <time>2023-10-15T09:09:34Z</time>
      </trkpt>
      <trkpt lat="49.16337" lon="-0.00074">
        <ele>19.2</ele>
        <time>2023-10-15T09:09:35Z</time>
      </trkpt>
      <trkpt lat="49.16329" lon="-0.00082">
        <ele>19.2</ele>
        <time>2023-10-15T09:09:36Z</time>
      </trkpt>
      <trkpt lat="49.16321" lon="-0.0009">
        <ele>19.1</ele>
        <time>2023-10-15T09:09:37Z</time>
      </trkpt>
      <trkpt lat="49.16314" lon="-0.00099">
        <ele>19.1</ele>
        <time>2023-10-15T09:09:38Z</time>
      </trkpt>
      <trkpt lat="49.16307" lon="-0.00106">
        <ele>19.1</ele>
        <time>2023-10-15T09:09:39Z</time>
      </trkpt>
      <trkpt lat="49.163" lon="-0.00113">
        <ele>19.1</ele>
        <time>2023-10-15T09:09:40Z</time>
      </trkpt>
      <trkpt lat="49.16292" lon="-0.00121">
        <ele>19.1</ele>
        <time>2023-10-15T09:09:41Z</time>
      </trkpt>
      <trkpt lat="49.16285" lon="-0.00129">
        <ele>19.1</ele>
        <time>2023-10-15T09:09:42Z</time>
      </trkpt>
      <trkpt lat="49.16277" lon="-0.00137">
        <ele>19.2</ele>
        <time>2023-10-15T09:09:43Z</time>
      </trkpt>
      <trkpt lat="49.1627" lon="-0.00145">
        <ele>19.2</ele>
        <time>2023-10-15T09:09:44Z</time>
      </trkpt>
      <trkpt lat="49.16262" lon="-0.00152">
        <ele>19.3</ele>
        <time>2023-10-15T09:09:45Z</time>
      </trkpt>
      <trkpt lat="49.16254" lon="-0.0016">
        <ele>19.3</ele>
        <time>2023-10-15T09:09:46Z</time>
      </trkpt>
      <trkpt lat="49.16247" lon="-0.00169">
        <ele>19.3</ele>
        <time>2023-10-15T09:09:47Z</time>
      </trkpt>
      <trkpt lat="49.16239" lon="-0.00176">
        <ele>19.3</ele>
        <time>2023-10-15T09:09:48Z</time>
      </trkpt>
      <trkpt lat="49.16231" lon="-0.00185">
        <ele>19.3</ele>
        <time>2023-10-15T09:09:49Z</time>
      </trkpt>
      <trkpt lat="49.16223" lon="-0.00192">
        <ele>19.4</ele>
        <time>2023-10-15T09:09:50Z</time>
      </trkpt>
      <trkpt lat="49.16215" lon="-0.00199">
        <ele>19.4</ele>
        <time>2023-10-15T09:09:51Z</time>
      </trkpt>
      <trkpt lat="49.16207" lon="-0.00207">
        <ele>19.4</ele>
        <time>2023-10-15T09:09:52Z</time>
      </trkpt>
      <trkpt lat="49.16198" lon="-0.00214">
        <ele>19.4</ele>
        <time>2023-10-15T09:09:53Z</time>
      </trkpt>
      <trkpt lat="49.1619" lon="-0.00221">
        <ele>19.4</ele>
        <time>2023-10-15T09:09:54Z</time>
      </trkpt>
      <trkpt lat="49.16182" lon="-0.00228">
        <ele>19.3</ele>
        <time>2023-10-15T09:09:55Z</time>
      </trkpt>
      <trkpt lat="49.16173" lon="-0.00235">
        <ele>19.3</ele>
        <time>2023-10-15T09:09:56Z</time>
      </trkpt>
      <trkpt lat="49.16165" lon="-0.00241">
        <ele>19.3</ele>
        <time>2023-10-15T09:09:57Z</time>
      </trkpt>
      <trkpt lat="49.16156" lon="-0.00248">
        <ele>19.2</ele>
        <time>2023-10-15T09:09:58Z</time>
      </trkpt>
      <trkpt lat="49.16147" lon="-0.00254">
        <ele>19.2</ele>
        <time>2023-10-15T09:09:59Z</time>
      </trkpt>
      <trkpt lat="49.16139" lon="-0.00261">
        <ele>19.1</ele>
        <time>2023-10-15T09:10:00Z</time>
      </trkpt>
      <trkpt lat="49.1613" lon="-0.00268">
        <ele>19</ele>
        <time>2023-10-15T09:10:01Z</time>
      </trkpt>
      <trkpt lat="49.16121" lon="-0.00275">
        <ele>18.8</ele>
        <time>2023-10-15T09:10:02Z</time>
      </trkpt>
      <trkpt lat="49.16112" lon="-0.00283">
        <ele>18.7</ele>
        <time>2023-10-15T09:10:03Z</time>
      </trkpt>
      <trkpt lat="49.16103" lon="-0.0029">
        <ele>18.5</ele>
        <time>2023-10-15T09:10:04Z</time>
      </trkpt>
      <trkpt lat="49.16094" lon="-0.00297">
        <ele>18.3</ele>
        <time>2023-10-15T09:10:05Z</time>
      </trkpt>
      <trkpt lat="49.16084" lon="-0.00303">
        <ele>18.1</ele>
        <time>2023-10-15T09:10:06Z</time>
      </trkpt>
      <trkpt lat="49.16075" lon="-0.0031">
        <ele>17.9</ele>
        <time>2023-10-15T09:10:07Z</time>
      </trkpt>
      <trkpt lat="49.16066" lon="-0.00316">
        <ele>17.6</ele>
        <time>2023-10-15T09:10:08Z</time>
      </trkpt>
      <trkpt lat="49.16056" lon="-0.00322">
        <ele>17.3</ele>
        <time>2023-10-15T09:10:09Z</time>
      </trkpt>
      <trkpt lat="49.16046" lon="-0.00328">
        <ele>17.1</ele>
        <time>2023-10-15T09:10:10Z</time>
      </trkpt>
      <trkpt lat="49.16037" lon="-0.00334">
        <ele>16.8</ele>
        <time>2023-10-15T09:10:11Z</time>
      </trkpt>
      <trkpt lat="49.16027" lon="-0.0034">
        <ele>16.6</ele>
        <time>2023-10-15T09:10:12Z</time>
      </trkpt>
      <trkpt lat="49.16017" lon="-0.00346">
        <ele>16.3</ele>
        <time>2023-10-15T09:10:13Z</time>
      </trkpt>
      <trkpt lat="49.16007" lon="-0.00352">
        <ele>16.1</ele>
        <time>2023-10-15T09:10:14Z</time>
      </trkpt>
      <trkpt lat="49.15997" lon="-0.00357">
        <ele>15.9</ele>
        <time>2023-10-15T09:10:15Z</time>
      </trkpt>
      <trkpt lat="49.15987" lon="-0.00362">
        <ele>15.7</ele>
        <time>2023-10-15T09:10:16Z</time>
      </trkpt>
      <trkpt lat="49.15976" lon="-0.00367">
        <ele>15.5</ele>
        <time>2023-10-15T09:10:17Z</time>
      </trkpt>
      <trkpt lat="49.15966" lon="-0.00372">
        <ele>15.3</ele>
        <time>2023-10-15T09:10:18Z</time>
      </trkpt>
      <trkpt lat="49.15956" lon="-0.00376">
        <ele>15.2</ele>
        <time>2023-10-15T09:10:19Z</time>
      </trkpt>
      <trkpt lat="49.15945" lon="-0.00381">
        <ele>15.1</ele>
        <time>2023-10-15T09:10:20Z</time>
      </trkpt>
      <trkpt lat="49.15935" lon="-0.00385">
        <ele>15.1</ele>
        <time>2023-10-15T09:10:21Z</time>
      </trkpt>
      <trkpt lat="49.15925" lon="-0.0039">
        <ele>15.1</ele>
        <time>2023-10-15T09:10:22Z</time>
      </trkpt>
      <trkpt lat="49.15915" lon="-0.00394">
        <ele>15.1</ele>
        <time>2023-10-15T09:10:23Z</time>
      </trkpt>
      <trkpt lat="49.15905" lon="-0.00398">
        <ele>15.1</ele>
        <time>2023-10-15T09:10:24Z</time>
      </trkpt>
      <trkpt lat="49.15896" lon="-0.00402">
        <ele>15.2</ele>
        <time>2023-10-15T09:10:25Z</time>
      </trkpt>
      <trkpt lat="49.15887" lon="-0.00405">
        <ele>15.3</ele>
        <time>2023-10-15T09:10:26Z</time>
      </trkpt>
      <trkpt lat="49.15877" lon="-0.00409">
        <ele>15.4</ele>
        <time>2023-10-15T09:10:27Z</time>
      </trkpt>
      <trkpt lat="49.15869" lon="-0.00413">
        <ele>15.5</ele>
        <time>2023-10-15T09:10:28Z</time>
      </trkpt>
      <trkpt lat="49.1586" lon="-0.00416">
        <ele>15.6</ele>
        <time>2023-10-15T09:10:29Z</time>
      </trkpt>
      <trkpt lat="49.15851" lon="-0.0042">
        <ele>15.7</ele>
        <time>2023-10-15T09:10:30Z</time>
      </trkpt>
      <trkpt lat="49.15842" lon="-0.00423">
        <ele>15.9</ele>
        <time>2023-10-15T09:10:31Z</time>
      </trkpt>
      <trkpt lat="49.15833" lon="-0.00427">
        <ele>16.1</ele>
        <time>2023-10-15T09:10:32Z</time>
      </trkpt>
      <trkpt lat="49.15824" lon="-0.00431">
        <ele>16.3</ele>
        <time>2023-10-15T09:10:33Z</time>
      </trkpt>
      <trkpt lat="49.15816" lon="-0.00434">
        <ele>16.5</ele>
        <time>2023-10-15T09:10:34Z</time>
      </trkpt>
      <trkpt lat="49.15807" lon="-0.00438">
        <ele>16.7</ele>
        <time>2023-10-15T09:10:35Z</time>
      </trkpt>
      <trkpt lat="49.158" lon="-0.00442">
        <ele>16.9</ele>
        <time>2023-10-15T09:10:36Z</time>
      </trkpt>
      <trkpt lat="49.15792" lon="-0.00445">
        <ele>17.1</ele>
        <time>2023-10-15T09:10:37Z</time>
      </trkpt>
      <trkpt lat="49.15785" lon="-0.00449">
        <ele>17.4</ele>
        <time>2023-10-15T09:10:38Z</time>
      </trkpt>
      <trkpt lat="49.15779" lon="-0.00452">
        <ele>17.7</ele>
        <time>2023-10-15T09:10:39Z</time>
      </trkpt>
      <trkpt lat="49.15773" lon="-0.00455">
        <ele>17.9</ele>
        <time>2023-10-15T09:10:40Z</time>
      </trkpt>
      <trkpt lat="49.15767" lon="-0.0046">
        <ele>18.2</ele>
        <time>2023-10-15T09:10:41Z</time>
      </trkpt>
      <trkpt lat="49.15763" lon="-0.00466">
        <ele>18.4</ele>
        <time>2023-10-15T09:10:42Z</time>
      </trkpt>
      <trkpt lat="49.15761" lon="-0.00474">
        <ele>18.5</ele>
        <time>2023-10-15T09:10:43Z</time>
      </trkpt>
      <trkpt lat="49.15762" lon="-0.00484">
        <ele>18.3</ele>
        <time>2023-10-15T09:10:44Z</time>
      </trkpt>
      <trkpt lat="49.15766" lon="-0.00493">
        <ele>18</ele>
        <time>2023-10-15T09:10:45Z</time>
      </trkpt>
      <trkpt lat="49.1577" lon="-0.00502">
        <ele>17.8</ele>
        <time>2023-10-15T09:10:46Z</time>
      </trkpt>
      <trkpt lat="49.15774" lon="-0.00511">
        <ele>17.5</ele>
        <time>2023-10-15T09:10:47Z</time>
      </trkpt>
      <trkpt lat="49.15778" lon="-0.00521">
        <ele>17.3</ele>
        <time>2023-10-15T09:10:48Z</time>
      </trkpt>
      <trkpt lat="49.15782" lon="-0.00532">
        <ele>17.1</ele>
        <time>2023-10-15T09:10:49Z</time>
      </trkpt>
      <trkpt lat="49.15787" lon="-0.00544">
        <ele>16.8</ele>
        <time>2023-10-15T09:10:50Z</time>
      </trkpt>
      <trkpt lat="49.15791" lon="-0.00556">
        <ele>16.7</ele>
        <time>2023-10-15T09:10:51Z</time>
      </trkpt>
      <trkpt lat="49.15794" lon="-0.00568">
        <ele>16.5</ele>
        <time>2023-10-15T09:10:52Z</time>
      </trkpt>
      <trkpt lat="49.15798" lon="-0.00581">
        <ele>16.3</ele>
        <time>2023-10-15T09:10:53Z</time>
      </trkpt>
      <trkpt lat="49.15803" lon="-0.00595">
        <ele>16.1</ele>
        <time>2023-10-15T09:10:54Z</time>
      </trkpt>
      <trkpt lat="49.15807" lon="-0.00609">
        <ele>15.9</ele>
        <time>2023-10-15T09:10:55Z</time>
      </trkpt>
      <trkpt lat="49.15811" lon="-0.00622">
        <ele>15.7</ele>
        <time>2023-10-15T09:10:56Z</time>
      </trkpt>
      <trkpt lat="49.15815" lon="-0.00636">
        <ele>15.4</ele>
        <time>2023-10-15T09:10:57Z</time>
      </trkpt>
      <trkpt lat="49.1582" lon="-0.0065">
        <ele>15.2</ele>
        <time>2023-10-15T09:10:58Z</time>
      </trkpt>
      <trkpt lat="49.15825" lon="-0.00663">
        <ele>14.9</ele>
        <time>2023-10-15T09:10:59Z</time>
      </trkpt>
      <trkpt lat="49.15831" lon="-0.00677">
        <ele>14.6</ele>
        <time>2023-10-15T09:11:00Z</time>
      </trkpt>
      <trkpt lat="49.15838" lon="-0.0069">
        <ele>14.3</ele>
        <time>2023-10-15T09:11:01Z</time>
      </trkpt>
      <trkpt lat="49.15845" lon="-0.00703">
        <ele>14</ele>
        <time>2023-10-15T09:11:02Z</time>
      </trkpt>
      <trkpt lat="49.15852" lon="-0.00717">
        <ele>13.8</ele>
        <time>2023-10-15T09:11:03Z</time>
      </trkpt>
      <trkpt lat="49.15859" lon="-0.0073">
        <ele>13.6</ele>
        <time>2023-10-15T09:11:04Z</time>
      </trkpt>
      <trkpt lat="49.15866" lon="-0.00744">
        <ele>13.4</ele>
        <time>2023-10-15T09:11:05Z</time>
      </trkpt>
      <trkpt lat="49.15874" lon="-0.00758">
        <ele>13.2</ele>
        <time>2023-10-15T09:11:06Z</time>
      </trkpt>
      <trkpt lat="49.15881" lon="-0.00772">
        <ele>13</ele>
        <time>2023-10-15T09:11:07Z</time>
      </trkpt>
      <trkpt lat="49.15888" lon="-0.00787">
        <ele>12.8</ele>
        <time>2023-10-15T09:11:08Z</time>
      </trkpt>
      <trkpt lat="49.15896" lon="-0.008">
        <ele>12.6</ele>
        <time>2023-10-15T09:11:09Z</time>
      </trkpt>
      <trkpt lat="49.15903" lon="-0.00814">
        <ele>12.5</ele>
        <time>2023-10-15T09:11:10Z</time>
      </trkpt>
      <trkpt lat="49.15911" lon="-0.00828">
        <ele>12.3</ele>
        <time>2023-10-15T09:11:11Z</time>
      </trkpt>
      <trkpt lat="49.15919" lon="-0.00841">
        <ele>12.1</ele>
        <time>2023-10-15T09:11:12Z</time>
      </trkpt>
      <trkpt lat="49.15928" lon="-0.00852">
        <ele>12</ele>
        <time>2023-10-15T09:11:13Z</time>
      </trkpt>
      <trkpt lat="49.15937" lon="-0.00862">
        <ele>11.9</ele>
        <time>2023-10-15T09:11:14Z</time>
      </trkpt>
      <trkpt lat="49.15947" lon="-0.00871">
        <ele>11.8</ele>
        <time>2023-10-15T09:11:15Z</time>
      </trkpt>
      <trkpt lat="49.15956" lon="-0.00882">
        <ele>11.7</ele>
        <time>2023-10-15T09:11:16Z</time>
      </trkpt>
      <trkpt lat="49.15962" lon="-0.00895">
        <ele>11.5</ele>
        <time>2023-10-15T09:11:17Z</time>
      </trkpt>
      <trkpt lat="49.15966" lon="-0.00909">
        <ele>11.3</ele>
        <time>2023-10-15T09:11:18Z</time>
      </trkpt>
      <trkpt lat="49.15969" lon="-0.00926">
        <ele>11.2</ele>
        <time>2023-10-15T09:11:19Z</time>
      </trkpt>
      <trkpt lat="49.1597" lon="-0.00943">
        <ele>11.2</ele>
        <time>2023-10-15T09:11:20Z</time>
      </trkpt>
      <trkpt lat="49.1597" lon="-0.00961">
        <ele>11.1</ele>
        <time>2023-10-15T09:11:21Z</time>
      </trkpt>
      <trkpt lat="49.15969" lon="-0.00977">
        <ele>11.1</ele>
        <time>2023-10-15T09:11:22Z</time>
      </trkpt>
      <trkpt lat="49.15969" lon="-0.00994">
        <ele>11</ele>
        <time>2023-10-15T09:11:23Z</time>
      </trkpt>
      <trkpt lat="49.15969" lon="-0.0101">
        <ele>10.9</ele>
        <time>2023-10-15T09:11:24Z</time>
      </trkpt>
      <trkpt lat="49.15969" lon="-0.01028">
        <ele>10.8</ele>
        <time>2023-10-15T09:11:25Z</time>
      </trkpt>
      <trkpt lat="49.1597" lon="-0.01045">
        <ele>10.7</ele>
        <time>2023-10-15T09:11:26Z</time>
      </trkpt>
      <trkpt lat="49.15973" lon="-0.01062">
        <ele>10.7</ele>
        <time>2023-10-15T09:11:27Z</time>
      </trkpt>
      <trkpt lat="49.15977" lon="-0.01079">
        <ele>10.7</ele>
        <time>2023-10-15T09:11:28Z</time>
      </trkpt>
      <trkpt lat="49.15981" lon="-0.01095">
        <ele>10.6</ele>
        <time>2023-10-15T09:11:29Z</time>
      </trkpt>
      <trkpt lat="49.15986" lon="-0.0111">
        <ele>10.6</ele>
        <time>2023-10-15T09:11:30Z</time>
      </trkpt>
      <trkpt lat="49.15992" lon="-0.01124">
        <ele>10.6</ele>
        <time>2023-10-15T09:11:31Z</time>
      </trkpt>
      <trkpt lat="49.15997" lon="-0.01139">
        <ele>10.5</ele>
        <time>2023-10-15T09:11:32Z</time>
      </trkpt>
      <trkpt lat="49.16002" lon="-0.01153">
        <ele>10.4</ele>
        <time>2023-10-15T09:11:33Z</time>
      </trkpt>
      <trkpt lat="49.16006" lon="-0.01167">
        <ele>10.4</ele>
        <time>2023-10-15T09:11:34Z</time>
      </trkpt>
      <trkpt lat="49.16011" lon="-0.0118">
        <ele>10.4</ele>
        <time>2023-10-15T09:11:35Z</time>
      </trkpt>
      <trkpt lat="49.16016" lon="-0.01193">
        <ele>10.4</ele>
        <time>2023-10-15T09:11:36Z</time>
      </trkpt>
      <trkpt lat="49.16022" lon="-0.01204">
        <ele>10.3</ele>
        <time>2023-10-15T09:11:37Z</time>
      </trkpt>
      <trkpt lat="49.16029" lon="-0.01215">
        <ele>10.2</ele>
        <time>2023-10-15T09:11:38Z</time>
      </trkpt>
      <trkpt lat="49.16037" lon="-0.01223">
        <ele>10.2</ele>
        <time>2023-10-15T09:11:39Z</time>
      </trkpt>
      <trkpt lat="49.16046" lon="-0.01231">
        <ele>10.2</ele>
        <time>2023-10-15T09:11:40Z</time>
      </trkpt>
      <trkpt lat="49.16056" lon="-0.01236">
        <ele>10.2</ele>
        <time>2023-10-15T09:11:41Z</time>
      </trkpt>
      <trkpt lat="49.16065" lon="-0.0124">
        <ele>10.1</ele>
        <time>2023-10-15T09:11:42Z</time>
      </trkpt>
      <trkpt lat="49.16075" lon="-0.01244">
        <ele>10.1</ele>
        <time>2023-10-15T09:11:43Z</time>
      </trkpt>
      <trkpt lat="49.16085" lon="-0.01247">
        <ele>10.1</ele>
        <time>2023-10-15T09:11:44Z</time>
      </trkpt>
      <trkpt lat="49.16095" lon="-0.01251">
        <ele>10.1</ele>
        <time>2023-10-15T09:11:45Z</time>
      </trkpt>
      <trkpt lat="49.16104" lon="-0.01255">
        <ele>10.1</ele>
        <time>2023-10-15T09:11:46Z</time>
      </trkpt>
      <trkpt lat="49.16114" lon="-0.01259">
        <ele>10.1</ele>
        <time>2023-10-15T09:11:47Z</time>
      </trkpt>
      <trkpt lat="49.16124" lon="-0.01263">
        <ele>10.1</ele>
        <time>2023-10-15T09:11:48Z</time>
      </trkpt>
      <trkpt lat="49.16133" lon="-0.01268">
        <ele>10.1</ele>
        <time>2023-10-15T09:11:49Z</time>
      </trkpt>
      <trkpt lat="49.16143" lon="-0.01272">
        <ele>10.1</ele>
        <time>2023-10-15T09:11:50Z</time>
      </trkpt>
      <trkpt lat="49.16152" lon="-0.01277">
        <ele>10.1</ele>
        <time>2023-10-15T09:11:51Z</time>
      </trkpt>
      <trkpt lat="49.16162" lon="-0.01281">
        <ele>10.1</ele>
        <time>2023-10-15T09:11:52Z</time>
      </trkpt>
      <trkpt lat="49.16172" lon="-0.01285">
        <ele>10.1</ele>
        <time>2023-10-15T09:11:53Z</time>
      </trkpt>
      <trkpt lat="49.16181" lon="-0.01288">
        <ele>10.1</ele>
        <time>2023-10-15T09:11:54Z</time>
      </trkpt>
      <trkpt lat="49.16191" lon="-0.01293">
        <ele>10</ele>
        <time>2023-10-15T09:11:55Z</time>
      </trkpt>
      <trkpt lat="49.162" lon="-0.01297">
        <ele>10</ele>
        <time>2023-10-15T09:11:56Z</time>
      </trkpt>
      <trkpt lat="49.1621" lon="-0.01301">
        <ele>10</ele>
        <time>2023-10-15T09:11:57Z</time>
      </trkpt>
      <trkpt lat="49.1622" lon="-0.01305">
        <ele>10</ele>
        <time>2023-10-15T09:11:58Z</time>
      </trkpt>
      <trkpt lat="49.1623" lon="-0.0131">
        <ele>10</ele>
        <time>2023-10-15T09:11:59Z</time>
      </trkpt>
      <trkpt lat="49.1624" lon="-0.01314">
        <ele>10</ele>
        <time>2023-10-15T09:12:00Z</time>
      </trkpt>
      <trkpt lat="49.1625" lon="-0.01318">
        <ele>10</ele>
        <time>2023-10-15T09:12:01Z</time>
      </trkpt>
      <trkpt lat="49.1626" lon="-0.01322">
        <ele>10</ele>
        <time>2023-10-15T09:12:02Z</time>
      </trkpt>
      <trkpt lat="49.1627" lon="-0.01327">
        <ele>10</ele>
        <time>2023-10-15T09:12:03Z</time>
      </trkpt>
      <trkpt lat="49.16279" lon="-0.01331">
        <ele>10</ele>
        <time>2023-10-15T09:12:04Z</time>
      </trkpt>
      <trkpt lat="49.16289" lon="-0.01336">
        <ele>9.9</ele>
        <time>2023-10-15T09:12:05Z</time>
      </trkpt>
      <trkpt lat="49.16299" lon="-0.0134">
        <ele>9.9</ele>
        <time>2023-10-15T09:12:06Z</time>
      </trkpt>
      <trkpt lat="49.16308" lon="-0.01345">
        <ele>9.9</ele>
        <time>2023-10-15T09:12:07Z</time>
      </trkpt>
      <trkpt lat="49.16317" lon="-0.01352">
        <ele>9.9</ele>
        <time>2023-10-15T09:12:08Z</time>
      </trkpt>
      <trkpt lat="49.16324" lon="-0.01361">
        <ele>9.9</ele>
        <time>2023-10-15T09:12:09Z</time>
      </trkpt>
      <trkpt lat="49.1633" lon="-0.01373">
        <ele>9.9</ele>
        <time>2023-10-15T09:12:10Z</time>
      </trkpt>
      <trkpt lat="49.16334" lon="-0.01386">
        <ele>9.9</ele>
        <time>2023-10-15T09:12:11Z</time>
      </trkpt>
      <trkpt lat="49.16337" lon="-0.01402">
        <ele>9.8</ele>
        <time>2023-10-15T09:12:12Z</time>
      </trkpt>
      <trkpt lat="49.16338" lon="-0.01416">
        <ele>9.8</ele>
        <time>2023-10-15T09:12:13Z</time>
      </trkpt>
      <trkpt lat="49.16337" lon="-0.01432">
        <ele>9.7</ele>
        <time>2023-10-15T09:12:14Z</time>
      </trkpt>
      <trkpt lat="49.16335" lon="-0.01447">
        <ele>9.7</ele>
        <time>2023-10-15T09:12:15Z</time>
      </trkpt>
      <trkpt lat="49.16332" lon="-0.01463">
        <ele>9.7</ele>
        <time>2023-10-15T09:12:16Z</time>
      </trkpt>
      <trkpt lat="49.1633" lon="-0.01477">
        <ele>9.8</ele>
        <time>2023-10-15T09:12:17Z</time>
      </trkpt>
      <trkpt lat="49.16328" lon="-0.01492">
        <ele>9.9</ele>
        <time>2023-10-15T09:12:18Z</time>
      </trkpt>
      <trkpt lat="49.16327" lon="-0.01507">
        <ele>10</ele>
        <time>2023-10-15T09:12:19Z</time>
      </trkpt>
      <trkpt lat="49.16327" lon="-0.01523">
        <ele>10.1</ele>
        <time>2023-10-15T09:12:20Z</time>
      </trkpt>
      <trkpt lat="49.16328" lon="-0.01538">
        <ele>10.1</ele>
        <time>2023-10-15T09:12:21Z</time>
      </trkpt>
      <trkpt lat="49.16332" lon="-0.01552">
        <ele>10.1</ele>
        <time>2023-10-15T09:12:22Z</time>
      </trkpt>
      <trkpt lat="49.16337" lon="-0.01565">
        <ele>10.2</ele>
        <time>2023-10-15T09:12:23Z</time>
      </trkpt>
      <trkpt lat="49.16343" lon="-0.01578">
        <ele>10.3</ele>
        <time>2023-10-15T09:12:24Z</time>
      </trkpt>
      <trkpt lat="49.16349" lon="-0.01589">
        <ele>10.3</ele>
        <time>2023-10-15T09:12:25Z</time>
      </trkpt>
      <trkpt lat="49.16355" lon="-0.01599">
        <ele>10.4</ele>
        <time>2023-10-15T09:12:26Z</time>
      </trkpt>
      <trkpt lat="49.16361" lon="-0.01609">
        <ele>10.4</ele>
        <time>2023-10-15T09:12:27Z</time>
      </trkpt>
      <trkpt lat="49.16366" lon="-0.0162">
        <ele>10.4</ele>
        <time>2023-10-15T09:12:28Z</time>
      </trkpt>
      <trkpt lat="49.16371" lon="-0.0163">
        <ele>10.4</ele>
        <time>2023-10-15T09:12:29Z</time>
      </trkpt>
      <trkpt lat="49.16377" lon="-0.0164">
        <ele>10.4</ele>
        <time>2023-10-15T09:12:30Z</time>
      </trkpt>
      <trkpt lat="49.16382" lon="-0.0165">
        <ele>10.3</ele>
        <time>2023-10-15T09:12:31Z</time>
      </trkpt>
      <trkpt lat="49.16388" lon="-0.01661">
        <ele>10.1</ele>
        <time>2023-10-15T09:12:32Z</time>
      </trkpt>
      <trkpt lat="49.16395" lon="-0.01672">
        <ele>9.9</ele>
        <time>2023-10-15T09:12:33Z</time>
      </trkpt>
      <trkpt lat="49.16401" lon="-0.01683">
        <ele>9.7</ele>
        <time>2023-10-15T09:12:34Z</time>
      </trkpt>
      <trkpt lat="49.16408" lon="-0.01694">
        <ele>9.6</ele>
        <time>2023-10-15T09:12:35Z</time>
      </trkpt>
      <trkpt lat="49.16416" lon="-0.01704">
        <ele>9.5</ele>
        <time>2023-10-15T09:12:36Z</time>
      </trkpt>
      <trkpt lat="49.16424" lon="-0.01713">
        <ele>9.4</ele>
        <time>2023-10-15T09:12:37Z</time>
      </trkpt>
      <trkpt lat="49.16433" lon="-0.0172">
        <ele>9.4</ele>
        <time>2023-10-15T09:12:38Z</time>
      </trkpt>
      <trkpt lat="49.16443" lon="-0.01726">
        <ele>9.3</ele>
        <time>2023-10-15T09:12:39Z</time>
      </trkpt>
      <trkpt lat="49.16453" lon="-0.01732">
        <ele>9.3</ele>
        <time>2023-10-15T09:12:40Z</time>
      </trkpt>
      <trkpt lat="49.16463" lon="-0.01737">
        <ele>9.3</ele>
        <time>2023-10-15T09:12:41Z</time>
      </trkpt>
      <trkpt lat="49.16473" lon="-0.01743">
        <ele>9.3</ele>
        <time>2023-10-15T09:12:42Z</time>
      </trkpt>
      <trkpt lat="49.16483" lon="-0.01748">
        <ele>9.3</ele>
        <time>2023-10-15T09:12:43Z</time>
      </trkpt>
      <trkpt lat="49.16493" lon="-0.01754">
        <ele>9.3</ele>
        <time>2023-10-15T09:12:44Z</time>
      </trkpt>
      <trkpt lat="49.16503" lon="-0.01761">
        <ele>9.3</ele>
        <time>2023-10-15T09:12:45Z</time>
      </trkpt>
      <trkpt lat="49.16511" lon="-0.01769">
        <ele>9.4</ele>
        <time>2023-10-15T09:12:46Z</time>
      </trkpt>
      <trkpt lat="49.1652" lon="-0.01778">
        <ele>9.4</ele>
        <time>2023-10-15T09:12:47Z</time>
      </trkpt>
      <trkpt lat="49.16528" lon="-0.01788">
        <ele>9.4</ele>
        <time>2023-10-15T09:12:48Z</time>
      </trkpt>
      <trkpt lat="49.16535" lon="-0.01799">
        <ele>9.4</ele>
        <time>2023-10-15T09:12:49Z</time>
      </trkpt>
      <trkpt lat="49.16542" lon="-0.01812">
        <ele>9.4</ele>
        <time>2023-10-15T09:12:50Z</time>
      </trkpt>
      <trkpt lat="49.16548" lon="-0.01825">
        <ele>9.4</ele>
        <time>2023-10-15T09:12:51Z</time>
      </trkpt>
      <trkpt lat="49.16555" lon="-0.01838">
        <ele>9.3</ele>
        <time>2023-10-15T09:12:52Z</time>
      </trkpt>
      <trkpt lat="49.1656" lon="-0.01852">
        <ele>9.3</ele>
        <time>2023-10-15T09:12:53Z</time>
      </trkpt>
      <trkpt lat="49.16565" lon="-0.01867">
        <ele>9.3</ele>
        <time>2023-10-15T09:12:54Z</time>
      </trkpt>
      <trkpt lat="49.16569" lon="-0.01882">
        <ele>9.4</ele>
        <time>2023-10-15T09:12:55Z</time>
      </trkpt>
      <trkpt lat="49.16573" lon="-0.01897">
        <ele>9.4</ele>
        <time>2023-10-15T09:12:56Z</time>
      </trkpt>
      <trkpt lat="49.16577" lon="-0.01912">
        <ele>9.4</ele>
        <time>2023-10-15T09:12:57Z</time>
      </trkpt>
      <trkpt lat="49.16581" lon="-0.01926">
        <ele>9.3</ele>
        <time>2023-10-15T09:12:58Z</time>
      </trkpt>
      <trkpt lat="49.16585" lon="-0.01941">
        <ele>9.3</ele>
        <time>2023-10-15T09:12:59Z</time>
      </trkpt>
      <trkpt lat="49.16588" lon="-0.01955">
        <ele>9.2</ele>
        <time>2023-10-15T09:13:00Z</time>
      </trkpt>
      <trkpt lat="49.16592" lon="-0.01969">
        <ele>9.2</ele>
        <time>2023-10-15T09:13:01Z</time>
      </trkpt>
      <trkpt lat="49.16595" lon="-0.01984">
        <ele>9.1</ele>
        <time>2023-10-15T09:13:02Z</time>
      </trkpt>
      <trkpt lat="49.16598" lon="-0.01998">
        <ele>9.1</ele>
        <time>2023-10-15T09:13:03Z</time>
      </trkpt>
      <trkpt lat="49.16602" lon="-0.02013">
        <ele>9</ele>
        <time>2023-10-15T09:13:04Z</time>
      </trkpt>
      <trkpt lat="49.16606" lon="-0.02027">
        <ele>9</ele>
        <time>2023-10-15T09:13:05Z</time>
      </trkpt>
      <trkpt lat="49.1661" lon="-0.02041">
        <ele>8.9</ele>
        <time>2023-10-15T09:13:06Z</time>
      </trkpt>
      <trkpt lat="49.16613" lon="-0.02056">
        <ele>8.9</ele>
        <time>2023-10-15T09:13:07Z</time>
      </trkpt>
      <trkpt lat="49.16617" lon="-0.0207">
        <ele>8.8</ele>
        <time>2023-10-15T09:13:08Z</time>
      </trkpt>
      <trkpt lat="49.16621" lon="-0.02084">
        <ele>8.8</ele>
        <time>2023-10-15T09:13:09Z</time>
      </trkpt>
      <trkpt lat="49.16625" lon="-0.02099">
        <ele>8.7</ele>
        <time>2023-10-15T09:13:10Z</time>
      </trkpt>
      <trkpt lat="49.16629" lon="-0.02112">
        <ele>8.7</ele>
        <time>2023-10-15T09:13:11Z</time>
      </trkpt>
      <trkpt lat="49.16633" lon="-0.02126">
        <ele>8.7</ele>
        <time>2023-10-15T09:13:12Z</time>
      </trkpt>
      <trkpt lat="49.16637" lon="-0.0214">
        <ele>8.6</ele>
        <time>2023-10-15T09:13:13Z</time>
      </trkpt>
      <trkpt lat="49.16642" lon="-0.02153">
        <ele>8.6</ele>
        <time>2023-10-15T09:13:14Z</time>
      </trkpt>
      <trkpt lat="49.16646" lon="-0.02167">
        <ele>8.5</ele>
        <time>2023-10-15T09:13:15Z</time>
      </trkpt>
      <trkpt lat="49.16651" lon="-0.0218">
        <ele>8.5</ele>
        <time>2023-10-15T09:13:16Z</time>
      </trkpt>
      <trkpt lat="49.16656" lon="-0.02193">
        <ele>8.5</ele>
        <time>2023-10-15T09:13:17Z</time>
      </trkpt>
      <trkpt lat="49.16661" lon="-0.02205">
        <ele>8.4</ele>
        <time>2023-10-15T09:13:18Z</time>
      </trkpt>
      <trkpt lat="49.16666" lon="-0.02217">
        <ele>8.4</ele>
        <time>2023-10-15T09:13:19Z</time>
      </trkpt>
      <trkpt lat="49.16671" lon="-0.0223">
        <ele>8.4</ele>
        <time>2023-10-15T09:13:20Z</time>
      </trkpt>
      <trkpt lat="49.16677" lon="-0.02242">
        <ele>8.4</ele>
        <time>2023-10-15T09:13:21Z</time>
      </trkpt>
      <trkpt lat="49.16682" lon="-0.02254">
        <ele>8.4</ele>
        <time>2023-10-15T09:13:22Z</time>
      </trkpt>
      <trkpt lat="49.16688" lon="-0.02267">
        <ele>8.4</ele>
        <time>2023-10-15T09:13:23Z</time>
      </trkpt>
      <trkpt lat="49.16693" lon="-0.02279">
        <ele>8.4</ele>
        <time>2023-10-15T09:13:24Z</time>
      </trkpt>
      <trkpt lat="49.16698" lon="-0.02291">
        <ele>8.4</ele>
        <time>2023-10-15T09:13:25Z</time>
      </trkpt>
      <trkpt lat="49.16704" lon="-0.02304">
        <ele>8.4</ele>
        <time>2023-10-15T09:13:26Z</time>
      </trkpt>
      <trkpt lat="49.16709" lon="-0.02316">
        <ele>8.4</ele>
        <time>2023-10-15T09:13:27Z</time>
      </trkpt>
      <trkpt lat="49.16714" lon="-0.02329">
        <ele>8.4</ele>
        <time>2023-10-15T09:13:28Z</time>
      </trkpt>
      <trkpt lat="49.1672" lon="-0.02341">
        <ele>8.5</ele>
        <time>2023-10-15T09:13:29Z</time>
      </trkpt>
      <trkpt lat="49.16725" lon="-0.02353">
        <ele>8.6</ele>
        <time>2023-10-15T09:13:30Z</time>
      </trkpt>
      <trkpt lat="49.16731" lon="-0.02365">
        <ele>8.7</ele>
        <time>2023-10-15T09:13:31Z</time>
      </trkpt>
      <trkpt lat="49.16736" lon="-0.02376">
        <ele>8.9</ele>
        <time>2023-10-15T09:13:32Z</time>
      </trkpt>
      <trkpt lat="49.16741" lon="-0.02388">
        <ele>9</ele>
        <time>2023-10-15T09:13:33Z</time>
      </trkpt>
      <trkpt lat="49.16746" lon="-0.024">
        <ele>9.1</ele>
        <time>2023-10-15T09:13:34Z</time>
      </trkpt>
      <trkpt lat="49.16752" lon="-0.02411">
        <ele>9.3</ele>
        <time>2023-10-15T09:13:35Z</time>
      </trkpt>
      <trkpt lat="49.16756" lon="-0.02422">
        <ele>9.4</ele>
        <time>2023-10-15T09:13:36Z</time>
      </trkpt>
      <trkpt lat="49.16761" lon="-0.02434">
        <ele>9.6</ele>
        <time>2023-10-15T09:13:37Z</time>
      </trkpt>
      <trkpt lat="49.16766" lon="-0.02445">
        <ele>9.7</ele>
        <time>2023-10-15T09:13:38Z</time>
      </trkpt>
      <trkpt lat="49.16771" lon="-0.02457">
        <ele>9.8</ele>
        <time>2023-10-15T09:13:39Z</time>
      </trkpt>
      <trkpt lat="49.16776" lon="-0.02467">
        <ele>10</ele>
        <time>2023-10-15T09:13:40Z</time>
      </trkpt>
      <trkpt lat="49.16781" lon="-0.02478">
        <ele>10.1</ele>
        <time>2023-10-15T09:13:41Z</time>
      </trkpt>
      <trkpt lat="49.16785" lon="-0.02489">
        <ele>10.3</ele>
        <time>2023-10-15T09:13:42Z</time>
      </trkpt>
      <trkpt lat="49.1679" lon="-0.025">
        <ele>10.5</ele>
        <time>2023-10-15T09:13:43Z</time>
      </trkpt>
      <trkpt lat="49.16795" lon="-0.02511">
        <ele>10.7</ele>
        <time>2023-10-15T09:13:44Z</time>
      </trkpt>
      <trkpt lat="49.168" lon="-0.02522">
        <ele>10.9</ele>
        <time>2023-10-15T09:13:45Z</time>
      </trkpt>
      <trkpt lat="49.16804" lon="-0.02533">
        <ele>11.1</ele>
        <time>2023-10-15T09:13:46Z</time>
      </trkpt>
      <trkpt lat="49.16809" lon="-0.02543">
        <ele>11.3</ele>
        <time>2023-10-15T09:13:47Z</time>
      </trkpt>
      <trkpt lat="49.16813" lon="-0.02554">
        <ele>11.6</ele>
        <time>2023-10-15T09:13:48Z</time>
      </trkpt>
      <trkpt lat="49.16819" lon="-0.02564">
        <ele>11.8</ele>
        <time>2023-10-15T09:13:49Z</time>
      </trkpt>
      <trkpt lat="49.16823" lon="-0.02574">
        <ele>12</ele>
        <time>2023-10-15T09:13:50Z</time>
      </trkpt>
      <trkpt lat="49.16828" lon="-0.02585">
        <ele>12.2</ele>
        <time>2023-10-15T09:13:51Z</time>
      </trkpt>
      <trkpt lat="49.16832" lon="-0.02596">
        <ele>12.4</ele>
        <time>2023-10-15T09:13:52Z</time>
      </trkpt>
      <trkpt lat="49.16837" lon="-0.02607">
        <ele>12.5</ele>
        <time>2023-10-15T09:13:53Z</time>
      </trkpt>
      <trkpt lat="49.16842" lon="-0.02618">
        <ele>12.7</ele>
        <time>2023-10-15T09:13:54Z</time>
      </trkpt>
      <trkpt lat="49.16846" lon="-0.0263">
        <ele>12.9</ele>
        <time>2023-10-15T09:13:55Z</time>
      </trkpt>
      <trkpt lat="49.16851" lon="-0.02641">
        <ele>13.1</ele>
        <time>2023-10-15T09:13:56Z</time>
      </trkpt>
      <trkpt lat="49.16855" lon="-0.02652">
        <ele>13.4</ele>
        <time>2023-10-15T09:13:57Z</time>
      </trkpt>
      <trkpt lat="49.1686" lon="-0.02663">
        <ele>13.6</ele>
        <time>2023-10-15T09:13:58Z</time>
      </trkpt>
      <trkpt lat="49.16865" lon="-0.02673">
        <ele>13.8</ele>
        <time>2023-10-15T09:13:59Z</time>
      </trkpt>
      <trkpt lat="49.1687" lon="-0.02684">
        <ele>13.9</ele>
        <time>2023-10-15T09:14:00Z</time>
      </trkpt>
      <trkpt lat="49.16875" lon="-0.02695">
        <ele>14.1</ele>
        <time>2023-10-15T09:14:01Z</time>
      </trkpt>
      <trkpt lat="49.1688" lon="-0.02706">
        <ele>14.3</ele>
        <time>2023-10-15T09:14:02Z</time>
      </trkpt>
      <trkpt lat="49.16886" lon="-0.02717">
        <ele>14.5</ele>
        <time>2023-10-15T09:14:03Z</time>
      </trkpt>
      <trkpt lat="49.16891" lon="-0.02728">
        <ele>14.7</ele>
        <time>2023-10-15T09:14:04Z</time>
      </trkpt>
      <trkpt lat="49.16896" lon="-0.02739">
        <ele>14.9</ele>
        <time>2023-10-15T09:14:05Z</time>
      </trkpt>
      <trkpt lat="49.16901" lon="-0.0275">
        <ele>15.1</ele>
        <time>2023-10-15T09:14:06Z</time>
      </trkpt>
      <trkpt lat="49.16906" lon="-0.02762">
        <ele>15.3</ele>
        <time>2023-10-15T09:14:07Z</time>
      </trkpt>
      <trkpt lat="49.16911" lon="-0.02774">
        <ele>15.5</ele>
        <time>2023-10-15T09:14:08Z</time>
      </trkpt>
      <trkpt lat="49.16916" lon="-0.02785">
        <ele>15.7</ele>
        <time>2023-10-15T09:14:09Z</time>
      </trkpt>
      <trkpt lat="49.16921" lon="-0.02796">
        <ele>15.9</ele>
        <time>2023-10-15T09:14:10Z</time>
      </trkpt>
      <trkpt lat="49.16926" lon="-0.02807">
        <ele>16</ele>
        <time>2023-10-15T09:14:11Z</time>
      </trkpt>
      <trkpt lat="49.16931" lon="-0.02818">
        <ele>16.2</ele>
        <time>2023-10-15T09:14:12Z</time>
      </trkpt>
      <trkpt lat="49.16936" lon="-0.02829">
        <ele>16.3</ele>
        <time>2023-10-15T09:14:13Z</time>
      </trkpt>
      <trkpt lat="49.16941" lon="-0.0284">
        <ele>16.4</ele>
        <time>2023-10-15T09:14:14Z</time>
      </trkpt>
      <trkpt lat="49.16946" lon="-0.0285">
        <ele>16.6</ele>
        <time>2023-10-15T09:14:15Z</time>
      </trkpt>
      <trkpt lat="49.1695" lon="-0.02861">
        <ele>16.7</ele>
        <time>2023-10-15T09:14:16Z</time>
      </trkpt>
      <trkpt lat="49.16955" lon="-0.02873">
        <ele>16.8</ele>
        <time>2023-10-15T09:14:17Z</time>
      </trkpt>
      <trkpt lat="49.16959" lon="-0.02885">
        <ele>17</ele>
        <time>2023-10-15T09:14:18Z</time>
      </trkpt>
      <trkpt lat="49.16962" lon="-0.02897">
        <ele>17</ele>
        <time>2023-10-15T09:14:19Z</time>
      </trkpt>
      <trkpt lat="49.16963" lon="-0.0291">
        <ele>17.1</ele>
        <time>2023-10-15T09:14:20Z</time>
      </trkpt>
      <trkpt lat="49.16964" lon="-0.02923">
        <ele>17.1</ele>
        <time>2023-10-15T09:14:21Z</time>
      </trkpt>
      <trkpt lat="49.16964" lon="-0.02937">
        <ele>17.1</ele>
        <time>2023-10-15T09:14:22Z</time>
      </trkpt>
      <trkpt lat="49.16964" lon="-0.0295">
        <ele>17.1</ele>
        <time>2023-10-15T09:14:23Z</time>
      </trkpt>
      <trkpt lat="49.16963" lon="-0.02962">
        <ele>17</ele>
        <time>2023-10-15T09:14:24Z</time>
      </trkpt>
      <trkpt lat="49.16961" lon="-0.02975">
        <ele>17</ele>
        <time>2023-10-15T09:14:25Z</time>
      </trkpt>
      <trkpt lat="49.16959" lon="-0.02988">
        <ele>17</ele>
        <time>2023-10-15T09:14:26Z</time>
      </trkpt>
      <trkpt lat="49.16957" lon="-0.03001">
        <ele>17</ele>
        <time>2023-10-15T09:14:27Z</time>
      </trkpt>
      <trkpt lat="49.16955" lon="-0.03014">
        <ele>16.9</ele>
        <time>2023-10-15T09:14:28Z</time>
      </trkpt>
      <trkpt lat="49.16952" lon="-0.03027">
        <ele>16.9</ele>
        <time>2023-10-15T09:14:29Z</time>
      </trkpt>
      <trkpt lat="49.16951" lon="-0.0304">
        <ele>17</ele>
        <time>2023-10-15T09:14:30Z</time>
      </trkpt>
      <trkpt lat="49.16949" lon="-0.03052">
        <ele>17</ele>
        <time>2023-10-15T09:14:31Z</time>
      </trkpt>
      <trkpt lat="49.16947" lon="-0.03065">
        <ele>17</ele>
        <time>2023-10-15T09:14:32Z</time>
      </trkpt>
      <trkpt lat="49.16945" lon="-0.03079">
        <ele>17</ele>
        <time>2023-10-15T09:14:33Z</time>
      </trkpt>
      <trkpt lat="49.16943" lon="-0.03092">
        <ele>17</ele>
        <time>2023-10-15T09:14:34Z</time>
      </trkpt>
      <trkpt lat="49.16942" lon="-0.03105">
        <ele>17</ele>
        <time>2023-10-15T09:14:35Z</time>
      </trkpt>
      <trkpt lat="49.16942" lon="-0.03118">
        <ele>17.1</ele>
        <time>2023-10-15T09:14:36Z</time>
      </trkpt>
      <trkpt lat="49.16944" lon="-0.03131">
        <ele>17.1</ele>
        <time>2023-10-15T09:14:37Z</time>
      </trkpt>
      <trkpt lat="49.16947" lon="-0.03143">
        <ele>17.2</ele>
        <time>2023-10-15T09:14:38Z</time>
      </trkpt>
      <trkpt lat="49.16952" lon="-0.03154">
        <ele>17.3</ele>
        <time>2023-10-15T09:14:39Z</time>
      </trkpt>
      <trkpt lat="49.16958" lon="-0.03163">
        <ele>17.4</ele>
        <time>2023-10-15T09:14:40Z</time>
      </trkpt>
      <trkpt lat="49.16964" lon="-0.03172">
        <ele>17.5</ele>
        <time>2023-10-15T09:14:41Z</time>
      </trkpt>
      <trkpt lat="49.1697" lon="-0.03179">
        <ele>17.6</ele>
        <time>2023-10-15T09:14:42Z</time>
      </trkpt>
      <trkpt lat="49.16977" lon="-0.03186">
        <ele>17.7</ele>
        <time>2023-10-15T09:14:43Z</time>
      </trkpt>
      <trkpt lat="49.16983" lon="-0.03193">
        <ele>17.8</ele>
        <time>2023-10-15T09:14:44Z</time>
      </trkpt>
      <trkpt lat="49.1699" lon="-0.03199">
        <ele>17.9</ele>
        <time>2023-10-15T09:14:45Z</time>
      </trkpt>
      <trkpt lat="49.16997" lon="-0.03205">
        <ele>17.9</ele>
        <time>2023-10-15T09:14:46Z</time>
      </trkpt>
      <trkpt lat="49.17004" lon="-0.03211">
        <ele>18</ele>
        <time>2023-10-15T09:14:47Z</time>
      </trkpt>
      <trkpt lat="49.1701" lon="-0.03217">
        <ele>18.1</ele>
        <time>2023-10-15T09:14:48Z</time>
      </trkpt>
      <trkpt lat="49.17017" lon="-0.03224">
        <ele>18.1</ele>
        <time>2023-10-15T09:14:49Z</time>
      </trkpt>
      <trkpt lat="49.17024" lon="-0.0323">
        <ele>18.2</ele>
        <time>2023-10-15T09:14:50Z</time>
      </trkpt>
      <trkpt lat="49.17031" lon="-0.03236">
        <ele>18.3</ele>
        <time>2023-10-15T09:14:51Z</time>
      </trkpt>
      <trkpt lat="49.17039" lon="-0.03242">
        <ele>18.4</ele>
        <time>2023-10-15T09:14:52Z</time>
      </trkpt>
      <trkpt lat="49.17046" lon="-0.03247">
        <ele>18.5</ele>
        <time>2023-10-15T09:14:53Z</time>
      </trkpt>
      <trkpt lat="49.17054" lon="-0.03252">
        <ele>18.6</ele>
        <time>2023-10-15T09:14:54Z</time>
      </trkpt>
      <trkpt lat="49.17062" lon="-0.03257">
        <ele>18.7</ele>
        <time>2023-10-15T09:14:55Z</time>
      </trkpt>
      <trkpt lat="49.17069" lon="-0.03261">
        <ele>18.7</ele>
        <time>2023-10-15T09:14:56Z</time>
      </trkpt>
      <trkpt lat="49.17077" lon="-0.03264">
        <ele>18.8</ele>
        <time>2023-10-15T09:14:57Z</time>
      </trkpt>
      <trkpt lat="49.17084" lon="-0.03267">
        <ele>18.8</ele>
        <time>2023-10-15T09:14:58Z</time>
      </trkpt>
      <trkpt lat="49.17092" lon="-0.0327">
        <ele>18.8</ele>
        <time>2023-10-15T09:14:59Z</time>
      </trkpt>
      <trkpt lat="49.17099" lon="-0.03273">
        <ele>18.9</ele>
        <time>2023-10-15T09:15:00Z</time>
      </trkpt>
      <trkpt lat="49.17107" lon="-0.03277">
        <ele>18.9</ele>
        <time>2023-10-15T09:15:01Z</time>
      </trkpt>
      <trkpt lat="49.17115" lon="-0.03281">
        <ele>18.9</ele>
        <time>2023-10-15T09:15:02Z</time>
      </trkpt>
      <trkpt lat="49.17123" lon="-0.03285">
        <ele>18.9</ele>
        <time>2023-10-15T09:15:03Z</time>
      </trkpt>
      <trkpt lat="49.1713" lon="-0.0329">
        <ele>18.9</ele>
        <time>2023-10-15T09:15:04Z</time>
      </trkpt>
      <trkpt lat="49.17137" lon="-0.03295">
        <ele>18.9</ele>
        <time>2023-10-15T09:15:05Z</time>
      </trkpt>
      <trkpt lat="49.17144" lon="-0.033">
        <ele>18.9</ele>
        <time>2023-10-15T09:15:06Z</time>
      </trkpt>
      <trkpt lat="49.17152" lon="-0.03305">
        <ele>18.9</ele>
        <time>2023-10-15T09:15:07Z</time>
      </trkpt>
      <trkpt lat="49.17159" lon="-0.0331">
        <ele>18.9</ele>
        <time>2023-10-15T09:15:08Z</time>
      </trkpt>
      <trkpt lat="49.17167" lon="-0.03314">
        <ele>18.9</ele>
        <time>2023-10-15T09:15:09Z</time>
      </trkpt>
      <trkpt lat="49.17174" lon="-0.03319">
        <ele>18.9</ele>
        <time>2023-10-15T09:15:10Z</time>
      </trkpt>
      <trkpt lat="49.17181" lon="-0.03323">
        <ele>18.9</ele>
        <time>2023-10-15T09:15:11Z</time>
      </trkpt>
      <trkpt lat="49.17189" lon="-0.03326">
        <ele>18.9</ele>
        <time>2023-10-15T09:15:12Z</time>
      </trkpt>
      <trkpt lat="49.17196" lon="-0.0333">
        <ele>18.9</ele>
        <time>2023-10-15T09:15:13Z</time>
      </trkpt>
      <trkpt lat="49.17204" lon="-0.03334">
        <ele>19</ele>
        <time>2023-10-15T09:15:14Z</time>
      </trkpt>
      <trkpt lat="49.17211" lon="-0.03337">
        <ele>19</ele>
        <time>2023-10-15T09:15:15Z</time>
      </trkpt>
      <trkpt lat="49.17219" lon="-0.03341">
        <ele>19</ele>
        <time>2023-10-15T09:15:16Z</time>
      </trkpt>
      <trkpt lat="49.17226" lon="-0.03346">
        <ele>19.1</ele>
        <time>2023-10-15T09:15:17Z</time>
      </trkpt>
      <trkpt lat="49.17233" lon="-0.03351">
        <ele>19.1</ele>
        <time>2023-10-15T09:15:18Z</time>
      </trkpt>
      <trkpt lat="49.1724" lon="-0.03357">
        <ele>19.1</ele>
        <time>2023-10-15T09:15:19Z</time>
      </trkpt>
      <trkpt lat="49.17247" lon="-0.03365">
        <ele>19.1</ele>
        <time>2023-10-15T09:15:20Z</time>
      </trkpt>
      <trkpt lat="49.17253" lon="-0.03372">
        <ele>19.2</ele>
        <time>2023-10-15T09:15:21Z</time>
      </trkpt>
      <trkpt lat="49.1726" lon="-0.0338">
        <ele>19.2</ele>
        <time>2023-10-15T09:15:22Z</time>
      </trkpt>
      <trkpt lat="49.17266" lon="-0.03389">
        <ele>19.3</ele>
        <time>2023-10-15T09:15:23Z</time>
      </trkpt>
      <trkpt lat="49.17272" lon="-0.03398">
        <ele>19.3</ele>
        <time>2023-10-15T09:15:24Z</time>
      </trkpt>
      <trkpt lat="49.17277" lon="-0.03407">
        <ele>19.4</ele>
        <time>2023-10-15T09:15:25Z</time>
      </trkpt>
      <trkpt lat="49.17282" lon="-0.03417">
        <ele>19.4</ele>
        <time>2023-10-15T09:15:26Z</time>
      </trkpt>
      <trkpt lat="49.17288" lon="-0.03426">
        <ele>19.5</ele>
        <time>2023-10-15T09:15:27Z</time>
      </trkpt>
      <trkpt lat="49.17293" lon="-0.03435">
        <ele>19.6</ele>
        <time>2023-10-15T09:15:28Z</time>
      </trkpt>
      <trkpt lat="49.17299" lon="-0.03445">
        <ele>19.7</ele>
        <time>2023-10-15T09:15:29Z</time>
      </trkpt>
      <trkpt lat="49.17304" lon="-0.03453">
        <ele>19.8</ele>
        <time>2023-10-15T09:15:30Z</time>
      </trkpt>
      <trkpt lat="49.1731" lon="-0.03462">
        <ele>19.9</ele>
        <time>2023-10-15T09:15:31Z</time>
      </trkpt>
      <trkpt lat="49.17316" lon="-0.0347">
        <ele>20</ele>
        <time>2023-10-15T09:15:32Z</time>
      </trkpt>
      <trkpt lat="49.17322" lon="-0.03478">
        <ele>20.1</ele>
        <time>2023-10-15T09:15:33Z</time>
      </trkpt>
      <trkpt lat="49.17329" lon="-0.03486">
        <ele>20.2</ele>
        <time>2023-10-15T09:15:34Z</time>
      </trkpt>
      <trkpt lat="49.17335" lon="-0.03495">
        <ele>20.3</ele>
        <time>2023-10-15T09:15:35Z</time>
      </trkpt>
      <trkpt lat="49.17341" lon="-0.03503">
        <ele>20.3</ele>
        <time>2023-10-15T09:15:36Z</time>
      </trkpt>
      <trkpt lat="49.17348" lon="-0.03512">
        <ele>20.4</ele>
        <time>2023-10-15T09:15:37Z</time>
      </trkpt>
      <trkpt lat="49.17354" lon="-0.03521">
        <ele>20.5</ele>
        <time>2023-10-15T09:15:38Z</time>
      </trkpt>
      <trkpt lat="49.17359" lon="-0.0353">
        <ele>20.5</ele>
        <time>2023-10-15T09:15:39Z</time>
      </trkpt>
      <trkpt lat="49.17364" lon="-0.03539">
        <ele>20.6</ele>
        <time>2023-10-15T09:15:40Z</time>
      </trkpt>
      <trkpt lat="49.17368" lon="-0.0355">
        <ele>20.7</ele>
        <time>2023-10-15T09:15:41Z</time>
      </trkpt>
      <trkpt lat="49.17372" lon="-0.03561">
        <ele>20.8</ele>
        <time>2023-10-15T09:15:42Z</time>
      </trkpt>
      <trkpt lat="49.17375" lon="-0.03573">
        <ele>20.9</ele>
        <time>2023-10-15T09:15:43Z</time>
      </trkpt>
      <trkpt lat="49.17378" lon="-0.03584">
        <ele>21</ele>
        <time>2023-10-15T09:15:44Z</time>
      </trkpt>
      <trkpt lat="49.17381" lon="-0.03596">
        <ele>21</ele>
        <time>2023-10-15T09:15:45Z</time>
      </trkpt>
      <trkpt lat="49.17383" lon="-0.03608">
        <ele>21.1</ele>
        <time>2023-10-15T09:15:46Z</time>
      </trkpt>
      <trkpt lat="49.17384" lon="-0.0362">
        <ele>21.2</ele>
        <time>2023-10-15T09:15:47Z</time>
      </trkpt>
      <trkpt lat="49.17386" lon="-0.03633">
        <ele>21.3</ele>
        <time>2023-10-15T09:15:48Z</time>
      </trkpt>
      <trkpt lat="49.17386" lon="-0.03645">
        <ele>21.4</ele>
        <time>2023-10-15T09:15:49Z</time>
      </trkpt>
      <trkpt lat="49.17387" lon="-0.03658">
        <ele>21.5</ele>
        <time>2023-10-15T09:15:50Z</time>
      </trkpt>
      <trkpt lat="49.17386" lon="-0.0367">
        <ele>21.6</ele>
        <time>2023-10-15T09:15:51Z</time>
      </trkpt>
      <trkpt lat="49.17385" lon="-0.03682">
        <ele>21.7</ele>
        <time>2023-10-15T09:15:52Z</time>
      </trkpt>
      <trkpt lat="49.17383" lon="-0.03695">
        <ele>21.8</ele>
        <time>2023-10-15T09:15:53Z</time>
      </trkpt>
      <trkpt lat="49.1738" lon="-0.03706">
        <ele>21.9</ele>
        <time>2023-10-15T09:15:54Z</time>
      </trkpt>
      <trkpt lat="49.17377" lon="-0.03717">
        <ele>22</ele>
        <time>2023-10-15T09:15:55Z</time>
      </trkpt>
      <trkpt lat="49.17373" lon="-0.03728">
        <ele>22.1</ele>
        <time>2023-10-15T09:15:56Z</time>
      </trkpt>
      <trkpt lat="49.17369" lon="-0.03738">
        <ele>22.2</ele>
        <time>2023-10-15T09:15:57Z</time>
      </trkpt>
      <trkpt lat="49.17365" lon="-0.03748">
        <ele>22.2</ele>
        <time>2023-10-15T09:15:58Z</time>
      </trkpt>
      <trkpt lat="49.17361" lon="-0.03758">
        <ele>22.3</ele>
        <time>2023-10-15T09:15:59Z</time>
      </trkpt>
      <trkpt lat="49.17357" lon="-0.03768">
        <ele>22.4</ele>
        <time>2023-10-15T09:16:00Z</time>
      </trkpt>
      <trkpt lat="49.17353" lon="-0.03778">
        <ele>22.5</ele>
        <time>2023-10-15T09:16:01Z</time>
      </trkpt>
      <trkpt lat="49.17349" lon="-0.03789">
        <ele>22.6</ele>
        <time>2023-10-15T09:16:02Z</time>
      </trkpt>
      <trkpt lat="49.17345" lon="-0.03799">
        <ele>22.7</ele>
        <time>2023-10-15T09:16:03Z</time>
      </trkpt>
      <trkpt lat="49.17341" lon="-0.03809">
        <ele>22.8</ele>
        <time>2023-10-15T09:16:04Z</time>
      </trkpt>
      <trkpt lat="49.17337" lon="-0.03819">
        <ele>22.9</ele>
        <time>2023-10-15T09:16:05Z</time>
      </trkpt>
      <trkpt lat="49.17334" lon="-0.03828">
        <ele>22.9</ele>
        <time>2023-10-15T09:16:06Z</time>
      </trkpt>
      <trkpt lat="49.17331" lon="-0.03838">
        <ele>23</ele>
        <time>2023-10-15T09:16:07Z</time>
      </trkpt>
      <trkpt lat="49.17328" lon="-0.03847">
        <ele>23</ele>
        <time>2023-10-15T09:16:08Z</time>
      </trkpt>
      <trkpt lat="49.17325" lon="-0.03857">
        <ele>23.1</ele>
        <time>2023-10-15T09:16:09Z</time>
      </trkpt>
      <trkpt lat="49.17322" lon="-0.03868">
        <ele>23.2</ele>
        <time>2023-10-15T09:16:10Z</time>
      </trkpt>
      <trkpt lat="49.17322" lon="-0.03879">
        <ele>23.3</ele>
        <time>2023-10-15T09:16:11Z</time>
      </trkpt>
      <trkpt lat="49.17323" lon="-0.0389">
        <ele>23.3</ele>
        <time>2023-10-15T09:16:12Z</time>
      </trkpt>
      <trkpt lat="49.17326" lon="-0.039">
        <ele>23</ele>
        <time>2023-10-15T09:16:13Z</time>
      </trkpt>
      <trkpt lat="49.17332" lon="-0.03909">
        <ele>22.7</ele>
        <time>2023-10-15T09:16:14Z</time>
      </trkpt>
      <trkpt lat="49.17338" lon="-0.03915">
        <ele>22.4</ele>
        <time>2023-10-15T09:16:15Z</time>
      </trkpt>
      <trkpt lat="49.17346" lon="-0.0392">
        <ele>22.1</ele>
        <time>2023-10-15T09:16:16Z</time>
      </trkpt>
      <trkpt lat="49.17353" lon="-0.03922">
        <ele>21.8</ele>
        <time>2023-10-15T09:16:17Z</time>
      </trkpt>
      <trkpt lat="49.17361" lon="-0.03925">
        <ele>21.5</ele>
        <time>2023-10-15T09:16:18Z</time>
      </trkpt>
      <trkpt lat="49.17371" lon="-0.03927">
        <ele>21.1</ele>
        <time>2023-10-15T09:16:19Z</time>
      </trkpt>
      <trkpt lat="49.1738" lon="-0.03929">
        <ele>20.8</ele>
        <time>2023-10-15T09:16:20Z</time>
      </trkpt>
      <trkpt lat="49.17389" lon="-0.03932">
        <ele>20.5</ele>
        <time>2023-10-15T09:16:21Z</time>
      </trkpt>
      <trkpt lat="49.17398" lon="-0.03935">
        <ele>20.2</ele>
        <time>2023-10-15T09:16:22Z</time>
      </trkpt>
      <trkpt lat="49.17407" lon="-0.03939">
        <ele>19.9</ele>
        <time>2023-10-15T09:16:23Z</time>
      </trkpt>
      <trkpt lat="49.17416" lon="-0.03942">
        <ele>19.6</ele>
        <time>2023-10-15T09:16:24Z</time>
      </trkpt>
      <trkpt lat="49.17425" lon="-0.03944">
        <ele>19.4</ele>
        <time>2023-10-15T09:16:25Z</time>
      </trkpt>
      <trkpt lat="49.17434" lon="-0.03947">
        <ele>19.2</ele>
        <time>2023-10-15T09:16:26Z</time>
      </trkpt>
      <trkpt lat="49.17443" lon="-0.0395">
        <ele>19</ele>
        <time>2023-10-15T09:16:27Z</time>
      </trkpt>
      <trkpt lat="49.17453" lon="-0.03953">
        <ele>18.7</ele>
        <time>2023-10-15T09:16:28Z</time>
      </trkpt>
      <trkpt lat="49.17462" lon="-0.03956">
        <ele>18.5</ele>
        <time>2023-10-15T09:16:29Z</time>
      </trkpt>
      <trkpt lat="49.17472" lon="-0.03959">
        <ele>18.3</ele>
        <time>2023-10-15T09:16:30Z</time>
      </trkpt>
      <trkpt lat="49.17481" lon="-0.03961">
        <ele>18.1</ele>
        <time>2023-10-15T09:16:31Z</time>
      </trkpt>
      <trkpt lat="49.17491" lon="-0.03963">
        <ele>17.9</ele>
        <time>2023-10-15T09:16:32Z</time>
      </trkpt>
      <trkpt lat="49.175" lon="-0.03966">
        <ele>17.7</ele>
        <time>2023-10-15T09:16:33Z</time>
      </trkpt>
      <trkpt lat="49.1751" lon="-0.03968">
        <ele>17.5</ele>
        <time>2023-10-15T09:16:34Z</time>
      </trkpt>
      <trkpt lat="49.17519" lon="-0.03971">
        <ele>17.4</ele>
        <time>2023-10-15T09:16:35Z</time>
      </trkpt>
      <trkpt lat="49.17529" lon="-0.03974">
        <ele>17.2</ele>
        <time>2023-10-15T09:16:36Z</time>
      </trkpt>
      <trkpt lat="49.17538" lon="-0.03977">
        <ele>17.1</ele>
        <time>2023-10-15T09:16:37Z</time>
      </trkpt>
      <trkpt lat="49.17548" lon="-0.0398">
        <ele>16.9</ele>
        <time>2023-10-15T09:16:38Z</time>
      </trkpt>
      <trkpt lat="49.17557" lon="-0.03982">
        <ele>16.7</ele>
        <time>2023-10-15T09:16:39Z</time>
      </trkpt>
      <trkpt lat="49.17567" lon="-0.03985">
        <ele>16.6</ele>
        <time>2023-10-15T09:16:40Z</time>
      </trkpt>
      <trkpt lat="49.17576" lon="-0.03988">
        <ele>16.4</ele>
        <time>2023-10-15T09:16:41Z</time>
      </trkpt>
      <trkpt lat="49.17586" lon="-0.03991">
        <ele>16.3</ele>
        <time>2023-10-15T09:16:42Z</time>
      </trkpt>
      <trkpt lat="49.17596" lon="-0.03994">
        <ele>16.2</ele>
        <time>2023-10-15T09:16:43Z</time>
      </trkpt>
      <trkpt lat="49.17605" lon="-0.03996">
        <ele>16.2</ele>
        <time>2023-10-15T09:16:44Z</time>
      </trkpt>
      <trkpt lat="49.17615" lon="-0.03998">
        <ele>16.2</ele>
        <time>2023-10-15T09:16:45Z</time>
      </trkpt>
      <trkpt lat="49.17624" lon="-0.04001">
        <ele>16.2</ele>
        <time>2023-10-15T09:16:46Z</time>
      </trkpt>
      <trkpt lat="49.17633" lon="-0.04004">
        <ele>16.2</ele>
        <time>2023-10-15T09:16:47Z</time>
      </trkpt>
      <trkpt lat="49.17643" lon="-0.04007">
        <ele>16.3</ele>
        <time>2023-10-15T09:16:48Z</time>
      </trkpt>
      <trkpt lat="49.17652" lon="-0.04009">
        <ele>16.4</ele>
        <time>2023-10-15T09:16:49Z</time>
      </trkpt>
      <trkpt lat="49.17661" lon="-0.04012">
        <ele>16.5</ele>
        <time>2023-10-15T09:16:50Z</time>
      </trkpt>
      <trkpt lat="49.1767" lon="-0.04014">
        <ele>16.7</ele>
        <time>2023-10-15T09:16:51Z</time>
      </trkpt>
      <trkpt lat="49.17678" lon="-0.04018">
        <ele>16.8</ele>
        <time>2023-10-15T09:16:52Z</time>
      </trkpt>
      <trkpt lat="49.17687" lon="-0.04021">
        <ele>17</ele>
        <time>2023-10-15T09:16:53Z</time>
      </trkpt>
      <trkpt lat="49.17694" lon="-0.04025">
        <ele>17.1</ele>
        <time>2023-10-15T09:16:54Z</time>
      </trkpt>
      <trkpt lat="49.17702" lon="-0.04031">
        <ele>17.2</ele>
        <time>2023-10-15T09:16:55Z</time>
      </trkpt>
      <trkpt lat="49.1771" lon="-0.04038">
        <ele>17.3</ele>
        <time>2023-10-15T09:16:56Z</time>
      </trkpt>
      <trkpt lat="49.17717" lon="-0.04045">
        <ele>17.5</ele>
        <time>2023-10-15T09:16:57Z</time>
      </trkpt>
      <trkpt lat="49.17724" lon="-0.04054">
        <ele>17.6</ele>
        <time>2023-10-15T09:16:58Z</time>
      </trkpt>
      <trkpt lat="49.17729" lon="-0.04064">
        <ele>17.7</ele>
        <time>2023-10-15T09:16:59Z</time>
      </trkpt>
      <trkpt lat="49.17735" lon="-0.04075">
        <ele>17.8</ele>
        <time>2023-10-15T09:17:00Z</time>
      </trkpt>
      <trkpt lat="49.1774" lon="-0.04086">
        <ele>17.9</ele>
        <time>2023-10-15T09:17:01Z</time>
      </trkpt>
      <trkpt lat="49.17746" lon="-0.04096">
        <ele>18.1</ele>
        <time>2023-10-15T09:17:02Z</time>
      </trkpt>
      <trkpt lat="49.1775" lon="-0.04107">
        <ele>18.3</ele>
        <time>2023-10-15T09:17:03Z</time>
      </trkpt>
      <trkpt lat="49.17755" lon="-0.04117">
        <ele>18.4</ele>
        <time>2023-10-15T09:17:04Z</time>
      </trkpt>
      <trkpt lat="49.1776" lon="-0.04128">
        <ele>18.6</ele>
        <time>2023-10-15T09:17:05Z</time>
      </trkpt>
      <trkpt lat="49.17764" lon="-0.04138">
        <ele>18.8</ele>
        <time>2023-10-15T09:17:06Z</time>
      </trkpt>
      <trkpt lat="49.17769" lon="-0.04147">
        <ele>18.9</ele>
        <time>2023-10-15T09:17:07Z</time>
      </trkpt>
      <trkpt lat="49.17774" lon="-0.04156">
        <ele>19</ele>
        <time>2023-10-15T09:17:08Z</time>
      </trkpt>
      <trkpt lat="49.17779" lon="-0.04166">
        <ele>19.2</ele>
        <time>2023-10-15T09:17:09Z</time>
      </trkpt>
      <trkpt lat="49.17785" lon="-0.04175">
        <ele>19.3</ele>
        <time>2023-10-15T09:17:10Z</time>
      </trkpt>
      <trkpt lat="49.1779" lon="-0.04183">
        <ele>19.5</ele>
        <time>2023-10-15T09:17:11Z</time>
      </trkpt>
      <trkpt lat="49.17796" lon="-0.04192">
        <ele>19.7</ele>
        <time>2023-10-15T09:17:12Z</time>
      </trkpt>
      <trkpt lat="49.17802" lon="-0.04201">
        <ele>19.9</ele>
        <time>2023-10-15T09:17:13Z</time>
      </trkpt>
      <trkpt lat="49.17808" lon="-0.04208">
        <ele>20</ele>
        <time>2023-10-15T09:17:14Z</time>
      </trkpt>
      <trkpt lat="49.17814" lon="-0.04216">
        <ele>20</ele>
        <time>2023-10-15T09:17:15Z</time>
      </trkpt>
      <trkpt lat="49.1782" lon="-0.04223">
        <ele>20.1</ele>
        <time>2023-10-15T09:17:16Z</time>
      </trkpt>
      <trkpt lat="49.17828" lon="-0.0423">
        <ele>20.1</ele>
        <time>2023-10-15T09:17:17Z</time>
      </trkpt>
      <trkpt lat="49.17835" lon="-0.04235">
        <ele>20.1</ele>
        <time>2023-10-15T09:17:18Z</time>
      </trkpt>
      <trkpt lat="49.17843" lon="-0.04241">
        <ele>20.1</ele>
        <time>2023-10-15T09:17:19Z</time>
      </trkpt>
      <trkpt lat="49.17851" lon="-0.04246">
        <ele>20.1</ele>
        <time>2023-10-15T09:17:20Z</time>
      </trkpt>
      <trkpt lat="49.17859" lon="-0.04251">
        <ele>20</ele>
        <time>2023-10-15T09:17:21Z</time>
      </trkpt>
      <trkpt lat="49.17867" lon="-0.04256">
        <ele>19.9</ele>
        <time>2023-10-15T09:17:22Z</time>
      </trkpt>
      <trkpt lat="49.17876" lon="-0.0426">
        <ele>19.8</ele>
        <time>2023-10-15T09:17:23Z</time>
      </trkpt>
      <trkpt lat="49.17884" lon="-0.04264">
        <ele>19.6</ele>
        <time>2023-10-15T09:17:24Z</time>
      </trkpt>
      <trkpt lat="49.17893" lon="-0.04268">
        <ele>19.4</ele>
        <time>2023-10-15T09:17:25Z</time>
      </trkpt>
      <trkpt lat="49.17901" lon="-0.04272">
        <ele>19.2</ele>
        <time>2023-10-15T09:17:26Z</time>
      </trkpt>
      <trkpt lat="49.1791" lon="-0.04276">
        <ele>19</ele>
        <time>2023-10-15T09:17:27Z</time>
      </trkpt>
      <trkpt lat="49.17919" lon="-0.04279">
        <ele>18.8</ele>
        <time>2023-10-15T09:17:28Z</time>
      </trkpt>
      <trkpt lat="49.17929" lon="-0.04281">
        <ele>18.5</ele>
        <time>2023-10-15T09:17:29Z</time>
      </trkpt>
      <trkpt lat="49.17938" lon="-0.04283">
        <ele>18.3</ele>
        <time>2023-10-15T09:17:30Z</time>
      </trkpt>
      <trkpt lat="49.17948" lon="-0.04286">
        <ele>17.9</ele>
        <time>2023-10-15T09:17:31Z</time>
      </trkpt>
      <trkpt lat="49.17958" lon="-0.04288">
        <ele>17.5</ele>
        <time>2023-10-15T09:17:32Z</time>
      </trkpt>
      <trkpt lat="49.17968" lon="-0.04291">
        <ele>17.1</ele>
        <time>2023-10-15T09:17:33Z</time>
      </trkpt>
      <trkpt lat="49.17978" lon="-0.04294">
        <ele>16.7</ele>
        <time>2023-10-15T09:17:34Z</time>
      </trkpt>
      <trkpt lat="49.17988" lon="-0.04297">
        <ele>16.3</ele>
        <time>2023-10-15T09:17:35Z</time>
      </trkpt>
      <trkpt lat="49.17998" lon="-0.04299">
        <ele>15.9</ele>
        <time>2023-10-15T09:17:36Z</time>
      </trkpt>
      <trkpt lat="49.18008" lon="-0.04303">
        <ele>15.5</ele>
        <time>2023-10-15T09:17:37Z</time>
      </trkpt>
      <trkpt lat="49.18018" lon="-0.04306">
        <ele>15.1</ele>
        <time>2023-10-15T09:17:38Z</time>
      </trkpt>
      <trkpt lat="49.18028" lon="-0.04309">
        <ele>14.7</ele>
        <time>2023-10-15T09:17:39Z</time>
      </trkpt>
      <trkpt lat="49.18038" lon="-0.04313">
        <ele>14.3</ele>
        <time>2023-10-15T09:17:40Z</time>
      </trkpt>
      <trkpt lat="49.18048" lon="-0.04317">
        <ele>13.9</ele>
        <time>2023-10-15T09:17:41Z</time>
      </trkpt>
      <trkpt lat="49.18058" lon="-0.0432">
        <ele>13.6</ele>
        <time>2023-10-15T09:17:42Z</time>
      </trkpt>
      <trkpt lat="49.18068" lon="-0.04324">
        <ele>13.4</ele>
        <time>2023-10-15T09:17:43Z</time>
      </trkpt>
      <trkpt lat="49.18078" lon="-0.04327">
        <ele>13.1</ele>
        <time>2023-10-15T09:17:44Z</time>
      </trkpt>
      <trkpt lat="49.18088" lon="-0.0433">
        <ele>12.9</ele>
        <time>2023-10-15T09:17:45Z</time>
      </trkpt>
      <trkpt lat="49.18098" lon="-0.04334">
        <ele>12.6</ele>
        <time>2023-10-15T09:17:46Z</time>
      </trkpt>
      <trkpt lat="49.18108" lon="-0.04337">
        <ele>12.4</ele>
        <time>2023-10-15T09:17:47Z</time>
      </trkpt>
      <trkpt lat="49.18118" lon="-0.04341">
        <ele>12.2</ele>
        <time>2023-10-15T09:17:48Z</time>
      </trkpt>
      <trkpt lat="49.18128" lon="-0.04344">
        <ele>12</ele>
        <time>2023-10-15T09:17:49Z</time>
      </trkpt>
      <trkpt lat="49.18137" lon="-0.04347">
        <ele>11.9</ele>
        <time>2023-10-15T09:17:50Z</time>
      </trkpt>
      <trkpt lat="49.18147" lon="-0.0435">
        <ele>11.7</ele>
        <time>2023-10-15T09:17:51Z</time>
      </trkpt>
      <trkpt lat="49.18157" lon="-0.04354">
        <ele>11.6</ele>
        <time>2023-10-15T09:17:52Z</time>
      </trkpt>
      <trkpt lat="49.18167" lon="-0.04358">
        <ele>11.5</ele>
        <time>2023-10-15T09:17:53Z</time>
      </trkpt>
      <trkpt lat="49.18176" lon="-0.04361">
        <ele>11.5</ele>
        <time>2023-10-15T09:17:54Z</time>
      </trkpt>
      <trkpt lat="49.18186" lon="-0.04364">
        <ele>11.4</ele>
        <time>2023-10-15T09:17:55Z</time>
      </trkpt>
      <trkpt lat="49.18196" lon="-0.04368">
        <ele>11.4</ele>
        <time>2023-10-15T09:17:56Z</time>
      </trkpt>
      <trkpt lat="49.18206" lon="-0.04371">
        <ele>11.3</ele>
        <time>2023-10-15T09:17:57Z</time>
      </trkpt>
      <trkpt lat="49.18215" lon="-0.04375">
        <ele>11.3</ele>
        <time>2023-10-15T09:17:58Z</time>
      </trkpt>
      <trkpt lat="49.18225" lon="-0.04378">
        <ele>11.3</ele>
        <time>2023-10-15T09:17:59Z</time>
      </trkpt>
      <trkpt lat="49.18235" lon="-0.04381">
        <ele>11.3</ele>
        <time>2023-10-15T09:18:00Z</time>
      </trkpt>
      <trkpt lat="49.18245" lon="-0.04384">
        <ele>11.2</ele>
        <time>2023-10-15T09:18:01Z</time>
      </trkpt>
      <trkpt lat="49.18254" lon="-0.04386">
        <ele>11.2</ele>
        <time>2023-10-15T09:18:02Z</time>
      </trkpt>
      <trkpt lat="49.18264" lon="-0.04389">
        <ele>11.2</ele>
        <time>2023-10-15T09:18:03Z</time>
      </trkpt>
      <trkpt lat="49.18274" lon="-0.04392">
        <ele>11.2</ele>
        <time>2023-10-15T09:18:04Z</time>
      </trkpt>
      <trkpt lat="49.18284" lon="-0.04395">
        <ele>11.2</ele>
        <time>2023-10-15T09:18:05Z</time>
      </trkpt>
      <trkpt lat="49.18293" lon="-0.04399">
        <ele>11.2</ele>
        <time>2023-10-15T09:18:06Z</time>
      </trkpt>
      <trkpt lat="49.18303" lon="-0.04402">
        <ele>11.2</ele>
        <time>2023-10-15T09:18:07Z</time>
      </trkpt>
      <trkpt lat="49.18313" lon="-0.04406">
        <ele>11.2</ele>
        <time>2023-10-15T09:18:08Z</time>
      </trkpt>
      <trkpt lat="49.18322" lon="-0.04409">
        <ele>11.1</ele>
        <time>2023-10-15T09:18:09Z</time>
      </trkpt>
      <trkpt lat="49.18332" lon="-0.04413">
        <ele>11</ele>
        <time>2023-10-15T09:18:10Z</time>
      </trkpt>
      <trkpt lat="49.18341" lon="-0.04416">
        <ele>10.9</ele>
        <time>2023-10-15T09:18:11Z</time>
      </trkpt>
      <trkpt lat="49.18351" lon="-0.04419">
        <ele>10.9</ele>
        <time>2023-10-15T09:18:12Z</time>
      </trkpt>
      <trkpt lat="49.1836" lon="-0.04422">
        <ele>10.8</ele>
        <time>2023-10-15T09:18:13Z</time>
      </trkpt>
      <trkpt lat="49.1837" lon="-0.04425">
        <ele>10.7</ele>
        <time>2023-10-15T09:18:14Z</time>
      </trkpt>
      <trkpt lat="49.1838" lon="-0.04428">
        <ele>10.7</ele>
        <time>2023-10-15T09:18:15Z</time>
      </trkpt>
      <trkpt lat="49.18389" lon="-0.04431">
        <ele>10.7</ele>
        <time>2023-10-15T09:18:16Z</time>
      </trkpt>
      <trkpt lat="49.18399" lon="-0.04434">
        <ele>10.7</ele>
        <time>2023-10-15T09:18:17Z</time>
      </trkpt>
      <trkpt lat="49.18408" lon="-0.04437">
        <ele>10.7</ele>
        <time>2023-10-15T09:18:18Z</time>
      </trkpt>
      <trkpt lat="49.18417" lon="-0.0444">
        <ele>10.7</ele>
        <time>2023-10-15T09:18:19Z</time>
      </trkpt>
      <trkpt lat="49.18427" lon="-0.04443">
        <ele>10.7</ele>
        <time>2023-10-15T09:18:20Z</time>
      </trkpt>
      <trkpt lat="49.18436" lon="-0.04446">
        <ele>10.6</ele>
        <time>2023-10-15T09:18:21Z</time>
      </trkpt>
      <trkpt lat="49.18445" lon="-0.04449">
        <ele>10.6</ele>
        <time>2023-10-15T09:18:22Z</time>
      </trkpt>
      <trkpt lat="49.18454" lon="-0.04452">
        <ele>10.5</ele>
        <time>2023-10-15T09:18:23Z</time>
      </trkpt>
      <trkpt lat="49.18463" lon="-0.04455">
        <ele>10.4</ele>
        <time>2023-10-15T09:18:24Z</time>
      </trkpt>
      <trkpt lat="49.18473" lon="-0.04458">
        <ele>10.4</ele>
        <time>2023-10-15T09:18:25Z</time>
      </trkpt>
      <trkpt lat="49.18482" lon="-0.04461">
        <ele>10.4</ele>
        <time>2023-10-15T09:18:26Z</time>
      </trkpt>
      <trkpt lat="49.18491" lon="-0.04464">
        <ele>10.4</ele>
        <time>2023-10-15T09:18:27Z</time>
      </trkpt>
      <trkpt lat="49.185" lon="-0.04468">
        <ele>10.5</ele>
        <time>2023-10-15T09:18:28Z</time>
      </trkpt>
      <trkpt lat="49.18509" lon="-0.04471">
        <ele>10.5</ele>
        <time>2023-10-15T09:18:29Z</time>
      </trkpt>
      <trkpt lat="49.18518" lon="-0.04474">
        <ele>10.4</ele>
        <time>2023-10-15T09:18:30Z</time>
      </trkpt>
      <trkpt lat="49.18527" lon="-0.04476">
        <ele>10.4</ele>
        <time>2023-10-15T09:18:31Z</time>
      </trkpt>
      <trkpt lat="49.18536" lon="-0.04479">
        <ele>10.4</ele>
        <time>2023-10-15T09:18:32Z</time>
      </trkpt>
      <trkpt lat="49.18544" lon="-0.0448">
        <ele>10.4</ele>
        <time>2023-10-15T09:18:33Z</time>
      </trkpt>
      <trkpt lat="49.18553" lon="-0.04481">
        <ele>10.5</ele>
        <time>2023-10-15T09:18:34Z</time>
      </trkpt>
      <trkpt lat="49.18561" lon="-0.04481">
        <ele>10.5</ele>
        <time>2023-10-15T09:18:35Z</time>
      </trkpt>
      <trkpt lat="49.1857" lon="-0.04482">
        <ele>10.6</ele>
        <time>2023-10-15T09:18:36Z</time>
      </trkpt>
      <trkpt lat="49.18578" lon="-0.04483">
        <ele>10.6</ele>
        <time>2023-10-15T09:18:37Z</time>
      </trkpt>
      <trkpt lat="49.18587" lon="-0.04484">
        <ele>10.6</ele>
        <time>2023-10-15T09:18:38Z</time>
      </trkpt>
      <trkpt lat="49.18595" lon="-0.04486">
        <ele>10.6</ele>
        <time>2023-10-15T09:18:39Z</time>
      </trkpt>
      <trkpt lat="49.18603" lon="-0.04488">
        <ele>10.7</ele>
        <time>2023-10-15T09:18:40Z</time>
      </trkpt>
      <trkpt lat="49.18611" lon="-0.0449">
        <ele>10.7</ele>
        <time>2023-10-15T09:18:41Z</time>
      </trkpt>
      <trkpt lat="49.18619" lon="-0.04493">
        <ele>10.7</ele>
        <time>2023-10-15T09:18:42Z</time>
      </trkpt>
      <trkpt lat="49.18627" lon="-0.04495">
        <ele>10.7</ele>
        <time>2023-10-15T09:18:43Z</time>
      </trkpt>
      <trkpt lat="49.18636" lon="-0.04498">
        <ele>10.7</ele>
        <time>2023-10-15T09:18:44Z</time>
      </trkpt>
      <trkpt lat="49.18643" lon="-0.04502">
        <ele>10.7</ele>
        <time>2023-10-15T09:18:45Z</time>
      </trkpt>
      <trkpt lat="49.18651" lon="-0.04506">
        <ele>10.7</ele>
        <time>2023-10-15T09:18:46Z</time>
      </trkpt>
      <trkpt lat="49.18659" lon="-0.04511">
        <ele>10.7</ele>
        <time>2023-10-15T09:18:47Z</time>
      </trkpt>
      <trkpt lat="49.18666" lon="-0.04517">
        <ele>10.6</ele>
        <time>2023-10-15T09:18:48Z</time>
      </trkpt>
      <trkpt lat="49.18672" lon="-0.04522">
        <ele>10.6</ele>
        <time>2023-10-15T09:18:49Z</time>
      </trkpt>
      <trkpt lat="49.1868" lon="-0.04528">
        <ele>10.6</ele>
        <time>2023-10-15T09:18:50Z</time>
      </trkpt>
      <trkpt lat="49.18686" lon="-0.04533">
        <ele>10.6</ele>
        <time>2023-10-15T09:18:51Z</time>
      </trkpt>
      <trkpt lat="49.18694" lon="-0.04539">
        <ele>10.6</ele>
        <time>2023-10-15T09:18:52Z</time>
      </trkpt>
      <trkpt lat="49.187" lon="-0.04544">
        <ele>10.6</ele>
        <time>2023-10-15T09:18:53Z</time>
      </trkpt>
      <trkpt lat="49.18707" lon="-0.0455">
        <ele>10.6</ele>
        <time>2023-10-15T09:18:54Z</time>
      </trkpt>
      <trkpt lat="49.18714" lon="-0.04555">
        <ele>10.5</ele>
        <time>2023-10-15T09:18:55Z</time>
      </trkpt>
      <trkpt lat="49.18721" lon="-0.0456">
        <ele>10.5</ele>
        <time>2023-10-15T09:18:56Z</time>
      </trkpt>
      <trkpt lat="49.18728" lon="-0.04565">
        <ele>10.4</ele>
        <time>2023-10-15T09:18:57Z</time>
      </trkpt>
      <trkpt lat="49.18735" lon="-0.04571">
        <ele>10.4</ele>
        <time>2023-10-15T09:18:58Z</time>
      </trkpt>
      <trkpt lat="49.18742" lon="-0.04576">
        <ele>10.4</ele>
        <time>2023-10-15T09:18:59Z</time>
      </trkpt>
      <trkpt lat="49.1875" lon="-0.0458">
        <ele>10.3</ele>
        <time>2023-10-15T09:19:00Z</time>
      </trkpt>
      <trkpt lat="49.18757" lon="-0.04584">
        <ele>10.3</ele>
        <time>2023-10-15T09:19:01Z</time>
      </trkpt>
      <trkpt lat="49.18765" lon="-0.04586">
        <ele>10.3</ele>
        <time>2023-10-15T09:19:02Z</time>
      </trkpt>
      <trkpt lat="49.18773" lon="-0.04588">
        <ele>10.3</ele>
        <time>2023-10-15T09:19:03Z</time>
      </trkpt>
      <trkpt lat="49.18781" lon="-0.04589">
        <ele>10.3</ele>
        <time>2023-10-15T09:19:04Z</time>
      </trkpt>
      <trkpt lat="49.18789" lon="-0.04589">
        <ele>10.3</ele>
        <time>2023-10-15T09:19:05Z</time>
      </trkpt>
      <trkpt lat="49.18796" lon="-0.04589">
        <ele>10.4</ele>
        <time>2023-10-15T09:19:06Z</time>
      </trkpt>
      <trkpt lat="49.18804" lon="-0.0459">
        <ele>10.4</ele>
        <time>2023-10-15T09:19:07Z</time>
      </trkpt>
      <trkpt lat="49.18812" lon="-0.0459">
        <ele>10.4</ele>
        <time>2023-10-15T09:19:08Z</time>
      </trkpt>
      <trkpt lat="49.1882" lon="-0.04591">
        <ele>10.4</ele>
        <time>2023-10-15T09:19:09Z</time>
      </trkpt>
      <trkpt lat="49.18827" lon="-0.04592">
        <ele>10.4</ele>
        <time>2023-10-15T09:19:10Z</time>
      </trkpt>
      <trkpt lat="49.18835" lon="-0.04592">
        <ele>10.5</ele>
        <time>2023-10-15T09:19:11Z</time>
      </trkpt>
      <trkpt lat="49.18842" lon="-0.04592">
        <ele>10.5</ele>
        <time>2023-10-15T09:19:12Z</time>
      </trkpt>
      <trkpt lat="49.18849" lon="-0.04592">
        <ele>10.5</ele>
        <time>2023-10-15T09:19:13Z</time>
      </trkpt>
      <trkpt lat="49.18856" lon="-0.04592">
        <ele>10.6</ele>
        <time>2023-10-15T09:19:14Z</time>
      </trkpt>
      <trkpt lat="49.18863" lon="-0.04593">
        <ele>10.6</ele>
        <time>2023-10-15T09:19:15Z</time>
      </trkpt>
      <trkpt lat="49.1887" lon="-0.04594">
        <ele>10.7</ele>
        <time>2023-10-15T09:19:16Z</time>
      </trkpt>
      <trkpt lat="49.18877" lon="-0.04596">
        <ele>10.7</ele>
        <time>2023-10-15T09:19:17Z</time>
      </trkpt>
      <trkpt lat="49.18885" lon="-0.04597">
        <ele>10.7</ele>
        <time>2023-10-15T09:19:18Z</time>
      </trkpt>
      <trkpt lat="49.18892" lon="-0.04599">
        <ele>10.7</ele>
        <time>2023-10-15T09:19:19Z</time>
      </trkpt>
      <trkpt lat="49.18899" lon="-0.04602">
        <ele>10.7</ele>
        <time>2023-10-15T09:19:20Z</time>
      </trkpt>
      <trkpt lat="49.18907" lon="-0.04605">
        <ele>10.8</ele>
        <time>2023-10-15T09:19:21Z</time>
      </trkpt>
      <trkpt lat="49.18914" lon="-0.04607">
        <ele>10.8</ele>
        <time>2023-10-15T09:19:22Z</time>
      </trkpt>
      <trkpt lat="49.18921" lon="-0.04609">
        <ele>10.8</ele>
        <time>2023-10-15T09:19:23Z</time>
      </trkpt>
      <trkpt lat="49.18928" lon="-0.04611">
        <ele>10.8</ele>
        <time>2023-10-15T09:19:24Z</time>
      </trkpt>
      <trkpt lat="49.18935" lon="-0.04613">
        <ele>10.8</ele>
        <time>2023-10-15T09:19:25Z</time>
      </trkpt>
      <trkpt lat="49.18942" lon="-0.04614">
        <ele>10.9</ele>
        <time>2023-10-15T09:19:26Z</time>
      </trkpt>
      <trkpt lat="49.1895" lon="-0.04616">
        <ele>10.9</ele>
        <time>2023-10-15T09:19:27Z</time>
      </trkpt>
      <trkpt lat="49.18957" lon="-0.04617">
        <ele>11</ele>
        <time>2023-10-15T09:19:28Z</time>
      </trkpt>
      <trkpt lat="49.18963" lon="-0.04618">
        <ele>11.1</ele>
        <time>2023-10-15T09:19:29Z</time>
      </trkpt>
      <trkpt lat="49.1897" lon="-0.04618">
        <ele>11.1</ele>
        <time>2023-10-15T09:19:30Z</time>
      </trkpt>
      <trkpt lat="49.18977" lon="-0.04618">
        <ele>11.2</ele>
        <time>2023-10-15T09:19:31Z</time>
      </trkpt>
      <trkpt lat="49.18984" lon="-0.04618">
        <ele>11.3</ele>
        <time>2023-10-15T09:19:32Z</time>
      </trkpt>
      <trkpt lat="49.18992" lon="-0.04618">
        <ele>11.4</ele>
        <time>2023-10-15T09:19:33Z</time>
      </trkpt>
      <trkpt lat="49.18999" lon="-0.04618">
        <ele>11.4</ele>
        <time>2023-10-15T09:19:34Z</time>
      </trkpt>
      <trkpt lat="49.19006" lon="-0.04618">
        <ele>11.5</ele>
        <time>2023-10-15T09:19:35Z</time>
      </trkpt>
      <trkpt lat="49.19013" lon="-0.04619">
        <ele>11.6</ele>
        <time>2023-10-15T09:19:36Z</time>
      </trkpt>
      <trkpt lat="49.1902" lon="-0.04619">
        <ele>11.7</ele>
        <time>2023-10-15T09:19:37Z</time>
      </trkpt>
      <trkpt lat="49.19027" lon="-0.04619">
        <ele>11.8</ele>
        <time>2023-10-15T09:19:38Z</time>
      </trkpt>
      <trkpt lat="49.19034" lon="-0.04619">
        <ele>11.9</ele>
        <time>2023-10-15T09:19:39Z</time>
      </trkpt>
      <trkpt lat="49.19041" lon="-0.0462">
        <ele>11.9</ele>
        <time>2023-10-15T09:19:40Z</time>
      </trkpt>
      <trkpt lat="49.19048" lon="-0.04621">
        <ele>11.9</ele>
        <time>2023-10-15T09:19:41Z</time>
      </trkpt>
      <trkpt lat="49.19055" lon="-0.04621">
        <ele>12</ele>
        <time>2023-10-15T09:19:42Z</time>
      </trkpt>
      <trkpt lat="49.19062" lon="-0.04621">
        <ele>12</ele>
        <time>2023-10-15T09:19:43Z</time>
      </trkpt>
      <trkpt lat="49.19069" lon="-0.04622">
        <ele>12</ele>
        <time>2023-10-15T09:19:44Z</time>
      </trkpt>
      <trkpt lat="49.19076" lon="-0.04624">
        <ele>12</ele>
        <time>2023-10-15T09:19:45Z</time>
      </trkpt>
      <trkpt lat="49.19083" lon="-0.04625">
        <ele>12</ele>
        <time>2023-10-15T09:19:46Z</time>
      </trkpt>
      <trkpt lat="49.1909" lon="-0.04626">
        <ele>12.1</ele>
        <time>2023-10-15T09:19:47Z</time>
      </trkpt>
      <trkpt lat="49.19096" lon="-0.04626">
        <ele>12.1</ele>
        <time>2023-10-15T09:19:48Z</time>
      </trkpt>
      <trkpt lat="49.19103" lon="-0.04627">
        <ele>12.2</ele>
        <time>2023-10-15T09:19:49Z</time>
      </trkpt>
      <trkpt lat="49.1911" lon="-0.04627">
        <ele>12.3</ele>
        <time>2023-10-15T09:19:50Z</time>
      </trkpt>
      <trkpt lat="49.19117" lon="-0.04627">
        <ele>12.3</ele>
        <time>2023-10-15T09:19:51Z</time>
      </trkpt>
      <trkpt lat="49.19124" lon="-0.04628">
        <ele>12.4</ele>
        <time>2023-10-15T09:19:52Z</time>
      </trkpt>
      <trkpt lat="49.1913" lon="-0.04629">
        <ele>12.5</ele>
        <time>2023-10-15T09:19:53Z</time>
      </trkpt>
      <trkpt lat="49.19137" lon="-0.0463">
        <ele>12.7</ele>
        <time>2023-10-15T09:19:54Z</time>
      </trkpt>
      <trkpt lat="49.19144" lon="-0.04631">
        <ele>12.8</ele>
        <time>2023-10-15T09:19:55Z</time>
      </trkpt>
      <trkpt lat="49.1915" lon="-0.04633">
        <ele>13</ele>
        <time>2023-10-15T09:19:56Z</time>
      </trkpt>
      <trkpt lat="49.19157" lon="-0.04634">
        <ele>13.2</ele>
        <time>2023-10-15T09:19:57Z</time>
      </trkpt>
      <trkpt lat="49.19163" lon="-0.04636">
        <ele>13.4</ele>
        <time>2023-10-15T09:19:58Z</time>
      </trkpt>
      <trkpt lat="49.19169" lon="-0.04638">
        <ele>13.7</ele>
        <time>2023-10-15T09:19:59Z</time>
      </trkpt>
      <trkpt lat="49.19176" lon="-0.0464">
        <ele>13.9</ele>
        <time>2023-10-15T09:20:00Z</time>
      </trkpt>
      <trkpt lat="49.19182" lon="-0.04643">
        <ele>14.2</ele>
        <time>2023-10-15T09:20:01Z</time>
      </trkpt>
      <trkpt lat="49.19187" lon="-0.04646">
        <ele>14.5</ele>
        <time>2023-10-15T09:20:02Z</time>
      </trkpt>
      <trkpt lat="49.19193" lon="-0.04649">
        <ele>14.8</ele>
        <time>2023-10-15T09:20:03Z</time>
      </trkpt>
      <trkpt lat="49.19198" lon="-0.04653">
        <ele>15.1</ele>
        <time>2023-10-15T09:20:04Z</time>
      </trkpt>
      <trkpt lat="49.19204" lon="-0.04656">
        <ele>15.4</ele>
        <time>2023-10-15T09:20:05Z</time>
      </trkpt>
      <trkpt lat="49.19208" lon="-0.04658">
        <ele>15.7</ele>
        <time>2023-10-15T09:20:06Z</time>
      </trkpt>
      <trkpt lat="49.19214" lon="-0.04661">
        <ele>16</ele>
        <time>2023-10-15T09:20:07Z</time>
      </trkpt>
      <trkpt lat="49.19219" lon="-0.04664">
        <ele>16.3</ele>
        <time>2023-10-15T09:20:08Z</time>
      </trkpt>
      <trkpt lat="49.19224" lon="-0.04667">
        <ele>16.6</ele>
        <time>2023-10-15T09:20:09Z</time>
      </trkpt>
      <trkpt lat="49.19229" lon="-0.04671">
        <ele>16.9</ele>
        <time>2023-10-15T09:20:10Z</time>
      </trkpt>
      <trkpt lat="49.19234" lon="-0.04674">
        <ele>17.2</ele>
        <time>2023-10-15T09:20:11Z</time>
      </trkpt>
      <trkpt lat="49.1924" lon="-0.04678">
        <ele>17.6</ele>
        <time>2023-10-15T09:20:12Z</time>
      </trkpt>
      <trkpt lat="49.19245" lon="-0.04681">
        <ele>18</ele>
        <time>2023-10-15T09:20:13Z</time>
      </trkpt>
      <trkpt lat="49.1925" lon="-0.04683">
        <ele>18.4</ele>
        <time>2023-10-15T09:20:14Z</time>
      </trkpt>
      <trkpt lat="49.19254" lon="-0.04686">
        <ele>18.7</ele>
        <time>2023-10-15T09:20:15Z</time>
      </trkpt>
      <trkpt lat="49.1926" lon="-0.04688">
        <ele>19.1</ele>
        <time>2023-10-15T09:20:16Z</time>
      </trkpt>
      <trkpt lat="49.19265" lon="-0.04691">
        <ele>19.5</ele>
        <time>2023-10-15T09:20:17Z</time>
      </trkpt>
      <trkpt lat="49.19269" lon="-0.04693">
        <ele>19.9</ele>
        <time>2023-10-15T09:20:18Z</time>
      </trkpt>
      <trkpt lat="49.19274" lon="-0.04695">
        <ele>20.2</ele>
        <time>2023-10-15T09:20:19Z</time>
      </trkpt>
      <trkpt lat="49.19279" lon="-0.04697">
        <ele>20.6</ele>
        <time>2023-10-15T09:20:20Z</time>
      </trkpt>
      <trkpt lat="49.19284" lon="-0.04699">
        <ele>21</ele>
        <time>2023-10-15T09:20:21Z</time>
      </trkpt>
      <trkpt lat="49.19289" lon="-0.04701">
        <ele>21.3</ele>
        <time>2023-10-15T09:20:22Z</time>
      </trkpt>
      <trkpt lat="49.19294" lon="-0.04703">
        <ele>21.7</ele>
        <time>2023-10-15T09:20:23Z</time>
      </trkpt>
      <trkpt lat="49.19299" lon="-0.04705">
        <ele>22</ele>
        <time>2023-10-15T09:20:24Z</time>
      </trkpt>
      <trkpt lat="49.19304" lon="-0.04707">
        <ele>22.4</ele>
        <time>2023-10-15T09:20:25Z</time>
      </trkpt>
      <trkpt lat="49.19309" lon="-0.04709">
        <ele>22.7</ele>
        <time>2023-10-15T09:20:26Z</time>
      </trkpt>
      <trkpt lat="49.19313" lon="-0.04711">
        <ele>23</ele>
        <time>2023-10-15T09:20:27Z</time>
      </trkpt>
      <trkpt lat="49.19318" lon="-0.04713">
        <ele>23.3</ele>
        <time>2023-10-15T09:20:28Z</time>
      </trkpt>
      <trkpt lat="49.19323" lon="-0.04715">
        <ele>23.7</ele>
        <time>2023-10-15T09:20:29Z</time>
      </trkpt>
      <trkpt lat="49.19328" lon="-0.04716">
        <ele>24</ele>
        <time>2023-10-15T09:20:30Z</time>
      </trkpt>
      <trkpt lat="49.19333" lon="-0.04717">
        <ele>24.3</ele>
        <time>2023-10-15T09:20:31Z</time>
      </trkpt>
      <trkpt lat="49.19338" lon="-0.04717">
        <ele>24.6</ele>
        <time>2023-10-15T09:20:32Z</time>
      </trkpt>
      <trkpt lat="49.19343" lon="-0.04718">
        <ele>25</ele>
        <time>2023-10-15T09:20:33Z</time>
      </trkpt>
      <trkpt lat="49.19348" lon="-0.04719">
        <ele>25.3</ele>
        <time>2023-10-15T09:20:34Z</time>
      </trkpt>
      <trkpt lat="49.19353" lon="-0.0472">
        <ele>25.6</ele>
        <time>2023-10-15T09:20:35Z</time>
      </trkpt>
      <trkpt lat="49.19359" lon="-0.04721">
        <ele>25.9</ele>
        <time>2023-10-15T09:20:36Z</time>
      </trkpt>
      <trkpt lat="49.19364" lon="-0.04722">
        <ele>26.3</ele>
        <time>2023-10-15T09:20:37Z</time>
      </trkpt>
      <trkpt lat="49.19369" lon="-0.04724">
        <ele>26.6</ele>
        <time>2023-10-15T09:20:38Z</time>
      </trkpt>
      <trkpt lat="49.19373" lon="-0.04726">
        <ele>26.8</ele>
        <time>2023-10-15T09:20:39Z</time>
      </trkpt>
      <trkpt lat="49.19378" lon="-0.04729">
        <ele>27.1</ele>
        <time>2023-10-15T09:20:40Z</time>
      </trkpt>
      <trkpt lat="49.19382" lon="-0.04733">
        <ele>27.3</ele>
        <time>2023-10-15T09:20:41Z</time>
      </trkpt>
      <trkpt lat="49.19386" lon="-0.04737">
        <ele>27.6</ele>
        <time>2023-10-15T09:20:42Z</time>
      </trkpt>
      <trkpt lat="49.1939" lon="-0.04742">
        <ele>27.7</ele>
        <time>2023-10-15T09:20:43Z</time>
      </trkpt>
      <trkpt lat="49.19394" lon="-0.04747">
        <ele>27.9</ele>
        <time>2023-10-15T09:20:44Z</time>
      </trkpt>
      <trkpt lat="49.19398" lon="-0.04752">
        <ele>28</ele>
        <time>2023-10-15T09:20:45Z</time>
      </trkpt>
      <trkpt lat="49.19402" lon="-0.04756">
        <ele>28</ele>
        <time>2023-10-15T09:20:46Z</time>
      </trkpt>
      <trkpt lat="49.19406" lon="-0.04758">
        <ele>28</ele>
        <time>2023-10-15T09:20:47Z</time>
      </trkpt>
      <trkpt lat="49.19409" lon="-0.04761">
        <ele>28</ele>
        <time>2023-10-15T09:20:48Z</time>
      </trkpt>
      <trkpt lat="49.1941" lon="-0.04765">
        <ele>27.9</ele>
        <time>2023-10-15T09:20:49Z</time>
      </trkpt>
      <trkpt lat="49.1941" lon="-0.04766">
        <ele>27.9</ele>
        <time>2023-10-15T09:20:50Z</time>
      </trkpt>
      <trkpt lat="49.1941" lon="-0.04768">
        <ele>27.9</ele>
        <time>2023-10-15T09:20:51Z</time>
      </trkpt>
      <trkpt lat="49.1941" lon="-0.04768">
        <ele>27.9</ele>
        <time>2023-10-15T09:20:52Z</time>
      </trkpt>
      <trkpt lat="49.1941" lon="-0.04769">
        <ele>27.9</ele>
        <time>2023-10-15T09:20:53Z</time>
      </trkpt>
      <trkpt lat="49.1941" lon="-0.04769">
        <ele>27.9</ele>
        <time>2023-10-15T09:20:54Z</time>
      </trkpt>
      <trkpt lat="49.1941" lon="-0.0477">
        <ele>27.9</ele>
        <time>2023-10-15T09:20:55Z</time>
      </trkpt>
      <trkpt lat="49.1941" lon="-0.04771">
        <ele>27.9</ele>
        <time>2023-10-15T09:20:56Z</time>
      </trkpt>
      <trkpt lat="49.1941" lon="-0.04771">
        <ele>27.9</ele>
        <time>2023-10-15T09:20:57Z</time>
      </trkpt>
      <trkpt lat="49.1941" lon="-0.04772">
        <ele>27.9</ele>
        <time>2023-10-15T09:20:58Z</time>
      </trkpt>
      <trkpt lat="49.1941" lon="-0.04773">
        <ele>27.9</ele>
        <time>2023-10-15T09:20:59Z</time>
      </trkpt>
      <trkpt lat="49.19411" lon="-0.04773">
        <ele>27.9</ele>
        <time>2023-10-15T09:21:00Z</time>
      </trkpt>
      <trkpt lat="49.19411" lon="-0.04774">
        <ele>27.9</ele>
        <time>2023-10-15T09:21:01Z</time>
      </trkpt>
      <trkpt lat="49.19411" lon="-0.04775">
        <ele>27.9</ele>
        <time>2023-10-15T09:21:02Z</time>
      </trkpt>
      <trkpt lat="49.19411" lon="-0.04775">
        <ele>27.9</ele>
        <time>2023-10-15T09:21:49Z</time>
      </trkpt>
      <trkpt lat="49.19411" lon="-0.04776">
        <ele>27.9</ele>
        <time>2023-10-15T09:21:50Z</time>
      </trkpt>
      <trkpt lat="49.19411" lon="-0.04777">
        <ele>27.9</ele>
        <time>2023-10-15T09:21:51Z</time>
      </trkpt>
      <trkpt lat="49.19412" lon="-0.04781">
        <ele>27.8</ele>
        <time>2023-10-15T09:21:52Z</time>
      </trkpt>
      <trkpt lat="49.19414" lon="-0.04785">
        <ele>27.8</ele>
        <time>2023-10-15T09:21:53Z</time>
      </trkpt>
      <trkpt lat="49.19417" lon="-0.04789">
        <ele>27.7</ele>
        <time>2023-10-15T09:21:54Z</time>
      </trkpt>
      <trkpt lat="49.19419" lon="-0.04794">
        <ele>27.7</ele>
        <time>2023-10-15T09:21:55Z</time>
      </trkpt>
      <trkpt lat="49.19422" lon="-0.04799">
        <ele>27.6</ele>
        <time>2023-10-15T09:21:56Z</time>
      </trkpt>
      <trkpt lat="49.19425" lon="-0.04805">
        <ele>27.5</ele>
        <time>2023-10-15T09:21:57Z</time>
      </trkpt>
      <trkpt lat="49.19429" lon="-0.04812">
        <ele>27.4</ele>
        <time>2023-10-15T09:21:58Z</time>
      </trkpt>
      <trkpt lat="49.19432" lon="-0.04819">
        <ele>27.3</ele>
        <time>2023-10-15T09:21:59Z</time>
      </trkpt>
      <trkpt lat="49.19436" lon="-0.04827">
        <ele>27.1</ele>
        <time>2023-10-15T09:22:00Z</time>
      </trkpt>
      <trkpt lat="49.1944" lon="-0.04835">
        <ele>27</ele>
        <time>2023-10-15T09:22:01Z</time>
      </trkpt>
      <trkpt lat="49.19444" lon="-0.04843">
        <ele>26.9</ele>
        <time>2023-10-15T09:22:02Z</time>
      </trkpt>
      <trkpt lat="49.19448" lon="-0.04852">
        <ele>26.7</ele>
        <time>2023-10-15T09:22:03Z</time>
      </trkpt>
      <trkpt lat="49.19452" lon="-0.0486">
        <ele>26.6</ele>
        <time>2023-10-15T09:22:04Z</time>
      </trkpt>
      <trkpt lat="49.19456" lon="-0.04869">
        <ele>26.3</ele>
        <time>2023-10-15T09:22:05Z</time>
      </trkpt>
      <trkpt lat="49.1946" lon="-0.04878">
        <ele>26.1</ele>
        <time>2023-10-15T09:22:06Z</time>
      </trkpt>
      <trkpt lat="49.19464" lon="-0.04887">
        <ele>25.8</ele>
        <time>2023-10-15T09:22:07Z</time>
      </trkpt>
      <trkpt lat="49.19469" lon="-0.04897">
        <ele>25.5</ele>
        <time>2023-10-15T09:22:08Z</time>
      </trkpt>
      <trkpt lat="49.19474" lon="-0.04908">
        <ele>25.2</ele>
        <time>2023-10-15T09:22:09Z</time>
      </trkpt>
      <trkpt lat="49.19479" lon="-0.04919">
        <ele>24.9</ele>
        <time>2023-10-15T09:22:10Z</time>
      </trkpt>
      <trkpt lat="49.19484" lon="-0.04929">
        <ele>24.6</ele>
        <time>2023-10-15T09:22:11Z</time>
      </trkpt>
      <trkpt lat="49.1949" lon="-0.0494">
        <ele>24.3</ele>
        <time>2023-10-15T09:22:12Z</time>
      </trkpt>
      <trkpt lat="49.19494" lon="-0.04951">
        <ele>24</ele>
        <time>2023-10-15T09:22:13Z</time>
      </trkpt>
      <trkpt lat="49.19499" lon="-0.04962">
        <ele>23.7</ele>
        <time>2023-10-15T09:22:14Z</time>
      </trkpt>
      <trkpt lat="49.19504" lon="-0.04973">
        <ele>23.5</ele>
        <time>2023-10-15T09:22:15Z</time>
      </trkpt>
      <trkpt lat="49.19509" lon="-0.04985">
        <ele>23.2</ele>
        <time>2023-10-15T09:22:16Z</time>
      </trkpt>
      <trkpt lat="49.19513" lon="-0.04997">
        <ele>23</ele>
        <time>2023-10-15T09:22:17Z</time>
      </trkpt>
      <trkpt lat="49.19516" lon="-0.05009">
        <ele>22.7</ele>
        <time>2023-10-15T09:22:18Z</time>
      </trkpt>
      <trkpt lat="49.19518" lon="-0.05023">
        <ele>22.4</ele>
        <time>2023-10-15T09:22:19Z</time>
      </trkpt>
      <trkpt lat="49.1952" lon="-0.05037">
        <ele>22.1</ele>
        <time>2023-10-15T09:22:20Z</time>
      </trkpt>
      <trkpt lat="49.19521" lon="-0.05052">
        <ele>21.8</ele>
        <time>2023-10-15T09:22:21Z</time>
      </trkpt>
      <trkpt lat="49.1952" lon="-0.05066">
        <ele>21.6</ele>
        <time>2023-10-15T09:22:22Z</time>
      </trkpt>
      <trkpt lat="49.19519" lon="-0.05081">
        <ele>21.3</ele>
        <time>2023-10-15T09:22:23Z</time>
      </trkpt>
      <trkpt lat="49.19518" lon="-0.05096">
        <ele>21.1</ele>
        <time>2023-10-15T09:22:24Z</time>
      </trkpt>
      <trkpt lat="49.19517" lon="-0.05111">
        <ele>20.9</ele>
        <time>2023-10-15T09:22:25Z</time>
      </trkpt>
      <trkpt lat="49.19516" lon="-0.05126">
        <ele>20.6</ele>
        <time>2023-10-15T09:22:26Z</time>
      </trkpt>
      <trkpt lat="49.19515" lon="-0.05141">
        <ele>20.4</ele>
        <time>2023-10-15T09:22:27Z</time>
      </trkpt>
      <trkpt lat="49.19514" lon="-0.05156">
        <ele>20.2</ele>
        <time>2023-10-15T09:22:28Z</time>
      </trkpt>
      <trkpt lat="49.19513" lon="-0.0517">
        <ele>20</ele>
        <time>2023-10-15T09:22:29Z</time>
      </trkpt>
      <trkpt lat="49.19512" lon="-0.05186">
        <ele>19.8</ele>
        <time>2023-10-15T09:22:30Z</time>
      </trkpt>
      <trkpt lat="49.19511" lon="-0.05201">
        <ele>19.6</ele>
        <time>2023-10-15T09:22:31Z</time>
      </trkpt>
      <trkpt lat="49.19511" lon="-0.05217">
        <ele>19.4</ele>
        <time>2023-10-15T09:22:32Z</time>
      </trkpt>
      <trkpt lat="49.1951" lon="-0.05233">
        <ele>19.4</ele>
        <time>2023-10-15T09:22:33Z</time>
      </trkpt>
      <trkpt lat="49.19509" lon="-0.05248">
        <ele>19.2</ele>
        <time>2023-10-15T09:22:34Z</time>
      </trkpt>
      <trkpt lat="49.19508" lon="-0.05263">
        <ele>19.1</ele>
        <time>2023-10-15T09:22:35Z</time>
      </trkpt>
      <trkpt lat="49.19507" lon="-0.05279">
        <ele>18.9</ele>
        <time>2023-10-15T09:22:36Z</time>
      </trkpt>
      <trkpt lat="49.19506" lon="-0.05293">
        <ele>18.8</ele>
        <time>2023-10-15T09:22:37Z</time>
      </trkpt>
      <trkpt lat="49.19505" lon="-0.05309">
        <ele>18.7</ele>
        <time>2023-10-15T09:22:38Z</time>
      </trkpt>
      <trkpt lat="49.19503" lon="-0.05324">
        <ele>18.5</ele>
        <time>2023-10-15T09:22:39Z</time>
      </trkpt>
      <trkpt lat="49.19502" lon="-0.05338">
        <ele>18.4</ele>
        <time>2023-10-15T09:22:40Z</time>
      </trkpt>
      <trkpt lat="49.19501" lon="-0.05353">
        <ele>18.2</ele>
        <time>2023-10-15T09:22:41Z</time>
      </trkpt>
      <trkpt lat="49.195" lon="-0.05368">
        <ele>18</ele>
        <time>2023-10-15T09:22:42Z</time>
      </trkpt>
      <trkpt lat="49.19499" lon="-0.05383">
        <ele>17.9</ele>
        <time>2023-10-15T09:22:43Z</time>
      </trkpt>
      <trkpt lat="49.19499" lon="-0.05398">
        <ele>17.7</ele>
        <time>2023-10-15T09:22:44Z</time>
      </trkpt>
      <trkpt lat="49.19498" lon="-0.05414">
        <ele>17.6</ele>
        <time>2023-10-15T09:22:45Z</time>
      </trkpt>
      <trkpt lat="49.19499" lon="-0.0543">
        <ele>17.3</ele>
        <time>2023-10-15T09:22:46Z</time>
      </trkpt>
      <trkpt lat="49.19501" lon="-0.05445">
        <ele>17</ele>
        <time>2023-10-15T09:22:47Z</time>
      </trkpt>
      <trkpt lat="49.19504" lon="-0.0546">
        <ele>16.7</ele>
        <time>2023-10-15T09:22:48Z</time>
      </trkpt>
      <trkpt lat="49.19507" lon="-0.05475">
        <ele>16.5</ele>
        <time>2023-10-15T09:22:49Z</time>
      </trkpt>
      <trkpt lat="49.1951" lon="-0.0549">
        <ele>16.3</ele>
        <time>2023-10-15T09:22:50Z</time>
      </trkpt>
      <trkpt lat="49.19513" lon="-0.05505">
        <ele>16.1</ele>
        <time>2023-10-15T09:22:51Z</time>
      </trkpt>
      <trkpt lat="49.19516" lon="-0.0552">
        <ele>15.9</ele>
        <time>2023-10-15T09:22:52Z</time>
      </trkpt>
      <trkpt lat="49.19519" lon="-0.05534">
        <ele>15.7</ele>
        <time>2023-10-15T09:22:53Z</time>
      </trkpt>
      <trkpt lat="49.19522" lon="-0.05549">
        <ele>15.5</ele>
        <time>2023-10-15T09:22:54Z</time>
      </trkpt>
      <trkpt lat="49.19523" lon="-0.05564">
        <ele>15.3</ele>
        <time>2023-10-15T09:22:55Z</time>
      </trkpt>
      <trkpt lat="49.19524" lon="-0.05579">
        <ele>15.2</ele>
        <time>2023-10-15T09:22:56Z</time>
      </trkpt>
      <trkpt lat="49.19525" lon="-0.05594">
        <ele>15</ele>
        <time>2023-10-15T09:22:57Z</time>
      </trkpt>
      <trkpt lat="49.19525" lon="-0.05608">
        <ele>14.8</ele>
        <time>2023-10-15T09:22:58Z</time>
      </trkpt>
      <trkpt lat="49.19524" lon="-0.05622">
        <ele>14.6</ele>
        <time>2023-10-15T09:22:59Z</time>
      </trkpt>
      <trkpt lat="49.19523" lon="-0.05637">
        <ele>14.4</ele>
        <time>2023-10-15T09:23:00Z</time>
      </trkpt>
      <trkpt lat="49.19522" lon="-0.05652">
        <ele>14.2</ele>
        <time>2023-10-15T09:23:01Z</time>
      </trkpt>
      <trkpt lat="49.1952" lon="-0.05667">
        <ele>14.1</ele>
        <time>2023-10-15T09:23:02Z</time>
      </trkpt>
      <trkpt lat="49.19517" lon="-0.05682">
        <ele>13.9</ele>
        <time>2023-10-15T09:23:03Z</time>
      </trkpt>
      <trkpt lat="49.19516" lon="-0.05697">
        <ele>13.8</ele>
        <time>2023-10-15T09:23:04Z</time>
      </trkpt>
      <trkpt lat="49.19514" lon="-0.05713">
        <ele>13.7</ele>
        <time>2023-10-15T09:23:05Z</time>
      </trkpt>
      <trkpt lat="49.19512" lon="-0.05727">
        <ele>13.6</ele>
        <time>2023-10-15T09:23:06Z</time>
      </trkpt>
      <trkpt lat="49.1951" lon="-0.05742">
        <ele>13.6</ele>
        <time>2023-10-15T09:23:07Z</time>
      </trkpt>
      <trkpt lat="49.19508" lon="-0.05757">
        <ele>13.5</ele>
        <time>2023-10-15T09:23:08Z</time>
      </trkpt>
      <trkpt lat="49.19506" lon="-0.05772">
        <ele>13.4</ele>
        <time>2023-10-15T09:23:09Z</time>
      </trkpt>
      <trkpt lat="49.19504" lon="-0.05787">
        <ele>13.4</ele>
        <time>2023-10-15T09:23:10Z</time>
      </trkpt>
      <trkpt lat="49.19503" lon="-0.05802">
        <ele>13.3</ele>
        <time>2023-10-15T09:23:11Z</time>
      </trkpt>
      <trkpt lat="49.19501" lon="-0.05816">
        <ele>13.3</ele>
        <time>2023-10-15T09:23:12Z</time>
      </trkpt>
      <trkpt lat="49.19499" lon="-0.0583">
        <ele>13.3</ele>
        <time>2023-10-15T09:23:13Z</time>
      </trkpt>
      <trkpt lat="49.19497" lon="-0.05845">
        <ele>13.3</ele>
        <time>2023-10-15T09:23:14Z</time>
      </trkpt>
      <trkpt lat="49.19496" lon="-0.0586">
        <ele>13.3</ele>
        <time>2023-10-15T09:23:15Z</time>
      </trkpt>
      <trkpt lat="49.19494" lon="-0.05874">
        <ele>13.2</ele>
        <time>2023-10-15T09:23:16Z</time>
      </trkpt>
      <trkpt lat="49.19493" lon="-0.05888">
        <ele>13.2</ele>
        <time>2023-10-15T09:23:17Z</time>
      </trkpt>
      <trkpt lat="49.19492" lon="-0.05903">
        <ele>13.2</ele>
        <time>2023-10-15T09:23:18Z</time>
      </trkpt>
      <trkpt lat="49.19491" lon="-0.05917">
        <ele>13.1</ele>
        <time>2023-10-15T09:23:19Z</time>
      </trkpt>
      <trkpt lat="49.19491" lon="-0.05932">
        <ele>13.1</ele>
        <time>2023-10-15T09:23:20Z</time>
      </trkpt>
      <trkpt lat="49.19492" lon="-0.05946">
        <ele>13</ele>
        <time>2023-10-15T09:23:21Z</time>
      </trkpt>
      <trkpt lat="49.19494" lon="-0.05961">
        <ele>13</ele>
        <time>2023-10-15T09:23:22Z</time>
      </trkpt>
      <trkpt lat="49.19495" lon="-0.05975">
        <ele>12.9</ele>
        <time>2023-10-15T09:23:23Z</time>
      </trkpt>
      <trkpt lat="49.19497" lon="-0.0599">
        <ele>12.8</ele>
        <time>2023-10-15T09:23:24Z</time>
      </trkpt>
      <trkpt lat="49.195" lon="-0.06004">
        <ele>12.8</ele>
        <time>2023-10-15T09:23:25Z</time>
      </trkpt>
      <trkpt lat="49.19502" lon="-0.06018">
        <ele>12.7</ele>
        <time>2023-10-15T09:23:26Z</time>
      </trkpt>
      <trkpt lat="49.19504" lon="-0.06033">
        <ele>12.7</ele>
        <time>2023-10-15T09:23:27Z</time>
      </trkpt>
      <trkpt lat="49.19506" lon="-0.06047">
        <ele>12.6</ele>
        <time>2023-10-15T09:23:28Z</time>
      </trkpt>
      <trkpt lat="49.19508" lon="-0.06061">
        <ele>12.5</ele>
        <time>2023-10-15T09:23:29Z</time>
      </trkpt>
      <trkpt lat="49.1951" lon="-0.06076">
        <ele>12.4</ele>
        <time>2023-10-15T09:23:30Z</time>
      </trkpt>
      <trkpt lat="49.19512" lon="-0.0609">
        <ele>12.3</ele>
        <time>2023-10-15T09:23:31Z</time>
      </trkpt>
      <trkpt lat="49.19514" lon="-0.06104">
        <ele>12.2</ele>
        <time>2023-10-15T09:23:32Z</time>
      </trkpt>
      <trkpt lat="49.19516" lon="-0.06117">
        <ele>12.2</ele>
        <time>2023-10-15T09:23:33Z</time>
      </trkpt>
      <trkpt lat="49.19518" lon="-0.06131">
        <ele>12.1</ele>
        <time>2023-10-15T09:23:34Z</time>
      </trkpt>
      <trkpt lat="49.1952" lon="-0.06145">
        <ele>12</ele>
        <time>2023-10-15T09:23:35Z</time>
      </trkpt>
      <trkpt lat="49.19523" lon="-0.06159">
        <ele>11.9</ele>
        <time>2023-10-15T09:23:36Z</time>
      </trkpt>
      <trkpt lat="49.19525" lon="-0.06172">
        <ele>11.7</ele>
        <time>2023-10-15T09:23:37Z</time>
      </trkpt>
      <trkpt lat="49.19528" lon="-0.06185">
        <ele>11.6</ele>
        <time>2023-10-15T09:23:38Z</time>
      </trkpt>
      <trkpt lat="49.19532" lon="-0.06199">
        <ele>11.4</ele>
        <time>2023-10-15T09:23:39Z</time>
      </trkpt>
      <trkpt lat="49.19537" lon="-0.06212">
        <ele>11.3</ele>
        <time>2023-10-15T09:23:40Z</time>
      </trkpt>
      <trkpt lat="49.19542" lon="-0.06224">
        <ele>11.1</ele>
        <time>2023-10-15T09:23:41Z</time>
      </trkpt>
      <trkpt lat="49.19547" lon="-0.06235">
        <ele>11</ele>
        <time>2023-10-15T09:23:42Z</time>
      </trkpt>
      <trkpt lat="49.19554" lon="-0.06245">
        <ele>10.9</ele>
        <time>2023-10-15T09:23:43Z</time>
      </trkpt>
      <trkpt lat="49.19561" lon="-0.06255">
        <ele>10.8</ele>
        <time>2023-10-15T09:23:44Z</time>
      </trkpt>
      <trkpt lat="49.19568" lon="-0.06263">
        <ele>10.6</ele>
        <time>2023-10-15T09:23:45Z</time>
      </trkpt>
      <trkpt lat="49.19577" lon="-0.06271">
        <ele>10.5</ele>
        <time>2023-10-15T09:23:46Z</time>
      </trkpt>
      <trkpt lat="49.19585" lon="-0.06278">
        <ele>10.4</ele>
        <time>2023-10-15T09:23:47Z</time>
      </trkpt>
      <trkpt lat="49.19594" lon="-0.06285">
        <ele>10.2</ele>
        <time>2023-10-15T09:23:48Z</time>
      </trkpt>
      <trkpt lat="49.19602" lon="-0.06291">
        <ele>10.1</ele>
        <time>2023-10-15T09:23:49Z</time>
      </trkpt>
      <trkpt lat="49.19611" lon="-0.06297">
        <ele>10</ele>
        <time>2023-10-15T09:23:50Z</time>
      </trkpt>
      <trkpt lat="49.19619" lon="-0.06303">
        <ele>9.9</ele>
        <time>2023-10-15T09:23:51Z</time>
      </trkpt>
      <trkpt lat="49.19628" lon="-0.06309">
        <ele>9.8</ele>
        <time>2023-10-15T09:23:52Z</time>
      </trkpt>
      <trkpt lat="49.19636" lon="-0.06315">
        <ele>9.8</ele>
        <time>2023-10-15T09:23:53Z</time>
      </trkpt>
      <trkpt lat="49.19644" lon="-0.06321">
        <ele>9.7</ele>
        <time>2023-10-15T09:23:54Z</time>
      </trkpt>
      <trkpt lat="49.19652" lon="-0.06328">
        <ele>9.6</ele>
        <time>2023-10-15T09:23:55Z</time>
      </trkpt>
      <trkpt lat="49.1966" lon="-0.06334">
        <ele>9.5</ele>
        <time>2023-10-15T09:23:56Z</time>
      </trkpt>
      <trkpt lat="49.19668" lon="-0.06341">
        <ele>9.4</ele>
        <time>2023-10-15T09:23:57Z</time>
      </trkpt>
      <trkpt lat="49.19676" lon="-0.06348">
        <ele>9.2</ele>
        <time>2023-10-15T09:23:58Z</time>
      </trkpt>
      <trkpt lat="49.19684" lon="-0.06356">
        <ele>9.1</ele>
        <time>2023-10-15T09:23:59Z</time>
      </trkpt>
      <trkpt lat="49.19691" lon="-0.06365">
        <ele>9</ele>
        <time>2023-10-15T09:24:00Z</time>
      </trkpt>
      <trkpt lat="49.19698" lon="-0.06375">
        <ele>8.9</ele>
        <time>2023-10-15T09:24:01Z</time>
      </trkpt>
      <trkpt lat="49.19704" lon="-0.06385">
        <ele>8.8</ele>
        <time>2023-10-15T09:24:02Z</time>
      </trkpt>
      <trkpt lat="49.19709" lon="-0.06397">
        <ele>8.7</ele>
        <time>2023-10-15T09:24:03Z</time>
      </trkpt>
      <trkpt lat="49.19715" lon="-0.06409">
        <ele>8.6</ele>
        <time>2023-10-15T09:24:04Z</time>
      </trkpt>
      <trkpt lat="49.1972" lon="-0.06422">
        <ele>8.5</ele>
        <time>2023-10-15T09:24:05Z</time>
      </trkpt>
      <trkpt lat="49.19725" lon="-0.06434">
        <ele>8.4</ele>
        <time>2023-10-15T09:24:06Z</time>
      </trkpt>
      <trkpt lat="49.1973" lon="-0.06446">
        <ele>8.3</ele>
        <time>2023-10-15T09:24:07Z</time>
      </trkpt>
      <trkpt lat="49.19736" lon="-0.06458">
        <ele>8.2</ele>
        <time>2023-10-15T09:24:08Z</time>
      </trkpt>
      <trkpt lat="49.19742" lon="-0.06469">
        <ele>8.1</ele>
        <time>2023-10-15T09:24:09Z</time>
      </trkpt>
      <trkpt lat="49.19748" lon="-0.06478">
        <ele>8</ele>
        <time>2023-10-15T09:24:10Z</time>
      </trkpt>
      <trkpt lat="49.19756" lon="-0.06486">
        <ele>7.9</ele>
        <time>2023-10-15T09:24:11Z</time>
      </trkpt>
      <trkpt lat="49.19764" lon="-0.06492">
        <ele>7.8</ele>
        <time>2023-10-15T09:24:12Z</time>
      </trkpt>
      <trkpt lat="49.19773" lon="-0.06498">
        <ele>7.7</ele>
        <time>2023-10-15T09:24:13Z</time>
      </trkpt>
      <trkpt lat="49.19782" lon="-0.06503">
        <ele>7.7</ele>
        <time>2023-10-15T09:24:14Z</time>
      </trkpt>
      <trkpt lat="49.19792" lon="-0.06509">
        <ele>7.6</ele>
        <time>2023-10-15T09:24:15Z</time>
      </trkpt>
      <trkpt lat="49.19801" lon="-0.06514">
        <ele>7.6</ele>
        <time>2023-10-15T09:24:16Z</time>
      </trkpt>
      <trkpt lat="49.1981" lon="-0.0652">
        <ele>7.6</ele>
        <time>2023-10-15T09:24:17Z</time>
      </trkpt>
      <trkpt lat="49.19819" lon="-0.06525">
        <ele>7.6</ele>
        <time>2023-10-15T09:24:18Z</time>
      </trkpt>
      <trkpt lat="49.19828" lon="-0.06531">
        <ele>7.5</ele>
        <time>2023-10-15T09:24:19Z</time>
      </trkpt>
      <trkpt lat="49.19837" lon="-0.06536">
        <ele>7.4</ele>
        <time>2023-10-15T09:24:20Z</time>
      </trkpt>
      <trkpt lat="49.19846" lon="-0.06542">
        <ele>7.3</ele>
        <time>2023-10-15T09:24:21Z</time>
      </trkpt>
      <trkpt lat="49.19855" lon="-0.06546">
        <ele>7.3</ele>
        <time>2023-10-15T09:24:22Z</time>
      </trkpt>
      <trkpt lat="49.19864" lon="-0.06549">
        <ele>7.2</ele>
        <time>2023-10-15T09:24:23Z</time>
      </trkpt>
      <trkpt lat="49.19873" lon="-0.06552">
        <ele>7.2</ele>
        <time>2023-10-15T09:24:24Z</time>
      </trkpt>
      <trkpt lat="49.19882" lon="-0.06555">
        <ele>7.2</ele>
        <time>2023-10-15T09:24:25Z</time>
      </trkpt>
      <trkpt lat="49.1989" lon="-0.06556">
        <ele>7.2</ele>
        <time>2023-10-15T09:24:26Z</time>
      </trkpt>
      <trkpt lat="49.19899" lon="-0.06557">
        <ele>7.2</ele>
        <time>2023-10-15T09:24:27Z</time>
      </trkpt>
      <trkpt lat="49.19908" lon="-0.06557">
        <ele>7.2</ele>
        <time>2023-10-15T09:24:28Z</time>
      </trkpt>
      <trkpt lat="49.19917" lon="-0.06557">
        <ele>7.2</ele>
        <time>2023-10-15T09:24:29Z</time>
      </trkpt>
      <trkpt lat="49.19926" lon="-0.06556">
        <ele>7.2</ele>
        <time>2023-10-15T09:24:30Z</time>
      </trkpt>
      <trkpt lat="49.19935" lon="-0.06555">
        <ele>7.2</ele>
        <time>2023-10-15T09:24:31Z</time>
      </trkpt>
      <trkpt lat="49.19944" lon="-0.06555">
        <ele>7.2</ele>
        <time>2023-10-15T09:24:32Z</time>
      </trkpt>
      <trkpt lat="49.19953" lon="-0.06554">
        <ele>7.2</ele>
        <time>2023-10-15T09:24:33Z</time>
      </trkpt>
      <trkpt lat="49.19962" lon="-0.06554">
        <ele>7.3</ele>
        <time>2023-10-15T09:24:34Z</time>
      </trkpt>
      <trkpt lat="49.19971" lon="-0.06553">
        <ele>7.3</ele>
        <time>2023-10-15T09:24:35Z</time>
      </trkpt>
      <trkpt lat="49.1998" lon="-0.06552">
        <ele>7.3</ele>
        <time>2023-10-15T09:24:36Z</time>
      </trkpt>
      <trkpt lat="49.19989" lon="-0.0655">
        <ele>7.3</ele>
        <time>2023-10-15T09:24:37Z</time>
      </trkpt>
      <trkpt lat="49.19998" lon="-0.06547">
        <ele>7.3</ele>
        <time>2023-10-15T09:24:38Z</time>
      </trkpt>
      <trkpt lat="49.20006" lon="-0.06542">
        <ele>7.3</ele>
        <time>2023-10-15T09:24:39Z</time>
      </trkpt>
      <trkpt lat="49.20015" lon="-0.06537">
        <ele>7.4</ele>
        <time>2023-10-15T09:24:40Z</time>
      </trkpt>
      <trkpt lat="49.20022" lon="-0.0653">
        <ele>7.4</ele>
        <time>2023-10-15T09:24:41Z</time>
      </trkpt>
      <trkpt lat="49.20031" lon="-0.06523">
        <ele>7.4</ele>
        <time>2023-10-15T09:24:42Z</time>
      </trkpt>
      <trkpt lat="49.20038" lon="-0.06515">
        <ele>7.4</ele>
        <time>2023-10-15T09:24:43Z</time>
      </trkpt>
      <trkpt lat="49.20045" lon="-0.06506">
        <ele>7.4</ele>
        <time>2023-10-15T09:24:44Z</time>
      </trkpt>
      <trkpt lat="49.20052" lon="-0.06498">
        <ele>7.4</ele>
        <time>2023-10-15T09:24:45Z</time>
      </trkpt>
      <trkpt lat="49.2006" lon="-0.0649">
        <ele>7.4</ele>
        <time>2023-10-15T09:24:46Z</time>
      </trkpt>
      <trkpt lat="49.20067" lon="-0.06482">
        <ele>7.4</ele>
        <time>2023-10-15T09:24:47Z</time>
      </trkpt>
      <trkpt lat="49.20075" lon="-0.06475">
        <ele>7.5</ele>
        <time>2023-10-15T09:24:48Z</time>
      </trkpt>
      <trkpt lat="49.20083" lon="-0.06468">
        <ele>7.5</ele>
        <time>2023-10-15T09:24:49Z</time>
      </trkpt>
      <trkpt lat="49.2009" lon="-0.06462">
        <ele>7.5</ele>
        <time>2023-10-15T09:24:50Z</time>
      </trkpt>
      <trkpt lat="49.20097" lon="-0.06455">
        <ele>7.5</ele>
        <time>2023-10-15T09:24:51Z</time>
      </trkpt>
      <trkpt lat="49.20104" lon="-0.06445">
        <ele>7.6</ele>
        <time>2023-10-15T09:24:52Z</time>
      </trkpt>
      <trkpt lat="49.2011" lon="-0.06435">
        <ele>7.6</ele>
        <time>2023-10-15T09:24:53Z</time>
      </trkpt>
      <trkpt lat="49.20115" lon="-0.06423">
        <ele>7.6</ele>
        <time>2023-10-15T09:24:54Z</time>
      </trkpt>
      <trkpt lat="49.2012" lon="-0.06412">
        <ele>7.7</ele>
        <time>2023-10-15T09:24:55Z</time>
      </trkpt>
      <trkpt lat="49.20125" lon="-0.064">
        <ele>7.7</ele>
        <time>2023-10-15T09:24:56Z</time>
      </trkpt>
      <trkpt lat="49.20131" lon="-0.06389">
        <ele>7.7</ele>
        <time>2023-10-15T09:24:57Z</time>
      </trkpt>
      <trkpt lat="49.20136" lon="-0.06378">
        <ele>7.7</ele>
        <time>2023-10-15T09:24:58Z</time>
      </trkpt>
      <trkpt lat="49.20142" lon="-0.06368">
        <ele>7.7</ele>
        <time>2023-10-15T09:24:59Z</time>
      </trkpt>
      <trkpt lat="49.20148" lon="-0.06358">
        <ele>7.7</ele>
        <time>2023-10-15T09:25:00Z</time>
      </trkpt>
      <trkpt lat="49.20155" lon="-0.06348">
        <ele>7.8</ele>
        <time>2023-10-15T09:25:01Z</time>
      </trkpt>
      <trkpt lat="49.20161" lon="-0.06339">
        <ele>7.8</ele>
        <time>2023-10-15T09:25:02Z</time>
      </trkpt>
      <trkpt lat="49.20168" lon="-0.0633">
        <ele>7.9</ele>
        <time>2023-10-15T09:25:03Z</time>
      </trkpt>
      <trkpt lat="49.20175" lon="-0.06322">
        <ele>7.9</ele>
        <time>2023-10-15T09:25:04Z</time>
      </trkpt>
      <trkpt lat="49.20182" lon="-0.06314">
        <ele>7.9</ele>
        <time>2023-10-15T09:25:05Z</time>
      </trkpt>
      <trkpt lat="49.2019" lon="-0.06308">
        <ele>8</ele>
        <time>2023-10-15T09:25:06Z</time>
      </trkpt>
      <trkpt lat="49.20199" lon="-0.06304">
        <ele>8</ele>
        <time>2023-10-15T09:25:07Z</time>
      </trkpt>
      <trkpt lat="49.20208" lon="-0.06305">
        <ele>8</ele>
        <time>2023-10-15T09:25:08Z</time>
      </trkpt>
      <trkpt lat="49.20217" lon="-0.06308">
        <ele>8.1</ele>
        <time>2023-10-15T09:25:09Z</time>
      </trkpt>
      <trkpt lat="49.20225" lon="-0.06312">
        <ele>8.1</ele>
        <time>2023-10-15T09:25:10Z</time>
      </trkpt>
      <trkpt lat="49.20233" lon="-0.06316">
        <ele>8.2</ele>
        <time>2023-10-15T09:25:11Z</time>
      </trkpt>
      <trkpt lat="49.20242" lon="-0.06321">
        <ele>8.2</ele>
        <time>2023-10-15T09:25:12Z</time>
      </trkpt>
      <trkpt lat="49.2025" lon="-0.06326">
        <ele>8.3</ele>
        <time>2023-10-15T09:25:13Z</time>
      </trkpt>
      <trkpt lat="49.20258" lon="-0.06331">
        <ele>8.3</ele>
        <time>2023-10-15T09:25:14Z</time>
      </trkpt>
      <trkpt lat="49.20267" lon="-0.06336">
        <ele>8.3</ele>
        <time>2023-10-15T09:25:15Z</time>
      </trkpt>
      <trkpt lat="49.20275" lon="-0.0634">
        <ele>8.4</ele>
        <time>2023-10-15T09:25:16Z</time>
      </trkpt>
      <trkpt lat="49.20284" lon="-0.06343">
        <ele>8.4</ele>
        <time>2023-10-15T09:25:17Z</time>
      </trkpt>
      <trkpt lat="49.20292" lon="-0.06347">
        <ele>8.4</ele>
        <time>2023-10-15T09:25:18Z</time>
      </trkpt>
      <trkpt lat="49.20301" lon="-0.06351">
        <ele>8.4</ele>
        <time>2023-10-15T09:25:19Z</time>
      </trkpt>
      <trkpt lat="49.2031" lon="-0.06355">
        <ele>8.5</ele>
        <time>2023-10-15T09:25:20Z</time>
      </trkpt>
      <trkpt lat="49.20318" lon="-0.06359">
        <ele>8.5</ele>
        <time>2023-10-15T09:25:21Z</time>
      </trkpt>
      <trkpt lat="49.20327" lon="-0.06363">
        <ele>8.6</ele>
        <time>2023-10-15T09:25:22Z</time>
      </trkpt>
      <trkpt lat="49.20336" lon="-0.06366">
        <ele>8.6</ele>
        <time>2023-10-15T09:25:23Z</time>
      </trkpt>
      <trkpt lat="49.20344" lon="-0.0637">
        <ele>8.6</ele>
        <time>2023-10-15T09:25:24Z</time>
      </trkpt>
      <trkpt lat="49.20352" lon="-0.06375">
        <ele>8.7</ele>
        <time>2023-10-15T09:25:25Z</time>
      </trkpt>
      <trkpt lat="49.20361" lon="-0.06379">
        <ele>8.7</ele>
        <time>2023-10-15T09:25:26Z</time>
      </trkpt>
      <trkpt lat="49.2037" lon="-0.06384">
        <ele>8.8</ele>
        <time>2023-10-15T09:25:27Z</time>
      </trkpt>
      <trkpt lat="49.20379" lon="-0.06389">
        <ele>8.8</ele>
        <time>2023-10-15T09:25:28Z</time>
      </trkpt>
      <trkpt lat="49.20387" lon="-0.06393">
        <ele>8.9</ele>
        <time>2023-10-15T09:25:29Z</time>
      </trkpt>
      <trkpt lat="49.20396" lon="-0.06397">
        <ele>8.9</ele>
        <time>2023-10-15T09:25:30Z</time>
      </trkpt>
      <trkpt lat="49.20404" lon="-0.06402">
        <ele>8.9</ele>
        <time>2023-10-15T09:25:31Z</time>
      </trkpt>
      <trkpt lat="49.20413" lon="-0.06405">
        <ele>8.9</ele>
        <time>2023-10-15T09:25:32Z</time>
      </trkpt>
      <trkpt lat="49.20422" lon="-0.0641">
        <ele>8.9</ele>
        <time>2023-10-15T09:25:33Z</time>
      </trkpt>
      <trkpt lat="49.2043" lon="-0.06414">
        <ele>8.9</ele>
        <time>2023-10-15T09:25:34Z</time>
      </trkpt>
      <trkpt lat="49.20439" lon="-0.06418">
        <ele>8.9</ele>
        <time>2023-10-15T09:25:35Z</time>
      </trkpt>
      <trkpt lat="49.20447" lon="-0.06423">
        <ele>8.9</ele>
        <time>2023-10-15T09:25:36Z</time>
      </trkpt>
      <trkpt lat="49.20455" lon="-0.06428">
        <ele>8.9</ele>
        <time>2023-10-15T09:25:37Z</time>
      </trkpt>
      <trkpt lat="49.20464" lon="-0.06434">
        <ele>9</ele>
        <time>2023-10-15T09:25:38Z</time>
      </trkpt>
      <trkpt lat="49.20471" lon="-0.0644">
        <ele>9</ele>
        <time>2023-10-15T09:25:39Z</time>
      </trkpt>
      <trkpt lat="49.20479" lon="-0.06448">
        <ele>9</ele>
        <time>2023-10-15T09:25:40Z</time>
      </trkpt>
      <trkpt lat="49.20486" lon="-0.06457">
        <ele>9</ele>
        <time>2023-10-15T09:25:41Z</time>
      </trkpt>
      <trkpt lat="49.20492" lon="-0.06465">
        <ele>9</ele>
        <time>2023-10-15T09:25:42Z</time>
      </trkpt>
      <trkpt lat="49.20499" lon="-0.06475">
        <ele>9</ele>
        <time>2023-10-15T09:25:43Z</time>
      </trkpt>
      <trkpt lat="49.20505" lon="-0.06484">
        <ele>9</ele>
        <time>2023-10-15T09:25:44Z</time>
      </trkpt>
      <trkpt lat="49.20512" lon="-0.06493">
        <ele>9.1</ele>
        <time>2023-10-15T09:25:45Z</time>
      </trkpt>
      <trkpt lat="49.20519" lon="-0.06501">
        <ele>9.1</ele>
        <time>2023-10-15T09:25:46Z</time>
      </trkpt>
      <trkpt lat="49.20527" lon="-0.06507">
        <ele>9.1</ele>
        <time>2023-10-15T09:25:47Z</time>
      </trkpt>
      <trkpt lat="49.20535" lon="-0.06514">
        <ele>9.1</ele>
        <time>2023-10-15T09:25:48Z</time>
      </trkpt>
      <trkpt lat="49.20542" lon="-0.0652">
        <ele>9.1</ele>
        <time>2023-10-15T09:25:49Z</time>
      </trkpt>
      <trkpt lat="49.2055" lon="-0.06526">
        <ele>9.1</ele>
        <time>2023-10-15T09:25:50Z</time>
      </trkpt>
      <trkpt lat="49.20558" lon="-0.06533">
        <ele>9.2</ele>
        <time>2023-10-15T09:25:51Z</time>
      </trkpt>
      <trkpt lat="49.20566" lon="-0.06539">
        <ele>9.2</ele>
        <time>2023-10-15T09:25:52Z</time>
      </trkpt>
      <trkpt lat="49.20573" lon="-0.06546">
        <ele>9.2</ele>
        <time>2023-10-15T09:25:53Z</time>
      </trkpt>
      <trkpt lat="49.2058" lon="-0.06555">
        <ele>9.2</ele>
        <time>2023-10-15T09:25:54Z</time>
      </trkpt>
      <trkpt lat="49.20586" lon="-0.06564">
        <ele>9.2</ele>
        <time>2023-10-15T09:25:55Z</time>
      </trkpt>
      <trkpt lat="49.20592" lon="-0.06574">
        <ele>9.3</ele>
        <time>2023-10-15T09:25:56Z</time>
      </trkpt>
      <trkpt lat="49.20598" lon="-0.06584">
        <ele>9.3</ele>
        <time>2023-10-15T09:25:57Z</time>
      </trkpt>
      <trkpt lat="49.20604" lon="-0.06594">
        <ele>9.3</ele>
        <time>2023-10-15T09:25:58Z</time>
      </trkpt>
      <trkpt lat="49.20609" lon="-0.06603">
        <ele>9.3</ele>
        <time>2023-10-15T09:25:59Z</time>
      </trkpt>
      <trkpt lat="49.20615" lon="-0.06613">
        <ele>9.3</ele>
        <time>2023-10-15T09:26:00Z</time>
      </trkpt>
      <trkpt lat="49.20621" lon="-0.06622">
        <ele>9.3</ele>
        <time>2023-10-15T09:26:01Z</time>
      </trkpt>
      <trkpt lat="49.20627" lon="-0.06631">
        <ele>9.3</ele>
        <time>2023-10-15T09:26:02Z</time>
      </trkpt>
      <trkpt lat="49.20634" lon="-0.06641">
        <ele>9.2</ele>
        <time>2023-10-15T09:26:03Z</time>
      </trkpt>
      <trkpt lat="49.2064" lon="-0.06649">
        <ele>9.2</ele>
        <time>2023-10-15T09:26:04Z</time>
      </trkpt>
      <trkpt lat="49.20647" lon="-0.06658">
        <ele>9.2</ele>
        <time>2023-10-15T09:26:05Z</time>
      </trkpt>
      <trkpt lat="49.20654" lon="-0.06667">
        <ele>9.2</ele>
        <time>2023-10-15T09:26:06Z</time>
      </trkpt>
      <trkpt lat="49.2066" lon="-0.06676">
        <ele>9.1</ele>
        <time>2023-10-15T09:26:07Z</time>
      </trkpt>
      <trkpt lat="49.20667" lon="-0.06685">
        <ele>9.1</ele>
        <time>2023-10-15T09:26:08Z</time>
      </trkpt>
      <trkpt lat="49.20674" lon="-0.06693">
        <ele>9.1</ele>
        <time>2023-10-15T09:26:09Z</time>
      </trkpt>
      <trkpt lat="49.20681" lon="-0.067">
        <ele>9</ele>
        <time>2023-10-15T09:26:10Z</time>
      </trkpt>
      <trkpt lat="49.20688" lon="-0.06708">
        <ele>9</ele>
        <time>2023-10-15T09:26:11Z</time>
      </trkpt>
      <trkpt lat="49.20695" lon="-0.06715">
        <ele>9</ele>
        <time>2023-10-15T09:26:12Z</time>
      </trkpt>
      <trkpt lat="49.20702" lon="-0.06724">
        <ele>8.9</ele>
        <time>2023-10-15T09:26:13Z</time>
      </trkpt>
      <trkpt lat="49.20709" lon="-0.06732">
        <ele>8.9</ele>
        <time>2023-10-15T09:26:14Z</time>
      </trkpt>
      <trkpt lat="49.20715" lon="-0.0674">
        <ele>8.9</ele>
        <time>2023-10-15T09:26:15Z</time>
      </trkpt>
      <trkpt lat="49.20723" lon="-0.06748">
        <ele>8.9</ele>
        <time>2023-10-15T09:26:16Z</time>
      </trkpt>
      <trkpt lat="49.2073" lon="-0.06755">
        <ele>8.9</ele>
        <time>2023-10-15T09:26:17Z</time>
      </trkpt>
      <trkpt lat="49.20737" lon="-0.06763">
        <ele>8.9</ele>
        <time>2023-10-15T09:26:18Z</time>
      </trkpt>
      <trkpt lat="49.20745" lon="-0.06771">
        <ele>8.8</ele>
        <time>2023-10-15T09:26:19Z</time>
      </trkpt>
      <trkpt lat="49.20752" lon="-0.06779">
        <ele>8.8</ele>
        <time>2023-10-15T09:26:20Z</time>
      </trkpt>
      <trkpt lat="49.20759" lon="-0.06787">
        <ele>8.7</ele>
        <time>2023-10-15T09:26:21Z</time>
      </trkpt>
      <trkpt lat="49.20766" lon="-0.06795">
        <ele>8.6</ele>
        <time>2023-10-15T09:26:22Z</time>
      </trkpt>
      <trkpt lat="49.20774" lon="-0.06802">
        <ele>8.6</ele>
        <time>2023-10-15T09:26:23Z</time>
      </trkpt>
      <trkpt lat="49.20781" lon="-0.06809">
        <ele>8.5</ele>
        <time>2023-10-15T09:26:24Z</time>
      </trkpt>
      <trkpt lat="49.20789" lon="-0.06816">
        <ele>8.5</ele>
        <time>2023-10-15T09:26:25Z</time>
      </trkpt>
      <trkpt lat="49.20797" lon="-0.06821">
        <ele>8.5</ele>
        <time>2023-10-15T09:26:26Z</time>
      </trkpt>
      <trkpt lat="49.20805" lon="-0.06826">
        <ele>8.5</ele>
        <time>2023-10-15T09:26:27Z</time>
      </trkpt>
      <trkpt lat="49.20814" lon="-0.0683">
        <ele>8.5</ele>
        <time>2023-10-15T09:26:28Z</time>
      </trkpt>
      <trkpt lat="49.20823" lon="-0.06833">
        <ele>8.4</ele>
        <time>2023-10-15T09:26:29Z</time>
      </trkpt>
      <trkpt lat="49.20832" lon="-0.06835">
        <ele>8.4</ele>
        <time>2023-10-15T09:26:30Z</time>
      </trkpt>
      <trkpt lat="49.2084" lon="-0.06837">
        <ele>8.4</ele>
        <time>2023-10-15T09:26:31Z</time>
      </trkpt>
      <trkpt lat="49.20849" lon="-0.06839">
        <ele>8.4</ele>
        <time>2023-10-15T09:26:32Z</time>
      </trkpt>
      <trkpt lat="49.20858" lon="-0.0684">
        <ele>8.4</ele>
        <time>2023-10-15T09:26:33Z</time>
      </trkpt>
      <trkpt lat="49.20867" lon="-0.06842">
        <ele>8.4</ele>
        <time>2023-10-15T09:26:34Z</time>
      </trkpt>
      <trkpt lat="49.20876" lon="-0.06844">
        <ele>8.3</ele>
        <time>2023-10-15T09:26:35Z</time>
      </trkpt>
      <trkpt lat="49.20885" lon="-0.06847">
        <ele>8.3</ele>
        <time>2023-10-15T09:26:36Z</time>
      </trkpt>
      <trkpt lat="49.20893" lon="-0.06851">
        <ele>8.3</ele>
        <time>2023-10-15T09:26:37Z</time>
      </trkpt>
      <trkpt lat="49.20902" lon="-0.06856">
        <ele>8.3</ele>
        <time>2023-10-15T09:26:38Z</time>
      </trkpt>
      <trkpt lat="49.20911" lon="-0.06861">
        <ele>8.3</ele>
        <time>2023-10-15T09:26:39Z</time>
      </trkpt>
      <trkpt lat="49.2092" lon="-0.06864">
        <ele>8.3</ele>
        <time>2023-10-15T09:26:40Z</time>
      </trkpt>
      <trkpt lat="49.20929" lon="-0.06865">
        <ele>8.3</ele>
        <time>2023-10-15T09:26:41Z</time>
      </trkpt>
      <trkpt lat="49.20937" lon="-0.06865">
        <ele>8.3</ele>
        <time>2023-10-15T09:26:42Z</time>
      </trkpt>
      <trkpt lat="49.20946" lon="-0.06865">
        <ele>8.3</ele>
        <time>2023-10-15T09:26:43Z</time>
      </trkpt>
      <trkpt lat="49.20955" lon="-0.06864">
        <ele>8.3</ele>
        <time>2023-10-15T09:26:44Z</time>
      </trkpt>
      <trkpt lat="49.20963" lon="-0.06863">
        <ele>8.3</ele>
        <time>2023-10-15T09:26:45Z</time>
      </trkpt>
      <trkpt lat="49.20972" lon="-0.06862">
        <ele>8.4</ele>
        <time>2023-10-15T09:26:46Z</time>
      </trkpt>
      <trkpt lat="49.20981" lon="-0.06862">
        <ele>8.4</ele>
        <time>2023-10-15T09:26:47Z</time>
      </trkpt>
      <trkpt lat="49.20989" lon="-0.06861">
        <ele>8.4</ele>
        <time>2023-10-15T09:26:48Z</time>
      </trkpt>
      <trkpt lat="49.20998" lon="-0.0686">
        <ele>8.5</ele>
        <time>2023-10-15T09:26:49Z</time>
      </trkpt>
      <trkpt lat="49.21006" lon="-0.06859">
        <ele>8.5</ele>
        <time>2023-10-15T09:26:50Z</time>
      </trkpt>
      <trkpt lat="49.21015" lon="-0.06858">
        <ele>8.5</ele>
        <time>2023-10-15T09:26:51Z</time>
      </trkpt>
      <trkpt lat="49.21023" lon="-0.06858">
        <ele>8.6</ele>
        <time>2023-10-15T09:26:52Z</time>
      </trkpt>
      <trkpt lat="49.21032" lon="-0.06857">
        <ele>8.6</ele>
        <time>2023-10-15T09:26:53Z</time>
      </trkpt>
      <trkpt lat="49.2104" lon="-0.06856">
        <ele>8.7</ele>
        <time>2023-10-15T09:26:54Z</time>
      </trkpt>
      <trkpt lat="49.21049" lon="-0.06855">
        <ele>8.7</ele>
        <time>2023-10-15T09:26:55Z</time>
      </trkpt>
      <trkpt lat="49.21057" lon="-0.06854">
        <ele>8.7</ele>
        <time>2023-10-15T09:26:56Z</time>
      </trkpt>
      <trkpt lat="49.21066" lon="-0.06854">
        <ele>8.8</ele>
        <time>2023-10-15T09:26:57Z</time>
      </trkpt>
      <trkpt lat="49.21074" lon="-0.06854">
        <ele>8.8</ele>
        <time>2023-10-15T09:26:58Z</time>
      </trkpt>
      <trkpt lat="49.21082" lon="-0.06854">
        <ele>8.8</ele>
        <time>2023-10-15T09:26:59Z</time>
      </trkpt>
      <trkpt lat="49.2109" lon="-0.06855">
        <ele>8.9</ele>
        <time>2023-10-15T09:27:00Z</time>
      </trkpt>
      <trkpt lat="49.21099" lon="-0.06857">
        <ele>8.9</ele>
        <time>2023-10-15T09:27:01Z</time>
      </trkpt>
      <trkpt lat="49.21107" lon="-0.06858">
        <ele>8.9</ele>
        <time>2023-10-15T09:27:02Z</time>
      </trkpt>
      <trkpt lat="49.21115" lon="-0.0686">
        <ele>9</ele>
        <time>2023-10-15T09:27:03Z</time>
      </trkpt>
      <trkpt lat="49.21123" lon="-0.06862">
        <ele>8.9</ele>
        <time>2023-10-15T09:27:04Z</time>
      </trkpt>
      <trkpt lat="49.21131" lon="-0.06863">
        <ele>8.8</ele>
        <time>2023-10-15T09:27:05Z</time>
      </trkpt>
      <trkpt lat="49.2114" lon="-0.06864">
        <ele>8.8</ele>
        <time>2023-10-15T09:27:06Z</time>
      </trkpt>
      <trkpt lat="49.21148" lon="-0.06866">
        <ele>8.8</ele>
        <time>2023-10-15T09:27:07Z</time>
      </trkpt>
      <trkpt lat="49.21156" lon="-0.06867">
        <ele>8.9</ele>
        <time>2023-10-15T09:27:08Z</time>
      </trkpt>
      <trkpt lat="49.21164" lon="-0.06868">
        <ele>9</ele>
        <time>2023-10-15T09:27:09Z</time>
      </trkpt>
      <trkpt lat="49.21172" lon="-0.06869">
        <ele>9.1</ele>
        <time>2023-10-15T09:27:10Z</time>
      </trkpt>
      <trkpt lat="49.2118" lon="-0.0687">
        <ele>9.2</ele>
        <time>2023-10-15T09:27:11Z</time>
      </trkpt>
      <trkpt lat="49.21188" lon="-0.06871">
        <ele>9.3</ele>
        <time>2023-10-15T09:27:12Z</time>
      </trkpt>
      <trkpt lat="49.21196" lon="-0.06872">
        <ele>9.4</ele>
        <time>2023-10-15T09:27:13Z</time>
      </trkpt>
      <trkpt lat="49.21204" lon="-0.06874">
        <ele>9.6</ele>
        <time>2023-10-15T09:27:14Z</time>
      </trkpt>
      <trkpt lat="49.21212" lon="-0.06875">
        <ele>9.7</ele>
        <time>2023-10-15T09:27:15Z</time>
      </trkpt>
      <trkpt lat="49.21219" lon="-0.06876">
        <ele>9.8</ele>
        <time>2023-10-15T09:27:16Z</time>
      </trkpt>
      <trkpt lat="49.21227" lon="-0.06877">
        <ele>10</ele>
        <time>2023-10-15T09:27:17Z</time>
      </trkpt>
      <trkpt lat="49.21235" lon="-0.06878">
        <ele>10.1</ele>
        <time>2023-10-15T09:27:18Z</time>
      </trkpt>
      <trkpt lat="49.21243" lon="-0.06879">
        <ele>10.3</ele>
        <time>2023-10-15T09:27:19Z</time>
      </trkpt>
      <trkpt lat="49.21251" lon="-0.0688">
        <ele>10.5</ele>
        <time>2023-10-15T09:27:20Z</time>
      </trkpt>
      <trkpt lat="49.21258" lon="-0.06881">
        <ele>10.7</ele>
        <time>2023-10-15T09:27:21Z</time>
      </trkpt>
      <trkpt lat="49.21266" lon="-0.06882">
        <ele>11</ele>
        <time>2023-10-15T09:27:22Z</time>
      </trkpt>
      <trkpt lat="49.21273" lon="-0.06883">
        <ele>11.2</ele>
        <time>2023-10-15T09:27:23Z</time>
      </trkpt>
      <trkpt lat="49.2128" lon="-0.06884">
        <ele>11.5</ele>
        <time>2023-10-15T09:27:24Z</time>
      </trkpt>
      <trkpt lat="49.21287" lon="-0.06885">
        <ele>11.7</ele>
        <time>2023-10-15T09:27:25Z</time>
      </trkpt>
      <trkpt lat="49.21294" lon="-0.06886">
        <ele>12</ele>
        <time>2023-10-15T09:27:26Z</time>
      </trkpt>
      <trkpt lat="49.21301" lon="-0.06887">
        <ele>12.3</ele>
        <time>2023-10-15T09:27:27Z</time>
      </trkpt>
      <trkpt lat="49.21308" lon="-0.06888">
        <ele>12.6</ele>
        <time>2023-10-15T09:27:28Z</time>
      </trkpt>
      <trkpt lat="49.21315" lon="-0.06889">
        <ele>12.9</ele>
        <time>2023-10-15T09:27:29Z</time>
      </trkpt>
      <trkpt lat="49.21322" lon="-0.06891">
        <ele>13.2</ele>
        <time>2023-10-15T09:27:30Z</time>
      </trkpt>
      <trkpt lat="49.21328" lon="-0.06892">
        <ele>13.5</ele>
        <time>2023-10-15T09:27:31Z</time>
      </trkpt>
      <trkpt lat="49.21335" lon="-0.06893">
        <ele>13.7</ele>
        <time>2023-10-15T09:27:32Z</time>
      </trkpt>
      <trkpt lat="49.21342" lon="-0.06894">
        <ele>13.9</ele>
        <time>2023-10-15T09:27:33Z</time>
      </trkpt>
      <trkpt lat="49.21348" lon="-0.06895">
        <ele>14.1</ele>
        <time>2023-10-15T09:27:34Z</time>
      </trkpt>
      <trkpt lat="49.21355" lon="-0.06896">
        <ele>14.3</ele>
        <time>2023-10-15T09:27:35Z</time>
      </trkpt>
      <trkpt lat="49.21362" lon="-0.06897">
        <ele>14.5</ele>
        <time>2023-10-15T09:27:36Z</time>
      </trkpt>
      <trkpt lat="49.21369" lon="-0.06898">
        <ele>14.6</ele>
        <time>2023-10-15T09:27:37Z</time>
      </trkpt>
      <trkpt lat="49.21376" lon="-0.06899">
        <ele>14.7</ele>
        <time>2023-10-15T09:27:38Z</time>
      </trkpt>
      <trkpt lat="49.21383" lon="-0.06899">
        <ele>14.8</ele>
        <time>2023-10-15T09:27:39Z</time>
      </trkpt>
      <trkpt lat="49.21389" lon="-0.06899">
        <ele>14.8</ele>
        <time>2023-10-15T09:27:40Z</time>
      </trkpt>
      <trkpt lat="49.21396" lon="-0.06899">
        <ele>14.8</ele>
        <time>2023-10-15T09:27:41Z</time>
      </trkpt>
      <trkpt lat="49.21403" lon="-0.06899">
        <ele>14.8</ele>
        <time>2023-10-15T09:27:42Z</time>
      </trkpt>
      <trkpt lat="49.21411" lon="-0.06898">
        <ele>14.7</ele>
        <time>2023-10-15T09:27:43Z</time>
      </trkpt>
      <trkpt lat="49.21418" lon="-0.06896">
        <ele>14.6</ele>
        <time>2023-10-15T09:27:44Z</time>
      </trkpt>
      <trkpt lat="49.21425" lon="-0.06895">
        <ele>14.5</ele>
        <time>2023-10-15T09:27:45Z</time>
      </trkpt>
      <trkpt lat="49.21433" lon="-0.06893">
        <ele>14.4</ele>
        <time>2023-10-15T09:27:46Z</time>
      </trkpt>
      <trkpt lat="49.2144" lon="-0.06891">
        <ele>14.3</ele>
        <time>2023-10-15T09:27:47Z</time>
      </trkpt>
      <trkpt lat="49.21447" lon="-0.0689">
        <ele>14.3</ele>
        <time>2023-10-15T09:27:48Z</time>
      </trkpt>
      <trkpt lat="49.21455" lon="-0.06889">
        <ele>14.2</ele>
        <time>2023-10-15T09:27:49Z</time>
      </trkpt>
      <trkpt lat="49.21462" lon="-0.06888">
        <ele>14.2</ele>
        <time>2023-10-15T09:27:50Z</time>
      </trkpt>
      <trkpt lat="49.2147" lon="-0.06888">
        <ele>14.2</ele>
        <time>2023-10-15T09:27:51Z</time>
      </trkpt>
      <trkpt lat="49.21478" lon="-0.06887">
        <ele>14.2</ele>
        <time>2023-10-15T09:27:52Z</time>
      </trkpt>
      <trkpt lat="49.21486" lon="-0.06886">
        <ele>14.2</ele>
        <time>2023-10-15T09:27:53Z</time>
      </trkpt>
      <trkpt lat="49.21493" lon="-0.06885">
        <ele>14.3</ele>
        <time>2023-10-15T09:27:54Z</time>
      </trkpt>
      <trkpt lat="49.215" lon="-0.06884">
        <ele>14.3</ele>
        <time>2023-10-15T09:27:55Z</time>
      </trkpt>
      <trkpt lat="49.21508" lon="-0.06883">
        <ele>14.5</ele>
        <time>2023-10-15T09:27:56Z</time>
      </trkpt>
      <trkpt lat="49.21515" lon="-0.06882">
        <ele>14.6</ele>
        <time>2023-10-15T09:27:57Z</time>
      </trkpt>
      <trkpt lat="49.21522" lon="-0.06881">
        <ele>14.8</ele>
        <time>2023-10-15T09:27:58Z</time>
      </trkpt>
      <trkpt lat="49.21529" lon="-0.0688">
        <ele>15</ele>
        <time>2023-10-15T09:27:59Z</time>
      </trkpt>
      <trkpt lat="49.21536" lon="-0.0688">
        <ele>15.2</ele>
        <time>2023-10-15T09:28:00Z</time>
      </trkpt>
      <trkpt lat="49.21543" lon="-0.06879">
        <ele>15.5</ele>
        <time>2023-10-15T09:28:01Z</time>
      </trkpt>
      <trkpt lat="49.2155" lon="-0.06878">
        <ele>15.7</ele>
        <time>2023-10-15T09:28:02Z</time>
      </trkpt>
      <trkpt lat="49.21557" lon="-0.06878">
        <ele>16.1</ele>
        <time>2023-10-15T09:28:03Z</time>
      </trkpt>
      <trkpt lat="49.21564" lon="-0.06877">
        <ele>16.4</ele>
        <time>2023-10-15T09:28:04Z</time>
      </trkpt>
      <trkpt lat="49.2157" lon="-0.06876">
        <ele>16.8</ele>
        <time>2023-10-15T09:28:05Z</time>
      </trkpt>
      <trkpt lat="49.21577" lon="-0.06876">
        <ele>17.1</ele>
        <time>2023-10-15T09:28:06Z</time>
      </trkpt>
      <trkpt lat="49.21583" lon="-0.06875">
        <ele>17.4</ele>
        <time>2023-10-15T09:28:07Z</time>
      </trkpt>
      <trkpt lat="49.21589" lon="-0.06874">
        <ele>17.7</ele>
        <time>2023-10-15T09:28:08Z</time>
      </trkpt>
      <trkpt lat="49.21595" lon="-0.06874">
        <ele>18</ele>
        <time>2023-10-15T09:28:09Z</time>
      </trkpt>
      <trkpt lat="49.21601" lon="-0.06873">
        <ele>18.4</ele>
        <time>2023-10-15T09:28:10Z</time>
      </trkpt>
      <trkpt lat="49.21607" lon="-0.06872">
        <ele>18.7</ele>
        <time>2023-10-15T09:28:11Z</time>
      </trkpt>
      <trkpt lat="49.21613" lon="-0.06871">
        <ele>19.1</ele>
        <time>2023-10-15T09:28:12Z</time>
      </trkpt>
      <trkpt lat="49.21618" lon="-0.06869">
        <ele>19.5</ele>
        <time>2023-10-15T09:28:13Z</time>
      </trkpt>
      <trkpt lat="49.21624" lon="-0.06867">
        <ele>19.9</ele>
        <time>2023-10-15T09:28:14Z</time>
      </trkpt>
      <trkpt lat="49.21629" lon="-0.06865">
        <ele>20.4</ele>
        <time>2023-10-15T09:28:15Z</time>
      </trkpt>
      <trkpt lat="49.21634" lon="-0.06861">
        <ele>20.8</ele>
        <time>2023-10-15T09:28:16Z</time>
      </trkpt>
      <trkpt lat="49.21639" lon="-0.06857">
        <ele>21.3</ele>
        <time>2023-10-15T09:28:17Z</time>
      </trkpt>
      <trkpt lat="49.21643" lon="-0.06853">
        <ele>21.7</ele>
        <time>2023-10-15T09:28:18Z</time>
      </trkpt>
      <trkpt lat="49.21647" lon="-0.06848">
        <ele>22</ele>
        <time>2023-10-15T09:28:19Z</time>
      </trkpt>
      <trkpt lat="49.21651" lon="-0.06843">
        <ele>22.4</ele>
        <time>2023-10-15T09:28:20Z</time>
      </trkpt>
      <trkpt lat="49.21654" lon="-0.06837">
        <ele>22.8</ele>
        <time>2023-10-15T09:28:21Z</time>
      </trkpt>
      <trkpt lat="49.21657" lon="-0.06831">
        <ele>23.3</ele>
        <time>2023-10-15T09:28:22Z</time>
      </trkpt>
      <trkpt lat="49.2166" lon="-0.06824">
        <ele>23.8</ele>
        <time>2023-10-15T09:28:23Z</time>
      </trkpt>
      <trkpt lat="49.21663" lon="-0.06817">
        <ele>24.3</ele>
        <time>2023-10-15T09:28:24Z</time>
      </trkpt>
      <trkpt lat="49.21665" lon="-0.06809">
        <ele>24.9</ele>
        <time>2023-10-15T09:28:25Z</time>
      </trkpt>
      <trkpt lat="49.21668" lon="-0.06802">
        <ele>25.4</ele>
        <time>2023-10-15T09:28:26Z</time>
      </trkpt>
      <trkpt lat="49.21671" lon="-0.06795">
        <ele>25.9</ele>
        <time>2023-10-15T09:28:27Z</time>
      </trkpt>
      <trkpt lat="49.21673" lon="-0.06787">
        <ele>26.4</ele>
        <time>2023-10-15T09:28:28Z</time>
      </trkpt>
      <trkpt lat="49.21677" lon="-0.06781">
        <ele>26.9</ele>
        <time>2023-10-15T09:28:29Z</time>
      </trkpt>
      <trkpt lat="49.21681" lon="-0.06775">
        <ele>27.3</ele>
        <time>2023-10-15T09:28:30Z</time>
      </trkpt>
      <trkpt lat="49.21686" lon="-0.06772">
        <ele>27.7</ele>
        <time>2023-10-15T09:28:31Z</time>
      </trkpt>
      <trkpt lat="49.21691" lon="-0.06769">
        <ele>28</ele>
        <time>2023-10-15T09:28:32Z</time>
      </trkpt>
      <trkpt lat="49.21697" lon="-0.06768">
        <ele>28.3</ele>
        <time>2023-10-15T09:28:33Z</time>
      </trkpt>
      <trkpt lat="49.21702" lon="-0.06768">
        <ele>28.5</ele>
        <time>2023-10-15T09:28:34Z</time>
      </trkpt>
      <trkpt lat="49.21708" lon="-0.06768">
        <ele>28.8</ele>
        <time>2023-10-15T09:28:35Z</time>
      </trkpt>
      <trkpt lat="49.21713" lon="-0.06769">
        <ele>29</ele>
        <time>2023-10-15T09:28:36Z</time>
      </trkpt>
      <trkpt lat="49.21719" lon="-0.0677">
        <ele>29</ele>
        <time>2023-10-15T09:28:37Z</time>
      </trkpt>
      <trkpt lat="49.21724" lon="-0.0677">
        <ele>29</ele>
        <time>2023-10-15T09:28:38Z</time>
      </trkpt>
      <trkpt lat="49.2173" lon="-0.06771">
        <ele>29.1</ele>
        <time>2023-10-15T09:28:39Z</time>
      </trkpt>
      <trkpt lat="49.21736" lon="-0.06771">
        <ele>29.1</ele>
        <time>2023-10-15T09:28:40Z</time>
      </trkpt>
      <trkpt lat="49.21742" lon="-0.06772">
        <ele>29.1</ele>
        <time>2023-10-15T09:28:41Z</time>
      </trkpt>
      <trkpt lat="49.21748" lon="-0.06772">
        <ele>29.1</ele>
        <time>2023-10-15T09:28:42Z</time>
      </trkpt>
      <trkpt lat="49.21754" lon="-0.06771">
        <ele>29.1</ele>
        <time>2023-10-15T09:28:43Z</time>
      </trkpt>
      <trkpt lat="49.2176" lon="-0.06771">
        <ele>29.1</ele>
        <time>2023-10-15T09:28:44Z</time>
      </trkpt>
      <trkpt lat="49.21766" lon="-0.06771">
        <ele>29</ele>
        <time>2023-10-15T09:28:45Z</time>
      </trkpt>
      <trkpt lat="49.21772" lon="-0.06771">
        <ele>29</ele>
        <time>2023-10-15T09:28:46Z</time>
      </trkpt>
      <trkpt lat="49.21778" lon="-0.06771">
        <ele>28.9</ele>
        <time>2023-10-15T09:28:47Z</time>
      </trkpt>
      <trkpt lat="49.21784" lon="-0.06772">
        <ele>28.8</ele>
        <time>2023-10-15T09:28:48Z</time>
      </trkpt>
      <trkpt lat="49.2179" lon="-0.06773">
        <ele>28.7</ele>
        <time>2023-10-15T09:28:49Z</time>
      </trkpt>
      <trkpt lat="49.21796" lon="-0.06774">
        <ele>28.6</ele>
        <time>2023-10-15T09:28:50Z</time>
      </trkpt>
      <trkpt lat="49.21803" lon="-0.06774">
        <ele>28.5</ele>
        <time>2023-10-15T09:28:51Z</time>
      </trkpt>
      <trkpt lat="49.21809" lon="-0.06775">
        <ele>28.4</ele>
        <time>2023-10-15T09:28:52Z</time>
      </trkpt>
      <trkpt lat="49.21815" lon="-0.06775">
        <ele>28.3</ele>
        <time>2023-10-15T09:28:53Z</time>
      </trkpt>
      <trkpt lat="49.21822" lon="-0.06777">
        <ele>28.1</ele>
        <time>2023-10-15T09:28:54Z</time>
      </trkpt>
      <trkpt lat="49.21828" lon="-0.06778">
        <ele>28</ele>
        <time>2023-10-15T09:28:55Z</time>
      </trkpt>
      <trkpt lat="49.21834" lon="-0.06782">
        <ele>27.8</ele>
        <time>2023-10-15T09:28:56Z</time>
      </trkpt>
      <trkpt lat="49.2184" lon="-0.06787">
        <ele>27.7</ele>
        <time>2023-10-15T09:28:57Z</time>
      </trkpt>
      <trkpt lat="49.21846" lon="-0.06794">
        <ele>27.5</ele>
        <time>2023-10-15T09:28:58Z</time>
      </trkpt>
      <trkpt lat="49.21852" lon="-0.06801">
        <ele>27.3</ele>
        <time>2023-10-15T09:28:59Z</time>
      </trkpt>
      <trkpt lat="49.21858" lon="-0.06809">
        <ele>27.1</ele>
        <time>2023-10-15T09:29:00Z</time>
      </trkpt>
      <trkpt lat="49.21863" lon="-0.06817">
        <ele>26.8</ele>
        <time>2023-10-15T09:29:01Z</time>
      </trkpt>
      <trkpt lat="49.21868" lon="-0.06826">
        <ele>26.6</ele>
        <time>2023-10-15T09:29:02Z</time>
      </trkpt>
      <trkpt lat="49.21873" lon="-0.06834">
        <ele>26.3</ele>
        <time>2023-10-15T09:29:03Z</time>
      </trkpt>
      <trkpt lat="49.21878" lon="-0.06843">
        <ele>26</ele>
        <time>2023-10-15T09:29:04Z</time>
      </trkpt>
      <trkpt lat="49.21888" lon="-0.0686">
        <ele>25.4</ele>
        <time>2023-10-15T09:29:06Z</time>
      </trkpt>
      <trkpt lat="49.21893" lon="-0.06867">
        <ele>25.1</ele>
        <time>2023-10-15T09:29:07Z</time>
      </trkpt>
      <trkpt lat="49.219" lon="-0.06874">
        <ele>24.8</ele>
        <time>2023-10-15T09:29:08Z</time>
      </trkpt>
      <trkpt lat="49.21907" lon="-0.0688">
        <ele>24.4</ele>
        <time>2023-10-15T09:29:09Z</time>
      </trkpt>
      <trkpt lat="49.21915" lon="-0.06884">
        <ele>24.3</ele>
        <time>2023-10-15T09:29:10Z</time>
      </trkpt>
      <trkpt lat="49.21923" lon="-0.06886">
        <ele>24</ele>
        <time>2023-10-15T09:29:11Z</time>
      </trkpt>
      <trkpt lat="49.21932" lon="-0.06888">
        <ele>23.5</ele>
        <time>2023-10-15T09:29:12Z</time>
      </trkpt>
      <trkpt lat="49.2194" lon="-0.06888">
        <ele>23.1</ele>
        <time>2023-10-15T09:29:13Z</time>
      </trkpt>
      <trkpt lat="49.21948" lon="-0.06888">
        <ele>22.6</ele>
        <time>2023-10-15T09:29:14Z</time>
      </trkpt>
      <trkpt lat="49.21957" lon="-0.06887">
        <ele>22.1</ele>
        <time>2023-10-15T09:29:15Z</time>
      </trkpt>
      <trkpt lat="49.21966" lon="-0.06885">
        <ele>21.6</ele>
        <time>2023-10-15T09:29:16Z</time>
      </trkpt>
      <trkpt lat="49.21974" lon="-0.06884">
        <ele>21.1</ele>
        <time>2023-10-15T09:29:17Z</time>
      </trkpt>
      <trkpt lat="49.21983" lon="-0.06882">
        <ele>20.8</ele>
        <time>2023-10-15T09:29:18Z</time>
      </trkpt>
      <trkpt lat="49.21992" lon="-0.06881">
        <ele>20.4</ele>
        <time>2023-10-15T09:29:19Z</time>
      </trkpt>
      <trkpt lat="49.22001" lon="-0.06879">
        <ele>19.9</ele>
        <time>2023-10-15T09:29:20Z</time>
      </trkpt>
      <trkpt lat="49.2201" lon="-0.06877">
        <ele>19.5</ele>
        <time>2023-10-15T09:29:21Z</time>
      </trkpt>
      <trkpt lat="49.22019" lon="-0.06876">
        <ele>19</ele>
        <time>2023-10-15T09:29:22Z</time>
      </trkpt>
      <trkpt lat="49.22028" lon="-0.06874">
        <ele>18.6</ele>
        <time>2023-10-15T09:29:23Z</time>
      </trkpt>
      <trkpt lat="49.22037" lon="-0.06872">
        <ele>18.1</ele>
        <time>2023-10-15T09:29:24Z</time>
      </trkpt>
      <trkpt lat="49.22047" lon="-0.06871">
        <ele>17.6</ele>
        <time>2023-10-15T09:29:25Z</time>
      </trkpt>
      <trkpt lat="49.22056" lon="-0.06869">
        <ele>17.2</ele>
        <time>2023-10-15T09:29:26Z</time>
      </trkpt>
      <trkpt lat="49.22066" lon="-0.06868">
        <ele>16.8</ele>
        <time>2023-10-15T09:29:27Z</time>
      </trkpt>
      <trkpt lat="49.22075" lon="-0.06866">
        <ele>16.3</ele>
        <time>2023-10-15T09:29:28Z</time>
      </trkpt>
      <trkpt lat="49.22084" lon="-0.06864">
        <ele>16</ele>
        <time>2023-10-15T09:29:29Z</time>
      </trkpt>
      <trkpt lat="49.22093" lon="-0.06862">
        <ele>15.6</ele>
        <time>2023-10-15T09:29:30Z</time>
      </trkpt>
      <trkpt lat="49.22102" lon="-0.0686">
        <ele>15.2</ele>
        <time>2023-10-15T09:29:31Z</time>
      </trkpt>
      <trkpt lat="49.22111" lon="-0.06858">
        <ele>14.8</ele>
        <time>2023-10-15T09:29:32Z</time>
      </trkpt>
      <trkpt lat="49.2212" lon="-0.06856">
        <ele>14.5</ele>
        <time>2023-10-15T09:29:33Z</time>
      </trkpt>
      <trkpt lat="49.2213" lon="-0.06855">
        <ele>14.1</ele>
        <time>2023-10-15T09:29:34Z</time>
      </trkpt>
      <trkpt lat="49.22139" lon="-0.06853">
        <ele>13.7</ele>
        <time>2023-10-15T09:29:35Z</time>
      </trkpt>
      <trkpt lat="49.22149" lon="-0.06852">
        <ele>13.4</ele>
        <time>2023-10-15T09:29:36Z</time>
      </trkpt>
      <trkpt lat="49.22159" lon="-0.0685">
        <ele>13.1</ele>
        <time>2023-10-15T09:29:37Z</time>
      </trkpt>
      <trkpt lat="49.22169" lon="-0.06849">
        <ele>12.8</ele>
        <time>2023-10-15T09:29:38Z</time>
      </trkpt>
      <trkpt lat="49.22178" lon="-0.06848">
        <ele>12.6</ele>
        <time>2023-10-15T09:29:39Z</time>
      </trkpt>
      <trkpt lat="49.22188" lon="-0.06847">
        <ele>12.5</ele>
        <time>2023-10-15T09:29:40Z</time>
      </trkpt>
      <trkpt lat="49.22197" lon="-0.06847">
        <ele>12.4</ele>
        <time>2023-10-15T09:29:41Z</time>
      </trkpt>
      <trkpt lat="49.22207" lon="-0.06846">
        <ele>12.4</ele>
        <time>2023-10-15T09:29:42Z</time>
      </trkpt>
      <trkpt lat="49.22216" lon="-0.06846">
        <ele>12.4</ele>
        <time>2023-10-15T09:29:43Z</time>
      </trkpt>
      <trkpt lat="49.22225" lon="-0.06846">
        <ele>12.4</ele>
        <time>2023-10-15T09:29:44Z</time>
      </trkpt>
      <trkpt lat="49.22234" lon="-0.06846">
        <ele>12.5</ele>
        <time>2023-10-15T09:29:45Z</time>
      </trkpt>
      <trkpt lat="49.22242" lon="-0.06846">
        <ele>12.6</ele>
        <time>2023-10-15T09:29:46Z</time>
      </trkpt>
      <trkpt lat="49.2225" lon="-0.06846">
        <ele>12.7</ele>
        <time>2023-10-15T09:29:47Z</time>
      </trkpt>
      <trkpt lat="49.22258" lon="-0.06846">
        <ele>12.8</ele>
        <time>2023-10-15T09:29:48Z</time>
      </trkpt>
      <trkpt lat="49.22266" lon="-0.06846">
        <ele>12.9</ele>
        <time>2023-10-15T09:29:49Z</time>
      </trkpt>
      <trkpt lat="49.22274" lon="-0.06846">
        <ele>13</ele>
        <time>2023-10-15T09:29:50Z</time>
      </trkpt>
      <trkpt lat="49.22282" lon="-0.06846">
        <ele>13.2</ele>
        <time>2023-10-15T09:29:51Z</time>
      </trkpt>
      <trkpt lat="49.2229" lon="-0.06846">
        <ele>13.3</ele>
        <time>2023-10-15T09:29:52Z</time>
      </trkpt>
      <trkpt lat="49.22297" lon="-0.06846">
        <ele>13.5</ele>
        <time>2023-10-15T09:29:53Z</time>
      </trkpt>
      <trkpt lat="49.22305" lon="-0.06845">
        <ele>13.6</ele>
        <time>2023-10-15T09:29:54Z</time>
      </trkpt>
      <trkpt lat="49.22312" lon="-0.06846">
        <ele>13.8</ele>
        <time>2023-10-15T09:29:55Z</time>
      </trkpt>
      <trkpt lat="49.2232" lon="-0.06846">
        <ele>13.9</ele>
        <time>2023-10-15T09:29:56Z</time>
      </trkpt>
      <trkpt lat="49.22327" lon="-0.06846">
        <ele>14</ele>
        <time>2023-10-15T09:29:57Z</time>
      </trkpt>
      <trkpt lat="49.22334" lon="-0.06846">
        <ele>14.1</ele>
        <time>2023-10-15T09:29:58Z</time>
      </trkpt>
      <trkpt lat="49.22342" lon="-0.06846">
        <ele>14.3</ele>
        <time>2023-10-15T09:29:59Z</time>
      </trkpt>
      <trkpt lat="49.22349" lon="-0.06846">
        <ele>14.4</ele>
        <time>2023-10-15T09:30:00Z</time>
      </trkpt>
      <trkpt lat="49.22357" lon="-0.06846">
        <ele>14.6</ele>
        <time>2023-10-15T09:30:01Z</time>
      </trkpt>
      <trkpt lat="49.22365" lon="-0.06846">
        <ele>14.8</ele>
        <time>2023-10-15T09:30:02Z</time>
      </trkpt>
      <trkpt lat="49.22372" lon="-0.06846">
        <ele>15</ele>
        <time>2023-10-15T09:30:03Z</time>
      </trkpt>
      <trkpt lat="49.22379" lon="-0.06846">
        <ele>15.2</ele>
        <time>2023-10-15T09:30:04Z</time>
      </trkpt>
      <trkpt lat="49.22385" lon="-0.06846">
        <ele>15.4</ele>
        <time>2023-10-15T09:30:05Z</time>
      </trkpt>
      <trkpt lat="49.22392" lon="-0.06846">
        <ele>15.4</ele>
        <time>2023-10-15T09:30:06Z</time>
      </trkpt>
      <trkpt lat="49.22398" lon="-0.06847">
        <ele>15.5</ele>
        <time>2023-10-15T09:30:07Z</time>
      </trkpt>
      <trkpt lat="49.22404" lon="-0.06846">
        <ele>15.6</ele>
        <time>2023-10-15T09:30:08Z</time>
      </trkpt>
      <trkpt lat="49.2241" lon="-0.06846">
        <ele>15.7</ele>
        <time>2023-10-15T09:30:09Z</time>
      </trkpt>
      <trkpt lat="49.22415" lon="-0.06846">
        <ele>15.8</ele>
        <time>2023-10-15T09:30:10Z</time>
      </trkpt>
      <trkpt lat="49.22419" lon="-0.06846">
        <ele>15.9</ele>
        <time>2023-10-15T09:30:11Z</time>
      </trkpt>
      <trkpt lat="49.22424" lon="-0.06846">
        <ele>16.1</ele>
        <time>2023-10-15T09:30:12Z</time>
      </trkpt>
      <trkpt lat="49.22427" lon="-0.06847">
        <ele>16.2</ele>
        <time>2023-10-15T09:30:13Z</time>
      </trkpt>
      <trkpt lat="49.2243" lon="-0.06847">
        <ele>16.3</ele>
        <time>2023-10-15T09:30:14Z</time>
      </trkpt>
      <trkpt lat="49.22433" lon="-0.06848">
        <ele>16.4</ele>
        <time>2023-10-15T09:30:15Z</time>
      </trkpt>
      <trkpt lat="49.22437" lon="-0.06848">
        <ele>16.5</ele>
        <time>2023-10-15T09:30:16Z</time>
      </trkpt>
      <trkpt lat="49.22438" lon="-0.06849">
        <ele>16.5</ele>
        <time>2023-10-15T09:30:17Z</time>
      </trkpt>
      <trkpt lat="49.22443" lon="-0.06848">
        <ele>16.7</ele>
        <time>2023-10-15T09:30:18Z</time>
      </trkpt>
      <trkpt lat="49.22444" lon="-0.06848">
        <ele>16.7</ele>
        <time>2023-10-15T09:30:19Z</time>
      </trkpt>
      <trkpt lat="49.22447" lon="-0.06848">
        <ele>16.7</ele>
        <time>2023-10-15T09:30:20Z</time>
      </trkpt>
      <trkpt lat="49.2245" lon="-0.06848">
        <ele>16.7</ele>
        <time>2023-10-15T09:30:21Z</time>
      </trkpt>
      <trkpt lat="49.22453" lon="-0.06848">
        <ele>16.7</ele>
        <time>2023-10-15T09:30:22Z</time>
      </trkpt>
      <trkpt lat="49.22457" lon="-0.06849">
        <ele>16.7</ele>
        <time>2023-10-15T09:30:23Z</time>
      </trkpt>
      <trkpt lat="49.22461" lon="-0.06849">
        <ele>16.6</ele>
        <time>2023-10-15T09:30:24Z</time>
      </trkpt>
      <trkpt lat="49.22465" lon="-0.06849">
        <ele>16.5</ele>
        <time>2023-10-15T09:30:25Z</time>
      </trkpt>
      <trkpt lat="49.22468" lon="-0.0685">
        <ele>16.5</ele>
        <time>2023-10-15T09:30:26Z</time>
      </trkpt>
      <trkpt lat="49.22472" lon="-0.06852">
        <ele>16.4</ele>
        <time>2023-10-15T09:30:27Z</time>
      </trkpt>
      <trkpt lat="49.22475" lon="-0.06853">
        <ele>16.4</ele>
        <time>2023-10-15T09:30:28Z</time>
      </trkpt>
      <trkpt lat="49.22479" lon="-0.06854">
        <ele>16.3</ele>
        <time>2023-10-15T09:30:29Z</time>
      </trkpt>
      <trkpt lat="49.22482" lon="-0.06854">
        <ele>16.3</ele>
        <time>2023-10-15T09:30:30Z</time>
      </trkpt>
      <trkpt lat="49.22486" lon="-0.06855">
        <ele>16.3</ele>
        <time>2023-10-15T09:30:31Z</time>
      </trkpt>
      <trkpt lat="49.22489" lon="-0.06856">
        <ele>16.3</ele>
        <time>2023-10-15T09:30:32Z</time>
      </trkpt>
      <trkpt lat="49.22493" lon="-0.06857">
        <ele>16.4</ele>
        <time>2023-10-15T09:30:33Z</time>
      </trkpt>
      <trkpt lat="49.22497" lon="-0.06858">
        <ele>16.4</ele>
        <time>2023-10-15T09:30:34Z</time>
      </trkpt>
      <trkpt lat="49.22501" lon="-0.06859">
        <ele>16.4</ele>
        <time>2023-10-15T09:30:35Z</time>
      </trkpt>
      <trkpt lat="49.22505" lon="-0.0686">
        <ele>16.5</ele>
        <time>2023-10-15T09:30:36Z</time>
      </trkpt>
      <trkpt lat="49.22508" lon="-0.06861">
        <ele>16.5</ele>
        <time>2023-10-15T09:30:37Z</time>
      </trkpt>
      <trkpt lat="49.22512" lon="-0.06862">
        <ele>16.6</ele>
        <time>2023-10-15T09:30:38Z</time>
      </trkpt>
      <trkpt lat="49.22516" lon="-0.06863">
        <ele>16.7</ele>
        <time>2023-10-15T09:30:39Z</time>
      </trkpt>
      <trkpt lat="49.22519" lon="-0.06863">
        <ele>16.7</ele>
        <time>2023-10-15T09:30:40Z</time>
      </trkpt>
      <trkpt lat="49.22523" lon="-0.06864">
        <ele>16.8</ele>
        <time>2023-10-15T09:30:41Z</time>
      </trkpt>
      <trkpt lat="49.22527" lon="-0.06866">
        <ele>16.9</ele>
        <time>2023-10-15T09:30:42Z</time>
      </trkpt>
      <trkpt lat="49.22531" lon="-0.06867">
        <ele>17</ele>
        <time>2023-10-15T09:30:43Z</time>
      </trkpt>
      <trkpt lat="49.22535" lon="-0.06868">
        <ele>17.1</ele>
        <time>2023-10-15T09:30:44Z</time>
      </trkpt>
      <trkpt lat="49.22539" lon="-0.06869">
        <ele>17.2</ele>
        <time>2023-10-15T09:30:45Z</time>
      </trkpt>
      <trkpt lat="49.22544" lon="-0.0687">
        <ele>17.4</ele>
        <time>2023-10-15T09:30:46Z</time>
      </trkpt>
      <trkpt lat="49.22548" lon="-0.06871">
        <ele>17.5</ele>
        <time>2023-10-15T09:30:47Z</time>
      </trkpt>
      <trkpt lat="49.22552" lon="-0.06872">
        <ele>17.6</ele>
        <time>2023-10-15T09:30:48Z</time>
      </trkpt>
      <trkpt lat="49.22557" lon="-0.06873">
        <ele>17.8</ele>
        <time>2023-10-15T09:30:49Z</time>
      </trkpt>
      <trkpt lat="49.22561" lon="-0.06874">
        <ele>18</ele>
        <time>2023-10-15T09:30:50Z</time>
      </trkpt>
      <trkpt lat="49.22566" lon="-0.06875">
        <ele>18.1</ele>
        <time>2023-10-15T09:30:51Z</time>
      </trkpt>
      <trkpt lat="49.22571" lon="-0.06876">
        <ele>18.3</ele>
        <time>2023-10-15T09:30:52Z</time>
      </trkpt>
      <trkpt lat="49.22575" lon="-0.06877">
        <ele>18.5</ele>
        <time>2023-10-15T09:30:53Z</time>
      </trkpt>
      <trkpt lat="49.2258" lon="-0.06878">
        <ele>18.6</ele>
        <time>2023-10-15T09:30:54Z</time>
      </trkpt>
      <trkpt lat="49.22585" lon="-0.06878">
        <ele>18.8</ele>
        <time>2023-10-15T09:30:55Z</time>
      </trkpt>
      <trkpt lat="49.2259" lon="-0.0688">
        <ele>19</ele>
        <time>2023-10-15T09:30:56Z</time>
      </trkpt>
      <trkpt lat="49.22596" lon="-0.06881">
        <ele>19.2</ele>
        <time>2023-10-15T09:30:57Z</time>
      </trkpt>
      <trkpt lat="49.22601" lon="-0.06882">
        <ele>19.4</ele>
        <time>2023-10-15T09:30:58Z</time>
      </trkpt>
      <trkpt lat="49.22606" lon="-0.06884">
        <ele>19.5</ele>
        <time>2023-10-15T09:30:59Z</time>
      </trkpt>
      <trkpt lat="49.22611" lon="-0.06885">
        <ele>19.7</ele>
        <time>2023-10-15T09:31:00Z</time>
      </trkpt>
      <trkpt lat="49.22616" lon="-0.06887">
        <ele>19.9</ele>
        <time>2023-10-15T09:31:01Z</time>
      </trkpt>
      <trkpt lat="49.22621" lon="-0.06888">
        <ele>20.1</ele>
        <time>2023-10-15T09:31:02Z</time>
      </trkpt>
      <trkpt lat="49.22625" lon="-0.06889">
        <ele>20.3</ele>
        <time>2023-10-15T09:31:03Z</time>
      </trkpt>
      <trkpt lat="49.2263" lon="-0.06891">
        <ele>20.5</ele>
        <time>2023-10-15T09:31:04Z</time>
      </trkpt>
      <trkpt lat="49.22635" lon="-0.06892">
        <ele>20.7</ele>
        <time>2023-10-15T09:31:05Z</time>
      </trkpt>
      <trkpt lat="49.2264" lon="-0.06893">
        <ele>20.9</ele>
        <time>2023-10-15T09:31:06Z</time>
      </trkpt>
      <trkpt lat="49.22644" lon="-0.06894">
        <ele>21.1</ele>
        <time>2023-10-15T09:31:07Z</time>
      </trkpt>
      <trkpt lat="49.22649" lon="-0.06896">
        <ele>21.3</ele>
        <time>2023-10-15T09:31:08Z</time>
      </trkpt>
      <trkpt lat="49.22653" lon="-0.06896">
        <ele>21.5</ele>
        <time>2023-10-15T09:31:09Z</time>
      </trkpt>
      <trkpt lat="49.22658" lon="-0.06897">
        <ele>21.6</ele>
        <time>2023-10-15T09:31:10Z</time>
      </trkpt>
      <trkpt lat="49.22662" lon="-0.06898">
        <ele>21.8</ele>
        <time>2023-10-15T09:31:11Z</time>
      </trkpt>
      <trkpt lat="49.22667" lon="-0.06899">
        <ele>22</ele>
        <time>2023-10-15T09:31:12Z</time>
      </trkpt>
      <trkpt lat="49.22672" lon="-0.06901">
        <ele>22.1</ele>
        <time>2023-10-15T09:31:13Z</time>
      </trkpt>
      <trkpt lat="49.22677" lon="-0.06902">
        <ele>22.3</ele>
        <time>2023-10-15T09:31:14Z</time>
      </trkpt>
      <trkpt lat="49.22682" lon="-0.06902">
        <ele>22.4</ele>
        <time>2023-10-15T09:31:15Z</time>
      </trkpt>
      <trkpt lat="49.22687" lon="-0.06903">
        <ele>22.6</ele>
        <time>2023-10-15T09:31:16Z</time>
      </trkpt>
      <trkpt lat="49.22692" lon="-0.06904">
        <ele>22.7</ele>
        <time>2023-10-15T09:31:17Z</time>
      </trkpt>
      <trkpt lat="49.22697" lon="-0.06906">
        <ele>22.8</ele>
        <time>2023-10-15T09:31:18Z</time>
      </trkpt>
      <trkpt lat="49.22702" lon="-0.06907">
        <ele>22.9</ele>
        <time>2023-10-15T09:31:19Z</time>
      </trkpt>
      <trkpt lat="49.22707" lon="-0.06908">
        <ele>23</ele>
        <time>2023-10-15T09:31:20Z</time>
      </trkpt>
      <trkpt lat="49.22712" lon="-0.06908">
        <ele>23.1</ele>
        <time>2023-10-15T09:31:21Z</time>
      </trkpt>
      <trkpt lat="49.22716" lon="-0.06909">
        <ele>23.1</ele>
        <time>2023-10-15T09:31:22Z</time>
      </trkpt>
      <trkpt lat="49.22721" lon="-0.06911">
        <ele>23.2</ele>
        <time>2023-10-15T09:31:23Z</time>
      </trkpt>
      <trkpt lat="49.22727" lon="-0.06912">
        <ele>23.3</ele>
        <time>2023-10-15T09:31:24Z</time>
      </trkpt>
      <trkpt lat="49.22732" lon="-0.06914">
        <ele>23.4</ele>
        <time>2023-10-15T09:31:25Z</time>
      </trkpt>
      <trkpt lat="49.22737" lon="-0.06915">
        <ele>23.5</ele>
        <time>2023-10-15T09:31:26Z</time>
      </trkpt>
      <trkpt lat="49.22743" lon="-0.06916">
        <ele>23.6</ele>
        <time>2023-10-15T09:31:27Z</time>
      </trkpt>
      <trkpt lat="49.22749" lon="-0.06918">
        <ele>23.7</ele>
        <time>2023-10-15T09:31:28Z</time>
      </trkpt>
      <trkpt lat="49.22755" lon="-0.06919">
        <ele>23.7</ele>
        <time>2023-10-15T09:31:29Z</time>
      </trkpt>
      <trkpt lat="49.22761" lon="-0.0692">
        <ele>23.8</ele>
        <time>2023-10-15T09:31:30Z</time>
      </trkpt>
      <trkpt lat="49.22766" lon="-0.06921">
        <ele>23.8</ele>
        <time>2023-10-15T09:31:31Z</time>
      </trkpt>
      <trkpt lat="49.22772" lon="-0.06922">
        <ele>23.8</ele>
        <time>2023-10-15T09:31:32Z</time>
      </trkpt>
      <trkpt lat="49.22778" lon="-0.06923">
        <ele>23.8</ele>
        <time>2023-10-15T09:31:33Z</time>
      </trkpt>
      <trkpt lat="49.22783" lon="-0.06924">
        <ele>23.8</ele>
        <time>2023-10-15T09:31:34Z</time>
      </trkpt>
      <trkpt lat="49.22789" lon="-0.06925">
        <ele>23.7</ele>
        <time>2023-10-15T09:31:35Z</time>
      </trkpt>
      <trkpt lat="49.22795" lon="-0.06926">
        <ele>23.6</ele>
        <time>2023-10-15T09:31:36Z</time>
      </trkpt>
      <trkpt lat="49.22802" lon="-0.06928">
        <ele>23.5</ele>
        <time>2023-10-15T09:31:37Z</time>
      </trkpt>
      <trkpt lat="49.22808" lon="-0.06929">
        <ele>23.3</ele>
        <time>2023-10-15T09:31:38Z</time>
      </trkpt>
      <trkpt lat="49.22815" lon="-0.06931">
        <ele>23.1</ele>
        <time>2023-10-15T09:31:39Z</time>
      </trkpt>
      <trkpt lat="49.22822" lon="-0.06933">
        <ele>22.9</ele>
        <time>2023-10-15T09:31:40Z</time>
      </trkpt>
      <trkpt lat="49.22829" lon="-0.06934">
        <ele>22.7</ele>
        <time>2023-10-15T09:31:41Z</time>
      </trkpt>
      <trkpt lat="49.22836" lon="-0.06935">
        <ele>22.5</ele>
        <time>2023-10-15T09:31:42Z</time>
      </trkpt>
      <trkpt lat="49.22843" lon="-0.06936">
        <ele>22.2</ele>
        <time>2023-10-15T09:31:43Z</time>
      </trkpt>
      <trkpt lat="49.2285" lon="-0.06938">
        <ele>22</ele>
        <time>2023-10-15T09:31:44Z</time>
      </trkpt>
      <trkpt lat="49.22858" lon="-0.06939">
        <ele>21.7</ele>
        <time>2023-10-15T09:31:45Z</time>
      </trkpt>
      <trkpt lat="49.22867" lon="-0.06939">
        <ele>21.4</ele>
        <time>2023-10-15T09:31:46Z</time>
      </trkpt>
      <trkpt lat="49.22876" lon="-0.06937">
        <ele>21</ele>
        <time>2023-10-15T09:31:47Z</time>
      </trkpt>
      <trkpt lat="49.22884" lon="-0.06934">
        <ele>20.7</ele>
        <time>2023-10-15T09:31:48Z</time>
      </trkpt>
      <trkpt lat="49.22893" lon="-0.0693">
        <ele>20.4</ele>
        <time>2023-10-15T09:31:49Z</time>
      </trkpt>
      <trkpt lat="49.229" lon="-0.06923">
        <ele>20.2</ele>
        <time>2023-10-15T09:31:50Z</time>
      </trkpt>
      <trkpt lat="49.22907" lon="-0.06915">
        <ele>19.9</ele>
        <time>2023-10-15T09:31:51Z</time>
      </trkpt>
      <trkpt lat="49.22914" lon="-0.06906">
        <ele>19.6</ele>
        <time>2023-10-15T09:31:52Z</time>
      </trkpt>
      <trkpt lat="49.22919" lon="-0.06896">
        <ele>19.4</ele>
        <time>2023-10-15T09:31:53Z</time>
      </trkpt>
      <trkpt lat="49.22924" lon="-0.06885">
        <ele>19.2</ele>
        <time>2023-10-15T09:31:54Z</time>
      </trkpt>
      <trkpt lat="49.22927" lon="-0.06873">
        <ele>19</ele>
        <time>2023-10-15T09:31:55Z</time>
      </trkpt>
      <trkpt lat="49.22931" lon="-0.0686">
        <ele>18.7</ele>
        <time>2023-10-15T09:31:56Z</time>
      </trkpt>
      <trkpt lat="49.22934" lon="-0.06847">
        <ele>18.5</ele>
        <time>2023-10-15T09:31:57Z</time>
      </trkpt>
      <trkpt lat="49.22937" lon="-0.06835">
        <ele>18.3</ele>
        <time>2023-10-15T09:31:58Z</time>
      </trkpt>
      <trkpt lat="49.22942" lon="-0.06822">
        <ele>18</ele>
        <time>2023-10-15T09:31:59Z</time>
      </trkpt>
      <trkpt lat="49.22946" lon="-0.06811">
        <ele>17.7</ele>
        <time>2023-10-15T09:32:00Z</time>
      </trkpt>
      <trkpt lat="49.22952" lon="-0.06799">
        <ele>17.4</ele>
        <time>2023-10-15T09:32:01Z</time>
      </trkpt>
      <trkpt lat="49.22958" lon="-0.06788">
        <ele>17.1</ele>
        <time>2023-10-15T09:32:02Z</time>
      </trkpt>
      <trkpt lat="49.22965" lon="-0.06779">
        <ele>16.8</ele>
        <time>2023-10-15T09:32:03Z</time>
      </trkpt>
      <trkpt lat="49.22972" lon="-0.06771">
        <ele>16.5</ele>
        <time>2023-10-15T09:32:04Z</time>
      </trkpt>
      <trkpt lat="49.22981" lon="-0.06764">
        <ele>16.1</ele>
        <time>2023-10-15T09:32:05Z</time>
      </trkpt>
      <trkpt lat="49.22989" lon="-0.06757">
        <ele>15.8</ele>
        <time>2023-10-15T09:32:06Z</time>
      </trkpt>
      <trkpt lat="49.22998" lon="-0.06753">
        <ele>15.5</ele>
        <time>2023-10-15T09:32:07Z</time>
      </trkpt>
      <trkpt lat="49.23007" lon="-0.06749">
        <ele>15.2</ele>
        <time>2023-10-15T09:32:08Z</time>
      </trkpt>
      <trkpt lat="49.23017" lon="-0.06748">
        <ele>14.9</ele>
        <time>2023-10-15T09:32:09Z</time>
      </trkpt>
      <trkpt lat="49.23026" lon="-0.06748">
        <ele>14.7</ele>
        <time>2023-10-15T09:32:10Z</time>
      </trkpt>
      <trkpt lat="49.23035" lon="-0.0675">
        <ele>14.4</ele>
        <time>2023-10-15T09:32:11Z</time>
      </trkpt>
      <trkpt lat="49.23045" lon="-0.06753">
        <ele>14.1</ele>
        <time>2023-10-15T09:32:12Z</time>
      </trkpt>
      <trkpt lat="49.23055" lon="-0.06756">
        <ele>13.7</ele>
        <time>2023-10-15T09:32:13Z</time>
      </trkpt>
      <trkpt lat="49.23065" lon="-0.06761">
        <ele>13.4</ele>
        <time>2023-10-15T09:32:14Z</time>
      </trkpt>
      <trkpt lat="49.23075" lon="-0.06766">
        <ele>13</ele>
        <time>2023-10-15T09:32:15Z</time>
      </trkpt>
      <trkpt lat="49.23084" lon="-0.06771">
        <ele>12.8</ele>
        <time>2023-10-15T09:32:16Z</time>
      </trkpt>
      <trkpt lat="49.23094" lon="-0.06776">
        <ele>12.5</ele>
        <time>2023-10-15T09:32:17Z</time>
      </trkpt>
      <trkpt lat="49.23104" lon="-0.06781">
        <ele>12.3</ele>
        <time>2023-10-15T09:32:18Z</time>
      </trkpt>
      <trkpt lat="49.23114" lon="-0.06786">
        <ele>12.1</ele>
        <time>2023-10-15T09:32:19Z</time>
      </trkpt>
      <trkpt lat="49.23124" lon="-0.06792">
        <ele>11.9</ele>
        <time>2023-10-15T09:32:20Z</time>
      </trkpt>
      <trkpt lat="49.23134" lon="-0.06797">
        <ele>11.8</ele>
        <time>2023-10-15T09:32:21Z</time>
      </trkpt>
      <trkpt lat="49.23143" lon="-0.06802">
        <ele>11.7</ele>
        <time>2023-10-15T09:32:22Z</time>
      </trkpt>
      <trkpt lat="49.23152" lon="-0.06807">
        <ele>11.6</ele>
        <time>2023-10-15T09:32:23Z</time>
      </trkpt>
      <trkpt lat="49.23181" lon="-0.06825">
        <ele>11.5</ele>
        <time>2023-10-15T09:32:26Z</time>
      </trkpt>
      <trkpt lat="49.23189" lon="-0.06827">
        <ele>11.5</ele>
        <time>2023-10-15T09:32:27Z</time>
      </trkpt>
      <trkpt lat="49.23197" lon="-0.06829">
        <ele>11.4</ele>
        <time>2023-10-15T09:32:28Z</time>
      </trkpt>
      <trkpt lat="49.23204" lon="-0.06832">
        <ele>11.4</ele>
        <time>2023-10-15T09:32:29Z</time>
      </trkpt>
      <trkpt lat="49.23211" lon="-0.06836">
        <ele>11.4</ele>
        <time>2023-10-15T09:32:30Z</time>
      </trkpt>
      <trkpt lat="49.23219" lon="-0.0684">
        <ele>11.4</ele>
        <time>2023-10-15T09:32:31Z</time>
      </trkpt>
      <trkpt lat="49.23227" lon="-0.06844">
        <ele>11.4</ele>
        <time>2023-10-15T09:32:32Z</time>
      </trkpt>
      <trkpt lat="49.23235" lon="-0.06847">
        <ele>11.3</ele>
        <time>2023-10-15T09:32:33Z</time>
      </trkpt>
      <trkpt lat="49.23243" lon="-0.06851">
        <ele>11.3</ele>
        <time>2023-10-15T09:32:34Z</time>
      </trkpt>
      <trkpt lat="49.23251" lon="-0.06855">
        <ele>11.2</ele>
        <time>2023-10-15T09:32:35Z</time>
      </trkpt>
      <trkpt lat="49.23258" lon="-0.06859">
        <ele>11.2</ele>
        <time>2023-10-15T09:32:36Z</time>
      </trkpt>
      <trkpt lat="49.23267" lon="-0.06863">
        <ele>11.1</ele>
        <time>2023-10-15T09:32:37Z</time>
      </trkpt>
      <trkpt lat="49.23275" lon="-0.06867">
        <ele>11.1</ele>
        <time>2023-10-15T09:32:38Z</time>
      </trkpt>
      <trkpt lat="49.23283" lon="-0.06871">
        <ele>11</ele>
        <time>2023-10-15T09:32:39Z</time>
      </trkpt>
      <trkpt lat="49.23291" lon="-0.06876">
        <ele>10.9</ele>
        <time>2023-10-15T09:32:40Z</time>
      </trkpt>
      <trkpt lat="49.23299" lon="-0.0688">
        <ele>10.8</ele>
        <time>2023-10-15T09:32:41Z</time>
      </trkpt>
      <trkpt lat="49.23307" lon="-0.06884">
        <ele>10.7</ele>
        <time>2023-10-15T09:32:42Z</time>
      </trkpt>
      <trkpt lat="49.23315" lon="-0.06889">
        <ele>10.5</ele>
        <time>2023-10-15T09:32:43Z</time>
      </trkpt>
      <trkpt lat="49.23323" lon="-0.06893">
        <ele>10.4</ele>
        <time>2023-10-15T09:32:44Z</time>
      </trkpt>
      <trkpt lat="49.23331" lon="-0.06898">
        <ele>10.2</ele>
        <time>2023-10-15T09:32:45Z</time>
      </trkpt>
      <trkpt lat="49.23339" lon="-0.06902">
        <ele>10.1</ele>
        <time>2023-10-15T09:32:46Z</time>
      </trkpt>
      <trkpt lat="49.23346" lon="-0.06906">
        <ele>9.9</ele>
        <time>2023-10-15T09:32:47Z</time>
      </trkpt>
      <trkpt lat="49.23354" lon="-0.0691">
        <ele>9.8</ele>
        <time>2023-10-15T09:32:48Z</time>
      </trkpt>
      <trkpt lat="49.23362" lon="-0.06914">
        <ele>9.6</ele>
        <time>2023-10-15T09:32:49Z</time>
      </trkpt>
      <trkpt lat="49.23369" lon="-0.06918">
        <ele>9.5</ele>
        <time>2023-10-15T09:32:50Z</time>
      </trkpt>
      <trkpt lat="49.23377" lon="-0.06922">
        <ele>9.3</ele>
        <time>2023-10-15T09:32:51Z</time>
      </trkpt>
      <trkpt lat="49.23385" lon="-0.06927">
        <ele>9.2</ele>
        <time>2023-10-15T09:32:52Z</time>
      </trkpt>
      <trkpt lat="49.23393" lon="-0.06931">
        <ele>9</ele>
        <time>2023-10-15T09:32:53Z</time>
      </trkpt>
      <trkpt lat="49.23401" lon="-0.06935">
        <ele>8.8</ele>
        <time>2023-10-15T09:32:54Z</time>
      </trkpt>
      <trkpt lat="49.23409" lon="-0.06939">
        <ele>8.6</ele>
        <time>2023-10-15T09:32:55Z</time>
      </trkpt>
      <trkpt lat="49.23418" lon="-0.06944">
        <ele>8.4</ele>
        <time>2023-10-15T09:32:56Z</time>
      </trkpt>
      <trkpt lat="49.23426" lon="-0.06949">
        <ele>8.3</ele>
        <time>2023-10-15T09:32:57Z</time>
      </trkpt>
      <trkpt lat="49.23435" lon="-0.06954">
        <ele>8.2</ele>
        <time>2023-10-15T09:32:58Z</time>
      </trkpt>
      <trkpt lat="49.23443" lon="-0.06959">
        <ele>8</ele>
        <time>2023-10-15T09:32:59Z</time>
      </trkpt>
      <trkpt lat="49.23452" lon="-0.06963">
        <ele>7.9</ele>
        <time>2023-10-15T09:33:00Z</time>
      </trkpt>
      <trkpt lat="49.23461" lon="-0.06968">
        <ele>7.8</ele>
        <time>2023-10-15T09:33:01Z</time>
      </trkpt>
      <trkpt lat="49.23469" lon="-0.06973">
        <ele>7.7</ele>
        <time>2023-10-15T09:33:02Z</time>
      </trkpt>
      <trkpt lat="49.23478" lon="-0.06978">
        <ele>7.6</ele>
        <time>2023-10-15T09:33:03Z</time>
      </trkpt>
      <trkpt lat="49.23487" lon="-0.06984">
        <ele>7.6</ele>
        <time>2023-10-15T09:33:04Z</time>
      </trkpt>
      <trkpt lat="49.23495" lon="-0.06989">
        <ele>7.5</ele>
        <time>2023-10-15T09:33:05Z</time>
      </trkpt>
      <trkpt lat="49.23503" lon="-0.06994">
        <ele>7.5</ele>
        <time>2023-10-15T09:33:06Z</time>
      </trkpt>
      <trkpt lat="49.23511" lon="-0.07">
        <ele>7.4</ele>
        <time>2023-10-15T09:33:07Z</time>
      </trkpt>
      <trkpt lat="49.23519" lon="-0.07006">
        <ele>7.4</ele>
        <time>2023-10-15T09:33:08Z</time>
      </trkpt>
      <trkpt lat="49.23527" lon="-0.07011">
        <ele>7.4</ele>
        <time>2023-10-15T09:33:09Z</time>
      </trkpt>
      <trkpt lat="49.23535" lon="-0.07016">
        <ele>7.4</ele>
        <time>2023-10-15T09:33:10Z</time>
      </trkpt>
      <trkpt lat="49.23543" lon="-0.07021">
        <ele>7.4</ele>
        <time>2023-10-15T09:33:11Z</time>
      </trkpt>
      <trkpt lat="49.2355" lon="-0.07025">
        <ele>7.4</ele>
        <time>2023-10-15T09:33:12Z</time>
      </trkpt>
      <trkpt lat="49.23558" lon="-0.0703">
        <ele>7.4</ele>
        <time>2023-10-15T09:33:13Z</time>
      </trkpt>
      <trkpt lat="49.23566" lon="-0.07035">
        <ele>7.4</ele>
        <time>2023-10-15T09:33:14Z</time>
      </trkpt>
      <trkpt lat="49.23574" lon="-0.07041">
        <ele>7.5</ele>
        <time>2023-10-15T09:33:15Z</time>
      </trkpt>
      <trkpt lat="49.23581" lon="-0.07045">
        <ele>7.5</ele>
        <time>2023-10-15T09:33:16Z</time>
      </trkpt>
      <trkpt lat="49.23589" lon="-0.0705">
        <ele>7.5</ele>
        <time>2023-10-15T09:33:17Z</time>
      </trkpt>
      <trkpt lat="49.23597" lon="-0.07055">
        <ele>7.5</ele>
        <time>2023-10-15T09:33:18Z</time>
      </trkpt>
      <trkpt lat="49.23605" lon="-0.0706">
        <ele>7.5</ele>
        <time>2023-10-15T09:33:19Z</time>
      </trkpt>
      <trkpt lat="49.23612" lon="-0.07064">
        <ele>7.5</ele>
        <time>2023-10-15T09:33:20Z</time>
      </trkpt>
      <trkpt lat="49.2362" lon="-0.07069">
        <ele>7.5</ele>
        <time>2023-10-15T09:33:21Z</time>
      </trkpt>
      <trkpt lat="49.23627" lon="-0.07076">
        <ele>7.5</ele>
        <time>2023-10-15T09:33:22Z</time>
      </trkpt>
      <trkpt lat="49.23635" lon="-0.07082">
        <ele>7.5</ele>
        <time>2023-10-15T09:33:23Z</time>
      </trkpt>
      <trkpt lat="49.23642" lon="-0.0709">
        <ele>7.5</ele>
        <time>2023-10-15T09:33:24Z</time>
      </trkpt>
      <trkpt lat="49.23648" lon="-0.07097">
        <ele>7.5</ele>
        <time>2023-10-15T09:33:25Z</time>
      </trkpt>
      <trkpt lat="49.23655" lon="-0.07106">
        <ele>7.5</ele>
        <time>2023-10-15T09:33:26Z</time>
      </trkpt>
      <trkpt lat="49.23661" lon="-0.07115">
        <ele>7.5</ele>
        <time>2023-10-15T09:33:27Z</time>
      </trkpt>
      <trkpt lat="49.23667" lon="-0.07124">
        <ele>7.5</ele>
        <time>2023-10-15T09:33:28Z</time>
      </trkpt>
      <trkpt lat="49.23673" lon="-0.07134">
        <ele>7.6</ele>
        <time>2023-10-15T09:33:29Z</time>
      </trkpt>
      <trkpt lat="49.23678" lon="-0.07144">
        <ele>7.6</ele>
        <time>2023-10-15T09:33:30Z</time>
      </trkpt>
      <trkpt lat="49.23684" lon="-0.07154">
        <ele>7.6</ele>
        <time>2023-10-15T09:33:31Z</time>
      </trkpt>
      <trkpt lat="49.23688" lon="-0.07166">
        <ele>7.6</ele>
        <time>2023-10-15T09:33:32Z</time>
      </trkpt>
      <trkpt lat="49.23691" lon="-0.07178">
        <ele>7.6</ele>
        <time>2023-10-15T09:33:33Z</time>
      </trkpt>
      <trkpt lat="49.23693" lon="-0.0719">
        <ele>7.6</ele>
        <time>2023-10-15T09:33:34Z</time>
      </trkpt>
      <trkpt lat="49.23695" lon="-0.07202">
        <ele>7.6</ele>
        <time>2023-10-15T09:33:35Z</time>
      </trkpt>
      <trkpt lat="49.23697" lon="-0.07214">
        <ele>7.6</ele>
        <time>2023-10-15T09:33:36Z</time>
      </trkpt>
      <trkpt lat="49.23698" lon="-0.07227">
        <ele>7.6</ele>
        <time>2023-10-15T09:33:37Z</time>
      </trkpt>
      <trkpt lat="49.237" lon="-0.07239">
        <ele>7.6</ele>
        <time>2023-10-15T09:33:38Z</time>
      </trkpt>
      <trkpt lat="49.23701" lon="-0.07252">
        <ele>7.6</ele>
        <time>2023-10-15T09:33:39Z</time>
      </trkpt>
      <trkpt lat="49.23702" lon="-0.07264">
        <ele>7.6</ele>
        <time>2023-10-15T09:33:40Z</time>
      </trkpt>
      <trkpt lat="49.23703" lon="-0.07277">
        <ele>7.5</ele>
        <time>2023-10-15T09:33:41Z</time>
      </trkpt>
      <trkpt lat="49.23704" lon="-0.07289">
        <ele>7.5</ele>
        <time>2023-10-15T09:33:42Z</time>
      </trkpt>
      <trkpt lat="49.23706" lon="-0.07302">
        <ele>7.5</ele>
        <time>2023-10-15T09:33:43Z</time>
      </trkpt>
      <trkpt lat="49.23708" lon="-0.07314">
        <ele>7.5</ele>
        <time>2023-10-15T09:33:44Z</time>
      </trkpt>
      <trkpt lat="49.2371" lon="-0.07326">
        <ele>7.5</ele>
        <time>2023-10-15T09:33:45Z</time>
      </trkpt>
      <trkpt lat="49.23713" lon="-0.07339">
        <ele>7.5</ele>
        <time>2023-10-15T09:33:46Z</time>
      </trkpt>
      <trkpt lat="49.23715" lon="-0.07351">
        <ele>7.5</ele>
        <time>2023-10-15T09:33:47Z</time>
      </trkpt>
      <trkpt lat="49.23717" lon="-0.07363">
        <ele>7.5</ele>
        <time>2023-10-15T09:33:48Z</time>
      </trkpt>
      <trkpt lat="49.23718" lon="-0.07376">
        <ele>7.5</ele>
        <time>2023-10-15T09:33:49Z</time>
      </trkpt>
      <trkpt lat="49.23719" lon="-0.07389">
        <ele>7.6</ele>
        <time>2023-10-15T09:33:50Z</time>
      </trkpt>
      <trkpt lat="49.2372" lon="-0.07402">
        <ele>7.6</ele>
        <time>2023-10-15T09:33:51Z</time>
      </trkpt>
      <trkpt lat="49.23721" lon="-0.07415">
        <ele>7.6</ele>
        <time>2023-10-15T09:33:52Z</time>
      </trkpt>
      <trkpt lat="49.23722" lon="-0.07427">
        <ele>7.6</ele>
        <time>2023-10-15T09:33:53Z</time>
      </trkpt>
      <trkpt lat="49.23723" lon="-0.0744">
        <ele>7.6</ele>
        <time>2023-10-15T09:33:54Z</time>
      </trkpt>
      <trkpt lat="49.23723" lon="-0.07453">
        <ele>7.6</ele>
        <time>2023-10-15T09:33:55Z</time>
      </trkpt>
      <trkpt lat="49.23723" lon="-0.07466">
        <ele>7.6</ele>
        <time>2023-10-15T09:33:56Z</time>
      </trkpt>
      <trkpt lat="49.23722" lon="-0.07478">
        <ele>7.5</ele>
        <time>2023-10-15T09:33:57Z</time>
      </trkpt>
      <trkpt lat="49.23721" lon="-0.07491">
        <ele>7.5</ele>
        <time>2023-10-15T09:33:58Z</time>
      </trkpt>
      <trkpt lat="49.2372" lon="-0.07504">
        <ele>7.5</ele>
        <time>2023-10-15T09:33:59Z</time>
      </trkpt>
      <trkpt lat="49.23718" lon="-0.07517">
        <ele>7.5</ele>
        <time>2023-10-15T09:34:00Z</time>
      </trkpt>
      <trkpt lat="49.23717" lon="-0.0753">
        <ele>7.5</ele>
        <time>2023-10-15T09:34:01Z</time>
      </trkpt>
      <trkpt lat="49.23716" lon="-0.07542">
        <ele>7.5</ele>
        <time>2023-10-15T09:34:02Z</time>
      </trkpt>
      <trkpt lat="49.23716" lon="-0.07554">
        <ele>7.5</ele>
        <time>2023-10-15T09:34:03Z</time>
      </trkpt>
      <trkpt lat="49.23717" lon="-0.07567">
        <ele>7.5</ele>
        <time>2023-10-15T09:34:04Z</time>
      </trkpt>
      <trkpt lat="49.23717" lon="-0.07579">
        <ele>7.5</ele>
        <time>2023-10-15T09:34:05Z</time>
      </trkpt>
      <trkpt lat="49.23718" lon="-0.07591">
        <ele>7.5</ele>
        <time>2023-10-15T09:34:06Z</time>
      </trkpt>
      <trkpt lat="49.23718" lon="-0.07603">
        <ele>7.4</ele>
        <time>2023-10-15T09:34:07Z</time>
      </trkpt>
      <trkpt lat="49.23718" lon="-0.07616">
        <ele>7.4</ele>
        <time>2023-10-15T09:34:08Z</time>
      </trkpt>
      <trkpt lat="49.23718" lon="-0.07628">
        <ele>7.4</ele>
        <time>2023-10-15T09:34:09Z</time>
      </trkpt>
      <trkpt lat="49.23716" lon="-0.07641">
        <ele>7.4</ele>
        <time>2023-10-15T09:34:10Z</time>
      </trkpt>
      <trkpt lat="49.23715" lon="-0.07654">
        <ele>7.3</ele>
        <time>2023-10-15T09:34:11Z</time>
      </trkpt>
      <trkpt lat="49.23714" lon="-0.07667">
        <ele>7.3</ele>
        <time>2023-10-15T09:34:12Z</time>
      </trkpt>
      <trkpt lat="49.23714" lon="-0.0768">
        <ele>7.3</ele>
        <time>2023-10-15T09:34:13Z</time>
      </trkpt>
      <trkpt lat="49.23713" lon="-0.07693">
        <ele>7.3</ele>
        <time>2023-10-15T09:34:14Z</time>
      </trkpt>
      <trkpt lat="49.23713" lon="-0.07706">
        <ele>7.3</ele>
        <time>2023-10-15T09:34:15Z</time>
      </trkpt>
      <trkpt lat="49.23714" lon="-0.07718">
        <ele>7.3</ele>
        <time>2023-10-15T09:34:16Z</time>
      </trkpt>
      <trkpt lat="49.23716" lon="-0.07731">
        <ele>7.3</ele>
        <time>2023-10-15T09:34:17Z</time>
      </trkpt>
      <trkpt lat="49.23718" lon="-0.07743">
        <ele>7.2</ele>
        <time>2023-10-15T09:34:18Z</time>
      </trkpt>
      <trkpt lat="49.23721" lon="-0.07755">
        <ele>7.2</ele>
        <time>2023-10-15T09:34:19Z</time>
      </trkpt>
      <trkpt lat="49.23724" lon="-0.07767">
        <ele>7.2</ele>
        <time>2023-10-15T09:34:20Z</time>
      </trkpt>
      <trkpt lat="49.23728" lon="-0.07778">
        <ele>7.2</ele>
        <time>2023-10-15T09:34:21Z</time>
      </trkpt>
      <trkpt lat="49.23732" lon="-0.0779">
        <ele>7.1</ele>
        <time>2023-10-15T09:34:22Z</time>
      </trkpt>
      <trkpt lat="49.23735" lon="-0.07802">
        <ele>7.1</ele>
        <time>2023-10-15T09:34:23Z</time>
      </trkpt>
      <trkpt lat="49.23737" lon="-0.07815">
        <ele>7</ele>
        <time>2023-10-15T09:34:24Z</time>
      </trkpt>
      <trkpt lat="49.23739" lon="-0.07827">
        <ele>7</ele>
        <time>2023-10-15T09:34:25Z</time>
      </trkpt>
      <trkpt lat="49.23739" lon="-0.0784">
        <ele>6.9</ele>
        <time>2023-10-15T09:34:26Z</time>
      </trkpt>
      <trkpt lat="49.23738" lon="-0.07853">
        <ele>6.9</ele>
        <time>2023-10-15T09:34:27Z</time>
      </trkpt>
      <trkpt lat="49.23737" lon="-0.07866">
        <ele>6.9</ele>
        <time>2023-10-15T09:34:28Z</time>
      </trkpt>
      <trkpt lat="49.23736" lon="-0.07878">
        <ele>6.8</ele>
        <time>2023-10-15T09:34:29Z</time>
      </trkpt>
      <trkpt lat="49.23734" lon="-0.07891">
        <ele>6.7</ele>
        <time>2023-10-15T09:34:30Z</time>
      </trkpt>
      <trkpt lat="49.23732" lon="-0.07904">
        <ele>6.7</ele>
        <time>2023-10-15T09:34:31Z</time>
      </trkpt>
      <trkpt lat="49.23731" lon="-0.07917">
        <ele>6.6</ele>
        <time>2023-10-15T09:34:32Z</time>
      </trkpt>
      <trkpt lat="49.23729" lon="-0.0793">
        <ele>6.6</ele>
        <time>2023-10-15T09:34:33Z</time>
      </trkpt>
      <trkpt lat="49.23727" lon="-0.07942">
        <ele>6.6</ele>
        <time>2023-10-15T09:34:34Z</time>
      </trkpt>
      <trkpt lat="49.23726" lon="-0.07955">
        <ele>6.6</ele>
        <time>2023-10-15T09:34:35Z</time>
      </trkpt>
      <trkpt lat="49.23725" lon="-0.07967">
        <ele>6.5</ele>
        <time>2023-10-15T09:34:36Z</time>
      </trkpt>
      <trkpt lat="49.23723" lon="-0.0798">
        <ele>6.5</ele>
        <time>2023-10-15T09:34:37Z</time>
      </trkpt>
      <trkpt lat="49.23722" lon="-0.07993">
        <ele>6.4</ele>
        <time>2023-10-15T09:34:38Z</time>
      </trkpt>
      <trkpt lat="49.2372" lon="-0.08006">
        <ele>6.4</ele>
        <time>2023-10-15T09:34:39Z</time>
      </trkpt>
      <trkpt lat="49.23719" lon="-0.08018">
        <ele>6.4</ele>
        <time>2023-10-15T09:34:40Z</time>
      </trkpt>
      <trkpt lat="49.23718" lon="-0.08031">
        <ele>6.4</ele>
        <time>2023-10-15T09:34:41Z</time>
      </trkpt>
      <trkpt lat="49.23718" lon="-0.08044">
        <ele>6.4</ele>
        <time>2023-10-15T09:34:42Z</time>
      </trkpt>
      <trkpt lat="49.2372" lon="-0.08056">
        <ele>6.3</ele>
        <time>2023-10-15T09:34:43Z</time>
      </trkpt>
      <trkpt lat="49.23724" lon="-0.08068">
        <ele>6.2</ele>
        <time>2023-10-15T09:34:44Z</time>
      </trkpt>
      <trkpt lat="49.2373" lon="-0.08078">
        <ele>6.2</ele>
        <time>2023-10-15T09:34:45Z</time>
      </trkpt>
      <trkpt lat="49.23737" lon="-0.08087">
        <ele>6.2</ele>
        <time>2023-10-15T09:34:46Z</time>
      </trkpt>
      <trkpt lat="49.23744" lon="-0.08094">
        <ele>6.2</ele>
        <time>2023-10-15T09:34:47Z</time>
      </trkpt>
      <trkpt lat="49.23751" lon="-0.08102">
        <ele>6.2</ele>
        <time>2023-10-15T09:34:48Z</time>
      </trkpt>
      <trkpt lat="49.23758" lon="-0.08109">
        <ele>6.2</ele>
        <time>2023-10-15T09:34:49Z</time>
      </trkpt>
      <trkpt lat="49.23765" lon="-0.08116">
        <ele>6.3</ele>
        <time>2023-10-15T09:34:50Z</time>
      </trkpt>
      <trkpt lat="49.23771" lon="-0.08123">
        <ele>6.3</ele>
        <time>2023-10-15T09:34:51Z</time>
      </trkpt>
      <trkpt lat="49.23778" lon="-0.08131">
        <ele>6.4</ele>
        <time>2023-10-15T09:34:52Z</time>
      </trkpt>
      <trkpt lat="49.23784" lon="-0.08138">
        <ele>6.4</ele>
        <time>2023-10-15T09:34:53Z</time>
      </trkpt>
      <trkpt lat="49.23791" lon="-0.08146">
        <ele>6.5</ele>
        <time>2023-10-15T09:34:54Z</time>
      </trkpt>
      <trkpt lat="49.23797" lon="-0.08154">
        <ele>6.6</ele>
        <time>2023-10-15T09:34:55Z</time>
      </trkpt>
      <trkpt lat="49.23804" lon="-0.08162">
        <ele>6.7</ele>
        <time>2023-10-15T09:34:56Z</time>
      </trkpt>
      <trkpt lat="49.2381" lon="-0.0817">
        <ele>6.8</ele>
        <time>2023-10-15T09:34:57Z</time>
      </trkpt>
      <trkpt lat="49.23816" lon="-0.08178">
        <ele>6.9</ele>
        <time>2023-10-15T09:34:58Z</time>
      </trkpt>
      <trkpt lat="49.23822" lon="-0.08185">
        <ele>7</ele>
        <time>2023-10-15T09:34:59Z</time>
      </trkpt>
      <trkpt lat="49.23828" lon="-0.08193">
        <ele>7.2</ele>
        <time>2023-10-15T09:35:00Z</time>
      </trkpt>
      <trkpt lat="49.23833" lon="-0.08201">
        <ele>7.3</ele>
        <time>2023-10-15T09:35:01Z</time>
      </trkpt>
      <trkpt lat="49.23839" lon="-0.08209">
        <ele>7.5</ele>
        <time>2023-10-15T09:35:02Z</time>
      </trkpt>
      <trkpt lat="49.23845" lon="-0.08217">
        <ele>7.6</ele>
        <time>2023-10-15T09:35:03Z</time>
      </trkpt>
      <trkpt lat="49.23851" lon="-0.08225">
        <ele>7.8</ele>
        <time>2023-10-15T09:35:04Z</time>
      </trkpt>
      <trkpt lat="49.23857" lon="-0.08233">
        <ele>8</ele>
        <time>2023-10-15T09:35:05Z</time>
      </trkpt>
      <trkpt lat="49.23862" lon="-0.08242">
        <ele>8.2</ele>
        <time>2023-10-15T09:35:06Z</time>
      </trkpt>
      <trkpt lat="49.23868" lon="-0.0825">
        <ele>8.2</ele>
        <time>2023-10-15T09:35:07Z</time>
      </trkpt>
      <trkpt lat="49.23873" lon="-0.08259">
        <ele>8.2</ele>
        <time>2023-10-15T09:35:08Z</time>
      </trkpt>
      <trkpt lat="49.23877" lon="-0.08268">
        <ele>8.2</ele>
        <time>2023-10-15T09:35:09Z</time>
      </trkpt>
      <trkpt lat="49.2388" lon="-0.08278">
        <ele>8.2</ele>
        <time>2023-10-15T09:35:10Z</time>
      </trkpt>
      <trkpt lat="49.23882" lon="-0.08289">
        <ele>8.1</ele>
        <time>2023-10-15T09:35:11Z</time>
      </trkpt>
      <trkpt lat="49.23884" lon="-0.08301">
        <ele>8</ele>
        <time>2023-10-15T09:35:12Z</time>
      </trkpt>
      <trkpt lat="49.23885" lon="-0.08313">
        <ele>8</ele>
        <time>2023-10-15T09:35:13Z</time>
      </trkpt>
      <trkpt lat="49.23885" lon="-0.08325">
        <ele>7.9</ele>
        <time>2023-10-15T09:35:14Z</time>
      </trkpt>
      <trkpt lat="49.23886" lon="-0.08338">
        <ele>7.8</ele>
        <time>2023-10-15T09:35:15Z</time>
      </trkpt>
      <trkpt lat="49.23886" lon="-0.0835">
        <ele>7.8</ele>
        <time>2023-10-15T09:35:16Z</time>
      </trkpt>
      <trkpt lat="49.23885" lon="-0.08363">
        <ele>7.7</ele>
        <time>2023-10-15T09:35:17Z</time>
      </trkpt>
      <trkpt lat="49.23884" lon="-0.08376">
        <ele>7.7</ele>
        <time>2023-10-15T09:35:18Z</time>
      </trkpt>
      <trkpt lat="49.23883" lon="-0.08389">
        <ele>7.7</ele>
        <time>2023-10-15T09:35:19Z</time>
      </trkpt>
      <trkpt lat="49.23883" lon="-0.08402">
        <ele>7.7</ele>
        <time>2023-10-15T09:35:20Z</time>
      </trkpt>
      <trkpt lat="49.23883" lon="-0.08415">
        <ele>7.7</ele>
        <time>2023-10-15T09:35:21Z</time>
      </trkpt>
      <trkpt lat="49.23883" lon="-0.08428">
        <ele>7.7</ele>
        <time>2023-10-15T09:35:22Z</time>
      </trkpt>
      <trkpt lat="49.23884" lon="-0.0844">
        <ele>7.6</ele>
        <time>2023-10-15T09:35:23Z</time>
      </trkpt>
      <trkpt lat="49.23885" lon="-0.08453">
        <ele>7.6</ele>
        <time>2023-10-15T09:35:24Z</time>
      </trkpt>
      <trkpt lat="49.23888" lon="-0.08465">
        <ele>7.6</ele>
        <time>2023-10-15T09:35:25Z</time>
      </trkpt>
      <trkpt lat="49.2389" lon="-0.08478">
        <ele>7.6</ele>
        <time>2023-10-15T09:35:26Z</time>
      </trkpt>
      <trkpt lat="49.23893" lon="-0.0849">
        <ele>7.6</ele>
        <time>2023-10-15T09:35:27Z</time>
      </trkpt>
      <trkpt lat="49.23897" lon="-0.08502">
        <ele>7.6</ele>
        <time>2023-10-15T09:35:28Z</time>
      </trkpt>
      <trkpt lat="49.239" lon="-0.08514">
        <ele>7.6</ele>
        <time>2023-10-15T09:35:29Z</time>
      </trkpt>
      <trkpt lat="49.23904" lon="-0.08525">
        <ele>7.6</ele>
        <time>2023-10-15T09:35:30Z</time>
      </trkpt>
      <trkpt lat="49.23908" lon="-0.08537">
        <ele>7.6</ele>
        <time>2023-10-15T09:35:31Z</time>
      </trkpt>
      <trkpt lat="49.23911" lon="-0.08549">
        <ele>7.7</ele>
        <time>2023-10-15T09:35:32Z</time>
      </trkpt>
      <trkpt lat="49.23915" lon="-0.08561">
        <ele>7.7</ele>
        <time>2023-10-15T09:35:33Z</time>
      </trkpt>
      <trkpt lat="49.23918" lon="-0.08572">
        <ele>7.6</ele>
        <time>2023-10-15T09:35:34Z</time>
      </trkpt>
      <trkpt lat="49.23921" lon="-0.08584">
        <ele>7.6</ele>
        <time>2023-10-15T09:35:35Z</time>
      </trkpt>
      <trkpt lat="49.23923" lon="-0.08597">
        <ele>7.6</ele>
        <time>2023-10-15T09:35:36Z</time>
      </trkpt>
      <trkpt lat="49.23924" lon="-0.08611">
        <ele>7.6</ele>
        <time>2023-10-15T09:35:37Z</time>
      </trkpt>
      <trkpt lat="49.23925" lon="-0.08624">
        <ele>7.6</ele>
        <time>2023-10-15T09:35:38Z</time>
      </trkpt>
      <trkpt lat="49.23926" lon="-0.08637">
        <ele>7.6</ele>
        <time>2023-10-15T09:35:39Z</time>
      </trkpt>
      <trkpt lat="49.23928" lon="-0.0865">
        <ele>7.6</ele>
        <time>2023-10-15T09:35:40Z</time>
      </trkpt>
      <trkpt lat="49.23929" lon="-0.08664">
        <ele>7.6</ele>
        <time>2023-10-15T09:35:41Z</time>
      </trkpt>
      <trkpt lat="49.2393" lon="-0.08677">
        <ele>7.5</ele>
        <time>2023-10-15T09:35:42Z</time>
      </trkpt>
      <trkpt lat="49.23932" lon="-0.08689">
        <ele>7.5</ele>
        <time>2023-10-15T09:35:43Z</time>
      </trkpt>
      <trkpt lat="49.23934" lon="-0.08702">
        <ele>7.5</ele>
        <time>2023-10-15T09:35:44Z</time>
      </trkpt>
      <trkpt lat="49.23937" lon="-0.08715">
        <ele>7.5</ele>
        <time>2023-10-15T09:35:45Z</time>
      </trkpt>
      <trkpt lat="49.23939" lon="-0.08727">
        <ele>7.5</ele>
        <time>2023-10-15T09:35:46Z</time>
      </trkpt>
      <trkpt lat="49.23942" lon="-0.08739">
        <ele>7.5</ele>
        <time>2023-10-15T09:35:47Z</time>
      </trkpt>
      <trkpt lat="49.23945" lon="-0.08751">
        <ele>7.5</ele>
        <time>2023-10-15T09:35:48Z</time>
      </trkpt>
      <trkpt lat="49.23948" lon="-0.08764">
        <ele>7.5</ele>
        <time>2023-10-15T09:35:49Z</time>
      </trkpt>
      <trkpt lat="49.23951" lon="-0.08776">
        <ele>7.5</ele>
        <time>2023-10-15T09:35:50Z</time>
      </trkpt>
      <trkpt lat="49.23954" lon="-0.08789">
        <ele>7.5</ele>
        <time>2023-10-15T09:35:51Z</time>
      </trkpt>
      <trkpt lat="49.23956" lon="-0.08801">
        <ele>7.5</ele>
        <time>2023-10-15T09:35:52Z</time>
      </trkpt>
      <trkpt lat="49.23959" lon="-0.08814">
        <ele>7.5</ele>
        <time>2023-10-15T09:35:53Z</time>
      </trkpt>
      <trkpt lat="49.23961" lon="-0.08827">
        <ele>7.4</ele>
        <time>2023-10-15T09:35:54Z</time>
      </trkpt>
      <trkpt lat="49.23963" lon="-0.0884">
        <ele>7.4</ele>
        <time>2023-10-15T09:35:55Z</time>
      </trkpt>
      <trkpt lat="49.23964" lon="-0.08852">
        <ele>7.4</ele>
        <time>2023-10-15T09:35:56Z</time>
      </trkpt>
      <trkpt lat="49.23966" lon="-0.08865">
        <ele>7.3</ele>
        <time>2023-10-15T09:35:57Z</time>
      </trkpt>
      <trkpt lat="49.23967" lon="-0.08878">
        <ele>7.3</ele>
        <time>2023-10-15T09:35:58Z</time>
      </trkpt>
      <trkpt lat="49.23969" lon="-0.0889">
        <ele>7.3</ele>
        <time>2023-10-15T09:35:59Z</time>
      </trkpt>
      <trkpt lat="49.2397" lon="-0.08903">
        <ele>7.3</ele>
        <time>2023-10-15T09:36:00Z</time>
      </trkpt>
      <trkpt lat="49.23973" lon="-0.08916">
        <ele>7.2</ele>
        <time>2023-10-15T09:36:01Z</time>
      </trkpt>
      <trkpt lat="49.23975" lon="-0.08929">
        <ele>7.2</ele>
        <time>2023-10-15T09:36:02Z</time>
      </trkpt>
      <trkpt lat="49.2398" lon="-0.0894">
        <ele>7.2</ele>
        <time>2023-10-15T09:36:03Z</time>
      </trkpt>
      <trkpt lat="49.23985" lon="-0.08952">
        <ele>7.2</ele>
        <time>2023-10-15T09:36:04Z</time>
      </trkpt>
      <trkpt lat="49.2399" lon="-0.08962">
        <ele>7.1</ele>
        <time>2023-10-15T09:36:05Z</time>
      </trkpt>
      <trkpt lat="49.23996" lon="-0.08973">
        <ele>7.1</ele>
        <time>2023-10-15T09:36:06Z</time>
      </trkpt>
      <trkpt lat="49.24002" lon="-0.08982">
        <ele>7.1</ele>
        <time>2023-10-15T09:36:07Z</time>
      </trkpt>
      <trkpt lat="49.24009" lon="-0.0899">
        <ele>7.1</ele>
        <time>2023-10-15T09:36:08Z</time>
      </trkpt>
      <trkpt lat="49.24015" lon="-0.08998">
        <ele>7.1</ele>
        <time>2023-10-15T09:36:09Z</time>
      </trkpt>
      <trkpt lat="49.24022" lon="-0.09006">
        <ele>7.1</ele>
        <time>2023-10-15T09:36:10Z</time>
      </trkpt>
      <trkpt lat="49.24029" lon="-0.09014">
        <ele>7.1</ele>
        <time>2023-10-15T09:36:11Z</time>
      </trkpt>
      <trkpt lat="49.24036" lon="-0.09021">
        <ele>7.1</ele>
        <time>2023-10-15T09:36:12Z</time>
      </trkpt>
      <trkpt lat="49.24043" lon="-0.09026">
        <ele>7.1</ele>
        <time>2023-10-15T09:36:13Z</time>
      </trkpt>
      <trkpt lat="49.24051" lon="-0.0903">
        <ele>7.1</ele>
        <time>2023-10-15T09:36:14Z</time>
      </trkpt>
      <trkpt lat="49.24059" lon="-0.09035">
        <ele>7.1</ele>
        <time>2023-10-15T09:36:15Z</time>
      </trkpt>
      <trkpt lat="49.24067" lon="-0.09039">
        <ele>7.1</ele>
        <time>2023-10-15T09:36:16Z</time>
      </trkpt>
      <trkpt lat="49.24074" lon="-0.09045">
        <ele>7.1</ele>
        <time>2023-10-15T09:36:17Z</time>
      </trkpt>
      <trkpt lat="49.24082" lon="-0.09052">
        <ele>7.1</ele>
        <time>2023-10-15T09:36:18Z</time>
      </trkpt>
      <trkpt lat="49.24088" lon="-0.0906">
        <ele>7.1</ele>
        <time>2023-10-15T09:36:19Z</time>
      </trkpt>
      <trkpt lat="49.24093" lon="-0.09069">
        <ele>7.1</ele>
        <time>2023-10-15T09:36:20Z</time>
      </trkpt>
      <trkpt lat="49.24098" lon="-0.0908">
        <ele>7.1</ele>
        <time>2023-10-15T09:36:21Z</time>
      </trkpt>
      <trkpt lat="49.24102" lon="-0.09092">
        <ele>7.1</ele>
        <time>2023-10-15T09:36:22Z</time>
      </trkpt>
      <trkpt lat="49.24106" lon="-0.09103">
        <ele>7.1</ele>
        <time>2023-10-15T09:36:23Z</time>
      </trkpt>
      <trkpt lat="49.2411" lon="-0.09115">
        <ele>7.1</ele>
        <time>2023-10-15T09:36:24Z</time>
      </trkpt>
      <trkpt lat="49.24114" lon="-0.09126">
        <ele>7.1</ele>
        <time>2023-10-15T09:36:25Z</time>
      </trkpt>
      <trkpt lat="49.24117" lon="-0.09138">
        <ele>7.1</ele>
        <time>2023-10-15T09:36:26Z</time>
      </trkpt>
      <trkpt lat="49.24121" lon="-0.0915">
        <ele>7.1</ele>
        <time>2023-10-15T09:36:27Z</time>
      </trkpt>
      <trkpt lat="49.24124" lon="-0.09162">
        <ele>7.2</ele>
        <time>2023-10-15T09:36:28Z</time>
      </trkpt>
      <trkpt lat="49.24127" lon="-0.09174">
        <ele>7.2</ele>
        <time>2023-10-15T09:36:29Z</time>
      </trkpt>
      <trkpt lat="49.2413" lon="-0.09187">
        <ele>7.2</ele>
        <time>2023-10-15T09:36:30Z</time>
      </trkpt>
      <trkpt lat="49.24133" lon="-0.09199">
        <ele>7.2</ele>
        <time>2023-10-15T09:36:31Z</time>
      </trkpt>
      <trkpt lat="49.24135" lon="-0.09211">
        <ele>7.2</ele>
        <time>2023-10-15T09:36:32Z</time>
      </trkpt>
      <trkpt lat="49.24137" lon="-0.09224">
        <ele>7.3</ele>
        <time>2023-10-15T09:36:33Z</time>
      </trkpt>
      <trkpt lat="49.24138" lon="-0.09236">
        <ele>7.3</ele>
        <time>2023-10-15T09:36:34Z</time>
      </trkpt>
      <trkpt lat="49.2414" lon="-0.09249">
        <ele>7.3</ele>
        <time>2023-10-15T09:36:35Z</time>
      </trkpt>
      <trkpt lat="49.24141" lon="-0.09262">
        <ele>7.3</ele>
        <time>2023-10-15T09:36:36Z</time>
      </trkpt>
      <trkpt lat="49.24143" lon="-0.09274">
        <ele>7.3</ele>
        <time>2023-10-15T09:36:37Z</time>
      </trkpt>
      <trkpt lat="49.24144" lon="-0.09286">
        <ele>7.4</ele>
        <time>2023-10-15T09:36:38Z</time>
      </trkpt>
      <trkpt lat="49.24145" lon="-0.09299">
        <ele>7.4</ele>
        <time>2023-10-15T09:36:39Z</time>
      </trkpt>
      <trkpt lat="49.24147" lon="-0.09312">
        <ele>7.4</ele>
        <time>2023-10-15T09:36:40Z</time>
      </trkpt>
      <trkpt lat="49.24148" lon="-0.09324">
        <ele>7.5</ele>
        <time>2023-10-15T09:36:41Z</time>
      </trkpt>
      <trkpt lat="49.24149" lon="-0.09337">
        <ele>7.6</ele>
        <time>2023-10-15T09:36:42Z</time>
      </trkpt>
      <trkpt lat="49.24151" lon="-0.09349">
        <ele>7.6</ele>
        <time>2023-10-15T09:36:43Z</time>
      </trkpt>
      <trkpt lat="49.24152" lon="-0.09361">
        <ele>7.7</ele>
        <time>2023-10-15T09:36:44Z</time>
      </trkpt>
      <trkpt lat="49.24154" lon="-0.09373">
        <ele>7.7</ele>
        <time>2023-10-15T09:36:45Z</time>
      </trkpt>
      <trkpt lat="49.24156" lon="-0.09385">
        <ele>7.7</ele>
        <time>2023-10-15T09:36:46Z</time>
      </trkpt>
      <trkpt lat="49.24157" lon="-0.09397">
        <ele>7.8</ele>
        <time>2023-10-15T09:36:47Z</time>
      </trkpt>
      <trkpt lat="49.24159" lon="-0.09409">
        <ele>7.8</ele>
        <time>2023-10-15T09:36:48Z</time>
      </trkpt>
      <trkpt lat="49.24161" lon="-0.09422">
        <ele>7.9</ele>
        <time>2023-10-15T09:36:49Z</time>
      </trkpt>
      <trkpt lat="49.24162" lon="-0.09435">
        <ele>7.9</ele>
        <time>2023-10-15T09:36:50Z</time>
      </trkpt>
      <trkpt lat="49.24164" lon="-0.09447">
        <ele>8</ele>
        <time>2023-10-15T09:36:51Z</time>
      </trkpt>
      <trkpt lat="49.24166" lon="-0.09459">
        <ele>8.1</ele>
        <time>2023-10-15T09:36:52Z</time>
      </trkpt>
      <trkpt lat="49.24168" lon="-0.09472">
        <ele>8.2</ele>
        <time>2023-10-15T09:36:53Z</time>
      </trkpt>
      <trkpt lat="49.24171" lon="-0.09484">
        <ele>8.3</ele>
        <time>2023-10-15T09:36:54Z</time>
      </trkpt>
      <trkpt lat="49.24174" lon="-0.09497">
        <ele>8.4</ele>
        <time>2023-10-15T09:36:55Z</time>
      </trkpt>
      <trkpt lat="49.24178" lon="-0.09509">
        <ele>8.5</ele>
        <time>2023-10-15T09:36:56Z</time>
      </trkpt>
      <trkpt lat="49.24182" lon="-0.09521">
        <ele>8.5</ele>
        <time>2023-10-15T09:36:57Z</time>
      </trkpt>
      <trkpt lat="49.24187" lon="-0.09532">
        <ele>8.5</ele>
        <time>2023-10-15T09:36:58Z</time>
      </trkpt>
      <trkpt lat="49.24192" lon="-0.09543">
        <ele>8.6</ele>
        <time>2023-10-15T09:36:59Z</time>
      </trkpt>
      <trkpt lat="49.24198" lon="-0.09553">
        <ele>8.5</ele>
        <time>2023-10-15T09:37:00Z</time>
      </trkpt>
      <trkpt lat="49.24204" lon="-0.09563">
        <ele>8.5</ele>
        <time>2023-10-15T09:37:01Z</time>
      </trkpt>
      <trkpt lat="49.2421" lon="-0.09572">
        <ele>8.5</ele>
        <time>2023-10-15T09:37:02Z</time>
      </trkpt>
      <trkpt lat="49.24217" lon="-0.09581">
        <ele>8.4</ele>
        <time>2023-10-15T09:37:03Z</time>
      </trkpt>
      <trkpt lat="49.24224" lon="-0.09589">
        <ele>8.4</ele>
        <time>2023-10-15T09:37:04Z</time>
      </trkpt>
      <trkpt lat="49.24231" lon="-0.09597">
        <ele>8.4</ele>
        <time>2023-10-15T09:37:05Z</time>
      </trkpt>
      <trkpt lat="49.24238" lon="-0.09604">
        <ele>8.4</ele>
        <time>2023-10-15T09:37:06Z</time>
      </trkpt>
      <trkpt lat="49.24245" lon="-0.09612">
        <ele>8.4</ele>
        <time>2023-10-15T09:37:07Z</time>
      </trkpt>
      <trkpt lat="49.24252" lon="-0.09619">
        <ele>8.3</ele>
        <time>2023-10-15T09:37:08Z</time>
      </trkpt>
      <trkpt lat="49.24259" lon="-0.09626">
        <ele>8.2</ele>
        <time>2023-10-15T09:37:09Z</time>
      </trkpt>
      <trkpt lat="49.24266" lon="-0.09634">
        <ele>8.1</ele>
        <time>2023-10-15T09:37:10Z</time>
      </trkpt>
      <trkpt lat="49.24273" lon="-0.09642">
        <ele>8.1</ele>
        <time>2023-10-15T09:37:11Z</time>
      </trkpt>
      <trkpt lat="49.2428" lon="-0.09649">
        <ele>8</ele>
        <time>2023-10-15T09:37:12Z</time>
      </trkpt>
      <trkpt lat="49.24287" lon="-0.09657">
        <ele>8</ele>
        <time>2023-10-15T09:37:13Z</time>
      </trkpt>
      <trkpt lat="49.24294" lon="-0.09664">
        <ele>8</ele>
        <time>2023-10-15T09:37:14Z</time>
      </trkpt>
      <trkpt lat="49.24301" lon="-0.09671">
        <ele>8</ele>
        <time>2023-10-15T09:37:15Z</time>
      </trkpt>
      <trkpt lat="49.24308" lon="-0.09679">
        <ele>8</ele>
        <time>2023-10-15T09:37:16Z</time>
      </trkpt>
      <trkpt lat="49.24315" lon="-0.09686">
        <ele>8.1</ele>
        <time>2023-10-15T09:37:17Z</time>
      </trkpt>
      <trkpt lat="49.24322" lon="-0.09694">
        <ele>8.2</ele>
        <time>2023-10-15T09:37:18Z</time>
      </trkpt>
      <trkpt lat="49.24329" lon="-0.09701">
        <ele>8.3</ele>
        <time>2023-10-15T09:37:19Z</time>
      </trkpt>
      <trkpt lat="49.24336" lon="-0.09709">
        <ele>8.5</ele>
        <time>2023-10-15T09:37:20Z</time>
      </trkpt>
      <trkpt lat="49.24343" lon="-0.09716">
        <ele>8.7</ele>
        <time>2023-10-15T09:37:21Z</time>
      </trkpt>
      <trkpt lat="49.2435" lon="-0.09723">
        <ele>8.9</ele>
        <time>2023-10-15T09:37:22Z</time>
      </trkpt>
      <trkpt lat="49.24356" lon="-0.0973">
        <ele>9.2</ele>
        <time>2023-10-15T09:37:23Z</time>
      </trkpt>
      <trkpt lat="49.24362" lon="-0.09737">
        <ele>9.4</ele>
        <time>2023-10-15T09:37:24Z</time>
      </trkpt>
      <trkpt lat="49.24368" lon="-0.09745">
        <ele>9.7</ele>
        <time>2023-10-15T09:37:25Z</time>
      </trkpt>
      <trkpt lat="49.24374" lon="-0.09752">
        <ele>9.9</ele>
        <time>2023-10-15T09:37:26Z</time>
      </trkpt>
      <trkpt lat="49.24379" lon="-0.09761">
        <ele>10.1</ele>
        <time>2023-10-15T09:37:27Z</time>
      </trkpt>
      <trkpt lat="49.24384" lon="-0.09769">
        <ele>10.4</ele>
        <time>2023-10-15T09:37:28Z</time>
      </trkpt>
      <trkpt lat="49.24388" lon="-0.09779">
        <ele>10.6</ele>
        <time>2023-10-15T09:37:29Z</time>
      </trkpt>
      <trkpt lat="49.24392" lon="-0.09789">
        <ele>10.8</ele>
        <time>2023-10-15T09:37:30Z</time>
      </trkpt>
      <trkpt lat="49.24396" lon="-0.09799">
        <ele>11</ele>
        <time>2023-10-15T09:37:31Z</time>
      </trkpt>
      <trkpt lat="49.24399" lon="-0.09809">
        <ele>11.2</ele>
        <time>2023-10-15T09:37:32Z</time>
      </trkpt>
      <trkpt lat="49.24402" lon="-0.0982">
        <ele>11.4</ele>
        <time>2023-10-15T09:37:33Z</time>
      </trkpt>
      <trkpt lat="49.24405" lon="-0.09831">
        <ele>11.6</ele>
        <time>2023-10-15T09:37:34Z</time>
      </trkpt>
      <trkpt lat="49.24408" lon="-0.09842">
        <ele>11.8</ele>
        <time>2023-10-15T09:37:35Z</time>
      </trkpt>
      <trkpt lat="49.24411" lon="-0.09852">
        <ele>11.9</ele>
        <time>2023-10-15T09:37:36Z</time>
      </trkpt>
      <trkpt lat="49.24414" lon="-0.09863">
        <ele>12.1</ele>
        <time>2023-10-15T09:37:37Z</time>
      </trkpt>
      <trkpt lat="49.24417" lon="-0.09874">
        <ele>12.2</ele>
        <time>2023-10-15T09:37:38Z</time>
      </trkpt>
      <trkpt lat="49.2442" lon="-0.09886">
        <ele>12.4</ele>
        <time>2023-10-15T09:37:39Z</time>
      </trkpt>
      <trkpt lat="49.24422" lon="-0.09898">
        <ele>12.5</ele>
        <time>2023-10-15T09:37:40Z</time>
      </trkpt>
      <trkpt lat="49.24425" lon="-0.09909">
        <ele>12.5</ele>
        <time>2023-10-15T09:37:41Z</time>
      </trkpt>
      <trkpt lat="49.24428" lon="-0.0992">
        <ele>12.5</ele>
        <time>2023-10-15T09:37:42Z</time>
      </trkpt>
      <trkpt lat="49.24431" lon="-0.09931">
        <ele>12.5</ele>
        <time>2023-10-15T09:37:43Z</time>
      </trkpt>
      <trkpt lat="49.24435" lon="-0.09943">
        <ele>12.4</ele>
        <time>2023-10-15T09:37:44Z</time>
      </trkpt>
      <trkpt lat="49.24438" lon="-0.09954">
        <ele>12.2</ele>
        <time>2023-10-15T09:37:45Z</time>
      </trkpt>
      <trkpt lat="49.24443" lon="-0.09965">
        <ele>11.9</ele>
        <time>2023-10-15T09:37:46Z</time>
      </trkpt>
      <trkpt lat="49.24448" lon="-0.09977">
        <ele>11.7</ele>
        <time>2023-10-15T09:37:47Z</time>
      </trkpt>
      <trkpt lat="49.24454" lon="-0.09987">
        <ele>11.3</ele>
        <time>2023-10-15T09:37:48Z</time>
      </trkpt>
      <trkpt lat="49.24461" lon="-0.09996">
        <ele>11</ele>
        <time>2023-10-15T09:37:49Z</time>
      </trkpt>
      <trkpt lat="49.24469" lon="-0.10004">
        <ele>10.6</ele>
        <time>2023-10-15T09:37:50Z</time>
      </trkpt>
      <trkpt lat="49.24477" lon="-0.10012">
        <ele>10.3</ele>
        <time>2023-10-15T09:37:51Z</time>
      </trkpt>
      <trkpt lat="49.24486" lon="-0.10019">
        <ele>10</ele>
        <time>2023-10-15T09:37:52Z</time>
      </trkpt>
      <trkpt lat="49.24494" lon="-0.10026">
        <ele>9.6</ele>
        <time>2023-10-15T09:37:53Z</time>
      </trkpt>
      <trkpt lat="49.24503" lon="-0.10033">
        <ele>9.2</ele>
        <time>2023-10-15T09:37:54Z</time>
      </trkpt>
      <trkpt lat="49.24512" lon="-0.1004">
        <ele>8.7</ele>
        <time>2023-10-15T09:37:55Z</time>
      </trkpt>
      <trkpt lat="49.2452" lon="-0.10046">
        <ele>8.3</ele>
        <time>2023-10-15T09:37:56Z</time>
      </trkpt>
      <trkpt lat="49.24529" lon="-0.10053">
        <ele>7.9</ele>
        <time>2023-10-15T09:37:57Z</time>
      </trkpt>
      <trkpt lat="49.24538" lon="-0.10059">
        <ele>7.4</ele>
        <time>2023-10-15T09:37:58Z</time>
      </trkpt>
      <trkpt lat="49.24547" lon="-0.10067">
        <ele>7</ele>
        <time>2023-10-15T09:37:59Z</time>
      </trkpt>
      <trkpt lat="49.24557" lon="-0.10074">
        <ele>6.6</ele>
        <time>2023-10-15T09:38:00Z</time>
      </trkpt>
      <trkpt lat="49.24567" lon="-0.10081">
        <ele>6.3</ele>
        <time>2023-10-15T09:38:01Z</time>
      </trkpt>
      <trkpt lat="49.24576" lon="-0.10089">
        <ele>6.1</ele>
        <time>2023-10-15T09:38:02Z</time>
      </trkpt>
      <trkpt lat="49.24586" lon="-0.10097">
        <ele>5.8</ele>
        <time>2023-10-15T09:38:03Z</time>
      </trkpt>
      <trkpt lat="49.24596" lon="-0.10104">
        <ele>5.5</ele>
        <time>2023-10-15T09:38:04Z</time>
      </trkpt>
      <trkpt lat="49.24605" lon="-0.10112">
        <ele>5.2</ele>
        <time>2023-10-15T09:38:05Z</time>
      </trkpt>
      <trkpt lat="49.24615" lon="-0.10119">
        <ele>5</ele>
        <time>2023-10-15T09:38:06Z</time>
      </trkpt>
      <trkpt lat="49.24625" lon="-0.10126">
        <ele>4.8</ele>
        <time>2023-10-15T09:38:07Z</time>
      </trkpt>
      <trkpt lat="49.24634" lon="-0.10134">
        <ele>4.7</ele>
        <time>2023-10-15T09:38:08Z</time>
      </trkpt>
      <trkpt lat="49.24644" lon="-0.10141">
        <ele>4.6</ele>
        <time>2023-10-15T09:38:09Z</time>
      </trkpt>
      <trkpt lat="49.24653" lon="-0.10148">
        <ele>4.5</ele>
        <time>2023-10-15T09:38:10Z</time>
      </trkpt>
      <trkpt lat="49.24663" lon="-0.10155">
        <ele>4.5</ele>
        <time>2023-10-15T09:38:11Z</time>
      </trkpt>
      <trkpt lat="49.24671" lon="-0.10162">
        <ele>4.5</ele>
        <time>2023-10-15T09:38:12Z</time>
      </trkpt>
      <trkpt lat="49.2468" lon="-0.10168">
        <ele>4.6</ele>
        <time>2023-10-15T09:38:13Z</time>
      </trkpt>
      <trkpt lat="49.24689" lon="-0.10175">
        <ele>4.6</ele>
        <time>2023-10-15T09:38:14Z</time>
      </trkpt>
      <trkpt lat="49.24697" lon="-0.10182">
        <ele>4.7</ele>
        <time>2023-10-15T09:38:15Z</time>
      </trkpt>
      <trkpt lat="49.24706" lon="-0.10189">
        <ele>4.7</ele>
        <time>2023-10-15T09:38:16Z</time>
      </trkpt>
      <trkpt lat="49.24714" lon="-0.10196">
        <ele>4.8</ele>
        <time>2023-10-15T09:38:17Z</time>
      </trkpt>
      <trkpt lat="49.24722" lon="-0.10202">
        <ele>4.8</ele>
        <time>2023-10-15T09:38:18Z</time>
      </trkpt>
      <trkpt lat="49.2473" lon="-0.10208">
        <ele>4.9</ele>
        <time>2023-10-15T09:38:19Z</time>
      </trkpt>
      <trkpt lat="49.24738" lon="-0.10215">
        <ele>5</ele>
        <time>2023-10-15T09:38:20Z</time>
      </trkpt>
      <trkpt lat="49.24746" lon="-0.10222">
        <ele>5.1</ele>
        <time>2023-10-15T09:38:21Z</time>
      </trkpt>
      <trkpt lat="49.24755" lon="-0.10229">
        <ele>5.2</ele>
        <time>2023-10-15T09:38:22Z</time>
      </trkpt>
      <trkpt lat="49.24763" lon="-0.10236">
        <ele>5.4</ele>
        <time>2023-10-15T09:38:23Z</time>
      </trkpt>
      <trkpt lat="49.24771" lon="-0.10243">
        <ele>5.5</ele>
        <time>2023-10-15T09:38:24Z</time>
      </trkpt>
      <trkpt lat="49.2478" lon="-0.1025">
        <ele>5.7</ele>
        <time>2023-10-15T09:38:25Z</time>
      </trkpt>
      <trkpt lat="49.24789" lon="-0.10256">
        <ele>5.8</ele>
        <time>2023-10-15T09:38:26Z</time>
      </trkpt>
      <trkpt lat="49.24797" lon="-0.10262">
        <ele>5.9</ele>
        <time>2023-10-15T09:38:27Z</time>
      </trkpt>
      <trkpt lat="49.24806" lon="-0.10268">
        <ele>6</ele>
        <time>2023-10-15T09:38:28Z</time>
      </trkpt>
      <trkpt lat="49.24814" lon="-0.10274">
        <ele>6.1</ele>
        <time>2023-10-15T09:38:29Z</time>
      </trkpt>
      <trkpt lat="49.24822" lon="-0.1028">
        <ele>6.1</ele>
        <time>2023-10-15T09:38:30Z</time>
      </trkpt>
      <trkpt lat="49.24831" lon="-0.10286">
        <ele>6.2</ele>
        <time>2023-10-15T09:38:31Z</time>
      </trkpt>
      <trkpt lat="49.2484" lon="-0.10291">
        <ele>6.2</ele>
        <time>2023-10-15T09:38:32Z</time>
      </trkpt>
      <trkpt lat="49.24849" lon="-0.10294">
        <ele>6.3</ele>
        <time>2023-10-15T09:38:33Z</time>
      </trkpt>
      <trkpt lat="49.24859" lon="-0.10296">
        <ele>6.3</ele>
        <time>2023-10-15T09:38:34Z</time>
      </trkpt>
      <trkpt lat="49.24868" lon="-0.10296">
        <ele>6.4</ele>
        <time>2023-10-15T09:38:35Z</time>
      </trkpt>
      <trkpt lat="49.24877" lon="-0.10296">
        <ele>6.4</ele>
        <time>2023-10-15T09:38:36Z</time>
      </trkpt>
      <trkpt lat="49.24886" lon="-0.10294">
        <ele>6.4</ele>
        <time>2023-10-15T09:38:37Z</time>
      </trkpt>
      <trkpt lat="49.24896" lon="-0.10291">
        <ele>6.4</ele>
        <time>2023-10-15T09:38:38Z</time>
      </trkpt>
      <trkpt lat="49.24905" lon="-0.10286">
        <ele>6.3</ele>
        <time>2023-10-15T09:38:39Z</time>
      </trkpt>
      <trkpt lat="49.24913" lon="-0.10279">
        <ele>6.2</ele>
        <time>2023-10-15T09:38:40Z</time>
      </trkpt>
      <trkpt lat="49.24922" lon="-0.10271">
        <ele>6.1</ele>
        <time>2023-10-15T09:38:41Z</time>
      </trkpt>
      <trkpt lat="49.2493" lon="-0.10263">
        <ele>6</ele>
        <time>2023-10-15T09:38:42Z</time>
      </trkpt>
      <trkpt lat="49.24938" lon="-0.10253">
        <ele>5.9</ele>
        <time>2023-10-15T09:38:43Z</time>
      </trkpt>
      <trkpt lat="49.24945" lon="-0.10243">
        <ele>5.8</ele>
        <time>2023-10-15T09:38:44Z</time>
      </trkpt>
      <trkpt lat="49.24951" lon="-0.10231">
        <ele>5.7</ele>
        <time>2023-10-15T09:38:45Z</time>
      </trkpt>
      <trkpt lat="49.24956" lon="-0.10218">
        <ele>5.7</ele>
        <time>2023-10-15T09:38:46Z</time>
      </trkpt>
      <trkpt lat="49.2496" lon="-0.10205">
        <ele>5.6</ele>
        <time>2023-10-15T09:38:47Z</time>
      </trkpt>
      <trkpt lat="49.24964" lon="-0.10193">
        <ele>5.6</ele>
        <time>2023-10-15T09:38:48Z</time>
      </trkpt>
      <trkpt lat="49.24968" lon="-0.1018">
        <ele>5.6</ele>
        <time>2023-10-15T09:38:49Z</time>
      </trkpt>
      <trkpt lat="49.24973" lon="-0.10167">
        <ele>5.6</ele>
        <time>2023-10-15T09:38:50Z</time>
      </trkpt>
      <trkpt lat="49.24977" lon="-0.10155">
        <ele>5.6</ele>
        <time>2023-10-15T09:38:51Z</time>
      </trkpt>
      <trkpt lat="49.24981" lon="-0.10143">
        <ele>5.5</ele>
        <time>2023-10-15T09:38:52Z</time>
      </trkpt>
      <trkpt lat="49.24985" lon="-0.10131">
        <ele>5.5</ele>
        <time>2023-10-15T09:38:53Z</time>
      </trkpt>
      <trkpt lat="49.24988" lon="-0.10118">
        <ele>5.4</ele>
        <time>2023-10-15T09:38:54Z</time>
      </trkpt>
      <trkpt lat="49.24993" lon="-0.10106">
        <ele>5.3</ele>
        <time>2023-10-15T09:38:55Z</time>
      </trkpt>
      <trkpt lat="49.24997" lon="-0.10094">
        <ele>5.2</ele>
        <time>2023-10-15T09:38:56Z</time>
      </trkpt>
      <trkpt lat="49.25002" lon="-0.10082">
        <ele>5.1</ele>
        <time>2023-10-15T09:38:57Z</time>
      </trkpt>
      <trkpt lat="49.25007" lon="-0.10069">
        <ele>5</ele>
        <time>2023-10-15T09:38:58Z</time>
      </trkpt>
      <trkpt lat="49.25012" lon="-0.10057">
        <ele>5</ele>
        <time>2023-10-15T09:38:59Z</time>
      </trkpt>
      <trkpt lat="49.25017" lon="-0.10045">
        <ele>4.9</ele>
        <time>2023-10-15T09:39:00Z</time>
      </trkpt>
      <trkpt lat="49.25022" lon="-0.10032">
        <ele>4.8</ele>
        <time>2023-10-15T09:39:01Z</time>
      </trkpt>
      <trkpt lat="49.25027" lon="-0.10021">
        <ele>4.8</ele>
        <time>2023-10-15T09:39:02Z</time>
      </trkpt>
      <trkpt lat="49.25032" lon="-0.10008">
        <ele>4.7</ele>
        <time>2023-10-15T09:39:03Z</time>
      </trkpt>
      <trkpt lat="49.25037" lon="-0.09996">
        <ele>4.6</ele>
        <time>2023-10-15T09:39:04Z</time>
      </trkpt>
      <trkpt lat="49.25041" lon="-0.09984">
        <ele>4.5</ele>
        <time>2023-10-15T09:39:05Z</time>
      </trkpt>
      <trkpt lat="49.25046" lon="-0.09971">
        <ele>4.5</ele>
        <time>2023-10-15T09:39:06Z</time>
      </trkpt>
      <trkpt lat="49.2505" lon="-0.09959">
        <ele>4.5</ele>
        <time>2023-10-15T09:39:07Z</time>
      </trkpt>
      <trkpt lat="49.25055" lon="-0.09947">
        <ele>4.4</ele>
        <time>2023-10-15T09:39:08Z</time>
      </trkpt>
      <trkpt lat="49.2506" lon="-0.09935">
        <ele>4.4</ele>
        <time>2023-10-15T09:39:09Z</time>
      </trkpt>
      <trkpt lat="49.25064" lon="-0.09923">
        <ele>4.4</ele>
        <time>2023-10-15T09:39:10Z</time>
      </trkpt>
      <trkpt lat="49.25068" lon="-0.09911">
        <ele>4.3</ele>
        <time>2023-10-15T09:39:11Z</time>
      </trkpt>
      <trkpt lat="49.25073" lon="-0.099">
        <ele>4.3</ele>
        <time>2023-10-15T09:39:12Z</time>
      </trkpt>
      <trkpt lat="49.25077" lon="-0.09888">
        <ele>4.3</ele>
        <time>2023-10-15T09:39:13Z</time>
      </trkpt>
      <trkpt lat="49.25081" lon="-0.09876">
        <ele>4.3</ele>
        <time>2023-10-15T09:39:14Z</time>
      </trkpt>
      <trkpt lat="49.25085" lon="-0.09864">
        <ele>4.2</ele>
        <time>2023-10-15T09:39:15Z</time>
      </trkpt>
      <trkpt lat="49.2509" lon="-0.09852">
        <ele>4.2</ele>
        <time>2023-10-15T09:39:16Z</time>
      </trkpt>
      <trkpt lat="49.25094" lon="-0.09841">
        <ele>4.3</ele>
        <time>2023-10-15T09:39:17Z</time>
      </trkpt>
      <trkpt lat="49.25098" lon="-0.09829">
        <ele>4.3</ele>
        <time>2023-10-15T09:39:18Z</time>
      </trkpt>
      <trkpt lat="49.25103" lon="-0.09816">
        <ele>4.3</ele>
        <time>2023-10-15T09:39:19Z</time>
      </trkpt>
      <trkpt lat="49.25108" lon="-0.09804">
        <ele>4.3</ele>
        <time>2023-10-15T09:39:20Z</time>
      </trkpt>
      <trkpt lat="49.25113" lon="-0.09792">
        <ele>4.4</ele>
        <time>2023-10-15T09:39:21Z</time>
      </trkpt>
      <trkpt lat="49.25118" lon="-0.09779">
        <ele>4.4</ele>
        <time>2023-10-15T09:39:22Z</time>
      </trkpt>
      <trkpt lat="49.25123" lon="-0.09768">
        <ele>4.5</ele>
        <time>2023-10-15T09:39:23Z</time>
      </trkpt>
      <trkpt lat="49.25128" lon="-0.09757">
        <ele>4.6</ele>
        <time>2023-10-15T09:39:24Z</time>
      </trkpt>
      <trkpt lat="49.25135" lon="-0.09748">
        <ele>4.6</ele>
        <time>2023-10-15T09:39:25Z</time>
      </trkpt>
      <trkpt lat="49.25142" lon="-0.0974">
        <ele>4.7</ele>
        <time>2023-10-15T09:39:26Z</time>
      </trkpt>
      <trkpt lat="49.25149" lon="-0.09733">
        <ele>4.7</ele>
        <time>2023-10-15T09:39:27Z</time>
      </trkpt>
      <trkpt lat="49.25158" lon="-0.09729">
        <ele>4.8</ele>
        <time>2023-10-15T09:39:28Z</time>
      </trkpt>
      <trkpt lat="49.25166" lon="-0.09725">
        <ele>4.8</ele>
        <time>2023-10-15T09:39:29Z</time>
      </trkpt>
      <trkpt lat="49.25175" lon="-0.09723">
        <ele>4.9</ele>
        <time>2023-10-15T09:39:30Z</time>
      </trkpt>
      <trkpt lat="49.25184" lon="-0.0972">
        <ele>5</ele>
        <time>2023-10-15T09:39:31Z</time>
      </trkpt>
      <trkpt lat="49.25192" lon="-0.09716">
        <ele>5.1</ele>
        <time>2023-10-15T09:39:32Z</time>
      </trkpt>
      <trkpt lat="49.25201" lon="-0.09712">
        <ele>5.2</ele>
        <time>2023-10-15T09:39:33Z</time>
      </trkpt>
      <trkpt lat="49.2521" lon="-0.09709">
        <ele>5.3</ele>
        <time>2023-10-15T09:39:34Z</time>
      </trkpt>
      <trkpt lat="49.25218" lon="-0.09706">
        <ele>5.4</ele>
        <time>2023-10-15T09:39:35Z</time>
      </trkpt>
      <trkpt lat="49.25226" lon="-0.09703">
        <ele>5.4</ele>
        <time>2023-10-15T09:39:36Z</time>
      </trkpt>
      <trkpt lat="49.25235" lon="-0.09699">
        <ele>5.4</ele>
        <time>2023-10-15T09:39:37Z</time>
      </trkpt>
      <trkpt lat="49.25243" lon="-0.09695">
        <ele>5.4</ele>
        <time>2023-10-15T09:39:38Z</time>
      </trkpt>
      <trkpt lat="49.25252" lon="-0.09691">
        <ele>5.5</ele>
        <time>2023-10-15T09:39:39Z</time>
      </trkpt>
      <trkpt lat="49.25261" lon="-0.09685">
        <ele>5.5</ele>
        <time>2023-10-15T09:39:40Z</time>
      </trkpt>
      <trkpt lat="49.25269" lon="-0.09679">
        <ele>5.4</ele>
        <time>2023-10-15T09:39:41Z</time>
      </trkpt>
      <trkpt lat="49.25276" lon="-0.09671">
        <ele>5.4</ele>
        <time>2023-10-15T09:39:42Z</time>
      </trkpt>
      <trkpt lat="49.25283" lon="-0.09663">
        <ele>5.4</ele>
        <time>2023-10-15T09:39:43Z</time>
      </trkpt>
      <trkpt lat="49.2529" lon="-0.09654">
        <ele>5.4</ele>
        <time>2023-10-15T09:39:44Z</time>
      </trkpt>
      <trkpt lat="49.25298" lon="-0.09647">
        <ele>5.3</ele>
        <time>2023-10-15T09:39:45Z</time>
      </trkpt>
      <trkpt lat="49.25306" lon="-0.0964">
        <ele>5.3</ele>
        <time>2023-10-15T09:39:46Z</time>
      </trkpt>
      <trkpt lat="49.25314" lon="-0.09635">
        <ele>5.3</ele>
        <time>2023-10-15T09:39:47Z</time>
      </trkpt>
      <trkpt lat="49.25323" lon="-0.0963">
        <ele>5.2</ele>
        <time>2023-10-15T09:39:48Z</time>
      </trkpt>
      <trkpt lat="49.25332" lon="-0.09627">
        <ele>5.2</ele>
        <time>2023-10-15T09:39:49Z</time>
      </trkpt>
      <trkpt lat="49.25341" lon="-0.09624">
        <ele>5.1</ele>
        <time>2023-10-15T09:39:50Z</time>
      </trkpt>
      <trkpt lat="49.25349" lon="-0.09622">
        <ele>5.1</ele>
        <time>2023-10-15T09:39:51Z</time>
      </trkpt>
      <trkpt lat="49.25359" lon="-0.09621">
        <ele>5.1</ele>
        <time>2023-10-15T09:39:52Z</time>
      </trkpt>
      <trkpt lat="49.25368" lon="-0.0962">
        <ele>5.1</ele>
        <time>2023-10-15T09:39:53Z</time>
      </trkpt>
      <trkpt lat="49.25378" lon="-0.09618">
        <ele>5.1</ele>
        <time>2023-10-15T09:39:54Z</time>
      </trkpt>
      <trkpt lat="49.25387" lon="-0.09616">
        <ele>5.1</ele>
        <time>2023-10-15T09:39:55Z</time>
      </trkpt>
      <trkpt lat="49.25396" lon="-0.09614">
        <ele>5.1</ele>
        <time>2023-10-15T09:39:56Z</time>
      </trkpt>
      <trkpt lat="49.25405" lon="-0.09612">
        <ele>5.2</ele>
        <time>2023-10-15T09:39:57Z</time>
      </trkpt>
      <trkpt lat="49.25414" lon="-0.09611">
        <ele>5.2</ele>
        <time>2023-10-15T09:39:58Z</time>
      </trkpt>
      <trkpt lat="49.25423" lon="-0.09609">
        <ele>5.3</ele>
        <time>2023-10-15T09:39:59Z</time>
      </trkpt>
      <trkpt lat="49.25432" lon="-0.09608">
        <ele>5.3</ele>
        <time>2023-10-15T09:40:00Z</time>
      </trkpt>
      <trkpt lat="49.25441" lon="-0.09606">
        <ele>5.4</ele>
        <time>2023-10-15T09:40:01Z</time>
      </trkpt>
      <trkpt lat="49.2545" lon="-0.09605">
        <ele>5.5</ele>
        <time>2023-10-15T09:40:02Z</time>
      </trkpt>
      <trkpt lat="49.25458" lon="-0.09603">
        <ele>5.5</ele>
        <time>2023-10-15T09:40:03Z</time>
      </trkpt>
      <trkpt lat="49.25467" lon="-0.09602">
        <ele>5.7</ele>
        <time>2023-10-15T09:40:04Z</time>
      </trkpt>
      <trkpt lat="49.25475" lon="-0.096">
        <ele>5.8</ele>
        <time>2023-10-15T09:40:05Z</time>
      </trkpt>
      <trkpt lat="49.25484" lon="-0.09599">
        <ele>5.8</ele>
        <time>2023-10-15T09:40:06Z</time>
      </trkpt>
      <trkpt lat="49.25492" lon="-0.09597">
        <ele>5.9</ele>
        <time>2023-10-15T09:40:07Z</time>
      </trkpt>
      <trkpt lat="49.25501" lon="-0.09596">
        <ele>6</ele>
        <time>2023-10-15T09:40:08Z</time>
      </trkpt>
      <trkpt lat="49.2551" lon="-0.09595">
        <ele>6.1</ele>
        <time>2023-10-15T09:40:09Z</time>
      </trkpt>
      <trkpt lat="49.25519" lon="-0.09594">
        <ele>6.2</ele>
        <time>2023-10-15T09:40:10Z</time>
      </trkpt>
      <trkpt lat="49.25528" lon="-0.09594">
        <ele>6.3</ele>
        <time>2023-10-15T09:40:11Z</time>
      </trkpt>
      <trkpt lat="49.25537" lon="-0.09594">
        <ele>6.5</ele>
        <time>2023-10-15T09:40:12Z</time>
      </trkpt>
      <trkpt lat="49.25546" lon="-0.09594">
        <ele>6.6</ele>
        <time>2023-10-15T09:40:13Z</time>
      </trkpt>
      <trkpt lat="49.25556" lon="-0.09594">
        <ele>6.7</ele>
        <time>2023-10-15T09:40:14Z</time>
      </trkpt>
      <trkpt lat="49.25565" lon="-0.09594">
        <ele>6.8</ele>
        <time>2023-10-15T09:40:15Z</time>
      </trkpt>
      <trkpt lat="49.25574" lon="-0.09594">
        <ele>6.9</ele>
        <time>2023-10-15T09:40:16Z</time>
      </trkpt>
      <trkpt lat="49.25583" lon="-0.09594">
        <ele>7</ele>
        <time>2023-10-15T09:40:17Z</time>
      </trkpt>
      <trkpt lat="49.25592" lon="-0.09595">
        <ele>7</ele>
        <time>2023-10-15T09:40:18Z</time>
      </trkpt>
      <trkpt lat="49.25602" lon="-0.09595">
        <ele>7.1</ele>
        <time>2023-10-15T09:40:19Z</time>
      </trkpt>
      <trkpt lat="49.25611" lon="-0.09594">
        <ele>7.1</ele>
        <time>2023-10-15T09:40:20Z</time>
      </trkpt>
      <trkpt lat="49.2562" lon="-0.09593">
        <ele>7.2</ele>
        <time>2023-10-15T09:40:21Z</time>
      </trkpt>
      <trkpt lat="49.25629" lon="-0.09591">
        <ele>7.2</ele>
        <time>2023-10-15T09:40:22Z</time>
      </trkpt>
      <trkpt lat="49.25637" lon="-0.09588">
        <ele>7.3</ele>
        <time>2023-10-15T09:40:23Z</time>
      </trkpt>
      <trkpt lat="49.25646" lon="-0.09585">
        <ele>7.3</ele>
        <time>2023-10-15T09:40:24Z</time>
      </trkpt>
      <trkpt lat="49.25655" lon="-0.09581">
        <ele>7.3</ele>
        <time>2023-10-15T09:40:25Z</time>
      </trkpt>
      <trkpt lat="49.25663" lon="-0.09575">
        <ele>7.4</ele>
        <time>2023-10-15T09:40:26Z</time>
      </trkpt>
      <trkpt lat="49.25672" lon="-0.09569">
        <ele>7.4</ele>
        <time>2023-10-15T09:40:27Z</time>
      </trkpt>
      <trkpt lat="49.2568" lon="-0.09563">
        <ele>7.4</ele>
        <time>2023-10-15T09:40:28Z</time>
      </trkpt>
      <trkpt lat="49.25688" lon="-0.09557">
        <ele>7.5</ele>
        <time>2023-10-15T09:40:29Z</time>
      </trkpt>
      <trkpt lat="49.25695" lon="-0.09552">
        <ele>7.5</ele>
        <time>2023-10-15T09:40:30Z</time>
      </trkpt>
      <trkpt lat="49.25703" lon="-0.09547">
        <ele>7.6</ele>
        <time>2023-10-15T09:40:31Z</time>
      </trkpt>
      <trkpt lat="49.2571" lon="-0.09542">
        <ele>7.6</ele>
        <time>2023-10-15T09:40:32Z</time>
      </trkpt>
      <trkpt lat="49.25718" lon="-0.09536">
        <ele>7.6</ele>
        <time>2023-10-15T09:40:33Z</time>
      </trkpt>
      <trkpt lat="49.25725" lon="-0.0953">
        <ele>7.7</ele>
        <time>2023-10-15T09:40:34Z</time>
      </trkpt>
      <trkpt lat="49.25732" lon="-0.09525">
        <ele>7.7</ele>
        <time>2023-10-15T09:40:35Z</time>
      </trkpt>
      <trkpt lat="49.25739" lon="-0.0952">
        <ele>7.8</ele>
        <time>2023-10-15T09:40:36Z</time>
      </trkpt>
      <trkpt lat="49.25746" lon="-0.09515">
        <ele>7.9</ele>
        <time>2023-10-15T09:40:37Z</time>
      </trkpt>
      <trkpt lat="49.25753" lon="-0.09511">
        <ele>8</ele>
        <time>2023-10-15T09:40:38Z</time>
      </trkpt>
      <trkpt lat="49.2576" lon="-0.09506">
        <ele>8.1</ele>
        <time>2023-10-15T09:40:39Z</time>
      </trkpt>
      <trkpt lat="49.25766" lon="-0.09501">
        <ele>8.2</ele>
        <time>2023-10-15T09:40:40Z</time>
      </trkpt>
      <trkpt lat="49.25772" lon="-0.09496">
        <ele>8.4</ele>
        <time>2023-10-15T09:40:41Z</time>
      </trkpt>
      <trkpt lat="49.25779" lon="-0.09492">
        <ele>8.5</ele>
        <time>2023-10-15T09:40:42Z</time>
      </trkpt>
      <trkpt lat="49.25784" lon="-0.09489">
        <ele>8.5</ele>
        <time>2023-10-15T09:40:43Z</time>
      </trkpt>
      <trkpt lat="49.25789" lon="-0.09486">
        <ele>8.5</ele>
        <time>2023-10-15T09:40:44Z</time>
      </trkpt>
      <trkpt lat="49.25793" lon="-0.09484">
        <ele>8.5</ele>
        <time>2023-10-15T09:40:45Z</time>
      </trkpt>
      <trkpt lat="49.25798" lon="-0.09482">
        <ele>8.5</ele>
        <time>2023-10-15T09:40:46Z</time>
      </trkpt>
      <trkpt lat="49.25801" lon="-0.09479">
        <ele>8.5</ele>
        <time>2023-10-15T09:40:47Z</time>
      </trkpt>
      <trkpt lat="49.25805" lon="-0.09477">
        <ele>8.5</ele>
        <time>2023-10-15T09:40:48Z</time>
      </trkpt>
      <trkpt lat="49.25809" lon="-0.09475">
        <ele>8.5</ele>
        <time>2023-10-15T09:40:49Z</time>
      </trkpt>
      <trkpt lat="49.25813" lon="-0.09475">
        <ele>8.5</ele>
        <time>2023-10-15T09:40:50Z</time>
      </trkpt>
      <trkpt lat="49.25818" lon="-0.09476">
        <ele>8.5</ele>
        <time>2023-10-15T09:40:51Z</time>
      </trkpt>
      <trkpt lat="49.25821" lon="-0.09477">
        <ele>8.5</ele>
        <time>2023-10-15T09:40:52Z</time>
      </trkpt>
      <trkpt lat="49.25825" lon="-0.09477">
        <ele>8.5</ele>
        <time>2023-10-15T09:40:53Z</time>
      </trkpt>
      <trkpt lat="49.25828" lon="-0.09477">
        <ele>8.5</ele>
        <time>2023-10-15T09:40:54Z</time>
      </trkpt>
      <trkpt lat="49.25831" lon="-0.09477">
        <ele>8.5</ele>
        <time>2023-10-15T09:40:55Z</time>
      </trkpt>
      <trkpt lat="49.25832" lon="-0.09477">
        <ele>8.5</ele>
        <time>2023-10-15T09:40:56Z</time>
      </trkpt>
      <trkpt lat="49.25834" lon="-0.09477">
        <ele>8.5</ele>
        <time>2023-10-15T09:40:57Z</time>
      </trkpt>
      <trkpt lat="49.25834" lon="-0.09477">
        <ele>8.5</ele>
        <time>2023-10-15T09:40:58Z</time>
      </trkpt>
      <trkpt lat="49.25834" lon="-0.09478">
        <ele>8.5</ele>
        <time>2023-10-15T09:40:59Z</time>
      </trkpt>
      <trkpt lat="49.25834" lon="-0.09478">
        <ele>8.5</ele>
        <time>2023-10-15T09:41:00Z</time>
      </trkpt>
      <trkpt lat="49.25834" lon="-0.09478">
        <ele>8.5</ele>
        <time>2023-10-15T09:41:01Z</time>
      </trkpt>
      <trkpt lat="49.25834" lon="-0.09478">
        <ele>8.5</ele>
        <time>2023-10-15T09:41:02Z</time>
      </trkpt>
      <trkpt lat="49.25834" lon="-0.09478">
        <ele>8.5</ele>
        <time>2023-10-15T09:41:03Z</time>
      </trkpt>
      <trkpt lat="49.25834" lon="-0.09478">
        <ele>8.5</ele>
        <time>2023-10-15T09:41:04Z</time>
      </trkpt>
      <trkpt lat="49.25834" lon="-0.09478">
        <ele>8.5</ele>
        <time>2023-10-15T09:41:05Z</time>
      </trkpt>
      <trkpt lat="49.25834" lon="-0.09478">
        <ele>8.5</ele>
        <time>2023-10-15T09:41:06Z</time>
      </trkpt>
      <trkpt lat="49.25834" lon="-0.09478">
        <ele>8.5</ele>
        <time>2023-10-15T09:41:07Z</time>
      </trkpt>
      <trkpt lat="49.25834" lon="-0.09478">
        <ele>8.5</ele>
        <time>2023-10-15T09:41:08Z</time>
      </trkpt>
      <trkpt lat="49.25834" lon="-0.09478">
        <ele>8.5</ele>
        <time>2023-10-15T09:41:09Z</time>
      </trkpt>
      <trkpt lat="49.25838" lon="-0.09478">
        <ele>8.5</ele>
        <time>2023-10-15T09:41:32Z</time>
      </trkpt>
      <trkpt lat="49.2584" lon="-0.09479">
        <ele>8.5</ele>
        <time>2023-10-15T09:41:33Z</time>
      </trkpt>
      <trkpt lat="49.25842" lon="-0.09479">
        <ele>8.5</ele>
        <time>2023-10-15T09:41:34Z</time>
      </trkpt>
      <trkpt lat="49.25845" lon="-0.09479">
        <ele>8.5</ele>
        <time>2023-10-15T09:41:35Z</time>
      </trkpt>
      <trkpt lat="49.25846" lon="-0.09479">
        <ele>8.5</ele>
        <time>2023-10-15T09:41:36Z</time>
      </trkpt>
      <trkpt lat="49.25849" lon="-0.09479">
        <ele>8.5</ele>
        <time>2023-10-15T09:41:37Z</time>
      </trkpt>
      <trkpt lat="49.2585" lon="-0.09479">
        <ele>8.4</ele>
        <time>2023-10-15T09:41:38Z</time>
      </trkpt>
      <trkpt lat="49.25855" lon="-0.09479">
        <ele>8.4</ele>
        <time>2023-10-15T09:41:39Z</time>
      </trkpt>
      <trkpt lat="49.25856" lon="-0.09479">
        <ele>8.4</ele>
        <time>2023-10-15T09:41:40Z</time>
      </trkpt>
      <trkpt lat="49.25859" lon="-0.0948">
        <ele>8.3</ele>
        <time>2023-10-15T09:41:41Z</time>
      </trkpt>
      <trkpt lat="49.25862" lon="-0.0948">
        <ele>8.3</ele>
        <time>2023-10-15T09:41:42Z</time>
      </trkpt>
      <trkpt lat="49.25866" lon="-0.0948">
        <ele>8.3</ele>
        <time>2023-10-15T09:41:43Z</time>
      </trkpt>
      <trkpt lat="49.2587" lon="-0.09481">
        <ele>8.3</ele>
        <time>2023-10-15T09:41:44Z</time>
      </trkpt>
      <trkpt lat="49.25874" lon="-0.09482">
        <ele>8.3</ele>
        <time>2023-10-15T09:41:45Z</time>
      </trkpt>
      <trkpt lat="49.25877" lon="-0.09483">
        <ele>8.4</ele>
        <time>2023-10-15T09:41:46Z</time>
      </trkpt>
      <trkpt lat="49.25881" lon="-0.09483">
        <ele>8.5</ele>
        <time>2023-10-15T09:41:47Z</time>
      </trkpt>
      <trkpt lat="49.25885" lon="-0.09483">
        <ele>8.5</ele>
        <time>2023-10-15T09:41:48Z</time>
      </trkpt>
      <trkpt lat="49.25889" lon="-0.09483">
        <ele>8.6</ele>
        <time>2023-10-15T09:41:49Z</time>
      </trkpt>
      <trkpt lat="49.25893" lon="-0.09484">
        <ele>8.7</ele>
        <time>2023-10-15T09:41:50Z</time>
      </trkpt>
      <trkpt lat="49.25897" lon="-0.09484">
        <ele>8.8</ele>
        <time>2023-10-15T09:41:51Z</time>
      </trkpt>
      <trkpt lat="49.25901" lon="-0.09484">
        <ele>8.9</ele>
        <time>2023-10-15T09:41:52Z</time>
      </trkpt>
      <trkpt lat="49.25905" lon="-0.09485">
        <ele>9</ele>
        <time>2023-10-15T09:41:53Z</time>
      </trkpt>
      <trkpt lat="49.2591" lon="-0.09485">
        <ele>9.1</ele>
        <time>2023-10-15T09:41:54Z</time>
      </trkpt>
      <trkpt lat="49.25914" lon="-0.09485">
        <ele>9.3</ele>
        <time>2023-10-15T09:41:55Z</time>
      </trkpt>
      <trkpt lat="49.25919" lon="-0.09485">
        <ele>9.4</ele>
        <time>2023-10-15T09:41:56Z</time>
      </trkpt>
      <trkpt lat="49.25924" lon="-0.09486">
        <ele>9.6</ele>
        <time>2023-10-15T09:41:57Z</time>
      </trkpt>
      <trkpt lat="49.25929" lon="-0.09486">
        <ele>9.7</ele>
        <time>2023-10-15T09:41:58Z</time>
      </trkpt>
      <trkpt lat="49.25935" lon="-0.09486">
        <ele>9.9</ele>
        <time>2023-10-15T09:41:59Z</time>
      </trkpt>
      <trkpt lat="49.2594" lon="-0.09485">
        <ele>10.1</ele>
        <time>2023-10-15T09:42:00Z</time>
      </trkpt>
      <trkpt lat="49.25945" lon="-0.09484">
        <ele>10.3</ele>
        <time>2023-10-15T09:42:01Z</time>
      </trkpt>
      <trkpt lat="49.2595" lon="-0.09484">
        <ele>10.5</ele>
        <time>2023-10-15T09:42:02Z</time>
      </trkpt>
      <trkpt lat="49.25955" lon="-0.09484">
        <ele>10.7</ele>
        <time>2023-10-15T09:42:03Z</time>
      </trkpt>
      <trkpt lat="49.25961" lon="-0.09482">
        <ele>10.9</ele>
        <time>2023-10-15T09:42:04Z</time>
      </trkpt>
      <trkpt lat="49.25966" lon="-0.0948">
        <ele>11.2</ele>
        <time>2023-10-15T09:42:05Z</time>
      </trkpt>
      <trkpt lat="49.25971" lon="-0.09479">
        <ele>11.4</ele>
        <time>2023-10-15T09:42:06Z</time>
      </trkpt>
      <trkpt lat="49.25976" lon="-0.09477">
        <ele>11.5</ele>
        <time>2023-10-15T09:42:07Z</time>
      </trkpt>
      <trkpt lat="49.25982" lon="-0.09476">
        <ele>11.7</ele>
        <time>2023-10-15T09:42:08Z</time>
      </trkpt>
      <trkpt lat="49.25987" lon="-0.09474">
        <ele>11.8</ele>
        <time>2023-10-15T09:42:09Z</time>
      </trkpt>
      <trkpt lat="49.25993" lon="-0.09472">
        <ele>11.9</ele>
        <time>2023-10-15T09:42:10Z</time>
      </trkpt>
      <trkpt lat="49.25998" lon="-0.09471">
        <ele>12</ele>
        <time>2023-10-15T09:42:11Z</time>
      </trkpt>
      <trkpt lat="49.26004" lon="-0.09469">
        <ele>12.1</ele>
        <time>2023-10-15T09:42:12Z</time>
      </trkpt>
      <trkpt lat="49.2601" lon="-0.09467">
        <ele>12.2</ele>
        <time>2023-10-15T09:42:13Z</time>
      </trkpt>
      <trkpt lat="49.26016" lon="-0.09465">
        <ele>12.3</ele>
        <time>2023-10-15T09:42:14Z</time>
      </trkpt>
      <trkpt lat="49.26023" lon="-0.09464">
        <ele>12.4</ele>
        <time>2023-10-15T09:42:15Z</time>
      </trkpt>
      <trkpt lat="49.26029" lon="-0.09462">
        <ele>12.4</ele>
        <time>2023-10-15T09:42:16Z</time>
      </trkpt>
      <trkpt lat="49.26035" lon="-0.09461">
        <ele>12.5</ele>
        <time>2023-10-15T09:42:17Z</time>
      </trkpt>
      <trkpt lat="49.26041" lon="-0.0946">
        <ele>12.5</ele>
        <time>2023-10-15T09:42:18Z</time>
      </trkpt>
      <trkpt lat="49.26047" lon="-0.09459">
        <ele>12.5</ele>
        <time>2023-10-15T09:42:19Z</time>
      </trkpt>
      <trkpt lat="49.26054" lon="-0.09458">
        <ele>12.5</ele>
        <time>2023-10-15T09:42:20Z</time>
      </trkpt>
      <trkpt lat="49.2606" lon="-0.09456">
        <ele>12.5</ele>
        <time>2023-10-15T09:42:21Z</time>
      </trkpt>
      <trkpt lat="49.26067" lon="-0.09455">
        <ele>12.4</ele>
        <time>2023-10-15T09:42:22Z</time>
      </trkpt>
      <trkpt lat="49.26074" lon="-0.09454">
        <ele>12.4</ele>
        <time>2023-10-15T09:42:23Z</time>
      </trkpt>
      <trkpt lat="49.26081" lon="-0.09453">
        <ele>12.4</ele>
        <time>2023-10-15T09:42:24Z</time>
      </trkpt>
      <trkpt lat="49.26088" lon="-0.09452">
        <ele>12.4</ele>
        <time>2023-10-15T09:42:25Z</time>
      </trkpt>
      <trkpt lat="49.26094" lon="-0.0945">
        <ele>12.4</ele>
        <time>2023-10-15T09:42:26Z</time>
      </trkpt>
      <trkpt lat="49.26101" lon="-0.09449">
        <ele>12.4</ele>
        <time>2023-10-15T09:42:27Z</time>
      </trkpt>
      <trkpt lat="49.26108" lon="-0.09447">
        <ele>12.4</ele>
        <time>2023-10-15T09:42:28Z</time>
      </trkpt>
      <trkpt lat="49.26114" lon="-0.09446">
        <ele>12.3</ele>
        <time>2023-10-15T09:42:29Z</time>
      </trkpt>
      <trkpt lat="49.26121" lon="-0.09445">
        <ele>12.3</ele>
        <time>2023-10-15T09:42:30Z</time>
      </trkpt>
      <trkpt lat="49.26128" lon="-0.09443">
        <ele>12.2</ele>
        <time>2023-10-15T09:42:31Z</time>
      </trkpt>
      <trkpt lat="49.26135" lon="-0.09442">
        <ele>12.2</ele>
        <time>2023-10-15T09:42:32Z</time>
      </trkpt>
      <trkpt lat="49.26143" lon="-0.09441">
        <ele>12.1</ele>
        <time>2023-10-15T09:42:33Z</time>
      </trkpt>
      <trkpt lat="49.2615" lon="-0.09441">
        <ele>12</ele>
        <time>2023-10-15T09:42:34Z</time>
      </trkpt>
      <trkpt lat="49.26157" lon="-0.09442">
        <ele>11.9</ele>
        <time>2023-10-15T09:42:35Z</time>
      </trkpt>
      <trkpt lat="49.26164" lon="-0.09443">
        <ele>11.8</ele>
        <time>2023-10-15T09:42:36Z</time>
      </trkpt>
      <trkpt lat="49.26171" lon="-0.09446">
        <ele>11.7</ele>
        <time>2023-10-15T09:42:37Z</time>
      </trkpt>
      <trkpt lat="49.26178" lon="-0.09451">
        <ele>11.5</ele>
        <time>2023-10-15T09:42:38Z</time>
      </trkpt>
      <trkpt lat="49.26185" lon="-0.09455">
        <ele>11.4</ele>
        <time>2023-10-15T09:42:39Z</time>
      </trkpt>
      <trkpt lat="49.26193" lon="-0.0946">
        <ele>11.3</ele>
        <time>2023-10-15T09:42:40Z</time>
      </trkpt>
      <trkpt lat="49.26201" lon="-0.09464">
        <ele>11.1</ele>
        <time>2023-10-15T09:42:41Z</time>
      </trkpt>
      <trkpt lat="49.26209" lon="-0.09466">
        <ele>11.1</ele>
        <time>2023-10-15T09:42:42Z</time>
      </trkpt>
      <trkpt lat="49.26217" lon="-0.09467">
        <ele>11</ele>
        <time>2023-10-15T09:42:43Z</time>
      </trkpt>
      <trkpt lat="49.26224" lon="-0.09467">
        <ele>11</ele>
        <time>2023-10-15T09:42:44Z</time>
      </trkpt>
      <trkpt lat="49.26231" lon="-0.09465">
        <ele>11.1</ele>
        <time>2023-10-15T09:42:45Z</time>
      </trkpt>
      <trkpt lat="49.26238" lon="-0.09462">
        <ele>11.1</ele>
        <time>2023-10-15T09:42:46Z</time>
      </trkpt>
      <trkpt lat="49.26245" lon="-0.09459">
        <ele>11.2</ele>
        <time>2023-10-15T09:42:47Z</time>
      </trkpt>
      <trkpt lat="49.26251" lon="-0.09454">
        <ele>11.3</ele>
        <time>2023-10-15T09:42:48Z</time>
      </trkpt>
      <trkpt lat="49.26257" lon="-0.09451">
        <ele>11.4</ele>
        <time>2023-10-15T09:42:49Z</time>
      </trkpt>
      <trkpt lat="49.26262" lon="-0.09446">
        <ele>11.5</ele>
        <time>2023-10-15T09:42:50Z</time>
      </trkpt>
      <trkpt lat="49.26268" lon="-0.09443">
        <ele>11.6</ele>
        <time>2023-10-15T09:42:51Z</time>
      </trkpt>
      <trkpt lat="49.26273" lon="-0.09439">
        <ele>11.8</ele>
        <time>2023-10-15T09:42:52Z</time>
      </trkpt>
      <trkpt lat="49.26279" lon="-0.09436">
        <ele>12</ele>
        <time>2023-10-15T09:42:53Z</time>
      </trkpt>
      <trkpt lat="49.26284" lon="-0.09432">
        <ele>12.2</ele>
        <time>2023-10-15T09:42:54Z</time>
      </trkpt>
      <trkpt lat="49.26289" lon="-0.09429">
        <ele>12.4</ele>
        <time>2023-10-15T09:42:55Z</time>
      </trkpt>
      <trkpt lat="49.26294" lon="-0.09427">
        <ele>12.6</ele>
        <time>2023-10-15T09:42:56Z</time>
      </trkpt>
      <trkpt lat="49.26299" lon="-0.09424">
        <ele>12.8</ele>
        <time>2023-10-15T09:42:57Z</time>
      </trkpt>
      <trkpt lat="49.26305" lon="-0.09421">
        <ele>13</ele>
        <time>2023-10-15T09:42:58Z</time>
      </trkpt>
      <trkpt lat="49.2631" lon="-0.09419">
        <ele>13.2</ele>
        <time>2023-10-15T09:42:59Z</time>
      </trkpt>
      <trkpt lat="49.26316" lon="-0.09418">
        <ele>13.4</ele>
        <time>2023-10-15T09:43:00Z</time>
      </trkpt>
      <trkpt lat="49.26321" lon="-0.09417">
        <ele>13.6</ele>
        <time>2023-10-15T09:43:01Z</time>
      </trkpt>
      <trkpt lat="49.26327" lon="-0.09415">
        <ele>13.9</ele>
        <time>2023-10-15T09:43:02Z</time>
      </trkpt>
      <trkpt lat="49.26332" lon="-0.09414">
        <ele>14.1</ele>
        <time>2023-10-15T09:43:03Z</time>
      </trkpt>
      <trkpt lat="49.26337" lon="-0.09412">
        <ele>14.2</ele>
        <time>2023-10-15T09:43:04Z</time>
      </trkpt>
      <trkpt lat="49.26343" lon="-0.09411">
        <ele>14.4</ele>
        <time>2023-10-15T09:43:05Z</time>
      </trkpt>
      <trkpt lat="49.26348" lon="-0.0941">
        <ele>14.6</ele>
        <time>2023-10-15T09:43:06Z</time>
      </trkpt>
      <trkpt lat="49.26354" lon="-0.09409">
        <ele>14.8</ele>
        <time>2023-10-15T09:43:07Z</time>
      </trkpt>
      <trkpt lat="49.26361" lon="-0.0941">
        <ele>14.9</ele>
        <time>2023-10-15T09:43:08Z</time>
      </trkpt>
      <trkpt lat="49.26367" lon="-0.0941">
        <ele>15.1</ele>
        <time>2023-10-15T09:43:09Z</time>
      </trkpt>
      <trkpt lat="49.26373" lon="-0.0941">
        <ele>15.2</ele>
        <time>2023-10-15T09:43:10Z</time>
      </trkpt>
      <trkpt lat="49.26379" lon="-0.0941">
        <ele>15.3</ele>
        <time>2023-10-15T09:43:11Z</time>
      </trkpt>
      <trkpt lat="49.26385" lon="-0.0941">
        <ele>15.4</ele>
        <time>2023-10-15T09:43:12Z</time>
      </trkpt>
      <trkpt lat="49.26391" lon="-0.0941">
        <ele>15.5</ele>
        <time>2023-10-15T09:43:13Z</time>
      </trkpt>
      <trkpt lat="49.26398" lon="-0.09411">
        <ele>15.6</ele>
        <time>2023-10-15T09:43:14Z</time>
      </trkpt>
      <trkpt lat="49.26404" lon="-0.09411">
        <ele>15.7</ele>
        <time>2023-10-15T09:43:15Z</time>
      </trkpt>
      <trkpt lat="49.26411" lon="-0.09411">
        <ele>15.7</ele>
        <time>2023-10-15T09:43:16Z</time>
      </trkpt>
      <trkpt lat="49.26418" lon="-0.09411">
        <ele>15.8</ele>
        <time>2023-10-15T09:43:17Z</time>
      </trkpt>
      <trkpt lat="49.26425" lon="-0.09412">
        <ele>15.9</ele>
        <time>2023-10-15T09:43:18Z</time>
      </trkpt>
      <trkpt lat="49.26432" lon="-0.09412">
        <ele>15.9</ele>
        <time>2023-10-15T09:43:19Z</time>
      </trkpt>
      <trkpt lat="49.26439" lon="-0.09413">
        <ele>15.9</ele>
        <time>2023-10-15T09:43:20Z</time>
      </trkpt>
      <trkpt lat="49.26446" lon="-0.09413">
        <ele>15.9</ele>
        <time>2023-10-15T09:43:21Z</time>
      </trkpt>
      <trkpt lat="49.26452" lon="-0.09414">
        <ele>15.9</ele>
        <time>2023-10-15T09:43:22Z</time>
      </trkpt>
      <trkpt lat="49.26459" lon="-0.09415">
        <ele>15.8</ele>
        <time>2023-10-15T09:43:23Z</time>
      </trkpt>
      <trkpt lat="49.26466" lon="-0.09416">
        <ele>15.8</ele>
        <time>2023-10-15T09:43:24Z</time>
      </trkpt>
      <trkpt lat="49.26472" lon="-0.09416">
        <ele>15.7</ele>
        <time>2023-10-15T09:43:25Z</time>
      </trkpt>
      <trkpt lat="49.26479" lon="-0.09416">
        <ele>15.7</ele>
        <time>2023-10-15T09:43:26Z</time>
      </trkpt>
      <trkpt lat="49.26486" lon="-0.09416">
        <ele>15.6</ele>
        <time>2023-10-15T09:43:27Z</time>
      </trkpt>
      <trkpt lat="49.26492" lon="-0.09416">
        <ele>15.5</ele>
        <time>2023-10-15T09:43:28Z</time>
      </trkpt>
      <trkpt lat="49.26499" lon="-0.09416">
        <ele>15.4</ele>
        <time>2023-10-15T09:43:29Z</time>
      </trkpt>
      <trkpt lat="49.26506" lon="-0.09416">
        <ele>15.3</ele>
        <time>2023-10-15T09:43:30Z</time>
      </trkpt>
      <trkpt lat="49.26513" lon="-0.09417">
        <ele>15.1</ele>
        <time>2023-10-15T09:43:31Z</time>
      </trkpt>
      <trkpt lat="49.2652" lon="-0.09417">
        <ele>15</ele>
        <time>2023-10-15T09:43:32Z</time>
      </trkpt>
      <trkpt lat="49.26527" lon="-0.09418">
        <ele>14.9</ele>
        <time>2023-10-15T09:43:33Z</time>
      </trkpt>
      <trkpt lat="49.26534" lon="-0.09418">
        <ele>14.8</ele>
        <time>2023-10-15T09:43:34Z</time>
      </trkpt>
      <trkpt lat="49.2654" lon="-0.09418">
        <ele>14.6</ele>
        <time>2023-10-15T09:43:35Z</time>
      </trkpt>
      <trkpt lat="49.26547" lon="-0.09418">
        <ele>14.4</ele>
        <time>2023-10-15T09:43:36Z</time>
      </trkpt>
      <trkpt lat="49.26554" lon="-0.09417">
        <ele>14.2</ele>
        <time>2023-10-15T09:43:37Z</time>
      </trkpt>
      <trkpt lat="49.26561" lon="-0.09417">
        <ele>13.9</ele>
        <time>2023-10-15T09:43:38Z</time>
      </trkpt>
      <trkpt lat="49.26568" lon="-0.09417">
        <ele>13.4</ele>
        <time>2023-10-15T09:43:39Z</time>
      </trkpt>
      <trkpt lat="49.26576" lon="-0.09417">
        <ele>13</ele>
        <time>2023-10-15T09:43:40Z</time>
      </trkpt>
      <trkpt lat="49.26583" lon="-0.09417">
        <ele>12.5</ele>
        <time>2023-10-15T09:43:41Z</time>
      </trkpt>
      <trkpt lat="49.26591" lon="-0.09418">
        <ele>12.1</ele>
        <time>2023-10-15T09:43:42Z</time>
      </trkpt>
      <trkpt lat="49.26599" lon="-0.09418">
        <ele>11.6</ele>
        <time>2023-10-15T09:43:43Z</time>
      </trkpt>
      <trkpt lat="49.26607" lon="-0.09418">
        <ele>11.2</ele>
        <time>2023-10-15T09:43:44Z</time>
      </trkpt>
      <trkpt lat="49.26614" lon="-0.09419">
        <ele>10.8</ele>
        <time>2023-10-15T09:43:45Z</time>
      </trkpt>
      <trkpt lat="49.26622" lon="-0.09419">
        <ele>10.3</ele>
        <time>2023-10-15T09:43:46Z</time>
      </trkpt>
      <trkpt lat="49.26631" lon="-0.09419">
        <ele>9.9</ele>
        <time>2023-10-15T09:43:47Z</time>
      </trkpt>
      <trkpt lat="49.26639" lon="-0.0942">
        <ele>9.4</ele>
        <time>2023-10-15T09:43:48Z</time>
      </trkpt>
      <trkpt lat="49.26648" lon="-0.0942">
        <ele>9</ele>
        <time>2023-10-15T09:43:49Z</time>
      </trkpt>
      <trkpt lat="49.26657" lon="-0.09421">
        <ele>8.6</ele>
        <time>2023-10-15T09:43:50Z</time>
      </trkpt>
      <trkpt lat="49.26666" lon="-0.09421">
        <ele>8.3</ele>
        <time>2023-10-15T09:43:51Z</time>
      </trkpt>
      <trkpt lat="49.26675" lon="-0.09422">
        <ele>8.1</ele>
        <time>2023-10-15T09:43:52Z</time>
      </trkpt>
      <trkpt lat="49.26683" lon="-0.09422">
        <ele>8</ele>
        <time>2023-10-15T09:43:53Z</time>
      </trkpt>
      <trkpt lat="49.26691" lon="-0.09422">
        <ele>8</ele>
        <time>2023-10-15T09:43:54Z</time>
      </trkpt>
      <trkpt lat="49.26699" lon="-0.09422">
        <ele>8</ele>
        <time>2023-10-15T09:43:55Z</time>
      </trkpt>
      <trkpt lat="49.26707" lon="-0.09422">
        <ele>8</ele>
        <time>2023-10-15T09:43:56Z</time>
      </trkpt>
      <trkpt lat="49.26715" lon="-0.09421">
        <ele>8.1</ele>
        <time>2023-10-15T09:43:57Z</time>
      </trkpt>
      <trkpt lat="49.26722" lon="-0.09422">
        <ele>8.2</ele>
        <time>2023-10-15T09:43:58Z</time>
      </trkpt>
      <trkpt lat="49.2673" lon="-0.09422">
        <ele>8.3</ele>
        <time>2023-10-15T09:43:59Z</time>
      </trkpt>
      <trkpt lat="49.26737" lon="-0.09422">
        <ele>8.5</ele>
        <time>2023-10-15T09:44:00Z</time>
      </trkpt>
      <trkpt lat="49.26745" lon="-0.09421">
        <ele>8.7</ele>
        <time>2023-10-15T09:44:01Z</time>
      </trkpt>
      <trkpt lat="49.26752" lon="-0.09421">
        <ele>8.9</ele>
        <time>2023-10-15T09:44:02Z</time>
      </trkpt>
      <trkpt lat="49.26759" lon="-0.09421">
        <ele>9.2</ele>
        <time>2023-10-15T09:44:03Z</time>
      </trkpt>
      <trkpt lat="49.26765" lon="-0.09421">
        <ele>9.4</ele>
        <time>2023-10-15T09:44:04Z</time>
      </trkpt>
      <trkpt lat="49.26771" lon="-0.09421">
        <ele>9.7</ele>
        <time>2023-10-15T09:44:05Z</time>
      </trkpt>
      <trkpt lat="49.26777" lon="-0.09422">
        <ele>10</ele>
        <time>2023-10-15T09:44:06Z</time>
      </trkpt>
      <trkpt lat="49.26783" lon="-0.09421">
        <ele>10.3</ele>
        <time>2023-10-15T09:44:07Z</time>
      </trkpt>
      <trkpt lat="49.26789" lon="-0.09421">
        <ele>10.6</ele>
        <time>2023-10-15T09:44:08Z</time>
      </trkpt>
      <trkpt lat="49.26795" lon="-0.09421">
        <ele>10.9</ele>
        <time>2023-10-15T09:44:09Z</time>
      </trkpt>
      <trkpt lat="49.268" lon="-0.09421">
        <ele>11.1</ele>
        <time>2023-10-15T09:44:10Z</time>
      </trkpt>
      <trkpt lat="49.26806" lon="-0.09421">
        <ele>11.4</ele>
        <time>2023-10-15T09:44:11Z</time>
      </trkpt>
      <trkpt lat="49.26811" lon="-0.09421">
        <ele>11.7</ele>
        <time>2023-10-15T09:44:12Z</time>
      </trkpt>
      <trkpt lat="49.26817" lon="-0.09422">
        <ele>12</ele>
        <time>2023-10-15T09:44:13Z</time>
      </trkpt>
      <trkpt lat="49.26822" lon="-0.09422">
        <ele>12.3</ele>
        <time>2023-10-15T09:44:14Z</time>
      </trkpt>
      <trkpt lat="49.26827" lon="-0.09422">
        <ele>12.6</ele>
        <time>2023-10-15T09:44:15Z</time>
      </trkpt>
      <trkpt lat="49.26831" lon="-0.09422">
        <ele>12.8</ele>
        <time>2023-10-15T09:44:16Z</time>
      </trkpt>
      <trkpt lat="49.26836" lon="-0.09421">
        <ele>13.1</ele>
        <time>2023-10-15T09:44:17Z</time>
      </trkpt>
      <trkpt lat="49.26841" lon="-0.09421">
        <ele>13.4</ele>
        <time>2023-10-15T09:44:18Z</time>
      </trkpt>
      <trkpt lat="49.26846" lon="-0.09421">
        <ele>13.6</ele>
        <time>2023-10-15T09:44:19Z</time>
      </trkpt>
      <trkpt lat="49.2685" lon="-0.0942">
        <ele>13.9</ele>
        <time>2023-10-15T09:44:20Z</time>
      </trkpt>
      <trkpt lat="49.26855" lon="-0.09419">
        <ele>14.1</ele>
        <time>2023-10-15T09:44:21Z</time>
      </trkpt>
      <trkpt lat="49.26859" lon="-0.09418">
        <ele>14.3</ele>
        <time>2023-10-15T09:44:22Z</time>
      </trkpt>
      <trkpt lat="49.26864" lon="-0.09417">
        <ele>14.6</ele>
        <time>2023-10-15T09:44:23Z</time>
      </trkpt>
      <trkpt lat="49.26869" lon="-0.09416">
        <ele>14.9</ele>
        <time>2023-10-15T09:44:24Z</time>
      </trkpt>
      <trkpt lat="49.26873" lon="-0.09416">
        <ele>15.2</ele>
        <time>2023-10-15T09:44:25Z</time>
      </trkpt>
      <trkpt lat="49.26879" lon="-0.09415">
        <ele>15.5</ele>
        <time>2023-10-15T09:44:26Z</time>
      </trkpt>
      <trkpt lat="49.26884" lon="-0.09415">
        <ele>15.8</ele>
        <time>2023-10-15T09:44:27Z</time>
      </trkpt>
      <trkpt lat="49.2689" lon="-0.09415">
        <ele>16.2</ele>
        <time>2023-10-15T09:44:28Z</time>
      </trkpt>
      <trkpt lat="49.26896" lon="-0.09414">
        <ele>16.6</ele>
        <time>2023-10-15T09:44:29Z</time>
      </trkpt>
      <trkpt lat="49.26901" lon="-0.09414">
        <ele>16.9</ele>
        <time>2023-10-15T09:44:30Z</time>
      </trkpt>
      <trkpt lat="49.26907" lon="-0.09414">
        <ele>17.3</ele>
        <time>2023-10-15T09:44:31Z</time>
      </trkpt>
      <trkpt lat="49.26913" lon="-0.09415">
        <ele>17.7</ele>
        <time>2023-10-15T09:44:32Z</time>
      </trkpt>
      <trkpt lat="49.26919" lon="-0.09415">
        <ele>18.1</ele>
        <time>2023-10-15T09:44:33Z</time>
      </trkpt>
      <trkpt lat="49.26925" lon="-0.09415">
        <ele>18.5</ele>
        <time>2023-10-15T09:44:34Z</time>
      </trkpt>
      <trkpt lat="49.26931" lon="-0.09415">
        <ele>18.8</ele>
        <time>2023-10-15T09:44:35Z</time>
      </trkpt>
      <trkpt lat="49.26936" lon="-0.09414">
        <ele>19.2</ele>
        <time>2023-10-15T09:44:36Z</time>
      </trkpt>
      <trkpt lat="49.26942" lon="-0.09414">
        <ele>19.5</ele>
        <time>2023-10-15T09:44:37Z</time>
      </trkpt>
      <trkpt lat="49.26947" lon="-0.09414">
        <ele>19.9</ele>
        <time>2023-10-15T09:44:38Z</time>
      </trkpt>
      <trkpt lat="49.26953" lon="-0.09414">
        <ele>20.3</ele>
        <time>2023-10-15T09:44:39Z</time>
      </trkpt>
      <trkpt lat="49.26958" lon="-0.09414">
        <ele>20.6</ele>
        <time>2023-10-15T09:44:40Z</time>
      </trkpt>
      <trkpt lat="49.26964" lon="-0.09414">
        <ele>21</ele>
        <time>2023-10-15T09:44:41Z</time>
      </trkpt>
      <trkpt lat="49.2697" lon="-0.09415">
        <ele>21.4</ele>
        <time>2023-10-15T09:44:42Z</time>
      </trkpt>
      <trkpt lat="49.26977" lon="-0.09416">
        <ele>21.7</ele>
        <time>2023-10-15T09:44:43Z</time>
      </trkpt>
      <trkpt lat="49.26983" lon="-0.09416">
        <ele>22</ele>
        <time>2023-10-15T09:44:44Z</time>
      </trkpt>
      <trkpt lat="49.2699" lon="-0.09416">
        <ele>22.2</ele>
        <time>2023-10-15T09:44:45Z</time>
      </trkpt>
      <trkpt lat="49.26996" lon="-0.09416">
        <ele>22.4</ele>
        <time>2023-10-15T09:44:46Z</time>
      </trkpt>
      <trkpt lat="49.27002" lon="-0.09416">
        <ele>22.5</ele>
        <time>2023-10-15T09:44:47Z</time>
      </trkpt>
      <trkpt lat="49.27009" lon="-0.09416">
        <ele>22.6</ele>
        <time>2023-10-15T09:44:48Z</time>
      </trkpt>
      <trkpt lat="49.27016" lon="-0.09417">
        <ele>22.7</ele>
        <time>2023-10-15T09:44:49Z</time>
      </trkpt>
      <trkpt lat="49.27023" lon="-0.09418">
        <ele>22.7</ele>
        <time>2023-10-15T09:44:50Z</time>
      </trkpt>
      <trkpt lat="49.2703" lon="-0.0942">
        <ele>22.7</ele>
        <time>2023-10-15T09:44:51Z</time>
      </trkpt>
      <trkpt lat="49.27037" lon="-0.09422">
        <ele>22.6</ele>
        <time>2023-10-15T09:44:52Z</time>
      </trkpt>
      <trkpt lat="49.27043" lon="-0.09425">
        <ele>22.5</ele>
        <time>2023-10-15T09:44:53Z</time>
      </trkpt>
      <trkpt lat="49.27049" lon="-0.09429">
        <ele>22.3</ele>
        <time>2023-10-15T09:44:54Z</time>
      </trkpt>
      <trkpt lat="49.27055" lon="-0.09434">
        <ele>22.2</ele>
        <time>2023-10-15T09:44:55Z</time>
      </trkpt>
      <trkpt lat="49.2706" lon="-0.0944">
        <ele>22</ele>
        <time>2023-10-15T09:44:56Z</time>
      </trkpt>
      <trkpt lat="49.27066" lon="-0.09446">
        <ele>21.8</ele>
        <time>2023-10-15T09:44:57Z</time>
      </trkpt>
      <trkpt lat="49.27072" lon="-0.09451">
        <ele>21.6</ele>
        <time>2023-10-15T09:44:58Z</time>
      </trkpt>
      <trkpt lat="49.27077" lon="-0.09457">
        <ele>21.4</ele>
        <time>2023-10-15T09:44:59Z</time>
      </trkpt>
      <trkpt lat="49.27083" lon="-0.09462">
        <ele>21.2</ele>
        <time>2023-10-15T09:45:00Z</time>
      </trkpt>
      <trkpt lat="49.27089" lon="-0.09467">
        <ele>21</ele>
        <time>2023-10-15T09:45:01Z</time>
      </trkpt>
      <trkpt lat="49.27095" lon="-0.09471">
        <ele>20.8</ele>
        <time>2023-10-15T09:45:02Z</time>
      </trkpt>
      <trkpt lat="49.27101" lon="-0.09474">
        <ele>20.5</ele>
        <time>2023-10-15T09:45:03Z</time>
      </trkpt>
      <trkpt lat="49.27108" lon="-0.09477">
        <ele>20.3</ele>
        <time>2023-10-15T09:45:04Z</time>
      </trkpt>
      <trkpt lat="49.27115" lon="-0.0948">
        <ele>20</ele>
        <time>2023-10-15T09:45:05Z</time>
      </trkpt>
      <trkpt lat="49.27122" lon="-0.09483">
        <ele>19.6</ele>
        <time>2023-10-15T09:45:06Z</time>
      </trkpt>
      <trkpt lat="49.27129" lon="-0.09485">
        <ele>19.3</ele>
        <time>2023-10-15T09:45:07Z</time>
      </trkpt>
      <trkpt lat="49.27136" lon="-0.09488">
        <ele>18.9</ele>
        <time>2023-10-15T09:45:08Z</time>
      </trkpt>
      <trkpt lat="49.27143" lon="-0.09492">
        <ele>18.5</ele>
        <time>2023-10-15T09:45:09Z</time>
      </trkpt>
      <trkpt lat="49.2715" lon="-0.09496">
        <ele>18.1</ele>
        <time>2023-10-15T09:45:10Z</time>
      </trkpt>
      <trkpt lat="49.27157" lon="-0.09501">
        <ele>17.6</ele>
        <time>2023-10-15T09:45:11Z</time>
      </trkpt>
      <trkpt lat="49.27165" lon="-0.09506">
        <ele>17.1</ele>
        <time>2023-10-15T09:45:12Z</time>
      </trkpt>
      <trkpt lat="49.27172" lon="-0.09511">
        <ele>16.6</ele>
        <time>2023-10-15T09:45:13Z</time>
      </trkpt>
      <trkpt lat="49.2718" lon="-0.09516">
        <ele>16.1</ele>
        <time>2023-10-15T09:45:14Z</time>
      </trkpt>
      <trkpt lat="49.27188" lon="-0.09521">
        <ele>15.5</ele>
        <time>2023-10-15T09:45:15Z</time>
      </trkpt>
      <trkpt lat="49.27197" lon="-0.09525">
        <ele>14.9</ele>
        <time>2023-10-15T09:45:16Z</time>
      </trkpt>
      <trkpt lat="49.27205" lon="-0.09528">
        <ele>14.4</ele>
        <time>2023-10-15T09:45:17Z</time>
      </trkpt>
      <trkpt lat="49.27215" lon="-0.0953">
        <ele>13.8</ele>
        <time>2023-10-15T09:45:18Z</time>
      </trkpt>
      <trkpt lat="49.27224" lon="-0.09533">
        <ele>13.3</ele>
        <time>2023-10-15T09:45:19Z</time>
      </trkpt>
      <trkpt lat="49.27233" lon="-0.09535">
        <ele>12.8</ele>
        <time>2023-10-15T09:45:20Z</time>
      </trkpt>
      <trkpt lat="49.27242" lon="-0.09537">
        <ele>12.3</ele>
        <time>2023-10-15T09:45:21Z</time>
      </trkpt>
      <trkpt lat="49.27251" lon="-0.09538">
        <ele>11.9</ele>
        <time>2023-10-15T09:45:22Z</time>
      </trkpt>
      <trkpt lat="49.2726" lon="-0.0954">
        <ele>11.5</ele>
        <time>2023-10-15T09:45:23Z</time>
      </trkpt>
      <trkpt lat="49.27269" lon="-0.09542">
        <ele>11.1</ele>
        <time>2023-10-15T09:45:24Z</time>
      </trkpt>
      <trkpt lat="49.27278" lon="-0.09544">
        <ele>10.7</ele>
        <time>2023-10-15T09:45:25Z</time>
      </trkpt>
      <trkpt lat="49.27287" lon="-0.09546">
        <ele>10.4</ele>
        <time>2023-10-15T09:45:26Z</time>
      </trkpt>
      <trkpt lat="49.27296" lon="-0.09547">
        <ele>10.1</ele>
        <time>2023-10-15T09:45:27Z</time>
      </trkpt>
      <trkpt lat="49.27304" lon="-0.09549">
        <ele>9.8</ele>
        <time>2023-10-15T09:45:28Z</time>
      </trkpt>
      <trkpt lat="49.27313" lon="-0.09551">
        <ele>9.5</ele>
        <time>2023-10-15T09:45:29Z</time>
      </trkpt>
      <trkpt lat="49.27322" lon="-0.09553">
        <ele>9.2</ele>
        <time>2023-10-15T09:45:30Z</time>
      </trkpt>
      <trkpt lat="49.2733" lon="-0.09555">
        <ele>8.9</ele>
        <time>2023-10-15T09:45:31Z</time>
      </trkpt>
      <trkpt lat="49.27338" lon="-0.09558">
        <ele>8.6</ele>
        <time>2023-10-15T09:45:32Z</time>
      </trkpt>
      <trkpt lat="49.27346" lon="-0.0956">
        <ele>8.3</ele>
        <time>2023-10-15T09:45:33Z</time>
      </trkpt>
      <trkpt lat="49.27354" lon="-0.09562">
        <ele>8</ele>
        <time>2023-10-15T09:45:34Z</time>
      </trkpt>
      <trkpt lat="49.27362" lon="-0.09564">
        <ele>7.7</ele>
        <time>2023-10-15T09:45:35Z</time>
      </trkpt>
      <trkpt lat="49.2737" lon="-0.09567">
        <ele>7.4</ele>
        <time>2023-10-15T09:45:36Z</time>
      </trkpt>
      <trkpt lat="49.27377" lon="-0.0957">
        <ele>7.1</ele>
        <time>2023-10-15T09:45:37Z</time>
      </trkpt>
      <trkpt lat="49.27384" lon="-0.09573">
        <ele>6.9</ele>
        <time>2023-10-15T09:45:38Z</time>
      </trkpt>
      <trkpt lat="49.27392" lon="-0.09576">
        <ele>6.6</ele>
        <time>2023-10-15T09:45:39Z</time>
      </trkpt>
      <trkpt lat="49.27399" lon="-0.09578">
        <ele>6.4</ele>
        <time>2023-10-15T09:45:40Z</time>
      </trkpt>
      <trkpt lat="49.27407" lon="-0.0958">
        <ele>6.2</ele>
        <time>2023-10-15T09:45:41Z</time>
      </trkpt>
      <trkpt lat="49.27414" lon="-0.09581">
        <ele>6.1</ele>
        <time>2023-10-15T09:45:42Z</time>
      </trkpt>
      <trkpt lat="49.27422" lon="-0.09582">
        <ele>5.9</ele>
        <time>2023-10-15T09:45:43Z</time>
      </trkpt>
      <trkpt lat="49.2743" lon="-0.09582">
        <ele>5.8</ele>
        <time>2023-10-15T09:45:44Z</time>
      </trkpt>
      <trkpt lat="49.27438" lon="-0.09581">
        <ele>5.7</ele>
        <time>2023-10-15T09:45:45Z</time>
      </trkpt>
      <trkpt lat="49.27446" lon="-0.0958">
        <ele>5.7</ele>
        <time>2023-10-15T09:45:46Z</time>
      </trkpt>
      <trkpt lat="49.27454" lon="-0.09579">
        <ele>5.6</ele>
        <time>2023-10-15T09:45:47Z</time>
      </trkpt>
      <trkpt lat="49.27461" lon="-0.09578">
        <ele>5.5</ele>
        <time>2023-10-15T09:45:48Z</time>
      </trkpt>
      <trkpt lat="49.27468" lon="-0.09577">
        <ele>5.4</ele>
        <time>2023-10-15T09:45:49Z</time>
      </trkpt>
      <trkpt lat="49.27475" lon="-0.09577">
        <ele>5.3</ele>
        <time>2023-10-15T09:45:50Z</time>
      </trkpt>
      <trkpt lat="49.27481" lon="-0.09576">
        <ele>5.3</ele>
        <time>2023-10-15T09:45:51Z</time>
      </trkpt>
      <trkpt lat="49.27488" lon="-0.09575">
        <ele>5.3</ele>
        <time>2023-10-15T09:45:52Z</time>
      </trkpt>
      <trkpt lat="49.27495" lon="-0.09573">
        <ele>5.2</ele>
        <time>2023-10-15T09:45:53Z</time>
      </trkpt>
      <trkpt lat="49.27501" lon="-0.09572">
        <ele>5.2</ele>
        <time>2023-10-15T09:45:54Z</time>
      </trkpt>
      <trkpt lat="49.27508" lon="-0.09571">
        <ele>5.1</ele>
        <time>2023-10-15T09:45:55Z</time>
      </trkpt>
      <trkpt lat="49.27515" lon="-0.0957">
        <ele>5.1</ele>
        <time>2023-10-15T09:45:56Z</time>
      </trkpt>
      <trkpt lat="49.27521" lon="-0.09568">
        <ele>5</ele>
        <time>2023-10-15T09:45:57Z</time>
      </trkpt>
      <trkpt lat="49.27527" lon="-0.09567">
        <ele>5</ele>
        <time>2023-10-15T09:45:58Z</time>
      </trkpt>
      <trkpt lat="49.27532" lon="-0.09564">
        <ele>5</ele>
        <time>2023-10-15T09:45:59Z</time>
      </trkpt>
      <trkpt lat="49.27538" lon="-0.09561">
        <ele>5</ele>
        <time>2023-10-15T09:46:00Z</time>
      </trkpt>
      <trkpt lat="49.27543" lon="-0.09559">
        <ele>5.1</ele>
        <time>2023-10-15T09:46:01Z</time>
      </trkpt>
      <trkpt lat="49.27548" lon="-0.09556">
        <ele>5.1</ele>
        <time>2023-10-15T09:46:02Z</time>
      </trkpt>
      <trkpt lat="49.27552" lon="-0.09554">
        <ele>5.1</ele>
        <time>2023-10-15T09:46:03Z</time>
      </trkpt>
      <trkpt lat="49.27556" lon="-0.09552">
        <ele>5.2</ele>
        <time>2023-10-15T09:46:04Z</time>
      </trkpt>
      <trkpt lat="49.27559" lon="-0.09551">
        <ele>5.2</ele>
        <time>2023-10-15T09:46:05Z</time>
      </trkpt>
      <trkpt lat="49.2756" lon="-0.09551">
        <ele>5.2</ele>
        <time>2023-10-15T09:46:06Z</time>
      </trkpt>
      <trkpt lat="49.27564" lon="-0.0955">
        <ele>5.2</ele>
        <time>2023-10-15T09:46:07Z</time>
      </trkpt>
      <trkpt lat="49.27566" lon="-0.0955">
        <ele>5.2</ele>
        <time>2023-10-15T09:46:08Z</time>
      </trkpt>
      <trkpt lat="49.27569" lon="-0.0955">
        <ele>5.2</ele>
        <time>2023-10-15T09:46:09Z</time>
      </trkpt>
      <trkpt lat="49.27573" lon="-0.0955">
        <ele>5.2</ele>
        <time>2023-10-15T09:46:10Z</time>
      </trkpt>
      <trkpt lat="49.27577" lon="-0.0955">
        <ele>5.2</ele>
        <time>2023-10-15T09:46:11Z</time>
      </trkpt>
      <trkpt lat="49.27581" lon="-0.09549">
        <ele>5.2</ele>
        <time>2023-10-15T09:46:12Z</time>
      </trkpt>
      <trkpt lat="49.27585" lon="-0.09548">
        <ele>5.2</ele>
        <time>2023-10-15T09:46:13Z</time>
      </trkpt>
      <trkpt lat="49.27589" lon="-0.09548">
        <ele>5.2</ele>
        <time>2023-10-15T09:46:14Z</time>
      </trkpt>
      <trkpt lat="49.27593" lon="-0.09546">
        <ele>5.2</ele>
        <time>2023-10-15T09:46:15Z</time>
      </trkpt>
      <trkpt lat="49.27597" lon="-0.09545">
        <ele>5.1</ele>
        <time>2023-10-15T09:46:16Z</time>
      </trkpt>
      <trkpt lat="49.27602" lon="-0.09544">
        <ele>5.1</ele>
        <time>2023-10-15T09:46:17Z</time>
      </trkpt>
      <trkpt lat="49.27606" lon="-0.09544">
        <ele>5.1</ele>
        <time>2023-10-15T09:46:18Z</time>
      </trkpt>
      <trkpt lat="49.27611" lon="-0.09543">
        <ele>5.1</ele>
        <time>2023-10-15T09:46:19Z</time>
      </trkpt>
      <trkpt lat="49.27616" lon="-0.09543">
        <ele>5.1</ele>
        <time>2023-10-15T09:46:20Z</time>
      </trkpt>
      <trkpt lat="49.2762" lon="-0.09542">
        <ele>5.1</ele>
        <time>2023-10-15T09:46:21Z</time>
      </trkpt>
      <trkpt lat="49.27625" lon="-0.09542">
        <ele>5.1</ele>
        <time>2023-10-15T09:46:22Z</time>
      </trkpt>
      <trkpt lat="49.27629" lon="-0.09541">
        <ele>5.1</ele>
        <time>2023-10-15T09:46:23Z</time>
      </trkpt>
      <trkpt lat="49.27633" lon="-0.0954">
        <ele>5.1</ele>
        <time>2023-10-15T09:46:24Z</time>
      </trkpt>
      <trkpt lat="49.27638" lon="-0.09539">
        <ele>5.1</ele>
        <time>2023-10-15T09:46:25Z</time>
      </trkpt>
      <trkpt lat="49.27644" lon="-0.09539">
        <ele>5.1</ele>
        <time>2023-10-15T09:46:26Z</time>
      </trkpt>
      <trkpt lat="49.27649" lon="-0.09538">
        <ele>5.1</ele>
        <time>2023-10-15T09:46:27Z</time>
      </trkpt>
      <trkpt lat="49.27654" lon="-0.09538">
        <ele>5.1</ele>
        <time>2023-10-15T09:46:28Z</time>
      </trkpt>
      <trkpt lat="49.2766" lon="-0.09538">
        <ele>5.1</ele>
        <time>2023-10-15T09:46:29Z</time>
      </trkpt>
      <trkpt lat="49.27665" lon="-0.09538">
        <ele>5.1</ele>
        <time>2023-10-15T09:46:30Z</time>
      </trkpt>
      <trkpt lat="49.27671" lon="-0.09539">
        <ele>5.1</ele>
        <time>2023-10-15T09:46:31Z</time>
      </trkpt>
      <trkpt lat="49.27676" lon="-0.0954">
        <ele>5.1</ele>
        <time>2023-10-15T09:46:32Z</time>
      </trkpt>
      <trkpt lat="49.27681" lon="-0.09541">
        <ele>5.1</ele>
        <time>2023-10-15T09:46:33Z</time>
      </trkpt>
      <trkpt lat="49.27687" lon="-0.09541">
        <ele>5.1</ele>
        <time>2023-10-15T09:46:34Z</time>
      </trkpt>
      <trkpt lat="49.27692" lon="-0.09541">
        <ele>5.1</ele>
        <time>2023-10-15T09:46:35Z</time>
      </trkpt>
      <trkpt lat="49.27698" lon="-0.0954">
        <ele>5.1</ele>
        <time>2023-10-15T09:46:36Z</time>
      </trkpt>
      <trkpt lat="49.27703" lon="-0.09539">
        <ele>5.1</ele>
        <time>2023-10-15T09:46:37Z</time>
      </trkpt>
      <trkpt lat="49.27709" lon="-0.09538">
        <ele>5.1</ele>
        <time>2023-10-15T09:46:38Z</time>
      </trkpt>
      <trkpt lat="49.27714" lon="-0.09537">
        <ele>5.1</ele>
        <time>2023-10-15T09:46:39Z</time>
      </trkpt>
      <trkpt lat="49.2772" lon="-0.09536">
        <ele>5.2</ele>
        <time>2023-10-15T09:46:40Z</time>
      </trkpt>
      <trkpt lat="49.27726" lon="-0.09535">
        <ele>5.2</ele>
        <time>2023-10-15T09:46:41Z</time>
      </trkpt>
      <trkpt lat="49.27731" lon="-0.09534">
        <ele>5.2</ele>
        <time>2023-10-15T09:46:42Z</time>
      </trkpt>
      <trkpt lat="49.27737" lon="-0.09533">
        <ele>5.2</ele>
        <time>2023-10-15T09:46:43Z</time>
      </trkpt>
      <trkpt lat="49.27743" lon="-0.09532">
        <ele>5.2</ele>
        <time>2023-10-15T09:46:44Z</time>
      </trkpt>
      <trkpt lat="49.27749" lon="-0.09531">
        <ele>5.2</ele>
        <time>2023-10-15T09:46:45Z</time>
      </trkpt>
      <trkpt lat="49.27755" lon="-0.0953">
        <ele>5.2</ele>
        <time>2023-10-15T09:46:46Z</time>
      </trkpt>
      <trkpt lat="49.27761" lon="-0.09528">
        <ele>5.2</ele>
        <time>2023-10-15T09:46:47Z</time>
      </trkpt>
      <trkpt lat="49.27767" lon="-0.09527">
        <ele>5.2</ele>
        <time>2023-10-15T09:46:48Z</time>
      </trkpt>
      <trkpt lat="49.27773" lon="-0.09525">
        <ele>5.2</ele>
        <time>2023-10-15T09:46:49Z</time>
      </trkpt>
      <trkpt lat="49.27779" lon="-0.09524">
        <ele>5.2</ele>
        <time>2023-10-15T09:46:50Z</time>
      </trkpt>
      <trkpt lat="49.27786" lon="-0.09523">
        <ele>5.2</ele>
        <time>2023-10-15T09:46:51Z</time>
      </trkpt>
      <trkpt lat="49.27792" lon="-0.09522">
        <ele>5.2</ele>
        <time>2023-10-15T09:46:52Z</time>
      </trkpt>
      <trkpt lat="49.27798" lon="-0.09522">
        <ele>5.2</ele>
        <time>2023-10-15T09:46:53Z</time>
      </trkpt>
      <trkpt lat="49.27804" lon="-0.09521">
        <ele>5.2</ele>
        <time>2023-10-15T09:46:54Z</time>
      </trkpt>
      <trkpt lat="49.2781" lon="-0.09521">
        <ele>5.2</ele>
        <time>2023-10-15T09:46:55Z</time>
      </trkpt>
      <trkpt lat="49.27815" lon="-0.09521">
        <ele>5.2</ele>
        <time>2023-10-15T09:46:56Z</time>
      </trkpt>
      <trkpt lat="49.27821" lon="-0.0952">
        <ele>5.2</ele>
        <time>2023-10-15T09:46:57Z</time>
      </trkpt>
      <trkpt lat="49.27827" lon="-0.0952">
        <ele>5.2</ele>
        <time>2023-10-15T09:46:58Z</time>
      </trkpt>
      <trkpt lat="49.27833" lon="-0.09519">
        <ele>5.2</ele>
        <time>2023-10-15T09:46:59Z</time>
      </trkpt>
      <trkpt lat="49.27839" lon="-0.09519">
        <ele>5.2</ele>
        <time>2023-10-15T09:47:00Z</time>
      </trkpt>
      <trkpt lat="49.27846" lon="-0.09518">
        <ele>5.2</ele>
        <time>2023-10-15T09:47:01Z</time>
      </trkpt>
      <trkpt lat="49.27851" lon="-0.09517">
        <ele>5.2</ele>
        <time>2023-10-15T09:47:02Z</time>
      </trkpt>
      <trkpt lat="49.27857" lon="-0.09516">
        <ele>5.2</ele>
        <time>2023-10-15T09:47:03Z</time>
      </trkpt>
      <trkpt lat="49.27863" lon="-0.09516">
        <ele>5.2</ele>
        <time>2023-10-15T09:47:04Z</time>
      </trkpt>
      <trkpt lat="49.27869" lon="-0.09516">
        <ele>5.2</ele>
        <time>2023-10-15T09:47:05Z</time>
      </trkpt>
      <trkpt lat="49.27875" lon="-0.09516">
        <ele>5.2</ele>
        <time>2023-10-15T09:47:06Z</time>
      </trkpt>
      <trkpt lat="49.27881" lon="-0.09516">
        <ele>5.2</ele>
        <time>2023-10-15T09:47:07Z</time>
      </trkpt>
      <trkpt lat="49.27887" lon="-0.09516">
        <ele>5.2</ele>
        <time>2023-10-15T09:47:08Z</time>
      </trkpt>
      <trkpt lat="49.27893" lon="-0.09515">
        <ele>5.2</ele>
        <time>2023-10-15T09:47:09Z</time>
      </trkpt>
      <trkpt lat="49.27899" lon="-0.09515">
        <ele>5.2</ele>
        <time>2023-10-15T09:47:10Z</time>
      </trkpt>
      <trkpt lat="49.27904" lon="-0.09515">
        <ele>5.3</ele>
        <time>2023-10-15T09:47:11Z</time>
      </trkpt>
      <trkpt lat="49.2791" lon="-0.09516">
        <ele>5.3</ele>
        <time>2023-10-15T09:47:12Z</time>
      </trkpt>
      <trkpt lat="49.27916" lon="-0.09516">
        <ele>5.3</ele>
        <time>2023-10-15T09:47:13Z</time>
      </trkpt>
      <trkpt lat="49.27922" lon="-0.09517">
        <ele>5.2</ele>
        <time>2023-10-15T09:47:14Z</time>
      </trkpt>
      <trkpt lat="49.27928" lon="-0.09517">
        <ele>5.2</ele>
        <time>2023-10-15T09:47:15Z</time>
      </trkpt>
      <trkpt lat="49.27934" lon="-0.09517">
        <ele>5.2</ele>
        <time>2023-10-15T09:47:16Z</time>
      </trkpt>
      <trkpt lat="49.2794" lon="-0.09518">
        <ele>5.2</ele>
        <time>2023-10-15T09:47:17Z</time>
      </trkpt>
      <trkpt lat="49.27946" lon="-0.09519">
        <ele>5.2</ele>
        <time>2023-10-15T09:47:18Z</time>
      </trkpt>
      <trkpt lat="49.27952" lon="-0.0952">
        <ele>5.2</ele>
        <time>2023-10-15T09:47:19Z</time>
      </trkpt>
      <trkpt lat="49.27958" lon="-0.09521">
        <ele>5.2</ele>
        <time>2023-10-15T09:47:20Z</time>
      </trkpt>
      <trkpt lat="49.27964" lon="-0.09523">
        <ele>5.2</ele>
        <time>2023-10-15T09:47:21Z</time>
      </trkpt>
      <trkpt lat="49.2797" lon="-0.09524">
        <ele>5.2</ele>
        <time>2023-10-15T09:47:22Z</time>
      </trkpt>
      <trkpt lat="49.27977" lon="-0.09526">
        <ele>5.1</ele>
        <time>2023-10-15T09:47:23Z</time>
      </trkpt>
      <trkpt lat="49.27983" lon="-0.09528">
        <ele>5.1</ele>
        <time>2023-10-15T09:47:24Z</time>
      </trkpt>
      <trkpt lat="49.27989" lon="-0.0953">
        <ele>5.1</ele>
        <time>2023-10-15T09:47:25Z</time>
      </trkpt>
      <trkpt lat="49.27996" lon="-0.09532">
        <ele>5.1</ele>
        <time>2023-10-15T09:47:26Z</time>
      </trkpt>
      <trkpt lat="49.28002" lon="-0.09534">
        <ele>5.1</ele>
        <time>2023-10-15T09:47:27Z</time>
      </trkpt>
      <trkpt lat="49.28008" lon="-0.09536">
        <ele>5.1</ele>
        <time>2023-10-15T09:47:28Z</time>
      </trkpt>
      <trkpt lat="49.28014" lon="-0.09538">
        <ele>5.1</ele>
        <time>2023-10-15T09:47:29Z</time>
      </trkpt>
      <trkpt lat="49.2802" lon="-0.09541">
        <ele>5.1</ele>
        <time>2023-10-15T09:47:30Z</time>
      </trkpt>
      <trkpt lat="49.28026" lon="-0.09543">
        <ele>5.1</ele>
        <time>2023-10-15T09:47:31Z</time>
      </trkpt>
      <trkpt lat="49.28031" lon="-0.09546">
        <ele>5.1</ele>
        <time>2023-10-15T09:47:32Z</time>
      </trkpt>
      <trkpt lat="49.28037" lon="-0.09548">
        <ele>5.1</ele>
        <time>2023-10-15T09:47:33Z</time>
      </trkpt>
      <trkpt lat="49.28043" lon="-0.09551">
        <ele>5.1</ele>
        <time>2023-10-15T09:47:34Z</time>
      </trkpt>
      <trkpt lat="49.28049" lon="-0.09554">
        <ele>5.1</ele>
        <time>2023-10-15T09:47:35Z</time>
      </trkpt>
      <trkpt lat="49.28055" lon="-0.09557">
        <ele>5.1</ele>
        <time>2023-10-15T09:47:36Z</time>
      </trkpt>
      <trkpt lat="49.28061" lon="-0.0956">
        <ele>5.1</ele>
        <time>2023-10-15T09:47:37Z</time>
      </trkpt>
      <trkpt lat="49.28067" lon="-0.09563">
        <ele>5.1</ele>
        <time>2023-10-15T09:47:38Z</time>
      </trkpt>
      <trkpt lat="49.28073" lon="-0.09566">
        <ele>5.1</ele>
        <time>2023-10-15T09:47:39Z</time>
      </trkpt>
      <trkpt lat="49.28078" lon="-0.09569">
        <ele>5.1</ele>
        <time>2023-10-15T09:47:40Z</time>
      </trkpt>
      <trkpt lat="49.28084" lon="-0.09572">
        <ele>5.1</ele>
        <time>2023-10-15T09:47:41Z</time>
      </trkpt>
      <trkpt lat="49.2809" lon="-0.09575">
        <ele>5.1</ele>
        <time>2023-10-15T09:47:42Z</time>
      </trkpt>
      <trkpt lat="49.28096" lon="-0.09578">
        <ele>5.1</ele>
        <time>2023-10-15T09:47:43Z</time>
      </trkpt>
      <trkpt lat="49.28101" lon="-0.09581">
        <ele>5.1</ele>
        <time>2023-10-15T09:47:44Z</time>
      </trkpt>
      <trkpt lat="49.28107" lon="-0.09584">
        <ele>5</ele>
        <time>2023-10-15T09:47:45Z</time>
      </trkpt>
      <trkpt lat="49.28112" lon="-0.09587">
        <ele>5</ele>
        <time>2023-10-15T09:47:46Z</time>
      </trkpt>
      <trkpt lat="49.28118" lon="-0.0959">
        <ele>5</ele>
        <time>2023-10-15T09:47:47Z</time>
      </trkpt>
      <trkpt lat="49.28124" lon="-0.09594">
        <ele>5</ele>
        <time>2023-10-15T09:47:48Z</time>
      </trkpt>
      <trkpt lat="49.2813" lon="-0.09597">
        <ele>5</ele>
        <time>2023-10-15T09:47:49Z</time>
      </trkpt>
      <trkpt lat="49.28136" lon="-0.096">
        <ele>5</ele>
        <time>2023-10-15T09:47:50Z</time>
      </trkpt>
      <trkpt lat="49.28141" lon="-0.09604">
        <ele>5</ele>
        <time>2023-10-15T09:47:51Z</time>
      </trkpt>
      <trkpt lat="49.28147" lon="-0.09607">
        <ele>4.9</ele>
        <time>2023-10-15T09:47:52Z</time>
      </trkpt>
      <trkpt lat="49.28153" lon="-0.09611">
        <ele>4.9</ele>
        <time>2023-10-15T09:47:53Z</time>
      </trkpt>
      <trkpt lat="49.28158" lon="-0.09615">
        <ele>4.9</ele>
        <time>2023-10-15T09:47:54Z</time>
      </trkpt>
      <trkpt lat="49.28164" lon="-0.09618">
        <ele>4.9</ele>
        <time>2023-10-15T09:47:55Z</time>
      </trkpt>
      <trkpt lat="49.2817" lon="-0.09621">
        <ele>4.9</ele>
        <time>2023-10-15T09:47:56Z</time>
      </trkpt>
      <trkpt lat="49.28175" lon="-0.09625">
        <ele>5</ele>
        <time>2023-10-15T09:47:57Z</time>
      </trkpt>
      <trkpt lat="49.2818" lon="-0.09628">
        <ele>5</ele>
        <time>2023-10-15T09:47:58Z</time>
      </trkpt>
      <trkpt lat="49.28186" lon="-0.09632">
        <ele>5</ele>
        <time>2023-10-15T09:47:59Z</time>
      </trkpt>
      <trkpt lat="49.28191" lon="-0.09636">
        <ele>5</ele>
        <time>2023-10-15T09:48:00Z</time>
      </trkpt>
      <trkpt lat="49.28197" lon="-0.0964">
        <ele>5</ele>
        <time>2023-10-15T09:48:01Z</time>
      </trkpt>
      <trkpt lat="49.28202" lon="-0.09644">
        <ele>5</ele>
        <time>2023-10-15T09:48:02Z</time>
      </trkpt>
      <trkpt lat="49.28208" lon="-0.09648">
        <ele>5</ele>
        <time>2023-10-15T09:48:03Z</time>
      </trkpt>
      <trkpt lat="49.28213" lon="-0.09652">
        <ele>5</ele>
        <time>2023-10-15T09:48:04Z</time>
      </trkpt>
      <trkpt lat="49.28218" lon="-0.09656">
        <ele>5</ele>
        <time>2023-10-15T09:48:05Z</time>
      </trkpt>
      <trkpt lat="49.28224" lon="-0.0966">
        <ele>5</ele>
        <time>2023-10-15T09:48:06Z</time>
      </trkpt>
      <trkpt lat="49.28229" lon="-0.09664">
        <ele>5</ele>
        <time>2023-10-15T09:48:07Z</time>
      </trkpt>
      <trkpt lat="49.28235" lon="-0.09668">
        <ele>5.1</ele>
        <time>2023-10-15T09:48:08Z</time>
      </trkpt>
      <trkpt lat="49.2824" lon="-0.09671">
        <ele>5.1</ele>
        <time>2023-10-15T09:48:09Z</time>
      </trkpt>
      <trkpt lat="49.28246" lon="-0.09675">
        <ele>5.1</ele>
        <time>2023-10-15T09:48:10Z</time>
      </trkpt>
      <trkpt lat="49.28251" lon="-0.09679">
        <ele>5.1</ele>
        <time>2023-10-15T09:48:11Z</time>
      </trkpt>
      <trkpt lat="49.28256" lon="-0.09682">
        <ele>5.1</ele>
        <time>2023-10-15T09:48:12Z</time>
      </trkpt>
      <trkpt lat="49.28261" lon="-0.09686">
        <ele>5.2</ele>
        <time>2023-10-15T09:48:13Z</time>
      </trkpt>
      <trkpt lat="49.28265" lon="-0.09689">
        <ele>5.2</ele>
        <time>2023-10-15T09:48:14Z</time>
      </trkpt>
      <trkpt lat="49.2827" lon="-0.09692">
        <ele>5.3</ele>
        <time>2023-10-15T09:48:15Z</time>
      </trkpt>
      <trkpt lat="49.28275" lon="-0.09694">
        <ele>5.3</ele>
        <time>2023-10-15T09:48:16Z</time>
      </trkpt>
      <trkpt lat="49.28279" lon="-0.09695">
        <ele>5.3</ele>
        <time>2023-10-15T09:48:17Z</time>
      </trkpt>
      <trkpt lat="49.28283" lon="-0.09697">
        <ele>5.4</ele>
        <time>2023-10-15T09:48:18Z</time>
      </trkpt>
      <trkpt lat="49.28287" lon="-0.09699">
        <ele>5.4</ele>
        <time>2023-10-15T09:48:19Z</time>
      </trkpt>
      <trkpt lat="49.28291" lon="-0.09701">
        <ele>5.4</ele>
        <time>2023-10-15T09:48:20Z</time>
      </trkpt>
      <trkpt lat="49.28295" lon="-0.09702">
        <ele>5.5</ele>
        <time>2023-10-15T09:48:21Z</time>
      </trkpt>
      <trkpt lat="49.28298" lon="-0.09703">
        <ele>5.5</ele>
        <time>2023-10-15T09:48:22Z</time>
      </trkpt>
      <trkpt lat="49.28302" lon="-0.09705">
        <ele>5.5</ele>
        <time>2023-10-15T09:48:23Z</time>
      </trkpt>
      <trkpt lat="49.28303" lon="-0.09705">
        <ele>5.5</ele>
        <time>2023-10-15T09:48:24Z</time>
      </trkpt>
      <trkpt lat="49.28305" lon="-0.09706">
        <ele>5.5</ele>
        <time>2023-10-15T09:48:25Z</time>
      </trkpt>
      <trkpt lat="49.28306" lon="-0.09707">
        <ele>5.5</ele>
        <time>2023-10-15T09:48:26Z</time>
      </trkpt>
      <trkpt lat="49.28306" lon="-0.09707">
        <ele>5.5</ele>
        <time>2023-10-15T09:48:27Z</time>
      </trkpt>
      <trkpt lat="49.28307" lon="-0.09708">
        <ele>5.5</ele>
        <time>2023-10-15T09:48:28Z</time>
      </trkpt>
      <trkpt lat="49.28307" lon="-0.09708">
        <ele>5.5</ele>
        <time>2023-10-15T09:48:29Z</time>
      </trkpt>
      <trkpt lat="49.28308" lon="-0.09708">
        <ele>5.5</ele>
        <time>2023-10-15T09:48:30Z</time>
      </trkpt>
      <trkpt lat="49.28308" lon="-0.09708">
        <ele>5.5</ele>
        <time>2023-10-15T09:48:31Z</time>
      </trkpt>
      <trkpt lat="49.28309" lon="-0.09708">
        <ele>5.5</ele>
        <time>2023-10-15T09:48:32Z</time>
      </trkpt>
      <trkpt lat="49.28309" lon="-0.09709">
        <ele>5.5</ele>
        <time>2023-10-15T09:48:33Z</time>
      </trkpt>
      <trkpt lat="49.2831" lon="-0.09709">
        <ele>5.5</ele>
        <time>2023-10-15T09:48:34Z</time>
      </trkpt>
      <trkpt lat="49.2831" lon="-0.09709">
        <ele>5.5</ele>
        <time>2023-10-15T09:48:35Z</time>
      </trkpt>
      <trkpt lat="49.2831" lon="-0.09709">
        <ele>5.5</ele>
        <time>2023-10-15T09:48:36Z</time>
      </trkpt>
      <trkpt lat="49.28311" lon="-0.09709">
        <ele>5.5</ele>
        <time>2023-10-15T09:48:37Z</time>
      </trkpt>
      <trkpt lat="49.28311" lon="-0.0971">
        <ele>5.5</ele>
        <time>2023-10-15T09:48:38Z</time>
      </trkpt>
      <trkpt lat="49.28312" lon="-0.0971">
        <ele>5.5</ele>
        <time>2023-10-15T09:48:45Z</time>
      </trkpt>
      <trkpt lat="49.28312" lon="-0.0971">
        <ele>5.5</ele>
        <time>2023-10-15T09:48:46Z</time>
      </trkpt>
      <trkpt lat="49.28313" lon="-0.0971">
        <ele>5.5</ele>
        <time>2023-10-15T09:48:47Z</time>
      </trkpt>
      <trkpt lat="49.28316" lon="-0.0971">
        <ele>5.5</ele>
        <time>2023-10-15T09:48:48Z</time>
      </trkpt>
      <trkpt lat="49.28318" lon="-0.0971">
        <ele>5.5</ele>
        <time>2023-10-15T09:48:49Z</time>
      </trkpt>
      <trkpt lat="49.28321" lon="-0.09712">
        <ele>5.5</ele>
        <time>2023-10-15T09:48:50Z</time>
      </trkpt>
      <trkpt lat="49.28323" lon="-0.09713">
        <ele>5.5</ele>
        <time>2023-10-15T09:48:51Z</time>
      </trkpt>
      <trkpt lat="49.28325" lon="-0.09716">
        <ele>5.5</ele>
        <time>2023-10-15T09:48:52Z</time>
      </trkpt>
      <trkpt lat="49.28327" lon="-0.0972">
        <ele>5.5</ele>
        <time>2023-10-15T09:48:53Z</time>
      </trkpt>
      <trkpt lat="49.28328" lon="-0.09725">
        <ele>5.5</ele>
        <time>2023-10-15T09:48:54Z</time>
      </trkpt>
      <trkpt lat="49.28328" lon="-0.09731">
        <ele>5.5</ele>
        <time>2023-10-15T09:48:55Z</time>
      </trkpt>
      <trkpt lat="49.28329" lon="-0.09736">
        <ele>5.5</ele>
        <time>2023-10-15T09:48:56Z</time>
      </trkpt>
      <trkpt lat="49.28329" lon="-0.09742">
        <ele>5.4</ele>
        <time>2023-10-15T09:48:57Z</time>
      </trkpt>
      <trkpt lat="49.2833" lon="-0.09748">
        <ele>5.4</ele>
        <time>2023-10-15T09:48:58Z</time>
      </trkpt>
      <trkpt lat="49.28331" lon="-0.09754">
        <ele>5.3</ele>
        <time>2023-10-15T09:48:59Z</time>
      </trkpt>
      <trkpt lat="49.28331" lon="-0.09759">
        <ele>5.3</ele>
        <time>2023-10-15T09:49:00Z</time>
      </trkpt>
      <trkpt lat="49.28332" lon="-0.09764">
        <ele>5.2</ele>
        <time>2023-10-15T09:49:01Z</time>
      </trkpt>
      <trkpt lat="49.28332" lon="-0.0977">
        <ele>5.2</ele>
        <time>2023-10-15T09:49:02Z</time>
      </trkpt>
      <trkpt lat="49.28332" lon="-0.09776">
        <ele>5.2</ele>
        <time>2023-10-15T09:49:03Z</time>
      </trkpt>
      <trkpt lat="49.28332" lon="-0.09781">
        <ele>5.1</ele>
        <time>2023-10-15T09:49:04Z</time>
      </trkpt>
      <trkpt lat="49.28333" lon="-0.09788">
        <ele>5.1</ele>
        <time>2023-10-15T09:49:05Z</time>
      </trkpt>
      <trkpt lat="49.28333" lon="-0.09794">
        <ele>5.1</ele>
        <time>2023-10-15T09:49:06Z</time>
      </trkpt>
      <trkpt lat="49.28333" lon="-0.09801">
        <ele>5.1</ele>
        <time>2023-10-15T09:49:07Z</time>
      </trkpt>
      <trkpt lat="49.28333" lon="-0.09807">
        <ele>5.1</ele>
        <time>2023-10-15T09:49:08Z</time>
      </trkpt>
      <trkpt lat="49.28334" lon="-0.09814">
        <ele>5.1</ele>
        <time>2023-10-15T09:49:09Z</time>
      </trkpt>
      <trkpt lat="49.28335" lon="-0.09821">
        <ele>5.1</ele>
        <time>2023-10-15T09:49:10Z</time>
      </trkpt>
      <trkpt lat="49.28336" lon="-0.09829">
        <ele>5.1</ele>
        <time>2023-10-15T09:49:11Z</time>
      </trkpt>
      <trkpt lat="49.28336" lon="-0.09837">
        <ele>5</ele>
        <time>2023-10-15T09:49:12Z</time>
      </trkpt>
      <trkpt lat="49.28337" lon="-0.09846">
        <ele>5</ele>
        <time>2023-10-15T09:49:13Z</time>
      </trkpt>
      <trkpt lat="49.28337" lon="-0.09854">
        <ele>5</ele>
        <time>2023-10-15T09:49:14Z</time>
      </trkpt>
      <trkpt lat="49.28337" lon="-0.09862">
        <ele>5</ele>
        <time>2023-10-15T09:49:15Z</time>
      </trkpt>
      <trkpt lat="49.28337" lon="-0.0987">
        <ele>5</ele>
        <time>2023-10-15T09:49:16Z</time>
      </trkpt>
      <trkpt lat="49.28338" lon="-0.09878">
        <ele>5</ele>
        <time>2023-10-15T09:49:17Z</time>
      </trkpt>
      <trkpt lat="49.28338" lon="-0.09886">
        <ele>5</ele>
        <time>2023-10-15T09:49:18Z</time>
      </trkpt>
      <trkpt lat="49.28338" lon="-0.09894">
        <ele>5</ele>
        <time>2023-10-15T09:49:19Z</time>
      </trkpt>
      <trkpt lat="49.28338" lon="-0.09903">
        <ele>5</ele>
        <time>2023-10-15T09:49:20Z</time>
      </trkpt>
      <trkpt lat="49.28339" lon="-0.09912">
        <ele>5</ele>
        <time>2023-10-15T09:49:21Z</time>
      </trkpt>
      <trkpt lat="49.28339" lon="-0.0992">
        <ele>5</ele>
        <time>2023-10-15T09:49:22Z</time>
      </trkpt>
      <trkpt lat="49.28339" lon="-0.09929">
        <ele>4.9</ele>
        <time>2023-10-15T09:49:23Z</time>
      </trkpt>
      <trkpt lat="49.28339" lon="-0.09937">
        <ele>4.9</ele>
        <time>2023-10-15T09:49:24Z</time>
      </trkpt>
      <trkpt lat="49.28339" lon="-0.09945">
        <ele>4.8</ele>
        <time>2023-10-15T09:49:25Z</time>
      </trkpt>
      <trkpt lat="49.2834" lon="-0.09955">
        <ele>4.8</ele>
        <time>2023-10-15T09:49:26Z</time>
      </trkpt>
      <trkpt lat="49.2834" lon="-0.09964">
        <ele>4.7</ele>
        <time>2023-10-15T09:49:27Z</time>
      </trkpt>
      <trkpt lat="49.2834" lon="-0.09973">
        <ele>4.7</ele>
        <time>2023-10-15T09:49:28Z</time>
      </trkpt>
      <trkpt lat="49.2834" lon="-0.09981">
        <ele>4.7</ele>
        <time>2023-10-15T09:49:29Z</time>
      </trkpt>
      <trkpt lat="49.2834" lon="-0.0999">
        <ele>4.6</ele>
        <time>2023-10-15T09:49:30Z</time>
      </trkpt>
      <trkpt lat="49.28341" lon="-0.09999">
        <ele>4.6</ele>
        <time>2023-10-15T09:49:31Z</time>
      </trkpt>
      <trkpt lat="49.28341" lon="-0.10008">
        <ele>4.6</ele>
        <time>2023-10-15T09:49:32Z</time>
      </trkpt>
      <trkpt lat="49.28342" lon="-0.10017">
        <ele>4.5</ele>
        <time>2023-10-15T09:49:33Z</time>
      </trkpt>
      <trkpt lat="49.28342" lon="-0.10026">
        <ele>4.5</ele>
        <time>2023-10-15T09:49:34Z</time>
      </trkpt>
      <trkpt lat="49.28342" lon="-0.10035">
        <ele>4.4</ele>
        <time>2023-10-15T09:49:35Z</time>
      </trkpt>
      <trkpt lat="49.28343" lon="-0.10044">
        <ele>4.4</ele>
        <time>2023-10-15T09:49:36Z</time>
      </trkpt>
      <trkpt lat="49.28343" lon="-0.10053">
        <ele>4.3</ele>
        <time>2023-10-15T09:49:37Z</time>
      </trkpt>
      <trkpt lat="49.28344" lon="-0.10062">
        <ele>4.3</ele>
        <time>2023-10-15T09:49:38Z</time>
      </trkpt>
      <trkpt lat="49.28344" lon="-0.10071">
        <ele>4.2</ele>
        <time>2023-10-15T09:49:39Z</time>
      </trkpt>
      <trkpt lat="49.28344" lon="-0.1008">
        <ele>4.2</ele>
        <time>2023-10-15T09:49:40Z</time>
      </trkpt>
      <trkpt lat="49.28345" lon="-0.10089">
        <ele>4.2</ele>
        <time>2023-10-15T09:49:41Z</time>
      </trkpt>
      <trkpt lat="49.28345" lon="-0.10098">
        <ele>4.1</ele>
        <time>2023-10-15T09:49:42Z</time>
      </trkpt>
      <trkpt lat="49.28346" lon="-0.10107">
        <ele>4.1</ele>
        <time>2023-10-15T09:49:43Z</time>
      </trkpt>
      <trkpt lat="49.28346" lon="-0.10116">
        <ele>4.1</ele>
        <time>2023-10-15T09:49:44Z</time>
      </trkpt>
      <trkpt lat="49.28347" lon="-0.10125">
        <ele>4.1</ele>
        <time>2023-10-15T09:49:45Z</time>
      </trkpt>
      <trkpt lat="49.28347" lon="-0.10134">
        <ele>4.1</ele>
        <time>2023-10-15T09:49:46Z</time>
      </trkpt>
      <trkpt lat="49.28347" lon="-0.10143">
        <ele>4</ele>
        <time>2023-10-15T09:49:47Z</time>
      </trkpt>
      <trkpt lat="49.28348" lon="-0.10151">
        <ele>4</ele>
        <time>2023-10-15T09:49:48Z</time>
      </trkpt>
      <trkpt lat="49.28348" lon="-0.10159">
        <ele>4</ele>
        <time>2023-10-15T09:49:49Z</time>
      </trkpt>
      <trkpt lat="49.28348" lon="-0.10166">
        <ele>4</ele>
        <time>2023-10-15T09:49:50Z</time>
      </trkpt>
      <trkpt lat="49.28349" lon="-0.10173">
        <ele>4</ele>
        <time>2023-10-15T09:49:51Z</time>
      </trkpt>
      <trkpt lat="49.28349" lon="-0.10181">
        <ele>4</ele>
        <time>2023-10-15T09:49:52Z</time>
      </trkpt>
      <trkpt lat="49.28349" lon="-0.10188">
        <ele>4</ele>
        <time>2023-10-15T09:49:53Z</time>
      </trkpt>
      <trkpt lat="49.28349" lon="-0.10195">
        <ele>4</ele>
        <time>2023-10-15T09:49:54Z</time>
      </trkpt>
      <trkpt lat="49.28349" lon="-0.10201">
        <ele>4</ele>
        <time>2023-10-15T09:49:55Z</time>
      </trkpt>
      <trkpt lat="49.2835" lon="-0.10206">
        <ele>4</ele>
        <time>2023-10-15T09:49:56Z</time>
      </trkpt>
      <trkpt lat="49.2835" lon="-0.10212">
        <ele>4</ele>
        <time>2023-10-15T09:49:57Z</time>
      </trkpt>
      <trkpt lat="49.2835" lon="-0.10213">
        <ele>4.1</ele>
        <time>2023-10-15T09:49:58Z</time>
      </trkpt>
      <trkpt lat="49.2835" lon="-0.10218">
        <ele>4.1</ele>
        <time>2023-10-15T09:49:59Z</time>
      </trkpt>
      <trkpt lat="49.2835" lon="-0.1022">
        <ele>4.1</ele>
        <time>2023-10-15T09:50:00Z</time>
      </trkpt>
      <trkpt lat="49.28351" lon="-0.10224">
        <ele>4.1</ele>
        <time>2023-10-15T09:50:01Z</time>
      </trkpt>
      <trkpt lat="49.28351" lon="-0.10225">
        <ele>4.1</ele>
        <time>2023-10-15T09:50:02Z</time>
      </trkpt>
      <trkpt lat="49.28352" lon="-0.1023">
        <ele>4.1</ele>
        <time>2023-10-15T09:50:03Z</time>
      </trkpt>
      <trkpt lat="49.28352" lon="-0.10231">
        <ele>4.1</ele>
        <time>2023-10-15T09:50:04Z</time>
      </trkpt>
      <trkpt lat="49.28352" lon="-0.10233">
        <ele>4.1</ele>
        <time>2023-10-15T09:50:05Z</time>
      </trkpt>
      <trkpt lat="49.28352" lon="-0.10236">
        <ele>4.1</ele>
        <time>2023-10-15T09:50:06Z</time>
      </trkpt>
      <trkpt lat="49.28352" lon="-0.10239">
        <ele>4.1</ele>
        <time>2023-10-15T09:50:07Z</time>
      </trkpt>
      <trkpt lat="49.28353" lon="-0.1024">
        <ele>4.1</ele>
        <time>2023-10-15T09:50:08Z</time>
      </trkpt>
      <trkpt lat="49.28353" lon="-0.10241">
        <ele>4.1</ele>
        <time>2023-10-15T09:50:09Z</time>
      </trkpt>
      <trkpt lat="49.28353" lon="-0.10242">
        <ele>4.1</ele>
        <time>2023-10-15T09:50:10Z</time>
      </trkpt>
      <trkpt lat="49.28353" lon="-0.10243">
        <ele>4.1</ele>
        <time>2023-10-15T09:50:11Z</time>
      </trkpt>
      <trkpt lat="49.28353" lon="-0.10244">
        <ele>4.1</ele>
        <time>2023-10-15T09:50:12Z</time>
      </trkpt>
      <trkpt lat="49.28353" lon="-0.10245">
        <ele>4.1</ele>
        <time>2023-10-15T09:50:13Z</time>
      </trkpt>
      <trkpt lat="49.28353" lon="-0.10246">
        <ele>4.1</ele>
        <time>2023-10-15T09:50:14Z</time>
      </trkpt>
      <trkpt lat="49.28353" lon="-0.10247">
        <ele>4.1</ele>
        <time>2023-10-15T09:50:15Z</time>
      </trkpt>
      <trkpt lat="49.28353" lon="-0.10248">
        <ele>4.1</ele>
        <time>2023-10-15T09:50:16Z</time>
      </trkpt>
      <trkpt lat="49.28353" lon="-0.10249">
        <ele>4.1</ele>
        <time>2023-10-15T09:50:17Z</time>
      </trkpt>
      <trkpt lat="49.28353" lon="-0.1025">
        <ele>4.1</ele>
        <time>2023-10-15T09:50:18Z</time>
      </trkpt>
      <trkpt lat="49.28353" lon="-0.10251">
        <ele>4.1</ele>
        <time>2023-10-15T09:50:19Z</time>
      </trkpt>
      <trkpt lat="49.28353" lon="-0.10252">
        <ele>4.1</ele>
        <time>2023-10-15T09:50:34Z</time>
      </trkpt>
      <trkpt lat="49.28353" lon="-0.10253">
        <ele>4.2</ele>
        <time>2023-10-15T09:50:35Z</time>
      </trkpt>
      <trkpt lat="49.28353" lon="-0.10254">
        <ele>4.2</ele>
        <time>2023-10-15T09:50:36Z</time>
      </trkpt>
      <trkpt lat="49.28354" lon="-0.10259">
        <ele>4.2</ele>
        <time>2023-10-15T09:50:37Z</time>
      </trkpt>
      <trkpt lat="49.28354" lon="-0.10264">
        <ele>4.2</ele>
        <time>2023-10-15T09:50:38Z</time>
      </trkpt>
      <trkpt lat="49.28354" lon="-0.10269">
        <ele>4.2</ele>
        <time>2023-10-15T09:50:39Z</time>
      </trkpt>
      <trkpt lat="49.28354" lon="-0.10274">
        <ele>4.2</ele>
        <time>2023-10-15T09:50:40Z</time>
      </trkpt>
      <trkpt lat="49.28354" lon="-0.1028">
        <ele>4.2</ele>
        <time>2023-10-15T09:50:41Z</time>
      </trkpt>
      <trkpt lat="49.28355" lon="-0.10286">
        <ele>4.2</ele>
        <time>2023-10-15T09:50:42Z</time>
      </trkpt>
      <trkpt lat="49.28354" lon="-0.10292">
        <ele>4.2</ele>
        <time>2023-10-15T09:50:43Z</time>
      </trkpt>
      <trkpt lat="49.28354" lon="-0.10298">
        <ele>4.2</ele>
        <time>2023-10-15T09:50:44Z</time>
      </trkpt>
      <trkpt lat="49.28353" lon="-0.10304">
        <ele>4.2</ele>
        <time>2023-10-15T09:50:45Z</time>
      </trkpt>
      <trkpt lat="49.28352" lon="-0.10311">
        <ele>4.2</ele>
        <time>2023-10-15T09:50:46Z</time>
      </trkpt>
      <trkpt lat="49.2835" lon="-0.10317">
        <ele>4.2</ele>
        <time>2023-10-15T09:50:47Z</time>
      </trkpt>
      <trkpt lat="49.28348" lon="-0.10324">
        <ele>4.2</ele>
        <time>2023-10-15T09:50:48Z</time>
      </trkpt>
      <trkpt lat="49.28346" lon="-0.10331">
        <ele>4.2</ele>
        <time>2023-10-15T09:50:49Z</time>
      </trkpt>
      <trkpt lat="49.28344" lon="-0.10338">
        <ele>4.2</ele>
        <time>2023-10-15T09:50:50Z</time>
      </trkpt>
      <trkpt lat="49.28343" lon="-0.10345">
        <ele>4.2</ele>
        <time>2023-10-15T09:50:51Z</time>
      </trkpt>
      <trkpt lat="49.28343" lon="-0.10353">
        <ele>4.2</ele>
        <time>2023-10-15T09:50:52Z</time>
      </trkpt>
      <trkpt lat="49.28344" lon="-0.10361">
        <ele>4.1</ele>
        <time>2023-10-15T09:50:53Z</time>
      </trkpt>
      <trkpt lat="49.28344" lon="-0.10368">
        <ele>4.1</ele>
        <time>2023-10-15T09:50:54Z</time>
      </trkpt>
      <trkpt lat="49.28344" lon="-0.10376">
        <ele>4.1</ele>
        <time>2023-10-15T09:50:55Z</time>
      </trkpt>
      <trkpt lat="49.28344" lon="-0.10384">
        <ele>4.1</ele>
        <time>2023-10-15T09:50:56Z</time>
      </trkpt>
      <trkpt lat="49.28344" lon="-0.10392">
        <ele>4.1</ele>
        <time>2023-10-15T09:50:57Z</time>
      </trkpt>
      <trkpt lat="49.28344" lon="-0.104">
        <ele>4.1</ele>
        <time>2023-10-15T09:50:58Z</time>
      </trkpt>
      <trkpt lat="49.28345" lon="-0.10408">
        <ele>4.1</ele>
        <time>2023-10-15T09:50:59Z</time>
      </trkpt>
      <trkpt lat="49.28345" lon="-0.10417">
        <ele>4.1</ele>
        <time>2023-10-15T09:51:00Z</time>
      </trkpt>
      <trkpt lat="49.28345" lon="-0.10425">
        <ele>4.1</ele>
        <time>2023-10-15T09:51:01Z</time>
      </trkpt>
      <trkpt lat="49.28346" lon="-0.10433">
        <ele>4.1</ele>
        <time>2023-10-15T09:51:02Z</time>
      </trkpt>
      <trkpt lat="49.28346" lon="-0.10442">
        <ele>4.1</ele>
        <time>2023-10-15T09:51:03Z</time>
      </trkpt>
      <trkpt lat="49.28346" lon="-0.1045">
        <ele>4.1</ele>
        <time>2023-10-15T09:51:04Z</time>
      </trkpt>
      <trkpt lat="49.28347" lon="-0.10458">
        <ele>4.1</ele>
        <time>2023-10-15T09:51:05Z</time>
      </trkpt>
      <trkpt lat="49.28347" lon="-0.10465">
        <ele>4.1</ele>
        <time>2023-10-15T09:51:06Z</time>
      </trkpt>
      <trkpt lat="49.28348" lon="-0.10473">
        <ele>4.1</ele>
        <time>2023-10-15T09:51:07Z</time>
      </trkpt>
      <trkpt lat="49.28348" lon="-0.1048">
        <ele>4.1</ele>
        <time>2023-10-15T09:51:08Z</time>
      </trkpt>
      <trkpt lat="49.28348" lon="-0.10488">
        <ele>4.1</ele>
        <time>2023-10-15T09:51:09Z</time>
      </trkpt>
      <trkpt lat="49.28349" lon="-0.10496">
        <ele>4.1</ele>
        <time>2023-10-15T09:51:10Z</time>
      </trkpt>
      <trkpt lat="49.28349" lon="-0.10504">
        <ele>4.1</ele>
        <time>2023-10-15T09:51:11Z</time>
      </trkpt>
      <trkpt lat="49.28349" lon="-0.10512">
        <ele>4.1</ele>
        <time>2023-10-15T09:51:12Z</time>
      </trkpt>
      <trkpt lat="49.2835" lon="-0.10519">
        <ele>4.1</ele>
        <time>2023-10-15T09:51:13Z</time>
      </trkpt>
      <trkpt lat="49.2835" lon="-0.10526">
        <ele>4.1</ele>
        <time>2023-10-15T09:51:14Z</time>
      </trkpt>
      <trkpt lat="49.2835" lon="-0.10531">
        <ele>4.2</ele>
        <time>2023-10-15T09:51:15Z</time>
      </trkpt>
      <trkpt lat="49.2835" lon="-0.10536">
        <ele>4.2</ele>
        <time>2023-10-15T09:51:16Z</time>
      </trkpt>
      <trkpt lat="49.28351" lon="-0.10542">
        <ele>4.2</ele>
        <time>2023-10-15T09:51:17Z</time>
      </trkpt>
      <trkpt lat="49.28351" lon="-0.10548">
        <ele>4.2</ele>
        <time>2023-10-15T09:51:18Z</time>
      </trkpt>
      <trkpt lat="49.28352" lon="-0.10555">
        <ele>4.2</ele>
        <time>2023-10-15T09:51:19Z</time>
      </trkpt>
      <trkpt lat="49.28352" lon="-0.10561">
        <ele>4.2</ele>
        <time>2023-10-15T09:51:20Z</time>
      </trkpt>
      <trkpt lat="49.28352" lon="-0.10568">
        <ele>4.2</ele>
        <time>2023-10-15T09:51:21Z</time>
      </trkpt>
      <trkpt lat="49.28352" lon="-0.10574">
        <ele>4.2</ele>
        <time>2023-10-15T09:51:22Z</time>
      </trkpt>
      <trkpt lat="49.28352" lon="-0.10581">
        <ele>4.2</ele>
        <time>2023-10-15T09:51:23Z</time>
      </trkpt>
      <trkpt lat="49.28353" lon="-0.10588">
        <ele>4.2</ele>
        <time>2023-10-15T09:51:24Z</time>
      </trkpt>
      <trkpt lat="49.28353" lon="-0.10596">
        <ele>4.3</ele>
        <time>2023-10-15T09:51:25Z</time>
      </trkpt>
      <trkpt lat="49.28353" lon="-0.10603">
        <ele>4.3</ele>
        <time>2023-10-15T09:51:26Z</time>
      </trkpt>
      <trkpt lat="49.28353" lon="-0.1061">
        <ele>4.3</ele>
        <time>2023-10-15T09:51:27Z</time>
      </trkpt>
      <trkpt lat="49.28354" lon="-0.10618">
        <ele>4.3</ele>
        <time>2023-10-15T09:51:28Z</time>
      </trkpt>
      <trkpt lat="49.28354" lon="-0.10626">
        <ele>4.3</ele>
        <time>2023-10-15T09:51:29Z</time>
      </trkpt>
      <trkpt lat="49.28354" lon="-0.10633">
        <ele>4.3</ele>
        <time>2023-10-15T09:51:30Z</time>
      </trkpt>
      <trkpt lat="49.28355" lon="-0.10641">
        <ele>4.3</ele>
        <time>2023-10-15T09:51:31Z</time>
      </trkpt>
      <trkpt lat="49.28355" lon="-0.10649">
        <ele>4.3</ele>
        <time>2023-10-15T09:51:32Z</time>
      </trkpt>
      <trkpt lat="49.28356" lon="-0.10657">
        <ele>4.3</ele>
        <time>2023-10-15T09:51:33Z</time>
      </trkpt>
      <trkpt lat="49.28356" lon="-0.10665">
        <ele>4.3</ele>
        <time>2023-10-15T09:51:34Z</time>
      </trkpt>
      <trkpt lat="49.28356" lon="-0.10673">
        <ele>4.3</ele>
        <time>2023-10-15T09:51:35Z</time>
      </trkpt>
      <trkpt lat="49.28356" lon="-0.10681">
        <ele>4.3</ele>
        <time>2023-10-15T09:51:36Z</time>
      </trkpt>
      <trkpt lat="49.28357" lon="-0.1069">
        <ele>4.4</ele>
        <time>2023-10-15T09:51:37Z</time>
      </trkpt>
      <trkpt lat="49.28357" lon="-0.10698">
        <ele>4.4</ele>
        <time>2023-10-15T09:51:38Z</time>
      </trkpt>
      <trkpt lat="49.28358" lon="-0.10706">
        <ele>4.4</ele>
        <time>2023-10-15T09:51:39Z</time>
      </trkpt>
      <trkpt lat="49.28358" lon="-0.10714">
        <ele>4.4</ele>
        <time>2023-10-15T09:51:40Z</time>
      </trkpt>
      <trkpt lat="49.28358" lon="-0.10723">
        <ele>4.3</ele>
        <time>2023-10-15T09:51:41Z</time>
      </trkpt>
      <trkpt lat="49.28359" lon="-0.10731">
        <ele>4.3</ele>
        <time>2023-10-15T09:51:42Z</time>
      </trkpt>
      <trkpt lat="49.28359" lon="-0.10739">
        <ele>4.3</ele>
        <time>2023-10-15T09:51:43Z</time>
      </trkpt>
      <trkpt lat="49.28359" lon="-0.10746">
        <ele>4.3</ele>
        <time>2023-10-15T09:51:44Z</time>
      </trkpt>
      <trkpt lat="49.28359" lon="-0.10754">
        <ele>4.3</ele>
        <time>2023-10-15T09:51:45Z</time>
      </trkpt>
      <trkpt lat="49.2836" lon="-0.10762">
        <ele>4.3</ele>
        <time>2023-10-15T09:51:46Z</time>
      </trkpt>
      <trkpt lat="49.28361" lon="-0.10767">
        <ele>4.3</ele>
        <time>2023-10-15T09:51:47Z</time>
      </trkpt>
      <trkpt lat="49.28364" lon="-0.10768">
        <ele>4.3</ele>
        <time>2023-10-15T09:51:48Z</time>
      </trkpt>
      <trkpt lat="49.28368" lon="-0.10767">
        <ele>4.3</ele>
        <time>2023-10-15T09:51:49Z</time>
      </trkpt>
      <trkpt lat="49.28373" lon="-0.10765">
        <ele>4.2</ele>
        <time>2023-10-15T09:51:50Z</time>
      </trkpt>
      <trkpt lat="49.28378" lon="-0.10764">
        <ele>4.2</ele>
        <time>2023-10-15T09:51:51Z</time>
      </trkpt>
      <trkpt lat="49.28383" lon="-0.10764">
        <ele>4.2</ele>
        <time>2023-10-15T09:51:52Z</time>
      </trkpt>
      <trkpt lat="49.28388" lon="-0.10763">
        <ele>4.2</ele>
        <time>2023-10-15T09:51:53Z</time>
      </trkpt>
      <trkpt lat="49.28393" lon="-0.10762">
        <ele>4.3</ele>
        <time>2023-10-15T09:51:54Z</time>
      </trkpt>
      <trkpt lat="49.28398" lon="-0.10761">
        <ele>4.3</ele>
        <time>2023-10-15T09:51:55Z</time>
      </trkpt>
      <trkpt lat="49.28403" lon="-0.1076">
        <ele>4.3</ele>
        <time>2023-10-15T09:51:56Z</time>
      </trkpt>
      <trkpt lat="49.28408" lon="-0.1076">
        <ele>4.3</ele>
        <time>2023-10-15T09:51:57Z</time>
      </trkpt>
      <trkpt lat="49.28413" lon="-0.10759">
        <ele>4.2</ele>
        <time>2023-10-15T09:51:58Z</time>
      </trkpt>
      <trkpt lat="49.28417" lon="-0.10759">
        <ele>4.2</ele>
        <time>2023-10-15T09:51:59Z</time>
      </trkpt>
      <trkpt lat="49.28421" lon="-0.1076">
        <ele>4.2</ele>
        <time>2023-10-15T09:52:00Z</time>
      </trkpt>
      <trkpt lat="49.28425" lon="-0.10763">
        <ele>4.2</ele>
        <time>2023-10-15T09:52:01Z</time>
      </trkpt>
      <trkpt lat="49.28427" lon="-0.10769">
        <ele>4.1</ele>
        <time>2023-10-15T09:52:02Z</time>
      </trkpt>
      <trkpt lat="49.28428" lon="-0.10777">
        <ele>4</ele>
        <time>2023-10-15T09:52:03Z</time>
      </trkpt>
      <trkpt lat="49.28429" lon="-0.10784">
        <ele>3.9</ele>
        <time>2023-10-15T09:52:04Z</time>
      </trkpt>
      <trkpt lat="49.2843" lon="-0.1079">
        <ele>3.9</ele>
        <time>2023-10-15T09:52:05Z</time>
      </trkpt>
      <trkpt lat="49.28431" lon="-0.10796">
        <ele>3.8</ele>
        <time>2023-10-15T09:52:06Z</time>
      </trkpt>
      <trkpt lat="49.28432" lon="-0.10802">
        <ele>3.8</ele>
        <time>2023-10-15T09:52:07Z</time>
      </trkpt>
      <trkpt lat="49.28432" lon="-0.10808">
        <ele>3.8</ele>
        <time>2023-10-15T09:52:08Z</time>
      </trkpt>
      <trkpt lat="49.28431" lon="-0.10814">
        <ele>3.8</ele>
        <time>2023-10-15T09:52:09Z</time>
      </trkpt>
      <trkpt lat="49.28432" lon="-0.10821">
        <ele>3.8</ele>
        <time>2023-10-15T09:52:10Z</time>
      </trkpt>
      <trkpt lat="49.28433" lon="-0.10828">
        <ele>3.8</ele>
        <time>2023-10-15T09:52:11Z</time>
      </trkpt>
      <trkpt lat="49.28434" lon="-0.10834">
        <ele>3.8</ele>
        <time>2023-10-15T09:52:12Z</time>
      </trkpt>
      <trkpt lat="49.28436" lon="-0.1084">
        <ele>3.9</ele>
        <time>2023-10-15T09:52:13Z</time>
      </trkpt>
      <trkpt lat="49.28436" lon="-0.10846">
        <ele>3.9</ele>
        <time>2023-10-15T09:52:14Z</time>
      </trkpt>
      <trkpt lat="49.28437" lon="-0.10853">
        <ele>4</ele>
        <time>2023-10-15T09:52:15Z</time>
      </trkpt>
      <trkpt lat="49.28439" lon="-0.10859">
        <ele>4.1</ele>
        <time>2023-10-15T09:52:16Z</time>
      </trkpt>
      <trkpt lat="49.2844" lon="-0.10866">
        <ele>4.2</ele>
        <time>2023-10-15T09:52:17Z</time>
      </trkpt>
      <trkpt lat="49.2844" lon="-0.10872">
        <ele>4.3</ele>
        <time>2023-10-15T09:52:18Z</time>
      </trkpt>
      <trkpt lat="49.28441" lon="-0.10878">
        <ele>4.3</ele>
        <time>2023-10-15T09:52:19Z</time>
      </trkpt>
      <trkpt lat="49.28443" lon="-0.10883">
        <ele>4.4</ele>
        <time>2023-10-15T09:52:20Z</time>
      </trkpt>
      <trkpt lat="49.28446" lon="-0.10885">
        <ele>4.5</ele>
        <time>2023-10-15T09:52:21Z</time>
      </trkpt>
      <trkpt lat="49.2845" lon="-0.10884">
        <ele>4.4</ele>
        <time>2023-10-15T09:52:22Z</time>
      </trkpt>
      <trkpt lat="49.28454" lon="-0.10881">
        <ele>4.4</ele>
        <time>2023-10-15T09:52:23Z</time>
      </trkpt>
      <trkpt lat="49.28459" lon="-0.10878">
        <ele>4.3</ele>
        <time>2023-10-15T09:52:24Z</time>
      </trkpt>
      <trkpt lat="49.28462" lon="-0.10876">
        <ele>4.3</ele>
        <time>2023-10-15T09:52:25Z</time>
      </trkpt>
      <trkpt lat="49.28467" lon="-0.10875">
        <ele>4.2</ele>
        <time>2023-10-15T09:52:26Z</time>
      </trkpt>
      <trkpt lat="49.28471" lon="-0.10873">
        <ele>4.2</ele>
        <time>2023-10-15T09:52:27Z</time>
      </trkpt>
      <trkpt lat="49.28476" lon="-0.10871">
        <ele>4.2</ele>
        <time>2023-10-15T09:52:28Z</time>
      </trkpt>
      <trkpt lat="49.2848" lon="-0.10868">
        <ele>4.2</ele>
        <time>2023-10-15T09:52:29Z</time>
      </trkpt>
      <trkpt lat="49.28485" lon="-0.10866">
        <ele>4.3</ele>
        <time>2023-10-15T09:52:30Z</time>
      </trkpt>
      <trkpt lat="49.28489" lon="-0.10864">
        <ele>4.3</ele>
        <time>2023-10-15T09:52:31Z</time>
      </trkpt>
      <trkpt lat="49.28494" lon="-0.10861">
        <ele>4.4</ele>
        <time>2023-10-15T09:52:32Z</time>
      </trkpt>
      <trkpt lat="49.28498" lon="-0.10859">
        <ele>4.4</ele>
        <time>2023-10-15T09:52:33Z</time>
      </trkpt>
      <trkpt lat="49.28503" lon="-0.10857">
        <ele>4.5</ele>
        <time>2023-10-15T09:52:34Z</time>
      </trkpt>
      <trkpt lat="49.28508" lon="-0.10855">
        <ele>4.6</ele>
        <time>2023-10-15T09:52:35Z</time>
      </trkpt>
      <trkpt lat="49.28512" lon="-0.10853">
        <ele>4.7</ele>
        <time>2023-10-15T09:52:36Z</time>
      </trkpt>
      <trkpt lat="49.28516" lon="-0.10851">
        <ele>4.8</ele>
        <time>2023-10-15T09:52:37Z</time>
      </trkpt>
      <trkpt lat="49.28519" lon="-0.10849">
        <ele>4.8</ele>
        <time>2023-10-15T09:52:38Z</time>
      </trkpt>
      <trkpt lat="49.28523" lon="-0.10846">
        <ele>4.8</ele>
        <time>2023-10-15T09:52:39Z</time>
      </trkpt>
      <trkpt lat="49.28526" lon="-0.10843">
        <ele>4.8</ele>
        <time>2023-10-15T09:52:40Z</time>
      </trkpt>
      <trkpt lat="49.2853" lon="-0.10842">
        <ele>4.8</ele>
        <time>2023-10-15T09:52:41Z</time>
      </trkpt>
      <trkpt lat="49.28534" lon="-0.10843">
        <ele>4.8</ele>
        <time>2023-10-15T09:52:42Z</time>
      </trkpt>
      <trkpt lat="49.28538" lon="-0.10847">
        <ele>4.8</ele>
        <time>2023-10-15T09:52:43Z</time>
      </trkpt>
      <trkpt lat="49.28541" lon="-0.10854">
        <ele>4.7</ele>
        <time>2023-10-15T09:52:44Z</time>
      </trkpt>
      <trkpt lat="49.28543" lon="-0.10862">
        <ele>4.7</ele>
        <time>2023-10-15T09:52:45Z</time>
      </trkpt>
      <trkpt lat="49.28543" lon="-0.10869">
        <ele>4.7</ele>
        <time>2023-10-15T09:52:46Z</time>
      </trkpt>
      <trkpt lat="49.28544" lon="-0.10876">
        <ele>4.7</ele>
        <time>2023-10-15T09:52:47Z</time>
      </trkpt>
      <trkpt lat="49.28543" lon="-0.10883">
        <ele>4.7</ele>
        <time>2023-10-15T09:52:48Z</time>
      </trkpt>
      <trkpt lat="49.28542" lon="-0.1089">
        <ele>4.7</ele>
        <time>2023-10-15T09:52:49Z</time>
      </trkpt>
      <trkpt lat="49.28539" lon="-0.10896">
        <ele>4.7</ele>
        <time>2023-10-15T09:52:50Z</time>
      </trkpt>
      <trkpt lat="49.28537" lon="-0.10902">
        <ele>4.7</ele>
        <time>2023-10-15T09:52:51Z</time>
      </trkpt>
      <trkpt lat="49.28535" lon="-0.10908">
        <ele>4.6</ele>
        <time>2023-10-15T09:52:52Z</time>
      </trkpt>
      <trkpt lat="49.28534" lon="-0.10916">
        <ele>4.7</ele>
        <time>2023-10-15T09:52:53Z</time>
      </trkpt>
      <trkpt lat="49.28534" lon="-0.10924">
        <ele>4.7</ele>
        <time>2023-10-15T09:52:54Z</time>
      </trkpt>
      <trkpt lat="49.28534" lon="-0.10932">
        <ele>4.7</ele>
        <time>2023-10-15T09:52:55Z</time>
      </trkpt>
      <trkpt lat="49.28535" lon="-0.1094">
        <ele>4.7</ele>
        <time>2023-10-15T09:52:56Z</time>
      </trkpt>
      <trkpt lat="49.28535" lon="-0.10948">
        <ele>4.7</ele>
        <time>2023-10-15T09:52:57Z</time>
      </trkpt>
      <trkpt lat="49.28536" lon="-0.10956">
        <ele>4.8</ele>
        <time>2023-10-15T09:52:58Z</time>
      </trkpt>
      <trkpt lat="49.28537" lon="-0.10964">
        <ele>4.8</ele>
        <time>2023-10-15T09:52:59Z</time>
      </trkpt>
      <trkpt lat="49.28538" lon="-0.10972">
        <ele>4.8</ele>
        <time>2023-10-15T09:53:00Z</time>
      </trkpt>
      <trkpt lat="49.2854" lon="-0.10979">
        <ele>4.9</ele>
        <time>2023-10-15T09:53:01Z</time>
      </trkpt>
      <trkpt lat="49.28541" lon="-0.10987">
        <ele>4.9</ele>
        <time>2023-10-15T09:53:02Z</time>
      </trkpt>
      <trkpt lat="49.28543" lon="-0.10995">
        <ele>5</ele>
        <time>2023-10-15T09:53:03Z</time>
      </trkpt>
      <trkpt lat="49.28544" lon="-0.11003">
        <ele>5</ele>
        <time>2023-10-15T09:53:04Z</time>
      </trkpt>
      <trkpt lat="49.28545" lon="-0.11011">
        <ele>5.1</ele>
        <time>2023-10-15T09:53:05Z</time>
      </trkpt>
      <trkpt lat="49.28546" lon="-0.11019">
        <ele>5.1</ele>
        <time>2023-10-15T09:53:06Z</time>
      </trkpt>
      <trkpt lat="49.28548" lon="-0.11026">
        <ele>5.2</ele>
        <time>2023-10-15T09:53:07Z</time>
      </trkpt>
      <trkpt lat="49.2855" lon="-0.11034">
        <ele>5.3</ele>
        <time>2023-10-15T09:53:08Z</time>
      </trkpt>
      <trkpt lat="49.28553" lon="-0.11043">
        <ele>5.4</ele>
        <time>2023-10-15T09:53:09Z</time>
      </trkpt>
      <trkpt lat="49.28555" lon="-0.11051">
        <ele>5.4</ele>
        <time>2023-10-15T09:53:10Z</time>
      </trkpt>
      <trkpt lat="49.28557" lon="-0.11058">
        <ele>5.5</ele>
        <time>2023-10-15T09:53:11Z</time>
      </trkpt>
      <trkpt lat="49.2856" lon="-0.11066">
        <ele>5.6</ele>
        <time>2023-10-15T09:53:12Z</time>
      </trkpt>
      <trkpt lat="49.28561" lon="-0.11074">
        <ele>5.7</ele>
        <time>2023-10-15T09:53:13Z</time>
      </trkpt>
      <trkpt lat="49.28563" lon="-0.11082">
        <ele>5.8</ele>
        <time>2023-10-15T09:53:14Z</time>
      </trkpt>
      <trkpt lat="49.28565" lon="-0.1109">
        <ele>5.9</ele>
        <time>2023-10-15T09:53:15Z</time>
      </trkpt>
      <trkpt lat="49.28566" lon="-0.11098">
        <ele>6</ele>
        <time>2023-10-15T09:53:16Z</time>
      </trkpt>
      <trkpt lat="49.28568" lon="-0.11106">
        <ele>6.1</ele>
        <time>2023-10-15T09:53:17Z</time>
      </trkpt>
      <trkpt lat="49.2857" lon="-0.11114">
        <ele>6.3</ele>
        <time>2023-10-15T09:53:18Z</time>
      </trkpt>
      <trkpt lat="49.28572" lon="-0.11121">
        <ele>6.4</ele>
        <time>2023-10-15T09:53:19Z</time>
      </trkpt>
      <trkpt lat="49.28574" lon="-0.11129">
        <ele>6.4</ele>
        <time>2023-10-15T09:53:20Z</time>
      </trkpt>
      <trkpt lat="49.28576" lon="-0.11136">
        <ele>6.5</ele>
        <time>2023-10-15T09:53:21Z</time>
      </trkpt>
      <trkpt lat="49.28578" lon="-0.11144">
        <ele>6.5</ele>
        <time>2023-10-15T09:53:22Z</time>
      </trkpt>
      <trkpt lat="49.2858" lon="-0.11151">
        <ele>6.5</ele>
        <time>2023-10-15T09:53:23Z</time>
      </trkpt>
      <trkpt lat="49.28581" lon="-0.11158">
        <ele>6.5</ele>
        <time>2023-10-15T09:53:24Z</time>
      </trkpt>
      <trkpt lat="49.28583" lon="-0.11165">
        <ele>6.6</ele>
        <time>2023-10-15T09:53:25Z</time>
      </trkpt>
      <trkpt lat="49.28585" lon="-0.11172">
        <ele>6.6</ele>
        <time>2023-10-15T09:53:26Z</time>
      </trkpt>
      <trkpt lat="49.28586" lon="-0.11179">
        <ele>6.6</ele>
        <time>2023-10-15T09:53:27Z</time>
      </trkpt>
      <trkpt lat="49.28588" lon="-0.11186">
        <ele>6.6</ele>
        <time>2023-10-15T09:53:28Z</time>
      </trkpt>
      <trkpt lat="49.2859" lon="-0.11193">
        <ele>6.6</ele>
        <time>2023-10-15T09:53:29Z</time>
      </trkpt>
      <trkpt lat="49.28592" lon="-0.112">
        <ele>6.6</ele>
        <time>2023-10-15T09:53:30Z</time>
      </trkpt>
      <trkpt lat="49.28593" lon="-0.11207">
        <ele>6.6</ele>
        <time>2023-10-15T09:53:31Z</time>
      </trkpt>
      <trkpt lat="49.28595" lon="-0.11213">
        <ele>6.6</ele>
        <time>2023-10-15T09:53:32Z</time>
      </trkpt>
      <trkpt lat="49.28597" lon="-0.1122">
        <ele>6.6</ele>
        <time>2023-10-15T09:53:33Z</time>
      </trkpt>
      <trkpt lat="49.286" lon="-0.11224">
        <ele>6.5</ele>
        <time>2023-10-15T09:53:34Z</time>
      </trkpt>
      <trkpt lat="49.28603" lon="-0.11228">
        <ele>6.5</ele>
        <time>2023-10-15T09:53:35Z</time>
      </trkpt>
      <trkpt lat="49.28605" lon="-0.11232">
        <ele>6.5</ele>
        <time>2023-10-15T09:53:36Z</time>
      </trkpt>
      <trkpt lat="49.28607" lon="-0.11238">
        <ele>6.5</ele>
        <time>2023-10-15T09:53:37Z</time>
      </trkpt>
      <trkpt lat="49.28608" lon="-0.11245">
        <ele>6.5</ele>
        <time>2023-10-15T09:53:38Z</time>
      </trkpt>
      <trkpt lat="49.28608" lon="-0.11253">
        <ele>6.4</ele>
        <time>2023-10-15T09:53:39Z</time>
      </trkpt>
      <trkpt lat="49.28609" lon="-0.11261">
        <ele>6.3</ele>
        <time>2023-10-15T09:53:40Z</time>
      </trkpt>
      <trkpt lat="49.2861" lon="-0.11269">
        <ele>6.2</ele>
        <time>2023-10-15T09:53:41Z</time>
      </trkpt>
      <trkpt lat="49.28612" lon="-0.11277">
        <ele>6.1</ele>
        <time>2023-10-15T09:53:42Z</time>
      </trkpt>
      <trkpt lat="49.28614" lon="-0.11284">
        <ele>6</ele>
        <time>2023-10-15T09:53:43Z</time>
      </trkpt>
      <trkpt lat="49.28616" lon="-0.11291">
        <ele>5.9</ele>
        <time>2023-10-15T09:53:44Z</time>
      </trkpt>
      <trkpt lat="49.28618" lon="-0.11299">
        <ele>5.8</ele>
        <time>2023-10-15T09:53:45Z</time>
      </trkpt>
      <trkpt lat="49.2862" lon="-0.11307">
        <ele>5.7</ele>
        <time>2023-10-15T09:53:46Z</time>
      </trkpt>
      <trkpt lat="49.28622" lon="-0.11315">
        <ele>5.6</ele>
        <time>2023-10-15T09:53:47Z</time>
      </trkpt>
      <trkpt lat="49.28624" lon="-0.11324">
        <ele>5.5</ele>
        <time>2023-10-15T09:53:48Z</time>
      </trkpt>
      <trkpt lat="49.28627" lon="-0.11332">
        <ele>5.5</ele>
        <time>2023-10-15T09:53:49Z</time>
      </trkpt>
      <trkpt lat="49.28629" lon="-0.11341">
        <ele>5.4</ele>
        <time>2023-10-15T09:53:50Z</time>
      </trkpt>
      <trkpt lat="49.28632" lon="-0.1135">
        <ele>5.3</ele>
        <time>2023-10-15T09:53:51Z</time>
      </trkpt>
      <trkpt lat="49.28634" lon="-0.11359">
        <ele>5.3</ele>
        <time>2023-10-15T09:53:52Z</time>
      </trkpt>
      <trkpt lat="49.28637" lon="-0.11368">
        <ele>5.2</ele>
        <time>2023-10-15T09:53:53Z</time>
      </trkpt>
      <trkpt lat="49.2864" lon="-0.11377">
        <ele>5.2</ele>
        <time>2023-10-15T09:53:54Z</time>
      </trkpt>
      <trkpt lat="49.28642" lon="-0.11387">
        <ele>5.1</ele>
        <time>2023-10-15T09:53:55Z</time>
      </trkpt>
      <trkpt lat="49.28645" lon="-0.11396">
        <ele>5.1</ele>
        <time>2023-10-15T09:53:56Z</time>
      </trkpt>
      <trkpt lat="49.28648" lon="-0.11405">
        <ele>5.1</ele>
        <time>2023-10-15T09:53:57Z</time>
      </trkpt>
      <trkpt lat="49.2865" lon="-0.11415">
        <ele>5.1</ele>
        <time>2023-10-15T09:53:58Z</time>
      </trkpt>
      <trkpt lat="49.28652" lon="-0.11424">
        <ele>5</ele>
        <time>2023-10-15T09:53:59Z</time>
      </trkpt>
      <trkpt lat="49.28655" lon="-0.11433">
        <ele>5</ele>
        <time>2023-10-15T09:54:00Z</time>
      </trkpt>
      <trkpt lat="49.28657" lon="-0.11443">
        <ele>5</ele>
        <time>2023-10-15T09:54:01Z</time>
      </trkpt>
      <trkpt lat="49.2866" lon="-0.11452">
        <ele>5</ele>
        <time>2023-10-15T09:54:02Z</time>
      </trkpt>
      <trkpt lat="49.28662" lon="-0.11461">
        <ele>5</ele>
        <time>2023-10-15T09:54:03Z</time>
      </trkpt>
      <trkpt lat="49.28664" lon="-0.1147">
        <ele>5</ele>
        <time>2023-10-15T09:54:04Z</time>
      </trkpt>
      <trkpt lat="49.28667" lon="-0.11479">
        <ele>5</ele>
        <time>2023-10-15T09:54:05Z</time>
      </trkpt>
      <trkpt lat="49.28669" lon="-0.11488">
        <ele>5</ele>
        <time>2023-10-15T09:54:06Z</time>
      </trkpt>
      <trkpt lat="49.28671" lon="-0.11497">
        <ele>5</ele>
        <time>2023-10-15T09:54:07Z</time>
      </trkpt>
      <trkpt lat="49.28673" lon="-0.11505">
        <ele>5</ele>
        <time>2023-10-15T09:54:08Z</time>
      </trkpt>
      <trkpt lat="49.28676" lon="-0.11514">
        <ele>5</ele>
        <time>2023-10-15T09:54:09Z</time>
      </trkpt>
      <trkpt lat="49.28678" lon="-0.11522">
        <ele>5</ele>
        <time>2023-10-15T09:54:10Z</time>
      </trkpt>
      <trkpt lat="49.2868" lon="-0.11531">
        <ele>5.1</ele>
        <time>2023-10-15T09:54:11Z</time>
      </trkpt>
      <trkpt lat="49.28682" lon="-0.1154">
        <ele>5.1</ele>
        <time>2023-10-15T09:54:12Z</time>
      </trkpt>
      <trkpt lat="49.28684" lon="-0.11549">
        <ele>5</ele>
        <time>2023-10-15T09:54:13Z</time>
      </trkpt>
      <trkpt lat="49.28685" lon="-0.11558">
        <ele>5</ele>
        <time>2023-10-15T09:54:14Z</time>
      </trkpt>
      <trkpt lat="49.28687" lon="-0.11568">
        <ele>5</ele>
        <time>2023-10-15T09:54:15Z</time>
      </trkpt>
      <trkpt lat="49.28688" lon="-0.11577">
        <ele>5</ele>
        <time>2023-10-15T09:54:16Z</time>
      </trkpt>
      <trkpt lat="49.28689" lon="-0.11586">
        <ele>5</ele>
        <time>2023-10-15T09:54:17Z</time>
      </trkpt>
      <trkpt lat="49.2869" lon="-0.11597">
        <ele>5</ele>
        <time>2023-10-15T09:54:18Z</time>
      </trkpt>
      <trkpt lat="49.28691" lon="-0.11606">
        <ele>5</ele>
        <time>2023-10-15T09:54:19Z</time>
      </trkpt>
      <trkpt lat="49.28691" lon="-0.11616">
        <ele>5</ele>
        <time>2023-10-15T09:54:20Z</time>
      </trkpt>
      <trkpt lat="49.28691" lon="-0.11626">
        <ele>5</ele>
        <time>2023-10-15T09:54:21Z</time>
      </trkpt>
      <trkpt lat="49.28692" lon="-0.11636">
        <ele>5</ele>
        <time>2023-10-15T09:54:22Z</time>
      </trkpt>
      <trkpt lat="49.28692" lon="-0.11647">
        <ele>5</ele>
        <time>2023-10-15T09:54:23Z</time>
      </trkpt>
      <trkpt lat="49.28692" lon="-0.11657">
        <ele>5</ele>
        <time>2023-10-15T09:54:24Z</time>
      </trkpt>
      <trkpt lat="49.28691" lon="-0.11666">
        <ele>4.9</ele>
        <time>2023-10-15T09:54:25Z</time>
      </trkpt>
      <trkpt lat="49.28689" lon="-0.11676">
        <ele>4.9</ele>
        <time>2023-10-15T09:54:26Z</time>
      </trkpt>
      <trkpt lat="49.28689" lon="-0.11686">
        <ele>4.9</ele>
        <time>2023-10-15T09:54:27Z</time>
      </trkpt>
      <trkpt lat="49.28689" lon="-0.11697">
        <ele>4.9</ele>
        <time>2023-10-15T09:54:28Z</time>
      </trkpt>
      <trkpt lat="49.28688" lon="-0.11706">
        <ele>4.8</ele>
        <time>2023-10-15T09:54:29Z</time>
      </trkpt>
      <trkpt lat="49.28688" lon="-0.11716">
        <ele>4.8</ele>
        <time>2023-10-15T09:54:30Z</time>
      </trkpt>
      <trkpt lat="49.28687" lon="-0.11726">
        <ele>4.8</ele>
        <time>2023-10-15T09:54:31Z</time>
      </trkpt>
      <trkpt lat="49.28687" lon="-0.11737">
        <ele>4.7</ele>
        <time>2023-10-15T09:54:32Z</time>
      </trkpt>
      <trkpt lat="49.28686" lon="-0.11747">
        <ele>4.7</ele>
        <time>2023-10-15T09:54:33Z</time>
      </trkpt>
      <trkpt lat="49.28686" lon="-0.11757">
        <ele>4.7</ele>
        <time>2023-10-15T09:54:34Z</time>
      </trkpt>
      <trkpt lat="49.28686" lon="-0.11767">
        <ele>4.6</ele>
        <time>2023-10-15T09:54:35Z</time>
      </trkpt>
      <trkpt lat="49.28686" lon="-0.11777">
        <ele>4.6</ele>
        <time>2023-10-15T09:54:36Z</time>
      </trkpt>
      <trkpt lat="49.28685" lon="-0.11787">
        <ele>4.6</ele>
        <time>2023-10-15T09:54:37Z</time>
      </trkpt>
      <trkpt lat="49.28685" lon="-0.11797">
        <ele>4.6</ele>
        <time>2023-10-15T09:54:38Z</time>
      </trkpt>
      <trkpt lat="49.28684" lon="-0.11806">
        <ele>4.6</ele>
        <time>2023-10-15T09:54:39Z</time>
      </trkpt>
      <trkpt lat="49.28683" lon="-0.11816">
        <ele>4.6</ele>
        <time>2023-10-15T09:54:40Z</time>
      </trkpt>
      <trkpt lat="49.28682" lon="-0.11826">
        <ele>4.6</ele>
        <time>2023-10-15T09:54:41Z</time>
      </trkpt>
      <trkpt lat="49.28681" lon="-0.11835">
        <ele>4.6</ele>
        <time>2023-10-15T09:54:42Z</time>
      </trkpt>
      <trkpt lat="49.2868" lon="-0.11844">
        <ele>4.6</ele>
        <time>2023-10-15T09:54:43Z</time>
      </trkpt>
      <trkpt lat="49.28679" lon="-0.11852">
        <ele>4.6</ele>
        <time>2023-10-15T09:54:44Z</time>
      </trkpt>
      <trkpt lat="49.28677" lon="-0.11859">
        <ele>4.6</ele>
        <time>2023-10-15T09:54:45Z</time>
      </trkpt>
      <trkpt lat="49.28675" lon="-0.11866">
        <ele>4.6</ele>
        <time>2023-10-15T09:54:46Z</time>
      </trkpt>
      <trkpt lat="49.28672" lon="-0.11872">
        <ele>4.6</ele>
        <time>2023-10-15T09:54:47Z</time>
      </trkpt>
      <trkpt lat="49.28668" lon="-0.11876">
        <ele>4.6</ele>
        <time>2023-10-15T09:54:48Z</time>
      </trkpt>
      <trkpt lat="49.28663" lon="-0.11879">
        <ele>4.6</ele>
        <time>2023-10-15T09:54:49Z</time>
      </trkpt>
      <trkpt lat="49.28659" lon="-0.11881">
        <ele>4.6</ele>
        <time>2023-10-15T09:54:50Z</time>
      </trkpt>
      <trkpt lat="49.28654" lon="-0.11883">
        <ele>4.6</ele>
        <time>2023-10-15T09:54:51Z</time>
      </trkpt>
      <trkpt lat="49.28651" lon="-0.11886">
        <ele>4.6</ele>
        <time>2023-10-15T09:54:52Z</time>
      </trkpt>
      <trkpt lat="49.28648" lon="-0.1189">
        <ele>4.7</ele>
        <time>2023-10-15T09:54:53Z</time>
      </trkpt>
      <trkpt lat="49.28646" lon="-0.11895">
        <ele>4.7</ele>
        <time>2023-10-15T09:54:54Z</time>
      </trkpt>
      <trkpt lat="49.28645" lon="-0.119">
        <ele>4.7</ele>
        <time>2023-10-15T09:54:55Z</time>
      </trkpt>
      <trkpt lat="49.28643" lon="-0.11905">
        <ele>4.8</ele>
        <time>2023-10-15T09:54:56Z</time>
      </trkpt>
      <trkpt lat="49.28642" lon="-0.11909">
        <ele>4.8</ele>
        <time>2023-10-15T09:54:57Z</time>
      </trkpt>
      <trkpt lat="49.28642" lon="-0.11914">
        <ele>4.9</ele>
        <time>2023-10-15T09:54:58Z</time>
      </trkpt>
      <trkpt lat="49.28643" lon="-0.1192">
        <ele>4.9</ele>
        <time>2023-10-15T09:54:59Z</time>
      </trkpt>
      <trkpt lat="49.28644" lon="-0.11921">
        <ele>5.2</ele>
        <time>2023-10-15T09:55:00Z</time>
      </trkpt>
      <trkpt lat="49.28645" lon="-0.11922">
        <ele>5.2</ele>
        <time>2023-10-15T09:55:01Z</time>
      </trkpt>
      <trkpt lat="49.28646" lon="-0.11922">
        <ele>5.2</ele>
        <time>2023-10-15T09:55:02Z</time>
      </trkpt>
      <trkpt lat="49.28647" lon="-0.11921">
        <ele>5.2</ele>
        <time>2023-10-15T09:55:03Z</time>
      </trkpt>
      <trkpt lat="49.28646" lon="-0.11921">
        <ele>5.2</ele>
        <time>2023-10-15T09:55:04Z</time>
      </trkpt>
      <trkpt lat="49.28646" lon="-0.11922">
        <ele>5.2</ele>
        <time>2023-10-15T09:55:05Z</time>
      </trkpt>
      <trkpt lat="49.28646" lon="-0.11923">
        <ele>5.2</ele>
        <time>2023-10-15T09:55:06Z</time>
      </trkpt>
      <trkpt lat="49.28646" lon="-0.11923">
        <ele>5.2</ele>
        <time>2023-10-15T09:55:07Z</time>
      </trkpt>
      <trkpt lat="49.28646" lon="-0.11923">
        <ele>5.2</ele>
        <time>2023-10-15T09:55:08Z</time>
      </trkpt>
      <trkpt lat="49.28646" lon="-0.11923">
        <ele>5.2</ele>
        <time>2023-10-15T09:55:09Z</time>
      </trkpt>
      <trkpt lat="49.28646" lon="-0.11924">
        <ele>5.2</ele>
        <time>2023-10-15T09:55:10Z</time>
      </trkpt>
      <trkpt lat="49.28646" lon="-0.11924">
        <ele>5.2</ele>
        <time>2023-10-15T09:55:11Z</time>
      </trkpt>
      <trkpt lat="49.28646" lon="-0.11924">
        <ele>5.2</ele>
        <time>2023-10-15T09:55:12Z</time>
      </trkpt>
      <trkpt lat="49.28646" lon="-0.11924">
        <ele>5.2</ele>
        <time>2023-10-15T09:55:13Z</time>
      </trkpt>
      <trkpt lat="49.28648" lon="-0.1192">
        <ele>5.2</ele>
        <time>2023-10-15T10:04:07Z</time>
      </trkpt>
      <trkpt lat="49.28647" lon="-0.11919">
        <ele>5.2</ele>
        <time>2023-10-15T10:04:08Z</time>
      </trkpt>
      <trkpt lat="49.28647" lon="-0.11919">
        <ele>5.2</ele>
        <time>2023-10-15T10:04:09Z</time>
      </trkpt>
      <trkpt lat="49.28647" lon="-0.11919">
        <ele>5.2</ele>
        <time>2023-10-15T10:04:10Z</time>
      </trkpt>
      <trkpt lat="49.28647" lon="-0.1192">
        <ele>5.2</ele>
        <time>2023-10-15T10:04:11Z</time>
      </trkpt>
      <trkpt lat="49.28647" lon="-0.1192">
        <ele>5.2</ele>
        <time>2023-10-15T10:04:12Z</time>
      </trkpt>
      <trkpt lat="49.28648" lon="-0.11921">
        <ele>5.2</ele>
        <time>2023-10-15T10:04:13Z</time>
      </trkpt>
      <trkpt lat="49.28649" lon="-0.11921">
        <ele>5.2</ele>
        <time>2023-10-15T10:04:14Z</time>
      </trkpt>
      <trkpt lat="49.28649" lon="-0.11921">
        <ele>5.2</ele>
        <time>2023-10-15T10:04:15Z</time>
      </trkpt>
      <trkpt lat="49.28649" lon="-0.11921">
        <ele>5.2</ele>
        <time>2023-10-15T10:04:16Z</time>
      </trkpt>
      <trkpt lat="49.28649" lon="-0.11921">
        <ele>5.2</ele>
        <time>2023-10-15T10:04:17Z</time>
      </trkpt>
      <trkpt lat="49.28649" lon="-0.11921">
        <ele>5.2</ele>
        <time>2023-10-15T10:04:18Z</time>
      </trkpt>
      <trkpt lat="49.2865" lon="-0.1192">
        <ele>5.2</ele>
        <time>2023-10-15T10:09:41Z</time>
      </trkpt>
      <trkpt lat="49.28651" lon="-0.11919">
        <ele>5.2</ele>
        <time>2023-10-15T10:09:42Z</time>
      </trkpt>
      <trkpt lat="49.28651" lon="-0.11919">
        <ele>5.2</ele>
        <time>2023-10-15T10:09:43Z</time>
      </trkpt>
      <trkpt lat="49.28651" lon="-0.11919">
        <ele>5.2</ele>
        <time>2023-10-15T10:09:44Z</time>
      </trkpt>
      <trkpt lat="49.28651" lon="-0.11919">
        <ele>5.2</ele>
        <time>2023-10-15T10:09:45Z</time>
      </trkpt>
      <trkpt lat="49.28651" lon="-0.11919">
        <ele>5.2</ele>
        <time>2023-10-15T10:09:46Z</time>
      </trkpt>
      <trkpt lat="49.28651" lon="-0.11919">
        <ele>5.2</ele>
        <time>2023-10-15T10:09:47Z</time>
      </trkpt>
      <trkpt lat="49.28651" lon="-0.11919">
        <ele>5.2</ele>
        <time>2023-10-15T10:09:48Z</time>
      </trkpt>
      <trkpt lat="49.28651" lon="-0.11919">
        <ele>5.2</ele>
        <time>2023-10-15T10:09:49Z</time>
      </trkpt>
      <trkpt lat="49.28651" lon="-0.11919">
        <ele>5.2</ele>
        <time>2023-10-15T10:09:50Z</time>
      </trkpt>
      <trkpt lat="49.28651" lon="-0.11919">
        <ele>5.2</ele>
        <time>2023-10-15T10:09:51Z</time>
      </trkpt>
      <trkpt lat="49.28651" lon="-0.11919">
        <ele>5.2</ele>
        <time>2023-10-15T10:09:52Z</time>
      </trkpt>
      <trkpt lat="49.28651" lon="-0.11919">
        <ele>5.2</ele>
        <time>2023-10-15T10:09:53Z</time>
      </trkpt>
    </trkseg>
  </trk>
</gpx>